<?xml version="1.0" encoding="UTF-8" standalone="no" ?>
<gpx xmlns="http://www.topografix.com/GPX/1/1" xmlns:xsi="http://www.w3.org/2001/XMLSchema-instance" xsi:schemaLocation="http://www.topografix.com/GPX/1/1 http://www.topografix.com/GPX/1/1/gpx.xsd" version="1.1" creator="VisuGPX - https://www.visugpx.com">
  <metadata>
    <name>Marche des falaises</name>
  </metadata>
  <trk>
    <name><![CDATA[Marche des falaises_1]]></name>
    <trkseg>
      <trkpt lat="43.48987" lon="5.23258">
        <ele>17</ele>
        <time>2022-10-02T07:22:40.000Z</time>
      </trkpt>
      <trkpt lat="43.48987" lon="5.23258">
        <ele>17</ele>
        <time>2022-10-02T07:22:41.000Z</time>
      </trkpt>
      <trkpt lat="43.48987" lon="5.23258">
        <ele>17</ele>
        <time>2022-10-02T07:22:42.000Z</time>
      </trkpt>
      <trkpt lat="43.48987" lon="5.23258">
        <ele>17</ele>
        <time>2022-10-02T07:22:43.000Z</time>
      </trkpt>
      <trkpt lat="43.48987" lon="5.23259">
        <ele>17</ele>
        <time>2022-10-02T07:22:44.000Z</time>
      </trkpt>
      <trkpt lat="43.48987" lon="5.23259">
        <ele>18</ele>
        <time>2022-10-02T07:22:45.000Z</time>
      </trkpt>
      <trkpt lat="43.48987" lon="5.23259">
        <ele>18</ele>
        <time>2022-10-02T07:22:46.000Z</time>
      </trkpt>
      <trkpt lat="43.48988" lon="5.2326">
        <ele>18</ele>
        <time>2022-10-02T07:22:47.000Z</time>
      </trkpt>
      <trkpt lat="43.48989" lon="5.23261">
        <ele>19</ele>
        <time>2022-10-02T07:22:48.000Z</time>
      </trkpt>
      <trkpt lat="43.4899" lon="5.23262">
        <ele>19</ele>
        <time>2022-10-02T07:22:49.000Z</time>
      </trkpt>
      <trkpt lat="43.48991" lon="5.23263">
        <ele>19</ele>
        <time>2022-10-02T07:22:50.000Z</time>
      </trkpt>
      <trkpt lat="43.48992" lon="5.23264">
        <ele>20</ele>
        <time>2022-10-02T07:22:51.000Z</time>
      </trkpt>
      <trkpt lat="43.48993" lon="5.23266">
        <ele>20</ele>
        <time>2022-10-02T07:22:52.000Z</time>
      </trkpt>
      <trkpt lat="43.48994" lon="5.23267">
        <ele>20</ele>
        <time>2022-10-02T07:22:53.000Z</time>
      </trkpt>
      <trkpt lat="43.48995" lon="5.23268">
        <ele>20</ele>
        <time>2022-10-02T07:22:54.000Z</time>
      </trkpt>
      <trkpt lat="43.48996" lon="5.23269">
        <ele>21</ele>
        <time>2022-10-02T07:22:55.000Z</time>
      </trkpt>
      <trkpt lat="43.48997" lon="5.2327">
        <ele>21</ele>
        <time>2022-10-02T07:22:56.000Z</time>
      </trkpt>
      <trkpt lat="43.48999" lon="5.23271">
        <ele>21</ele>
        <time>2022-10-02T07:22:57.000Z</time>
      </trkpt>
      <trkpt lat="43.49" lon="5.23272">
        <ele>21</ele>
        <time>2022-10-02T07:22:58.000Z</time>
      </trkpt>
      <trkpt lat="43.49001" lon="5.23273">
        <ele>21</ele>
        <time>2022-10-02T07:22:59.000Z</time>
      </trkpt>
      <trkpt lat="43.49002" lon="5.23274">
        <ele>21</ele>
        <time>2022-10-02T07:23:00.000Z</time>
      </trkpt>
      <trkpt lat="43.49004" lon="5.23275">
        <ele>22</ele>
        <time>2022-10-02T07:23:01.000Z</time>
      </trkpt>
      <trkpt lat="43.49005" lon="5.23276">
        <ele>22</ele>
        <time>2022-10-02T07:23:02.000Z</time>
      </trkpt>
      <trkpt lat="43.49006" lon="5.23278">
        <ele>22</ele>
        <time>2022-10-02T07:23:03.000Z</time>
      </trkpt>
      <trkpt lat="43.49007" lon="5.23279">
        <ele>22</ele>
        <time>2022-10-02T07:23:04.000Z</time>
      </trkpt>
      <trkpt lat="43.49009" lon="5.2328">
        <ele>22</ele>
        <time>2022-10-02T07:23:05.000Z</time>
      </trkpt>
      <trkpt lat="43.4901" lon="5.23281">
        <ele>22</ele>
        <time>2022-10-02T07:23:06.000Z</time>
      </trkpt>
      <trkpt lat="43.49012" lon="5.23282">
        <ele>22</ele>
        <time>2022-10-02T07:23:07.000Z</time>
      </trkpt>
      <trkpt lat="43.49013" lon="5.23283">
        <ele>22</ele>
        <time>2022-10-02T07:23:08.000Z</time>
      </trkpt>
      <trkpt lat="43.49014" lon="5.23285">
        <ele>22</ele>
        <time>2022-10-02T07:23:09.000Z</time>
      </trkpt>
      <trkpt lat="43.49016" lon="5.23286">
        <ele>22</ele>
        <time>2022-10-02T07:23:10.000Z</time>
      </trkpt>
      <trkpt lat="43.49017" lon="5.23287">
        <ele>22</ele>
        <time>2022-10-02T07:23:11.000Z</time>
      </trkpt>
      <trkpt lat="43.49018" lon="5.23288">
        <ele>22</ele>
        <time>2022-10-02T07:23:12.000Z</time>
      </trkpt>
      <trkpt lat="43.49019" lon="5.23289">
        <ele>22</ele>
        <time>2022-10-02T07:23:13.000Z</time>
      </trkpt>
      <trkpt lat="43.4902" lon="5.2329">
        <ele>22</ele>
        <time>2022-10-02T07:23:14.000Z</time>
      </trkpt>
      <trkpt lat="43.49022" lon="5.23292">
        <ele>22</ele>
        <time>2022-10-02T07:23:15.000Z</time>
      </trkpt>
      <trkpt lat="43.49023" lon="5.23293">
        <ele>22</ele>
        <time>2022-10-02T07:23:16.000Z</time>
      </trkpt>
      <trkpt lat="43.49024" lon="5.23294">
        <ele>22</ele>
        <time>2022-10-02T07:23:17.000Z</time>
      </trkpt>
      <trkpt lat="43.49025" lon="5.23295">
        <ele>22</ele>
        <time>2022-10-02T07:23:18.000Z</time>
      </trkpt>
      <trkpt lat="43.49025" lon="5.23297">
        <ele>22</ele>
        <time>2022-10-02T07:23:19.000Z</time>
      </trkpt>
      <trkpt lat="43.49025" lon="5.23299">
        <ele>22</ele>
        <time>2022-10-02T07:23:20.000Z</time>
      </trkpt>
      <trkpt lat="43.49025" lon="5.23301">
        <ele>23</ele>
        <time>2022-10-02T07:23:21.000Z</time>
      </trkpt>
      <trkpt lat="43.49025" lon="5.23303">
        <ele>23</ele>
        <time>2022-10-02T07:23:22.000Z</time>
      </trkpt>
      <trkpt lat="43.49024" lon="5.23304">
        <ele>23</ele>
        <time>2022-10-02T07:23:23.000Z</time>
      </trkpt>
      <trkpt lat="43.49024" lon="5.23306">
        <ele>23</ele>
        <time>2022-10-02T07:23:24.000Z</time>
      </trkpt>
      <trkpt lat="43.49023" lon="5.23308">
        <ele>23</ele>
        <time>2022-10-02T07:23:25.000Z</time>
      </trkpt>
      <trkpt lat="43.49023" lon="5.2331">
        <ele>23</ele>
        <time>2022-10-02T07:23:26.000Z</time>
      </trkpt>
      <trkpt lat="43.49022" lon="5.23312">
        <ele>23</ele>
        <time>2022-10-02T07:23:27.000Z</time>
      </trkpt>
      <trkpt lat="43.49021" lon="5.23314">
        <ele>23</ele>
        <time>2022-10-02T07:23:28.000Z</time>
      </trkpt>
      <trkpt lat="43.4902" lon="5.23315">
        <ele>23</ele>
        <time>2022-10-02T07:23:29.000Z</time>
      </trkpt>
      <trkpt lat="43.49019" lon="5.23317">
        <ele>24</ele>
        <time>2022-10-02T07:23:30.000Z</time>
      </trkpt>
      <trkpt lat="43.49018" lon="5.23319">
        <ele>24</ele>
        <time>2022-10-02T07:23:31.000Z</time>
      </trkpt>
      <trkpt lat="43.49017" lon="5.2332">
        <ele>24</ele>
        <time>2022-10-02T07:23:32.000Z</time>
      </trkpt>
      <trkpt lat="43.49016" lon="5.23322">
        <ele>24</ele>
        <time>2022-10-02T07:23:33.000Z</time>
      </trkpt>
      <trkpt lat="43.49015" lon="5.23324">
        <ele>24</ele>
        <time>2022-10-02T07:23:34.000Z</time>
      </trkpt>
      <trkpt lat="43.49014" lon="5.23325">
        <ele>24</ele>
        <time>2022-10-02T07:23:35.000Z</time>
      </trkpt>
      <trkpt lat="43.49013" lon="5.23327">
        <ele>24</ele>
        <time>2022-10-02T07:23:36.000Z</time>
      </trkpt>
      <trkpt lat="43.49012" lon="5.23328">
        <ele>24</ele>
        <time>2022-10-02T07:23:37.000Z</time>
      </trkpt>
      <trkpt lat="43.49011" lon="5.23329">
        <ele>24</ele>
        <time>2022-10-02T07:23:38.000Z</time>
      </trkpt>
      <trkpt lat="43.4901" lon="5.23331">
        <ele>25</ele>
        <time>2022-10-02T07:23:39.000Z</time>
      </trkpt>
      <trkpt lat="43.49009" lon="5.23332">
        <ele>25</ele>
        <time>2022-10-02T07:23:40.000Z</time>
      </trkpt>
      <trkpt lat="43.49008" lon="5.23333">
        <ele>25</ele>
        <time>2022-10-02T07:23:41.000Z</time>
      </trkpt>
      <trkpt lat="43.49007" lon="5.23335">
        <ele>25</ele>
        <time>2022-10-02T07:23:42.000Z</time>
      </trkpt>
      <trkpt lat="43.49006" lon="5.23336">
        <ele>25</ele>
        <time>2022-10-02T07:23:43.000Z</time>
      </trkpt>
      <trkpt lat="43.49005" lon="5.23337">
        <ele>25</ele>
        <time>2022-10-02T07:23:44.000Z</time>
      </trkpt>
      <trkpt lat="43.49004" lon="5.23339">
        <ele>25</ele>
        <time>2022-10-02T07:23:45.000Z</time>
      </trkpt>
      <trkpt lat="43.49002" lon="5.2334">
        <ele>25</ele>
        <time>2022-10-02T07:23:46.000Z</time>
      </trkpt>
      <trkpt lat="43.49001" lon="5.23341">
        <ele>25</ele>
        <time>2022-10-02T07:23:47.000Z</time>
      </trkpt>
      <trkpt lat="43.49" lon="5.23343">
        <ele>26</ele>
        <time>2022-10-02T07:23:48.000Z</time>
      </trkpt>
      <trkpt lat="43.48999" lon="5.23344">
        <ele>26</ele>
        <time>2022-10-02T07:23:49.000Z</time>
      </trkpt>
      <trkpt lat="43.48998" lon="5.23345">
        <ele>26</ele>
        <time>2022-10-02T07:23:50.000Z</time>
      </trkpt>
      <trkpt lat="43.48997" lon="5.23347">
        <ele>26</ele>
        <time>2022-10-02T07:23:51.000Z</time>
      </trkpt>
      <trkpt lat="43.48996" lon="5.23348">
        <ele>26</ele>
        <time>2022-10-02T07:23:52.000Z</time>
      </trkpt>
      <trkpt lat="43.48995" lon="5.2335">
        <ele>26</ele>
        <time>2022-10-02T07:23:53.000Z</time>
      </trkpt>
      <trkpt lat="43.48994" lon="5.23351">
        <ele>26</ele>
        <time>2022-10-02T07:23:54.000Z</time>
      </trkpt>
      <trkpt lat="43.48992" lon="5.23352">
        <ele>26</ele>
        <time>2022-10-02T07:23:55.000Z</time>
      </trkpt>
      <trkpt lat="43.48991" lon="5.23354">
        <ele>26</ele>
        <time>2022-10-02T07:23:56.000Z</time>
      </trkpt>
      <trkpt lat="43.4899" lon="5.23355">
        <ele>26</ele>
        <time>2022-10-02T07:23:57.000Z</time>
      </trkpt>
      <trkpt lat="43.48989" lon="5.23356">
        <ele>26</ele>
        <time>2022-10-02T07:23:58.000Z</time>
      </trkpt>
      <trkpt lat="43.48988" lon="5.23358">
        <ele>26</ele>
        <time>2022-10-02T07:23:59.000Z</time>
      </trkpt>
      <trkpt lat="43.48986" lon="5.23359">
        <ele>26</ele>
        <time>2022-10-02T07:24:00.000Z</time>
      </trkpt>
      <trkpt lat="43.48985" lon="5.2336">
        <ele>26</ele>
        <time>2022-10-02T07:24:01.000Z</time>
      </trkpt>
      <trkpt lat="43.48984" lon="5.23361">
        <ele>27</ele>
        <time>2022-10-02T07:24:02.000Z</time>
      </trkpt>
      <trkpt lat="43.48983" lon="5.23362">
        <ele>27</ele>
        <time>2022-10-02T07:24:03.000Z</time>
      </trkpt>
      <trkpt lat="43.48982" lon="5.23364">
        <ele>27</ele>
        <time>2022-10-02T07:24:04.000Z</time>
      </trkpt>
      <trkpt lat="43.4898" lon="5.23365">
        <ele>27</ele>
        <time>2022-10-02T07:24:05.000Z</time>
      </trkpt>
      <trkpt lat="43.48979" lon="5.23366">
        <ele>27</ele>
        <time>2022-10-02T07:24:06.000Z</time>
      </trkpt>
      <trkpt lat="43.48978" lon="5.23367">
        <ele>27</ele>
        <time>2022-10-02T07:24:07.000Z</time>
      </trkpt>
      <trkpt lat="43.48977" lon="5.23368">
        <ele>27</ele>
        <time>2022-10-02T07:24:08.000Z</time>
      </trkpt>
      <trkpt lat="43.48975" lon="5.2337">
        <ele>27</ele>
        <time>2022-10-02T07:24:09.000Z</time>
      </trkpt>
      <trkpt lat="43.48973" lon="5.23371">
        <ele>27</ele>
        <time>2022-10-02T07:24:10.000Z</time>
      </trkpt>
      <trkpt lat="43.48972" lon="5.23372">
        <ele>27</ele>
        <time>2022-10-02T07:24:11.000Z</time>
      </trkpt>
      <trkpt lat="43.48971" lon="5.23373">
        <ele>27</ele>
        <time>2022-10-02T07:24:12.000Z</time>
      </trkpt>
      <trkpt lat="43.48969" lon="5.23375">
        <ele>27</ele>
        <time>2022-10-02T07:24:13.000Z</time>
      </trkpt>
      <trkpt lat="43.48968" lon="5.23376">
        <ele>27</ele>
        <time>2022-10-02T07:24:14.000Z</time>
      </trkpt>
      <trkpt lat="43.48967" lon="5.23377">
        <ele>27</ele>
        <time>2022-10-02T07:24:15.000Z</time>
      </trkpt>
      <trkpt lat="43.48965" lon="5.23378">
        <ele>27</ele>
        <time>2022-10-02T07:24:16.000Z</time>
      </trkpt>
      <trkpt lat="43.48964" lon="5.23379">
        <ele>27</ele>
        <time>2022-10-02T07:24:17.000Z</time>
      </trkpt>
      <trkpt lat="43.48962" lon="5.2338">
        <ele>27</ele>
        <time>2022-10-02T07:24:18.000Z</time>
      </trkpt>
      <trkpt lat="43.48961" lon="5.23381">
        <ele>27</ele>
        <time>2022-10-02T07:24:19.000Z</time>
      </trkpt>
      <trkpt lat="43.4896" lon="5.23382">
        <ele>27</ele>
        <time>2022-10-02T07:24:20.000Z</time>
      </trkpt>
      <trkpt lat="43.48959" lon="5.23383">
        <ele>27</ele>
        <time>2022-10-02T07:24:21.000Z</time>
      </trkpt>
      <trkpt lat="43.48958" lon="5.23384">
        <ele>27</ele>
        <time>2022-10-02T07:24:22.000Z</time>
      </trkpt>
      <trkpt lat="43.48956" lon="5.23385">
        <ele>27</ele>
        <time>2022-10-02T07:24:23.000Z</time>
      </trkpt>
      <trkpt lat="43.48955" lon="5.23386">
        <ele>27</ele>
        <time>2022-10-02T07:24:24.000Z</time>
      </trkpt>
      <trkpt lat="43.48954" lon="5.23388">
        <ele>28</ele>
        <time>2022-10-02T07:24:25.000Z</time>
      </trkpt>
      <trkpt lat="43.48953" lon="5.23389">
        <ele>28</ele>
        <time>2022-10-02T07:24:26.000Z</time>
      </trkpt>
      <trkpt lat="43.48951" lon="5.2339">
        <ele>28</ele>
        <time>2022-10-02T07:24:27.000Z</time>
      </trkpt>
      <trkpt lat="43.4895" lon="5.23392">
        <ele>28</ele>
        <time>2022-10-02T07:24:28.000Z</time>
      </trkpt>
      <trkpt lat="43.48949" lon="5.23393">
        <ele>28</ele>
        <time>2022-10-02T07:24:29.000Z</time>
      </trkpt>
      <trkpt lat="43.48948" lon="5.23394">
        <ele>28</ele>
        <time>2022-10-02T07:24:30.000Z</time>
      </trkpt>
      <trkpt lat="43.48947" lon="5.23396">
        <ele>28</ele>
        <time>2022-10-02T07:24:31.000Z</time>
      </trkpt>
      <trkpt lat="43.48946" lon="5.23397">
        <ele>28</ele>
        <time>2022-10-02T07:24:32.000Z</time>
      </trkpt>
      <trkpt lat="43.48945" lon="5.23399">
        <ele>28</ele>
        <time>2022-10-02T07:24:33.000Z</time>
      </trkpt>
      <trkpt lat="43.48944" lon="5.234">
        <ele>28</ele>
        <time>2022-10-02T07:24:34.000Z</time>
      </trkpt>
      <trkpt lat="43.48943" lon="5.23402">
        <ele>28</ele>
        <time>2022-10-02T07:24:35.000Z</time>
      </trkpt>
      <trkpt lat="43.48942" lon="5.23403">
        <ele>28</ele>
        <time>2022-10-02T07:24:36.000Z</time>
      </trkpt>
      <trkpt lat="43.48941" lon="5.23404">
        <ele>27</ele>
        <time>2022-10-02T07:24:37.000Z</time>
      </trkpt>
      <trkpt lat="43.4894" lon="5.23406">
        <ele>27</ele>
        <time>2022-10-02T07:24:38.000Z</time>
      </trkpt>
      <trkpt lat="43.48939" lon="5.23408">
        <ele>27</ele>
        <time>2022-10-02T07:24:39.000Z</time>
      </trkpt>
      <trkpt lat="43.48938" lon="5.23409">
        <ele>27</ele>
        <time>2022-10-02T07:24:40.000Z</time>
      </trkpt>
      <trkpt lat="43.48937" lon="5.23411">
        <ele>27</ele>
        <time>2022-10-02T07:24:41.000Z</time>
      </trkpt>
      <trkpt lat="43.48936" lon="5.23413">
        <ele>27</ele>
        <time>2022-10-02T07:24:42.000Z</time>
      </trkpt>
      <trkpt lat="43.48935" lon="5.23414">
        <ele>27</ele>
        <time>2022-10-02T07:24:43.000Z</time>
      </trkpt>
      <trkpt lat="43.48934" lon="5.23416">
        <ele>27</ele>
        <time>2022-10-02T07:24:44.000Z</time>
      </trkpt>
      <trkpt lat="43.48934" lon="5.23418">
        <ele>27</ele>
        <time>2022-10-02T07:24:45.000Z</time>
      </trkpt>
      <trkpt lat="43.48933" lon="5.23419">
        <ele>27</ele>
        <time>2022-10-02T07:24:46.000Z</time>
      </trkpt>
      <trkpt lat="43.48932" lon="5.23421">
        <ele>27</ele>
        <time>2022-10-02T07:24:47.000Z</time>
      </trkpt>
      <trkpt lat="43.48931" lon="5.23423">
        <ele>27</ele>
        <time>2022-10-02T07:24:48.000Z</time>
      </trkpt>
      <trkpt lat="43.4893" lon="5.23424">
        <ele>27</ele>
        <time>2022-10-02T07:24:49.000Z</time>
      </trkpt>
      <trkpt lat="43.4893" lon="5.23426">
        <ele>27</ele>
        <time>2022-10-02T07:24:50.000Z</time>
      </trkpt>
      <trkpt lat="43.48929" lon="5.23428">
        <ele>27</ele>
        <time>2022-10-02T07:24:51.000Z</time>
      </trkpt>
      <trkpt lat="43.48928" lon="5.23429">
        <ele>27</ele>
        <time>2022-10-02T07:24:52.000Z</time>
      </trkpt>
      <trkpt lat="43.48927" lon="5.23431">
        <ele>27</ele>
        <time>2022-10-02T07:24:53.000Z</time>
      </trkpt>
      <trkpt lat="43.48926" lon="5.23433">
        <ele>27</ele>
        <time>2022-10-02T07:24:54.000Z</time>
      </trkpt>
      <trkpt lat="43.48925" lon="5.23434">
        <ele>28</ele>
        <time>2022-10-02T07:24:55.000Z</time>
      </trkpt>
      <trkpt lat="43.48924" lon="5.23436">
        <ele>28</ele>
        <time>2022-10-02T07:24:56.000Z</time>
      </trkpt>
      <trkpt lat="43.48923" lon="5.23437">
        <ele>28</ele>
        <time>2022-10-02T07:24:57.000Z</time>
      </trkpt>
      <trkpt lat="43.48923" lon="5.23439">
        <ele>28</ele>
        <time>2022-10-02T07:24:58.000Z</time>
      </trkpt>
      <trkpt lat="43.48922" lon="5.23441">
        <ele>28</ele>
        <time>2022-10-02T07:24:59.000Z</time>
      </trkpt>
      <trkpt lat="43.48921" lon="5.23442">
        <ele>28</ele>
        <time>2022-10-02T07:25:00.000Z</time>
      </trkpt>
      <trkpt lat="43.4892" lon="5.23444">
        <ele>28</ele>
        <time>2022-10-02T07:25:01.000Z</time>
      </trkpt>
      <trkpt lat="43.48919" lon="5.23446">
        <ele>28</ele>
        <time>2022-10-02T07:25:02.000Z</time>
      </trkpt>
      <trkpt lat="43.48919" lon="5.23447">
        <ele>28</ele>
        <time>2022-10-02T07:25:03.000Z</time>
      </trkpt>
      <trkpt lat="43.48918" lon="5.23449">
        <ele>28</ele>
        <time>2022-10-02T07:25:04.000Z</time>
      </trkpt>
      <trkpt lat="43.48917" lon="5.23451">
        <ele>28</ele>
        <time>2022-10-02T07:25:05.000Z</time>
      </trkpt>
      <trkpt lat="43.48916" lon="5.23452">
        <ele>28</ele>
        <time>2022-10-02T07:25:06.000Z</time>
      </trkpt>
      <trkpt lat="43.48915" lon="5.23454">
        <ele>28</ele>
        <time>2022-10-02T07:25:07.000Z</time>
      </trkpt>
      <trkpt lat="43.48914" lon="5.23455">
        <ele>28</ele>
        <time>2022-10-02T07:25:08.000Z</time>
      </trkpt>
      <trkpt lat="43.48913" lon="5.23457">
        <ele>28</ele>
        <time>2022-10-02T07:25:09.000Z</time>
      </trkpt>
      <trkpt lat="43.48912" lon="5.23459">
        <ele>28</ele>
        <time>2022-10-02T07:25:10.000Z</time>
      </trkpt>
      <trkpt lat="43.48911" lon="5.2346">
        <ele>29</ele>
        <time>2022-10-02T07:25:11.000Z</time>
      </trkpt>
      <trkpt lat="43.48911" lon="5.23462">
        <ele>29</ele>
        <time>2022-10-02T07:25:12.000Z</time>
      </trkpt>
      <trkpt lat="43.4891" lon="5.23464">
        <ele>29</ele>
        <time>2022-10-02T07:25:13.000Z</time>
      </trkpt>
      <trkpt lat="43.48909" lon="5.23465">
        <ele>29</ele>
        <time>2022-10-02T07:25:14.000Z</time>
      </trkpt>
      <trkpt lat="43.48908" lon="5.23467">
        <ele>29</ele>
        <time>2022-10-02T07:25:15.000Z</time>
      </trkpt>
      <trkpt lat="43.48908" lon="5.23468">
        <ele>29</ele>
        <time>2022-10-02T07:25:16.000Z</time>
      </trkpt>
      <trkpt lat="43.48907" lon="5.2347">
        <ele>29</ele>
        <time>2022-10-02T07:25:17.000Z</time>
      </trkpt>
      <trkpt lat="43.48906" lon="5.23471">
        <ele>29</ele>
        <time>2022-10-02T07:25:18.000Z</time>
      </trkpt>
      <trkpt lat="43.48905" lon="5.23473">
        <ele>29</ele>
        <time>2022-10-02T07:25:19.000Z</time>
      </trkpt>
      <trkpt lat="43.48904" lon="5.23474">
        <ele>29</ele>
        <time>2022-10-02T07:25:20.000Z</time>
      </trkpt>
      <trkpt lat="43.48903" lon="5.23476">
        <ele>30</ele>
        <time>2022-10-02T07:25:21.000Z</time>
      </trkpt>
      <trkpt lat="43.48902" lon="5.23478">
        <ele>30</ele>
        <time>2022-10-02T07:25:22.000Z</time>
      </trkpt>
      <trkpt lat="43.48901" lon="5.23479">
        <ele>30</ele>
        <time>2022-10-02T07:25:23.000Z</time>
      </trkpt>
      <trkpt lat="43.489" lon="5.23481">
        <ele>30</ele>
        <time>2022-10-02T07:25:24.000Z</time>
      </trkpt>
      <trkpt lat="43.48899" lon="5.23483">
        <ele>30</ele>
        <time>2022-10-02T07:25:25.000Z</time>
      </trkpt>
      <trkpt lat="43.48899" lon="5.23485">
        <ele>30</ele>
        <time>2022-10-02T07:25:26.000Z</time>
      </trkpt>
      <trkpt lat="43.48898" lon="5.23487">
        <ele>30</ele>
        <time>2022-10-02T07:25:27.000Z</time>
      </trkpt>
      <trkpt lat="43.48897" lon="5.23488">
        <ele>31</ele>
        <time>2022-10-02T07:25:28.000Z</time>
      </trkpt>
      <trkpt lat="43.48896" lon="5.2349">
        <ele>31</ele>
        <time>2022-10-02T07:25:29.000Z</time>
      </trkpt>
      <trkpt lat="43.48895" lon="5.23492">
        <ele>31</ele>
        <time>2022-10-02T07:25:30.000Z</time>
      </trkpt>
      <trkpt lat="43.48894" lon="5.23493">
        <ele>31</ele>
        <time>2022-10-02T07:25:31.000Z</time>
      </trkpt>
      <trkpt lat="43.48893" lon="5.23495">
        <ele>31</ele>
        <time>2022-10-02T07:25:32.000Z</time>
      </trkpt>
      <trkpt lat="43.48892" lon="5.23496">
        <ele>31</ele>
        <time>2022-10-02T07:25:33.000Z</time>
      </trkpt>
      <trkpt lat="43.48891" lon="5.23498">
        <ele>32</ele>
        <time>2022-10-02T07:25:34.000Z</time>
      </trkpt>
      <trkpt lat="43.48891" lon="5.235">
        <ele>32</ele>
        <time>2022-10-02T07:25:35.000Z</time>
      </trkpt>
      <trkpt lat="43.4889" lon="5.23501">
        <ele>32</ele>
        <time>2022-10-02T07:25:36.000Z</time>
      </trkpt>
      <trkpt lat="43.48889" lon="5.23503">
        <ele>32</ele>
        <time>2022-10-02T07:25:37.000Z</time>
      </trkpt>
      <trkpt lat="43.48888" lon="5.23505">
        <ele>32</ele>
        <time>2022-10-02T07:25:38.000Z</time>
      </trkpt>
      <trkpt lat="43.48887" lon="5.23506">
        <ele>32</ele>
        <time>2022-10-02T07:25:39.000Z</time>
      </trkpt>
      <trkpt lat="43.48886" lon="5.23508">
        <ele>32</ele>
        <time>2022-10-02T07:25:40.000Z</time>
      </trkpt>
      <trkpt lat="43.48885" lon="5.2351">
        <ele>33</ele>
        <time>2022-10-02T07:25:41.000Z</time>
      </trkpt>
      <trkpt lat="43.48884" lon="5.23512">
        <ele>33</ele>
        <time>2022-10-02T07:25:42.000Z</time>
      </trkpt>
      <trkpt lat="43.48884" lon="5.23514">
        <ele>33</ele>
        <time>2022-10-02T07:25:43.000Z</time>
      </trkpt>
      <trkpt lat="43.48883" lon="5.23516">
        <ele>33</ele>
        <time>2022-10-02T07:25:44.000Z</time>
      </trkpt>
      <trkpt lat="43.48882" lon="5.23518">
        <ele>33</ele>
        <time>2022-10-02T07:25:45.000Z</time>
      </trkpt>
      <trkpt lat="43.48882" lon="5.23519">
        <ele>33</ele>
        <time>2022-10-02T07:25:46.000Z</time>
      </trkpt>
      <trkpt lat="43.48881" lon="5.23521">
        <ele>33</ele>
        <time>2022-10-02T07:25:47.000Z</time>
      </trkpt>
      <trkpt lat="43.4888" lon="5.23523">
        <ele>33</ele>
        <time>2022-10-02T07:25:48.000Z</time>
      </trkpt>
      <trkpt lat="43.48879" lon="5.23525">
        <ele>33</ele>
        <time>2022-10-02T07:25:49.000Z</time>
      </trkpt>
      <trkpt lat="43.48878" lon="5.23526">
        <ele>33</ele>
        <time>2022-10-02T07:25:50.000Z</time>
      </trkpt>
      <trkpt lat="43.48877" lon="5.23528">
        <ele>33</ele>
        <time>2022-10-02T07:25:51.000Z</time>
      </trkpt>
      <trkpt lat="43.48876" lon="5.2353">
        <ele>34</ele>
        <time>2022-10-02T07:25:52.000Z</time>
      </trkpt>
      <trkpt lat="43.48875" lon="5.23531">
        <ele>34</ele>
        <time>2022-10-02T07:25:53.000Z</time>
      </trkpt>
      <trkpt lat="43.48874" lon="5.23533">
        <ele>34</ele>
        <time>2022-10-02T07:25:54.000Z</time>
      </trkpt>
      <trkpt lat="43.48874" lon="5.23535">
        <ele>34</ele>
        <time>2022-10-02T07:25:55.000Z</time>
      </trkpt>
      <trkpt lat="43.48873" lon="5.23537">
        <ele>34</ele>
        <time>2022-10-02T07:25:56.000Z</time>
      </trkpt>
      <trkpt lat="43.48872" lon="5.23539">
        <ele>34</ele>
        <time>2022-10-02T07:25:57.000Z</time>
      </trkpt>
      <trkpt lat="43.48872" lon="5.23541">
        <ele>34</ele>
        <time>2022-10-02T07:25:58.000Z</time>
      </trkpt>
      <trkpt lat="43.48871" lon="5.23543">
        <ele>34</ele>
        <time>2022-10-02T07:25:59.000Z</time>
      </trkpt>
      <trkpt lat="43.4887" lon="5.23545">
        <ele>34</ele>
        <time>2022-10-02T07:26:00.000Z</time>
      </trkpt>
      <trkpt lat="43.4887" lon="5.23546">
        <ele>34</ele>
        <time>2022-10-02T07:26:01.000Z</time>
      </trkpt>
      <trkpt lat="43.4887" lon="5.23548">
        <ele>34</ele>
        <time>2022-10-02T07:26:02.000Z</time>
      </trkpt>
      <trkpt lat="43.48869" lon="5.2355">
        <ele>35</ele>
        <time>2022-10-02T07:26:03.000Z</time>
      </trkpt>
      <trkpt lat="43.48869" lon="5.23552">
        <ele>35</ele>
        <time>2022-10-02T07:26:04.000Z</time>
      </trkpt>
      <trkpt lat="43.48869" lon="5.23554">
        <ele>35</ele>
        <time>2022-10-02T07:26:05.000Z</time>
      </trkpt>
      <trkpt lat="43.48868" lon="5.23556">
        <ele>35</ele>
        <time>2022-10-02T07:26:06.000Z</time>
      </trkpt>
      <trkpt lat="43.48868" lon="5.23558">
        <ele>35</ele>
        <time>2022-10-02T07:26:07.000Z</time>
      </trkpt>
      <trkpt lat="43.48867" lon="5.2356">
        <ele>35</ele>
        <time>2022-10-02T07:26:08.000Z</time>
      </trkpt>
      <trkpt lat="43.48867" lon="5.23562">
        <ele>35</ele>
        <time>2022-10-02T07:26:09.000Z</time>
      </trkpt>
      <trkpt lat="43.48867" lon="5.23564">
        <ele>35</ele>
        <time>2022-10-02T07:26:10.000Z</time>
      </trkpt>
      <trkpt lat="43.48867" lon="5.23566">
        <ele>35</ele>
        <time>2022-10-02T07:26:11.000Z</time>
      </trkpt>
      <trkpt lat="43.48867" lon="5.23568">
        <ele>35</ele>
        <time>2022-10-02T07:26:12.000Z</time>
      </trkpt>
      <trkpt lat="43.48867" lon="5.2357">
        <ele>36</ele>
        <time>2022-10-02T07:26:13.000Z</time>
      </trkpt>
      <trkpt lat="43.48867" lon="5.23572">
        <ele>36</ele>
        <time>2022-10-02T07:26:14.000Z</time>
      </trkpt>
      <trkpt lat="43.48867" lon="5.23574">
        <ele>36</ele>
        <time>2022-10-02T07:26:15.000Z</time>
      </trkpt>
      <trkpt lat="43.48867" lon="5.23577">
        <ele>36</ele>
        <time>2022-10-02T07:26:16.000Z</time>
      </trkpt>
      <trkpt lat="43.48866" lon="5.23579">
        <ele>36</ele>
        <time>2022-10-02T07:26:17.000Z</time>
      </trkpt>
      <trkpt lat="43.48866" lon="5.23581">
        <ele>36</ele>
        <time>2022-10-02T07:26:18.000Z</time>
      </trkpt>
      <trkpt lat="43.48865" lon="5.23583">
        <ele>36</ele>
        <time>2022-10-02T07:26:19.000Z</time>
      </trkpt>
      <trkpt lat="43.48865" lon="5.23585">
        <ele>36</ele>
        <time>2022-10-02T07:26:20.000Z</time>
      </trkpt>
      <trkpt lat="43.48865" lon="5.23587">
        <ele>36</ele>
        <time>2022-10-02T07:26:21.000Z</time>
      </trkpt>
      <trkpt lat="43.48864" lon="5.23589">
        <ele>36</ele>
        <time>2022-10-02T07:26:22.000Z</time>
      </trkpt>
      <trkpt lat="43.48864" lon="5.23591">
        <ele>36</ele>
        <time>2022-10-02T07:26:23.000Z</time>
      </trkpt>
      <trkpt lat="43.48863" lon="5.23593">
        <ele>36</ele>
        <time>2022-10-02T07:26:24.000Z</time>
      </trkpt>
      <trkpt lat="43.48863" lon="5.23595">
        <ele>36</ele>
        <time>2022-10-02T07:26:25.000Z</time>
      </trkpt>
      <trkpt lat="43.48862" lon="5.23597">
        <ele>36</ele>
        <time>2022-10-02T07:26:26.000Z</time>
      </trkpt>
      <trkpt lat="43.48862" lon="5.23599">
        <ele>36</ele>
        <time>2022-10-02T07:26:27.000Z</time>
      </trkpt>
      <trkpt lat="43.48862" lon="5.23601">
        <ele>36</ele>
        <time>2022-10-02T07:26:28.000Z</time>
      </trkpt>
      <trkpt lat="43.48861" lon="5.23604">
        <ele>36</ele>
        <time>2022-10-02T07:26:29.000Z</time>
      </trkpt>
      <trkpt lat="43.48861" lon="5.23605">
        <ele>36</ele>
        <time>2022-10-02T07:26:30.000Z</time>
      </trkpt>
      <trkpt lat="43.4886" lon="5.23608">
        <ele>36</ele>
        <time>2022-10-02T07:26:31.000Z</time>
      </trkpt>
      <trkpt lat="43.4886" lon="5.23609">
        <ele>36</ele>
        <time>2022-10-02T07:26:32.000Z</time>
      </trkpt>
      <trkpt lat="43.48859" lon="5.23611">
        <ele>36</ele>
        <time>2022-10-02T07:26:33.000Z</time>
      </trkpt>
      <trkpt lat="43.48859" lon="5.23613">
        <ele>36</ele>
        <time>2022-10-02T07:26:34.000Z</time>
      </trkpt>
      <trkpt lat="43.48859" lon="5.23615">
        <ele>36</ele>
        <time>2022-10-02T07:26:35.000Z</time>
      </trkpt>
      <trkpt lat="43.48858" lon="5.23617">
        <ele>36</ele>
        <time>2022-10-02T07:26:36.000Z</time>
      </trkpt>
      <trkpt lat="43.48858" lon="5.23619">
        <ele>36</ele>
        <time>2022-10-02T07:26:37.000Z</time>
      </trkpt>
      <trkpt lat="43.48858" lon="5.23621">
        <ele>37</ele>
        <time>2022-10-02T07:26:38.000Z</time>
      </trkpt>
      <trkpt lat="43.48857" lon="5.23623">
        <ele>37</ele>
        <time>2022-10-02T07:26:39.000Z</time>
      </trkpt>
      <trkpt lat="43.48857" lon="5.23625">
        <ele>37</ele>
        <time>2022-10-02T07:26:40.000Z</time>
      </trkpt>
      <trkpt lat="43.48856" lon="5.23627">
        <ele>37</ele>
        <time>2022-10-02T07:26:41.000Z</time>
      </trkpt>
      <trkpt lat="43.48856" lon="5.23629">
        <ele>37</ele>
        <time>2022-10-02T07:26:42.000Z</time>
      </trkpt>
      <trkpt lat="43.48855" lon="5.23631">
        <ele>37</ele>
        <time>2022-10-02T07:26:43.000Z</time>
      </trkpt>
      <trkpt lat="43.48855" lon="5.23633">
        <ele>37</ele>
        <time>2022-10-02T07:26:44.000Z</time>
      </trkpt>
      <trkpt lat="43.48854" lon="5.23635">
        <ele>37</ele>
        <time>2022-10-02T07:26:45.000Z</time>
      </trkpt>
      <trkpt lat="43.48853" lon="5.23637">
        <ele>37</ele>
        <time>2022-10-02T07:26:46.000Z</time>
      </trkpt>
      <trkpt lat="43.48852" lon="5.23639">
        <ele>37</ele>
        <time>2022-10-02T07:26:47.000Z</time>
      </trkpt>
      <trkpt lat="43.48852" lon="5.23641">
        <ele>37</ele>
        <time>2022-10-02T07:26:48.000Z</time>
      </trkpt>
      <trkpt lat="43.48851" lon="5.23643">
        <ele>37</ele>
        <time>2022-10-02T07:26:49.000Z</time>
      </trkpt>
      <trkpt lat="43.4885" lon="5.23645">
        <ele>37</ele>
        <time>2022-10-02T07:26:50.000Z</time>
      </trkpt>
      <trkpt lat="43.48849" lon="5.23647">
        <ele>38</ele>
        <time>2022-10-02T07:26:51.000Z</time>
      </trkpt>
      <trkpt lat="43.48848" lon="5.23649">
        <ele>38</ele>
        <time>2022-10-02T07:26:52.000Z</time>
      </trkpt>
      <trkpt lat="43.48848" lon="5.23651">
        <ele>38</ele>
        <time>2022-10-02T07:26:53.000Z</time>
      </trkpt>
      <trkpt lat="43.48847" lon="5.23653">
        <ele>38</ele>
        <time>2022-10-02T07:26:54.000Z</time>
      </trkpt>
      <trkpt lat="43.48846" lon="5.23655">
        <ele>38</ele>
        <time>2022-10-02T07:26:55.000Z</time>
      </trkpt>
      <trkpt lat="43.48845" lon="5.23657">
        <ele>38</ele>
        <time>2022-10-02T07:26:56.000Z</time>
      </trkpt>
      <trkpt lat="43.48845" lon="5.23659">
        <ele>38</ele>
        <time>2022-10-02T07:26:57.000Z</time>
      </trkpt>
      <trkpt lat="43.48844" lon="5.2366">
        <ele>38</ele>
        <time>2022-10-02T07:26:58.000Z</time>
      </trkpt>
      <trkpt lat="43.48843" lon="5.23662">
        <ele>38</ele>
        <time>2022-10-02T07:26:59.000Z</time>
      </trkpt>
      <trkpt lat="43.48842" lon="5.23664">
        <ele>38</ele>
        <time>2022-10-02T07:27:00.000Z</time>
      </trkpt>
      <trkpt lat="43.48841" lon="5.23666">
        <ele>38</ele>
        <time>2022-10-02T07:27:01.000Z</time>
      </trkpt>
      <trkpt lat="43.4884" lon="5.23668">
        <ele>38</ele>
        <time>2022-10-02T07:27:02.000Z</time>
      </trkpt>
      <trkpt lat="43.4884" lon="5.2367">
        <ele>38</ele>
        <time>2022-10-02T07:27:03.000Z</time>
      </trkpt>
      <trkpt lat="43.48839" lon="5.23671">
        <ele>38</ele>
        <time>2022-10-02T07:27:04.000Z</time>
      </trkpt>
      <trkpt lat="43.48838" lon="5.23673">
        <ele>38</ele>
        <time>2022-10-02T07:27:05.000Z</time>
      </trkpt>
      <trkpt lat="43.48837" lon="5.23675">
        <ele>38</ele>
        <time>2022-10-02T07:27:06.000Z</time>
      </trkpt>
      <trkpt lat="43.48836" lon="5.23676">
        <ele>38</ele>
        <time>2022-10-02T07:27:07.000Z</time>
      </trkpt>
      <trkpt lat="43.48835" lon="5.23678">
        <ele>38</ele>
        <time>2022-10-02T07:27:08.000Z</time>
      </trkpt>
      <trkpt lat="43.48834" lon="5.23679">
        <ele>38</ele>
        <time>2022-10-02T07:27:09.000Z</time>
      </trkpt>
      <trkpt lat="43.48833" lon="5.23681">
        <ele>38</ele>
        <time>2022-10-02T07:27:10.000Z</time>
      </trkpt>
      <trkpt lat="43.48833" lon="5.23682">
        <ele>38</ele>
        <time>2022-10-02T07:27:11.000Z</time>
      </trkpt>
      <trkpt lat="43.48832" lon="5.23684">
        <ele>38</ele>
        <time>2022-10-02T07:27:12.000Z</time>
      </trkpt>
      <trkpt lat="43.48831" lon="5.23686">
        <ele>38</ele>
        <time>2022-10-02T07:27:13.000Z</time>
      </trkpt>
      <trkpt lat="43.4883" lon="5.23688">
        <ele>38</ele>
        <time>2022-10-02T07:27:14.000Z</time>
      </trkpt>
      <trkpt lat="43.48829" lon="5.2369">
        <ele>38</ele>
        <time>2022-10-02T07:27:15.000Z</time>
      </trkpt>
      <trkpt lat="43.48828" lon="5.23691">
        <ele>38</ele>
        <time>2022-10-02T07:27:16.000Z</time>
      </trkpt>
      <trkpt lat="43.48827" lon="5.23693">
        <ele>38</ele>
        <time>2022-10-02T07:27:17.000Z</time>
      </trkpt>
      <trkpt lat="43.48826" lon="5.23695">
        <ele>38</ele>
        <time>2022-10-02T07:27:18.000Z</time>
      </trkpt>
      <trkpt lat="43.48826" lon="5.23697">
        <ele>38</ele>
        <time>2022-10-02T07:27:19.000Z</time>
      </trkpt>
      <trkpt lat="43.48825" lon="5.23699">
        <ele>38</ele>
        <time>2022-10-02T07:27:20.000Z</time>
      </trkpt>
      <trkpt lat="43.48824" lon="5.237">
        <ele>37</ele>
        <time>2022-10-02T07:27:21.000Z</time>
      </trkpt>
      <trkpt lat="43.48823" lon="5.23702">
        <ele>37</ele>
        <time>2022-10-02T07:27:22.000Z</time>
      </trkpt>
      <trkpt lat="43.48822" lon="5.23704">
        <ele>37</ele>
        <time>2022-10-02T07:27:23.000Z</time>
      </trkpt>
      <trkpt lat="43.48821" lon="5.23706">
        <ele>37</ele>
        <time>2022-10-02T07:27:24.000Z</time>
      </trkpt>
      <trkpt lat="43.4882" lon="5.23708">
        <ele>38</ele>
        <time>2022-10-02T07:27:25.000Z</time>
      </trkpt>
      <trkpt lat="43.48819" lon="5.23709">
        <ele>38</ele>
        <time>2022-10-02T07:27:26.000Z</time>
      </trkpt>
      <trkpt lat="43.48818" lon="5.23711">
        <ele>38</ele>
        <time>2022-10-02T07:27:27.000Z</time>
      </trkpt>
      <trkpt lat="43.48817" lon="5.23713">
        <ele>38</ele>
        <time>2022-10-02T07:27:28.000Z</time>
      </trkpt>
      <trkpt lat="43.48816" lon="5.23715">
        <ele>38</ele>
        <time>2022-10-02T07:27:29.000Z</time>
      </trkpt>
      <trkpt lat="43.48815" lon="5.23716">
        <ele>38</ele>
        <time>2022-10-02T07:27:30.000Z</time>
      </trkpt>
      <trkpt lat="43.48814" lon="5.23718">
        <ele>38</ele>
        <time>2022-10-02T07:27:31.000Z</time>
      </trkpt>
      <trkpt lat="43.48813" lon="5.2372">
        <ele>38</ele>
        <time>2022-10-02T07:27:32.000Z</time>
      </trkpt>
      <trkpt lat="43.48812" lon="5.23722">
        <ele>38</ele>
        <time>2022-10-02T07:27:33.000Z</time>
      </trkpt>
      <trkpt lat="43.48811" lon="5.23724">
        <ele>38</ele>
        <time>2022-10-02T07:27:34.000Z</time>
      </trkpt>
      <trkpt lat="43.4881" lon="5.23725">
        <ele>38</ele>
        <time>2022-10-02T07:27:35.000Z</time>
      </trkpt>
      <trkpt lat="43.48809" lon="5.23727">
        <ele>38</ele>
        <time>2022-10-02T07:27:36.000Z</time>
      </trkpt>
      <trkpt lat="43.48809" lon="5.23729">
        <ele>38</ele>
        <time>2022-10-02T07:27:37.000Z</time>
      </trkpt>
      <trkpt lat="43.48808" lon="5.23731">
        <ele>38</ele>
        <time>2022-10-02T07:27:38.000Z</time>
      </trkpt>
      <trkpt lat="43.48807" lon="5.23732">
        <ele>38</ele>
        <time>2022-10-02T07:27:39.000Z</time>
      </trkpt>
      <trkpt lat="43.48806" lon="5.23734">
        <ele>38</ele>
        <time>2022-10-02T07:27:40.000Z</time>
      </trkpt>
      <trkpt lat="43.48805" lon="5.23736">
        <ele>38</ele>
        <time>2022-10-02T07:27:41.000Z</time>
      </trkpt>
      <trkpt lat="43.48804" lon="5.23738">
        <ele>38</ele>
        <time>2022-10-02T07:27:42.000Z</time>
      </trkpt>
      <trkpt lat="43.48803" lon="5.23739">
        <ele>38</ele>
        <time>2022-10-02T07:27:43.000Z</time>
      </trkpt>
      <trkpt lat="43.48802" lon="5.23741">
        <ele>38</ele>
        <time>2022-10-02T07:27:44.000Z</time>
      </trkpt>
      <trkpt lat="43.48801" lon="5.23743">
        <ele>38</ele>
        <time>2022-10-02T07:27:45.000Z</time>
      </trkpt>
      <trkpt lat="43.488" lon="5.23745">
        <ele>38</ele>
        <time>2022-10-02T07:27:46.000Z</time>
      </trkpt>
      <trkpt lat="43.48799" lon="5.23747">
        <ele>38</ele>
        <time>2022-10-02T07:27:47.000Z</time>
      </trkpt>
      <trkpt lat="43.48798" lon="5.23748">
        <ele>38</ele>
        <time>2022-10-02T07:27:48.000Z</time>
      </trkpt>
      <trkpt lat="43.48797" lon="5.2375">
        <ele>38</ele>
        <time>2022-10-02T07:27:49.000Z</time>
      </trkpt>
      <trkpt lat="43.48796" lon="5.23752">
        <ele>38</ele>
        <time>2022-10-02T07:27:50.000Z</time>
      </trkpt>
      <trkpt lat="43.48795" lon="5.23753">
        <ele>38</ele>
        <time>2022-10-02T07:27:51.000Z</time>
      </trkpt>
      <trkpt lat="43.48794" lon="5.23755">
        <ele>38</ele>
        <time>2022-10-02T07:27:52.000Z</time>
      </trkpt>
      <trkpt lat="43.48793" lon="5.23757">
        <ele>38</ele>
        <time>2022-10-02T07:27:53.000Z</time>
      </trkpt>
      <trkpt lat="43.48793" lon="5.23758">
        <ele>38</ele>
        <time>2022-10-02T07:27:54.000Z</time>
      </trkpt>
      <trkpt lat="43.48792" lon="5.2376">
        <ele>38</ele>
        <time>2022-10-02T07:27:55.000Z</time>
      </trkpt>
      <trkpt lat="43.48791" lon="5.23761">
        <ele>38</ele>
        <time>2022-10-02T07:27:56.000Z</time>
      </trkpt>
      <trkpt lat="43.4879" lon="5.23763">
        <ele>38</ele>
        <time>2022-10-02T07:27:57.000Z</time>
      </trkpt>
      <trkpt lat="43.48789" lon="5.23764">
        <ele>38</ele>
        <time>2022-10-02T07:27:58.000Z</time>
      </trkpt>
      <trkpt lat="43.48788" lon="5.23766">
        <ele>38</ele>
        <time>2022-10-02T07:27:59.000Z</time>
      </trkpt>
      <trkpt lat="43.48787" lon="5.23767">
        <ele>38</ele>
        <time>2022-10-02T07:28:00.000Z</time>
      </trkpt>
      <trkpt lat="43.48786" lon="5.23769">
        <ele>38</ele>
        <time>2022-10-02T07:28:01.000Z</time>
      </trkpt>
      <trkpt lat="43.48785" lon="5.2377">
        <ele>39</ele>
        <time>2022-10-02T07:28:02.000Z</time>
      </trkpt>
      <trkpt lat="43.48784" lon="5.23772">
        <ele>39</ele>
        <time>2022-10-02T07:28:03.000Z</time>
      </trkpt>
      <trkpt lat="43.48783" lon="5.23774">
        <ele>39</ele>
        <time>2022-10-02T07:28:04.000Z</time>
      </trkpt>
      <trkpt lat="43.48782" lon="5.23775">
        <ele>39</ele>
        <time>2022-10-02T07:28:05.000Z</time>
      </trkpt>
      <trkpt lat="43.48781" lon="5.23776">
        <ele>39</ele>
        <time>2022-10-02T07:28:06.000Z</time>
      </trkpt>
      <trkpt lat="43.4878" lon="5.23778">
        <ele>39</ele>
        <time>2022-10-02T07:28:07.000Z</time>
      </trkpt>
      <trkpt lat="43.48779" lon="5.2378">
        <ele>39</ele>
        <time>2022-10-02T07:28:08.000Z</time>
      </trkpt>
      <trkpt lat="43.48778" lon="5.23781">
        <ele>39</ele>
        <time>2022-10-02T07:28:09.000Z</time>
      </trkpt>
      <trkpt lat="43.48777" lon="5.23783">
        <ele>39</ele>
        <time>2022-10-02T07:28:10.000Z</time>
      </trkpt>
      <trkpt lat="43.48775" lon="5.23784">
        <ele>39</ele>
        <time>2022-10-02T07:28:11.000Z</time>
      </trkpt>
      <trkpt lat="43.48774" lon="5.23786">
        <ele>39</ele>
        <time>2022-10-02T07:28:12.000Z</time>
      </trkpt>
      <trkpt lat="43.48773" lon="5.23787">
        <ele>39</ele>
        <time>2022-10-02T07:28:13.000Z</time>
      </trkpt>
      <trkpt lat="43.48773" lon="5.23788">
        <ele>39</ele>
        <time>2022-10-02T07:28:14.000Z</time>
      </trkpt>
      <trkpt lat="43.48772" lon="5.2379">
        <ele>39</ele>
        <time>2022-10-02T07:28:15.000Z</time>
      </trkpt>
      <trkpt lat="43.48771" lon="5.23791">
        <ele>39</ele>
        <time>2022-10-02T07:28:16.000Z</time>
      </trkpt>
      <trkpt lat="43.4877" lon="5.23793">
        <ele>39</ele>
        <time>2022-10-02T07:28:17.000Z</time>
      </trkpt>
      <trkpt lat="43.48769" lon="5.23795">
        <ele>39</ele>
        <time>2022-10-02T07:28:18.000Z</time>
      </trkpt>
      <trkpt lat="43.48768" lon="5.23797">
        <ele>39</ele>
        <time>2022-10-02T07:28:19.000Z</time>
      </trkpt>
      <trkpt lat="43.48767" lon="5.23799">
        <ele>39</ele>
        <time>2022-10-02T07:28:20.000Z</time>
      </trkpt>
      <trkpt lat="43.48766" lon="5.238">
        <ele>39</ele>
        <time>2022-10-02T07:28:21.000Z</time>
      </trkpt>
      <trkpt lat="43.48765" lon="5.23802">
        <ele>39</ele>
        <time>2022-10-02T07:28:22.000Z</time>
      </trkpt>
      <trkpt lat="43.48764" lon="5.23804">
        <ele>39</ele>
        <time>2022-10-02T07:28:23.000Z</time>
      </trkpt>
      <trkpt lat="43.48763" lon="5.23805">
        <ele>39</ele>
        <time>2022-10-02T07:28:24.000Z</time>
      </trkpt>
      <trkpt lat="43.48762" lon="5.23807">
        <ele>39</ele>
        <time>2022-10-02T07:28:25.000Z</time>
      </trkpt>
      <trkpt lat="43.48761" lon="5.23808">
        <ele>39</ele>
        <time>2022-10-02T07:28:26.000Z</time>
      </trkpt>
      <trkpt lat="43.48759" lon="5.2381">
        <ele>39</ele>
        <time>2022-10-02T07:28:27.000Z</time>
      </trkpt>
      <trkpt lat="43.48758" lon="5.23812">
        <ele>39</ele>
        <time>2022-10-02T07:28:28.000Z</time>
      </trkpt>
      <trkpt lat="43.48757" lon="5.23813">
        <ele>39</ele>
        <time>2022-10-02T07:28:29.000Z</time>
      </trkpt>
      <trkpt lat="43.48756" lon="5.23815">
        <ele>39</ele>
        <time>2022-10-02T07:28:30.000Z</time>
      </trkpt>
      <trkpt lat="43.48755" lon="5.23817">
        <ele>39</ele>
        <time>2022-10-02T07:28:31.000Z</time>
      </trkpt>
      <trkpt lat="43.48754" lon="5.23818">
        <ele>39</ele>
        <time>2022-10-02T07:28:32.000Z</time>
      </trkpt>
      <trkpt lat="43.48753" lon="5.2382">
        <ele>39</ele>
        <time>2022-10-02T07:28:33.000Z</time>
      </trkpt>
      <trkpt lat="43.48752" lon="5.23822">
        <ele>39</ele>
        <time>2022-10-02T07:28:34.000Z</time>
      </trkpt>
      <trkpt lat="43.48751" lon="5.23824">
        <ele>39</ele>
        <time>2022-10-02T07:28:35.000Z</time>
      </trkpt>
      <trkpt lat="43.4875" lon="5.23825">
        <ele>39</ele>
        <time>2022-10-02T07:28:36.000Z</time>
      </trkpt>
      <trkpt lat="43.48749" lon="5.23827">
        <ele>39</ele>
        <time>2022-10-02T07:28:37.000Z</time>
      </trkpt>
      <trkpt lat="43.48748" lon="5.23829">
        <ele>39</ele>
        <time>2022-10-02T07:28:38.000Z</time>
      </trkpt>
      <trkpt lat="43.48746" lon="5.2383">
        <ele>39</ele>
        <time>2022-10-02T07:28:39.000Z</time>
      </trkpt>
      <trkpt lat="43.48746" lon="5.23832">
        <ele>39</ele>
        <time>2022-10-02T07:28:40.000Z</time>
      </trkpt>
      <trkpt lat="43.48745" lon="5.23834">
        <ele>39</ele>
        <time>2022-10-02T07:28:41.000Z</time>
      </trkpt>
      <trkpt lat="43.48744" lon="5.23835">
        <ele>39</ele>
        <time>2022-10-02T07:28:42.000Z</time>
      </trkpt>
      <trkpt lat="43.48743" lon="5.23837">
        <ele>39</ele>
        <time>2022-10-02T07:28:43.000Z</time>
      </trkpt>
      <trkpt lat="43.48742" lon="5.23838">
        <ele>39</ele>
        <time>2022-10-02T07:28:44.000Z</time>
      </trkpt>
      <trkpt lat="43.48741" lon="5.2384">
        <ele>39</ele>
        <time>2022-10-02T07:28:45.000Z</time>
      </trkpt>
      <trkpt lat="43.4874" lon="5.23841">
        <ele>39</ele>
        <time>2022-10-02T07:28:46.000Z</time>
      </trkpt>
      <trkpt lat="43.48738" lon="5.23843">
        <ele>39</ele>
        <time>2022-10-02T07:28:47.000Z</time>
      </trkpt>
      <trkpt lat="43.48737" lon="5.23844">
        <ele>39</ele>
        <time>2022-10-02T07:28:48.000Z</time>
      </trkpt>
      <trkpt lat="43.48736" lon="5.23846">
        <ele>39</ele>
        <time>2022-10-02T07:28:49.000Z</time>
      </trkpt>
      <trkpt lat="43.48735" lon="5.23847">
        <ele>39</ele>
        <time>2022-10-02T07:28:50.000Z</time>
      </trkpt>
      <trkpt lat="43.48734" lon="5.23849">
        <ele>39</ele>
        <time>2022-10-02T07:28:51.000Z</time>
      </trkpt>
      <trkpt lat="43.48733" lon="5.2385">
        <ele>39</ele>
        <time>2022-10-02T07:28:52.000Z</time>
      </trkpt>
      <trkpt lat="43.48732" lon="5.23852">
        <ele>39</ele>
        <time>2022-10-02T07:28:53.000Z</time>
      </trkpt>
      <trkpt lat="43.48731" lon="5.23853">
        <ele>39</ele>
        <time>2022-10-02T07:28:54.000Z</time>
      </trkpt>
      <trkpt lat="43.4873" lon="5.23855">
        <ele>39</ele>
        <time>2022-10-02T07:28:55.000Z</time>
      </trkpt>
      <trkpt lat="43.48729" lon="5.23856">
        <ele>39</ele>
        <time>2022-10-02T07:28:56.000Z</time>
      </trkpt>
      <trkpt lat="43.48728" lon="5.23858">
        <ele>39</ele>
        <time>2022-10-02T07:28:57.000Z</time>
      </trkpt>
      <trkpt lat="43.48726" lon="5.23859">
        <ele>40</ele>
        <time>2022-10-02T07:28:58.000Z</time>
      </trkpt>
      <trkpt lat="43.48725" lon="5.23861">
        <ele>40</ele>
        <time>2022-10-02T07:28:59.000Z</time>
      </trkpt>
      <trkpt lat="43.48724" lon="5.23863">
        <ele>40</ele>
        <time>2022-10-02T07:29:00.000Z</time>
      </trkpt>
      <trkpt lat="43.48723" lon="5.23864">
        <ele>39</ele>
        <time>2022-10-02T07:29:01.000Z</time>
      </trkpt>
      <trkpt lat="43.48722" lon="5.23866">
        <ele>39</ele>
        <time>2022-10-02T07:29:02.000Z</time>
      </trkpt>
      <trkpt lat="43.48721" lon="5.23867">
        <ele>39</ele>
        <time>2022-10-02T07:29:03.000Z</time>
      </trkpt>
      <trkpt lat="43.4872" lon="5.23869">
        <ele>39</ele>
        <time>2022-10-02T07:29:04.000Z</time>
      </trkpt>
      <trkpt lat="43.48719" lon="5.2387">
        <ele>39</ele>
        <time>2022-10-02T07:29:05.000Z</time>
      </trkpt>
      <trkpt lat="43.48718" lon="5.23872">
        <ele>39</ele>
        <time>2022-10-02T07:29:06.000Z</time>
      </trkpt>
      <trkpt lat="43.48717" lon="5.23873">
        <ele>39</ele>
        <time>2022-10-02T07:29:07.000Z</time>
      </trkpt>
      <trkpt lat="43.48716" lon="5.23875">
        <ele>39</ele>
        <time>2022-10-02T07:29:08.000Z</time>
      </trkpt>
      <trkpt lat="43.48714" lon="5.23876">
        <ele>39</ele>
        <time>2022-10-02T07:29:09.000Z</time>
      </trkpt>
      <trkpt lat="43.48713" lon="5.23878">
        <ele>39</ele>
        <time>2022-10-02T07:29:10.000Z</time>
      </trkpt>
      <trkpt lat="43.48712" lon="5.23879">
        <ele>39</ele>
        <time>2022-10-02T07:29:11.000Z</time>
      </trkpt>
      <trkpt lat="43.48711" lon="5.23881">
        <ele>39</ele>
        <time>2022-10-02T07:29:12.000Z</time>
      </trkpt>
      <trkpt lat="43.48709" lon="5.23882">
        <ele>40</ele>
        <time>2022-10-02T07:29:13.000Z</time>
      </trkpt>
      <trkpt lat="43.48708" lon="5.23884">
        <ele>40</ele>
        <time>2022-10-02T07:29:14.000Z</time>
      </trkpt>
      <trkpt lat="43.48707" lon="5.23885">
        <ele>40</ele>
        <time>2022-10-02T07:29:15.000Z</time>
      </trkpt>
      <trkpt lat="43.48706" lon="5.23887">
        <ele>40</ele>
        <time>2022-10-02T07:29:16.000Z</time>
      </trkpt>
      <trkpt lat="43.48705" lon="5.23888">
        <ele>40</ele>
        <time>2022-10-02T07:29:17.000Z</time>
      </trkpt>
      <trkpt lat="43.48703" lon="5.2389">
        <ele>40</ele>
        <time>2022-10-02T07:29:18.000Z</time>
      </trkpt>
      <trkpt lat="43.48702" lon="5.23891">
        <ele>40</ele>
        <time>2022-10-02T07:29:19.000Z</time>
      </trkpt>
      <trkpt lat="43.48702" lon="5.23892">
        <ele>40</ele>
        <time>2022-10-02T07:29:20.000Z</time>
      </trkpt>
      <trkpt lat="43.487" lon="5.23894">
        <ele>40</ele>
        <time>2022-10-02T07:29:21.000Z</time>
      </trkpt>
      <trkpt lat="43.48699" lon="5.23895">
        <ele>40</ele>
        <time>2022-10-02T07:29:22.000Z</time>
      </trkpt>
      <trkpt lat="43.48698" lon="5.23897">
        <ele>40</ele>
        <time>2022-10-02T07:29:23.000Z</time>
      </trkpt>
      <trkpt lat="43.48697" lon="5.23898">
        <ele>40</ele>
        <time>2022-10-02T07:29:24.000Z</time>
      </trkpt>
      <trkpt lat="43.48696" lon="5.23899">
        <ele>40</ele>
        <time>2022-10-02T07:29:25.000Z</time>
      </trkpt>
      <trkpt lat="43.48695" lon="5.23901">
        <ele>40</ele>
        <time>2022-10-02T07:29:26.000Z</time>
      </trkpt>
      <trkpt lat="43.48694" lon="5.23902">
        <ele>40</ele>
        <time>2022-10-02T07:29:27.000Z</time>
      </trkpt>
      <trkpt lat="43.48693" lon="5.23904">
        <ele>40</ele>
        <time>2022-10-02T07:29:28.000Z</time>
      </trkpt>
      <trkpt lat="43.48692" lon="5.23905">
        <ele>40</ele>
        <time>2022-10-02T07:29:29.000Z</time>
      </trkpt>
      <trkpt lat="43.48691" lon="5.23907">
        <ele>40</ele>
        <time>2022-10-02T07:29:30.000Z</time>
      </trkpt>
      <trkpt lat="43.4869" lon="5.23908">
        <ele>41</ele>
        <time>2022-10-02T07:29:31.000Z</time>
      </trkpt>
      <trkpt lat="43.48689" lon="5.2391">
        <ele>41</ele>
        <time>2022-10-02T07:29:32.000Z</time>
      </trkpt>
      <trkpt lat="43.48688" lon="5.23911">
        <ele>41</ele>
        <time>2022-10-02T07:29:33.000Z</time>
      </trkpt>
      <trkpt lat="43.48687" lon="5.23913">
        <ele>41</ele>
        <time>2022-10-02T07:29:34.000Z</time>
      </trkpt>
      <trkpt lat="43.48685" lon="5.23914">
        <ele>41</ele>
        <time>2022-10-02T07:29:35.000Z</time>
      </trkpt>
      <trkpt lat="43.48684" lon="5.23915">
        <ele>41</ele>
        <time>2022-10-02T07:29:36.000Z</time>
      </trkpt>
      <trkpt lat="43.48683" lon="5.23917">
        <ele>41</ele>
        <time>2022-10-02T07:29:37.000Z</time>
      </trkpt>
      <trkpt lat="43.48682" lon="5.23918">
        <ele>41</ele>
        <time>2022-10-02T07:29:38.000Z</time>
      </trkpt>
      <trkpt lat="43.48681" lon="5.2392">
        <ele>41</ele>
        <time>2022-10-02T07:29:39.000Z</time>
      </trkpt>
      <trkpt lat="43.4868" lon="5.23921">
        <ele>41</ele>
        <time>2022-10-02T07:29:40.000Z</time>
      </trkpt>
      <trkpt lat="43.48679" lon="5.23923">
        <ele>41</ele>
        <time>2022-10-02T07:29:41.000Z</time>
      </trkpt>
      <trkpt lat="43.48677" lon="5.23924">
        <ele>41</ele>
        <time>2022-10-02T07:29:42.000Z</time>
      </trkpt>
      <trkpt lat="43.48676" lon="5.23926">
        <ele>41</ele>
        <time>2022-10-02T07:29:43.000Z</time>
      </trkpt>
      <trkpt lat="43.48675" lon="5.23927">
        <ele>41</ele>
        <time>2022-10-02T07:29:44.000Z</time>
      </trkpt>
      <trkpt lat="43.48674" lon="5.23929">
        <ele>41</ele>
        <time>2022-10-02T07:29:45.000Z</time>
      </trkpt>
      <trkpt lat="43.48673" lon="5.23931">
        <ele>41</ele>
        <time>2022-10-02T07:29:46.000Z</time>
      </trkpt>
      <trkpt lat="43.48672" lon="5.23932">
        <ele>42</ele>
        <time>2022-10-02T07:29:47.000Z</time>
      </trkpt>
      <trkpt lat="43.48671" lon="5.23934">
        <ele>42</ele>
        <time>2022-10-02T07:29:48.000Z</time>
      </trkpt>
      <trkpt lat="43.4867" lon="5.23935">
        <ele>42</ele>
        <time>2022-10-02T07:29:49.000Z</time>
      </trkpt>
      <trkpt lat="43.48669" lon="5.23937">
        <ele>42</ele>
        <time>2022-10-02T07:29:50.000Z</time>
      </trkpt>
      <trkpt lat="43.48668" lon="5.23938">
        <ele>42</ele>
        <time>2022-10-02T07:29:51.000Z</time>
      </trkpt>
      <trkpt lat="43.48667" lon="5.2394">
        <ele>42</ele>
        <time>2022-10-02T07:29:52.000Z</time>
      </trkpt>
      <trkpt lat="43.48665" lon="5.23941">
        <ele>42</ele>
        <time>2022-10-02T07:29:53.000Z</time>
      </trkpt>
      <trkpt lat="43.48664" lon="5.23943">
        <ele>42</ele>
        <time>2022-10-02T07:29:54.000Z</time>
      </trkpt>
      <trkpt lat="43.48663" lon="5.23944">
        <ele>42</ele>
        <time>2022-10-02T07:29:55.000Z</time>
      </trkpt>
      <trkpt lat="43.48662" lon="5.23946">
        <ele>42</ele>
        <time>2022-10-02T07:29:56.000Z</time>
      </trkpt>
      <trkpt lat="43.48661" lon="5.23947">
        <ele>42</ele>
        <time>2022-10-02T07:29:57.000Z</time>
      </trkpt>
      <trkpt lat="43.48659" lon="5.23948">
        <ele>42</ele>
        <time>2022-10-02T07:29:58.000Z</time>
      </trkpt>
      <trkpt lat="43.48658" lon="5.2395">
        <ele>42</ele>
        <time>2022-10-02T07:29:59.000Z</time>
      </trkpt>
      <trkpt lat="43.48658" lon="5.23951">
        <ele>42</ele>
        <time>2022-10-02T07:30:00.000Z</time>
      </trkpt>
      <trkpt lat="43.48657" lon="5.23953">
        <ele>42</ele>
        <time>2022-10-02T07:30:01.000Z</time>
      </trkpt>
      <trkpt lat="43.48656" lon="5.23954">
        <ele>42</ele>
        <time>2022-10-02T07:30:02.000Z</time>
      </trkpt>
      <trkpt lat="43.48655" lon="5.23956">
        <ele>42</ele>
        <time>2022-10-02T07:30:03.000Z</time>
      </trkpt>
      <trkpt lat="43.48654" lon="5.23958">
        <ele>42</ele>
        <time>2022-10-02T07:30:04.000Z</time>
      </trkpt>
      <trkpt lat="43.48653" lon="5.23959">
        <ele>42</ele>
        <time>2022-10-02T07:30:05.000Z</time>
      </trkpt>
      <trkpt lat="43.48652" lon="5.23961">
        <ele>42</ele>
        <time>2022-10-02T07:30:06.000Z</time>
      </trkpt>
      <trkpt lat="43.48651" lon="5.23963">
        <ele>42</ele>
        <time>2022-10-02T07:30:07.000Z</time>
      </trkpt>
      <trkpt lat="43.4865" lon="5.23964">
        <ele>42</ele>
        <time>2022-10-02T07:30:08.000Z</time>
      </trkpt>
      <trkpt lat="43.48649" lon="5.23966">
        <ele>42</ele>
        <time>2022-10-02T07:30:09.000Z</time>
      </trkpt>
      <trkpt lat="43.48648" lon="5.23968">
        <ele>42</ele>
        <time>2022-10-02T07:30:10.000Z</time>
      </trkpt>
      <trkpt lat="43.48647" lon="5.2397">
        <ele>42</ele>
        <time>2022-10-02T07:30:11.000Z</time>
      </trkpt>
      <trkpt lat="43.48646" lon="5.23971">
        <ele>42</ele>
        <time>2022-10-02T07:30:12.000Z</time>
      </trkpt>
      <trkpt lat="43.48645" lon="5.23973">
        <ele>42</ele>
        <time>2022-10-02T07:30:13.000Z</time>
      </trkpt>
      <trkpt lat="43.48645" lon="5.23975">
        <ele>42</ele>
        <time>2022-10-02T07:30:14.000Z</time>
      </trkpt>
      <trkpt lat="43.48644" lon="5.23977">
        <ele>42</ele>
        <time>2022-10-02T07:30:15.000Z</time>
      </trkpt>
      <trkpt lat="43.48643" lon="5.23978">
        <ele>42</ele>
        <time>2022-10-02T07:30:16.000Z</time>
      </trkpt>
      <trkpt lat="43.48642" lon="5.2398">
        <ele>42</ele>
        <time>2022-10-02T07:30:17.000Z</time>
      </trkpt>
      <trkpt lat="43.48641" lon="5.23982">
        <ele>42</ele>
        <time>2022-10-02T07:30:18.000Z</time>
      </trkpt>
      <trkpt lat="43.4864" lon="5.23984">
        <ele>42</ele>
        <time>2022-10-02T07:30:19.000Z</time>
      </trkpt>
      <trkpt lat="43.48639" lon="5.23985">
        <ele>42</ele>
        <time>2022-10-02T07:30:20.000Z</time>
      </trkpt>
      <trkpt lat="43.48638" lon="5.23987">
        <ele>42</ele>
        <time>2022-10-02T07:30:21.000Z</time>
      </trkpt>
      <trkpt lat="43.48637" lon="5.23989">
        <ele>42</ele>
        <time>2022-10-02T07:30:22.000Z</time>
      </trkpt>
      <trkpt lat="43.48636" lon="5.23991">
        <ele>42</ele>
        <time>2022-10-02T07:30:23.000Z</time>
      </trkpt>
      <trkpt lat="43.48635" lon="5.23993">
        <ele>42</ele>
        <time>2022-10-02T07:30:24.000Z</time>
      </trkpt>
      <trkpt lat="43.48634" lon="5.23994">
        <ele>42</ele>
        <time>2022-10-02T07:30:25.000Z</time>
      </trkpt>
      <trkpt lat="43.48633" lon="5.23996">
        <ele>42</ele>
        <time>2022-10-02T07:30:26.000Z</time>
      </trkpt>
      <trkpt lat="43.48632" lon="5.23998">
        <ele>42</ele>
        <time>2022-10-02T07:30:27.000Z</time>
      </trkpt>
      <trkpt lat="43.48632" lon="5.24">
        <ele>42</ele>
        <time>2022-10-02T07:30:28.000Z</time>
      </trkpt>
      <trkpt lat="43.48631" lon="5.24002">
        <ele>42</ele>
        <time>2022-10-02T07:30:29.000Z</time>
      </trkpt>
      <trkpt lat="43.4863" lon="5.24004">
        <ele>42</ele>
        <time>2022-10-02T07:30:30.000Z</time>
      </trkpt>
      <trkpt lat="43.48629" lon="5.24006">
        <ele>42</ele>
        <time>2022-10-02T07:30:31.000Z</time>
      </trkpt>
      <trkpt lat="43.48628" lon="5.24008">
        <ele>42</ele>
        <time>2022-10-02T07:30:32.000Z</time>
      </trkpt>
      <trkpt lat="43.48628" lon="5.2401">
        <ele>42</ele>
        <time>2022-10-02T07:30:33.000Z</time>
      </trkpt>
      <trkpt lat="43.48627" lon="5.24011">
        <ele>42</ele>
        <time>2022-10-02T07:30:34.000Z</time>
      </trkpt>
      <trkpt lat="43.48626" lon="5.24013">
        <ele>42</ele>
        <time>2022-10-02T07:30:35.000Z</time>
      </trkpt>
      <trkpt lat="43.48626" lon="5.24015">
        <ele>42</ele>
        <time>2022-10-02T07:30:36.000Z</time>
      </trkpt>
      <trkpt lat="43.48625" lon="5.24017">
        <ele>42</ele>
        <time>2022-10-02T07:30:37.000Z</time>
      </trkpt>
      <trkpt lat="43.48624" lon="5.24019">
        <ele>43</ele>
        <time>2022-10-02T07:30:38.000Z</time>
      </trkpt>
      <trkpt lat="43.48624" lon="5.2402">
        <ele>43</ele>
        <time>2022-10-02T07:30:39.000Z</time>
      </trkpt>
      <trkpt lat="43.48623" lon="5.24022">
        <ele>43</ele>
        <time>2022-10-02T07:30:40.000Z</time>
      </trkpt>
      <trkpt lat="43.48622" lon="5.24024">
        <ele>43</ele>
        <time>2022-10-02T07:30:41.000Z</time>
      </trkpt>
      <trkpt lat="43.48622" lon="5.24026">
        <ele>43</ele>
        <time>2022-10-02T07:30:42.000Z</time>
      </trkpt>
      <trkpt lat="43.48621" lon="5.24027">
        <ele>43</ele>
        <time>2022-10-02T07:30:43.000Z</time>
      </trkpt>
      <trkpt lat="43.4862" lon="5.24029">
        <ele>43</ele>
        <time>2022-10-02T07:30:44.000Z</time>
      </trkpt>
      <trkpt lat="43.4862" lon="5.24031">
        <ele>43</ele>
        <time>2022-10-02T07:30:45.000Z</time>
      </trkpt>
      <trkpt lat="43.48619" lon="5.24032">
        <ele>43</ele>
        <time>2022-10-02T07:30:46.000Z</time>
      </trkpt>
      <trkpt lat="43.48619" lon="5.24034">
        <ele>43</ele>
        <time>2022-10-02T07:30:47.000Z</time>
      </trkpt>
      <trkpt lat="43.48618" lon="5.24036">
        <ele>43</ele>
        <time>2022-10-02T07:30:48.000Z</time>
      </trkpt>
      <trkpt lat="43.48618" lon="5.24038">
        <ele>43</ele>
        <time>2022-10-02T07:30:49.000Z</time>
      </trkpt>
      <trkpt lat="43.48617" lon="5.24039">
        <ele>43</ele>
        <time>2022-10-02T07:30:50.000Z</time>
      </trkpt>
      <trkpt lat="43.48617" lon="5.24041">
        <ele>44</ele>
        <time>2022-10-02T07:30:51.000Z</time>
      </trkpt>
      <trkpt lat="43.48616" lon="5.24043">
        <ele>44</ele>
        <time>2022-10-02T07:30:52.000Z</time>
      </trkpt>
      <trkpt lat="43.48616" lon="5.24045">
        <ele>44</ele>
        <time>2022-10-02T07:30:53.000Z</time>
      </trkpt>
      <trkpt lat="43.48615" lon="5.24047">
        <ele>44</ele>
        <time>2022-10-02T07:30:54.000Z</time>
      </trkpt>
      <trkpt lat="43.48615" lon="5.24049">
        <ele>44</ele>
        <time>2022-10-02T07:30:55.000Z</time>
      </trkpt>
      <trkpt lat="43.48614" lon="5.24051">
        <ele>44</ele>
        <time>2022-10-02T07:30:56.000Z</time>
      </trkpt>
      <trkpt lat="43.48613" lon="5.24053">
        <ele>44</ele>
        <time>2022-10-02T07:30:57.000Z</time>
      </trkpt>
      <trkpt lat="43.48613" lon="5.24054">
        <ele>44</ele>
        <time>2022-10-02T07:30:58.000Z</time>
      </trkpt>
      <trkpt lat="43.48612" lon="5.24056">
        <ele>44</ele>
        <time>2022-10-02T07:30:59.000Z</time>
      </trkpt>
      <trkpt lat="43.48611" lon="5.24058">
        <ele>45</ele>
        <time>2022-10-02T07:31:00.000Z</time>
      </trkpt>
      <trkpt lat="43.4861" lon="5.24059">
        <ele>45</ele>
        <time>2022-10-02T07:31:01.000Z</time>
      </trkpt>
      <trkpt lat="43.48609" lon="5.24061">
        <ele>45</ele>
        <time>2022-10-02T07:31:02.000Z</time>
      </trkpt>
      <trkpt lat="43.48609" lon="5.24062">
        <ele>45</ele>
        <time>2022-10-02T07:31:03.000Z</time>
      </trkpt>
      <trkpt lat="43.48608" lon="5.24064">
        <ele>45</ele>
        <time>2022-10-02T07:31:04.000Z</time>
      </trkpt>
      <trkpt lat="43.48607" lon="5.24065">
        <ele>45</ele>
        <time>2022-10-02T07:31:05.000Z</time>
      </trkpt>
      <trkpt lat="43.48607" lon="5.24067">
        <ele>46</ele>
        <time>2022-10-02T07:31:06.000Z</time>
      </trkpt>
      <trkpt lat="43.48607" lon="5.24068">
        <ele>46</ele>
        <time>2022-10-02T07:31:07.000Z</time>
      </trkpt>
      <trkpt lat="43.48606" lon="5.2407">
        <ele>46</ele>
        <time>2022-10-02T07:31:08.000Z</time>
      </trkpt>
      <trkpt lat="43.48606" lon="5.24072">
        <ele>46</ele>
        <time>2022-10-02T07:31:09.000Z</time>
      </trkpt>
      <trkpt lat="43.48605" lon="5.24073">
        <ele>46</ele>
        <time>2022-10-02T07:31:10.000Z</time>
      </trkpt>
      <trkpt lat="43.48604" lon="5.24076">
        <ele>46</ele>
        <time>2022-10-02T07:31:11.000Z</time>
      </trkpt>
      <trkpt lat="43.48604" lon="5.24078">
        <ele>46</ele>
        <time>2022-10-02T07:31:12.000Z</time>
      </trkpt>
      <trkpt lat="43.48603" lon="5.2408">
        <ele>46</ele>
        <time>2022-10-02T07:31:13.000Z</time>
      </trkpt>
      <trkpt lat="43.48602" lon="5.24082">
        <ele>46</ele>
        <time>2022-10-02T07:31:14.000Z</time>
      </trkpt>
      <trkpt lat="43.48601" lon="5.24084">
        <ele>46</ele>
        <time>2022-10-02T07:31:15.000Z</time>
      </trkpt>
      <trkpt lat="43.486" lon="5.24086">
        <ele>46</ele>
        <time>2022-10-02T07:31:16.000Z</time>
      </trkpt>
      <trkpt lat="43.48599" lon="5.24087">
        <ele>46</ele>
        <time>2022-10-02T07:31:17.000Z</time>
      </trkpt>
      <trkpt lat="43.48599" lon="5.24089">
        <ele>46</ele>
        <time>2022-10-02T07:31:18.000Z</time>
      </trkpt>
      <trkpt lat="43.48598" lon="5.24091">
        <ele>46</ele>
        <time>2022-10-02T07:31:19.000Z</time>
      </trkpt>
      <trkpt lat="43.48598" lon="5.24092">
        <ele>46</ele>
        <time>2022-10-02T07:31:20.000Z</time>
      </trkpt>
      <trkpt lat="43.48597" lon="5.24094">
        <ele>47</ele>
        <time>2022-10-02T07:31:21.000Z</time>
      </trkpt>
      <trkpt lat="43.48596" lon="5.24095">
        <ele>47</ele>
        <time>2022-10-02T07:31:22.000Z</time>
      </trkpt>
      <trkpt lat="43.48596" lon="5.24096">
        <ele>47</ele>
        <time>2022-10-02T07:31:23.000Z</time>
      </trkpt>
      <trkpt lat="43.48595" lon="5.24098">
        <ele>47</ele>
        <time>2022-10-02T07:31:24.000Z</time>
      </trkpt>
      <trkpt lat="43.48594" lon="5.241">
        <ele>47</ele>
        <time>2022-10-02T07:31:25.000Z</time>
      </trkpt>
      <trkpt lat="43.48594" lon="5.24102">
        <ele>47</ele>
        <time>2022-10-02T07:31:26.000Z</time>
      </trkpt>
      <trkpt lat="43.48593" lon="5.24104">
        <ele>47</ele>
        <time>2022-10-02T07:31:27.000Z</time>
      </trkpt>
      <trkpt lat="43.48593" lon="5.24105">
        <ele>47</ele>
        <time>2022-10-02T07:31:28.000Z</time>
      </trkpt>
      <trkpt lat="43.48592" lon="5.24107">
        <ele>47</ele>
        <time>2022-10-02T07:31:29.000Z</time>
      </trkpt>
      <trkpt lat="43.48592" lon="5.24109">
        <ele>47</ele>
        <time>2022-10-02T07:31:30.000Z</time>
      </trkpt>
      <trkpt lat="43.48591" lon="5.24111">
        <ele>47</ele>
        <time>2022-10-02T07:31:31.000Z</time>
      </trkpt>
      <trkpt lat="43.4859" lon="5.24113">
        <ele>47</ele>
        <time>2022-10-02T07:31:32.000Z</time>
      </trkpt>
      <trkpt lat="43.4859" lon="5.24115">
        <ele>47</ele>
        <time>2022-10-02T07:31:33.000Z</time>
      </trkpt>
      <trkpt lat="43.48589" lon="5.24117">
        <ele>47</ele>
        <time>2022-10-02T07:31:34.000Z</time>
      </trkpt>
      <trkpt lat="43.48588" lon="5.24119">
        <ele>47</ele>
        <time>2022-10-02T07:31:35.000Z</time>
      </trkpt>
      <trkpt lat="43.48588" lon="5.24121">
        <ele>47</ele>
        <time>2022-10-02T07:31:36.000Z</time>
      </trkpt>
      <trkpt lat="43.48587" lon="5.24123">
        <ele>47</ele>
        <time>2022-10-02T07:31:37.000Z</time>
      </trkpt>
      <trkpt lat="43.48586" lon="5.24125">
        <ele>48</ele>
        <time>2022-10-02T07:31:38.000Z</time>
      </trkpt>
      <trkpt lat="43.48585" lon="5.24127">
        <ele>48</ele>
        <time>2022-10-02T07:31:39.000Z</time>
      </trkpt>
      <trkpt lat="43.48585" lon="5.24128">
        <ele>48</ele>
        <time>2022-10-02T07:31:40.000Z</time>
      </trkpt>
      <trkpt lat="43.48584" lon="5.2413">
        <ele>48</ele>
        <time>2022-10-02T07:31:41.000Z</time>
      </trkpt>
      <trkpt lat="43.48582" lon="5.24131">
        <ele>49</ele>
        <time>2022-10-02T07:31:42.000Z</time>
      </trkpt>
      <trkpt lat="43.48581" lon="5.24133">
        <ele>49</ele>
        <time>2022-10-02T07:31:43.000Z</time>
      </trkpt>
      <trkpt lat="43.4858" lon="5.24133">
        <ele>49</ele>
        <time>2022-10-02T07:31:44.000Z</time>
      </trkpt>
      <trkpt lat="43.48578" lon="5.24134">
        <ele>49</ele>
        <time>2022-10-02T07:31:45.000Z</time>
      </trkpt>
      <trkpt lat="43.48577" lon="5.24135">
        <ele>49</ele>
        <time>2022-10-02T07:31:46.000Z</time>
      </trkpt>
      <trkpt lat="43.48576" lon="5.24135">
        <ele>50</ele>
        <time>2022-10-02T07:31:47.000Z</time>
      </trkpt>
      <trkpt lat="43.48574" lon="5.24136">
        <ele>50</ele>
        <time>2022-10-02T07:31:48.000Z</time>
      </trkpt>
      <trkpt lat="43.48573" lon="5.24137">
        <ele>50</ele>
        <time>2022-10-02T07:31:49.000Z</time>
      </trkpt>
      <trkpt lat="43.48571" lon="5.24137">
        <ele>50</ele>
        <time>2022-10-02T07:31:50.000Z</time>
      </trkpt>
      <trkpt lat="43.48569" lon="5.24137">
        <ele>50</ele>
        <time>2022-10-02T07:31:51.000Z</time>
      </trkpt>
      <trkpt lat="43.48568" lon="5.24137">
        <ele>50</ele>
        <time>2022-10-02T07:31:52.000Z</time>
      </trkpt>
      <trkpt lat="43.48566" lon="5.24137">
        <ele>51</ele>
        <time>2022-10-02T07:31:53.000Z</time>
      </trkpt>
      <trkpt lat="43.48564" lon="5.24137">
        <ele>51</ele>
        <time>2022-10-02T07:31:54.000Z</time>
      </trkpt>
      <trkpt lat="43.48563" lon="5.24136">
        <ele>51</ele>
        <time>2022-10-02T07:31:55.000Z</time>
      </trkpt>
      <trkpt lat="43.48561" lon="5.24136">
        <ele>51</ele>
        <time>2022-10-02T07:31:56.000Z</time>
      </trkpt>
      <trkpt lat="43.4856" lon="5.24136">
        <ele>51</ele>
        <time>2022-10-02T07:31:57.000Z</time>
      </trkpt>
      <trkpt lat="43.48558" lon="5.24136">
        <ele>51</ele>
        <time>2022-10-02T07:31:58.000Z</time>
      </trkpt>
      <trkpt lat="43.48556" lon="5.24136">
        <ele>51</ele>
        <time>2022-10-02T07:31:59.000Z</time>
      </trkpt>
      <trkpt lat="43.48555" lon="5.24136">
        <ele>51</ele>
        <time>2022-10-02T07:32:00.000Z</time>
      </trkpt>
      <trkpt lat="43.48553" lon="5.24135">
        <ele>51</ele>
        <time>2022-10-02T07:32:01.000Z</time>
      </trkpt>
      <trkpt lat="43.48552" lon="5.24135">
        <ele>51</ele>
        <time>2022-10-02T07:32:02.000Z</time>
      </trkpt>
      <trkpt lat="43.4855" lon="5.24135">
        <ele>52</ele>
        <time>2022-10-02T07:32:03.000Z</time>
      </trkpt>
      <trkpt lat="43.48548" lon="5.24134">
        <ele>52</ele>
        <time>2022-10-02T07:32:04.000Z</time>
      </trkpt>
      <trkpt lat="43.48547" lon="5.24133">
        <ele>52</ele>
        <time>2022-10-02T07:32:05.000Z</time>
      </trkpt>
      <trkpt lat="43.48545" lon="5.24133">
        <ele>52</ele>
        <time>2022-10-02T07:32:06.000Z</time>
      </trkpt>
      <trkpt lat="43.48544" lon="5.24132">
        <ele>52</ele>
        <time>2022-10-02T07:32:07.000Z</time>
      </trkpt>
      <trkpt lat="43.48542" lon="5.24131">
        <ele>52</ele>
        <time>2022-10-02T07:32:08.000Z</time>
      </trkpt>
      <trkpt lat="43.4854" lon="5.24131">
        <ele>52</ele>
        <time>2022-10-02T07:32:09.000Z</time>
      </trkpt>
      <trkpt lat="43.48539" lon="5.2413">
        <ele>52</ele>
        <time>2022-10-02T07:32:10.000Z</time>
      </trkpt>
      <trkpt lat="43.48537" lon="5.2413">
        <ele>52</ele>
        <time>2022-10-02T07:32:11.000Z</time>
      </trkpt>
      <trkpt lat="43.48536" lon="5.24129">
        <ele>52</ele>
        <time>2022-10-02T07:32:12.000Z</time>
      </trkpt>
      <trkpt lat="43.48534" lon="5.24129">
        <ele>52</ele>
        <time>2022-10-02T07:32:13.000Z</time>
      </trkpt>
      <trkpt lat="43.48533" lon="5.24128">
        <ele>52</ele>
        <time>2022-10-02T07:32:14.000Z</time>
      </trkpt>
      <trkpt lat="43.48531" lon="5.24128">
        <ele>52</ele>
        <time>2022-10-02T07:32:15.000Z</time>
      </trkpt>
      <trkpt lat="43.4853" lon="5.24128">
        <ele>53</ele>
        <time>2022-10-02T07:32:16.000Z</time>
      </trkpt>
      <trkpt lat="43.48528" lon="5.24128">
        <ele>53</ele>
        <time>2022-10-02T07:32:17.000Z</time>
      </trkpt>
      <trkpt lat="43.48526" lon="5.24127">
        <ele>53</ele>
        <time>2022-10-02T07:32:18.000Z</time>
      </trkpt>
      <trkpt lat="43.48525" lon="5.24127">
        <ele>53</ele>
        <time>2022-10-02T07:32:19.000Z</time>
      </trkpt>
      <trkpt lat="43.48523" lon="5.24127">
        <ele>53</ele>
        <time>2022-10-02T07:32:20.000Z</time>
      </trkpt>
      <trkpt lat="43.48521" lon="5.24127">
        <ele>53</ele>
        <time>2022-10-02T07:32:21.000Z</time>
      </trkpt>
      <trkpt lat="43.4852" lon="5.24127">
        <ele>53</ele>
        <time>2022-10-02T07:32:22.000Z</time>
      </trkpt>
      <trkpt lat="43.48518" lon="5.24126">
        <ele>53</ele>
        <time>2022-10-02T07:32:23.000Z</time>
      </trkpt>
      <trkpt lat="43.48516" lon="5.24126">
        <ele>53</ele>
        <time>2022-10-02T07:32:24.000Z</time>
      </trkpt>
      <trkpt lat="43.48515" lon="5.24126">
        <ele>53</ele>
        <time>2022-10-02T07:32:25.000Z</time>
      </trkpt>
      <trkpt lat="43.48514" lon="5.24126">
        <ele>53</ele>
        <time>2022-10-02T07:32:26.000Z</time>
      </trkpt>
      <trkpt lat="43.48512" lon="5.24126">
        <ele>53</ele>
        <time>2022-10-02T07:32:27.000Z</time>
      </trkpt>
      <trkpt lat="43.48511" lon="5.24126">
        <ele>53</ele>
        <time>2022-10-02T07:32:28.000Z</time>
      </trkpt>
      <trkpt lat="43.4851" lon="5.24126">
        <ele>53</ele>
        <time>2022-10-02T07:32:29.000Z</time>
      </trkpt>
      <trkpt lat="43.48508" lon="5.24126">
        <ele>53</ele>
        <time>2022-10-02T07:32:30.000Z</time>
      </trkpt>
      <trkpt lat="43.48506" lon="5.24126">
        <ele>53</ele>
        <time>2022-10-02T07:32:31.000Z</time>
      </trkpt>
      <trkpt lat="43.48504" lon="5.24126">
        <ele>53</ele>
        <time>2022-10-02T07:32:32.000Z</time>
      </trkpt>
      <trkpt lat="43.48502" lon="5.24126">
        <ele>53</ele>
        <time>2022-10-02T07:32:33.000Z</time>
      </trkpt>
      <trkpt lat="43.48501" lon="5.24126">
        <ele>53</ele>
        <time>2022-10-02T07:32:34.000Z</time>
      </trkpt>
      <trkpt lat="43.48499" lon="5.24126">
        <ele>53</ele>
        <time>2022-10-02T07:32:35.000Z</time>
      </trkpt>
      <trkpt lat="43.48498" lon="5.24127">
        <ele>53</ele>
        <time>2022-10-02T07:32:36.000Z</time>
      </trkpt>
      <trkpt lat="43.48496" lon="5.24127">
        <ele>53</ele>
        <time>2022-10-02T07:32:37.000Z</time>
      </trkpt>
      <trkpt lat="43.48494" lon="5.24127">
        <ele>53</ele>
        <time>2022-10-02T07:32:38.000Z</time>
      </trkpt>
      <trkpt lat="43.48493" lon="5.24127">
        <ele>53</ele>
        <time>2022-10-02T07:32:39.000Z</time>
      </trkpt>
      <trkpt lat="43.48491" lon="5.24127">
        <ele>53</ele>
        <time>2022-10-02T07:32:40.000Z</time>
      </trkpt>
      <trkpt lat="43.48489" lon="5.24127">
        <ele>53</ele>
        <time>2022-10-02T07:32:41.000Z</time>
      </trkpt>
      <trkpt lat="43.48488" lon="5.24126">
        <ele>53</ele>
        <time>2022-10-02T07:32:42.000Z</time>
      </trkpt>
      <trkpt lat="43.48486" lon="5.24126">
        <ele>53</ele>
        <time>2022-10-02T07:32:43.000Z</time>
      </trkpt>
      <trkpt lat="43.48484" lon="5.24126">
        <ele>53</ele>
        <time>2022-10-02T07:32:44.000Z</time>
      </trkpt>
      <trkpt lat="43.48483" lon="5.24126">
        <ele>53</ele>
        <time>2022-10-02T07:32:45.000Z</time>
      </trkpt>
      <trkpt lat="43.48481" lon="5.24126">
        <ele>53</ele>
        <time>2022-10-02T07:32:46.000Z</time>
      </trkpt>
      <trkpt lat="43.48479" lon="5.24126">
        <ele>53</ele>
        <time>2022-10-02T07:32:47.000Z</time>
      </trkpt>
      <trkpt lat="43.48478" lon="5.24126">
        <ele>53</ele>
        <time>2022-10-02T07:32:48.000Z</time>
      </trkpt>
      <trkpt lat="43.48476" lon="5.24126">
        <ele>53</ele>
        <time>2022-10-02T07:32:49.000Z</time>
      </trkpt>
      <trkpt lat="43.48475" lon="5.24126">
        <ele>53</ele>
        <time>2022-10-02T07:32:50.000Z</time>
      </trkpt>
      <trkpt lat="43.48473" lon="5.24126">
        <ele>53</ele>
        <time>2022-10-02T07:32:51.000Z</time>
      </trkpt>
      <trkpt lat="43.48472" lon="5.24126">
        <ele>53</ele>
        <time>2022-10-02T07:32:52.000Z</time>
      </trkpt>
      <trkpt lat="43.4847" lon="5.24127">
        <ele>53</ele>
        <time>2022-10-02T07:32:53.000Z</time>
      </trkpt>
      <trkpt lat="43.48469" lon="5.24127">
        <ele>53</ele>
        <time>2022-10-02T07:32:54.000Z</time>
      </trkpt>
      <trkpt lat="43.48467" lon="5.24127">
        <ele>53</ele>
        <time>2022-10-02T07:32:55.000Z</time>
      </trkpt>
      <trkpt lat="43.48466" lon="5.24128">
        <ele>53</ele>
        <time>2022-10-02T07:32:56.000Z</time>
      </trkpt>
      <trkpt lat="43.48465" lon="5.24128">
        <ele>53</ele>
        <time>2022-10-02T07:32:57.000Z</time>
      </trkpt>
      <trkpt lat="43.48463" lon="5.24128">
        <ele>53</ele>
        <time>2022-10-02T07:32:58.000Z</time>
      </trkpt>
      <trkpt lat="43.48462" lon="5.24128">
        <ele>53</ele>
        <time>2022-10-02T07:32:59.000Z</time>
      </trkpt>
      <trkpt lat="43.4846" lon="5.24128">
        <ele>53</ele>
        <time>2022-10-02T07:33:00.000Z</time>
      </trkpt>
      <trkpt lat="43.48459" lon="5.24128">
        <ele>53</ele>
        <time>2022-10-02T07:33:01.000Z</time>
      </trkpt>
      <trkpt lat="43.48457" lon="5.24128">
        <ele>53</ele>
        <time>2022-10-02T07:33:02.000Z</time>
      </trkpt>
      <trkpt lat="43.48456" lon="5.24128">
        <ele>53</ele>
        <time>2022-10-02T07:33:03.000Z</time>
      </trkpt>
      <trkpt lat="43.48454" lon="5.24128">
        <ele>53</ele>
        <time>2022-10-02T07:33:04.000Z</time>
      </trkpt>
      <trkpt lat="43.48453" lon="5.24128">
        <ele>53</ele>
        <time>2022-10-02T07:33:05.000Z</time>
      </trkpt>
      <trkpt lat="43.48451" lon="5.24128">
        <ele>53</ele>
        <time>2022-10-02T07:33:06.000Z</time>
      </trkpt>
      <trkpt lat="43.48449" lon="5.24128">
        <ele>53</ele>
        <time>2022-10-02T07:33:07.000Z</time>
      </trkpt>
      <trkpt lat="43.48448" lon="5.24128">
        <ele>53</ele>
        <time>2022-10-02T07:33:08.000Z</time>
      </trkpt>
      <trkpt lat="43.48446" lon="5.24128">
        <ele>53</ele>
        <time>2022-10-02T07:33:09.000Z</time>
      </trkpt>
      <trkpt lat="43.48444" lon="5.24128">
        <ele>53</ele>
        <time>2022-10-02T07:33:10.000Z</time>
      </trkpt>
      <trkpt lat="43.48443" lon="5.24128">
        <ele>53</ele>
        <time>2022-10-02T07:33:11.000Z</time>
      </trkpt>
      <trkpt lat="43.48441" lon="5.24128">
        <ele>53</ele>
        <time>2022-10-02T07:33:12.000Z</time>
      </trkpt>
      <trkpt lat="43.48439" lon="5.24128">
        <ele>53</ele>
        <time>2022-10-02T07:33:13.000Z</time>
      </trkpt>
      <trkpt lat="43.48438" lon="5.24128">
        <ele>53</ele>
        <time>2022-10-02T07:33:14.000Z</time>
      </trkpt>
      <trkpt lat="43.48436" lon="5.24128">
        <ele>53</ele>
        <time>2022-10-02T07:33:15.000Z</time>
      </trkpt>
      <trkpt lat="43.48434" lon="5.24127">
        <ele>53</ele>
        <time>2022-10-02T07:33:16.000Z</time>
      </trkpt>
      <trkpt lat="43.48433" lon="5.24127">
        <ele>53</ele>
        <time>2022-10-02T07:33:17.000Z</time>
      </trkpt>
      <trkpt lat="43.48431" lon="5.24127">
        <ele>53</ele>
        <time>2022-10-02T07:33:18.000Z</time>
      </trkpt>
      <trkpt lat="43.4843" lon="5.24127">
        <ele>53</ele>
        <time>2022-10-02T07:33:19.000Z</time>
      </trkpt>
      <trkpt lat="43.48428" lon="5.24127">
        <ele>54</ele>
        <time>2022-10-02T07:33:20.000Z</time>
      </trkpt>
      <trkpt lat="43.48426" lon="5.24127">
        <ele>54</ele>
        <time>2022-10-02T07:33:21.000Z</time>
      </trkpt>
      <trkpt lat="43.48425" lon="5.24126">
        <ele>54</ele>
        <time>2022-10-02T07:33:22.000Z</time>
      </trkpt>
      <trkpt lat="43.48423" lon="5.24126">
        <ele>54</ele>
        <time>2022-10-02T07:33:23.000Z</time>
      </trkpt>
      <trkpt lat="43.48421" lon="5.24126">
        <ele>54</ele>
        <time>2022-10-02T07:33:24.000Z</time>
      </trkpt>
      <trkpt lat="43.4842" lon="5.24125">
        <ele>54</ele>
        <time>2022-10-02T07:33:25.000Z</time>
      </trkpt>
      <trkpt lat="43.48418" lon="5.24125">
        <ele>54</ele>
        <time>2022-10-02T07:33:26.000Z</time>
      </trkpt>
      <trkpt lat="43.48417" lon="5.24125">
        <ele>54</ele>
        <time>2022-10-02T07:33:27.000Z</time>
      </trkpt>
      <trkpt lat="43.48415" lon="5.24125">
        <ele>54</ele>
        <time>2022-10-02T07:33:28.000Z</time>
      </trkpt>
      <trkpt lat="43.48413" lon="5.24125">
        <ele>54</ele>
        <time>2022-10-02T07:33:29.000Z</time>
      </trkpt>
      <trkpt lat="43.48411" lon="5.24125">
        <ele>54</ele>
        <time>2022-10-02T07:33:30.000Z</time>
      </trkpt>
      <trkpt lat="43.4841" lon="5.24125">
        <ele>54</ele>
        <time>2022-10-02T07:33:31.000Z</time>
      </trkpt>
      <trkpt lat="43.48408" lon="5.24125">
        <ele>54</ele>
        <time>2022-10-02T07:33:32.000Z</time>
      </trkpt>
      <trkpt lat="43.48406" lon="5.24126">
        <ele>54</ele>
        <time>2022-10-02T07:33:33.000Z</time>
      </trkpt>
      <trkpt lat="43.48405" lon="5.24126">
        <ele>54</ele>
        <time>2022-10-02T07:33:34.000Z</time>
      </trkpt>
      <trkpt lat="43.48403" lon="5.24126">
        <ele>54</ele>
        <time>2022-10-02T07:33:35.000Z</time>
      </trkpt>
      <trkpt lat="43.48401" lon="5.24126">
        <ele>54</ele>
        <time>2022-10-02T07:33:36.000Z</time>
      </trkpt>
      <trkpt lat="43.484" lon="5.24126">
        <ele>54</ele>
        <time>2022-10-02T07:33:37.000Z</time>
      </trkpt>
      <trkpt lat="43.48398" lon="5.24126">
        <ele>54</ele>
        <time>2022-10-02T07:33:38.000Z</time>
      </trkpt>
      <trkpt lat="43.48396" lon="5.24126">
        <ele>54</ele>
        <time>2022-10-02T07:33:39.000Z</time>
      </trkpt>
      <trkpt lat="43.48395" lon="5.24126">
        <ele>54</ele>
        <time>2022-10-02T07:33:40.000Z</time>
      </trkpt>
      <trkpt lat="43.48393" lon="5.24126">
        <ele>54</ele>
        <time>2022-10-02T07:33:41.000Z</time>
      </trkpt>
      <trkpt lat="43.48392" lon="5.24127">
        <ele>54</ele>
        <time>2022-10-02T07:33:42.000Z</time>
      </trkpt>
      <trkpt lat="43.4839" lon="5.24127">
        <ele>54</ele>
        <time>2022-10-02T07:33:43.000Z</time>
      </trkpt>
      <trkpt lat="43.48388" lon="5.24126">
        <ele>54</ele>
        <time>2022-10-02T07:33:44.000Z</time>
      </trkpt>
      <trkpt lat="43.48387" lon="5.24126">
        <ele>54</ele>
        <time>2022-10-02T07:33:45.000Z</time>
      </trkpt>
      <trkpt lat="43.48385" lon="5.24126">
        <ele>54</ele>
        <time>2022-10-02T07:33:46.000Z</time>
      </trkpt>
      <trkpt lat="43.48383" lon="5.24126">
        <ele>54</ele>
        <time>2022-10-02T07:33:47.000Z</time>
      </trkpt>
      <trkpt lat="43.48382" lon="5.24126">
        <ele>54</ele>
        <time>2022-10-02T07:33:48.000Z</time>
      </trkpt>
      <trkpt lat="43.4838" lon="5.24126">
        <ele>54</ele>
        <time>2022-10-02T07:33:49.000Z</time>
      </trkpt>
      <trkpt lat="43.48378" lon="5.24125">
        <ele>54</ele>
        <time>2022-10-02T07:33:50.000Z</time>
      </trkpt>
      <trkpt lat="43.48377" lon="5.24125">
        <ele>54</ele>
        <time>2022-10-02T07:33:51.000Z</time>
      </trkpt>
      <trkpt lat="43.48375" lon="5.24125">
        <ele>54</ele>
        <time>2022-10-02T07:33:52.000Z</time>
      </trkpt>
      <trkpt lat="43.48373" lon="5.24125">
        <ele>54</ele>
        <time>2022-10-02T07:33:53.000Z</time>
      </trkpt>
      <trkpt lat="43.48372" lon="5.24125">
        <ele>54</ele>
        <time>2022-10-02T07:33:54.000Z</time>
      </trkpt>
      <trkpt lat="43.4837" lon="5.24125">
        <ele>54</ele>
        <time>2022-10-02T07:33:55.000Z</time>
      </trkpt>
      <trkpt lat="43.48369" lon="5.24124">
        <ele>54</ele>
        <time>2022-10-02T07:33:56.000Z</time>
      </trkpt>
      <trkpt lat="43.48367" lon="5.24124">
        <ele>54</ele>
        <time>2022-10-02T07:33:57.000Z</time>
      </trkpt>
      <trkpt lat="43.48365" lon="5.24124">
        <ele>54</ele>
        <time>2022-10-02T07:33:58.000Z</time>
      </trkpt>
      <trkpt lat="43.48364" lon="5.24124">
        <ele>54</ele>
        <time>2022-10-02T07:33:59.000Z</time>
      </trkpt>
      <trkpt lat="43.48362" lon="5.24124">
        <ele>54</ele>
        <time>2022-10-02T07:34:00.000Z</time>
      </trkpt>
      <trkpt lat="43.48361" lon="5.24124">
        <ele>54</ele>
        <time>2022-10-02T07:34:01.000Z</time>
      </trkpt>
      <trkpt lat="43.48359" lon="5.24124">
        <ele>54</ele>
        <time>2022-10-02T07:34:02.000Z</time>
      </trkpt>
      <trkpt lat="43.48358" lon="5.24124">
        <ele>54</ele>
        <time>2022-10-02T07:34:03.000Z</time>
      </trkpt>
      <trkpt lat="43.48356" lon="5.24124">
        <ele>54</ele>
        <time>2022-10-02T07:34:04.000Z</time>
      </trkpt>
      <trkpt lat="43.48355" lon="5.24125">
        <ele>54</ele>
        <time>2022-10-02T07:34:05.000Z</time>
      </trkpt>
      <trkpt lat="43.48353" lon="5.24125">
        <ele>54</ele>
        <time>2022-10-02T07:34:06.000Z</time>
      </trkpt>
      <trkpt lat="43.48352" lon="5.24125">
        <ele>54</ele>
        <time>2022-10-02T07:34:07.000Z</time>
      </trkpt>
      <trkpt lat="43.4835" lon="5.24125">
        <ele>54</ele>
        <time>2022-10-02T07:34:08.000Z</time>
      </trkpt>
      <trkpt lat="43.48349" lon="5.24125">
        <ele>54</ele>
        <time>2022-10-02T07:34:09.000Z</time>
      </trkpt>
      <trkpt lat="43.48347" lon="5.24125">
        <ele>54</ele>
        <time>2022-10-02T07:34:10.000Z</time>
      </trkpt>
      <trkpt lat="43.48346" lon="5.24125">
        <ele>54</ele>
        <time>2022-10-02T07:34:11.000Z</time>
      </trkpt>
      <trkpt lat="43.48344" lon="5.24125">
        <ele>54</ele>
        <time>2022-10-02T07:34:12.000Z</time>
      </trkpt>
      <trkpt lat="43.48342" lon="5.24124">
        <ele>54</ele>
        <time>2022-10-02T07:34:13.000Z</time>
      </trkpt>
      <trkpt lat="43.48341" lon="5.24124">
        <ele>54</ele>
        <time>2022-10-02T07:34:14.000Z</time>
      </trkpt>
      <trkpt lat="43.4834" lon="5.24123">
        <ele>54</ele>
        <time>2022-10-02T07:34:15.000Z</time>
      </trkpt>
      <trkpt lat="43.48338" lon="5.24123">
        <ele>54</ele>
        <time>2022-10-02T07:34:16.000Z</time>
      </trkpt>
      <trkpt lat="43.48337" lon="5.24123">
        <ele>55</ele>
        <time>2022-10-02T07:34:17.000Z</time>
      </trkpt>
      <trkpt lat="43.48336" lon="5.24122">
        <ele>55</ele>
        <time>2022-10-02T07:34:18.000Z</time>
      </trkpt>
      <trkpt lat="43.48334" lon="5.24122">
        <ele>55</ele>
        <time>2022-10-02T07:34:19.000Z</time>
      </trkpt>
      <trkpt lat="43.48333" lon="5.24122">
        <ele>55</ele>
        <time>2022-10-02T07:34:20.000Z</time>
      </trkpt>
      <trkpt lat="43.48331" lon="5.24122">
        <ele>54</ele>
        <time>2022-10-02T07:34:21.000Z</time>
      </trkpt>
      <trkpt lat="43.4833" lon="5.24122">
        <ele>54</ele>
        <time>2022-10-02T07:34:22.000Z</time>
      </trkpt>
      <trkpt lat="43.48328" lon="5.24122">
        <ele>54</ele>
        <time>2022-10-02T07:34:23.000Z</time>
      </trkpt>
      <trkpt lat="43.48327" lon="5.24122">
        <ele>54</ele>
        <time>2022-10-02T07:34:24.000Z</time>
      </trkpt>
      <trkpt lat="43.48325" lon="5.24122">
        <ele>54</ele>
        <time>2022-10-02T07:34:25.000Z</time>
      </trkpt>
      <trkpt lat="43.48323" lon="5.24122">
        <ele>54</ele>
        <time>2022-10-02T07:34:26.000Z</time>
      </trkpt>
      <trkpt lat="43.48322" lon="5.24122">
        <ele>54</ele>
        <time>2022-10-02T07:34:27.000Z</time>
      </trkpt>
      <trkpt lat="43.48321" lon="5.24121">
        <ele>54</ele>
        <time>2022-10-02T07:34:28.000Z</time>
      </trkpt>
      <trkpt lat="43.48319" lon="5.24121">
        <ele>54</ele>
        <time>2022-10-02T07:34:29.000Z</time>
      </trkpt>
      <trkpt lat="43.48318" lon="5.24121">
        <ele>54</ele>
        <time>2022-10-02T07:34:30.000Z</time>
      </trkpt>
      <trkpt lat="43.48316" lon="5.24121">
        <ele>54</ele>
        <time>2022-10-02T07:34:31.000Z</time>
      </trkpt>
      <trkpt lat="43.48314" lon="5.24121">
        <ele>54</ele>
        <time>2022-10-02T07:34:32.000Z</time>
      </trkpt>
      <trkpt lat="43.48312" lon="5.24121">
        <ele>54</ele>
        <time>2022-10-02T07:34:33.000Z</time>
      </trkpt>
      <trkpt lat="43.48311" lon="5.24121">
        <ele>53</ele>
        <time>2022-10-02T07:34:34.000Z</time>
      </trkpt>
      <trkpt lat="43.48309" lon="5.24121">
        <ele>53</ele>
        <time>2022-10-02T07:34:35.000Z</time>
      </trkpt>
      <trkpt lat="43.48308" lon="5.24122">
        <ele>53</ele>
        <time>2022-10-02T07:34:36.000Z</time>
      </trkpt>
      <trkpt lat="43.48306" lon="5.24122">
        <ele>53</ele>
        <time>2022-10-02T07:34:37.000Z</time>
      </trkpt>
      <trkpt lat="43.48304" lon="5.24122">
        <ele>53</ele>
        <time>2022-10-02T07:34:38.000Z</time>
      </trkpt>
      <trkpt lat="43.48302" lon="5.24122">
        <ele>53</ele>
        <time>2022-10-02T07:34:39.000Z</time>
      </trkpt>
      <trkpt lat="43.48301" lon="5.24122">
        <ele>53</ele>
        <time>2022-10-02T07:34:40.000Z</time>
      </trkpt>
      <trkpt lat="43.48299" lon="5.24122">
        <ele>53</ele>
        <time>2022-10-02T07:34:41.000Z</time>
      </trkpt>
      <trkpt lat="43.48298" lon="5.24122">
        <ele>53</ele>
        <time>2022-10-02T07:34:42.000Z</time>
      </trkpt>
      <trkpt lat="43.48297" lon="5.24121">
        <ele>53</ele>
        <time>2022-10-02T07:34:43.000Z</time>
      </trkpt>
      <trkpt lat="43.48295" lon="5.24121">
        <ele>53</ele>
        <time>2022-10-02T07:34:44.000Z</time>
      </trkpt>
      <trkpt lat="43.48294" lon="5.24121">
        <ele>53</ele>
        <time>2022-10-02T07:34:45.000Z</time>
      </trkpt>
      <trkpt lat="43.48292" lon="5.24122">
        <ele>53</ele>
        <time>2022-10-02T07:34:46.000Z</time>
      </trkpt>
      <trkpt lat="43.48291" lon="5.24122">
        <ele>53</ele>
        <time>2022-10-02T07:34:47.000Z</time>
      </trkpt>
      <trkpt lat="43.48289" lon="5.24122">
        <ele>52</ele>
        <time>2022-10-02T07:34:48.000Z</time>
      </trkpt>
      <trkpt lat="43.48287" lon="5.24122">
        <ele>52</ele>
        <time>2022-10-02T07:34:49.000Z</time>
      </trkpt>
      <trkpt lat="43.48285" lon="5.24122">
        <ele>52</ele>
        <time>2022-10-02T07:34:50.000Z</time>
      </trkpt>
      <trkpt lat="43.48284" lon="5.24122">
        <ele>52</ele>
        <time>2022-10-02T07:34:51.000Z</time>
      </trkpt>
      <trkpt lat="43.48282" lon="5.24121">
        <ele>52</ele>
        <time>2022-10-02T07:34:52.000Z</time>
      </trkpt>
      <trkpt lat="43.4828" lon="5.24121">
        <ele>52</ele>
        <time>2022-10-02T07:34:53.000Z</time>
      </trkpt>
      <trkpt lat="43.48279" lon="5.24121">
        <ele>52</ele>
        <time>2022-10-02T07:34:54.000Z</time>
      </trkpt>
      <trkpt lat="43.48277" lon="5.24121">
        <ele>52</ele>
        <time>2022-10-02T07:34:55.000Z</time>
      </trkpt>
      <trkpt lat="43.48275" lon="5.24122">
        <ele>52</ele>
        <time>2022-10-02T07:34:56.000Z</time>
      </trkpt>
      <trkpt lat="43.48273" lon="5.24122">
        <ele>52</ele>
        <time>2022-10-02T07:34:57.000Z</time>
      </trkpt>
      <trkpt lat="43.48271" lon="5.24123">
        <ele>51</ele>
        <time>2022-10-02T07:34:58.000Z</time>
      </trkpt>
      <trkpt lat="43.4827" lon="5.24123">
        <ele>51</ele>
        <time>2022-10-02T07:34:59.000Z</time>
      </trkpt>
      <trkpt lat="43.48268" lon="5.24123">
        <ele>51</ele>
        <time>2022-10-02T07:35:00.000Z</time>
      </trkpt>
      <trkpt lat="43.48266" lon="5.24123">
        <ele>51</ele>
        <time>2022-10-02T07:35:01.000Z</time>
      </trkpt>
      <trkpt lat="43.48264" lon="5.24123">
        <ele>51</ele>
        <time>2022-10-02T07:35:02.000Z</time>
      </trkpt>
      <trkpt lat="43.48262" lon="5.24123">
        <ele>51</ele>
        <time>2022-10-02T07:35:03.000Z</time>
      </trkpt>
      <trkpt lat="43.4826" lon="5.24122">
        <ele>51</ele>
        <time>2022-10-02T07:35:04.000Z</time>
      </trkpt>
      <trkpt lat="43.48259" lon="5.24122">
        <ele>51</ele>
        <time>2022-10-02T07:35:05.000Z</time>
      </trkpt>
      <trkpt lat="43.48257" lon="5.24122">
        <ele>51</ele>
        <time>2022-10-02T07:35:06.000Z</time>
      </trkpt>
      <trkpt lat="43.48255" lon="5.24121">
        <ele>51</ele>
        <time>2022-10-02T07:35:07.000Z</time>
      </trkpt>
      <trkpt lat="43.48254" lon="5.24121">
        <ele>51</ele>
        <time>2022-10-02T07:35:08.000Z</time>
      </trkpt>
      <trkpt lat="43.48252" lon="5.24121">
        <ele>51</ele>
        <time>2022-10-02T07:35:09.000Z</time>
      </trkpt>
      <trkpt lat="43.48251" lon="5.24121">
        <ele>51</ele>
        <time>2022-10-02T07:35:10.000Z</time>
      </trkpt>
      <trkpt lat="43.48249" lon="5.2412">
        <ele>51</ele>
        <time>2022-10-02T07:35:11.000Z</time>
      </trkpt>
      <trkpt lat="43.48247" lon="5.2412">
        <ele>51</ele>
        <time>2022-10-02T07:35:12.000Z</time>
      </trkpt>
      <trkpt lat="43.48246" lon="5.2412">
        <ele>51</ele>
        <time>2022-10-02T07:35:13.000Z</time>
      </trkpt>
      <trkpt lat="43.48244" lon="5.2412">
        <ele>51</ele>
        <time>2022-10-02T07:35:14.000Z</time>
      </trkpt>
      <trkpt lat="43.48243" lon="5.2412">
        <ele>51</ele>
        <time>2022-10-02T07:35:15.000Z</time>
      </trkpt>
      <trkpt lat="43.48241" lon="5.2412">
        <ele>50</ele>
        <time>2022-10-02T07:35:16.000Z</time>
      </trkpt>
      <trkpt lat="43.48239" lon="5.24119">
        <ele>50</ele>
        <time>2022-10-02T07:35:17.000Z</time>
      </trkpt>
      <trkpt lat="43.48238" lon="5.24119">
        <ele>50</ele>
        <time>2022-10-02T07:35:18.000Z</time>
      </trkpt>
      <trkpt lat="43.48236" lon="5.24119">
        <ele>50</ele>
        <time>2022-10-02T07:35:19.000Z</time>
      </trkpt>
      <trkpt lat="43.48235" lon="5.24119">
        <ele>50</ele>
        <time>2022-10-02T07:35:20.000Z</time>
      </trkpt>
      <trkpt lat="43.48234" lon="5.24118">
        <ele>50</ele>
        <time>2022-10-02T07:35:21.000Z</time>
      </trkpt>
      <trkpt lat="43.48232" lon="5.24118">
        <ele>50</ele>
        <time>2022-10-02T07:35:22.000Z</time>
      </trkpt>
      <trkpt lat="43.48231" lon="5.24118">
        <ele>50</ele>
        <time>2022-10-02T07:35:23.000Z</time>
      </trkpt>
      <trkpt lat="43.48229" lon="5.24118">
        <ele>50</ele>
        <time>2022-10-02T07:35:24.000Z</time>
      </trkpt>
      <trkpt lat="43.48227" lon="5.24117">
        <ele>50</ele>
        <time>2022-10-02T07:35:25.000Z</time>
      </trkpt>
      <trkpt lat="43.48226" lon="5.24117">
        <ele>50</ele>
        <time>2022-10-02T07:35:26.000Z</time>
      </trkpt>
      <trkpt lat="43.48224" lon="5.24117">
        <ele>50</ele>
        <time>2022-10-02T07:35:27.000Z</time>
      </trkpt>
      <trkpt lat="43.48222" lon="5.24117">
        <ele>50</ele>
        <time>2022-10-02T07:35:28.000Z</time>
      </trkpt>
      <trkpt lat="43.48221" lon="5.24116">
        <ele>50</ele>
        <time>2022-10-02T07:35:29.000Z</time>
      </trkpt>
      <trkpt lat="43.48219" lon="5.24116">
        <ele>50</ele>
        <time>2022-10-02T07:35:30.000Z</time>
      </trkpt>
      <trkpt lat="43.48217" lon="5.24116">
        <ele>50</ele>
        <time>2022-10-02T07:35:31.000Z</time>
      </trkpt>
      <trkpt lat="43.48216" lon="5.24115">
        <ele>50</ele>
        <time>2022-10-02T07:35:32.000Z</time>
      </trkpt>
      <trkpt lat="43.48214" lon="5.24115">
        <ele>50</ele>
        <time>2022-10-02T07:35:33.000Z</time>
      </trkpt>
      <trkpt lat="43.48213" lon="5.24115">
        <ele>50</ele>
        <time>2022-10-02T07:35:34.000Z</time>
      </trkpt>
      <trkpt lat="43.48212" lon="5.24114">
        <ele>50</ele>
        <time>2022-10-02T07:35:35.000Z</time>
      </trkpt>
      <trkpt lat="43.4821" lon="5.24114">
        <ele>50</ele>
        <time>2022-10-02T07:35:36.000Z</time>
      </trkpt>
      <trkpt lat="43.48209" lon="5.24114">
        <ele>50</ele>
        <time>2022-10-02T07:35:37.000Z</time>
      </trkpt>
      <trkpt lat="43.48207" lon="5.24113">
        <ele>50</ele>
        <time>2022-10-02T07:35:38.000Z</time>
      </trkpt>
      <trkpt lat="43.48206" lon="5.24113">
        <ele>50</ele>
        <time>2022-10-02T07:35:39.000Z</time>
      </trkpt>
      <trkpt lat="43.48204" lon="5.24113">
        <ele>50</ele>
        <time>2022-10-02T07:35:40.000Z</time>
      </trkpt>
      <trkpt lat="43.48202" lon="5.24112">
        <ele>50</ele>
        <time>2022-10-02T07:35:41.000Z</time>
      </trkpt>
      <trkpt lat="43.48201" lon="5.24112">
        <ele>51</ele>
        <time>2022-10-02T07:35:42.000Z</time>
      </trkpt>
      <trkpt lat="43.48199" lon="5.24111">
        <ele>51</ele>
        <time>2022-10-02T07:35:43.000Z</time>
      </trkpt>
      <trkpt lat="43.48198" lon="5.24111">
        <ele>51</ele>
        <time>2022-10-02T07:35:44.000Z</time>
      </trkpt>
      <trkpt lat="43.48196" lon="5.24111">
        <ele>51</ele>
        <time>2022-10-02T07:35:45.000Z</time>
      </trkpt>
      <trkpt lat="43.48194" lon="5.24112">
        <ele>51</ele>
        <time>2022-10-02T07:35:46.000Z</time>
      </trkpt>
      <trkpt lat="43.48193" lon="5.24112">
        <ele>51</ele>
        <time>2022-10-02T07:35:47.000Z</time>
      </trkpt>
      <trkpt lat="43.48191" lon="5.24112">
        <ele>51</ele>
        <time>2022-10-02T07:35:48.000Z</time>
      </trkpt>
      <trkpt lat="43.48189" lon="5.24113">
        <ele>51</ele>
        <time>2022-10-02T07:35:49.000Z</time>
      </trkpt>
      <trkpt lat="43.48188" lon="5.24114">
        <ele>51</ele>
        <time>2022-10-02T07:35:50.000Z</time>
      </trkpt>
      <trkpt lat="43.48187" lon="5.24115">
        <ele>51</ele>
        <time>2022-10-02T07:35:51.000Z</time>
      </trkpt>
      <trkpt lat="43.48186" lon="5.24117">
        <ele>52</ele>
        <time>2022-10-02T07:35:52.000Z</time>
      </trkpt>
      <trkpt lat="43.48185" lon="5.24118">
        <ele>52</ele>
        <time>2022-10-02T07:35:53.000Z</time>
      </trkpt>
      <trkpt lat="43.48184" lon="5.2412">
        <ele>52</ele>
        <time>2022-10-02T07:35:54.000Z</time>
      </trkpt>
      <trkpt lat="43.48184" lon="5.24122">
        <ele>52</ele>
        <time>2022-10-02T07:35:55.000Z</time>
      </trkpt>
      <trkpt lat="43.48183" lon="5.24124">
        <ele>51</ele>
        <time>2022-10-02T07:35:56.000Z</time>
      </trkpt>
      <trkpt lat="43.48183" lon="5.24126">
        <ele>51</ele>
        <time>2022-10-02T07:35:57.000Z</time>
      </trkpt>
      <trkpt lat="43.48183" lon="5.24128">
        <ele>51</ele>
        <time>2022-10-02T07:35:58.000Z</time>
      </trkpt>
      <trkpt lat="43.48183" lon="5.2413">
        <ele>51</ele>
        <time>2022-10-02T07:35:59.000Z</time>
      </trkpt>
      <trkpt lat="43.48182" lon="5.24132">
        <ele>51</ele>
        <time>2022-10-02T07:36:00.000Z</time>
      </trkpt>
      <trkpt lat="43.48182" lon="5.24135">
        <ele>51</ele>
        <time>2022-10-02T07:36:01.000Z</time>
      </trkpt>
      <trkpt lat="43.48182" lon="5.24137">
        <ele>51</ele>
        <time>2022-10-02T07:36:02.000Z</time>
      </trkpt>
      <trkpt lat="43.48182" lon="5.24139">
        <ele>51</ele>
        <time>2022-10-02T07:36:03.000Z</time>
      </trkpt>
      <trkpt lat="43.48182" lon="5.24141">
        <ele>51</ele>
        <time>2022-10-02T07:36:04.000Z</time>
      </trkpt>
      <trkpt lat="43.48182" lon="5.24143">
        <ele>51</ele>
        <time>2022-10-02T07:36:05.000Z</time>
      </trkpt>
      <trkpt lat="43.48182" lon="5.24145">
        <ele>51</ele>
        <time>2022-10-02T07:36:06.000Z</time>
      </trkpt>
      <trkpt lat="43.48182" lon="5.24147">
        <ele>51</ele>
        <time>2022-10-02T07:36:07.000Z</time>
      </trkpt>
      <trkpt lat="43.48182" lon="5.24149">
        <ele>51</ele>
        <time>2022-10-02T07:36:08.000Z</time>
      </trkpt>
      <trkpt lat="43.48182" lon="5.24151">
        <ele>51</ele>
        <time>2022-10-02T07:36:09.000Z</time>
      </trkpt>
      <trkpt lat="43.48182" lon="5.24153">
        <ele>51</ele>
        <time>2022-10-02T07:36:10.000Z</time>
      </trkpt>
      <trkpt lat="43.48182" lon="5.24155">
        <ele>51</ele>
        <time>2022-10-02T07:36:11.000Z</time>
      </trkpt>
      <trkpt lat="43.48182" lon="5.24157">
        <ele>51</ele>
        <time>2022-10-02T07:36:12.000Z</time>
      </trkpt>
      <trkpt lat="43.48182" lon="5.24159">
        <ele>51</ele>
        <time>2022-10-02T07:36:13.000Z</time>
      </trkpt>
      <trkpt lat="43.48183" lon="5.24161">
        <ele>51</ele>
        <time>2022-10-02T07:36:14.000Z</time>
      </trkpt>
      <trkpt lat="43.48183" lon="5.24162">
        <ele>51</ele>
        <time>2022-10-02T07:36:15.000Z</time>
      </trkpt>
      <trkpt lat="43.48183" lon="5.24164">
        <ele>51</ele>
        <time>2022-10-02T07:36:16.000Z</time>
      </trkpt>
      <trkpt lat="43.48183" lon="5.24165">
        <ele>51</ele>
        <time>2022-10-02T07:36:17.000Z</time>
      </trkpt>
      <trkpt lat="43.48183" lon="5.24167">
        <ele>51</ele>
        <time>2022-10-02T07:36:18.000Z</time>
      </trkpt>
      <trkpt lat="43.48183" lon="5.24169">
        <ele>51</ele>
        <time>2022-10-02T07:36:19.000Z</time>
      </trkpt>
      <trkpt lat="43.48183" lon="5.2417">
        <ele>51</ele>
        <time>2022-10-02T07:36:20.000Z</time>
      </trkpt>
      <trkpt lat="43.48183" lon="5.24173">
        <ele>51</ele>
        <time>2022-10-02T07:36:21.000Z</time>
      </trkpt>
      <trkpt lat="43.48183" lon="5.24175">
        <ele>51</ele>
        <time>2022-10-02T07:36:22.000Z</time>
      </trkpt>
      <trkpt lat="43.48183" lon="5.24177">
        <ele>51</ele>
        <time>2022-10-02T07:36:23.000Z</time>
      </trkpt>
      <trkpt lat="43.48183" lon="5.24179">
        <ele>51</ele>
        <time>2022-10-02T07:36:24.000Z</time>
      </trkpt>
      <trkpt lat="43.48183" lon="5.24181">
        <ele>51</ele>
        <time>2022-10-02T07:36:25.000Z</time>
      </trkpt>
      <trkpt lat="43.48183" lon="5.24183">
        <ele>51</ele>
        <time>2022-10-02T07:36:26.000Z</time>
      </trkpt>
      <trkpt lat="43.48183" lon="5.24185">
        <ele>51</ele>
        <time>2022-10-02T07:36:27.000Z</time>
      </trkpt>
      <trkpt lat="43.48183" lon="5.24187">
        <ele>51</ele>
        <time>2022-10-02T07:36:28.000Z</time>
      </trkpt>
      <trkpt lat="43.48183" lon="5.2419">
        <ele>51</ele>
        <time>2022-10-02T07:36:29.000Z</time>
      </trkpt>
      <trkpt lat="43.48183" lon="5.24192">
        <ele>51</ele>
        <time>2022-10-02T07:36:30.000Z</time>
      </trkpt>
      <trkpt lat="43.48183" lon="5.24194">
        <ele>51</ele>
        <time>2022-10-02T07:36:31.000Z</time>
      </trkpt>
      <trkpt lat="43.48182" lon="5.24196">
        <ele>51</ele>
        <time>2022-10-02T07:36:32.000Z</time>
      </trkpt>
      <trkpt lat="43.48182" lon="5.24198">
        <ele>51</ele>
        <time>2022-10-02T07:36:33.000Z</time>
      </trkpt>
      <trkpt lat="43.48182" lon="5.242">
        <ele>51</ele>
        <time>2022-10-02T07:36:34.000Z</time>
      </trkpt>
      <trkpt lat="43.48182" lon="5.24202">
        <ele>51</ele>
        <time>2022-10-02T07:36:35.000Z</time>
      </trkpt>
      <trkpt lat="43.48182" lon="5.24205">
        <ele>51</ele>
        <time>2022-10-02T07:36:36.000Z</time>
      </trkpt>
      <trkpt lat="43.48182" lon="5.24207">
        <ele>51</ele>
        <time>2022-10-02T07:36:37.000Z</time>
      </trkpt>
      <trkpt lat="43.48182" lon="5.24209">
        <ele>51</ele>
        <time>2022-10-02T07:36:38.000Z</time>
      </trkpt>
      <trkpt lat="43.48182" lon="5.24211">
        <ele>52</ele>
        <time>2022-10-02T07:36:39.000Z</time>
      </trkpt>
      <trkpt lat="43.48182" lon="5.24213">
        <ele>52</ele>
        <time>2022-10-02T07:36:40.000Z</time>
      </trkpt>
      <trkpt lat="43.48182" lon="5.24216">
        <ele>52</ele>
        <time>2022-10-02T07:36:41.000Z</time>
      </trkpt>
      <trkpt lat="43.48182" lon="5.24217">
        <ele>52</ele>
        <time>2022-10-02T07:36:42.000Z</time>
      </trkpt>
      <trkpt lat="43.48182" lon="5.2422">
        <ele>52</ele>
        <time>2022-10-02T07:36:43.000Z</time>
      </trkpt>
      <trkpt lat="43.48182" lon="5.24222">
        <ele>52</ele>
        <time>2022-10-02T07:36:44.000Z</time>
      </trkpt>
      <trkpt lat="43.48181" lon="5.24224">
        <ele>52</ele>
        <time>2022-10-02T07:36:45.000Z</time>
      </trkpt>
      <trkpt lat="43.48181" lon="5.24226">
        <ele>53</ele>
        <time>2022-10-02T07:36:46.000Z</time>
      </trkpt>
      <trkpt lat="43.48181" lon="5.24228">
        <ele>53</ele>
        <time>2022-10-02T07:36:47.000Z</time>
      </trkpt>
      <trkpt lat="43.48181" lon="5.2423">
        <ele>53</ele>
        <time>2022-10-02T07:36:48.000Z</time>
      </trkpt>
      <trkpt lat="43.48181" lon="5.24232">
        <ele>53</ele>
        <time>2022-10-02T07:36:49.000Z</time>
      </trkpt>
      <trkpt lat="43.48181" lon="5.24234">
        <ele>53</ele>
        <time>2022-10-02T07:36:50.000Z</time>
      </trkpt>
      <trkpt lat="43.48181" lon="5.24236">
        <ele>53</ele>
        <time>2022-10-02T07:36:51.000Z</time>
      </trkpt>
      <trkpt lat="43.48181" lon="5.24238">
        <ele>53</ele>
        <time>2022-10-02T07:36:52.000Z</time>
      </trkpt>
      <trkpt lat="43.48181" lon="5.2424">
        <ele>53</ele>
        <time>2022-10-02T07:36:53.000Z</time>
      </trkpt>
      <trkpt lat="43.48181" lon="5.24242">
        <ele>53</ele>
        <time>2022-10-02T07:36:54.000Z</time>
      </trkpt>
      <trkpt lat="43.48181" lon="5.24244">
        <ele>53</ele>
        <time>2022-10-02T07:36:55.000Z</time>
      </trkpt>
      <trkpt lat="43.4818" lon="5.24246">
        <ele>53</ele>
        <time>2022-10-02T07:36:56.000Z</time>
      </trkpt>
      <trkpt lat="43.4818" lon="5.24249">
        <ele>53</ele>
        <time>2022-10-02T07:36:57.000Z</time>
      </trkpt>
      <trkpt lat="43.4818" lon="5.24251">
        <ele>53</ele>
        <time>2022-10-02T07:36:58.000Z</time>
      </trkpt>
      <trkpt lat="43.4818" lon="5.24253">
        <ele>53</ele>
        <time>2022-10-02T07:36:59.000Z</time>
      </trkpt>
      <trkpt lat="43.4818" lon="5.24256">
        <ele>53</ele>
        <time>2022-10-02T07:37:00.000Z</time>
      </trkpt>
      <trkpt lat="43.48179" lon="5.24258">
        <ele>53</ele>
        <time>2022-10-02T07:37:01.000Z</time>
      </trkpt>
      <trkpt lat="43.48179" lon="5.2426">
        <ele>53</ele>
        <time>2022-10-02T07:37:02.000Z</time>
      </trkpt>
      <trkpt lat="43.48179" lon="5.24263">
        <ele>54</ele>
        <time>2022-10-02T07:37:03.000Z</time>
      </trkpt>
      <trkpt lat="43.48179" lon="5.24265">
        <ele>54</ele>
        <time>2022-10-02T07:37:04.000Z</time>
      </trkpt>
      <trkpt lat="43.48179" lon="5.24267">
        <ele>54</ele>
        <time>2022-10-02T07:37:05.000Z</time>
      </trkpt>
      <trkpt lat="43.48179" lon="5.2427">
        <ele>54</ele>
        <time>2022-10-02T07:37:06.000Z</time>
      </trkpt>
      <trkpt lat="43.48179" lon="5.24272">
        <ele>54</ele>
        <time>2022-10-02T07:37:07.000Z</time>
      </trkpt>
      <trkpt lat="43.48179" lon="5.24274">
        <ele>54</ele>
        <time>2022-10-02T07:37:08.000Z</time>
      </trkpt>
      <trkpt lat="43.48179" lon="5.24276">
        <ele>54</ele>
        <time>2022-10-02T07:37:09.000Z</time>
      </trkpt>
      <trkpt lat="43.48179" lon="5.24278">
        <ele>54</ele>
        <time>2022-10-02T07:37:10.000Z</time>
      </trkpt>
      <trkpt lat="43.48178" lon="5.2428">
        <ele>54</ele>
        <time>2022-10-02T07:37:11.000Z</time>
      </trkpt>
      <trkpt lat="43.48178" lon="5.24282">
        <ele>54</ele>
        <time>2022-10-02T07:37:12.000Z</time>
      </trkpt>
      <trkpt lat="43.48178" lon="5.24284">
        <ele>54</ele>
        <time>2022-10-02T07:37:13.000Z</time>
      </trkpt>
      <trkpt lat="43.48178" lon="5.24287">
        <ele>55</ele>
        <time>2022-10-02T07:37:14.000Z</time>
      </trkpt>
      <trkpt lat="43.48178" lon="5.24289">
        <ele>55</ele>
        <time>2022-10-02T07:37:15.000Z</time>
      </trkpt>
      <trkpt lat="43.48178" lon="5.24291">
        <ele>55</ele>
        <time>2022-10-02T07:37:16.000Z</time>
      </trkpt>
      <trkpt lat="43.48178" lon="5.24294">
        <ele>55</ele>
        <time>2022-10-02T07:37:17.000Z</time>
      </trkpt>
      <trkpt lat="43.48178" lon="5.24296">
        <ele>55</ele>
        <time>2022-10-02T07:37:18.000Z</time>
      </trkpt>
      <trkpt lat="43.48178" lon="5.24298">
        <ele>55</ele>
        <time>2022-10-02T07:37:19.000Z</time>
      </trkpt>
      <trkpt lat="43.48177" lon="5.243">
        <ele>55</ele>
        <time>2022-10-02T07:37:20.000Z</time>
      </trkpt>
      <trkpt lat="43.48177" lon="5.24302">
        <ele>56</ele>
        <time>2022-10-02T07:37:21.000Z</time>
      </trkpt>
      <trkpt lat="43.48177" lon="5.24304">
        <ele>56</ele>
        <time>2022-10-02T07:37:22.000Z</time>
      </trkpt>
      <trkpt lat="43.48176" lon="5.24306">
        <ele>56</ele>
        <time>2022-10-02T07:37:23.000Z</time>
      </trkpt>
      <trkpt lat="43.48176" lon="5.24308">
        <ele>56</ele>
        <time>2022-10-02T07:37:24.000Z</time>
      </trkpt>
      <trkpt lat="43.48176" lon="5.2431">
        <ele>56</ele>
        <time>2022-10-02T07:37:25.000Z</time>
      </trkpt>
      <trkpt lat="43.48176" lon="5.24312">
        <ele>56</ele>
        <time>2022-10-02T07:37:26.000Z</time>
      </trkpt>
      <trkpt lat="43.48176" lon="5.24314">
        <ele>56</ele>
        <time>2022-10-02T07:37:27.000Z</time>
      </trkpt>
      <trkpt lat="43.48176" lon="5.24316">
        <ele>56</ele>
        <time>2022-10-02T07:37:28.000Z</time>
      </trkpt>
      <trkpt lat="43.48175" lon="5.24318">
        <ele>56</ele>
        <time>2022-10-02T07:37:29.000Z</time>
      </trkpt>
      <trkpt lat="43.48175" lon="5.2432">
        <ele>56</ele>
        <time>2022-10-02T07:37:30.000Z</time>
      </trkpt>
      <trkpt lat="43.48175" lon="5.24322">
        <ele>56</ele>
        <time>2022-10-02T07:37:31.000Z</time>
      </trkpt>
      <trkpt lat="43.48175" lon="5.24324">
        <ele>57</ele>
        <time>2022-10-02T07:37:32.000Z</time>
      </trkpt>
      <trkpt lat="43.48174" lon="5.24326">
        <ele>57</ele>
        <time>2022-10-02T07:37:33.000Z</time>
      </trkpt>
      <trkpt lat="43.48174" lon="5.24328">
        <ele>57</ele>
        <time>2022-10-02T07:37:34.000Z</time>
      </trkpt>
      <trkpt lat="43.48174" lon="5.2433">
        <ele>57</ele>
        <time>2022-10-02T07:37:35.000Z</time>
      </trkpt>
      <trkpt lat="43.48174" lon="5.24332">
        <ele>57</ele>
        <time>2022-10-02T07:37:36.000Z</time>
      </trkpt>
      <trkpt lat="43.48173" lon="5.24334">
        <ele>57</ele>
        <time>2022-10-02T07:37:37.000Z</time>
      </trkpt>
      <trkpt lat="43.48173" lon="5.24336">
        <ele>58</ele>
        <time>2022-10-02T07:37:38.000Z</time>
      </trkpt>
      <trkpt lat="43.48173" lon="5.24338">
        <ele>58</ele>
        <time>2022-10-02T07:37:39.000Z</time>
      </trkpt>
      <trkpt lat="43.48173" lon="5.24341">
        <ele>58</ele>
        <time>2022-10-02T07:37:40.000Z</time>
      </trkpt>
      <trkpt lat="43.48172" lon="5.24343">
        <ele>58</ele>
        <time>2022-10-02T07:37:41.000Z</time>
      </trkpt>
      <trkpt lat="43.48172" lon="5.24345">
        <ele>58</ele>
        <time>2022-10-02T07:37:42.000Z</time>
      </trkpt>
      <trkpt lat="43.48172" lon="5.24347">
        <ele>58</ele>
        <time>2022-10-02T07:37:43.000Z</time>
      </trkpt>
      <trkpt lat="43.48172" lon="5.24349">
        <ele>58</ele>
        <time>2022-10-02T07:37:44.000Z</time>
      </trkpt>
      <trkpt lat="43.48172" lon="5.24351">
        <ele>58</ele>
        <time>2022-10-02T07:37:45.000Z</time>
      </trkpt>
      <trkpt lat="43.48171" lon="5.24353">
        <ele>59</ele>
        <time>2022-10-02T07:37:46.000Z</time>
      </trkpt>
      <trkpt lat="43.48171" lon="5.24355">
        <ele>59</ele>
        <time>2022-10-02T07:37:47.000Z</time>
      </trkpt>
      <trkpt lat="43.48171" lon="5.24357">
        <ele>59</ele>
        <time>2022-10-02T07:37:48.000Z</time>
      </trkpt>
      <trkpt lat="43.48171" lon="5.24359">
        <ele>59</ele>
        <time>2022-10-02T07:37:49.000Z</time>
      </trkpt>
      <trkpt lat="43.48171" lon="5.24361">
        <ele>59</ele>
        <time>2022-10-02T07:37:50.000Z</time>
      </trkpt>
      <trkpt lat="43.48171" lon="5.24363">
        <ele>59</ele>
        <time>2022-10-02T07:37:51.000Z</time>
      </trkpt>
      <trkpt lat="43.4817" lon="5.24365">
        <ele>59</ele>
        <time>2022-10-02T07:37:52.000Z</time>
      </trkpt>
      <trkpt lat="43.4817" lon="5.24367">
        <ele>59</ele>
        <time>2022-10-02T07:37:53.000Z</time>
      </trkpt>
      <trkpt lat="43.4817" lon="5.24369">
        <ele>60</ele>
        <time>2022-10-02T07:37:54.000Z</time>
      </trkpt>
      <trkpt lat="43.4817" lon="5.24372">
        <ele>60</ele>
        <time>2022-10-02T07:37:55.000Z</time>
      </trkpt>
      <trkpt lat="43.4817" lon="5.24374">
        <ele>60</ele>
        <time>2022-10-02T07:37:56.000Z</time>
      </trkpt>
      <trkpt lat="43.4817" lon="5.24376">
        <ele>60</ele>
        <time>2022-10-02T07:37:57.000Z</time>
      </trkpt>
      <trkpt lat="43.48169" lon="5.24378">
        <ele>60</ele>
        <time>2022-10-02T07:37:58.000Z</time>
      </trkpt>
      <trkpt lat="43.48169" lon="5.2438">
        <ele>60</ele>
        <time>2022-10-02T07:37:59.000Z</time>
      </trkpt>
      <trkpt lat="43.48169" lon="5.24382">
        <ele>60</ele>
        <time>2022-10-02T07:38:00.000Z</time>
      </trkpt>
      <trkpt lat="43.48168" lon="5.24384">
        <ele>60</ele>
        <time>2022-10-02T07:38:01.000Z</time>
      </trkpt>
      <trkpt lat="43.48168" lon="5.24386">
        <ele>60</ele>
        <time>2022-10-02T07:38:02.000Z</time>
      </trkpt>
      <trkpt lat="43.48167" lon="5.24387">
        <ele>60</ele>
        <time>2022-10-02T07:38:03.000Z</time>
      </trkpt>
      <trkpt lat="43.48166" lon="5.24388">
        <ele>60</ele>
        <time>2022-10-02T07:38:04.000Z</time>
      </trkpt>
      <trkpt lat="43.48165" lon="5.2439">
        <ele>60</ele>
        <time>2022-10-02T07:38:05.000Z</time>
      </trkpt>
      <trkpt lat="43.48164" lon="5.24391">
        <ele>60</ele>
        <time>2022-10-02T07:38:06.000Z</time>
      </trkpt>
      <trkpt lat="43.48163" lon="5.24393">
        <ele>60</ele>
        <time>2022-10-02T07:38:07.000Z</time>
      </trkpt>
      <trkpt lat="43.48162" lon="5.24394">
        <ele>60</ele>
        <time>2022-10-02T07:38:08.000Z</time>
      </trkpt>
      <trkpt lat="43.48161" lon="5.24395">
        <ele>61</ele>
        <time>2022-10-02T07:38:09.000Z</time>
      </trkpt>
      <trkpt lat="43.4816" lon="5.24396">
        <ele>61</ele>
        <time>2022-10-02T07:38:10.000Z</time>
      </trkpt>
      <trkpt lat="43.4816" lon="5.24397">
        <ele>61</ele>
        <time>2022-10-02T07:38:11.000Z</time>
      </trkpt>
      <trkpt lat="43.48159" lon="5.24399">
        <ele>61</ele>
        <time>2022-10-02T07:38:12.000Z</time>
      </trkpt>
      <trkpt lat="43.48158" lon="5.244">
        <ele>61</ele>
        <time>2022-10-02T07:38:13.000Z</time>
      </trkpt>
      <trkpt lat="43.48157" lon="5.24402">
        <ele>61</ele>
        <time>2022-10-02T07:38:14.000Z</time>
      </trkpt>
      <trkpt lat="43.48156" lon="5.24404">
        <ele>61</ele>
        <time>2022-10-02T07:38:15.000Z</time>
      </trkpt>
      <trkpt lat="43.48156" lon="5.24405">
        <ele>61</ele>
        <time>2022-10-02T07:38:16.000Z</time>
      </trkpt>
      <trkpt lat="43.48155" lon="5.24407">
        <ele>61</ele>
        <time>2022-10-02T07:38:17.000Z</time>
      </trkpt>
      <trkpt lat="43.48154" lon="5.24409">
        <ele>61</ele>
        <time>2022-10-02T07:38:18.000Z</time>
      </trkpt>
      <trkpt lat="43.48153" lon="5.2441">
        <ele>61</ele>
        <time>2022-10-02T07:38:19.000Z</time>
      </trkpt>
      <trkpt lat="43.48152" lon="5.24412">
        <ele>62</ele>
        <time>2022-10-02T07:38:20.000Z</time>
      </trkpt>
      <trkpt lat="43.48151" lon="5.24414">
        <ele>62</ele>
        <time>2022-10-02T07:38:21.000Z</time>
      </trkpt>
      <trkpt lat="43.48151" lon="5.24416">
        <ele>62</ele>
        <time>2022-10-02T07:38:22.000Z</time>
      </trkpt>
      <trkpt lat="43.4815" lon="5.24417">
        <ele>62</ele>
        <time>2022-10-02T07:38:23.000Z</time>
      </trkpt>
      <trkpt lat="43.4815" lon="5.24419">
        <ele>62</ele>
        <time>2022-10-02T07:38:24.000Z</time>
      </trkpt>
      <trkpt lat="43.48149" lon="5.24421">
        <ele>62</ele>
        <time>2022-10-02T07:38:25.000Z</time>
      </trkpt>
      <trkpt lat="43.48148" lon="5.24423">
        <ele>62</ele>
        <time>2022-10-02T07:38:26.000Z</time>
      </trkpt>
      <trkpt lat="43.48148" lon="5.24425">
        <ele>62</ele>
        <time>2022-10-02T07:38:27.000Z</time>
      </trkpt>
      <trkpt lat="43.48147" lon="5.24427">
        <ele>62</ele>
        <time>2022-10-02T07:38:28.000Z</time>
      </trkpt>
      <trkpt lat="43.48146" lon="5.24429">
        <ele>62</ele>
        <time>2022-10-02T07:38:29.000Z</time>
      </trkpt>
      <trkpt lat="43.48146" lon="5.24431">
        <ele>62</ele>
        <time>2022-10-02T07:38:30.000Z</time>
      </trkpt>
      <trkpt lat="43.48145" lon="5.24433">
        <ele>62</ele>
        <time>2022-10-02T07:38:31.000Z</time>
      </trkpt>
      <trkpt lat="43.48145" lon="5.24435">
        <ele>62</ele>
        <time>2022-10-02T07:38:32.000Z</time>
      </trkpt>
      <trkpt lat="43.48144" lon="5.24437">
        <ele>62</ele>
        <time>2022-10-02T07:38:33.000Z</time>
      </trkpt>
      <trkpt lat="43.48143" lon="5.24439">
        <ele>62</ele>
        <time>2022-10-02T07:38:34.000Z</time>
      </trkpt>
      <trkpt lat="43.48143" lon="5.24441">
        <ele>62</ele>
        <time>2022-10-02T07:38:35.000Z</time>
      </trkpt>
      <trkpt lat="43.48142" lon="5.24443">
        <ele>62</ele>
        <time>2022-10-02T07:38:36.000Z</time>
      </trkpt>
      <trkpt lat="43.48142" lon="5.24445">
        <ele>62</ele>
        <time>2022-10-02T07:38:37.000Z</time>
      </trkpt>
      <trkpt lat="43.48142" lon="5.24447">
        <ele>62</ele>
        <time>2022-10-02T07:38:38.000Z</time>
      </trkpt>
      <trkpt lat="43.48142" lon="5.24449">
        <ele>62</ele>
        <time>2022-10-02T07:38:39.000Z</time>
      </trkpt>
      <trkpt lat="43.48142" lon="5.24451">
        <ele>62</ele>
        <time>2022-10-02T07:38:40.000Z</time>
      </trkpt>
      <trkpt lat="43.48141" lon="5.24453">
        <ele>62</ele>
        <time>2022-10-02T07:38:41.000Z</time>
      </trkpt>
      <trkpt lat="43.48141" lon="5.24455">
        <ele>62</ele>
        <time>2022-10-02T07:38:42.000Z</time>
      </trkpt>
      <trkpt lat="43.48141" lon="5.24457">
        <ele>61</ele>
        <time>2022-10-02T07:38:43.000Z</time>
      </trkpt>
      <trkpt lat="43.48141" lon="5.24459">
        <ele>61</ele>
        <time>2022-10-02T07:38:44.000Z</time>
      </trkpt>
      <trkpt lat="43.4814" lon="5.24461">
        <ele>61</ele>
        <time>2022-10-02T07:38:45.000Z</time>
      </trkpt>
      <trkpt lat="43.4814" lon="5.24463">
        <ele>61</ele>
        <time>2022-10-02T07:38:46.000Z</time>
      </trkpt>
      <trkpt lat="43.4814" lon="5.24465">
        <ele>61</ele>
        <time>2022-10-02T07:38:47.000Z</time>
      </trkpt>
      <trkpt lat="43.48139" lon="5.24467">
        <ele>61</ele>
        <time>2022-10-02T07:38:48.000Z</time>
      </trkpt>
      <trkpt lat="43.48139" lon="5.24468">
        <ele>61</ele>
        <time>2022-10-02T07:38:49.000Z</time>
      </trkpt>
      <trkpt lat="43.48138" lon="5.2447">
        <ele>61</ele>
        <time>2022-10-02T07:38:50.000Z</time>
      </trkpt>
      <trkpt lat="43.48138" lon="5.24472">
        <ele>61</ele>
        <time>2022-10-02T07:38:51.000Z</time>
      </trkpt>
      <trkpt lat="43.48137" lon="5.24474">
        <ele>61</ele>
        <time>2022-10-02T07:38:52.000Z</time>
      </trkpt>
      <trkpt lat="43.48137" lon="5.24477">
        <ele>62</ele>
        <time>2022-10-02T07:38:53.000Z</time>
      </trkpt>
      <trkpt lat="43.48136" lon="5.24479">
        <ele>62</ele>
        <time>2022-10-02T07:38:54.000Z</time>
      </trkpt>
      <trkpt lat="43.48136" lon="5.2448">
        <ele>62</ele>
        <time>2022-10-02T07:38:55.000Z</time>
      </trkpt>
      <trkpt lat="43.48136" lon="5.24483">
        <ele>62</ele>
        <time>2022-10-02T07:38:56.000Z</time>
      </trkpt>
      <trkpt lat="43.48135" lon="5.24484">
        <ele>62</ele>
        <time>2022-10-02T07:38:57.000Z</time>
      </trkpt>
      <trkpt lat="43.48135" lon="5.24486">
        <ele>62</ele>
        <time>2022-10-02T07:38:58.000Z</time>
      </trkpt>
      <trkpt lat="43.48135" lon="5.24487">
        <ele>62</ele>
        <time>2022-10-02T07:38:59.000Z</time>
      </trkpt>
      <trkpt lat="43.48135" lon="5.24489">
        <ele>62</ele>
        <time>2022-10-02T07:39:00.000Z</time>
      </trkpt>
      <trkpt lat="43.48134" lon="5.2449">
        <ele>63</ele>
        <time>2022-10-02T07:39:01.000Z</time>
      </trkpt>
      <trkpt lat="43.48134" lon="5.24491">
        <ele>63</ele>
        <time>2022-10-02T07:39:02.000Z</time>
      </trkpt>
      <trkpt lat="43.48133" lon="5.24492">
        <ele>63</ele>
        <time>2022-10-02T07:39:03.000Z</time>
      </trkpt>
      <trkpt lat="43.48133" lon="5.24493">
        <ele>63</ele>
        <time>2022-10-02T07:39:04.000Z</time>
      </trkpt>
      <trkpt lat="43.48133" lon="5.24495">
        <ele>63</ele>
        <time>2022-10-02T07:39:05.000Z</time>
      </trkpt>
      <trkpt lat="43.48133" lon="5.24496">
        <ele>63</ele>
        <time>2022-10-02T07:39:06.000Z</time>
      </trkpt>
      <trkpt lat="43.48133" lon="5.24498">
        <ele>63</ele>
        <time>2022-10-02T07:39:07.000Z</time>
      </trkpt>
      <trkpt lat="43.48133" lon="5.24499">
        <ele>63</ele>
        <time>2022-10-02T07:39:08.000Z</time>
      </trkpt>
      <trkpt lat="43.48133" lon="5.245">
        <ele>64</ele>
        <time>2022-10-02T07:39:09.000Z</time>
      </trkpt>
      <trkpt lat="43.48133" lon="5.24502">
        <ele>64</ele>
        <time>2022-10-02T07:39:10.000Z</time>
      </trkpt>
      <trkpt lat="43.48133" lon="5.24504">
        <ele>64</ele>
        <time>2022-10-02T07:39:11.000Z</time>
      </trkpt>
      <trkpt lat="43.48133" lon="5.24506">
        <ele>64</ele>
        <time>2022-10-02T07:39:12.000Z</time>
      </trkpt>
      <trkpt lat="43.48134" lon="5.24508">
        <ele>64</ele>
        <time>2022-10-02T07:39:13.000Z</time>
      </trkpt>
      <trkpt lat="43.48134" lon="5.2451">
        <ele>64</ele>
        <time>2022-10-02T07:39:14.000Z</time>
      </trkpt>
      <trkpt lat="43.48134" lon="5.24512">
        <ele>64</ele>
        <time>2022-10-02T07:39:15.000Z</time>
      </trkpt>
      <trkpt lat="43.48134" lon="5.24514">
        <ele>64</ele>
        <time>2022-10-02T07:39:16.000Z</time>
      </trkpt>
      <trkpt lat="43.48134" lon="5.24515">
        <ele>64</ele>
        <time>2022-10-02T07:39:17.000Z</time>
      </trkpt>
      <trkpt lat="43.48134" lon="5.24517">
        <ele>64</ele>
        <time>2022-10-02T07:39:18.000Z</time>
      </trkpt>
      <trkpt lat="43.48134" lon="5.24519">
        <ele>64</ele>
        <time>2022-10-02T07:39:19.000Z</time>
      </trkpt>
      <trkpt lat="43.48134" lon="5.24521">
        <ele>64</ele>
        <time>2022-10-02T07:39:20.000Z</time>
      </trkpt>
      <trkpt lat="43.48134" lon="5.24523">
        <ele>64</ele>
        <time>2022-10-02T07:39:21.000Z</time>
      </trkpt>
      <trkpt lat="43.48134" lon="5.24525">
        <ele>64</ele>
        <time>2022-10-02T07:39:22.000Z</time>
      </trkpt>
      <trkpt lat="43.48134" lon="5.24527">
        <ele>64</ele>
        <time>2022-10-02T07:39:23.000Z</time>
      </trkpt>
      <trkpt lat="43.48134" lon="5.24529">
        <ele>64</ele>
        <time>2022-10-02T07:39:24.000Z</time>
      </trkpt>
      <trkpt lat="43.48134" lon="5.24531">
        <ele>64</ele>
        <time>2022-10-02T07:39:25.000Z</time>
      </trkpt>
      <trkpt lat="43.48134" lon="5.24533">
        <ele>64</ele>
        <time>2022-10-02T07:39:26.000Z</time>
      </trkpt>
      <trkpt lat="43.48134" lon="5.24535">
        <ele>64</ele>
        <time>2022-10-02T07:39:27.000Z</time>
      </trkpt>
      <trkpt lat="43.48134" lon="5.24537">
        <ele>64</ele>
        <time>2022-10-02T07:39:28.000Z</time>
      </trkpt>
      <trkpt lat="43.48133" lon="5.24538">
        <ele>64</ele>
        <time>2022-10-02T07:39:29.000Z</time>
      </trkpt>
      <trkpt lat="43.48134" lon="5.2454">
        <ele>64</ele>
        <time>2022-10-02T07:39:30.000Z</time>
      </trkpt>
      <trkpt lat="43.48134" lon="5.24542">
        <ele>64</ele>
        <time>2022-10-02T07:39:31.000Z</time>
      </trkpt>
      <trkpt lat="43.48134" lon="5.24543">
        <ele>64</ele>
        <time>2022-10-02T07:39:32.000Z</time>
      </trkpt>
      <trkpt lat="43.48134" lon="5.24545">
        <ele>64</ele>
        <time>2022-10-02T07:39:33.000Z</time>
      </trkpt>
      <trkpt lat="43.48134" lon="5.24547">
        <ele>64</ele>
        <time>2022-10-02T07:39:34.000Z</time>
      </trkpt>
      <trkpt lat="43.48134" lon="5.24549">
        <ele>64</ele>
        <time>2022-10-02T07:39:35.000Z</time>
      </trkpt>
      <trkpt lat="43.48133" lon="5.24551">
        <ele>65</ele>
        <time>2022-10-02T07:39:36.000Z</time>
      </trkpt>
      <trkpt lat="43.48133" lon="5.24553">
        <ele>64</ele>
        <time>2022-10-02T07:39:37.000Z</time>
      </trkpt>
      <trkpt lat="43.48132" lon="5.24555">
        <ele>64</ele>
        <time>2022-10-02T07:39:38.000Z</time>
      </trkpt>
      <trkpt lat="43.48131" lon="5.24556">
        <ele>64</ele>
        <time>2022-10-02T07:39:39.000Z</time>
      </trkpt>
      <trkpt lat="43.4813" lon="5.24558">
        <ele>64</ele>
        <time>2022-10-02T07:39:40.000Z</time>
      </trkpt>
      <trkpt lat="43.48129" lon="5.2456">
        <ele>65</ele>
        <time>2022-10-02T07:39:41.000Z</time>
      </trkpt>
      <trkpt lat="43.48128" lon="5.24562">
        <ele>65</ele>
        <time>2022-10-02T07:39:42.000Z</time>
      </trkpt>
      <trkpt lat="43.48128" lon="5.24564">
        <ele>65</ele>
        <time>2022-10-02T07:39:43.000Z</time>
      </trkpt>
      <trkpt lat="43.48127" lon="5.24566">
        <ele>65</ele>
        <time>2022-10-02T07:39:44.000Z</time>
      </trkpt>
      <trkpt lat="43.48126" lon="5.24567">
        <ele>65</ele>
        <time>2022-10-02T07:39:45.000Z</time>
      </trkpt>
      <trkpt lat="43.48126" lon="5.24568">
        <ele>65</ele>
        <time>2022-10-02T07:39:46.000Z</time>
      </trkpt>
      <trkpt lat="43.48125" lon="5.24569">
        <ele>65</ele>
        <time>2022-10-02T07:39:47.000Z</time>
      </trkpt>
      <trkpt lat="43.48124" lon="5.24571">
        <ele>65</ele>
        <time>2022-10-02T07:39:48.000Z</time>
      </trkpt>
      <trkpt lat="43.48124" lon="5.24573">
        <ele>65</ele>
        <time>2022-10-02T07:39:49.000Z</time>
      </trkpt>
      <trkpt lat="43.48123" lon="5.24575">
        <ele>65</ele>
        <time>2022-10-02T07:39:50.000Z</time>
      </trkpt>
      <trkpt lat="43.48122" lon="5.24576">
        <ele>66</ele>
        <time>2022-10-02T07:39:51.000Z</time>
      </trkpt>
      <trkpt lat="43.48122" lon="5.24578">
        <ele>66</ele>
        <time>2022-10-02T07:39:52.000Z</time>
      </trkpt>
      <trkpt lat="43.48121" lon="5.2458">
        <ele>66</ele>
        <time>2022-10-02T07:39:53.000Z</time>
      </trkpt>
      <trkpt lat="43.48121" lon="5.24582">
        <ele>66</ele>
        <time>2022-10-02T07:39:54.000Z</time>
      </trkpt>
      <trkpt lat="43.4812" lon="5.24584">
        <ele>66</ele>
        <time>2022-10-02T07:39:55.000Z</time>
      </trkpt>
      <trkpt lat="43.48119" lon="5.24586">
        <ele>66</ele>
        <time>2022-10-02T07:39:56.000Z</time>
      </trkpt>
      <trkpt lat="43.48119" lon="5.24588">
        <ele>66</ele>
        <time>2022-10-02T07:39:57.000Z</time>
      </trkpt>
      <trkpt lat="43.48118" lon="5.2459">
        <ele>67</ele>
        <time>2022-10-02T07:39:58.000Z</time>
      </trkpt>
      <trkpt lat="43.48117" lon="5.24592">
        <ele>67</ele>
        <time>2022-10-02T07:39:59.000Z</time>
      </trkpt>
      <trkpt lat="43.48117" lon="5.24594">
        <ele>67</ele>
        <time>2022-10-02T07:40:00.000Z</time>
      </trkpt>
      <trkpt lat="43.48116" lon="5.24596">
        <ele>67</ele>
        <time>2022-10-02T07:40:01.000Z</time>
      </trkpt>
      <trkpt lat="43.48115" lon="5.24598">
        <ele>67</ele>
        <time>2022-10-02T07:40:02.000Z</time>
      </trkpt>
      <trkpt lat="43.48115" lon="5.246">
        <ele>67</ele>
        <time>2022-10-02T07:40:03.000Z</time>
      </trkpt>
      <trkpt lat="43.48114" lon="5.24602">
        <ele>67</ele>
        <time>2022-10-02T07:40:04.000Z</time>
      </trkpt>
      <trkpt lat="43.48114" lon="5.24604">
        <ele>67</ele>
        <time>2022-10-02T07:40:05.000Z</time>
      </trkpt>
      <trkpt lat="43.48113" lon="5.24606">
        <ele>67</ele>
        <time>2022-10-02T07:40:06.000Z</time>
      </trkpt>
      <trkpt lat="43.48112" lon="5.24608">
        <ele>67</ele>
        <time>2022-10-02T07:40:07.000Z</time>
      </trkpt>
      <trkpt lat="43.48112" lon="5.2461">
        <ele>67</ele>
        <time>2022-10-02T07:40:08.000Z</time>
      </trkpt>
      <trkpt lat="43.48111" lon="5.24612">
        <ele>67</ele>
        <time>2022-10-02T07:40:09.000Z</time>
      </trkpt>
      <trkpt lat="43.48111" lon="5.24614">
        <ele>67</ele>
        <time>2022-10-02T07:40:10.000Z</time>
      </trkpt>
      <trkpt lat="43.48111" lon="5.24616">
        <ele>67</ele>
        <time>2022-10-02T07:40:11.000Z</time>
      </trkpt>
      <trkpt lat="43.48111" lon="5.24618">
        <ele>68</ele>
        <time>2022-10-02T07:40:12.000Z</time>
      </trkpt>
      <trkpt lat="43.4811" lon="5.2462">
        <ele>68</ele>
        <time>2022-10-02T07:40:13.000Z</time>
      </trkpt>
      <trkpt lat="43.4811" lon="5.24622">
        <ele>68</ele>
        <time>2022-10-02T07:40:14.000Z</time>
      </trkpt>
      <trkpt lat="43.48109" lon="5.24624">
        <ele>68</ele>
        <time>2022-10-02T07:40:15.000Z</time>
      </trkpt>
      <trkpt lat="43.48109" lon="5.24625">
        <ele>68</ele>
        <time>2022-10-02T07:40:16.000Z</time>
      </trkpt>
      <trkpt lat="43.48108" lon="5.24627">
        <ele>68</ele>
        <time>2022-10-02T07:40:17.000Z</time>
      </trkpt>
      <trkpt lat="43.48108" lon="5.24629">
        <ele>68</ele>
        <time>2022-10-02T07:40:18.000Z</time>
      </trkpt>
      <trkpt lat="43.48107" lon="5.24631">
        <ele>68</ele>
        <time>2022-10-02T07:40:19.000Z</time>
      </trkpt>
      <trkpt lat="43.48107" lon="5.24633">
        <ele>68</ele>
        <time>2022-10-02T07:40:20.000Z</time>
      </trkpt>
      <trkpt lat="43.48106" lon="5.24635">
        <ele>68</ele>
        <time>2022-10-02T07:40:21.000Z</time>
      </trkpt>
      <trkpt lat="43.48105" lon="5.24636">
        <ele>68</ele>
        <time>2022-10-02T07:40:22.000Z</time>
      </trkpt>
      <trkpt lat="43.48105" lon="5.24638">
        <ele>68</ele>
        <time>2022-10-02T07:40:23.000Z</time>
      </trkpt>
      <trkpt lat="43.48105" lon="5.2464">
        <ele>68</ele>
        <time>2022-10-02T07:40:24.000Z</time>
      </trkpt>
      <trkpt lat="43.48104" lon="5.24642">
        <ele>68</ele>
        <time>2022-10-02T07:40:25.000Z</time>
      </trkpt>
      <trkpt lat="43.48104" lon="5.24644">
        <ele>68</ele>
        <time>2022-10-02T07:40:26.000Z</time>
      </trkpt>
      <trkpt lat="43.48103" lon="5.24646">
        <ele>68</ele>
        <time>2022-10-02T07:40:27.000Z</time>
      </trkpt>
      <trkpt lat="43.48103" lon="5.24648">
        <ele>68</ele>
        <time>2022-10-02T07:40:28.000Z</time>
      </trkpt>
      <trkpt lat="43.48102" lon="5.24649">
        <ele>69</ele>
        <time>2022-10-02T07:40:29.000Z</time>
      </trkpt>
      <trkpt lat="43.48102" lon="5.24651">
        <ele>69</ele>
        <time>2022-10-02T07:40:30.000Z</time>
      </trkpt>
      <trkpt lat="43.48102" lon="5.24653">
        <ele>69</ele>
        <time>2022-10-02T07:40:31.000Z</time>
      </trkpt>
      <trkpt lat="43.48101" lon="5.24655">
        <ele>69</ele>
        <time>2022-10-02T07:40:32.000Z</time>
      </trkpt>
      <trkpt lat="43.48101" lon="5.24656">
        <ele>69</ele>
        <time>2022-10-02T07:40:33.000Z</time>
      </trkpt>
      <trkpt lat="43.48101" lon="5.24658">
        <ele>69</ele>
        <time>2022-10-02T07:40:34.000Z</time>
      </trkpt>
      <trkpt lat="43.48101" lon="5.2466">
        <ele>69</ele>
        <time>2022-10-02T07:40:35.000Z</time>
      </trkpt>
      <trkpt lat="43.48101" lon="5.24662">
        <ele>69</ele>
        <time>2022-10-02T07:40:36.000Z</time>
      </trkpt>
      <trkpt lat="43.48101" lon="5.24664">
        <ele>69</ele>
        <time>2022-10-02T07:40:37.000Z</time>
      </trkpt>
      <trkpt lat="43.48101" lon="5.24667">
        <ele>70</ele>
        <time>2022-10-02T07:40:38.000Z</time>
      </trkpt>
      <trkpt lat="43.48101" lon="5.24669">
        <ele>70</ele>
        <time>2022-10-02T07:40:39.000Z</time>
      </trkpt>
      <trkpt lat="43.48101" lon="5.2467">
        <ele>70</ele>
        <time>2022-10-02T07:40:40.000Z</time>
      </trkpt>
      <trkpt lat="43.48101" lon="5.24672">
        <ele>70</ele>
        <time>2022-10-02T07:40:41.000Z</time>
      </trkpt>
      <trkpt lat="43.48101" lon="5.24674">
        <ele>70</ele>
        <time>2022-10-02T07:40:42.000Z</time>
      </trkpt>
      <trkpt lat="43.48101" lon="5.24677">
        <ele>70</ele>
        <time>2022-10-02T07:40:43.000Z</time>
      </trkpt>
      <trkpt lat="43.481" lon="5.24679">
        <ele>70</ele>
        <time>2022-10-02T07:40:44.000Z</time>
      </trkpt>
      <trkpt lat="43.481" lon="5.24682">
        <ele>71</ele>
        <time>2022-10-02T07:40:45.000Z</time>
      </trkpt>
      <trkpt lat="43.481" lon="5.24684">
        <ele>71</ele>
        <time>2022-10-02T07:40:46.000Z</time>
      </trkpt>
      <trkpt lat="43.48099" lon="5.24686">
        <ele>71</ele>
        <time>2022-10-02T07:40:47.000Z</time>
      </trkpt>
      <trkpt lat="43.48099" lon="5.24688">
        <ele>71</ele>
        <time>2022-10-02T07:40:48.000Z</time>
      </trkpt>
      <trkpt lat="43.48099" lon="5.2469">
        <ele>71</ele>
        <time>2022-10-02T07:40:49.000Z</time>
      </trkpt>
      <trkpt lat="43.48098" lon="5.24691">
        <ele>71</ele>
        <time>2022-10-02T07:40:50.000Z</time>
      </trkpt>
      <trkpt lat="43.48098" lon="5.24693">
        <ele>71</ele>
        <time>2022-10-02T07:40:51.000Z</time>
      </trkpt>
      <trkpt lat="43.48098" lon="5.24695">
        <ele>71</ele>
        <time>2022-10-02T07:40:52.000Z</time>
      </trkpt>
      <trkpt lat="43.48097" lon="5.24697">
        <ele>71</ele>
        <time>2022-10-02T07:40:53.000Z</time>
      </trkpt>
      <trkpt lat="43.48096" lon="5.24699">
        <ele>71</ele>
        <time>2022-10-02T07:40:54.000Z</time>
      </trkpt>
      <trkpt lat="43.48095" lon="5.247">
        <ele>71</ele>
        <time>2022-10-02T07:40:55.000Z</time>
      </trkpt>
      <trkpt lat="43.48094" lon="5.24702">
        <ele>71</ele>
        <time>2022-10-02T07:40:56.000Z</time>
      </trkpt>
      <trkpt lat="43.48093" lon="5.24703">
        <ele>71</ele>
        <time>2022-10-02T07:40:57.000Z</time>
      </trkpt>
      <trkpt lat="43.48091" lon="5.24704">
        <ele>71</ele>
        <time>2022-10-02T07:40:58.000Z</time>
      </trkpt>
      <trkpt lat="43.4809" lon="5.24705">
        <ele>71</ele>
        <time>2022-10-02T07:40:59.000Z</time>
      </trkpt>
      <trkpt lat="43.48089" lon="5.24705">
        <ele>71</ele>
        <time>2022-10-02T07:41:00.000Z</time>
      </trkpt>
      <trkpt lat="43.48087" lon="5.24706">
        <ele>71</ele>
        <time>2022-10-02T07:41:01.000Z</time>
      </trkpt>
      <trkpt lat="43.48086" lon="5.24707">
        <ele>71</ele>
        <time>2022-10-02T07:41:02.000Z</time>
      </trkpt>
      <trkpt lat="43.48084" lon="5.24707">
        <ele>71</ele>
        <time>2022-10-02T07:41:03.000Z</time>
      </trkpt>
      <trkpt lat="43.48083" lon="5.24707">
        <ele>71</ele>
        <time>2022-10-02T07:41:04.000Z</time>
      </trkpt>
      <trkpt lat="43.48082" lon="5.24708">
        <ele>71</ele>
        <time>2022-10-02T07:41:05.000Z</time>
      </trkpt>
      <trkpt lat="43.4808" lon="5.24708">
        <ele>71</ele>
        <time>2022-10-02T07:41:06.000Z</time>
      </trkpt>
      <trkpt lat="43.48079" lon="5.24708">
        <ele>71</ele>
        <time>2022-10-02T07:41:07.000Z</time>
      </trkpt>
      <trkpt lat="43.48078" lon="5.24708">
        <ele>72</ele>
        <time>2022-10-02T07:41:08.000Z</time>
      </trkpt>
      <trkpt lat="43.48076" lon="5.24708">
        <ele>72</ele>
        <time>2022-10-02T07:41:09.000Z</time>
      </trkpt>
      <trkpt lat="43.48075" lon="5.24708">
        <ele>72</ele>
        <time>2022-10-02T07:41:10.000Z</time>
      </trkpt>
      <trkpt lat="43.48073" lon="5.24708">
        <ele>72</ele>
        <time>2022-10-02T07:41:11.000Z</time>
      </trkpt>
      <trkpt lat="43.48072" lon="5.24709">
        <ele>72</ele>
        <time>2022-10-02T07:41:12.000Z</time>
      </trkpt>
      <trkpt lat="43.4807" lon="5.2471">
        <ele>72</ele>
        <time>2022-10-02T07:41:13.000Z</time>
      </trkpt>
      <trkpt lat="43.48069" lon="5.2471">
        <ele>72</ele>
        <time>2022-10-02T07:41:14.000Z</time>
      </trkpt>
      <trkpt lat="43.48068" lon="5.24711">
        <ele>72</ele>
        <time>2022-10-02T07:41:15.000Z</time>
      </trkpt>
      <trkpt lat="43.48067" lon="5.24712">
        <ele>72</ele>
        <time>2022-10-02T07:41:16.000Z</time>
      </trkpt>
      <trkpt lat="43.48065" lon="5.24713">
        <ele>72</ele>
        <time>2022-10-02T07:41:17.000Z</time>
      </trkpt>
      <trkpt lat="43.48065" lon="5.24714">
        <ele>73</ele>
        <time>2022-10-02T07:41:18.000Z</time>
      </trkpt>
      <trkpt lat="43.48063" lon="5.24715">
        <ele>73</ele>
        <time>2022-10-02T07:41:19.000Z</time>
      </trkpt>
      <trkpt lat="43.48062" lon="5.24716">
        <ele>73</ele>
        <time>2022-10-02T07:41:20.000Z</time>
      </trkpt>
      <trkpt lat="43.48061" lon="5.24717">
        <ele>73</ele>
        <time>2022-10-02T07:41:21.000Z</time>
      </trkpt>
      <trkpt lat="43.4806" lon="5.24718">
        <ele>73</ele>
        <time>2022-10-02T07:41:22.000Z</time>
      </trkpt>
      <trkpt lat="43.48059" lon="5.24719">
        <ele>73</ele>
        <time>2022-10-02T07:41:23.000Z</time>
      </trkpt>
      <trkpt lat="43.48058" lon="5.24721">
        <ele>74</ele>
        <time>2022-10-02T07:41:24.000Z</time>
      </trkpt>
      <trkpt lat="43.48057" lon="5.24723">
        <ele>74</ele>
        <time>2022-10-02T07:41:25.000Z</time>
      </trkpt>
      <trkpt lat="43.48057" lon="5.24724">
        <ele>74</ele>
        <time>2022-10-02T07:41:26.000Z</time>
      </trkpt>
      <trkpt lat="43.48056" lon="5.24725">
        <ele>74</ele>
        <time>2022-10-02T07:41:27.000Z</time>
      </trkpt>
      <trkpt lat="43.48055" lon="5.24726">
        <ele>74</ele>
        <time>2022-10-02T07:41:28.000Z</time>
      </trkpt>
      <trkpt lat="43.48055" lon="5.24727">
        <ele>74</ele>
        <time>2022-10-02T07:41:29.000Z</time>
      </trkpt>
      <trkpt lat="43.48054" lon="5.24729">
        <ele>75</ele>
        <time>2022-10-02T07:41:30.000Z</time>
      </trkpt>
      <trkpt lat="43.48054" lon="5.2473">
        <ele>75</ele>
        <time>2022-10-02T07:41:31.000Z</time>
      </trkpt>
      <trkpt lat="43.48053" lon="5.24732">
        <ele>75</ele>
        <time>2022-10-02T07:41:32.000Z</time>
      </trkpt>
      <trkpt lat="43.48053" lon="5.24733">
        <ele>75</ele>
        <time>2022-10-02T07:41:33.000Z</time>
      </trkpt>
      <trkpt lat="43.48052" lon="5.24735">
        <ele>75</ele>
        <time>2022-10-02T07:41:34.000Z</time>
      </trkpt>
      <trkpt lat="43.48051" lon="5.24737">
        <ele>76</ele>
        <time>2022-10-02T07:41:35.000Z</time>
      </trkpt>
      <trkpt lat="43.48051" lon="5.24739">
        <ele>76</ele>
        <time>2022-10-02T07:41:36.000Z</time>
      </trkpt>
      <trkpt lat="43.48051" lon="5.2474">
        <ele>76</ele>
        <time>2022-10-02T07:41:37.000Z</time>
      </trkpt>
      <trkpt lat="43.4805" lon="5.24742">
        <ele>76</ele>
        <time>2022-10-02T07:41:38.000Z</time>
      </trkpt>
      <trkpt lat="43.48049" lon="5.24743">
        <ele>76</ele>
        <time>2022-10-02T07:41:39.000Z</time>
      </trkpt>
      <trkpt lat="43.48048" lon="5.24745">
        <ele>77</ele>
        <time>2022-10-02T07:41:40.000Z</time>
      </trkpt>
      <trkpt lat="43.48048" lon="5.24746">
        <ele>77</ele>
        <time>2022-10-02T07:41:41.000Z</time>
      </trkpt>
      <trkpt lat="43.48047" lon="5.24747">
        <ele>77</ele>
        <time>2022-10-02T07:41:42.000Z</time>
      </trkpt>
      <trkpt lat="43.48047" lon="5.24749">
        <ele>77</ele>
        <time>2022-10-02T07:41:43.000Z</time>
      </trkpt>
      <trkpt lat="43.48046" lon="5.2475">
        <ele>77</ele>
        <time>2022-10-02T07:41:44.000Z</time>
      </trkpt>
      <trkpt lat="43.48045" lon="5.24752">
        <ele>77</ele>
        <time>2022-10-02T07:41:45.000Z</time>
      </trkpt>
      <trkpt lat="43.48045" lon="5.24754">
        <ele>77</ele>
        <time>2022-10-02T07:41:46.000Z</time>
      </trkpt>
      <trkpt lat="43.48044" lon="5.24755">
        <ele>77</ele>
        <time>2022-10-02T07:41:47.000Z</time>
      </trkpt>
      <trkpt lat="43.48043" lon="5.24757">
        <ele>77</ele>
        <time>2022-10-02T07:41:48.000Z</time>
      </trkpt>
      <trkpt lat="43.48042" lon="5.24758">
        <ele>77</ele>
        <time>2022-10-02T07:41:49.000Z</time>
      </trkpt>
      <trkpt lat="43.48042" lon="5.2476">
        <ele>77</ele>
        <time>2022-10-02T07:41:50.000Z</time>
      </trkpt>
      <trkpt lat="43.48041" lon="5.24762">
        <ele>77</ele>
        <time>2022-10-02T07:41:51.000Z</time>
      </trkpt>
      <trkpt lat="43.4804" lon="5.24763">
        <ele>77</ele>
        <time>2022-10-02T07:41:52.000Z</time>
      </trkpt>
      <trkpt lat="43.48039" lon="5.24764">
        <ele>77</ele>
        <time>2022-10-02T07:41:53.000Z</time>
      </trkpt>
      <trkpt lat="43.48039" lon="5.24765">
        <ele>77</ele>
        <time>2022-10-02T07:41:54.000Z</time>
      </trkpt>
      <trkpt lat="43.48038" lon="5.24767">
        <ele>77</ele>
        <time>2022-10-02T07:41:55.000Z</time>
      </trkpt>
      <trkpt lat="43.48037" lon="5.24769">
        <ele>77</ele>
        <time>2022-10-02T07:41:56.000Z</time>
      </trkpt>
      <trkpt lat="43.48036" lon="5.2477">
        <ele>78</ele>
        <time>2022-10-02T07:41:57.000Z</time>
      </trkpt>
      <trkpt lat="43.48036" lon="5.24772">
        <ele>78</ele>
        <time>2022-10-02T07:41:58.000Z</time>
      </trkpt>
      <trkpt lat="43.48035" lon="5.24773">
        <ele>78</ele>
        <time>2022-10-02T07:41:59.000Z</time>
      </trkpt>
      <trkpt lat="43.48034" lon="5.24775">
        <ele>78</ele>
        <time>2022-10-02T07:42:00.000Z</time>
      </trkpt>
      <trkpt lat="43.48033" lon="5.24777">
        <ele>78</ele>
        <time>2022-10-02T07:42:01.000Z</time>
      </trkpt>
      <trkpt lat="43.48032" lon="5.24778">
        <ele>78</ele>
        <time>2022-10-02T07:42:02.000Z</time>
      </trkpt>
      <trkpt lat="43.48031" lon="5.2478">
        <ele>79</ele>
        <time>2022-10-02T07:42:03.000Z</time>
      </trkpt>
      <trkpt lat="43.4803" lon="5.24781">
        <ele>79</ele>
        <time>2022-10-02T07:42:04.000Z</time>
      </trkpt>
      <trkpt lat="43.48029" lon="5.24783">
        <ele>79</ele>
        <time>2022-10-02T07:42:05.000Z</time>
      </trkpt>
      <trkpt lat="43.48028" lon="5.24784">
        <ele>79</ele>
        <time>2022-10-02T07:42:06.000Z</time>
      </trkpt>
      <trkpt lat="43.48027" lon="5.24785">
        <ele>79</ele>
        <time>2022-10-02T07:42:07.000Z</time>
      </trkpt>
      <trkpt lat="43.48026" lon="5.24786">
        <ele>79</ele>
        <time>2022-10-02T07:42:08.000Z</time>
      </trkpt>
      <trkpt lat="43.48024" lon="5.24788">
        <ele>80</ele>
        <time>2022-10-02T07:42:09.000Z</time>
      </trkpt>
      <trkpt lat="43.48023" lon="5.24789">
        <ele>80</ele>
        <time>2022-10-02T07:42:10.000Z</time>
      </trkpt>
      <trkpt lat="43.48022" lon="5.2479">
        <ele>80</ele>
        <time>2022-10-02T07:42:11.000Z</time>
      </trkpt>
      <trkpt lat="43.48021" lon="5.24792">
        <ele>80</ele>
        <time>2022-10-02T07:42:12.000Z</time>
      </trkpt>
      <trkpt lat="43.48019" lon="5.24793">
        <ele>80</ele>
        <time>2022-10-02T07:42:13.000Z</time>
      </trkpt>
      <trkpt lat="43.48018" lon="5.24795">
        <ele>80</ele>
        <time>2022-10-02T07:42:14.000Z</time>
      </trkpt>
      <trkpt lat="43.48017" lon="5.24796">
        <ele>80</ele>
        <time>2022-10-02T07:42:15.000Z</time>
      </trkpt>
      <trkpt lat="43.48015" lon="5.24797">
        <ele>80</ele>
        <time>2022-10-02T07:42:16.000Z</time>
      </trkpt>
      <trkpt lat="43.48014" lon="5.24798">
        <ele>80</ele>
        <time>2022-10-02T07:42:17.000Z</time>
      </trkpt>
      <trkpt lat="43.48013" lon="5.24799">
        <ele>81</ele>
        <time>2022-10-02T07:42:18.000Z</time>
      </trkpt>
      <trkpt lat="43.48011" lon="5.248">
        <ele>81</ele>
        <time>2022-10-02T07:42:19.000Z</time>
      </trkpt>
      <trkpt lat="43.4801" lon="5.24801">
        <ele>81</ele>
        <time>2022-10-02T07:42:20.000Z</time>
      </trkpt>
      <trkpt lat="43.48009" lon="5.24803">
        <ele>81</ele>
        <time>2022-10-02T07:42:21.000Z</time>
      </trkpt>
      <trkpt lat="43.48007" lon="5.24804">
        <ele>81</ele>
        <time>2022-10-02T07:42:22.000Z</time>
      </trkpt>
      <trkpt lat="43.48006" lon="5.24805">
        <ele>81</ele>
        <time>2022-10-02T07:42:23.000Z</time>
      </trkpt>
      <trkpt lat="43.48005" lon="5.24806">
        <ele>82</ele>
        <time>2022-10-02T07:42:24.000Z</time>
      </trkpt>
      <trkpt lat="43.48004" lon="5.24807">
        <ele>82</ele>
        <time>2022-10-02T07:42:25.000Z</time>
      </trkpt>
      <trkpt lat="43.48003" lon="5.24808">
        <ele>82</ele>
        <time>2022-10-02T07:42:26.000Z</time>
      </trkpt>
      <trkpt lat="43.48002" lon="5.2481">
        <ele>82</ele>
        <time>2022-10-02T07:42:27.000Z</time>
      </trkpt>
      <trkpt lat="43.48001" lon="5.24811">
        <ele>83</ele>
        <time>2022-10-02T07:42:28.000Z</time>
      </trkpt>
      <trkpt lat="43.48" lon="5.24812">
        <ele>83</ele>
        <time>2022-10-02T07:42:29.000Z</time>
      </trkpt>
      <trkpt lat="43.47998" lon="5.24813">
        <ele>83</ele>
        <time>2022-10-02T07:42:30.000Z</time>
      </trkpt>
      <trkpt lat="43.47997" lon="5.24814">
        <ele>83</ele>
        <time>2022-10-02T07:42:31.000Z</time>
      </trkpt>
      <trkpt lat="43.47996" lon="5.24815">
        <ele>84</ele>
        <time>2022-10-02T07:42:32.000Z</time>
      </trkpt>
      <trkpt lat="43.47995" lon="5.24816">
        <ele>84</ele>
        <time>2022-10-02T07:42:33.000Z</time>
      </trkpt>
      <trkpt lat="43.47994" lon="5.24816">
        <ele>84</ele>
        <time>2022-10-02T07:42:34.000Z</time>
      </trkpt>
      <trkpt lat="43.47993" lon="5.24818">
        <ele>84</ele>
        <time>2022-10-02T07:42:35.000Z</time>
      </trkpt>
      <trkpt lat="43.47992" lon="5.24819">
        <ele>84</ele>
        <time>2022-10-02T07:42:36.000Z</time>
      </trkpt>
      <trkpt lat="43.47991" lon="5.2482">
        <ele>84</ele>
        <time>2022-10-02T07:42:37.000Z</time>
      </trkpt>
      <trkpt lat="43.47989" lon="5.24821">
        <ele>84</ele>
        <time>2022-10-02T07:42:38.000Z</time>
      </trkpt>
      <trkpt lat="43.47988" lon="5.24822">
        <ele>84</ele>
        <time>2022-10-02T07:42:39.000Z</time>
      </trkpt>
      <trkpt lat="43.47987" lon="5.24823">
        <ele>84</ele>
        <time>2022-10-02T07:42:40.000Z</time>
      </trkpt>
      <trkpt lat="43.47985" lon="5.24824">
        <ele>84</ele>
        <time>2022-10-02T07:42:41.000Z</time>
      </trkpt>
      <trkpt lat="43.47984" lon="5.24825">
        <ele>84</ele>
        <time>2022-10-02T07:42:42.000Z</time>
      </trkpt>
      <trkpt lat="43.47983" lon="5.24826">
        <ele>84</ele>
        <time>2022-10-02T07:42:43.000Z</time>
      </trkpt>
      <trkpt lat="43.47981" lon="5.24827">
        <ele>85</ele>
        <time>2022-10-02T07:42:44.000Z</time>
      </trkpt>
      <trkpt lat="43.4798" lon="5.24828">
        <ele>85</ele>
        <time>2022-10-02T07:42:45.000Z</time>
      </trkpt>
      <trkpt lat="43.47979" lon="5.24829">
        <ele>85</ele>
        <time>2022-10-02T07:42:46.000Z</time>
      </trkpt>
      <trkpt lat="43.47977" lon="5.2483">
        <ele>85</ele>
        <time>2022-10-02T07:42:47.000Z</time>
      </trkpt>
      <trkpt lat="43.47976" lon="5.24831">
        <ele>85</ele>
        <time>2022-10-02T07:42:48.000Z</time>
      </trkpt>
      <trkpt lat="43.47974" lon="5.24832">
        <ele>85</ele>
        <time>2022-10-02T07:42:49.000Z</time>
      </trkpt>
      <trkpt lat="43.47973" lon="5.24833">
        <ele>85</ele>
        <time>2022-10-02T07:42:50.000Z</time>
      </trkpt>
      <trkpt lat="43.47972" lon="5.24833">
        <ele>86</ele>
        <time>2022-10-02T07:42:51.000Z</time>
      </trkpt>
      <trkpt lat="43.4797" lon="5.24834">
        <ele>86</ele>
        <time>2022-10-02T07:42:52.000Z</time>
      </trkpt>
      <trkpt lat="43.47969" lon="5.24835">
        <ele>86</ele>
        <time>2022-10-02T07:42:53.000Z</time>
      </trkpt>
      <trkpt lat="43.47968" lon="5.24836">
        <ele>86</ele>
        <time>2022-10-02T07:42:54.000Z</time>
      </trkpt>
      <trkpt lat="43.47966" lon="5.24837">
        <ele>86</ele>
        <time>2022-10-02T07:42:55.000Z</time>
      </trkpt>
      <trkpt lat="43.47965" lon="5.24838">
        <ele>86</ele>
        <time>2022-10-02T07:42:56.000Z</time>
      </trkpt>
      <trkpt lat="43.47964" lon="5.24838">
        <ele>87</ele>
        <time>2022-10-02T07:42:57.000Z</time>
      </trkpt>
      <trkpt lat="43.47963" lon="5.24839">
        <ele>87</ele>
        <time>2022-10-02T07:42:58.000Z</time>
      </trkpt>
      <trkpt lat="43.47962" lon="5.2484">
        <ele>87</ele>
        <time>2022-10-02T07:42:59.000Z</time>
      </trkpt>
      <trkpt lat="43.47961" lon="5.2484">
        <ele>87</ele>
        <time>2022-10-02T07:43:00.000Z</time>
      </trkpt>
      <trkpt lat="43.47959" lon="5.24841">
        <ele>87</ele>
        <time>2022-10-02T07:43:01.000Z</time>
      </trkpt>
      <trkpt lat="43.47958" lon="5.24842">
        <ele>87</ele>
        <time>2022-10-02T07:43:02.000Z</time>
      </trkpt>
      <trkpt lat="43.47957" lon="5.24843">
        <ele>87</ele>
        <time>2022-10-02T07:43:03.000Z</time>
      </trkpt>
      <trkpt lat="43.47956" lon="5.24844">
        <ele>88</ele>
        <time>2022-10-02T07:43:04.000Z</time>
      </trkpt>
      <trkpt lat="43.47955" lon="5.24845">
        <ele>88</ele>
        <time>2022-10-02T07:43:05.000Z</time>
      </trkpt>
      <trkpt lat="43.47953" lon="5.24846">
        <ele>88</ele>
        <time>2022-10-02T07:43:06.000Z</time>
      </trkpt>
      <trkpt lat="43.47952" lon="5.24847">
        <ele>88</ele>
        <time>2022-10-02T07:43:07.000Z</time>
      </trkpt>
      <trkpt lat="43.47951" lon="5.24848">
        <ele>88</ele>
        <time>2022-10-02T07:43:08.000Z</time>
      </trkpt>
      <trkpt lat="43.47949" lon="5.24849">
        <ele>88</ele>
        <time>2022-10-02T07:43:09.000Z</time>
      </trkpt>
      <trkpt lat="43.47948" lon="5.2485">
        <ele>88</ele>
        <time>2022-10-02T07:43:10.000Z</time>
      </trkpt>
      <trkpt lat="43.47947" lon="5.24851">
        <ele>89</ele>
        <time>2022-10-02T07:43:11.000Z</time>
      </trkpt>
      <trkpt lat="43.47946" lon="5.24852">
        <ele>89</ele>
        <time>2022-10-02T07:43:12.000Z</time>
      </trkpt>
      <trkpt lat="43.47944" lon="5.24852">
        <ele>89</ele>
        <time>2022-10-02T07:43:13.000Z</time>
      </trkpt>
      <trkpt lat="43.47943" lon="5.24853">
        <ele>89</ele>
        <time>2022-10-02T07:43:14.000Z</time>
      </trkpt>
      <trkpt lat="43.47942" lon="5.24854">
        <ele>89</ele>
        <time>2022-10-02T07:43:15.000Z</time>
      </trkpt>
      <trkpt lat="43.4794" lon="5.24855">
        <ele>89</ele>
        <time>2022-10-02T07:43:16.000Z</time>
      </trkpt>
      <trkpt lat="43.47939" lon="5.24856">
        <ele>90</ele>
        <time>2022-10-02T07:43:17.000Z</time>
      </trkpt>
      <trkpt lat="43.47938" lon="5.24857">
        <ele>90</ele>
        <time>2022-10-02T07:43:18.000Z</time>
      </trkpt>
      <trkpt lat="43.47937" lon="5.24857">
        <ele>90</ele>
        <time>2022-10-02T07:43:19.000Z</time>
      </trkpt>
      <trkpt lat="43.47936" lon="5.24858">
        <ele>90</ele>
        <time>2022-10-02T07:43:20.000Z</time>
      </trkpt>
      <trkpt lat="43.47935" lon="5.24859">
        <ele>90</ele>
        <time>2022-10-02T07:43:21.000Z</time>
      </trkpt>
      <trkpt lat="43.47934" lon="5.24859">
        <ele>90</ele>
        <time>2022-10-02T07:43:22.000Z</time>
      </trkpt>
      <trkpt lat="43.47932" lon="5.2486">
        <ele>90</ele>
        <time>2022-10-02T07:43:23.000Z</time>
      </trkpt>
      <trkpt lat="43.47931" lon="5.24861">
        <ele>90</ele>
        <time>2022-10-02T07:43:24.000Z</time>
      </trkpt>
      <trkpt lat="43.4793" lon="5.24861">
        <ele>91</ele>
        <time>2022-10-02T07:43:25.000Z</time>
      </trkpt>
      <trkpt lat="43.47929" lon="5.24862">
        <ele>91</ele>
        <time>2022-10-02T07:43:26.000Z</time>
      </trkpt>
      <trkpt lat="43.47927" lon="5.24862">
        <ele>91</ele>
        <time>2022-10-02T07:43:27.000Z</time>
      </trkpt>
      <trkpt lat="43.47926" lon="5.24863">
        <ele>91</ele>
        <time>2022-10-02T07:43:28.000Z</time>
      </trkpt>
      <trkpt lat="43.47925" lon="5.24864">
        <ele>91</ele>
        <time>2022-10-02T07:43:29.000Z</time>
      </trkpt>
      <trkpt lat="43.47924" lon="5.24864">
        <ele>91</ele>
        <time>2022-10-02T07:43:30.000Z</time>
      </trkpt>
      <trkpt lat="43.47923" lon="5.24865">
        <ele>91</ele>
        <time>2022-10-02T07:43:31.000Z</time>
      </trkpt>
      <trkpt lat="43.47922" lon="5.24865">
        <ele>92</ele>
        <time>2022-10-02T07:43:32.000Z</time>
      </trkpt>
      <trkpt lat="43.47921" lon="5.24866">
        <ele>92</ele>
        <time>2022-10-02T07:43:33.000Z</time>
      </trkpt>
      <trkpt lat="43.47919" lon="5.24867">
        <ele>92</ele>
        <time>2022-10-02T07:43:34.000Z</time>
      </trkpt>
      <trkpt lat="43.47918" lon="5.24867">
        <ele>92</ele>
        <time>2022-10-02T07:43:35.000Z</time>
      </trkpt>
      <trkpt lat="43.47917" lon="5.24868">
        <ele>92</ele>
        <time>2022-10-02T07:43:36.000Z</time>
      </trkpt>
      <trkpt lat="43.47915" lon="5.24869">
        <ele>92</ele>
        <time>2022-10-02T07:43:37.000Z</time>
      </trkpt>
      <trkpt lat="43.47914" lon="5.24869">
        <ele>93</ele>
        <time>2022-10-02T07:43:38.000Z</time>
      </trkpt>
      <trkpt lat="43.47913" lon="5.2487">
        <ele>93</ele>
        <time>2022-10-02T07:43:39.000Z</time>
      </trkpt>
      <trkpt lat="43.47912" lon="5.24871">
        <ele>93</ele>
        <time>2022-10-02T07:43:40.000Z</time>
      </trkpt>
      <trkpt lat="43.47911" lon="5.24871">
        <ele>93</ele>
        <time>2022-10-02T07:43:41.000Z</time>
      </trkpt>
      <trkpt lat="43.47909" lon="5.24872">
        <ele>93</ele>
        <time>2022-10-02T07:43:42.000Z</time>
      </trkpt>
      <trkpt lat="43.47908" lon="5.24872">
        <ele>93</ele>
        <time>2022-10-02T07:43:43.000Z</time>
      </trkpt>
      <trkpt lat="43.47907" lon="5.24873">
        <ele>93</ele>
        <time>2022-10-02T07:43:44.000Z</time>
      </trkpt>
      <trkpt lat="43.47905" lon="5.24873">
        <ele>93</ele>
        <time>2022-10-02T07:43:45.000Z</time>
      </trkpt>
      <trkpt lat="43.47904" lon="5.24874">
        <ele>93</ele>
        <time>2022-10-02T07:43:46.000Z</time>
      </trkpt>
      <trkpt lat="43.47902" lon="5.24875">
        <ele>93</ele>
        <time>2022-10-02T07:43:47.000Z</time>
      </trkpt>
      <trkpt lat="43.47901" lon="5.24875">
        <ele>94</ele>
        <time>2022-10-02T07:43:48.000Z</time>
      </trkpt>
      <trkpt lat="43.479" lon="5.24876">
        <ele>94</ele>
        <time>2022-10-02T07:43:49.000Z</time>
      </trkpt>
      <trkpt lat="43.47899" lon="5.24876">
        <ele>94</ele>
        <time>2022-10-02T07:43:50.000Z</time>
      </trkpt>
      <trkpt lat="43.47897" lon="5.24877">
        <ele>94</ele>
        <time>2022-10-02T07:43:51.000Z</time>
      </trkpt>
      <trkpt lat="43.47896" lon="5.24877">
        <ele>94</ele>
        <time>2022-10-02T07:43:52.000Z</time>
      </trkpt>
      <trkpt lat="43.47895" lon="5.24878">
        <ele>94</ele>
        <time>2022-10-02T07:43:53.000Z</time>
      </trkpt>
      <trkpt lat="43.47894" lon="5.24878">
        <ele>94</ele>
        <time>2022-10-02T07:43:54.000Z</time>
      </trkpt>
      <trkpt lat="43.47893" lon="5.24879">
        <ele>94</ele>
        <time>2022-10-02T07:43:55.000Z</time>
      </trkpt>
      <trkpt lat="43.47891" lon="5.24879">
        <ele>94</ele>
        <time>2022-10-02T07:43:56.000Z</time>
      </trkpt>
      <trkpt lat="43.4789" lon="5.2488">
        <ele>95</ele>
        <time>2022-10-02T07:43:57.000Z</time>
      </trkpt>
      <trkpt lat="43.47889" lon="5.2488">
        <ele>95</ele>
        <time>2022-10-02T07:43:58.000Z</time>
      </trkpt>
      <trkpt lat="43.47887" lon="5.2488">
        <ele>95</ele>
        <time>2022-10-02T07:43:59.000Z</time>
      </trkpt>
      <trkpt lat="43.47886" lon="5.24881">
        <ele>95</ele>
        <time>2022-10-02T07:44:00.000Z</time>
      </trkpt>
      <trkpt lat="43.47885" lon="5.24881">
        <ele>95</ele>
        <time>2022-10-02T07:44:01.000Z</time>
      </trkpt>
      <trkpt lat="43.47883" lon="5.24881">
        <ele>95</ele>
        <time>2022-10-02T07:44:02.000Z</time>
      </trkpt>
      <trkpt lat="43.47882" lon="5.24882">
        <ele>95</ele>
        <time>2022-10-02T07:44:03.000Z</time>
      </trkpt>
      <trkpt lat="43.47881" lon="5.24882">
        <ele>96</ele>
        <time>2022-10-02T07:44:04.000Z</time>
      </trkpt>
      <trkpt lat="43.47879" lon="5.24882">
        <ele>96</ele>
        <time>2022-10-02T07:44:05.000Z</time>
      </trkpt>
      <trkpt lat="43.47878" lon="5.24883">
        <ele>96</ele>
        <time>2022-10-02T07:44:06.000Z</time>
      </trkpt>
      <trkpt lat="43.47877" lon="5.24883">
        <ele>96</ele>
        <time>2022-10-02T07:44:07.000Z</time>
      </trkpt>
      <trkpt lat="43.47875" lon="5.24883">
        <ele>96</ele>
        <time>2022-10-02T07:44:08.000Z</time>
      </trkpt>
      <trkpt lat="43.47874" lon="5.24884">
        <ele>96</ele>
        <time>2022-10-02T07:44:09.000Z</time>
      </trkpt>
      <trkpt lat="43.47872" lon="5.24884">
        <ele>97</ele>
        <time>2022-10-02T07:44:10.000Z</time>
      </trkpt>
      <trkpt lat="43.47871" lon="5.24884">
        <ele>97</ele>
        <time>2022-10-02T07:44:11.000Z</time>
      </trkpt>
      <trkpt lat="43.4787" lon="5.24885">
        <ele>97</ele>
        <time>2022-10-02T07:44:12.000Z</time>
      </trkpt>
      <trkpt lat="43.47868" lon="5.24885">
        <ele>97</ele>
        <time>2022-10-02T07:44:13.000Z</time>
      </trkpt>
      <trkpt lat="43.47867" lon="5.24885">
        <ele>97</ele>
        <time>2022-10-02T07:44:14.000Z</time>
      </trkpt>
      <trkpt lat="43.47865" lon="5.24885">
        <ele>97</ele>
        <time>2022-10-02T07:44:15.000Z</time>
      </trkpt>
      <trkpt lat="43.47864" lon="5.24886">
        <ele>98</ele>
        <time>2022-10-02T07:44:16.000Z</time>
      </trkpt>
      <trkpt lat="43.47863" lon="5.24886">
        <ele>98</ele>
        <time>2022-10-02T07:44:17.000Z</time>
      </trkpt>
      <trkpt lat="43.47861" lon="5.24887">
        <ele>98</ele>
        <time>2022-10-02T07:44:18.000Z</time>
      </trkpt>
      <trkpt lat="43.4786" lon="5.24887">
        <ele>98</ele>
        <time>2022-10-02T07:44:19.000Z</time>
      </trkpt>
      <trkpt lat="43.47858" lon="5.24888">
        <ele>98</ele>
        <time>2022-10-02T07:44:20.000Z</time>
      </trkpt>
      <trkpt lat="43.47857" lon="5.24889">
        <ele>98</ele>
        <time>2022-10-02T07:44:21.000Z</time>
      </trkpt>
      <trkpt lat="43.47856" lon="5.2489">
        <ele>98</ele>
        <time>2022-10-02T07:44:22.000Z</time>
      </trkpt>
      <trkpt lat="43.47855" lon="5.24891">
        <ele>99</ele>
        <time>2022-10-02T07:44:23.000Z</time>
      </trkpt>
      <trkpt lat="43.47854" lon="5.24893">
        <ele>99</ele>
        <time>2022-10-02T07:44:24.000Z</time>
      </trkpt>
      <trkpt lat="43.47853" lon="5.24894">
        <ele>99</ele>
        <time>2022-10-02T07:44:25.000Z</time>
      </trkpt>
      <trkpt lat="43.47853" lon="5.24896">
        <ele>99</ele>
        <time>2022-10-02T07:44:26.000Z</time>
      </trkpt>
      <trkpt lat="43.47852" lon="5.24898">
        <ele>99</ele>
        <time>2022-10-02T07:44:27.000Z</time>
      </trkpt>
      <trkpt lat="43.47852" lon="5.24899">
        <ele>99</ele>
        <time>2022-10-02T07:44:28.000Z</time>
      </trkpt>
      <trkpt lat="43.47852" lon="5.24902">
        <ele>100</ele>
        <time>2022-10-02T07:44:29.000Z</time>
      </trkpt>
      <trkpt lat="43.47852" lon="5.24904">
        <ele>100</ele>
        <time>2022-10-02T07:44:30.000Z</time>
      </trkpt>
      <trkpt lat="43.47852" lon="5.24906">
        <ele>100</ele>
        <time>2022-10-02T07:44:31.000Z</time>
      </trkpt>
      <trkpt lat="43.47852" lon="5.24907">
        <ele>100</ele>
        <time>2022-10-02T07:44:32.000Z</time>
      </trkpt>
      <trkpt lat="43.47852" lon="5.24909">
        <ele>100</ele>
        <time>2022-10-02T07:44:33.000Z</time>
      </trkpt>
      <trkpt lat="43.47853" lon="5.24911">
        <ele>100</ele>
        <time>2022-10-02T07:44:34.000Z</time>
      </trkpt>
      <trkpt lat="43.47854" lon="5.24912">
        <ele>100</ele>
        <time>2022-10-02T07:44:35.000Z</time>
      </trkpt>
      <trkpt lat="43.47855" lon="5.24913">
        <ele>100</ele>
        <time>2022-10-02T07:44:36.000Z</time>
      </trkpt>
      <trkpt lat="43.47857" lon="5.24914">
        <ele>101</ele>
        <time>2022-10-02T07:44:37.000Z</time>
      </trkpt>
      <trkpt lat="43.47858" lon="5.24914">
        <ele>101</ele>
        <time>2022-10-02T07:44:38.000Z</time>
      </trkpt>
      <trkpt lat="43.47859" lon="5.24915">
        <ele>101</ele>
        <time>2022-10-02T07:44:39.000Z</time>
      </trkpt>
      <trkpt lat="43.47861" lon="5.24915">
        <ele>101</ele>
        <time>2022-10-02T07:44:40.000Z</time>
      </trkpt>
      <trkpt lat="43.47862" lon="5.24915">
        <ele>101</ele>
        <time>2022-10-02T07:44:41.000Z</time>
      </trkpt>
      <trkpt lat="43.47863" lon="5.24916">
        <ele>101</ele>
        <time>2022-10-02T07:44:42.000Z</time>
      </trkpt>
      <trkpt lat="43.47865" lon="5.24916">
        <ele>101</ele>
        <time>2022-10-02T07:44:43.000Z</time>
      </trkpt>
      <trkpt lat="43.47866" lon="5.24916">
        <ele>101</ele>
        <time>2022-10-02T07:44:44.000Z</time>
      </trkpt>
      <trkpt lat="43.47867" lon="5.24916">
        <ele>101</ele>
        <time>2022-10-02T07:44:45.000Z</time>
      </trkpt>
      <trkpt lat="43.47869" lon="5.24917">
        <ele>101</ele>
        <time>2022-10-02T07:44:46.000Z</time>
      </trkpt>
      <trkpt lat="43.4787" lon="5.24917">
        <ele>101</ele>
        <time>2022-10-02T07:44:47.000Z</time>
      </trkpt>
      <trkpt lat="43.47872" lon="5.24918">
        <ele>101</ele>
        <time>2022-10-02T07:44:48.000Z</time>
      </trkpt>
      <trkpt lat="43.47873" lon="5.24918">
        <ele>101</ele>
        <time>2022-10-02T07:44:49.000Z</time>
      </trkpt>
      <trkpt lat="43.47875" lon="5.24918">
        <ele>101</ele>
        <time>2022-10-02T07:44:50.000Z</time>
      </trkpt>
      <trkpt lat="43.47876" lon="5.24918">
        <ele>101</ele>
        <time>2022-10-02T07:44:51.000Z</time>
      </trkpt>
      <trkpt lat="43.47877" lon="5.24919">
        <ele>102</ele>
        <time>2022-10-02T07:44:52.000Z</time>
      </trkpt>
      <trkpt lat="43.47879" lon="5.24919">
        <ele>102</ele>
        <time>2022-10-02T07:44:53.000Z</time>
      </trkpt>
      <trkpt lat="43.47881" lon="5.2492">
        <ele>102</ele>
        <time>2022-10-02T07:44:54.000Z</time>
      </trkpt>
      <trkpt lat="43.47882" lon="5.2492">
        <ele>102</ele>
        <time>2022-10-02T07:44:55.000Z</time>
      </trkpt>
      <trkpt lat="43.47883" lon="5.2492">
        <ele>102</ele>
        <time>2022-10-02T07:44:56.000Z</time>
      </trkpt>
      <trkpt lat="43.47885" lon="5.2492">
        <ele>102</ele>
        <time>2022-10-02T07:44:57.000Z</time>
      </trkpt>
      <trkpt lat="43.47886" lon="5.24921">
        <ele>102</ele>
        <time>2022-10-02T07:44:58.000Z</time>
      </trkpt>
      <trkpt lat="43.47888" lon="5.24921">
        <ele>102</ele>
        <time>2022-10-02T07:44:59.000Z</time>
      </trkpt>
      <trkpt lat="43.47889" lon="5.24922">
        <ele>102</ele>
        <time>2022-10-02T07:45:00.000Z</time>
      </trkpt>
      <trkpt lat="43.47891" lon="5.24923">
        <ele>102</ele>
        <time>2022-10-02T07:45:01.000Z</time>
      </trkpt>
      <trkpt lat="43.47892" lon="5.24924">
        <ele>102</ele>
        <time>2022-10-02T07:45:02.000Z</time>
      </trkpt>
      <trkpt lat="43.47893" lon="5.24925">
        <ele>102</ele>
        <time>2022-10-02T07:45:03.000Z</time>
      </trkpt>
      <trkpt lat="43.47894" lon="5.24926">
        <ele>102</ele>
        <time>2022-10-02T07:45:04.000Z</time>
      </trkpt>
      <trkpt lat="43.47895" lon="5.24928">
        <ele>102</ele>
        <time>2022-10-02T07:45:05.000Z</time>
      </trkpt>
      <trkpt lat="43.47896" lon="5.24929">
        <ele>102</ele>
        <time>2022-10-02T07:45:06.000Z</time>
      </trkpt>
      <trkpt lat="43.47897" lon="5.24931">
        <ele>102</ele>
        <time>2022-10-02T07:45:07.000Z</time>
      </trkpt>
      <trkpt lat="43.47898" lon="5.24933">
        <ele>102</ele>
        <time>2022-10-02T07:45:08.000Z</time>
      </trkpt>
      <trkpt lat="43.47898" lon="5.24935">
        <ele>102</ele>
        <time>2022-10-02T07:45:09.000Z</time>
      </trkpt>
      <trkpt lat="43.47899" lon="5.24936">
        <ele>102</ele>
        <time>2022-10-02T07:45:10.000Z</time>
      </trkpt>
      <trkpt lat="43.47899" lon="5.24938">
        <ele>102</ele>
        <time>2022-10-02T07:45:11.000Z</time>
      </trkpt>
      <trkpt lat="43.479" lon="5.2494">
        <ele>102</ele>
        <time>2022-10-02T07:45:12.000Z</time>
      </trkpt>
      <trkpt lat="43.479" lon="5.24942">
        <ele>102</ele>
        <time>2022-10-02T07:45:13.000Z</time>
      </trkpt>
      <trkpt lat="43.47901" lon="5.24944">
        <ele>102</ele>
        <time>2022-10-02T07:45:14.000Z</time>
      </trkpt>
      <trkpt lat="43.47901" lon="5.24946">
        <ele>102</ele>
        <time>2022-10-02T07:45:15.000Z</time>
      </trkpt>
      <trkpt lat="43.47901" lon="5.24948">
        <ele>102</ele>
        <time>2022-10-02T07:45:16.000Z</time>
      </trkpt>
      <trkpt lat="43.47902" lon="5.2495">
        <ele>102</ele>
        <time>2022-10-02T07:45:17.000Z</time>
      </trkpt>
      <trkpt lat="43.47902" lon="5.24953">
        <ele>102</ele>
        <time>2022-10-02T07:45:18.000Z</time>
      </trkpt>
      <trkpt lat="43.47901" lon="5.24955">
        <ele>102</ele>
        <time>2022-10-02T07:45:19.000Z</time>
      </trkpt>
      <trkpt lat="43.47901" lon="5.24957">
        <ele>102</ele>
        <time>2022-10-02T07:45:20.000Z</time>
      </trkpt>
      <trkpt lat="43.479" lon="5.24959">
        <ele>102</ele>
        <time>2022-10-02T07:45:21.000Z</time>
      </trkpt>
      <trkpt lat="43.479" lon="5.24961">
        <ele>102</ele>
        <time>2022-10-02T07:45:22.000Z</time>
      </trkpt>
      <trkpt lat="43.47899" lon="5.24963">
        <ele>102</ele>
        <time>2022-10-02T07:45:23.000Z</time>
      </trkpt>
      <trkpt lat="43.47899" lon="5.24965">
        <ele>102</ele>
        <time>2022-10-02T07:45:24.000Z</time>
      </trkpt>
      <trkpt lat="43.47898" lon="5.24967">
        <ele>102</ele>
        <time>2022-10-02T07:45:25.000Z</time>
      </trkpt>
      <trkpt lat="43.47897" lon="5.24969">
        <ele>102</ele>
        <time>2022-10-02T07:45:26.000Z</time>
      </trkpt>
      <trkpt lat="43.47897" lon="5.24971">
        <ele>102</ele>
        <time>2022-10-02T07:45:27.000Z</time>
      </trkpt>
      <trkpt lat="43.47897" lon="5.24973">
        <ele>102</ele>
        <time>2022-10-02T07:45:28.000Z</time>
      </trkpt>
      <trkpt lat="43.47897" lon="5.24975">
        <ele>102</ele>
        <time>2022-10-02T07:45:29.000Z</time>
      </trkpt>
      <trkpt lat="43.47897" lon="5.24977">
        <ele>102</ele>
        <time>2022-10-02T07:45:30.000Z</time>
      </trkpt>
      <trkpt lat="43.47897" lon="5.24979">
        <ele>102</ele>
        <time>2022-10-02T07:45:31.000Z</time>
      </trkpt>
      <trkpt lat="43.47898" lon="5.24981">
        <ele>101</ele>
        <time>2022-10-02T07:45:32.000Z</time>
      </trkpt>
      <trkpt lat="43.47899" lon="5.24982">
        <ele>101</ele>
        <time>2022-10-02T07:45:33.000Z</time>
      </trkpt>
      <trkpt lat="43.47901" lon="5.24984">
        <ele>101</ele>
        <time>2022-10-02T07:45:34.000Z</time>
      </trkpt>
      <trkpt lat="43.47902" lon="5.24984">
        <ele>101</ele>
        <time>2022-10-02T07:45:35.000Z</time>
      </trkpt>
      <trkpt lat="43.47903" lon="5.24984">
        <ele>101</ele>
        <time>2022-10-02T07:45:36.000Z</time>
      </trkpt>
      <trkpt lat="43.47905" lon="5.24985">
        <ele>101</ele>
        <time>2022-10-02T07:45:37.000Z</time>
      </trkpt>
      <trkpt lat="43.47906" lon="5.24984">
        <ele>101</ele>
        <time>2022-10-02T07:45:38.000Z</time>
      </trkpt>
      <trkpt lat="43.47908" lon="5.24984">
        <ele>101</ele>
        <time>2022-10-02T07:45:39.000Z</time>
      </trkpt>
      <trkpt lat="43.47909" lon="5.24983">
        <ele>101</ele>
        <time>2022-10-02T07:45:40.000Z</time>
      </trkpt>
      <trkpt lat="43.4791" lon="5.24982">
        <ele>101</ele>
        <time>2022-10-02T07:45:41.000Z</time>
      </trkpt>
      <trkpt lat="43.47912" lon="5.24982">
        <ele>101</ele>
        <time>2022-10-02T07:45:42.000Z</time>
      </trkpt>
      <trkpt lat="43.47913" lon="5.24981">
        <ele>101</ele>
        <time>2022-10-02T07:45:43.000Z</time>
      </trkpt>
      <trkpt lat="43.47914" lon="5.24981">
        <ele>101</ele>
        <time>2022-10-02T07:45:44.000Z</time>
      </trkpt>
      <trkpt lat="43.47916" lon="5.2498">
        <ele>102</ele>
        <time>2022-10-02T07:45:45.000Z</time>
      </trkpt>
      <trkpt lat="43.47917" lon="5.2498">
        <ele>102</ele>
        <time>2022-10-02T07:45:46.000Z</time>
      </trkpt>
      <trkpt lat="43.47918" lon="5.2498">
        <ele>102</ele>
        <time>2022-10-02T07:45:47.000Z</time>
      </trkpt>
      <trkpt lat="43.4792" lon="5.24979">
        <ele>102</ele>
        <time>2022-10-02T07:45:48.000Z</time>
      </trkpt>
      <trkpt lat="43.47921" lon="5.24979">
        <ele>102</ele>
        <time>2022-10-02T07:45:49.000Z</time>
      </trkpt>
      <trkpt lat="43.47922" lon="5.24979">
        <ele>102</ele>
        <time>2022-10-02T07:45:50.000Z</time>
      </trkpt>
      <trkpt lat="43.47924" lon="5.24979">
        <ele>102</ele>
        <time>2022-10-02T07:45:51.000Z</time>
      </trkpt>
      <trkpt lat="43.47925" lon="5.24979">
        <ele>102</ele>
        <time>2022-10-02T07:45:52.000Z</time>
      </trkpt>
      <trkpt lat="43.47926" lon="5.24979">
        <ele>102</ele>
        <time>2022-10-02T07:45:53.000Z</time>
      </trkpt>
      <trkpt lat="43.47928" lon="5.24979">
        <ele>102</ele>
        <time>2022-10-02T07:45:54.000Z</time>
      </trkpt>
      <trkpt lat="43.47929" lon="5.24979">
        <ele>103</ele>
        <time>2022-10-02T07:45:55.000Z</time>
      </trkpt>
      <trkpt lat="43.4793" lon="5.24979">
        <ele>103</ele>
        <time>2022-10-02T07:45:56.000Z</time>
      </trkpt>
      <trkpt lat="43.47932" lon="5.24979">
        <ele>103</ele>
        <time>2022-10-02T07:45:57.000Z</time>
      </trkpt>
      <trkpt lat="43.47933" lon="5.2498">
        <ele>103</ele>
        <time>2022-10-02T07:45:58.000Z</time>
      </trkpt>
      <trkpt lat="43.47934" lon="5.2498">
        <ele>103</ele>
        <time>2022-10-02T07:45:59.000Z</time>
      </trkpt>
      <trkpt lat="43.47936" lon="5.2498">
        <ele>103</ele>
        <time>2022-10-02T07:46:00.000Z</time>
      </trkpt>
      <trkpt lat="43.47937" lon="5.24981">
        <ele>104</ele>
        <time>2022-10-02T07:46:01.000Z</time>
      </trkpt>
      <trkpt lat="43.47938" lon="5.24982">
        <ele>104</ele>
        <time>2022-10-02T07:46:02.000Z</time>
      </trkpt>
      <trkpt lat="43.4794" lon="5.24982">
        <ele>104</ele>
        <time>2022-10-02T07:46:03.000Z</time>
      </trkpt>
      <trkpt lat="43.47941" lon="5.24983">
        <ele>104</ele>
        <time>2022-10-02T07:46:04.000Z</time>
      </trkpt>
      <trkpt lat="43.47942" lon="5.24983">
        <ele>104</ele>
        <time>2022-10-02T07:46:05.000Z</time>
      </trkpt>
      <trkpt lat="43.47943" lon="5.24984">
        <ele>105</ele>
        <time>2022-10-02T07:46:06.000Z</time>
      </trkpt>
      <trkpt lat="43.47944" lon="5.24985">
        <ele>105</ele>
        <time>2022-10-02T07:46:07.000Z</time>
      </trkpt>
      <trkpt lat="43.47945" lon="5.24986">
        <ele>105</ele>
        <time>2022-10-02T07:46:08.000Z</time>
      </trkpt>
      <trkpt lat="43.47946" lon="5.24987">
        <ele>105</ele>
        <time>2022-10-02T07:46:09.000Z</time>
      </trkpt>
      <trkpt lat="43.47947" lon="5.24988">
        <ele>105</ele>
        <time>2022-10-02T07:46:10.000Z</time>
      </trkpt>
      <trkpt lat="43.47948" lon="5.24989">
        <ele>106</ele>
        <time>2022-10-02T07:46:11.000Z</time>
      </trkpt>
      <trkpt lat="43.4795" lon="5.24989">
        <ele>106</ele>
        <time>2022-10-02T07:46:12.000Z</time>
      </trkpt>
      <trkpt lat="43.47951" lon="5.2499">
        <ele>106</ele>
        <time>2022-10-02T07:46:13.000Z</time>
      </trkpt>
      <trkpt lat="43.47952" lon="5.2499">
        <ele>106</ele>
        <time>2022-10-02T07:46:14.000Z</time>
      </trkpt>
      <trkpt lat="43.47954" lon="5.2499">
        <ele>106</ele>
        <time>2022-10-02T07:46:15.000Z</time>
      </trkpt>
      <trkpt lat="43.47956" lon="5.2499">
        <ele>106</ele>
        <time>2022-10-02T07:46:16.000Z</time>
      </trkpt>
      <trkpt lat="43.47957" lon="5.2499">
        <ele>106</ele>
        <time>2022-10-02T07:46:17.000Z</time>
      </trkpt>
      <trkpt lat="43.47958" lon="5.24989">
        <ele>106</ele>
        <time>2022-10-02T07:46:18.000Z</time>
      </trkpt>
      <trkpt lat="43.4796" lon="5.24989">
        <ele>107</ele>
        <time>2022-10-02T07:46:19.000Z</time>
      </trkpt>
      <trkpt lat="43.47961" lon="5.24988">
        <ele>107</ele>
        <time>2022-10-02T07:46:20.000Z</time>
      </trkpt>
      <trkpt lat="43.47963" lon="5.24987">
        <ele>107</ele>
        <time>2022-10-02T07:46:21.000Z</time>
      </trkpt>
      <trkpt lat="43.47964" lon="5.24986">
        <ele>107</ele>
        <time>2022-10-02T07:46:22.000Z</time>
      </trkpt>
      <trkpt lat="43.47965" lon="5.24985">
        <ele>107</ele>
        <time>2022-10-02T07:46:23.000Z</time>
      </trkpt>
      <trkpt lat="43.47966" lon="5.24984">
        <ele>107</ele>
        <time>2022-10-02T07:46:24.000Z</time>
      </trkpt>
      <trkpt lat="43.47968" lon="5.24983">
        <ele>107</ele>
        <time>2022-10-02T07:46:25.000Z</time>
      </trkpt>
      <trkpt lat="43.47968" lon="5.24982">
        <ele>107</ele>
        <time>2022-10-02T07:46:26.000Z</time>
      </trkpt>
      <trkpt lat="43.4797" lon="5.2498">
        <ele>107</ele>
        <time>2022-10-02T07:46:27.000Z</time>
      </trkpt>
      <trkpt lat="43.47971" lon="5.24979">
        <ele>107</ele>
        <time>2022-10-02T07:46:28.000Z</time>
      </trkpt>
      <trkpt lat="43.47972" lon="5.24978">
        <ele>107</ele>
        <time>2022-10-02T07:46:29.000Z</time>
      </trkpt>
      <trkpt lat="43.47973" lon="5.24977">
        <ele>107</ele>
        <time>2022-10-02T07:46:30.000Z</time>
      </trkpt>
      <trkpt lat="43.47974" lon="5.24976">
        <ele>107</ele>
        <time>2022-10-02T07:46:31.000Z</time>
      </trkpt>
      <trkpt lat="43.47975" lon="5.24975">
        <ele>108</ele>
        <time>2022-10-02T07:46:32.000Z</time>
      </trkpt>
      <trkpt lat="43.47976" lon="5.24974">
        <ele>108</ele>
        <time>2022-10-02T07:46:33.000Z</time>
      </trkpt>
      <trkpt lat="43.47978" lon="5.24973">
        <ele>108</ele>
        <time>2022-10-02T07:46:34.000Z</time>
      </trkpt>
      <trkpt lat="43.47979" lon="5.24972">
        <ele>108</ele>
        <time>2022-10-02T07:46:35.000Z</time>
      </trkpt>
      <trkpt lat="43.4798" lon="5.24971">
        <ele>108</ele>
        <time>2022-10-02T07:46:36.000Z</time>
      </trkpt>
      <trkpt lat="43.47981" lon="5.2497">
        <ele>108</ele>
        <time>2022-10-02T07:46:37.000Z</time>
      </trkpt>
      <trkpt lat="43.47983" lon="5.24969">
        <ele>108</ele>
        <time>2022-10-02T07:46:38.000Z</time>
      </trkpt>
      <trkpt lat="43.47984" lon="5.24969">
        <ele>108</ele>
        <time>2022-10-02T07:46:39.000Z</time>
      </trkpt>
      <trkpt lat="43.47985" lon="5.24968">
        <ele>108</ele>
        <time>2022-10-02T07:46:40.000Z</time>
      </trkpt>
      <trkpt lat="43.47986" lon="5.24967">
        <ele>108</ele>
        <time>2022-10-02T07:46:41.000Z</time>
      </trkpt>
      <trkpt lat="43.47988" lon="5.24967">
        <ele>108</ele>
        <time>2022-10-02T07:46:42.000Z</time>
      </trkpt>
      <trkpt lat="43.47989" lon="5.24966">
        <ele>109</ele>
        <time>2022-10-02T07:46:43.000Z</time>
      </trkpt>
      <trkpt lat="43.4799" lon="5.24965">
        <ele>109</ele>
        <time>2022-10-02T07:46:44.000Z</time>
      </trkpt>
      <trkpt lat="43.47991" lon="5.24965">
        <ele>109</ele>
        <time>2022-10-02T07:46:45.000Z</time>
      </trkpt>
      <trkpt lat="43.47993" lon="5.24964">
        <ele>109</ele>
        <time>2022-10-02T07:46:46.000Z</time>
      </trkpt>
      <trkpt lat="43.47994" lon="5.24963">
        <ele>109</ele>
        <time>2022-10-02T07:46:47.000Z</time>
      </trkpt>
      <trkpt lat="43.47995" lon="5.24962">
        <ele>109</ele>
        <time>2022-10-02T07:46:48.000Z</time>
      </trkpt>
      <trkpt lat="43.47996" lon="5.24962">
        <ele>109</ele>
        <time>2022-10-02T07:46:49.000Z</time>
      </trkpt>
      <trkpt lat="43.47998" lon="5.24962">
        <ele>109</ele>
        <time>2022-10-02T07:46:50.000Z</time>
      </trkpt>
      <trkpt lat="43.47999" lon="5.24961">
        <ele>109</ele>
        <time>2022-10-02T07:46:51.000Z</time>
      </trkpt>
      <trkpt lat="43.48" lon="5.2496">
        <ele>109</ele>
        <time>2022-10-02T07:46:52.000Z</time>
      </trkpt>
      <trkpt lat="43.48002" lon="5.2496">
        <ele>110</ele>
        <time>2022-10-02T07:46:53.000Z</time>
      </trkpt>
      <trkpt lat="43.48003" lon="5.24959">
        <ele>110</ele>
        <time>2022-10-02T07:46:54.000Z</time>
      </trkpt>
      <trkpt lat="43.48004" lon="5.24959">
        <ele>110</ele>
        <time>2022-10-02T07:46:55.000Z</time>
      </trkpt>
      <trkpt lat="43.48005" lon="5.24959">
        <ele>110</ele>
        <time>2022-10-02T07:46:56.000Z</time>
      </trkpt>
      <trkpt lat="43.48007" lon="5.24958">
        <ele>110</ele>
        <time>2022-10-02T07:46:57.000Z</time>
      </trkpt>
      <trkpt lat="43.48008" lon="5.24958">
        <ele>110</ele>
        <time>2022-10-02T07:46:58.000Z</time>
      </trkpt>
      <trkpt lat="43.4801" lon="5.24958">
        <ele>110</ele>
        <time>2022-10-02T07:46:59.000Z</time>
      </trkpt>
      <trkpt lat="43.48011" lon="5.24958">
        <ele>111</ele>
        <time>2022-10-02T07:47:00.000Z</time>
      </trkpt>
      <trkpt lat="43.48013" lon="5.24957">
        <ele>111</ele>
        <time>2022-10-02T07:47:01.000Z</time>
      </trkpt>
      <trkpt lat="43.48014" lon="5.24957">
        <ele>111</ele>
        <time>2022-10-02T07:47:02.000Z</time>
      </trkpt>
      <trkpt lat="43.48015" lon="5.24957">
        <ele>111</ele>
        <time>2022-10-02T07:47:03.000Z</time>
      </trkpt>
      <trkpt lat="43.48017" lon="5.24957">
        <ele>111</ele>
        <time>2022-10-02T07:47:04.000Z</time>
      </trkpt>
      <trkpt lat="43.48018" lon="5.24956">
        <ele>111</ele>
        <time>2022-10-02T07:47:05.000Z</time>
      </trkpt>
      <trkpt lat="43.48019" lon="5.24956">
        <ele>111</ele>
        <time>2022-10-02T07:47:06.000Z</time>
      </trkpt>
      <trkpt lat="43.48021" lon="5.24956">
        <ele>112</ele>
        <time>2022-10-02T07:47:07.000Z</time>
      </trkpt>
      <trkpt lat="43.48022" lon="5.24956">
        <ele>112</ele>
        <time>2022-10-02T07:47:08.000Z</time>
      </trkpt>
      <trkpt lat="43.48023" lon="5.24956">
        <ele>112</ele>
        <time>2022-10-02T07:47:09.000Z</time>
      </trkpt>
      <trkpt lat="43.48024" lon="5.24956">
        <ele>112</ele>
        <time>2022-10-02T07:47:10.000Z</time>
      </trkpt>
      <trkpt lat="43.48025" lon="5.24956">
        <ele>112</ele>
        <time>2022-10-02T07:47:11.000Z</time>
      </trkpt>
      <trkpt lat="43.48027" lon="5.24956">
        <ele>112</ele>
        <time>2022-10-02T07:47:12.000Z</time>
      </trkpt>
      <trkpt lat="43.48028" lon="5.24956">
        <ele>112</ele>
        <time>2022-10-02T07:47:13.000Z</time>
      </trkpt>
      <trkpt lat="43.4803" lon="5.24956">
        <ele>112</ele>
        <time>2022-10-02T07:47:14.000Z</time>
      </trkpt>
      <trkpt lat="43.48031" lon="5.24957">
        <ele>112</ele>
        <time>2022-10-02T07:47:15.000Z</time>
      </trkpt>
      <trkpt lat="43.48033" lon="5.24957">
        <ele>112</ele>
        <time>2022-10-02T07:47:16.000Z</time>
      </trkpt>
      <trkpt lat="43.48034" lon="5.24957">
        <ele>112</ele>
        <time>2022-10-02T07:47:17.000Z</time>
      </trkpt>
      <trkpt lat="43.48036" lon="5.24957">
        <ele>112</ele>
        <time>2022-10-02T07:47:18.000Z</time>
      </trkpt>
      <trkpt lat="43.48037" lon="5.24957">
        <ele>112</ele>
        <time>2022-10-02T07:47:19.000Z</time>
      </trkpt>
      <trkpt lat="43.48039" lon="5.24957">
        <ele>112</ele>
        <time>2022-10-02T07:47:20.000Z</time>
      </trkpt>
      <trkpt lat="43.4804" lon="5.24958">
        <ele>112</ele>
        <time>2022-10-02T07:47:21.000Z</time>
      </trkpt>
      <trkpt lat="43.48042" lon="5.24958">
        <ele>112</ele>
        <time>2022-10-02T07:47:22.000Z</time>
      </trkpt>
      <trkpt lat="43.48043" lon="5.24958">
        <ele>112</ele>
        <time>2022-10-02T07:47:23.000Z</time>
      </trkpt>
      <trkpt lat="43.48045" lon="5.24958">
        <ele>112</ele>
        <time>2022-10-02T07:47:24.000Z</time>
      </trkpt>
      <trkpt lat="43.48046" lon="5.24957">
        <ele>112</ele>
        <time>2022-10-02T07:47:25.000Z</time>
      </trkpt>
      <trkpt lat="43.48048" lon="5.24958">
        <ele>112</ele>
        <time>2022-10-02T07:47:26.000Z</time>
      </trkpt>
      <trkpt lat="43.48049" lon="5.24958">
        <ele>112</ele>
        <time>2022-10-02T07:47:27.000Z</time>
      </trkpt>
      <trkpt lat="43.48051" lon="5.24958">
        <ele>112</ele>
        <time>2022-10-02T07:47:28.000Z</time>
      </trkpt>
      <trkpt lat="43.48052" lon="5.24958">
        <ele>112</ele>
        <time>2022-10-02T07:47:29.000Z</time>
      </trkpt>
      <trkpt lat="43.48054" lon="5.24959">
        <ele>112</ele>
        <time>2022-10-02T07:47:30.000Z</time>
      </trkpt>
      <trkpt lat="43.48055" lon="5.24959">
        <ele>112</ele>
        <time>2022-10-02T07:47:31.000Z</time>
      </trkpt>
      <trkpt lat="43.48056" lon="5.2496">
        <ele>112</ele>
        <time>2022-10-02T07:47:32.000Z</time>
      </trkpt>
      <trkpt lat="43.48058" lon="5.24961">
        <ele>112</ele>
        <time>2022-10-02T07:47:33.000Z</time>
      </trkpt>
      <trkpt lat="43.48059" lon="5.24961">
        <ele>112</ele>
        <time>2022-10-02T07:47:34.000Z</time>
      </trkpt>
      <trkpt lat="43.48061" lon="5.24962">
        <ele>112</ele>
        <time>2022-10-02T07:47:35.000Z</time>
      </trkpt>
      <trkpt lat="43.48062" lon="5.24963">
        <ele>112</ele>
        <time>2022-10-02T07:47:36.000Z</time>
      </trkpt>
      <trkpt lat="43.48064" lon="5.24963">
        <ele>112</ele>
        <time>2022-10-02T07:47:37.000Z</time>
      </trkpt>
      <trkpt lat="43.48065" lon="5.24964">
        <ele>113</ele>
        <time>2022-10-02T07:47:38.000Z</time>
      </trkpt>
      <trkpt lat="43.48066" lon="5.24965">
        <ele>113</ele>
        <time>2022-10-02T07:47:39.000Z</time>
      </trkpt>
      <trkpt lat="43.48067" lon="5.24967">
        <ele>113</ele>
        <time>2022-10-02T07:47:40.000Z</time>
      </trkpt>
      <trkpt lat="43.48068" lon="5.24968">
        <ele>113</ele>
        <time>2022-10-02T07:47:41.000Z</time>
      </trkpt>
      <trkpt lat="43.4807" lon="5.24969">
        <ele>113</ele>
        <time>2022-10-02T07:47:42.000Z</time>
      </trkpt>
      <trkpt lat="43.48071" lon="5.2497">
        <ele>113</ele>
        <time>2022-10-02T07:47:43.000Z</time>
      </trkpt>
      <trkpt lat="43.48072" lon="5.24972">
        <ele>113</ele>
        <time>2022-10-02T07:47:44.000Z</time>
      </trkpt>
      <trkpt lat="43.48073" lon="5.24973">
        <ele>113</ele>
        <time>2022-10-02T07:47:45.000Z</time>
      </trkpt>
      <trkpt lat="43.48074" lon="5.24975">
        <ele>113</ele>
        <time>2022-10-02T07:47:46.000Z</time>
      </trkpt>
      <trkpt lat="43.48075" lon="5.24977">
        <ele>113</ele>
        <time>2022-10-02T07:47:47.000Z</time>
      </trkpt>
      <trkpt lat="43.48075" lon="5.24978">
        <ele>113</ele>
        <time>2022-10-02T07:47:48.000Z</time>
      </trkpt>
      <trkpt lat="43.48076" lon="5.2498">
        <ele>113</ele>
        <time>2022-10-02T07:47:49.000Z</time>
      </trkpt>
      <trkpt lat="43.48077" lon="5.24982">
        <ele>113</ele>
        <time>2022-10-02T07:47:50.000Z</time>
      </trkpt>
      <trkpt lat="43.48077" lon="5.24984">
        <ele>113</ele>
        <time>2022-10-02T07:47:51.000Z</time>
      </trkpt>
      <trkpt lat="43.48077" lon="5.24986">
        <ele>113</ele>
        <time>2022-10-02T07:47:52.000Z</time>
      </trkpt>
      <trkpt lat="43.48077" lon="5.24988">
        <ele>113</ele>
        <time>2022-10-02T07:47:53.000Z</time>
      </trkpt>
      <trkpt lat="43.48077" lon="5.2499">
        <ele>113</ele>
        <time>2022-10-02T07:47:54.000Z</time>
      </trkpt>
      <trkpt lat="43.48078" lon="5.24992">
        <ele>113</ele>
        <time>2022-10-02T07:47:55.000Z</time>
      </trkpt>
      <trkpt lat="43.48078" lon="5.24994">
        <ele>113</ele>
        <time>2022-10-02T07:47:56.000Z</time>
      </trkpt>
      <trkpt lat="43.48078" lon="5.24997">
        <ele>113</ele>
        <time>2022-10-02T07:47:57.000Z</time>
      </trkpt>
      <trkpt lat="43.48078" lon="5.24999">
        <ele>113</ele>
        <time>2022-10-02T07:47:58.000Z</time>
      </trkpt>
      <trkpt lat="43.48078" lon="5.25001">
        <ele>113</ele>
        <time>2022-10-02T07:47:59.000Z</time>
      </trkpt>
      <trkpt lat="43.48078" lon="5.25003">
        <ele>113</ele>
        <time>2022-10-02T07:48:00.000Z</time>
      </trkpt>
      <trkpt lat="43.48078" lon="5.25005">
        <ele>113</ele>
        <time>2022-10-02T07:48:01.000Z</time>
      </trkpt>
      <trkpt lat="43.48078" lon="5.25007">
        <ele>113</ele>
        <time>2022-10-02T07:48:02.000Z</time>
      </trkpt>
      <trkpt lat="43.48078" lon="5.25009">
        <ele>113</ele>
        <time>2022-10-02T07:48:03.000Z</time>
      </trkpt>
      <trkpt lat="43.48078" lon="5.25011">
        <ele>113</ele>
        <time>2022-10-02T07:48:04.000Z</time>
      </trkpt>
      <trkpt lat="43.48078" lon="5.25013">
        <ele>113</ele>
        <time>2022-10-02T07:48:05.000Z</time>
      </trkpt>
      <trkpt lat="43.48078" lon="5.25016">
        <ele>113</ele>
        <time>2022-10-02T07:48:06.000Z</time>
      </trkpt>
      <trkpt lat="43.48078" lon="5.25018">
        <ele>113</ele>
        <time>2022-10-02T07:48:07.000Z</time>
      </trkpt>
      <trkpt lat="43.48078" lon="5.2502">
        <ele>113</ele>
        <time>2022-10-02T07:48:08.000Z</time>
      </trkpt>
      <trkpt lat="43.48078" lon="5.25022">
        <ele>113</ele>
        <time>2022-10-02T07:48:09.000Z</time>
      </trkpt>
      <trkpt lat="43.48078" lon="5.25024">
        <ele>113</ele>
        <time>2022-10-02T07:48:10.000Z</time>
      </trkpt>
      <trkpt lat="43.48078" lon="5.25026">
        <ele>113</ele>
        <time>2022-10-02T07:48:11.000Z</time>
      </trkpt>
      <trkpt lat="43.48078" lon="5.25028">
        <ele>113</ele>
        <time>2022-10-02T07:48:12.000Z</time>
      </trkpt>
      <trkpt lat="43.48078" lon="5.25031">
        <ele>113</ele>
        <time>2022-10-02T07:48:13.000Z</time>
      </trkpt>
      <trkpt lat="43.48078" lon="5.25033">
        <ele>113</ele>
        <time>2022-10-02T07:48:14.000Z</time>
      </trkpt>
      <trkpt lat="43.48078" lon="5.25035">
        <ele>113</ele>
        <time>2022-10-02T07:48:15.000Z</time>
      </trkpt>
      <trkpt lat="43.48077" lon="5.25037">
        <ele>113</ele>
        <time>2022-10-02T07:48:16.000Z</time>
      </trkpt>
      <trkpt lat="43.48077" lon="5.25039">
        <ele>113</ele>
        <time>2022-10-02T07:48:17.000Z</time>
      </trkpt>
      <trkpt lat="43.48077" lon="5.25042">
        <ele>113</ele>
        <time>2022-10-02T07:48:18.000Z</time>
      </trkpt>
      <trkpt lat="43.48077" lon="5.25043">
        <ele>113</ele>
        <time>2022-10-02T07:48:19.000Z</time>
      </trkpt>
      <trkpt lat="43.48077" lon="5.25045">
        <ele>113</ele>
        <time>2022-10-02T07:48:20.000Z</time>
      </trkpt>
      <trkpt lat="43.48077" lon="5.25048">
        <ele>113</ele>
        <time>2022-10-02T07:48:21.000Z</time>
      </trkpt>
      <trkpt lat="43.48077" lon="5.2505">
        <ele>112</ele>
        <time>2022-10-02T07:48:22.000Z</time>
      </trkpt>
      <trkpt lat="43.48077" lon="5.25052">
        <ele>112</ele>
        <time>2022-10-02T07:48:23.000Z</time>
      </trkpt>
      <trkpt lat="43.48078" lon="5.25054">
        <ele>112</ele>
        <time>2022-10-02T07:48:24.000Z</time>
      </trkpt>
      <trkpt lat="43.48078" lon="5.25056">
        <ele>112</ele>
        <time>2022-10-02T07:48:25.000Z</time>
      </trkpt>
      <trkpt lat="43.48079" lon="5.25058">
        <ele>112</ele>
        <time>2022-10-02T07:48:26.000Z</time>
      </trkpt>
      <trkpt lat="43.48079" lon="5.2506">
        <ele>112</ele>
        <time>2022-10-02T07:48:27.000Z</time>
      </trkpt>
      <trkpt lat="43.4808" lon="5.25062">
        <ele>112</ele>
        <time>2022-10-02T07:48:28.000Z</time>
      </trkpt>
      <trkpt lat="43.48081" lon="5.25063">
        <ele>112</ele>
        <time>2022-10-02T07:48:29.000Z</time>
      </trkpt>
      <trkpt lat="43.48082" lon="5.25065">
        <ele>112</ele>
        <time>2022-10-02T07:48:30.000Z</time>
      </trkpt>
      <trkpt lat="43.48083" lon="5.25066">
        <ele>112</ele>
        <time>2022-10-02T07:48:31.000Z</time>
      </trkpt>
      <trkpt lat="43.48084" lon="5.25068">
        <ele>112</ele>
        <time>2022-10-02T07:48:32.000Z</time>
      </trkpt>
      <trkpt lat="43.48086" lon="5.25069">
        <ele>112</ele>
        <time>2022-10-02T07:48:33.000Z</time>
      </trkpt>
      <trkpt lat="43.48087" lon="5.25069">
        <ele>112</ele>
        <time>2022-10-02T07:48:34.000Z</time>
      </trkpt>
      <trkpt lat="43.48088" lon="5.2507">
        <ele>112</ele>
        <time>2022-10-02T07:48:35.000Z</time>
      </trkpt>
      <trkpt lat="43.4809" lon="5.25071">
        <ele>112</ele>
        <time>2022-10-02T07:48:36.000Z</time>
      </trkpt>
      <trkpt lat="43.48091" lon="5.25071">
        <ele>112</ele>
        <time>2022-10-02T07:48:37.000Z</time>
      </trkpt>
      <trkpt lat="43.48093" lon="5.25071">
        <ele>112</ele>
        <time>2022-10-02T07:48:38.000Z</time>
      </trkpt>
      <trkpt lat="43.48094" lon="5.25072">
        <ele>112</ele>
        <time>2022-10-02T07:48:39.000Z</time>
      </trkpt>
      <trkpt lat="43.48096" lon="5.25072">
        <ele>112</ele>
        <time>2022-10-02T07:48:40.000Z</time>
      </trkpt>
      <trkpt lat="43.48097" lon="5.25072">
        <ele>112</ele>
        <time>2022-10-02T07:48:41.000Z</time>
      </trkpt>
      <trkpt lat="43.48099" lon="5.25073">
        <ele>111</ele>
        <time>2022-10-02T07:48:42.000Z</time>
      </trkpt>
      <trkpt lat="43.481" lon="5.25073">
        <ele>111</ele>
        <time>2022-10-02T07:48:43.000Z</time>
      </trkpt>
      <trkpt lat="43.48102" lon="5.25073">
        <ele>111</ele>
        <time>2022-10-02T07:48:44.000Z</time>
      </trkpt>
      <trkpt lat="43.48103" lon="5.25074">
        <ele>111</ele>
        <time>2022-10-02T07:48:45.000Z</time>
      </trkpt>
      <trkpt lat="43.48105" lon="5.25074">
        <ele>111</ele>
        <time>2022-10-02T07:48:46.000Z</time>
      </trkpt>
      <trkpt lat="43.48106" lon="5.25074">
        <ele>111</ele>
        <time>2022-10-02T07:48:47.000Z</time>
      </trkpt>
      <trkpt lat="43.48108" lon="5.25075">
        <ele>111</ele>
        <time>2022-10-02T07:48:48.000Z</time>
      </trkpt>
      <trkpt lat="43.48109" lon="5.25076">
        <ele>111</ele>
        <time>2022-10-02T07:48:49.000Z</time>
      </trkpt>
      <trkpt lat="43.48111" lon="5.25076">
        <ele>110</ele>
        <time>2022-10-02T07:48:50.000Z</time>
      </trkpt>
      <trkpt lat="43.48112" lon="5.25077">
        <ele>110</ele>
        <time>2022-10-02T07:48:51.000Z</time>
      </trkpt>
      <trkpt lat="43.48114" lon="5.25078">
        <ele>110</ele>
        <time>2022-10-02T07:48:52.000Z</time>
      </trkpt>
      <trkpt lat="43.48115" lon="5.25079">
        <ele>110</ele>
        <time>2022-10-02T07:48:53.000Z</time>
      </trkpt>
      <trkpt lat="43.48116" lon="5.2508">
        <ele>110</ele>
        <time>2022-10-02T07:48:54.000Z</time>
      </trkpt>
      <trkpt lat="43.48118" lon="5.25081">
        <ele>110</ele>
        <time>2022-10-02T07:48:55.000Z</time>
      </trkpt>
      <trkpt lat="43.48119" lon="5.25082">
        <ele>110</ele>
        <time>2022-10-02T07:48:56.000Z</time>
      </trkpt>
      <trkpt lat="43.4812" lon="5.25083">
        <ele>110</ele>
        <time>2022-10-02T07:48:57.000Z</time>
      </trkpt>
      <trkpt lat="43.48121" lon="5.25084">
        <ele>110</ele>
        <time>2022-10-02T07:48:58.000Z</time>
      </trkpt>
      <trkpt lat="43.48122" lon="5.25086">
        <ele>110</ele>
        <time>2022-10-02T07:48:59.000Z</time>
      </trkpt>
      <trkpt lat="43.48124" lon="5.25087">
        <ele>110</ele>
        <time>2022-10-02T07:49:00.000Z</time>
      </trkpt>
      <trkpt lat="43.48125" lon="5.25089">
        <ele>110</ele>
        <time>2022-10-02T07:49:01.000Z</time>
      </trkpt>
      <trkpt lat="43.48126" lon="5.25091">
        <ele>110</ele>
        <time>2022-10-02T07:49:02.000Z</time>
      </trkpt>
      <trkpt lat="43.48127" lon="5.25092">
        <ele>110</ele>
        <time>2022-10-02T07:49:03.000Z</time>
      </trkpt>
      <trkpt lat="43.48127" lon="5.25094">
        <ele>110</ele>
        <time>2022-10-02T07:49:04.000Z</time>
      </trkpt>
      <trkpt lat="43.48128" lon="5.25096">
        <ele>110</ele>
        <time>2022-10-02T07:49:05.000Z</time>
      </trkpt>
      <trkpt lat="43.48129" lon="5.25098">
        <ele>110</ele>
        <time>2022-10-02T07:49:06.000Z</time>
      </trkpt>
      <trkpt lat="43.4813" lon="5.25099">
        <ele>110</ele>
        <time>2022-10-02T07:49:07.000Z</time>
      </trkpt>
      <trkpt lat="43.4813" lon="5.25101">
        <ele>110</ele>
        <time>2022-10-02T07:49:08.000Z</time>
      </trkpt>
      <trkpt lat="43.48131" lon="5.25103">
        <ele>109</ele>
        <time>2022-10-02T07:49:09.000Z</time>
      </trkpt>
      <trkpt lat="43.48131" lon="5.25105">
        <ele>109</ele>
        <time>2022-10-02T07:49:10.000Z</time>
      </trkpt>
      <trkpt lat="43.48132" lon="5.25107">
        <ele>109</ele>
        <time>2022-10-02T07:49:11.000Z</time>
      </trkpt>
      <trkpt lat="43.48132" lon="5.25109">
        <ele>109</ele>
        <time>2022-10-02T07:49:12.000Z</time>
      </trkpt>
      <trkpt lat="43.48132" lon="5.2511">
        <ele>109</ele>
        <time>2022-10-02T07:49:13.000Z</time>
      </trkpt>
      <trkpt lat="43.48133" lon="5.25112">
        <ele>109</ele>
        <time>2022-10-02T07:49:14.000Z</time>
      </trkpt>
      <trkpt lat="43.48133" lon="5.25114">
        <ele>109</ele>
        <time>2022-10-02T07:49:15.000Z</time>
      </trkpt>
      <trkpt lat="43.48133" lon="5.25116">
        <ele>109</ele>
        <time>2022-10-02T07:49:16.000Z</time>
      </trkpt>
      <trkpt lat="43.48133" lon="5.25118">
        <ele>109</ele>
        <time>2022-10-02T07:49:17.000Z</time>
      </trkpt>
      <trkpt lat="43.48134" lon="5.2512">
        <ele>108</ele>
        <time>2022-10-02T07:49:18.000Z</time>
      </trkpt>
      <trkpt lat="43.48134" lon="5.25122">
        <ele>108</ele>
        <time>2022-10-02T07:49:19.000Z</time>
      </trkpt>
      <trkpt lat="43.48134" lon="5.25124">
        <ele>108</ele>
        <time>2022-10-02T07:49:20.000Z</time>
      </trkpt>
      <trkpt lat="43.48134" lon="5.25126">
        <ele>108</ele>
        <time>2022-10-02T07:49:21.000Z</time>
      </trkpt>
      <trkpt lat="43.48134" lon="5.25128">
        <ele>108</ele>
        <time>2022-10-02T07:49:22.000Z</time>
      </trkpt>
      <trkpt lat="43.48133" lon="5.2513">
        <ele>108</ele>
        <time>2022-10-02T07:49:23.000Z</time>
      </trkpt>
      <trkpt lat="43.48132" lon="5.25132">
        <ele>108</ele>
        <time>2022-10-02T07:49:24.000Z</time>
      </trkpt>
      <trkpt lat="43.48132" lon="5.25133">
        <ele>108</ele>
        <time>2022-10-02T07:49:25.000Z</time>
      </trkpt>
      <trkpt lat="43.48131" lon="5.25135">
        <ele>108</ele>
        <time>2022-10-02T07:49:26.000Z</time>
      </trkpt>
      <trkpt lat="43.48131" lon="5.25137">
        <ele>108</ele>
        <time>2022-10-02T07:49:27.000Z</time>
      </trkpt>
      <trkpt lat="43.4813" lon="5.25138">
        <ele>108</ele>
        <time>2022-10-02T07:49:28.000Z</time>
      </trkpt>
      <trkpt lat="43.4813" lon="5.2514">
        <ele>108</ele>
        <time>2022-10-02T07:49:29.000Z</time>
      </trkpt>
      <trkpt lat="43.48129" lon="5.25141">
        <ele>108</ele>
        <time>2022-10-02T07:49:30.000Z</time>
      </trkpt>
      <trkpt lat="43.48128" lon="5.25143">
        <ele>108</ele>
        <time>2022-10-02T07:49:31.000Z</time>
      </trkpt>
      <trkpt lat="43.48127" lon="5.25144">
        <ele>108</ele>
        <time>2022-10-02T07:49:32.000Z</time>
      </trkpt>
      <trkpt lat="43.48126" lon="5.25146">
        <ele>108</ele>
        <time>2022-10-02T07:49:33.000Z</time>
      </trkpt>
      <trkpt lat="43.48126" lon="5.25147">
        <ele>108</ele>
        <time>2022-10-02T07:49:34.000Z</time>
      </trkpt>
      <trkpt lat="43.48125" lon="5.25149">
        <ele>108</ele>
        <time>2022-10-02T07:49:35.000Z</time>
      </trkpt>
      <trkpt lat="43.48125" lon="5.25151">
        <ele>108</ele>
        <time>2022-10-02T07:49:36.000Z</time>
      </trkpt>
      <trkpt lat="43.48124" lon="5.25152">
        <ele>108</ele>
        <time>2022-10-02T07:49:37.000Z</time>
      </trkpt>
      <trkpt lat="43.48124" lon="5.25154">
        <ele>108</ele>
        <time>2022-10-02T07:49:38.000Z</time>
      </trkpt>
      <trkpt lat="43.48123" lon="5.25155">
        <ele>108</ele>
        <time>2022-10-02T07:49:39.000Z</time>
      </trkpt>
      <trkpt lat="43.48122" lon="5.25156">
        <ele>109</ele>
        <time>2022-10-02T07:49:40.000Z</time>
      </trkpt>
      <trkpt lat="43.48121" lon="5.25157">
        <ele>109</ele>
        <time>2022-10-02T07:49:41.000Z</time>
      </trkpt>
      <trkpt lat="43.4812" lon="5.25158">
        <ele>109</ele>
        <time>2022-10-02T07:49:42.000Z</time>
      </trkpt>
      <trkpt lat="43.48119" lon="5.2516">
        <ele>109</ele>
        <time>2022-10-02T07:49:43.000Z</time>
      </trkpt>
      <trkpt lat="43.48118" lon="5.25161">
        <ele>109</ele>
        <time>2022-10-02T07:49:44.000Z</time>
      </trkpt>
      <trkpt lat="43.48117" lon="5.25162">
        <ele>109</ele>
        <time>2022-10-02T07:49:45.000Z</time>
      </trkpt>
      <trkpt lat="43.48116" lon="5.25164">
        <ele>109</ele>
        <time>2022-10-02T07:49:46.000Z</time>
      </trkpt>
      <trkpt lat="43.48115" lon="5.25165">
        <ele>110</ele>
        <time>2022-10-02T07:49:47.000Z</time>
      </trkpt>
      <trkpt lat="43.48114" lon="5.25166">
        <ele>110</ele>
        <time>2022-10-02T07:49:48.000Z</time>
      </trkpt>
      <trkpt lat="43.48113" lon="5.25167">
        <ele>110</ele>
        <time>2022-10-02T07:49:49.000Z</time>
      </trkpt>
      <trkpt lat="43.48113" lon="5.25169">
        <ele>110</ele>
        <time>2022-10-02T07:49:50.000Z</time>
      </trkpt>
      <trkpt lat="43.48112" lon="5.2517">
        <ele>110</ele>
        <time>2022-10-02T07:49:51.000Z</time>
      </trkpt>
      <trkpt lat="43.48111" lon="5.25171">
        <ele>110</ele>
        <time>2022-10-02T07:49:52.000Z</time>
      </trkpt>
      <trkpt lat="43.4811" lon="5.25172">
        <ele>111</ele>
        <time>2022-10-02T07:49:53.000Z</time>
      </trkpt>
      <trkpt lat="43.48109" lon="5.25173">
        <ele>111</ele>
        <time>2022-10-02T07:49:54.000Z</time>
      </trkpt>
      <trkpt lat="43.48108" lon="5.25174">
        <ele>111</ele>
        <time>2022-10-02T07:49:55.000Z</time>
      </trkpt>
      <trkpt lat="43.48107" lon="5.25175">
        <ele>111</ele>
        <time>2022-10-02T07:49:56.000Z</time>
      </trkpt>
      <trkpt lat="43.48106" lon="5.25176">
        <ele>111</ele>
        <time>2022-10-02T07:49:57.000Z</time>
      </trkpt>
      <trkpt lat="43.48105" lon="5.25177">
        <ele>111</ele>
        <time>2022-10-02T07:49:58.000Z</time>
      </trkpt>
      <trkpt lat="43.48104" lon="5.25178">
        <ele>111</ele>
        <time>2022-10-02T07:49:59.000Z</time>
      </trkpt>
      <trkpt lat="43.48103" lon="5.25179">
        <ele>111</ele>
        <time>2022-10-02T07:50:00.000Z</time>
      </trkpt>
      <trkpt lat="43.48102" lon="5.25181">
        <ele>112</ele>
        <time>2022-10-02T07:50:01.000Z</time>
      </trkpt>
      <trkpt lat="43.48101" lon="5.25181">
        <ele>112</ele>
        <time>2022-10-02T07:50:02.000Z</time>
      </trkpt>
      <trkpt lat="43.481" lon="5.25182">
        <ele>112</ele>
        <time>2022-10-02T07:50:03.000Z</time>
      </trkpt>
      <trkpt lat="43.48099" lon="5.25183">
        <ele>112</ele>
        <time>2022-10-02T07:50:04.000Z</time>
      </trkpt>
      <trkpt lat="43.48098" lon="5.25184">
        <ele>112</ele>
        <time>2022-10-02T07:50:05.000Z</time>
      </trkpt>
      <trkpt lat="43.48097" lon="5.25185">
        <ele>112</ele>
        <time>2022-10-02T07:50:06.000Z</time>
      </trkpt>
      <trkpt lat="43.48096" lon="5.25186">
        <ele>113</ele>
        <time>2022-10-02T07:50:07.000Z</time>
      </trkpt>
      <trkpt lat="43.48095" lon="5.25186">
        <ele>113</ele>
        <time>2022-10-02T07:50:08.000Z</time>
      </trkpt>
      <trkpt lat="43.48094" lon="5.25187">
        <ele>113</ele>
        <time>2022-10-02T07:50:09.000Z</time>
      </trkpt>
      <trkpt lat="43.48093" lon="5.25188">
        <ele>113</ele>
        <time>2022-10-02T07:50:10.000Z</time>
      </trkpt>
      <trkpt lat="43.48092" lon="5.25189">
        <ele>113</ele>
        <time>2022-10-02T07:50:11.000Z</time>
      </trkpt>
      <trkpt lat="43.48091" lon="5.25189">
        <ele>114</ele>
        <time>2022-10-02T07:50:12.000Z</time>
      </trkpt>
      <trkpt lat="43.4809" lon="5.2519">
        <ele>114</ele>
        <time>2022-10-02T07:50:13.000Z</time>
      </trkpt>
      <trkpt lat="43.48089" lon="5.25191">
        <ele>114</ele>
        <time>2022-10-02T07:50:14.000Z</time>
      </trkpt>
      <trkpt lat="43.48088" lon="5.25191">
        <ele>114</ele>
        <time>2022-10-02T07:50:15.000Z</time>
      </trkpt>
      <trkpt lat="43.48087" lon="5.25192">
        <ele>114</ele>
        <time>2022-10-02T07:50:16.000Z</time>
      </trkpt>
      <trkpt lat="43.48086" lon="5.25192">
        <ele>114</ele>
        <time>2022-10-02T07:50:17.000Z</time>
      </trkpt>
      <trkpt lat="43.48085" lon="5.25193">
        <ele>114</ele>
        <time>2022-10-02T07:50:18.000Z</time>
      </trkpt>
      <trkpt lat="43.48084" lon="5.25194">
        <ele>114</ele>
        <time>2022-10-02T07:50:19.000Z</time>
      </trkpt>
      <trkpt lat="43.48083" lon="5.25195">
        <ele>114</ele>
        <time>2022-10-02T07:50:20.000Z</time>
      </trkpt>
      <trkpt lat="43.48082" lon="5.25196">
        <ele>114</ele>
        <time>2022-10-02T07:50:21.000Z</time>
      </trkpt>
      <trkpt lat="43.48081" lon="5.25196">
        <ele>115</ele>
        <time>2022-10-02T07:50:22.000Z</time>
      </trkpt>
      <trkpt lat="43.4808" lon="5.25197">
        <ele>115</ele>
        <time>2022-10-02T07:50:23.000Z</time>
      </trkpt>
      <trkpt lat="43.48079" lon="5.25197">
        <ele>115</ele>
        <time>2022-10-02T07:50:24.000Z</time>
      </trkpt>
      <trkpt lat="43.48078" lon="5.25198">
        <ele>115</ele>
        <time>2022-10-02T07:50:25.000Z</time>
      </trkpt>
      <trkpt lat="43.48077" lon="5.25199">
        <ele>115</ele>
        <time>2022-10-02T07:50:26.000Z</time>
      </trkpt>
      <trkpt lat="43.48076" lon="5.25199">
        <ele>115</ele>
        <time>2022-10-02T07:50:27.000Z</time>
      </trkpt>
      <trkpt lat="43.48075" lon="5.252">
        <ele>115</ele>
        <time>2022-10-02T07:50:28.000Z</time>
      </trkpt>
      <trkpt lat="43.48074" lon="5.252">
        <ele>116</ele>
        <time>2022-10-02T07:50:29.000Z</time>
      </trkpt>
      <trkpt lat="43.48073" lon="5.25201">
        <ele>116</ele>
        <time>2022-10-02T07:50:30.000Z</time>
      </trkpt>
      <trkpt lat="43.48072" lon="5.25202">
        <ele>116</ele>
        <time>2022-10-02T07:50:31.000Z</time>
      </trkpt>
      <trkpt lat="43.48071" lon="5.25202">
        <ele>116</ele>
        <time>2022-10-02T07:50:32.000Z</time>
      </trkpt>
      <trkpt lat="43.4807" lon="5.25203">
        <ele>116</ele>
        <time>2022-10-02T07:50:33.000Z</time>
      </trkpt>
      <trkpt lat="43.48068" lon="5.25203">
        <ele>117</ele>
        <time>2022-10-02T07:50:34.000Z</time>
      </trkpt>
      <trkpt lat="43.48067" lon="5.25204">
        <ele>117</ele>
        <time>2022-10-02T07:50:35.000Z</time>
      </trkpt>
      <trkpt lat="43.48067" lon="5.25205">
        <ele>117</ele>
        <time>2022-10-02T07:50:36.000Z</time>
      </trkpt>
      <trkpt lat="43.48065" lon="5.25206">
        <ele>117</ele>
        <time>2022-10-02T07:50:37.000Z</time>
      </trkpt>
      <trkpt lat="43.48064" lon="5.25206">
        <ele>118</ele>
        <time>2022-10-02T07:50:38.000Z</time>
      </trkpt>
      <trkpt lat="43.48063" lon="5.25207">
        <ele>118</ele>
        <time>2022-10-02T07:50:39.000Z</time>
      </trkpt>
      <trkpt lat="43.48062" lon="5.25208">
        <ele>118</ele>
        <time>2022-10-02T07:50:40.000Z</time>
      </trkpt>
      <trkpt lat="43.48061" lon="5.25209">
        <ele>118</ele>
        <time>2022-10-02T07:50:41.000Z</time>
      </trkpt>
      <trkpt lat="43.4806" lon="5.2521">
        <ele>118</ele>
        <time>2022-10-02T07:50:42.000Z</time>
      </trkpt>
      <trkpt lat="43.48059" lon="5.25211">
        <ele>119</ele>
        <time>2022-10-02T07:50:43.000Z</time>
      </trkpt>
      <trkpt lat="43.48058" lon="5.25212">
        <ele>119</ele>
        <time>2022-10-02T07:50:44.000Z</time>
      </trkpt>
      <trkpt lat="43.48057" lon="5.25213">
        <ele>119</ele>
        <time>2022-10-02T07:50:45.000Z</time>
      </trkpt>
      <trkpt lat="43.48056" lon="5.25214">
        <ele>119</ele>
        <time>2022-10-02T07:50:46.000Z</time>
      </trkpt>
      <trkpt lat="43.48056" lon="5.25215">
        <ele>119</ele>
        <time>2022-10-02T07:50:47.000Z</time>
      </trkpt>
      <trkpt lat="43.48054" lon="5.25216">
        <ele>120</ele>
        <time>2022-10-02T07:50:48.000Z</time>
      </trkpt>
      <trkpt lat="43.48053" lon="5.25218">
        <ele>120</ele>
        <time>2022-10-02T07:50:49.000Z</time>
      </trkpt>
      <trkpt lat="43.48052" lon="5.25219">
        <ele>120</ele>
        <time>2022-10-02T07:50:50.000Z</time>
      </trkpt>
      <trkpt lat="43.48051" lon="5.2522">
        <ele>120</ele>
        <time>2022-10-02T07:50:51.000Z</time>
      </trkpt>
      <trkpt lat="43.4805" lon="5.25221">
        <ele>120</ele>
        <time>2022-10-02T07:50:52.000Z</time>
      </trkpt>
      <trkpt lat="43.48049" lon="5.25222">
        <ele>120</ele>
        <time>2022-10-02T07:50:53.000Z</time>
      </trkpt>
      <trkpt lat="43.48047" lon="5.25223">
        <ele>121</ele>
        <time>2022-10-02T07:50:54.000Z</time>
      </trkpt>
      <trkpt lat="43.48046" lon="5.25224">
        <ele>121</ele>
        <time>2022-10-02T07:50:55.000Z</time>
      </trkpt>
      <trkpt lat="43.48045" lon="5.25225">
        <ele>121</ele>
        <time>2022-10-02T07:50:56.000Z</time>
      </trkpt>
      <trkpt lat="43.48044" lon="5.25227">
        <ele>121</ele>
        <time>2022-10-02T07:50:57.000Z</time>
      </trkpt>
      <trkpt lat="43.48043" lon="5.25228">
        <ele>121</ele>
        <time>2022-10-02T07:50:58.000Z</time>
      </trkpt>
      <trkpt lat="43.48042" lon="5.2523">
        <ele>122</ele>
        <time>2022-10-02T07:50:59.000Z</time>
      </trkpt>
      <trkpt lat="43.48041" lon="5.25231">
        <ele>122</ele>
        <time>2022-10-02T07:51:00.000Z</time>
      </trkpt>
      <trkpt lat="43.48041" lon="5.25233">
        <ele>122</ele>
        <time>2022-10-02T07:51:01.000Z</time>
      </trkpt>
      <trkpt lat="43.4804" lon="5.25235">
        <ele>122</ele>
        <time>2022-10-02T07:51:02.000Z</time>
      </trkpt>
      <trkpt lat="43.48039" lon="5.25237">
        <ele>122</ele>
        <time>2022-10-02T07:51:03.000Z</time>
      </trkpt>
      <trkpt lat="43.48038" lon="5.25239">
        <ele>122</ele>
        <time>2022-10-02T07:51:04.000Z</time>
      </trkpt>
      <trkpt lat="43.48038" lon="5.25241">
        <ele>122</ele>
        <time>2022-10-02T07:51:05.000Z</time>
      </trkpt>
      <trkpt lat="43.48037" lon="5.25243">
        <ele>122</ele>
        <time>2022-10-02T07:51:06.000Z</time>
      </trkpt>
      <trkpt lat="43.48036" lon="5.25245">
        <ele>123</ele>
        <time>2022-10-02T07:51:07.000Z</time>
      </trkpt>
      <trkpt lat="43.48036" lon="5.25247">
        <ele>123</ele>
        <time>2022-10-02T07:51:08.000Z</time>
      </trkpt>
      <trkpt lat="43.48036" lon="5.25249">
        <ele>123</ele>
        <time>2022-10-02T07:51:09.000Z</time>
      </trkpt>
      <trkpt lat="43.48035" lon="5.25251">
        <ele>123</ele>
        <time>2022-10-02T07:51:10.000Z</time>
      </trkpt>
      <trkpt lat="43.48035" lon="5.25253">
        <ele>123</ele>
        <time>2022-10-02T07:51:11.000Z</time>
      </trkpt>
      <trkpt lat="43.48035" lon="5.25255">
        <ele>123</ele>
        <time>2022-10-02T07:51:12.000Z</time>
      </trkpt>
      <trkpt lat="43.48035" lon="5.25258">
        <ele>123</ele>
        <time>2022-10-02T07:51:13.000Z</time>
      </trkpt>
      <trkpt lat="43.48034" lon="5.2526">
        <ele>123</ele>
        <time>2022-10-02T07:51:14.000Z</time>
      </trkpt>
      <trkpt lat="43.48034" lon="5.25262">
        <ele>123</ele>
        <time>2022-10-02T07:51:15.000Z</time>
      </trkpt>
      <trkpt lat="43.48034" lon="5.25264">
        <ele>123</ele>
        <time>2022-10-02T07:51:16.000Z</time>
      </trkpt>
      <trkpt lat="43.48033" lon="5.25266">
        <ele>123</ele>
        <time>2022-10-02T07:51:17.000Z</time>
      </trkpt>
      <trkpt lat="43.48033" lon="5.25268">
        <ele>123</ele>
        <time>2022-10-02T07:51:18.000Z</time>
      </trkpt>
      <trkpt lat="43.48033" lon="5.2527">
        <ele>123</ele>
        <time>2022-10-02T07:51:19.000Z</time>
      </trkpt>
      <trkpt lat="43.48033" lon="5.25272">
        <ele>123</ele>
        <time>2022-10-02T07:51:20.000Z</time>
      </trkpt>
      <trkpt lat="43.48033" lon="5.25275">
        <ele>123</ele>
        <time>2022-10-02T07:51:21.000Z</time>
      </trkpt>
      <trkpt lat="43.48032" lon="5.25276">
        <ele>123</ele>
        <time>2022-10-02T07:51:22.000Z</time>
      </trkpt>
      <trkpt lat="43.48031" lon="5.25278">
        <ele>123</ele>
        <time>2022-10-02T07:51:23.000Z</time>
      </trkpt>
      <trkpt lat="43.48031" lon="5.2528">
        <ele>123</ele>
        <time>2022-10-02T07:51:24.000Z</time>
      </trkpt>
      <trkpt lat="43.4803" lon="5.25282">
        <ele>123</ele>
        <time>2022-10-02T07:51:25.000Z</time>
      </trkpt>
      <trkpt lat="43.48028" lon="5.25284">
        <ele>123</ele>
        <time>2022-10-02T07:51:26.000Z</time>
      </trkpt>
      <trkpt lat="43.48027" lon="5.25286">
        <ele>123</ele>
        <time>2022-10-02T07:51:27.000Z</time>
      </trkpt>
      <trkpt lat="43.48026" lon="5.25287">
        <ele>123</ele>
        <time>2022-10-02T07:51:28.000Z</time>
      </trkpt>
      <trkpt lat="43.48025" lon="5.25288">
        <ele>123</ele>
        <time>2022-10-02T07:51:29.000Z</time>
      </trkpt>
      <trkpt lat="43.48024" lon="5.2529">
        <ele>123</ele>
        <time>2022-10-02T07:51:30.000Z</time>
      </trkpt>
      <trkpt lat="43.48023" lon="5.25291">
        <ele>123</ele>
        <time>2022-10-02T07:51:31.000Z</time>
      </trkpt>
      <trkpt lat="43.48021" lon="5.25292">
        <ele>123</ele>
        <time>2022-10-02T07:51:32.000Z</time>
      </trkpt>
      <trkpt lat="43.4802" lon="5.25294">
        <ele>123</ele>
        <time>2022-10-02T07:51:33.000Z</time>
      </trkpt>
      <trkpt lat="43.48019" lon="5.25295">
        <ele>123</ele>
        <time>2022-10-02T07:51:34.000Z</time>
      </trkpt>
      <trkpt lat="43.48018" lon="5.25296">
        <ele>123</ele>
        <time>2022-10-02T07:51:35.000Z</time>
      </trkpt>
      <trkpt lat="43.48017" lon="5.25297">
        <ele>123</ele>
        <time>2022-10-02T07:51:36.000Z</time>
      </trkpt>
      <trkpt lat="43.48016" lon="5.25298">
        <ele>123</ele>
        <time>2022-10-02T07:51:37.000Z</time>
      </trkpt>
      <trkpt lat="43.48015" lon="5.253">
        <ele>123</ele>
        <time>2022-10-02T07:51:38.000Z</time>
      </trkpt>
      <trkpt lat="43.48014" lon="5.25301">
        <ele>124</ele>
        <time>2022-10-02T07:51:39.000Z</time>
      </trkpt>
      <trkpt lat="43.48012" lon="5.25302">
        <ele>124</ele>
        <time>2022-10-02T07:51:40.000Z</time>
      </trkpt>
      <trkpt lat="43.48011" lon="5.25303">
        <ele>124</ele>
        <time>2022-10-02T07:51:41.000Z</time>
      </trkpt>
      <trkpt lat="43.4801" lon="5.25304">
        <ele>124</ele>
        <time>2022-10-02T07:51:42.000Z</time>
      </trkpt>
      <trkpt lat="43.48009" lon="5.25305">
        <ele>124</ele>
        <time>2022-10-02T07:51:43.000Z</time>
      </trkpt>
      <trkpt lat="43.48008" lon="5.25306">
        <ele>124</ele>
        <time>2022-10-02T07:51:44.000Z</time>
      </trkpt>
      <trkpt lat="43.48007" lon="5.25307">
        <ele>124</ele>
        <time>2022-10-02T07:51:45.000Z</time>
      </trkpt>
      <trkpt lat="43.48006" lon="5.25308">
        <ele>124</ele>
        <time>2022-10-02T07:51:46.000Z</time>
      </trkpt>
      <trkpt lat="43.48005" lon="5.25309">
        <ele>124</ele>
        <time>2022-10-02T07:51:47.000Z</time>
      </trkpt>
      <trkpt lat="43.48004" lon="5.2531">
        <ele>125</ele>
        <time>2022-10-02T07:51:48.000Z</time>
      </trkpt>
      <trkpt lat="43.48003" lon="5.25311">
        <ele>125</ele>
        <time>2022-10-02T07:51:49.000Z</time>
      </trkpt>
      <trkpt lat="43.48001" lon="5.25313">
        <ele>125</ele>
        <time>2022-10-02T07:51:50.000Z</time>
      </trkpt>
      <trkpt lat="43.48" lon="5.25314">
        <ele>125</ele>
        <time>2022-10-02T07:51:51.000Z</time>
      </trkpt>
      <trkpt lat="43.47999" lon="5.25314">
        <ele>125</ele>
        <time>2022-10-02T07:51:52.000Z</time>
      </trkpt>
      <trkpt lat="43.47999" lon="5.25316">
        <ele>126</ele>
        <time>2022-10-02T07:51:53.000Z</time>
      </trkpt>
      <trkpt lat="43.47998" lon="5.25317">
        <ele>126</ele>
        <time>2022-10-02T07:51:54.000Z</time>
      </trkpt>
      <trkpt lat="43.47997" lon="5.25317">
        <ele>126</ele>
        <time>2022-10-02T07:51:55.000Z</time>
      </trkpt>
      <trkpt lat="43.47996" lon="5.25318">
        <ele>126</ele>
        <time>2022-10-02T07:51:56.000Z</time>
      </trkpt>
      <trkpt lat="43.47995" lon="5.25319">
        <ele>126</ele>
        <time>2022-10-02T07:51:57.000Z</time>
      </trkpt>
      <trkpt lat="43.47994" lon="5.2532">
        <ele>126</ele>
        <time>2022-10-02T07:51:58.000Z</time>
      </trkpt>
      <trkpt lat="43.47993" lon="5.25321">
        <ele>127</ele>
        <time>2022-10-02T07:51:59.000Z</time>
      </trkpt>
      <trkpt lat="43.47992" lon="5.25322">
        <ele>127</ele>
        <time>2022-10-02T07:52:00.000Z</time>
      </trkpt>
      <trkpt lat="43.47991" lon="5.25323">
        <ele>127</ele>
        <time>2022-10-02T07:52:01.000Z</time>
      </trkpt>
      <trkpt lat="43.4799" lon="5.25324">
        <ele>127</ele>
        <time>2022-10-02T07:52:02.000Z</time>
      </trkpt>
      <trkpt lat="43.47988" lon="5.25324">
        <ele>127</ele>
        <time>2022-10-02T07:52:03.000Z</time>
      </trkpt>
      <trkpt lat="43.47987" lon="5.25325">
        <ele>127</ele>
        <time>2022-10-02T07:52:04.000Z</time>
      </trkpt>
      <trkpt lat="43.47986" lon="5.25326">
        <ele>127</ele>
        <time>2022-10-02T07:52:05.000Z</time>
      </trkpt>
      <trkpt lat="43.47985" lon="5.25326">
        <ele>128</ele>
        <time>2022-10-02T07:52:06.000Z</time>
      </trkpt>
      <trkpt lat="43.47984" lon="5.25327">
        <ele>128</ele>
        <time>2022-10-02T07:52:07.000Z</time>
      </trkpt>
      <trkpt lat="43.47983" lon="5.25328">
        <ele>128</ele>
        <time>2022-10-02T07:52:08.000Z</time>
      </trkpt>
      <trkpt lat="43.47982" lon="5.25329">
        <ele>128</ele>
        <time>2022-10-02T07:52:09.000Z</time>
      </trkpt>
      <trkpt lat="43.47981" lon="5.2533">
        <ele>128</ele>
        <time>2022-10-02T07:52:10.000Z</time>
      </trkpt>
      <trkpt lat="43.4798" lon="5.25331">
        <ele>128</ele>
        <time>2022-10-02T07:52:11.000Z</time>
      </trkpt>
      <trkpt lat="43.47979" lon="5.25332">
        <ele>128</ele>
        <time>2022-10-02T07:52:12.000Z</time>
      </trkpt>
      <trkpt lat="43.47978" lon="5.25333">
        <ele>129</ele>
        <time>2022-10-02T07:52:13.000Z</time>
      </trkpt>
      <trkpt lat="43.47977" lon="5.25334">
        <ele>129</ele>
        <time>2022-10-02T07:52:14.000Z</time>
      </trkpt>
      <trkpt lat="43.47976" lon="5.25335">
        <ele>129</ele>
        <time>2022-10-02T07:52:15.000Z</time>
      </trkpt>
      <trkpt lat="43.47974" lon="5.25336">
        <ele>129</ele>
        <time>2022-10-02T07:52:16.000Z</time>
      </trkpt>
      <trkpt lat="43.47973" lon="5.25337">
        <ele>129</ele>
        <time>2022-10-02T07:52:17.000Z</time>
      </trkpt>
      <trkpt lat="43.47973" lon="5.25338">
        <ele>130</ele>
        <time>2022-10-02T07:52:18.000Z</time>
      </trkpt>
      <trkpt lat="43.47972" lon="5.2534">
        <ele>130</ele>
        <time>2022-10-02T07:52:19.000Z</time>
      </trkpt>
      <trkpt lat="43.47972" lon="5.25342">
        <ele>130</ele>
        <time>2022-10-02T07:52:20.000Z</time>
      </trkpt>
      <trkpt lat="43.47972" lon="5.25344">
        <ele>130</ele>
        <time>2022-10-02T07:52:21.000Z</time>
      </trkpt>
      <trkpt lat="43.47973" lon="5.25346">
        <ele>130</ele>
        <time>2022-10-02T07:52:22.000Z</time>
      </trkpt>
      <trkpt lat="43.47974" lon="5.25347">
        <ele>130</ele>
        <time>2022-10-02T07:52:23.000Z</time>
      </trkpt>
      <trkpt lat="43.47974" lon="5.25349">
        <ele>130</ele>
        <time>2022-10-02T07:52:24.000Z</time>
      </trkpt>
      <trkpt lat="43.47975" lon="5.25351">
        <ele>130</ele>
        <time>2022-10-02T07:52:25.000Z</time>
      </trkpt>
      <trkpt lat="43.47976" lon="5.25352">
        <ele>130</ele>
        <time>2022-10-02T07:52:26.000Z</time>
      </trkpt>
      <trkpt lat="43.47977" lon="5.25353">
        <ele>130</ele>
        <time>2022-10-02T07:52:27.000Z</time>
      </trkpt>
      <trkpt lat="43.47979" lon="5.25355">
        <ele>130</ele>
        <time>2022-10-02T07:52:28.000Z</time>
      </trkpt>
      <trkpt lat="43.4798" lon="5.25356">
        <ele>130</ele>
        <time>2022-10-02T07:52:29.000Z</time>
      </trkpt>
      <trkpt lat="43.47981" lon="5.25357">
        <ele>130</ele>
        <time>2022-10-02T07:52:30.000Z</time>
      </trkpt>
      <trkpt lat="43.47983" lon="5.25357">
        <ele>130</ele>
        <time>2022-10-02T07:52:31.000Z</time>
      </trkpt>
      <trkpt lat="43.47985" lon="5.25358">
        <ele>130</ele>
        <time>2022-10-02T07:52:32.000Z</time>
      </trkpt>
      <trkpt lat="43.47986" lon="5.25358">
        <ele>130</ele>
        <time>2022-10-02T07:52:33.000Z</time>
      </trkpt>
      <trkpt lat="43.47988" lon="5.25359">
        <ele>131</ele>
        <time>2022-10-02T07:52:34.000Z</time>
      </trkpt>
      <trkpt lat="43.47989" lon="5.25359">
        <ele>131</ele>
        <time>2022-10-02T07:52:35.000Z</time>
      </trkpt>
      <trkpt lat="43.47991" lon="5.2536">
        <ele>131</ele>
        <time>2022-10-02T07:52:36.000Z</time>
      </trkpt>
      <trkpt lat="43.47992" lon="5.25361">
        <ele>131</ele>
        <time>2022-10-02T07:52:37.000Z</time>
      </trkpt>
      <trkpt lat="43.47994" lon="5.25362">
        <ele>131</ele>
        <time>2022-10-02T07:52:38.000Z</time>
      </trkpt>
      <trkpt lat="43.47995" lon="5.25363">
        <ele>131</ele>
        <time>2022-10-02T07:52:39.000Z</time>
      </trkpt>
      <trkpt lat="43.47997" lon="5.25364">
        <ele>131</ele>
        <time>2022-10-02T07:52:40.000Z</time>
      </trkpt>
      <trkpt lat="43.47998" lon="5.25364">
        <ele>131</ele>
        <time>2022-10-02T07:52:41.000Z</time>
      </trkpt>
      <trkpt lat="43.47999" lon="5.25365">
        <ele>132</ele>
        <time>2022-10-02T07:52:42.000Z</time>
      </trkpt>
      <trkpt lat="43.48001" lon="5.25367">
        <ele>132</ele>
        <time>2022-10-02T07:52:43.000Z</time>
      </trkpt>
      <trkpt lat="43.48002" lon="5.25367">
        <ele>132</ele>
        <time>2022-10-02T07:52:44.000Z</time>
      </trkpt>
      <trkpt lat="43.48003" lon="5.25368">
        <ele>132</ele>
        <time>2022-10-02T07:52:45.000Z</time>
      </trkpt>
      <trkpt lat="43.48005" lon="5.25369">
        <ele>132</ele>
        <time>2022-10-02T07:52:46.000Z</time>
      </trkpt>
      <trkpt lat="43.48006" lon="5.2537">
        <ele>132</ele>
        <time>2022-10-02T07:52:47.000Z</time>
      </trkpt>
      <trkpt lat="43.48007" lon="5.25371">
        <ele>132</ele>
        <time>2022-10-02T07:52:48.000Z</time>
      </trkpt>
      <trkpt lat="43.48008" lon="5.25373">
        <ele>132</ele>
        <time>2022-10-02T07:52:49.000Z</time>
      </trkpt>
      <trkpt lat="43.48009" lon="5.25374">
        <ele>133</ele>
        <time>2022-10-02T07:52:50.000Z</time>
      </trkpt>
      <trkpt lat="43.48011" lon="5.25375">
        <ele>133</ele>
        <time>2022-10-02T07:52:51.000Z</time>
      </trkpt>
      <trkpt lat="43.48012" lon="5.25376">
        <ele>133</ele>
        <time>2022-10-02T07:52:52.000Z</time>
      </trkpt>
      <trkpt lat="43.48013" lon="5.25378">
        <ele>133</ele>
        <time>2022-10-02T07:52:53.000Z</time>
      </trkpt>
      <trkpt lat="43.48013" lon="5.25379">
        <ele>133</ele>
        <time>2022-10-02T07:52:54.000Z</time>
      </trkpt>
      <trkpt lat="43.48014" lon="5.25381">
        <ele>133</ele>
        <time>2022-10-02T07:52:55.000Z</time>
      </trkpt>
      <trkpt lat="43.48016" lon="5.25382">
        <ele>133</ele>
        <time>2022-10-02T07:52:56.000Z</time>
      </trkpt>
      <trkpt lat="43.48017" lon="5.25384">
        <ele>133</ele>
        <time>2022-10-02T07:52:57.000Z</time>
      </trkpt>
      <trkpt lat="43.48018" lon="5.25386">
        <ele>133</ele>
        <time>2022-10-02T07:52:58.000Z</time>
      </trkpt>
      <trkpt lat="43.48019" lon="5.25387">
        <ele>133</ele>
        <time>2022-10-02T07:52:59.000Z</time>
      </trkpt>
      <trkpt lat="43.4802" lon="5.25389">
        <ele>133</ele>
        <time>2022-10-02T07:53:00.000Z</time>
      </trkpt>
      <trkpt lat="43.48021" lon="5.25391">
        <ele>133</ele>
        <time>2022-10-02T07:53:01.000Z</time>
      </trkpt>
      <trkpt lat="43.48022" lon="5.25393">
        <ele>133</ele>
        <time>2022-10-02T07:53:02.000Z</time>
      </trkpt>
      <trkpt lat="43.48023" lon="5.25395">
        <ele>134</ele>
        <time>2022-10-02T07:53:03.000Z</time>
      </trkpt>
      <trkpt lat="43.48024" lon="5.25397">
        <ele>134</ele>
        <time>2022-10-02T07:53:04.000Z</time>
      </trkpt>
      <trkpt lat="43.48026" lon="5.25398">
        <ele>134</ele>
        <time>2022-10-02T07:53:05.000Z</time>
      </trkpt>
      <trkpt lat="43.48027" lon="5.25399">
        <ele>134</ele>
        <time>2022-10-02T07:53:06.000Z</time>
      </trkpt>
      <trkpt lat="43.48028" lon="5.25401">
        <ele>134</ele>
        <time>2022-10-02T07:53:07.000Z</time>
      </trkpt>
      <trkpt lat="43.4803" lon="5.25402">
        <ele>134</ele>
        <time>2022-10-02T07:53:08.000Z</time>
      </trkpt>
      <trkpt lat="43.48031" lon="5.25404">
        <ele>134</ele>
        <time>2022-10-02T07:53:09.000Z</time>
      </trkpt>
      <trkpt lat="43.48033" lon="5.25405">
        <ele>134</ele>
        <time>2022-10-02T07:53:10.000Z</time>
      </trkpt>
      <trkpt lat="43.48034" lon="5.25406">
        <ele>134</ele>
        <time>2022-10-02T07:53:11.000Z</time>
      </trkpt>
      <trkpt lat="43.48036" lon="5.25407">
        <ele>134</ele>
        <time>2022-10-02T07:53:12.000Z</time>
      </trkpt>
      <trkpt lat="43.48037" lon="5.25408">
        <ele>134</ele>
        <time>2022-10-02T07:53:13.000Z</time>
      </trkpt>
      <trkpt lat="43.48039" lon="5.25409">
        <ele>133</ele>
        <time>2022-10-02T07:53:14.000Z</time>
      </trkpt>
      <trkpt lat="43.4804" lon="5.25409">
        <ele>133</ele>
        <time>2022-10-02T07:53:15.000Z</time>
      </trkpt>
      <trkpt lat="43.48042" lon="5.2541">
        <ele>133</ele>
        <time>2022-10-02T07:53:16.000Z</time>
      </trkpt>
      <trkpt lat="43.48043" lon="5.25411">
        <ele>133</ele>
        <time>2022-10-02T07:53:17.000Z</time>
      </trkpt>
      <trkpt lat="43.48045" lon="5.25411">
        <ele>133</ele>
        <time>2022-10-02T07:53:18.000Z</time>
      </trkpt>
      <trkpt lat="43.48046" lon="5.25412">
        <ele>134</ele>
        <time>2022-10-02T07:53:19.000Z</time>
      </trkpt>
      <trkpt lat="43.48048" lon="5.25412">
        <ele>134</ele>
        <time>2022-10-02T07:53:20.000Z</time>
      </trkpt>
      <trkpt lat="43.48049" lon="5.25412">
        <ele>134</ele>
        <time>2022-10-02T07:53:21.000Z</time>
      </trkpt>
      <trkpt lat="43.48051" lon="5.25413">
        <ele>134</ele>
        <time>2022-10-02T07:53:22.000Z</time>
      </trkpt>
      <trkpt lat="43.48053" lon="5.25413">
        <ele>134</ele>
        <time>2022-10-02T07:53:23.000Z</time>
      </trkpt>
      <trkpt lat="43.48054" lon="5.25413">
        <ele>134</ele>
        <time>2022-10-02T07:53:24.000Z</time>
      </trkpt>
      <trkpt lat="43.48056" lon="5.25413">
        <ele>134</ele>
        <time>2022-10-02T07:53:25.000Z</time>
      </trkpt>
      <trkpt lat="43.48057" lon="5.25414">
        <ele>134</ele>
        <time>2022-10-02T07:53:26.000Z</time>
      </trkpt>
      <trkpt lat="43.48059" lon="5.25414">
        <ele>134</ele>
        <time>2022-10-02T07:53:27.000Z</time>
      </trkpt>
      <trkpt lat="43.48061" lon="5.25415">
        <ele>134</ele>
        <time>2022-10-02T07:53:28.000Z</time>
      </trkpt>
      <trkpt lat="43.48062" lon="5.25416">
        <ele>134</ele>
        <time>2022-10-02T07:53:29.000Z</time>
      </trkpt>
      <trkpt lat="43.48064" lon="5.25417">
        <ele>134</ele>
        <time>2022-10-02T07:53:30.000Z</time>
      </trkpt>
      <trkpt lat="43.48065" lon="5.25418">
        <ele>134</ele>
        <time>2022-10-02T07:53:31.000Z</time>
      </trkpt>
      <trkpt lat="43.48066" lon="5.25418">
        <ele>134</ele>
        <time>2022-10-02T07:53:32.000Z</time>
      </trkpt>
      <trkpt lat="43.48067" lon="5.25419">
        <ele>134</ele>
        <time>2022-10-02T07:53:33.000Z</time>
      </trkpt>
      <trkpt lat="43.48069" lon="5.25421">
        <ele>135</ele>
        <time>2022-10-02T07:53:34.000Z</time>
      </trkpt>
      <trkpt lat="43.4807" lon="5.25422">
        <ele>135</ele>
        <time>2022-10-02T07:53:35.000Z</time>
      </trkpt>
      <trkpt lat="43.48072" lon="5.25423">
        <ele>135</ele>
        <time>2022-10-02T07:53:36.000Z</time>
      </trkpt>
      <trkpt lat="43.48073" lon="5.25424">
        <ele>135</ele>
        <time>2022-10-02T07:53:37.000Z</time>
      </trkpt>
      <trkpt lat="43.48074" lon="5.25425">
        <ele>135</ele>
        <time>2022-10-02T07:53:38.000Z</time>
      </trkpt>
      <trkpt lat="43.48076" lon="5.25427">
        <ele>135</ele>
        <time>2022-10-02T07:53:39.000Z</time>
      </trkpt>
      <trkpt lat="43.48077" lon="5.25427">
        <ele>135</ele>
        <time>2022-10-02T07:53:40.000Z</time>
      </trkpt>
      <trkpt lat="43.48078" lon="5.25428">
        <ele>135</ele>
        <time>2022-10-02T07:53:41.000Z</time>
      </trkpt>
      <trkpt lat="43.48079" lon="5.25429">
        <ele>135</ele>
        <time>2022-10-02T07:53:42.000Z</time>
      </trkpt>
      <trkpt lat="43.4808" lon="5.2543">
        <ele>135</ele>
        <time>2022-10-02T07:53:43.000Z</time>
      </trkpt>
      <trkpt lat="43.48081" lon="5.2543">
        <ele>135</ele>
        <time>2022-10-02T07:53:44.000Z</time>
      </trkpt>
      <trkpt lat="43.48081" lon="5.2543">
        <ele>135</ele>
        <time>2022-10-02T07:53:45.000Z</time>
      </trkpt>
      <trkpt lat="43.48081" lon="5.2543">
        <ele>135</ele>
        <time>2022-10-02T07:53:46.000Z</time>
      </trkpt>
      <trkpt lat="43.48081" lon="5.2543">
        <ele>135</ele>
        <time>2022-10-02T07:53:47.000Z</time>
      </trkpt>
      <trkpt lat="43.48082" lon="5.2543">
        <ele>135</ele>
        <time>2022-10-02T07:53:48.000Z</time>
      </trkpt>
      <trkpt lat="43.48083" lon="5.25431">
        <ele>135</ele>
        <time>2022-10-02T07:53:49.000Z</time>
      </trkpt>
      <trkpt lat="43.48083" lon="5.25431">
        <ele>135</ele>
        <time>2022-10-02T07:53:50.000Z</time>
      </trkpt>
      <trkpt lat="43.48084" lon="5.25432">
        <ele>135</ele>
        <time>2022-10-02T07:53:51.000Z</time>
      </trkpt>
      <trkpt lat="43.48084" lon="5.25432">
        <ele>135</ele>
        <time>2022-10-02T07:53:52.000Z</time>
      </trkpt>
      <trkpt lat="43.48084" lon="5.25432">
        <ele>135</ele>
        <time>2022-10-02T07:53:53.000Z</time>
      </trkpt>
      <trkpt lat="43.48084" lon="5.25432">
        <ele>135</ele>
        <time>2022-10-02T07:53:54.000Z</time>
      </trkpt>
      <trkpt lat="43.48084" lon="5.25432">
        <ele>135</ele>
        <time>2022-10-02T07:53:55.000Z</time>
      </trkpt>
      <trkpt lat="43.48084" lon="5.25433">
        <ele>135</ele>
        <time>2022-10-02T07:53:56.000Z</time>
      </trkpt>
      <trkpt lat="43.48084" lon="5.25433">
        <ele>135</ele>
        <time>2022-10-02T07:53:57.000Z</time>
      </trkpt>
      <trkpt lat="43.48085" lon="5.25433">
        <ele>135</ele>
        <time>2022-10-02T07:53:58.000Z</time>
      </trkpt>
      <trkpt lat="43.48085" lon="5.25433">
        <ele>135</ele>
        <time>2022-10-02T07:53:59.000Z</time>
      </trkpt>
      <trkpt lat="43.48085" lon="5.25433">
        <ele>135</ele>
        <time>2022-10-02T07:54:00.000Z</time>
      </trkpt>
      <trkpt lat="43.48084" lon="5.25433">
        <ele>135</ele>
        <time>2022-10-02T07:54:01.000Z</time>
      </trkpt>
      <trkpt lat="43.48084" lon="5.25433">
        <ele>135</ele>
        <time>2022-10-02T07:54:02.000Z</time>
      </trkpt>
      <trkpt lat="43.48085" lon="5.25433">
        <ele>135</ele>
        <time>2022-10-02T07:54:03.000Z</time>
      </trkpt>
      <trkpt lat="43.48085" lon="5.25433">
        <ele>135</ele>
        <time>2022-10-02T07:54:04.000Z</time>
      </trkpt>
      <trkpt lat="43.48086" lon="5.25433">
        <ele>135</ele>
        <time>2022-10-02T07:54:05.000Z</time>
      </trkpt>
      <trkpt lat="43.48087" lon="5.25434">
        <ele>135</ele>
        <time>2022-10-02T07:54:06.000Z</time>
      </trkpt>
      <trkpt lat="43.48088" lon="5.25435">
        <ele>135</ele>
        <time>2022-10-02T07:54:07.000Z</time>
      </trkpt>
      <trkpt lat="43.4809" lon="5.25436">
        <ele>135</ele>
        <time>2022-10-02T07:54:08.000Z</time>
      </trkpt>
      <trkpt lat="43.48091" lon="5.25437">
        <ele>135</ele>
        <time>2022-10-02T07:54:09.000Z</time>
      </trkpt>
      <trkpt lat="43.48093" lon="5.25438">
        <ele>135</ele>
        <time>2022-10-02T07:54:10.000Z</time>
      </trkpt>
      <trkpt lat="43.48094" lon="5.25439">
        <ele>135</ele>
        <time>2022-10-02T07:54:11.000Z</time>
      </trkpt>
      <trkpt lat="43.48096" lon="5.2544">
        <ele>134</ele>
        <time>2022-10-02T07:54:12.000Z</time>
      </trkpt>
      <trkpt lat="43.48097" lon="5.25441">
        <ele>134</ele>
        <time>2022-10-02T07:54:13.000Z</time>
      </trkpt>
      <trkpt lat="43.48098" lon="5.25442">
        <ele>134</ele>
        <time>2022-10-02T07:54:14.000Z</time>
      </trkpt>
      <trkpt lat="43.481" lon="5.25443">
        <ele>134</ele>
        <time>2022-10-02T07:54:15.000Z</time>
      </trkpt>
      <trkpt lat="43.48101" lon="5.25444">
        <ele>135</ele>
        <time>2022-10-02T07:54:16.000Z</time>
      </trkpt>
      <trkpt lat="43.48103" lon="5.25445">
        <ele>135</ele>
        <time>2022-10-02T07:54:17.000Z</time>
      </trkpt>
      <trkpt lat="43.48105" lon="5.25446">
        <ele>135</ele>
        <time>2022-10-02T07:54:18.000Z</time>
      </trkpt>
      <trkpt lat="43.48106" lon="5.25447">
        <ele>135</ele>
        <time>2022-10-02T07:54:19.000Z</time>
      </trkpt>
      <trkpt lat="43.48108" lon="5.25447">
        <ele>135</ele>
        <time>2022-10-02T07:54:20.000Z</time>
      </trkpt>
      <trkpt lat="43.48109" lon="5.25448">
        <ele>135</ele>
        <time>2022-10-02T07:54:21.000Z</time>
      </trkpt>
      <trkpt lat="43.4811" lon="5.2545">
        <ele>135</ele>
        <time>2022-10-02T07:54:22.000Z</time>
      </trkpt>
      <trkpt lat="43.48112" lon="5.25451">
        <ele>135</ele>
        <time>2022-10-02T07:54:23.000Z</time>
      </trkpt>
      <trkpt lat="43.48113" lon="5.25451">
        <ele>135</ele>
        <time>2022-10-02T07:54:24.000Z</time>
      </trkpt>
      <trkpt lat="43.48114" lon="5.25452">
        <ele>135</ele>
        <time>2022-10-02T07:54:25.000Z</time>
      </trkpt>
      <trkpt lat="43.48116" lon="5.25453">
        <ele>135</ele>
        <time>2022-10-02T07:54:26.000Z</time>
      </trkpt>
      <trkpt lat="43.48117" lon="5.25453">
        <ele>135</ele>
        <time>2022-10-02T07:54:27.000Z</time>
      </trkpt>
      <trkpt lat="43.48119" lon="5.25454">
        <ele>135</ele>
        <time>2022-10-02T07:54:28.000Z</time>
      </trkpt>
      <trkpt lat="43.4812" lon="5.25455">
        <ele>135</ele>
        <time>2022-10-02T07:54:29.000Z</time>
      </trkpt>
      <trkpt lat="43.48121" lon="5.25455">
        <ele>136</ele>
        <time>2022-10-02T07:54:30.000Z</time>
      </trkpt>
      <trkpt lat="43.48123" lon="5.25456">
        <ele>136</ele>
        <time>2022-10-02T07:54:31.000Z</time>
      </trkpt>
      <trkpt lat="43.48125" lon="5.25456">
        <ele>136</ele>
        <time>2022-10-02T07:54:32.000Z</time>
      </trkpt>
      <trkpt lat="43.48126" lon="5.25457">
        <ele>136</ele>
        <time>2022-10-02T07:54:33.000Z</time>
      </trkpt>
      <trkpt lat="43.48128" lon="5.25457">
        <ele>136</ele>
        <time>2022-10-02T07:54:34.000Z</time>
      </trkpt>
      <trkpt lat="43.4813" lon="5.25458">
        <ele>136</ele>
        <time>2022-10-02T07:54:35.000Z</time>
      </trkpt>
      <trkpt lat="43.48132" lon="5.25458">
        <ele>136</ele>
        <time>2022-10-02T07:54:36.000Z</time>
      </trkpt>
      <trkpt lat="43.48134" lon="5.25458">
        <ele>136</ele>
        <time>2022-10-02T07:54:37.000Z</time>
      </trkpt>
      <trkpt lat="43.48135" lon="5.25459">
        <ele>136</ele>
        <time>2022-10-02T07:54:38.000Z</time>
      </trkpt>
      <trkpt lat="43.48137" lon="5.25459">
        <ele>136</ele>
        <time>2022-10-02T07:54:39.000Z</time>
      </trkpt>
      <trkpt lat="43.48138" lon="5.25459">
        <ele>136</ele>
        <time>2022-10-02T07:54:40.000Z</time>
      </trkpt>
      <trkpt lat="43.4814" lon="5.25459">
        <ele>136</ele>
        <time>2022-10-02T07:54:41.000Z</time>
      </trkpt>
      <trkpt lat="43.48142" lon="5.25459">
        <ele>136</ele>
        <time>2022-10-02T07:54:42.000Z</time>
      </trkpt>
      <trkpt lat="43.48143" lon="5.25459">
        <ele>136</ele>
        <time>2022-10-02T07:54:43.000Z</time>
      </trkpt>
      <trkpt lat="43.48145" lon="5.25459">
        <ele>136</ele>
        <time>2022-10-02T07:54:44.000Z</time>
      </trkpt>
      <trkpt lat="43.48146" lon="5.25459">
        <ele>136</ele>
        <time>2022-10-02T07:54:45.000Z</time>
      </trkpt>
      <trkpt lat="43.48148" lon="5.25459">
        <ele>136</ele>
        <time>2022-10-02T07:54:46.000Z</time>
      </trkpt>
      <trkpt lat="43.4815" lon="5.25459">
        <ele>136</ele>
        <time>2022-10-02T07:54:47.000Z</time>
      </trkpt>
      <trkpt lat="43.48151" lon="5.25459">
        <ele>136</ele>
        <time>2022-10-02T07:54:48.000Z</time>
      </trkpt>
      <trkpt lat="43.48153" lon="5.25459">
        <ele>136</ele>
        <time>2022-10-02T07:54:49.000Z</time>
      </trkpt>
      <trkpt lat="43.48154" lon="5.25458">
        <ele>136</ele>
        <time>2022-10-02T07:54:50.000Z</time>
      </trkpt>
      <trkpt lat="43.48156" lon="5.25458">
        <ele>136</ele>
        <time>2022-10-02T07:54:51.000Z</time>
      </trkpt>
      <trkpt lat="43.48158" lon="5.25458">
        <ele>136</ele>
        <time>2022-10-02T07:54:52.000Z</time>
      </trkpt>
      <trkpt lat="43.48159" lon="5.25457">
        <ele>136</ele>
        <time>2022-10-02T07:54:53.000Z</time>
      </trkpt>
      <trkpt lat="43.48161" lon="5.25457">
        <ele>136</ele>
        <time>2022-10-02T07:54:54.000Z</time>
      </trkpt>
      <trkpt lat="43.48163" lon="5.25456">
        <ele>136</ele>
        <time>2022-10-02T07:54:55.000Z</time>
      </trkpt>
      <trkpt lat="43.48164" lon="5.25456">
        <ele>136</ele>
        <time>2022-10-02T07:54:56.000Z</time>
      </trkpt>
      <trkpt lat="43.48166" lon="5.25455">
        <ele>136</ele>
        <time>2022-10-02T07:54:57.000Z</time>
      </trkpt>
      <trkpt lat="43.48168" lon="5.25455">
        <ele>136</ele>
        <time>2022-10-02T07:54:58.000Z</time>
      </trkpt>
      <trkpt lat="43.48169" lon="5.25454">
        <ele>136</ele>
        <time>2022-10-02T07:54:59.000Z</time>
      </trkpt>
      <trkpt lat="43.48171" lon="5.25453">
        <ele>136</ele>
        <time>2022-10-02T07:55:00.000Z</time>
      </trkpt>
      <trkpt lat="43.48172" lon="5.25452">
        <ele>136</ele>
        <time>2022-10-02T07:55:01.000Z</time>
      </trkpt>
      <trkpt lat="43.48174" lon="5.25451">
        <ele>136</ele>
        <time>2022-10-02T07:55:02.000Z</time>
      </trkpt>
      <trkpt lat="43.48175" lon="5.2545">
        <ele>136</ele>
        <time>2022-10-02T07:55:03.000Z</time>
      </trkpt>
      <trkpt lat="43.48177" lon="5.25449">
        <ele>136</ele>
        <time>2022-10-02T07:55:04.000Z</time>
      </trkpt>
      <trkpt lat="43.48178" lon="5.25448">
        <ele>136</ele>
        <time>2022-10-02T07:55:05.000Z</time>
      </trkpt>
      <trkpt lat="43.4818" lon="5.25447">
        <ele>137</ele>
        <time>2022-10-02T07:55:06.000Z</time>
      </trkpt>
      <trkpt lat="43.48181" lon="5.25447">
        <ele>137</ele>
        <time>2022-10-02T07:55:07.000Z</time>
      </trkpt>
      <trkpt lat="43.48183" lon="5.25446">
        <ele>137</ele>
        <time>2022-10-02T07:55:08.000Z</time>
      </trkpt>
      <trkpt lat="43.48184" lon="5.25445">
        <ele>137</ele>
        <time>2022-10-02T07:55:09.000Z</time>
      </trkpt>
      <trkpt lat="43.48186" lon="5.25444">
        <ele>137</ele>
        <time>2022-10-02T07:55:10.000Z</time>
      </trkpt>
      <trkpt lat="43.48187" lon="5.25443">
        <ele>137</ele>
        <time>2022-10-02T07:55:11.000Z</time>
      </trkpt>
      <trkpt lat="43.48189" lon="5.25442">
        <ele>137</ele>
        <time>2022-10-02T07:55:12.000Z</time>
      </trkpt>
      <trkpt lat="43.48191" lon="5.25442">
        <ele>137</ele>
        <time>2022-10-02T07:55:13.000Z</time>
      </trkpt>
      <trkpt lat="43.48192" lon="5.25442">
        <ele>137</ele>
        <time>2022-10-02T07:55:14.000Z</time>
      </trkpt>
      <trkpt lat="43.48194" lon="5.25441">
        <ele>137</ele>
        <time>2022-10-02T07:55:15.000Z</time>
      </trkpt>
      <trkpt lat="43.48196" lon="5.25441">
        <ele>137</ele>
        <time>2022-10-02T07:55:16.000Z</time>
      </trkpt>
      <trkpt lat="43.48197" lon="5.2544">
        <ele>137</ele>
        <time>2022-10-02T07:55:17.000Z</time>
      </trkpt>
      <trkpt lat="43.48198" lon="5.2544">
        <ele>137</ele>
        <time>2022-10-02T07:55:18.000Z</time>
      </trkpt>
      <trkpt lat="43.482" lon="5.25439">
        <ele>137</ele>
        <time>2022-10-02T07:55:19.000Z</time>
      </trkpt>
      <trkpt lat="43.48201" lon="5.25439">
        <ele>137</ele>
        <time>2022-10-02T07:55:20.000Z</time>
      </trkpt>
      <trkpt lat="43.48203" lon="5.25439">
        <ele>137</ele>
        <time>2022-10-02T07:55:21.000Z</time>
      </trkpt>
      <trkpt lat="43.48204" lon="5.25439">
        <ele>137</ele>
        <time>2022-10-02T07:55:22.000Z</time>
      </trkpt>
      <trkpt lat="43.48206" lon="5.25439">
        <ele>137</ele>
        <time>2022-10-02T07:55:23.000Z</time>
      </trkpt>
      <trkpt lat="43.48208" lon="5.25439">
        <ele>137</ele>
        <time>2022-10-02T07:55:24.000Z</time>
      </trkpt>
      <trkpt lat="43.48209" lon="5.25439">
        <ele>137</ele>
        <time>2022-10-02T07:55:25.000Z</time>
      </trkpt>
      <trkpt lat="43.48211" lon="5.25438">
        <ele>137</ele>
        <time>2022-10-02T07:55:26.000Z</time>
      </trkpt>
      <trkpt lat="43.48212" lon="5.25438">
        <ele>137</ele>
        <time>2022-10-02T07:55:27.000Z</time>
      </trkpt>
      <trkpt lat="43.48213" lon="5.25437">
        <ele>137</ele>
        <time>2022-10-02T07:55:28.000Z</time>
      </trkpt>
      <trkpt lat="43.48215" lon="5.25437">
        <ele>137</ele>
        <time>2022-10-02T07:55:29.000Z</time>
      </trkpt>
      <trkpt lat="43.48216" lon="5.25437">
        <ele>137</ele>
        <time>2022-10-02T07:55:30.000Z</time>
      </trkpt>
      <trkpt lat="43.48218" lon="5.25438">
        <ele>137</ele>
        <time>2022-10-02T07:55:31.000Z</time>
      </trkpt>
      <trkpt lat="43.48219" lon="5.25439">
        <ele>137</ele>
        <time>2022-10-02T07:55:32.000Z</time>
      </trkpt>
      <trkpt lat="43.48221" lon="5.2544">
        <ele>137</ele>
        <time>2022-10-02T07:55:33.000Z</time>
      </trkpt>
      <trkpt lat="43.48222" lon="5.25441">
        <ele>137</ele>
        <time>2022-10-02T07:55:34.000Z</time>
      </trkpt>
      <trkpt lat="43.48223" lon="5.25442">
        <ele>137</ele>
        <time>2022-10-02T07:55:35.000Z</time>
      </trkpt>
      <trkpt lat="43.48225" lon="5.25443">
        <ele>137</ele>
        <time>2022-10-02T07:55:36.000Z</time>
      </trkpt>
      <trkpt lat="43.48226" lon="5.25444">
        <ele>137</ele>
        <time>2022-10-02T07:55:37.000Z</time>
      </trkpt>
      <trkpt lat="43.48228" lon="5.25445">
        <ele>137</ele>
        <time>2022-10-02T07:55:38.000Z</time>
      </trkpt>
      <trkpt lat="43.48229" lon="5.25446">
        <ele>137</ele>
        <time>2022-10-02T07:55:39.000Z</time>
      </trkpt>
      <trkpt lat="43.48231" lon="5.25447">
        <ele>137</ele>
        <time>2022-10-02T07:55:40.000Z</time>
      </trkpt>
      <trkpt lat="43.48232" lon="5.25447">
        <ele>137</ele>
        <time>2022-10-02T07:55:41.000Z</time>
      </trkpt>
      <trkpt lat="43.48234" lon="5.25448">
        <ele>137</ele>
        <time>2022-10-02T07:55:42.000Z</time>
      </trkpt>
      <trkpt lat="43.48236" lon="5.25448">
        <ele>137</ele>
        <time>2022-10-02T07:55:43.000Z</time>
      </trkpt>
      <trkpt lat="43.48237" lon="5.25448">
        <ele>137</ele>
        <time>2022-10-02T07:55:44.000Z</time>
      </trkpt>
      <trkpt lat="43.48239" lon="5.25447">
        <ele>137</ele>
        <time>2022-10-02T07:55:45.000Z</time>
      </trkpt>
      <trkpt lat="43.4824" lon="5.25447">
        <ele>137</ele>
        <time>2022-10-02T07:55:46.000Z</time>
      </trkpt>
      <trkpt lat="43.48242" lon="5.25447">
        <ele>137</ele>
        <time>2022-10-02T07:55:47.000Z</time>
      </trkpt>
      <trkpt lat="43.48243" lon="5.25446">
        <ele>137</ele>
        <time>2022-10-02T07:55:48.000Z</time>
      </trkpt>
      <trkpt lat="43.48244" lon="5.25445">
        <ele>137</ele>
        <time>2022-10-02T07:55:49.000Z</time>
      </trkpt>
      <trkpt lat="43.48246" lon="5.25444">
        <ele>136</ele>
        <time>2022-10-02T07:55:50.000Z</time>
      </trkpt>
      <trkpt lat="43.48247" lon="5.25443">
        <ele>136</ele>
        <time>2022-10-02T07:55:51.000Z</time>
      </trkpt>
      <trkpt lat="43.48248" lon="5.25442">
        <ele>136</ele>
        <time>2022-10-02T07:55:52.000Z</time>
      </trkpt>
      <trkpt lat="43.48249" lon="5.25442">
        <ele>136</ele>
        <time>2022-10-02T07:55:53.000Z</time>
      </trkpt>
      <trkpt lat="43.4825" lon="5.25441">
        <ele>136</ele>
        <time>2022-10-02T07:55:54.000Z</time>
      </trkpt>
      <trkpt lat="43.48252" lon="5.2544">
        <ele>137</ele>
        <time>2022-10-02T07:55:55.000Z</time>
      </trkpt>
      <trkpt lat="43.48253" lon="5.25439">
        <ele>137</ele>
        <time>2022-10-02T07:55:56.000Z</time>
      </trkpt>
      <trkpt lat="43.48254" lon="5.25438">
        <ele>136</ele>
        <time>2022-10-02T07:55:57.000Z</time>
      </trkpt>
      <trkpt lat="43.48256" lon="5.25437">
        <ele>136</ele>
        <time>2022-10-02T07:55:58.000Z</time>
      </trkpt>
      <trkpt lat="43.48257" lon="5.25436">
        <ele>136</ele>
        <time>2022-10-02T07:55:59.000Z</time>
      </trkpt>
      <trkpt lat="43.48258" lon="5.25436">
        <ele>136</ele>
        <time>2022-10-02T07:56:00.000Z</time>
      </trkpt>
      <trkpt lat="43.4826" lon="5.25435">
        <ele>136</ele>
        <time>2022-10-02T07:56:01.000Z</time>
      </trkpt>
      <trkpt lat="43.48261" lon="5.25434">
        <ele>136</ele>
        <time>2022-10-02T07:56:02.000Z</time>
      </trkpt>
      <trkpt lat="43.48262" lon="5.25433">
        <ele>136</ele>
        <time>2022-10-02T07:56:03.000Z</time>
      </trkpt>
      <trkpt lat="43.48263" lon="5.25432">
        <ele>136</ele>
        <time>2022-10-02T07:56:04.000Z</time>
      </trkpt>
      <trkpt lat="43.48265" lon="5.25431">
        <ele>136</ele>
        <time>2022-10-02T07:56:05.000Z</time>
      </trkpt>
      <trkpt lat="43.48266" lon="5.2543">
        <ele>136</ele>
        <time>2022-10-02T07:56:06.000Z</time>
      </trkpt>
      <trkpt lat="43.48267" lon="5.25429">
        <ele>136</ele>
        <time>2022-10-02T07:56:07.000Z</time>
      </trkpt>
      <trkpt lat="43.48268" lon="5.25427">
        <ele>136</ele>
        <time>2022-10-02T07:56:08.000Z</time>
      </trkpt>
      <trkpt lat="43.48269" lon="5.25426">
        <ele>136</ele>
        <time>2022-10-02T07:56:09.000Z</time>
      </trkpt>
      <trkpt lat="43.4827" lon="5.25425">
        <ele>137</ele>
        <time>2022-10-02T07:56:10.000Z</time>
      </trkpt>
      <trkpt lat="43.48271" lon="5.25424">
        <ele>137</ele>
        <time>2022-10-02T07:56:11.000Z</time>
      </trkpt>
      <trkpt lat="43.48272" lon="5.25423">
        <ele>137</ele>
        <time>2022-10-02T07:56:12.000Z</time>
      </trkpt>
      <trkpt lat="43.48274" lon="5.25422">
        <ele>137</ele>
        <time>2022-10-02T07:56:13.000Z</time>
      </trkpt>
      <trkpt lat="43.48275" lon="5.25421">
        <ele>137</ele>
        <time>2022-10-02T07:56:14.000Z</time>
      </trkpt>
      <trkpt lat="43.48276" lon="5.2542">
        <ele>137</ele>
        <time>2022-10-02T07:56:15.000Z</time>
      </trkpt>
      <trkpt lat="43.48278" lon="5.2542">
        <ele>138</ele>
        <time>2022-10-02T07:56:16.000Z</time>
      </trkpt>
      <trkpt lat="43.48279" lon="5.25419">
        <ele>138</ele>
        <time>2022-10-02T07:56:17.000Z</time>
      </trkpt>
      <trkpt lat="43.4828" lon="5.25418">
        <ele>138</ele>
        <time>2022-10-02T07:56:18.000Z</time>
      </trkpt>
      <trkpt lat="43.48282" lon="5.25418">
        <ele>138</ele>
        <time>2022-10-02T07:56:19.000Z</time>
      </trkpt>
      <trkpt lat="43.48283" lon="5.25417">
        <ele>139</ele>
        <time>2022-10-02T07:56:20.000Z</time>
      </trkpt>
      <trkpt lat="43.48284" lon="5.25416">
        <ele>139</ele>
        <time>2022-10-02T07:56:21.000Z</time>
      </trkpt>
      <trkpt lat="43.48286" lon="5.25416">
        <ele>139</ele>
        <time>2022-10-02T07:56:22.000Z</time>
      </trkpt>
      <trkpt lat="43.48287" lon="5.25415">
        <ele>139</ele>
        <time>2022-10-02T07:56:23.000Z</time>
      </trkpt>
      <trkpt lat="43.48289" lon="5.25415">
        <ele>139</ele>
        <time>2022-10-02T07:56:24.000Z</time>
      </trkpt>
      <trkpt lat="43.4829" lon="5.25414">
        <ele>140</ele>
        <time>2022-10-02T07:56:25.000Z</time>
      </trkpt>
      <trkpt lat="43.48292" lon="5.25414">
        <ele>140</ele>
        <time>2022-10-02T07:56:26.000Z</time>
      </trkpt>
      <trkpt lat="43.48293" lon="5.25413">
        <ele>140</ele>
        <time>2022-10-02T07:56:27.000Z</time>
      </trkpt>
      <trkpt lat="43.48295" lon="5.25413">
        <ele>140</ele>
        <time>2022-10-02T07:56:28.000Z</time>
      </trkpt>
      <trkpt lat="43.48296" lon="5.25412">
        <ele>140</ele>
        <time>2022-10-02T07:56:29.000Z</time>
      </trkpt>
      <trkpt lat="43.48298" lon="5.25412">
        <ele>140</ele>
        <time>2022-10-02T07:56:30.000Z</time>
      </trkpt>
      <trkpt lat="43.48299" lon="5.25412">
        <ele>141</ele>
        <time>2022-10-02T07:56:31.000Z</time>
      </trkpt>
      <trkpt lat="43.48301" lon="5.25411">
        <ele>141</ele>
        <time>2022-10-02T07:56:32.000Z</time>
      </trkpt>
      <trkpt lat="43.48302" lon="5.25411">
        <ele>141</ele>
        <time>2022-10-02T07:56:33.000Z</time>
      </trkpt>
      <trkpt lat="43.48304" lon="5.2541">
        <ele>141</ele>
        <time>2022-10-02T07:56:34.000Z</time>
      </trkpt>
      <trkpt lat="43.48305" lon="5.2541">
        <ele>141</ele>
        <time>2022-10-02T07:56:35.000Z</time>
      </trkpt>
      <trkpt lat="43.48307" lon="5.25409">
        <ele>141</ele>
        <time>2022-10-02T07:56:36.000Z</time>
      </trkpt>
      <trkpt lat="43.48308" lon="5.25409">
        <ele>141</ele>
        <time>2022-10-02T07:56:37.000Z</time>
      </trkpt>
      <trkpt lat="43.4831" lon="5.25408">
        <ele>141</ele>
        <time>2022-10-02T07:56:38.000Z</time>
      </trkpt>
      <trkpt lat="43.48311" lon="5.25408">
        <ele>141</ele>
        <time>2022-10-02T07:56:39.000Z</time>
      </trkpt>
      <trkpt lat="43.48313" lon="5.25408">
        <ele>141</ele>
        <time>2022-10-02T07:56:40.000Z</time>
      </trkpt>
      <trkpt lat="43.48314" lon="5.25407">
        <ele>141</ele>
        <time>2022-10-02T07:56:41.000Z</time>
      </trkpt>
      <trkpt lat="43.48316" lon="5.25407">
        <ele>141</ele>
        <time>2022-10-02T07:56:42.000Z</time>
      </trkpt>
      <trkpt lat="43.48317" lon="5.25406">
        <ele>141</ele>
        <time>2022-10-02T07:56:43.000Z</time>
      </trkpt>
      <trkpt lat="43.48319" lon="5.25406">
        <ele>141</ele>
        <time>2022-10-02T07:56:44.000Z</time>
      </trkpt>
      <trkpt lat="43.4832" lon="5.25406">
        <ele>141</ele>
        <time>2022-10-02T07:56:45.000Z</time>
      </trkpt>
      <trkpt lat="43.48322" lon="5.25405">
        <ele>141</ele>
        <time>2022-10-02T07:56:46.000Z</time>
      </trkpt>
      <trkpt lat="43.48324" lon="5.25405">
        <ele>141</ele>
        <time>2022-10-02T07:56:47.000Z</time>
      </trkpt>
      <trkpt lat="43.48325" lon="5.25404">
        <ele>141</ele>
        <time>2022-10-02T07:56:48.000Z</time>
      </trkpt>
      <trkpt lat="43.48327" lon="5.25404">
        <ele>141</ele>
        <time>2022-10-02T07:56:49.000Z</time>
      </trkpt>
      <trkpt lat="43.48328" lon="5.25404">
        <ele>141</ele>
        <time>2022-10-02T07:56:50.000Z</time>
      </trkpt>
      <trkpt lat="43.48329" lon="5.25403">
        <ele>141</ele>
        <time>2022-10-02T07:56:51.000Z</time>
      </trkpt>
      <trkpt lat="43.48331" lon="5.25403">
        <ele>141</ele>
        <time>2022-10-02T07:56:52.000Z</time>
      </trkpt>
      <trkpt lat="43.48332" lon="5.25402">
        <ele>141</ele>
        <time>2022-10-02T07:56:53.000Z</time>
      </trkpt>
      <trkpt lat="43.48334" lon="5.25402">
        <ele>141</ele>
        <time>2022-10-02T07:56:54.000Z</time>
      </trkpt>
      <trkpt lat="43.48336" lon="5.25401">
        <ele>141</ele>
        <time>2022-10-02T07:56:55.000Z</time>
      </trkpt>
      <trkpt lat="43.48337" lon="5.25401">
        <ele>141</ele>
        <time>2022-10-02T07:56:56.000Z</time>
      </trkpt>
      <trkpt lat="43.48339" lon="5.254">
        <ele>142</ele>
        <time>2022-10-02T07:56:57.000Z</time>
      </trkpt>
      <trkpt lat="43.4834" lon="5.254">
        <ele>142</ele>
        <time>2022-10-02T07:56:58.000Z</time>
      </trkpt>
      <trkpt lat="43.48342" lon="5.254">
        <ele>142</ele>
        <time>2022-10-02T07:56:59.000Z</time>
      </trkpt>
      <trkpt lat="43.48343" lon="5.25399">
        <ele>142</ele>
        <time>2022-10-02T07:57:00.000Z</time>
      </trkpt>
      <trkpt lat="43.48345" lon="5.25399">
        <ele>142</ele>
        <time>2022-10-02T07:57:01.000Z</time>
      </trkpt>
      <trkpt lat="43.48346" lon="5.25399">
        <ele>142</ele>
        <time>2022-10-02T07:57:02.000Z</time>
      </trkpt>
      <trkpt lat="43.48348" lon="5.25398">
        <ele>142</ele>
        <time>2022-10-02T07:57:03.000Z</time>
      </trkpt>
      <trkpt lat="43.48349" lon="5.25398">
        <ele>142</ele>
        <time>2022-10-02T07:57:04.000Z</time>
      </trkpt>
      <trkpt lat="43.48351" lon="5.25398">
        <ele>143</ele>
        <time>2022-10-02T07:57:05.000Z</time>
      </trkpt>
      <trkpt lat="43.48353" lon="5.25398">
        <ele>143</ele>
        <time>2022-10-02T07:57:06.000Z</time>
      </trkpt>
      <trkpt lat="43.48354" lon="5.25398">
        <ele>143</ele>
        <time>2022-10-02T07:57:07.000Z</time>
      </trkpt>
      <trkpt lat="43.48356" lon="5.25398">
        <ele>143</ele>
        <time>2022-10-02T07:57:08.000Z</time>
      </trkpt>
      <trkpt lat="43.48357" lon="5.25398">
        <ele>143</ele>
        <time>2022-10-02T07:57:09.000Z</time>
      </trkpt>
      <trkpt lat="43.48359" lon="5.25398">
        <ele>143</ele>
        <time>2022-10-02T07:57:10.000Z</time>
      </trkpt>
      <trkpt lat="43.4836" lon="5.25397">
        <ele>143</ele>
        <time>2022-10-02T07:57:11.000Z</time>
      </trkpt>
      <trkpt lat="43.48362" lon="5.25397">
        <ele>143</ele>
        <time>2022-10-02T07:57:12.000Z</time>
      </trkpt>
      <trkpt lat="43.48363" lon="5.25397">
        <ele>143</ele>
        <time>2022-10-02T07:57:13.000Z</time>
      </trkpt>
      <trkpt lat="43.48365" lon="5.25397">
        <ele>143</ele>
        <time>2022-10-02T07:57:14.000Z</time>
      </trkpt>
      <trkpt lat="43.48366" lon="5.25397">
        <ele>143</ele>
        <time>2022-10-02T07:57:15.000Z</time>
      </trkpt>
      <trkpt lat="43.48368" lon="5.25397">
        <ele>143</ele>
        <time>2022-10-02T07:57:16.000Z</time>
      </trkpt>
      <trkpt lat="43.48369" lon="5.25396">
        <ele>143</ele>
        <time>2022-10-02T07:57:17.000Z</time>
      </trkpt>
      <trkpt lat="43.48371" lon="5.25396">
        <ele>143</ele>
        <time>2022-10-02T07:57:18.000Z</time>
      </trkpt>
      <trkpt lat="43.48372" lon="5.25396">
        <ele>143</ele>
        <time>2022-10-02T07:57:19.000Z</time>
      </trkpt>
      <trkpt lat="43.48373" lon="5.25395">
        <ele>143</ele>
        <time>2022-10-02T07:57:20.000Z</time>
      </trkpt>
      <trkpt lat="43.48375" lon="5.25395">
        <ele>143</ele>
        <time>2022-10-02T07:57:21.000Z</time>
      </trkpt>
      <trkpt lat="43.48377" lon="5.25395">
        <ele>144</ele>
        <time>2022-10-02T07:57:22.000Z</time>
      </trkpt>
      <trkpt lat="43.48378" lon="5.25394">
        <ele>144</ele>
        <time>2022-10-02T07:57:23.000Z</time>
      </trkpt>
      <trkpt lat="43.4838" lon="5.25394">
        <ele>144</ele>
        <time>2022-10-02T07:57:24.000Z</time>
      </trkpt>
      <trkpt lat="43.48381" lon="5.25394">
        <ele>144</ele>
        <time>2022-10-02T07:57:25.000Z</time>
      </trkpt>
      <trkpt lat="43.48383" lon="5.25393">
        <ele>144</ele>
        <time>2022-10-02T07:57:26.000Z</time>
      </trkpt>
      <trkpt lat="43.48384" lon="5.25393">
        <ele>144</ele>
        <time>2022-10-02T07:57:27.000Z</time>
      </trkpt>
      <trkpt lat="43.48386" lon="5.25393">
        <ele>144</ele>
        <time>2022-10-02T07:57:28.000Z</time>
      </trkpt>
      <trkpt lat="43.48387" lon="5.25392">
        <ele>144</ele>
        <time>2022-10-02T07:57:29.000Z</time>
      </trkpt>
      <trkpt lat="43.48389" lon="5.25392">
        <ele>144</ele>
        <time>2022-10-02T07:57:30.000Z</time>
      </trkpt>
      <trkpt lat="43.4839" lon="5.25392">
        <ele>144</ele>
        <time>2022-10-02T07:57:31.000Z</time>
      </trkpt>
      <trkpt lat="43.48392" lon="5.25391">
        <ele>144</ele>
        <time>2022-10-02T07:57:32.000Z</time>
      </trkpt>
      <trkpt lat="43.48393" lon="5.25391">
        <ele>144</ele>
        <time>2022-10-02T07:57:33.000Z</time>
      </trkpt>
      <trkpt lat="43.48395" lon="5.25391">
        <ele>144</ele>
        <time>2022-10-02T07:57:34.000Z</time>
      </trkpt>
      <trkpt lat="43.48397" lon="5.2539">
        <ele>144</ele>
        <time>2022-10-02T07:57:35.000Z</time>
      </trkpt>
      <trkpt lat="43.48398" lon="5.2539">
        <ele>144</ele>
        <time>2022-10-02T07:57:36.000Z</time>
      </trkpt>
      <trkpt lat="43.484" lon="5.2539">
        <ele>144</ele>
        <time>2022-10-02T07:57:37.000Z</time>
      </trkpt>
      <trkpt lat="43.48401" lon="5.2539">
        <ele>144</ele>
        <time>2022-10-02T07:57:38.000Z</time>
      </trkpt>
      <trkpt lat="43.48403" lon="5.2539">
        <ele>144</ele>
        <time>2022-10-02T07:57:39.000Z</time>
      </trkpt>
      <trkpt lat="43.48404" lon="5.2539">
        <ele>144</ele>
        <time>2022-10-02T07:57:40.000Z</time>
      </trkpt>
      <trkpt lat="43.48406" lon="5.2539">
        <ele>144</ele>
        <time>2022-10-02T07:57:41.000Z</time>
      </trkpt>
      <trkpt lat="43.48408" lon="5.25389">
        <ele>144</ele>
        <time>2022-10-02T07:57:42.000Z</time>
      </trkpt>
      <trkpt lat="43.48409" lon="5.25389">
        <ele>144</ele>
        <time>2022-10-02T07:57:43.000Z</time>
      </trkpt>
      <trkpt lat="43.48411" lon="5.25389">
        <ele>144</ele>
        <time>2022-10-02T07:57:44.000Z</time>
      </trkpt>
      <trkpt lat="43.48412" lon="5.25389">
        <ele>145</ele>
        <time>2022-10-02T07:57:45.000Z</time>
      </trkpt>
      <trkpt lat="43.48414" lon="5.25389">
        <ele>145</ele>
        <time>2022-10-02T07:57:46.000Z</time>
      </trkpt>
      <trkpt lat="43.48416" lon="5.25389">
        <ele>145</ele>
        <time>2022-10-02T07:57:47.000Z</time>
      </trkpt>
      <trkpt lat="43.48417" lon="5.25389">
        <ele>145</ele>
        <time>2022-10-02T07:57:48.000Z</time>
      </trkpt>
      <trkpt lat="43.48419" lon="5.25389">
        <ele>145</ele>
        <time>2022-10-02T07:57:49.000Z</time>
      </trkpt>
      <trkpt lat="43.4842" lon="5.2539">
        <ele>145</ele>
        <time>2022-10-02T07:57:50.000Z</time>
      </trkpt>
      <trkpt lat="43.48422" lon="5.2539">
        <ele>145</ele>
        <time>2022-10-02T07:57:51.000Z</time>
      </trkpt>
      <trkpt lat="43.48423" lon="5.2539">
        <ele>145</ele>
        <time>2022-10-02T07:57:52.000Z</time>
      </trkpt>
      <trkpt lat="43.48424" lon="5.2539">
        <ele>145</ele>
        <time>2022-10-02T07:57:53.000Z</time>
      </trkpt>
      <trkpt lat="43.48426" lon="5.2539">
        <ele>145</ele>
        <time>2022-10-02T07:57:54.000Z</time>
      </trkpt>
      <trkpt lat="43.48427" lon="5.2539">
        <ele>144</ele>
        <time>2022-10-02T07:57:55.000Z</time>
      </trkpt>
      <trkpt lat="43.48429" lon="5.2539">
        <ele>144</ele>
        <time>2022-10-02T07:57:56.000Z</time>
      </trkpt>
      <trkpt lat="43.48431" lon="5.2539">
        <ele>144</ele>
        <time>2022-10-02T07:57:57.000Z</time>
      </trkpt>
      <trkpt lat="43.48432" lon="5.2539">
        <ele>144</ele>
        <time>2022-10-02T07:57:58.000Z</time>
      </trkpt>
      <trkpt lat="43.48434" lon="5.2539">
        <ele>144</ele>
        <time>2022-10-02T07:57:59.000Z</time>
      </trkpt>
      <trkpt lat="43.48435" lon="5.25391">
        <ele>144</ele>
        <time>2022-10-02T07:58:00.000Z</time>
      </trkpt>
      <trkpt lat="43.48437" lon="5.2539">
        <ele>144</ele>
        <time>2022-10-02T07:58:01.000Z</time>
      </trkpt>
      <trkpt lat="43.48439" lon="5.2539">
        <ele>144</ele>
        <time>2022-10-02T07:58:02.000Z</time>
      </trkpt>
      <trkpt lat="43.4844" lon="5.25391">
        <ele>144</ele>
        <time>2022-10-02T07:58:03.000Z</time>
      </trkpt>
      <trkpt lat="43.48442" lon="5.25391">
        <ele>144</ele>
        <time>2022-10-02T07:58:04.000Z</time>
      </trkpt>
      <trkpt lat="43.48444" lon="5.25392">
        <ele>144</ele>
        <time>2022-10-02T07:58:05.000Z</time>
      </trkpt>
      <trkpt lat="43.48445" lon="5.25392">
        <ele>144</ele>
        <time>2022-10-02T07:58:06.000Z</time>
      </trkpt>
      <trkpt lat="43.48447" lon="5.25392">
        <ele>144</ele>
        <time>2022-10-02T07:58:07.000Z</time>
      </trkpt>
      <trkpt lat="43.48449" lon="5.25392">
        <ele>144</ele>
        <time>2022-10-02T07:58:08.000Z</time>
      </trkpt>
      <trkpt lat="43.4845" lon="5.25392">
        <ele>144</ele>
        <time>2022-10-02T07:58:09.000Z</time>
      </trkpt>
      <trkpt lat="43.48452" lon="5.25392">
        <ele>144</ele>
        <time>2022-10-02T07:58:10.000Z</time>
      </trkpt>
      <trkpt lat="43.48453" lon="5.25393">
        <ele>144</ele>
        <time>2022-10-02T07:58:11.000Z</time>
      </trkpt>
      <trkpt lat="43.48455" lon="5.25393">
        <ele>144</ele>
        <time>2022-10-02T07:58:12.000Z</time>
      </trkpt>
      <trkpt lat="43.48456" lon="5.25393">
        <ele>144</ele>
        <time>2022-10-02T07:58:13.000Z</time>
      </trkpt>
      <trkpt lat="43.48458" lon="5.25393">
        <ele>144</ele>
        <time>2022-10-02T07:58:14.000Z</time>
      </trkpt>
      <trkpt lat="43.48459" lon="5.25392">
        <ele>144</ele>
        <time>2022-10-02T07:58:15.000Z</time>
      </trkpt>
      <trkpt lat="43.48461" lon="5.25392">
        <ele>144</ele>
        <time>2022-10-02T07:58:16.000Z</time>
      </trkpt>
      <trkpt lat="43.48462" lon="5.25391">
        <ele>144</ele>
        <time>2022-10-02T07:58:17.000Z</time>
      </trkpt>
      <trkpt lat="43.48463" lon="5.2539">
        <ele>144</ele>
        <time>2022-10-02T07:58:18.000Z</time>
      </trkpt>
      <trkpt lat="43.48465" lon="5.2539">
        <ele>144</ele>
        <time>2022-10-02T07:58:19.000Z</time>
      </trkpt>
      <trkpt lat="43.48467" lon="5.2539">
        <ele>144</ele>
        <time>2022-10-02T07:58:20.000Z</time>
      </trkpt>
      <trkpt lat="43.48468" lon="5.2539">
        <ele>144</ele>
        <time>2022-10-02T07:58:21.000Z</time>
      </trkpt>
      <trkpt lat="43.4847" lon="5.25389">
        <ele>144</ele>
        <time>2022-10-02T07:58:22.000Z</time>
      </trkpt>
      <trkpt lat="43.48471" lon="5.25389">
        <ele>144</ele>
        <time>2022-10-02T07:58:23.000Z</time>
      </trkpt>
      <trkpt lat="43.48473" lon="5.25389">
        <ele>144</ele>
        <time>2022-10-02T07:58:24.000Z</time>
      </trkpt>
      <trkpt lat="43.48475" lon="5.25389">
        <ele>144</ele>
        <time>2022-10-02T07:58:25.000Z</time>
      </trkpt>
      <trkpt lat="43.48476" lon="5.25389">
        <ele>144</ele>
        <time>2022-10-02T07:58:26.000Z</time>
      </trkpt>
      <trkpt lat="43.48478" lon="5.25388">
        <ele>144</ele>
        <time>2022-10-02T07:58:27.000Z</time>
      </trkpt>
      <trkpt lat="43.48479" lon="5.25388">
        <ele>144</ele>
        <time>2022-10-02T07:58:28.000Z</time>
      </trkpt>
      <trkpt lat="43.48481" lon="5.25388">
        <ele>144</ele>
        <time>2022-10-02T07:58:29.000Z</time>
      </trkpt>
      <trkpt lat="43.48482" lon="5.25388">
        <ele>144</ele>
        <time>2022-10-02T07:58:30.000Z</time>
      </trkpt>
      <trkpt lat="43.48484" lon="5.25387">
        <ele>144</ele>
        <time>2022-10-02T07:58:31.000Z</time>
      </trkpt>
      <trkpt lat="43.48485" lon="5.25387">
        <ele>144</ele>
        <time>2022-10-02T07:58:32.000Z</time>
      </trkpt>
      <trkpt lat="43.48487" lon="5.25387">
        <ele>144</ele>
        <time>2022-10-02T07:58:33.000Z</time>
      </trkpt>
      <trkpt lat="43.48488" lon="5.25386">
        <ele>144</ele>
        <time>2022-10-02T07:58:34.000Z</time>
      </trkpt>
      <trkpt lat="43.4849" lon="5.25386">
        <ele>144</ele>
        <time>2022-10-02T07:58:35.000Z</time>
      </trkpt>
      <trkpt lat="43.48492" lon="5.25385">
        <ele>144</ele>
        <time>2022-10-02T07:58:36.000Z</time>
      </trkpt>
      <trkpt lat="43.48493" lon="5.25384">
        <ele>144</ele>
        <time>2022-10-02T07:58:37.000Z</time>
      </trkpt>
      <trkpt lat="43.48494" lon="5.25384">
        <ele>144</ele>
        <time>2022-10-02T07:58:38.000Z</time>
      </trkpt>
      <trkpt lat="43.48496" lon="5.25383">
        <ele>144</ele>
        <time>2022-10-02T07:58:39.000Z</time>
      </trkpt>
      <trkpt lat="43.48497" lon="5.25383">
        <ele>144</ele>
        <time>2022-10-02T07:58:40.000Z</time>
      </trkpt>
      <trkpt lat="43.48499" lon="5.25382">
        <ele>144</ele>
        <time>2022-10-02T07:58:41.000Z</time>
      </trkpt>
      <trkpt lat="43.485" lon="5.25381">
        <ele>144</ele>
        <time>2022-10-02T07:58:42.000Z</time>
      </trkpt>
      <trkpt lat="43.48502" lon="5.25381">
        <ele>144</ele>
        <time>2022-10-02T07:58:43.000Z</time>
      </trkpt>
      <trkpt lat="43.48503" lon="5.2538">
        <ele>144</ele>
        <time>2022-10-02T07:58:44.000Z</time>
      </trkpt>
      <trkpt lat="43.48505" lon="5.25379">
        <ele>144</ele>
        <time>2022-10-02T07:58:45.000Z</time>
      </trkpt>
      <trkpt lat="43.48506" lon="5.25379">
        <ele>144</ele>
        <time>2022-10-02T07:58:46.000Z</time>
      </trkpt>
      <trkpt lat="43.48508" lon="5.25379">
        <ele>144</ele>
        <time>2022-10-02T07:58:47.000Z</time>
      </trkpt>
      <trkpt lat="43.48509" lon="5.25378">
        <ele>144</ele>
        <time>2022-10-02T07:58:48.000Z</time>
      </trkpt>
      <trkpt lat="43.4851" lon="5.25378">
        <ele>144</ele>
        <time>2022-10-02T07:58:49.000Z</time>
      </trkpt>
      <trkpt lat="43.48512" lon="5.25378">
        <ele>144</ele>
        <time>2022-10-02T07:58:50.000Z</time>
      </trkpt>
      <trkpt lat="43.48513" lon="5.25378">
        <ele>144</ele>
        <time>2022-10-02T07:58:51.000Z</time>
      </trkpt>
      <trkpt lat="43.48515" lon="5.25377">
        <ele>144</ele>
        <time>2022-10-02T07:58:52.000Z</time>
      </trkpt>
      <trkpt lat="43.48516" lon="5.25377">
        <ele>145</ele>
        <time>2022-10-02T07:58:53.000Z</time>
      </trkpt>
      <trkpt lat="43.48518" lon="5.25377">
        <ele>145</ele>
        <time>2022-10-02T07:58:54.000Z</time>
      </trkpt>
      <trkpt lat="43.48519" lon="5.25378">
        <ele>145</ele>
        <time>2022-10-02T07:58:55.000Z</time>
      </trkpt>
      <trkpt lat="43.48521" lon="5.25378">
        <ele>145</ele>
        <time>2022-10-02T07:58:56.000Z</time>
      </trkpt>
      <trkpt lat="43.48522" lon="5.25378">
        <ele>145</ele>
        <time>2022-10-02T07:58:57.000Z</time>
      </trkpt>
      <trkpt lat="43.48524" lon="5.25379">
        <ele>145</ele>
        <time>2022-10-02T07:58:58.000Z</time>
      </trkpt>
      <trkpt lat="43.48525" lon="5.2538">
        <ele>146</ele>
        <time>2022-10-02T07:58:59.000Z</time>
      </trkpt>
      <trkpt lat="43.48527" lon="5.25381">
        <ele>146</ele>
        <time>2022-10-02T07:59:00.000Z</time>
      </trkpt>
      <trkpt lat="43.48528" lon="5.25381">
        <ele>146</ele>
        <time>2022-10-02T07:59:01.000Z</time>
      </trkpt>
      <trkpt lat="43.4853" lon="5.25381">
        <ele>146</ele>
        <time>2022-10-02T07:59:02.000Z</time>
      </trkpt>
      <trkpt lat="43.48531" lon="5.25382">
        <ele>146</ele>
        <time>2022-10-02T07:59:03.000Z</time>
      </trkpt>
      <trkpt lat="43.48533" lon="5.25382">
        <ele>146</ele>
        <time>2022-10-02T07:59:04.000Z</time>
      </trkpt>
      <trkpt lat="43.48534" lon="5.25382">
        <ele>146</ele>
        <time>2022-10-02T07:59:05.000Z</time>
      </trkpt>
      <trkpt lat="43.48536" lon="5.25382">
        <ele>146</ele>
        <time>2022-10-02T07:59:06.000Z</time>
      </trkpt>
      <trkpt lat="43.48538" lon="5.25383">
        <ele>147</ele>
        <time>2022-10-02T07:59:07.000Z</time>
      </trkpt>
      <trkpt lat="43.48539" lon="5.25383">
        <ele>147</ele>
        <time>2022-10-02T07:59:08.000Z</time>
      </trkpt>
      <trkpt lat="43.48541" lon="5.25384">
        <ele>147</ele>
        <time>2022-10-02T07:59:09.000Z</time>
      </trkpt>
      <trkpt lat="43.48542" lon="5.25385">
        <ele>147</ele>
        <time>2022-10-02T07:59:10.000Z</time>
      </trkpt>
      <trkpt lat="43.48544" lon="5.25386">
        <ele>147</ele>
        <time>2022-10-02T07:59:11.000Z</time>
      </trkpt>
      <trkpt lat="43.48545" lon="5.25387">
        <ele>147</ele>
        <time>2022-10-02T07:59:12.000Z</time>
      </trkpt>
      <trkpt lat="43.48546" lon="5.25387">
        <ele>147</ele>
        <time>2022-10-02T07:59:13.000Z</time>
      </trkpt>
      <trkpt lat="43.48548" lon="5.25387">
        <ele>147</ele>
        <time>2022-10-02T07:59:14.000Z</time>
      </trkpt>
      <trkpt lat="43.48549" lon="5.25387">
        <ele>147</ele>
        <time>2022-10-02T07:59:15.000Z</time>
      </trkpt>
      <trkpt lat="43.48551" lon="5.25387">
        <ele>147</ele>
        <time>2022-10-02T07:59:16.000Z</time>
      </trkpt>
      <trkpt lat="43.48552" lon="5.25387">
        <ele>147</ele>
        <time>2022-10-02T07:59:17.000Z</time>
      </trkpt>
      <trkpt lat="43.48554" lon="5.25387">
        <ele>147</ele>
        <time>2022-10-02T07:59:18.000Z</time>
      </trkpt>
      <trkpt lat="43.48555" lon="5.25387">
        <ele>148</ele>
        <time>2022-10-02T07:59:19.000Z</time>
      </trkpt>
      <trkpt lat="43.48557" lon="5.25386">
        <ele>148</ele>
        <time>2022-10-02T07:59:20.000Z</time>
      </trkpt>
      <trkpt lat="43.48558" lon="5.25386">
        <ele>148</ele>
        <time>2022-10-02T07:59:21.000Z</time>
      </trkpt>
      <trkpt lat="43.4856" lon="5.25385">
        <ele>148</ele>
        <time>2022-10-02T07:59:22.000Z</time>
      </trkpt>
      <trkpt lat="43.48561" lon="5.25385">
        <ele>148</ele>
        <time>2022-10-02T07:59:23.000Z</time>
      </trkpt>
      <trkpt lat="43.48563" lon="5.25385">
        <ele>148</ele>
        <time>2022-10-02T07:59:24.000Z</time>
      </trkpt>
      <trkpt lat="43.48564" lon="5.25384">
        <ele>148</ele>
        <time>2022-10-02T07:59:25.000Z</time>
      </trkpt>
      <trkpt lat="43.48566" lon="5.25384">
        <ele>148</ele>
        <time>2022-10-02T07:59:26.000Z</time>
      </trkpt>
      <trkpt lat="43.48567" lon="5.25383">
        <ele>148</ele>
        <time>2022-10-02T07:59:27.000Z</time>
      </trkpt>
      <trkpt lat="43.48569" lon="5.25383">
        <ele>148</ele>
        <time>2022-10-02T07:59:28.000Z</time>
      </trkpt>
      <trkpt lat="43.48571" lon="5.25382">
        <ele>149</ele>
        <time>2022-10-02T07:59:29.000Z</time>
      </trkpt>
      <trkpt lat="43.48572" lon="5.25382">
        <ele>149</ele>
        <time>2022-10-02T07:59:30.000Z</time>
      </trkpt>
      <trkpt lat="43.48574" lon="5.25381">
        <ele>149</ele>
        <time>2022-10-02T07:59:31.000Z</time>
      </trkpt>
      <trkpt lat="43.48575" lon="5.25381">
        <ele>149</ele>
        <time>2022-10-02T07:59:32.000Z</time>
      </trkpt>
      <trkpt lat="43.48577" lon="5.2538">
        <ele>149</ele>
        <time>2022-10-02T07:59:33.000Z</time>
      </trkpt>
      <trkpt lat="43.48578" lon="5.2538">
        <ele>149</ele>
        <time>2022-10-02T07:59:34.000Z</time>
      </trkpt>
      <trkpt lat="43.4858" lon="5.25379">
        <ele>149</ele>
        <time>2022-10-02T07:59:35.000Z</time>
      </trkpt>
      <trkpt lat="43.48581" lon="5.25379">
        <ele>149</ele>
        <time>2022-10-02T07:59:36.000Z</time>
      </trkpt>
      <trkpt lat="43.48582" lon="5.25378">
        <ele>149</ele>
        <time>2022-10-02T07:59:37.000Z</time>
      </trkpt>
      <trkpt lat="43.48583" lon="5.25377">
        <ele>149</ele>
        <time>2022-10-02T07:59:38.000Z</time>
      </trkpt>
      <trkpt lat="43.48585" lon="5.25375">
        <ele>149</ele>
        <time>2022-10-02T07:59:39.000Z</time>
      </trkpt>
      <trkpt lat="43.48586" lon="5.25374">
        <ele>149</ele>
        <time>2022-10-02T07:59:40.000Z</time>
      </trkpt>
      <trkpt lat="43.48586" lon="5.25372">
        <ele>149</ele>
        <time>2022-10-02T07:59:41.000Z</time>
      </trkpt>
      <trkpt lat="43.48587" lon="5.2537">
        <ele>149</ele>
        <time>2022-10-02T07:59:42.000Z</time>
      </trkpt>
      <trkpt lat="43.48588" lon="5.25368">
        <ele>149</ele>
        <time>2022-10-02T07:59:43.000Z</time>
      </trkpt>
      <trkpt lat="43.48589" lon="5.25366">
        <ele>149</ele>
        <time>2022-10-02T07:59:44.000Z</time>
      </trkpt>
      <trkpt lat="43.4859" lon="5.25364">
        <ele>149</ele>
        <time>2022-10-02T07:59:45.000Z</time>
      </trkpt>
      <trkpt lat="43.4859" lon="5.25362">
        <ele>149</ele>
        <time>2022-10-02T07:59:46.000Z</time>
      </trkpt>
      <trkpt lat="43.48591" lon="5.2536">
        <ele>149</ele>
        <time>2022-10-02T07:59:47.000Z</time>
      </trkpt>
      <trkpt lat="43.48592" lon="5.25358">
        <ele>149</ele>
        <time>2022-10-02T07:59:48.000Z</time>
      </trkpt>
      <trkpt lat="43.48593" lon="5.25356">
        <ele>150</ele>
        <time>2022-10-02T07:59:49.000Z</time>
      </trkpt>
      <trkpt lat="43.48593" lon="5.25355">
        <ele>150</ele>
        <time>2022-10-02T07:59:50.000Z</time>
      </trkpt>
      <trkpt lat="43.48594" lon="5.25353">
        <ele>150</ele>
        <time>2022-10-02T07:59:51.000Z</time>
      </trkpt>
      <trkpt lat="43.48595" lon="5.25351">
        <ele>150</ele>
        <time>2022-10-02T07:59:52.000Z</time>
      </trkpt>
      <trkpt lat="43.48596" lon="5.25349">
        <ele>150</ele>
        <time>2022-10-02T07:59:53.000Z</time>
      </trkpt>
      <trkpt lat="43.48597" lon="5.25347">
        <ele>150</ele>
        <time>2022-10-02T07:59:54.000Z</time>
      </trkpt>
      <trkpt lat="43.48597" lon="5.25345">
        <ele>150</ele>
        <time>2022-10-02T07:59:55.000Z</time>
      </trkpt>
      <trkpt lat="43.48598" lon="5.25344">
        <ele>150</ele>
        <time>2022-10-02T07:59:56.000Z</time>
      </trkpt>
      <trkpt lat="43.486" lon="5.25342">
        <ele>150</ele>
        <time>2022-10-02T07:59:57.000Z</time>
      </trkpt>
      <trkpt lat="43.48601" lon="5.25341">
        <ele>151</ele>
        <time>2022-10-02T07:59:58.000Z</time>
      </trkpt>
      <trkpt lat="43.48602" lon="5.2534">
        <ele>151</ele>
        <time>2022-10-02T07:59:59.000Z</time>
      </trkpt>
      <trkpt lat="43.48604" lon="5.25339">
        <ele>151</ele>
        <time>2022-10-02T08:00:00.000Z</time>
      </trkpt>
      <trkpt lat="43.48605" lon="5.25338">
        <ele>151</ele>
        <time>2022-10-02T08:00:01.000Z</time>
      </trkpt>
      <trkpt lat="43.48606" lon="5.25337">
        <ele>151</ele>
        <time>2022-10-02T08:00:02.000Z</time>
      </trkpt>
      <trkpt lat="43.48608" lon="5.25336">
        <ele>151</ele>
        <time>2022-10-02T08:00:03.000Z</time>
      </trkpt>
      <trkpt lat="43.48609" lon="5.25335">
        <ele>152</ele>
        <time>2022-10-02T08:00:04.000Z</time>
      </trkpt>
      <trkpt lat="43.4861" lon="5.25334">
        <ele>152</ele>
        <time>2022-10-02T08:00:05.000Z</time>
      </trkpt>
      <trkpt lat="43.48611" lon="5.25333">
        <ele>152</ele>
        <time>2022-10-02T08:00:06.000Z</time>
      </trkpt>
      <trkpt lat="43.48613" lon="5.25332">
        <ele>152</ele>
        <time>2022-10-02T08:00:07.000Z</time>
      </trkpt>
      <trkpt lat="43.48614" lon="5.2533">
        <ele>152</ele>
        <time>2022-10-02T08:00:08.000Z</time>
      </trkpt>
      <trkpt lat="43.48615" lon="5.25329">
        <ele>153</ele>
        <time>2022-10-02T08:00:09.000Z</time>
      </trkpt>
      <trkpt lat="43.48616" lon="5.25327">
        <ele>153</ele>
        <time>2022-10-02T08:00:10.000Z</time>
      </trkpt>
      <trkpt lat="43.48617" lon="5.25325">
        <ele>153</ele>
        <time>2022-10-02T08:00:11.000Z</time>
      </trkpt>
      <trkpt lat="43.48618" lon="5.25324">
        <ele>153</ele>
        <time>2022-10-02T08:00:12.000Z</time>
      </trkpt>
      <trkpt lat="43.48619" lon="5.25322">
        <ele>153</ele>
        <time>2022-10-02T08:00:13.000Z</time>
      </trkpt>
      <trkpt lat="43.4862" lon="5.2532">
        <ele>153</ele>
        <time>2022-10-02T08:00:14.000Z</time>
      </trkpt>
      <trkpt lat="43.48621" lon="5.25318">
        <ele>154</ele>
        <time>2022-10-02T08:00:15.000Z</time>
      </trkpt>
      <trkpt lat="43.48621" lon="5.25316">
        <ele>154</ele>
        <time>2022-10-02T08:00:16.000Z</time>
      </trkpt>
      <trkpt lat="43.48622" lon="5.25315">
        <ele>154</ele>
        <time>2022-10-02T08:00:17.000Z</time>
      </trkpt>
      <trkpt lat="43.48623" lon="5.25313">
        <ele>154</ele>
        <time>2022-10-02T08:00:18.000Z</time>
      </trkpt>
      <trkpt lat="43.48624" lon="5.25311">
        <ele>154</ele>
        <time>2022-10-02T08:00:19.000Z</time>
      </trkpt>
      <trkpt lat="43.48625" lon="5.2531">
        <ele>155</ele>
        <time>2022-10-02T08:00:20.000Z</time>
      </trkpt>
      <trkpt lat="43.48625" lon="5.25308">
        <ele>155</ele>
        <time>2022-10-02T08:00:21.000Z</time>
      </trkpt>
      <trkpt lat="43.48626" lon="5.25306">
        <ele>155</ele>
        <time>2022-10-02T08:00:22.000Z</time>
      </trkpt>
      <trkpt lat="43.48627" lon="5.25305">
        <ele>155</ele>
        <time>2022-10-02T08:00:23.000Z</time>
      </trkpt>
      <trkpt lat="43.48628" lon="5.25303">
        <ele>155</ele>
        <time>2022-10-02T08:00:24.000Z</time>
      </trkpt>
      <trkpt lat="43.48629" lon="5.25301">
        <ele>155</ele>
        <time>2022-10-02T08:00:25.000Z</time>
      </trkpt>
      <trkpt lat="43.48629" lon="5.25299">
        <ele>156</ele>
        <time>2022-10-02T08:00:26.000Z</time>
      </trkpt>
      <trkpt lat="43.4863" lon="5.25297">
        <ele>156</ele>
        <time>2022-10-02T08:00:27.000Z</time>
      </trkpt>
      <trkpt lat="43.48631" lon="5.25295">
        <ele>156</ele>
        <time>2022-10-02T08:00:28.000Z</time>
      </trkpt>
      <trkpt lat="43.48631" lon="5.25294">
        <ele>156</ele>
        <time>2022-10-02T08:00:29.000Z</time>
      </trkpt>
      <trkpt lat="43.48632" lon="5.25292">
        <ele>156</ele>
        <time>2022-10-02T08:00:30.000Z</time>
      </trkpt>
      <trkpt lat="43.48633" lon="5.2529">
        <ele>156</ele>
        <time>2022-10-02T08:00:31.000Z</time>
      </trkpt>
      <trkpt lat="43.48633" lon="5.25288">
        <ele>156</ele>
        <time>2022-10-02T08:00:32.000Z</time>
      </trkpt>
      <trkpt lat="43.48634" lon="5.25286">
        <ele>156</ele>
        <time>2022-10-02T08:00:33.000Z</time>
      </trkpt>
      <trkpt lat="43.48635" lon="5.25285">
        <ele>156</ele>
        <time>2022-10-02T08:00:34.000Z</time>
      </trkpt>
      <trkpt lat="43.48636" lon="5.25283">
        <ele>156</ele>
        <time>2022-10-02T08:00:35.000Z</time>
      </trkpt>
      <trkpt lat="43.48637" lon="5.25281">
        <ele>157</ele>
        <time>2022-10-02T08:00:36.000Z</time>
      </trkpt>
      <trkpt lat="43.48637" lon="5.25279">
        <ele>157</ele>
        <time>2022-10-02T08:00:37.000Z</time>
      </trkpt>
      <trkpt lat="43.48638" lon="5.25277">
        <ele>157</ele>
        <time>2022-10-02T08:00:38.000Z</time>
      </trkpt>
      <trkpt lat="43.48639" lon="5.25275">
        <ele>157</ele>
        <time>2022-10-02T08:00:39.000Z</time>
      </trkpt>
      <trkpt lat="43.48639" lon="5.25273">
        <ele>157</ele>
        <time>2022-10-02T08:00:40.000Z</time>
      </trkpt>
      <trkpt lat="43.4864" lon="5.25271">
        <ele>157</ele>
        <time>2022-10-02T08:00:41.000Z</time>
      </trkpt>
      <trkpt lat="43.48641" lon="5.25269">
        <ele>157</ele>
        <time>2022-10-02T08:00:42.000Z</time>
      </trkpt>
      <trkpt lat="43.48641" lon="5.25267">
        <ele>158</ele>
        <time>2022-10-02T08:00:43.000Z</time>
      </trkpt>
      <trkpt lat="43.48642" lon="5.25265">
        <ele>158</ele>
        <time>2022-10-02T08:00:44.000Z</time>
      </trkpt>
      <trkpt lat="43.48642" lon="5.25263">
        <ele>158</ele>
        <time>2022-10-02T08:00:45.000Z</time>
      </trkpt>
      <trkpt lat="43.48643" lon="5.2526">
        <ele>158</ele>
        <time>2022-10-02T08:00:46.000Z</time>
      </trkpt>
      <trkpt lat="43.48643" lon="5.25258">
        <ele>158</ele>
        <time>2022-10-02T08:00:47.000Z</time>
      </trkpt>
      <trkpt lat="43.48644" lon="5.25256">
        <ele>158</ele>
        <time>2022-10-02T08:00:48.000Z</time>
      </trkpt>
      <trkpt lat="43.48644" lon="5.25253">
        <ele>158</ele>
        <time>2022-10-02T08:00:49.000Z</time>
      </trkpt>
      <trkpt lat="43.48645" lon="5.25251">
        <ele>158</ele>
        <time>2022-10-02T08:00:50.000Z</time>
      </trkpt>
      <trkpt lat="43.48645" lon="5.25249">
        <ele>158</ele>
        <time>2022-10-02T08:00:51.000Z</time>
      </trkpt>
      <trkpt lat="43.48646" lon="5.25246">
        <ele>158</ele>
        <time>2022-10-02T08:00:52.000Z</time>
      </trkpt>
      <trkpt lat="43.48646" lon="5.25244">
        <ele>158</ele>
        <time>2022-10-02T08:00:53.000Z</time>
      </trkpt>
      <trkpt lat="43.48647" lon="5.25242">
        <ele>158</ele>
        <time>2022-10-02T08:00:54.000Z</time>
      </trkpt>
      <trkpt lat="43.48647" lon="5.2524">
        <ele>158</ele>
        <time>2022-10-02T08:00:55.000Z</time>
      </trkpt>
      <trkpt lat="43.48648" lon="5.25237">
        <ele>158</ele>
        <time>2022-10-02T08:00:56.000Z</time>
      </trkpt>
      <trkpt lat="43.48648" lon="5.25235">
        <ele>158</ele>
        <time>2022-10-02T08:00:57.000Z</time>
      </trkpt>
      <trkpt lat="43.48649" lon="5.25233">
        <ele>158</ele>
        <time>2022-10-02T08:00:58.000Z</time>
      </trkpt>
      <trkpt lat="43.48649" lon="5.25231">
        <ele>158</ele>
        <time>2022-10-02T08:00:59.000Z</time>
      </trkpt>
      <trkpt lat="43.4865" lon="5.25229">
        <ele>158</ele>
        <time>2022-10-02T08:01:00.000Z</time>
      </trkpt>
      <trkpt lat="43.48651" lon="5.25227">
        <ele>158</ele>
        <time>2022-10-02T08:01:01.000Z</time>
      </trkpt>
      <trkpt lat="43.48651" lon="5.25225">
        <ele>158</ele>
        <time>2022-10-02T08:01:02.000Z</time>
      </trkpt>
      <trkpt lat="43.48652" lon="5.25223">
        <ele>158</ele>
        <time>2022-10-02T08:01:03.000Z</time>
      </trkpt>
      <trkpt lat="43.48653" lon="5.25222">
        <ele>158</ele>
        <time>2022-10-02T08:01:04.000Z</time>
      </trkpt>
      <trkpt lat="43.48655" lon="5.2522">
        <ele>158</ele>
        <time>2022-10-02T08:01:05.000Z</time>
      </trkpt>
      <trkpt lat="43.48656" lon="5.25219">
        <ele>158</ele>
        <time>2022-10-02T08:01:06.000Z</time>
      </trkpt>
      <trkpt lat="43.48657" lon="5.25217">
        <ele>157</ele>
        <time>2022-10-02T08:01:07.000Z</time>
      </trkpt>
      <trkpt lat="43.48658" lon="5.25215">
        <ele>157</ele>
        <time>2022-10-02T08:01:08.000Z</time>
      </trkpt>
      <trkpt lat="43.48659" lon="5.25214">
        <ele>157</ele>
        <time>2022-10-02T08:01:09.000Z</time>
      </trkpt>
      <trkpt lat="43.4866" lon="5.25212">
        <ele>157</ele>
        <time>2022-10-02T08:01:10.000Z</time>
      </trkpt>
      <trkpt lat="43.48662" lon="5.25211">
        <ele>157</ele>
        <time>2022-10-02T08:01:11.000Z</time>
      </trkpt>
      <trkpt lat="43.48663" lon="5.2521">
        <ele>157</ele>
        <time>2022-10-02T08:01:12.000Z</time>
      </trkpt>
      <trkpt lat="43.48665" lon="5.25209">
        <ele>157</ele>
        <time>2022-10-02T08:01:13.000Z</time>
      </trkpt>
      <trkpt lat="43.48667" lon="5.25209">
        <ele>157</ele>
        <time>2022-10-02T08:01:14.000Z</time>
      </trkpt>
      <trkpt lat="43.48668" lon="5.25208">
        <ele>157</ele>
        <time>2022-10-02T08:01:15.000Z</time>
      </trkpt>
      <trkpt lat="43.4867" lon="5.25207">
        <ele>157</ele>
        <time>2022-10-02T08:01:16.000Z</time>
      </trkpt>
      <trkpt lat="43.48671" lon="5.25206">
        <ele>157</ele>
        <time>2022-10-02T08:01:17.000Z</time>
      </trkpt>
      <trkpt lat="43.48672" lon="5.25205">
        <ele>157</ele>
        <time>2022-10-02T08:01:18.000Z</time>
      </trkpt>
      <trkpt lat="43.48673" lon="5.25204">
        <ele>157</ele>
        <time>2022-10-02T08:01:19.000Z</time>
      </trkpt>
      <trkpt lat="43.48675" lon="5.25203">
        <ele>157</ele>
        <time>2022-10-02T08:01:20.000Z</time>
      </trkpt>
      <trkpt lat="43.48676" lon="5.25202">
        <ele>157</ele>
        <time>2022-10-02T08:01:21.000Z</time>
      </trkpt>
      <trkpt lat="43.48677" lon="5.252">
        <ele>157</ele>
        <time>2022-10-02T08:01:22.000Z</time>
      </trkpt>
      <trkpt lat="43.48678" lon="5.25199">
        <ele>157</ele>
        <time>2022-10-02T08:01:23.000Z</time>
      </trkpt>
      <trkpt lat="43.4868" lon="5.25197">
        <ele>156</ele>
        <time>2022-10-02T08:01:24.000Z</time>
      </trkpt>
      <trkpt lat="43.48681" lon="5.25196">
        <ele>156</ele>
        <time>2022-10-02T08:01:25.000Z</time>
      </trkpt>
      <trkpt lat="43.48682" lon="5.25194">
        <ele>156</ele>
        <time>2022-10-02T08:01:26.000Z</time>
      </trkpt>
      <trkpt lat="43.48682" lon="5.25192">
        <ele>156</ele>
        <time>2022-10-02T08:01:27.000Z</time>
      </trkpt>
      <trkpt lat="43.48683" lon="5.2519">
        <ele>156</ele>
        <time>2022-10-02T08:01:28.000Z</time>
      </trkpt>
      <trkpt lat="43.48684" lon="5.25188">
        <ele>156</ele>
        <time>2022-10-02T08:01:29.000Z</time>
      </trkpt>
      <trkpt lat="43.48685" lon="5.25186">
        <ele>156</ele>
        <time>2022-10-02T08:01:30.000Z</time>
      </trkpt>
      <trkpt lat="43.48686" lon="5.25185">
        <ele>156</ele>
        <time>2022-10-02T08:01:31.000Z</time>
      </trkpt>
      <trkpt lat="43.48687" lon="5.25183">
        <ele>156</ele>
        <time>2022-10-02T08:01:32.000Z</time>
      </trkpt>
      <trkpt lat="43.48688" lon="5.25181">
        <ele>156</ele>
        <time>2022-10-02T08:01:33.000Z</time>
      </trkpt>
      <trkpt lat="43.48689" lon="5.25179">
        <ele>156</ele>
        <time>2022-10-02T08:01:34.000Z</time>
      </trkpt>
      <trkpt lat="43.4869" lon="5.25177">
        <ele>156</ele>
        <time>2022-10-02T08:01:35.000Z</time>
      </trkpt>
      <trkpt lat="43.4869" lon="5.25175">
        <ele>156</ele>
        <time>2022-10-02T08:01:36.000Z</time>
      </trkpt>
      <trkpt lat="43.48691" lon="5.25173">
        <ele>156</ele>
        <time>2022-10-02T08:01:37.000Z</time>
      </trkpt>
      <trkpt lat="43.48692" lon="5.25171">
        <ele>156</ele>
        <time>2022-10-02T08:01:38.000Z</time>
      </trkpt>
      <trkpt lat="43.48693" lon="5.25169">
        <ele>156</ele>
        <time>2022-10-02T08:01:39.000Z</time>
      </trkpt>
      <trkpt lat="43.48694" lon="5.25168">
        <ele>156</ele>
        <time>2022-10-02T08:01:40.000Z</time>
      </trkpt>
      <trkpt lat="43.48695" lon="5.25166">
        <ele>156</ele>
        <time>2022-10-02T08:01:41.000Z</time>
      </trkpt>
      <trkpt lat="43.48696" lon="5.25164">
        <ele>156</ele>
        <time>2022-10-02T08:01:42.000Z</time>
      </trkpt>
      <trkpt lat="43.48696" lon="5.25162">
        <ele>156</ele>
        <time>2022-10-02T08:01:43.000Z</time>
      </trkpt>
      <trkpt lat="43.48697" lon="5.2516">
        <ele>156</ele>
        <time>2022-10-02T08:01:44.000Z</time>
      </trkpt>
      <trkpt lat="43.48698" lon="5.25158">
        <ele>156</ele>
        <time>2022-10-02T08:01:45.000Z</time>
      </trkpt>
      <trkpt lat="43.48699" lon="5.25156">
        <ele>156</ele>
        <time>2022-10-02T08:01:46.000Z</time>
      </trkpt>
      <trkpt lat="43.487" lon="5.25154">
        <ele>156</ele>
        <time>2022-10-02T08:01:47.000Z</time>
      </trkpt>
      <trkpt lat="43.48701" lon="5.25152">
        <ele>156</ele>
        <time>2022-10-02T08:01:48.000Z</time>
      </trkpt>
      <trkpt lat="43.48701" lon="5.2515">
        <ele>156</ele>
        <time>2022-10-02T08:01:49.000Z</time>
      </trkpt>
      <trkpt lat="43.48702" lon="5.25148">
        <ele>157</ele>
        <time>2022-10-02T08:01:50.000Z</time>
      </trkpt>
      <trkpt lat="43.48703" lon="5.25146">
        <ele>157</ele>
        <time>2022-10-02T08:01:51.000Z</time>
      </trkpt>
      <trkpt lat="43.48704" lon="5.25144">
        <ele>157</ele>
        <time>2022-10-02T08:01:52.000Z</time>
      </trkpt>
      <trkpt lat="43.48705" lon="5.25142">
        <ele>157</ele>
        <time>2022-10-02T08:01:53.000Z</time>
      </trkpt>
      <trkpt lat="43.48706" lon="5.2514">
        <ele>157</ele>
        <time>2022-10-02T08:01:54.000Z</time>
      </trkpt>
      <trkpt lat="43.48706" lon="5.25138">
        <ele>157</ele>
        <time>2022-10-02T08:01:55.000Z</time>
      </trkpt>
      <trkpt lat="43.48707" lon="5.25136">
        <ele>157</ele>
        <time>2022-10-02T08:01:56.000Z</time>
      </trkpt>
      <trkpt lat="43.48708" lon="5.25134">
        <ele>157</ele>
        <time>2022-10-02T08:01:57.000Z</time>
      </trkpt>
      <trkpt lat="43.48709" lon="5.25132">
        <ele>157</ele>
        <time>2022-10-02T08:01:58.000Z</time>
      </trkpt>
      <trkpt lat="43.48709" lon="5.2513">
        <ele>157</ele>
        <time>2022-10-02T08:01:59.000Z</time>
      </trkpt>
      <trkpt lat="43.4871" lon="5.25128">
        <ele>157</ele>
        <time>2022-10-02T08:02:00.000Z</time>
      </trkpt>
      <trkpt lat="43.48711" lon="5.25126">
        <ele>157</ele>
        <time>2022-10-02T08:02:01.000Z</time>
      </trkpt>
      <trkpt lat="43.48712" lon="5.25124">
        <ele>157</ele>
        <time>2022-10-02T08:02:02.000Z</time>
      </trkpt>
      <trkpt lat="43.48712" lon="5.25122">
        <ele>157</ele>
        <time>2022-10-02T08:02:03.000Z</time>
      </trkpt>
      <trkpt lat="43.48713" lon="5.2512">
        <ele>157</ele>
        <time>2022-10-02T08:02:04.000Z</time>
      </trkpt>
      <trkpt lat="43.48713" lon="5.25118">
        <ele>156</ele>
        <time>2022-10-02T08:02:05.000Z</time>
      </trkpt>
      <trkpt lat="43.48714" lon="5.25116">
        <ele>156</ele>
        <time>2022-10-02T08:02:06.000Z</time>
      </trkpt>
      <trkpt lat="43.48715" lon="5.25114">
        <ele>156</ele>
        <time>2022-10-02T08:02:07.000Z</time>
      </trkpt>
      <trkpt lat="43.48715" lon="5.25112">
        <ele>156</ele>
        <time>2022-10-02T08:02:08.000Z</time>
      </trkpt>
      <trkpt lat="43.48716" lon="5.2511">
        <ele>156</ele>
        <time>2022-10-02T08:02:09.000Z</time>
      </trkpt>
      <trkpt lat="43.48717" lon="5.25108">
        <ele>156</ele>
        <time>2022-10-02T08:02:10.000Z</time>
      </trkpt>
      <trkpt lat="43.48718" lon="5.25106">
        <ele>156</ele>
        <time>2022-10-02T08:02:11.000Z</time>
      </trkpt>
      <trkpt lat="43.48719" lon="5.25105">
        <ele>156</ele>
        <time>2022-10-02T08:02:12.000Z</time>
      </trkpt>
      <trkpt lat="43.48721" lon="5.25103">
        <ele>156</ele>
        <time>2022-10-02T08:02:13.000Z</time>
      </trkpt>
      <trkpt lat="43.48722" lon="5.25101">
        <ele>156</ele>
        <time>2022-10-02T08:02:14.000Z</time>
      </trkpt>
      <trkpt lat="43.48723" lon="5.25099">
        <ele>157</ele>
        <time>2022-10-02T08:02:15.000Z</time>
      </trkpt>
      <trkpt lat="43.48724" lon="5.25098">
        <ele>157</ele>
        <time>2022-10-02T08:02:16.000Z</time>
      </trkpt>
      <trkpt lat="43.48725" lon="5.25096">
        <ele>157</ele>
        <time>2022-10-02T08:02:17.000Z</time>
      </trkpt>
      <trkpt lat="43.48726" lon="5.25095">
        <ele>157</ele>
        <time>2022-10-02T08:02:18.000Z</time>
      </trkpt>
      <trkpt lat="43.48727" lon="5.25093">
        <ele>157</ele>
        <time>2022-10-02T08:02:19.000Z</time>
      </trkpt>
      <trkpt lat="43.48729" lon="5.25092">
        <ele>157</ele>
        <time>2022-10-02T08:02:20.000Z</time>
      </trkpt>
      <trkpt lat="43.4873" lon="5.25091">
        <ele>157</ele>
        <time>2022-10-02T08:02:21.000Z</time>
      </trkpt>
      <trkpt lat="43.48731" lon="5.25089">
        <ele>157</ele>
        <time>2022-10-02T08:02:22.000Z</time>
      </trkpt>
      <trkpt lat="43.48732" lon="5.25088">
        <ele>157</ele>
        <time>2022-10-02T08:02:23.000Z</time>
      </trkpt>
      <trkpt lat="43.48734" lon="5.25087">
        <ele>157</ele>
        <time>2022-10-02T08:02:24.000Z</time>
      </trkpt>
      <trkpt lat="43.48735" lon="5.25086">
        <ele>157</ele>
        <time>2022-10-02T08:02:25.000Z</time>
      </trkpt>
      <trkpt lat="43.48736" lon="5.25085">
        <ele>157</ele>
        <time>2022-10-02T08:02:26.000Z</time>
      </trkpt>
      <trkpt lat="43.48738" lon="5.25084">
        <ele>157</ele>
        <time>2022-10-02T08:02:27.000Z</time>
      </trkpt>
      <trkpt lat="43.48739" lon="5.25083">
        <ele>158</ele>
        <time>2022-10-02T08:02:28.000Z</time>
      </trkpt>
      <trkpt lat="43.48741" lon="5.25082">
        <ele>158</ele>
        <time>2022-10-02T08:02:29.000Z</time>
      </trkpt>
      <trkpt lat="43.48742" lon="5.25081">
        <ele>158</ele>
        <time>2022-10-02T08:02:30.000Z</time>
      </trkpt>
      <trkpt lat="43.48744" lon="5.2508">
        <ele>158</ele>
        <time>2022-10-02T08:02:31.000Z</time>
      </trkpt>
      <trkpt lat="43.48745" lon="5.25079">
        <ele>158</ele>
        <time>2022-10-02T08:02:32.000Z</time>
      </trkpt>
      <trkpt lat="43.48747" lon="5.25078">
        <ele>158</ele>
        <time>2022-10-02T08:02:33.000Z</time>
      </trkpt>
      <trkpt lat="43.48749" lon="5.25077">
        <ele>158</ele>
        <time>2022-10-02T08:02:34.000Z</time>
      </trkpt>
      <trkpt lat="43.4875" lon="5.25076">
        <ele>158</ele>
        <time>2022-10-02T08:02:35.000Z</time>
      </trkpt>
      <trkpt lat="43.48751" lon="5.25075">
        <ele>158</ele>
        <time>2022-10-02T08:02:36.000Z</time>
      </trkpt>
      <trkpt lat="43.48753" lon="5.25074">
        <ele>158</ele>
        <time>2022-10-02T08:02:37.000Z</time>
      </trkpt>
      <trkpt lat="43.48754" lon="5.25073">
        <ele>158</ele>
        <time>2022-10-02T08:02:38.000Z</time>
      </trkpt>
      <trkpt lat="43.48755" lon="5.25072">
        <ele>158</ele>
        <time>2022-10-02T08:02:39.000Z</time>
      </trkpt>
      <trkpt lat="43.48757" lon="5.25071">
        <ele>158</ele>
        <time>2022-10-02T08:02:40.000Z</time>
      </trkpt>
      <trkpt lat="43.48758" lon="5.2507">
        <ele>158</ele>
        <time>2022-10-02T08:02:41.000Z</time>
      </trkpt>
      <trkpt lat="43.48759" lon="5.25069">
        <ele>158</ele>
        <time>2022-10-02T08:02:42.000Z</time>
      </trkpt>
      <trkpt lat="43.4876" lon="5.25067">
        <ele>158</ele>
        <time>2022-10-02T08:02:43.000Z</time>
      </trkpt>
      <trkpt lat="43.48761" lon="5.25065">
        <ele>158</ele>
        <time>2022-10-02T08:02:44.000Z</time>
      </trkpt>
      <trkpt lat="43.48763" lon="5.25064">
        <ele>158</ele>
        <time>2022-10-02T08:02:45.000Z</time>
      </trkpt>
      <trkpt lat="43.48764" lon="5.25062">
        <ele>158</ele>
        <time>2022-10-02T08:02:46.000Z</time>
      </trkpt>
      <trkpt lat="43.48765" lon="5.25061">
        <ele>158</ele>
        <time>2022-10-02T08:02:47.000Z</time>
      </trkpt>
      <trkpt lat="43.48765" lon="5.25059">
        <ele>158</ele>
        <time>2022-10-02T08:02:48.000Z</time>
      </trkpt>
      <trkpt lat="43.48765" lon="5.25057">
        <ele>158</ele>
        <time>2022-10-02T08:02:49.000Z</time>
      </trkpt>
      <trkpt lat="43.48765" lon="5.25055">
        <ele>158</ele>
        <time>2022-10-02T08:02:50.000Z</time>
      </trkpt>
      <trkpt lat="43.48765" lon="5.25052">
        <ele>158</ele>
        <time>2022-10-02T08:02:51.000Z</time>
      </trkpt>
      <trkpt lat="43.48764" lon="5.2505">
        <ele>159</ele>
        <time>2022-10-02T08:02:52.000Z</time>
      </trkpt>
      <trkpt lat="43.48764" lon="5.25048">
        <ele>159</ele>
        <time>2022-10-02T08:02:53.000Z</time>
      </trkpt>
      <trkpt lat="43.48763" lon="5.25046">
        <ele>159</ele>
        <time>2022-10-02T08:02:54.000Z</time>
      </trkpt>
      <trkpt lat="43.48762" lon="5.25045">
        <ele>159</ele>
        <time>2022-10-02T08:02:55.000Z</time>
      </trkpt>
      <trkpt lat="43.48762" lon="5.25043">
        <ele>159</ele>
        <time>2022-10-02T08:02:56.000Z</time>
      </trkpt>
      <trkpt lat="43.48761" lon="5.25041">
        <ele>159</ele>
        <time>2022-10-02T08:02:57.000Z</time>
      </trkpt>
      <trkpt lat="43.4876" lon="5.2504">
        <ele>160</ele>
        <time>2022-10-02T08:02:58.000Z</time>
      </trkpt>
      <trkpt lat="43.4876" lon="5.25038">
        <ele>160</ele>
        <time>2022-10-02T08:02:59.000Z</time>
      </trkpt>
      <trkpt lat="43.48759" lon="5.25036">
        <ele>160</ele>
        <time>2022-10-02T08:03:00.000Z</time>
      </trkpt>
      <trkpt lat="43.48758" lon="5.25035">
        <ele>160</ele>
        <time>2022-10-02T08:03:01.000Z</time>
      </trkpt>
      <trkpt lat="43.48757" lon="5.25033">
        <ele>160</ele>
        <time>2022-10-02T08:03:02.000Z</time>
      </trkpt>
      <trkpt lat="43.48756" lon="5.25031">
        <ele>161</ele>
        <time>2022-10-02T08:03:03.000Z</time>
      </trkpt>
      <trkpt lat="43.48755" lon="5.2503">
        <ele>161</ele>
        <time>2022-10-02T08:03:04.000Z</time>
      </trkpt>
      <trkpt lat="43.48754" lon="5.25028">
        <ele>161</ele>
        <time>2022-10-02T08:03:05.000Z</time>
      </trkpt>
      <trkpt lat="43.48754" lon="5.25027">
        <ele>161</ele>
        <time>2022-10-02T08:03:06.000Z</time>
      </trkpt>
      <trkpt lat="43.48753" lon="5.25025">
        <ele>161</ele>
        <time>2022-10-02T08:03:07.000Z</time>
      </trkpt>
      <trkpt lat="43.48752" lon="5.25023">
        <ele>161</ele>
        <time>2022-10-02T08:03:08.000Z</time>
      </trkpt>
      <trkpt lat="43.48751" lon="5.25022">
        <ele>162</ele>
        <time>2022-10-02T08:03:09.000Z</time>
      </trkpt>
      <trkpt lat="43.4875" lon="5.2502">
        <ele>162</ele>
        <time>2022-10-02T08:03:10.000Z</time>
      </trkpt>
      <trkpt lat="43.48749" lon="5.25019">
        <ele>162</ele>
        <time>2022-10-02T08:03:11.000Z</time>
      </trkpt>
      <trkpt lat="43.48748" lon="5.25017">
        <ele>162</ele>
        <time>2022-10-02T08:03:12.000Z</time>
      </trkpt>
      <trkpt lat="43.48747" lon="5.25015">
        <ele>162</ele>
        <time>2022-10-02T08:03:13.000Z</time>
      </trkpt>
      <trkpt lat="43.48747" lon="5.25013">
        <ele>162</ele>
        <time>2022-10-02T08:03:14.000Z</time>
      </trkpt>
      <trkpt lat="43.48747" lon="5.2501">
        <ele>163</ele>
        <time>2022-10-02T08:03:15.000Z</time>
      </trkpt>
      <trkpt lat="43.48748" lon="5.25008">
        <ele>163</ele>
        <time>2022-10-02T08:03:16.000Z</time>
      </trkpt>
      <trkpt lat="43.48749" lon="5.25006">
        <ele>163</ele>
        <time>2022-10-02T08:03:17.000Z</time>
      </trkpt>
      <trkpt lat="43.4875" lon="5.25005">
        <ele>163</ele>
        <time>2022-10-02T08:03:18.000Z</time>
      </trkpt>
      <trkpt lat="43.48752" lon="5.25004">
        <ele>163</ele>
        <time>2022-10-02T08:03:19.000Z</time>
      </trkpt>
      <trkpt lat="43.48753" lon="5.25002">
        <ele>163</ele>
        <time>2022-10-02T08:03:20.000Z</time>
      </trkpt>
      <trkpt lat="43.48754" lon="5.25001">
        <ele>163</ele>
        <time>2022-10-02T08:03:21.000Z</time>
      </trkpt>
      <trkpt lat="43.48756" lon="5.25">
        <ele>162</ele>
        <time>2022-10-02T08:03:22.000Z</time>
      </trkpt>
      <trkpt lat="43.48757" lon="5.25">
        <ele>162</ele>
        <time>2022-10-02T08:03:23.000Z</time>
      </trkpt>
      <trkpt lat="43.48759" lon="5.24999">
        <ele>162</ele>
        <time>2022-10-02T08:03:24.000Z</time>
      </trkpt>
      <trkpt lat="43.4876" lon="5.24998">
        <ele>162</ele>
        <time>2022-10-02T08:03:25.000Z</time>
      </trkpt>
      <trkpt lat="43.48761" lon="5.24997">
        <ele>162</ele>
        <time>2022-10-02T08:03:26.000Z</time>
      </trkpt>
      <trkpt lat="43.48763" lon="5.24996">
        <ele>162</ele>
        <time>2022-10-02T08:03:27.000Z</time>
      </trkpt>
      <trkpt lat="43.48764" lon="5.24995">
        <ele>162</ele>
        <time>2022-10-02T08:03:28.000Z</time>
      </trkpt>
      <trkpt lat="43.48766" lon="5.24995">
        <ele>162</ele>
        <time>2022-10-02T08:03:29.000Z</time>
      </trkpt>
      <trkpt lat="43.48767" lon="5.24994">
        <ele>162</ele>
        <time>2022-10-02T08:03:30.000Z</time>
      </trkpt>
      <trkpt lat="43.48769" lon="5.24993">
        <ele>162</ele>
        <time>2022-10-02T08:03:31.000Z</time>
      </trkpt>
      <trkpt lat="43.48771" lon="5.24991">
        <ele>162</ele>
        <time>2022-10-02T08:03:32.000Z</time>
      </trkpt>
      <trkpt lat="43.48772" lon="5.2499">
        <ele>162</ele>
        <time>2022-10-02T08:03:33.000Z</time>
      </trkpt>
      <trkpt lat="43.48774" lon="5.24989">
        <ele>162</ele>
        <time>2022-10-02T08:03:34.000Z</time>
      </trkpt>
      <trkpt lat="43.48775" lon="5.24988">
        <ele>162</ele>
        <time>2022-10-02T08:03:35.000Z</time>
      </trkpt>
      <trkpt lat="43.48777" lon="5.24987">
        <ele>162</ele>
        <time>2022-10-02T08:03:36.000Z</time>
      </trkpt>
      <trkpt lat="43.48778" lon="5.24986">
        <ele>162</ele>
        <time>2022-10-02T08:03:37.000Z</time>
      </trkpt>
      <trkpt lat="43.4878" lon="5.24985">
        <ele>162</ele>
        <time>2022-10-02T08:03:38.000Z</time>
      </trkpt>
      <trkpt lat="43.48782" lon="5.24984">
        <ele>162</ele>
        <time>2022-10-02T08:03:39.000Z</time>
      </trkpt>
      <trkpt lat="43.48783" lon="5.24983">
        <ele>162</ele>
        <time>2022-10-02T08:03:40.000Z</time>
      </trkpt>
      <trkpt lat="43.48785" lon="5.24982">
        <ele>162</ele>
        <time>2022-10-02T08:03:41.000Z</time>
      </trkpt>
      <trkpt lat="43.48786" lon="5.24981">
        <ele>162</ele>
        <time>2022-10-02T08:03:42.000Z</time>
      </trkpt>
      <trkpt lat="43.48788" lon="5.24979">
        <ele>162</ele>
        <time>2022-10-02T08:03:43.000Z</time>
      </trkpt>
      <trkpt lat="43.48789" lon="5.24978">
        <ele>162</ele>
        <time>2022-10-02T08:03:44.000Z</time>
      </trkpt>
      <trkpt lat="43.4879" lon="5.24977">
        <ele>162</ele>
        <time>2022-10-02T08:03:45.000Z</time>
      </trkpt>
      <trkpt lat="43.48792" lon="5.24975">
        <ele>162</ele>
        <time>2022-10-02T08:03:46.000Z</time>
      </trkpt>
      <trkpt lat="43.48793" lon="5.24974">
        <ele>162</ele>
        <time>2022-10-02T08:03:47.000Z</time>
      </trkpt>
      <trkpt lat="43.48795" lon="5.24973">
        <ele>162</ele>
        <time>2022-10-02T08:03:48.000Z</time>
      </trkpt>
      <trkpt lat="43.48796" lon="5.24972">
        <ele>162</ele>
        <time>2022-10-02T08:03:49.000Z</time>
      </trkpt>
      <trkpt lat="43.48797" lon="5.24971">
        <ele>162</ele>
        <time>2022-10-02T08:03:50.000Z</time>
      </trkpt>
      <trkpt lat="43.48799" lon="5.2497">
        <ele>162</ele>
        <time>2022-10-02T08:03:51.000Z</time>
      </trkpt>
      <trkpt lat="43.488" lon="5.24969">
        <ele>162</ele>
        <time>2022-10-02T08:03:52.000Z</time>
      </trkpt>
      <trkpt lat="43.48801" lon="5.24967">
        <ele>162</ele>
        <time>2022-10-02T08:03:53.000Z</time>
      </trkpt>
      <trkpt lat="43.48802" lon="5.24966">
        <ele>162</ele>
        <time>2022-10-02T08:03:54.000Z</time>
      </trkpt>
      <trkpt lat="43.48804" lon="5.24965">
        <ele>162</ele>
        <time>2022-10-02T08:03:55.000Z</time>
      </trkpt>
      <trkpt lat="43.48805" lon="5.24964">
        <ele>162</ele>
        <time>2022-10-02T08:03:56.000Z</time>
      </trkpt>
      <trkpt lat="43.48807" lon="5.24963">
        <ele>162</ele>
        <time>2022-10-02T08:03:57.000Z</time>
      </trkpt>
      <trkpt lat="43.48808" lon="5.24962">
        <ele>162</ele>
        <time>2022-10-02T08:03:58.000Z</time>
      </trkpt>
      <trkpt lat="43.4881" lon="5.24961">
        <ele>162</ele>
        <time>2022-10-02T08:03:59.000Z</time>
      </trkpt>
      <trkpt lat="43.48811" lon="5.24961">
        <ele>162</ele>
        <time>2022-10-02T08:04:00.000Z</time>
      </trkpt>
      <trkpt lat="43.48813" lon="5.2496">
        <ele>162</ele>
        <time>2022-10-02T08:04:01.000Z</time>
      </trkpt>
      <trkpt lat="43.48814" lon="5.2496">
        <ele>162</ele>
        <time>2022-10-02T08:04:02.000Z</time>
      </trkpt>
      <trkpt lat="43.48816" lon="5.24959">
        <ele>162</ele>
        <time>2022-10-02T08:04:03.000Z</time>
      </trkpt>
      <trkpt lat="43.48817" lon="5.24958">
        <ele>162</ele>
        <time>2022-10-02T08:04:04.000Z</time>
      </trkpt>
      <trkpt lat="43.48818" lon="5.24957">
        <ele>162</ele>
        <time>2022-10-02T08:04:05.000Z</time>
      </trkpt>
      <trkpt lat="43.4882" lon="5.24956">
        <ele>162</ele>
        <time>2022-10-02T08:04:06.000Z</time>
      </trkpt>
      <trkpt lat="43.48821" lon="5.24956">
        <ele>162</ele>
        <time>2022-10-02T08:04:07.000Z</time>
      </trkpt>
      <trkpt lat="43.48823" lon="5.24955">
        <ele>162</ele>
        <time>2022-10-02T08:04:08.000Z</time>
      </trkpt>
      <trkpt lat="43.48824" lon="5.24954">
        <ele>163</ele>
        <time>2022-10-02T08:04:09.000Z</time>
      </trkpt>
      <trkpt lat="43.48826" lon="5.24953">
        <ele>163</ele>
        <time>2022-10-02T08:04:10.000Z</time>
      </trkpt>
      <trkpt lat="43.48827" lon="5.24953">
        <ele>163</ele>
        <time>2022-10-02T08:04:11.000Z</time>
      </trkpt>
      <trkpt lat="43.48829" lon="5.24953">
        <ele>163</ele>
        <time>2022-10-02T08:04:12.000Z</time>
      </trkpt>
      <trkpt lat="43.4883" lon="5.24952">
        <ele>163</ele>
        <time>2022-10-02T08:04:13.000Z</time>
      </trkpt>
      <trkpt lat="43.48832" lon="5.24952">
        <ele>163</ele>
        <time>2022-10-02T08:04:14.000Z</time>
      </trkpt>
      <trkpt lat="43.48833" lon="5.24951">
        <ele>163</ele>
        <time>2022-10-02T08:04:15.000Z</time>
      </trkpt>
      <trkpt lat="43.48835" lon="5.2495">
        <ele>163</ele>
        <time>2022-10-02T08:04:16.000Z</time>
      </trkpt>
      <trkpt lat="43.48837" lon="5.2495">
        <ele>163</ele>
        <time>2022-10-02T08:04:17.000Z</time>
      </trkpt>
      <trkpt lat="43.48838" lon="5.24949">
        <ele>163</ele>
        <time>2022-10-02T08:04:18.000Z</time>
      </trkpt>
      <trkpt lat="43.4884" lon="5.24948">
        <ele>163</ele>
        <time>2022-10-02T08:04:19.000Z</time>
      </trkpt>
      <trkpt lat="43.48841" lon="5.24947">
        <ele>163</ele>
        <time>2022-10-02T08:04:20.000Z</time>
      </trkpt>
      <trkpt lat="43.48843" lon="5.24947">
        <ele>163</ele>
        <time>2022-10-02T08:04:21.000Z</time>
      </trkpt>
      <trkpt lat="43.48844" lon="5.24946">
        <ele>163</ele>
        <time>2022-10-02T08:04:22.000Z</time>
      </trkpt>
      <trkpt lat="43.48846" lon="5.24945">
        <ele>164</ele>
        <time>2022-10-02T08:04:23.000Z</time>
      </trkpt>
      <trkpt lat="43.48847" lon="5.24944">
        <ele>164</ele>
        <time>2022-10-02T08:04:24.000Z</time>
      </trkpt>
      <trkpt lat="43.48848" lon="5.24943">
        <ele>164</ele>
        <time>2022-10-02T08:04:25.000Z</time>
      </trkpt>
      <trkpt lat="43.4885" lon="5.24942">
        <ele>164</ele>
        <time>2022-10-02T08:04:26.000Z</time>
      </trkpt>
      <trkpt lat="43.48851" lon="5.24941">
        <ele>164</ele>
        <time>2022-10-02T08:04:27.000Z</time>
      </trkpt>
      <trkpt lat="43.48853" lon="5.2494">
        <ele>164</ele>
        <time>2022-10-02T08:04:28.000Z</time>
      </trkpt>
      <trkpt lat="43.48854" lon="5.2494">
        <ele>164</ele>
        <time>2022-10-02T08:04:29.000Z</time>
      </trkpt>
      <trkpt lat="43.48855" lon="5.24939">
        <ele>164</ele>
        <time>2022-10-02T08:04:30.000Z</time>
      </trkpt>
      <trkpt lat="43.48857" lon="5.24938">
        <ele>164</ele>
        <time>2022-10-02T08:04:31.000Z</time>
      </trkpt>
      <trkpt lat="43.48858" lon="5.24937">
        <ele>164</ele>
        <time>2022-10-02T08:04:32.000Z</time>
      </trkpt>
      <trkpt lat="43.48859" lon="5.24936">
        <ele>164</ele>
        <time>2022-10-02T08:04:33.000Z</time>
      </trkpt>
      <trkpt lat="43.48861" lon="5.24935">
        <ele>164</ele>
        <time>2022-10-02T08:04:34.000Z</time>
      </trkpt>
      <trkpt lat="43.48862" lon="5.24935">
        <ele>164</ele>
        <time>2022-10-02T08:04:35.000Z</time>
      </trkpt>
      <trkpt lat="43.48864" lon="5.24934">
        <ele>165</ele>
        <time>2022-10-02T08:04:36.000Z</time>
      </trkpt>
      <trkpt lat="43.48865" lon="5.24933">
        <ele>165</ele>
        <time>2022-10-02T08:04:37.000Z</time>
      </trkpt>
      <trkpt lat="43.48867" lon="5.24932">
        <ele>165</ele>
        <time>2022-10-02T08:04:38.000Z</time>
      </trkpt>
      <trkpt lat="43.48868" lon="5.24931">
        <ele>165</ele>
        <time>2022-10-02T08:04:39.000Z</time>
      </trkpt>
      <trkpt lat="43.4887" lon="5.2493">
        <ele>165</ele>
        <time>2022-10-02T08:04:40.000Z</time>
      </trkpt>
      <trkpt lat="43.48871" lon="5.24929">
        <ele>165</ele>
        <time>2022-10-02T08:04:41.000Z</time>
      </trkpt>
      <trkpt lat="43.48873" lon="5.24928">
        <ele>165</ele>
        <time>2022-10-02T08:04:42.000Z</time>
      </trkpt>
      <trkpt lat="43.48875" lon="5.24927">
        <ele>165</ele>
        <time>2022-10-02T08:04:43.000Z</time>
      </trkpt>
      <trkpt lat="43.48876" lon="5.24926">
        <ele>165</ele>
        <time>2022-10-02T08:04:44.000Z</time>
      </trkpt>
      <trkpt lat="43.48877" lon="5.24925">
        <ele>165</ele>
        <time>2022-10-02T08:04:45.000Z</time>
      </trkpt>
      <trkpt lat="43.48879" lon="5.24924">
        <ele>165</ele>
        <time>2022-10-02T08:04:46.000Z</time>
      </trkpt>
      <trkpt lat="43.4888" lon="5.24923">
        <ele>165</ele>
        <time>2022-10-02T08:04:47.000Z</time>
      </trkpt>
      <trkpt lat="43.48881" lon="5.24922">
        <ele>166</ele>
        <time>2022-10-02T08:04:48.000Z</time>
      </trkpt>
      <trkpt lat="43.48882" lon="5.24921">
        <ele>166</ele>
        <time>2022-10-02T08:04:49.000Z</time>
      </trkpt>
      <trkpt lat="43.48884" lon="5.2492">
        <ele>166</ele>
        <time>2022-10-02T08:04:50.000Z</time>
      </trkpt>
      <trkpt lat="43.48885" lon="5.24919">
        <ele>166</ele>
        <time>2022-10-02T08:04:51.000Z</time>
      </trkpt>
      <trkpt lat="43.48887" lon="5.24918">
        <ele>166</ele>
        <time>2022-10-02T08:04:52.000Z</time>
      </trkpt>
      <trkpt lat="43.48888" lon="5.24917">
        <ele>166</ele>
        <time>2022-10-02T08:04:53.000Z</time>
      </trkpt>
      <trkpt lat="43.48889" lon="5.24916">
        <ele>166</ele>
        <time>2022-10-02T08:04:54.000Z</time>
      </trkpt>
      <trkpt lat="43.48891" lon="5.24915">
        <ele>166</ele>
        <time>2022-10-02T08:04:55.000Z</time>
      </trkpt>
      <trkpt lat="43.48892" lon="5.24914">
        <ele>166</ele>
        <time>2022-10-02T08:04:56.000Z</time>
      </trkpt>
      <trkpt lat="43.48894" lon="5.24913">
        <ele>166</ele>
        <time>2022-10-02T08:04:57.000Z</time>
      </trkpt>
      <trkpt lat="43.48895" lon="5.24912">
        <ele>167</ele>
        <time>2022-10-02T08:04:58.000Z</time>
      </trkpt>
      <trkpt lat="43.48896" lon="5.24911">
        <ele>167</ele>
        <time>2022-10-02T08:04:59.000Z</time>
      </trkpt>
      <trkpt lat="43.48898" lon="5.2491">
        <ele>167</ele>
        <time>2022-10-02T08:05:00.000Z</time>
      </trkpt>
      <trkpt lat="43.489" lon="5.24909">
        <ele>167</ele>
        <time>2022-10-02T08:05:01.000Z</time>
      </trkpt>
      <trkpt lat="43.48901" lon="5.24908">
        <ele>167</ele>
        <time>2022-10-02T08:05:02.000Z</time>
      </trkpt>
      <trkpt lat="43.48903" lon="5.24907">
        <ele>167</ele>
        <time>2022-10-02T08:05:03.000Z</time>
      </trkpt>
      <trkpt lat="43.48904" lon="5.24906">
        <ele>167</ele>
        <time>2022-10-02T08:05:04.000Z</time>
      </trkpt>
      <trkpt lat="43.48905" lon="5.24905">
        <ele>167</ele>
        <time>2022-10-02T08:05:05.000Z</time>
      </trkpt>
      <trkpt lat="43.48907" lon="5.24904">
        <ele>167</ele>
        <time>2022-10-02T08:05:06.000Z</time>
      </trkpt>
      <trkpt lat="43.48908" lon="5.24903">
        <ele>167</ele>
        <time>2022-10-02T08:05:07.000Z</time>
      </trkpt>
      <trkpt lat="43.48909" lon="5.24901">
        <ele>167</ele>
        <time>2022-10-02T08:05:08.000Z</time>
      </trkpt>
      <trkpt lat="43.48911" lon="5.249">
        <ele>167</ele>
        <time>2022-10-02T08:05:09.000Z</time>
      </trkpt>
      <trkpt lat="43.48912" lon="5.24899">
        <ele>167</ele>
        <time>2022-10-02T08:05:10.000Z</time>
      </trkpt>
      <trkpt lat="43.48913" lon="5.24897">
        <ele>167</ele>
        <time>2022-10-02T08:05:11.000Z</time>
      </trkpt>
      <trkpt lat="43.48914" lon="5.24896">
        <ele>167</ele>
        <time>2022-10-02T08:05:12.000Z</time>
      </trkpt>
      <trkpt lat="43.48915" lon="5.24894">
        <ele>167</ele>
        <time>2022-10-02T08:05:13.000Z</time>
      </trkpt>
      <trkpt lat="43.48916" lon="5.24892">
        <ele>167</ele>
        <time>2022-10-02T08:05:14.000Z</time>
      </trkpt>
      <trkpt lat="43.48917" lon="5.24891">
        <ele>167</ele>
        <time>2022-10-02T08:05:15.000Z</time>
      </trkpt>
      <trkpt lat="43.48918" lon="5.24889">
        <ele>167</ele>
        <time>2022-10-02T08:05:16.000Z</time>
      </trkpt>
      <trkpt lat="43.48919" lon="5.24888">
        <ele>167</ele>
        <time>2022-10-02T08:05:17.000Z</time>
      </trkpt>
      <trkpt lat="43.4892" lon="5.24886">
        <ele>167</ele>
        <time>2022-10-02T08:05:18.000Z</time>
      </trkpt>
      <trkpt lat="43.48922" lon="5.24885">
        <ele>167</ele>
        <time>2022-10-02T08:05:19.000Z</time>
      </trkpt>
      <trkpt lat="43.48923" lon="5.24883">
        <ele>168</ele>
        <time>2022-10-02T08:05:20.000Z</time>
      </trkpt>
      <trkpt lat="43.48924" lon="5.24881">
        <ele>168</ele>
        <time>2022-10-02T08:05:21.000Z</time>
      </trkpt>
      <trkpt lat="43.48925" lon="5.2488">
        <ele>168</ele>
        <time>2022-10-02T08:05:22.000Z</time>
      </trkpt>
      <trkpt lat="43.48926" lon="5.24878">
        <ele>168</ele>
        <time>2022-10-02T08:05:23.000Z</time>
      </trkpt>
      <trkpt lat="43.48927" lon="5.24877">
        <ele>168</ele>
        <time>2022-10-02T08:05:24.000Z</time>
      </trkpt>
      <trkpt lat="43.48928" lon="5.24875">
        <ele>168</ele>
        <time>2022-10-02T08:05:25.000Z</time>
      </trkpt>
      <trkpt lat="43.4893" lon="5.24874">
        <ele>168</ele>
        <time>2022-10-02T08:05:26.000Z</time>
      </trkpt>
      <trkpt lat="43.48931" lon="5.24873">
        <ele>168</ele>
        <time>2022-10-02T08:05:27.000Z</time>
      </trkpt>
      <trkpt lat="43.48932" lon="5.24871">
        <ele>168</ele>
        <time>2022-10-02T08:05:28.000Z</time>
      </trkpt>
      <trkpt lat="43.48933" lon="5.2487">
        <ele>168</ele>
        <time>2022-10-02T08:05:29.000Z</time>
      </trkpt>
      <trkpt lat="43.48934" lon="5.24868">
        <ele>168</ele>
        <time>2022-10-02T08:05:30.000Z</time>
      </trkpt>
      <trkpt lat="43.48935" lon="5.24866">
        <ele>168</ele>
        <time>2022-10-02T08:05:31.000Z</time>
      </trkpt>
      <trkpt lat="43.48936" lon="5.24865">
        <ele>168</ele>
        <time>2022-10-02T08:05:32.000Z</time>
      </trkpt>
      <trkpt lat="43.48937" lon="5.24863">
        <ele>168</ele>
        <time>2022-10-02T08:05:33.000Z</time>
      </trkpt>
      <trkpt lat="43.48938" lon="5.24861">
        <ele>168</ele>
        <time>2022-10-02T08:05:34.000Z</time>
      </trkpt>
      <trkpt lat="43.48939" lon="5.2486">
        <ele>168</ele>
        <time>2022-10-02T08:05:35.000Z</time>
      </trkpt>
      <trkpt lat="43.4894" lon="5.24858">
        <ele>168</ele>
        <time>2022-10-02T08:05:36.000Z</time>
      </trkpt>
      <trkpt lat="43.48941" lon="5.24856">
        <ele>168</ele>
        <time>2022-10-02T08:05:37.000Z</time>
      </trkpt>
      <trkpt lat="43.48942" lon="5.24855">
        <ele>168</ele>
        <time>2022-10-02T08:05:38.000Z</time>
      </trkpt>
      <trkpt lat="43.48944" lon="5.24854">
        <ele>168</ele>
        <time>2022-10-02T08:05:39.000Z</time>
      </trkpt>
      <trkpt lat="43.48945" lon="5.24853">
        <ele>168</ele>
        <time>2022-10-02T08:05:40.000Z</time>
      </trkpt>
      <trkpt lat="43.48946" lon="5.24851">
        <ele>168</ele>
        <time>2022-10-02T08:05:41.000Z</time>
      </trkpt>
      <trkpt lat="43.48947" lon="5.2485">
        <ele>168</ele>
        <time>2022-10-02T08:05:42.000Z</time>
      </trkpt>
      <trkpt lat="43.48949" lon="5.24849">
        <ele>168</ele>
        <time>2022-10-02T08:05:43.000Z</time>
      </trkpt>
      <trkpt lat="43.4895" lon="5.24848">
        <ele>168</ele>
        <time>2022-10-02T08:05:44.000Z</time>
      </trkpt>
      <trkpt lat="43.48951" lon="5.24847">
        <ele>168</ele>
        <time>2022-10-02T08:05:45.000Z</time>
      </trkpt>
      <trkpt lat="43.48953" lon="5.24846">
        <ele>168</ele>
        <time>2022-10-02T08:05:46.000Z</time>
      </trkpt>
      <trkpt lat="43.48954" lon="5.24845">
        <ele>168</ele>
        <time>2022-10-02T08:05:47.000Z</time>
      </trkpt>
      <trkpt lat="43.48955" lon="5.24844">
        <ele>168</ele>
        <time>2022-10-02T08:05:48.000Z</time>
      </trkpt>
      <trkpt lat="43.48957" lon="5.24843">
        <ele>168</ele>
        <time>2022-10-02T08:05:49.000Z</time>
      </trkpt>
      <trkpt lat="43.48958" lon="5.24843">
        <ele>168</ele>
        <time>2022-10-02T08:05:50.000Z</time>
      </trkpt>
      <trkpt lat="43.48958" lon="5.24843">
        <ele>168</ele>
        <time>2022-10-02T08:05:51.000Z</time>
      </trkpt>
      <trkpt lat="43.48959" lon="5.24843">
        <ele>168</ele>
        <time>2022-10-02T08:05:52.000Z</time>
      </trkpt>
      <trkpt lat="43.48959" lon="5.24843">
        <ele>168</ele>
        <time>2022-10-02T08:05:53.000Z</time>
      </trkpt>
      <trkpt lat="43.4896" lon="5.24843">
        <ele>168</ele>
        <time>2022-10-02T08:05:54.000Z</time>
      </trkpt>
      <trkpt lat="43.48961" lon="5.24843">
        <ele>168</ele>
        <time>2022-10-02T08:05:55.000Z</time>
      </trkpt>
      <trkpt lat="43.48962" lon="5.24843">
        <ele>168</ele>
        <time>2022-10-02T08:05:56.000Z</time>
      </trkpt>
      <trkpt lat="43.48962" lon="5.24843">
        <ele>168</ele>
        <time>2022-10-02T08:05:57.000Z</time>
      </trkpt>
      <trkpt lat="43.48962" lon="5.24842">
        <ele>168</ele>
        <time>2022-10-02T08:05:58.000Z</time>
      </trkpt>
      <trkpt lat="43.48961" lon="5.24841">
        <ele>167</ele>
        <time>2022-10-02T08:05:59.000Z</time>
      </trkpt>
      <trkpt lat="43.48962" lon="5.24839">
        <ele>167</ele>
        <time>2022-10-02T08:06:00.000Z</time>
      </trkpt>
      <trkpt lat="43.48962" lon="5.24837">
        <ele>167</ele>
        <time>2022-10-02T08:06:01.000Z</time>
      </trkpt>
      <trkpt lat="43.48962" lon="5.24835">
        <ele>167</ele>
        <time>2022-10-02T08:06:02.000Z</time>
      </trkpt>
      <trkpt lat="43.48962" lon="5.24834">
        <ele>168</ele>
        <time>2022-10-02T08:06:03.000Z</time>
      </trkpt>
      <trkpt lat="43.48962" lon="5.24832">
        <ele>168</ele>
        <time>2022-10-02T08:06:04.000Z</time>
      </trkpt>
      <trkpt lat="43.48962" lon="5.24829">
        <ele>168</ele>
        <time>2022-10-02T08:06:05.000Z</time>
      </trkpt>
      <trkpt lat="43.48962" lon="5.24827">
        <ele>168</ele>
        <time>2022-10-02T08:06:06.000Z</time>
      </trkpt>
      <trkpt lat="43.48963" lon="5.24825">
        <ele>168</ele>
        <time>2022-10-02T08:06:07.000Z</time>
      </trkpt>
      <trkpt lat="43.48963" lon="5.24823">
        <ele>168</ele>
        <time>2022-10-02T08:06:08.000Z</time>
      </trkpt>
      <trkpt lat="43.48964" lon="5.24821">
        <ele>168</ele>
        <time>2022-10-02T08:06:09.000Z</time>
      </trkpt>
      <trkpt lat="43.48965" lon="5.24819">
        <ele>169</ele>
        <time>2022-10-02T08:06:10.000Z</time>
      </trkpt>
      <trkpt lat="43.48965" lon="5.24817">
        <ele>169</ele>
        <time>2022-10-02T08:06:11.000Z</time>
      </trkpt>
      <trkpt lat="43.48966" lon="5.24815">
        <ele>169</ele>
        <time>2022-10-02T08:06:12.000Z</time>
      </trkpt>
      <trkpt lat="43.48966" lon="5.24813">
        <ele>169</ele>
        <time>2022-10-02T08:06:13.000Z</time>
      </trkpt>
      <trkpt lat="43.48967" lon="5.24811">
        <ele>169</ele>
        <time>2022-10-02T08:06:14.000Z</time>
      </trkpt>
      <trkpt lat="43.48968" lon="5.2481">
        <ele>169</ele>
        <time>2022-10-02T08:06:15.000Z</time>
      </trkpt>
      <trkpt lat="43.48968" lon="5.24808">
        <ele>169</ele>
        <time>2022-10-02T08:06:16.000Z</time>
      </trkpt>
      <trkpt lat="43.48968" lon="5.24805">
        <ele>169</ele>
        <time>2022-10-02T08:06:17.000Z</time>
      </trkpt>
      <trkpt lat="43.48969" lon="5.24803">
        <ele>170</ele>
        <time>2022-10-02T08:06:18.000Z</time>
      </trkpt>
      <trkpt lat="43.48969" lon="5.24801">
        <ele>170</ele>
        <time>2022-10-02T08:06:19.000Z</time>
      </trkpt>
      <trkpt lat="43.48969" lon="5.24799">
        <ele>170</ele>
        <time>2022-10-02T08:06:20.000Z</time>
      </trkpt>
      <trkpt lat="43.48969" lon="5.24797">
        <ele>170</ele>
        <time>2022-10-02T08:06:21.000Z</time>
      </trkpt>
      <trkpt lat="43.4897" lon="5.24795">
        <ele>170</ele>
        <time>2022-10-02T08:06:22.000Z</time>
      </trkpt>
      <trkpt lat="43.4897" lon="5.24793">
        <ele>170</ele>
        <time>2022-10-02T08:06:23.000Z</time>
      </trkpt>
      <trkpt lat="43.4897" lon="5.24791">
        <ele>170</ele>
        <time>2022-10-02T08:06:24.000Z</time>
      </trkpt>
      <trkpt lat="43.4897" lon="5.24789">
        <ele>171</ele>
        <time>2022-10-02T08:06:25.000Z</time>
      </trkpt>
      <trkpt lat="43.48971" lon="5.24787">
        <ele>171</ele>
        <time>2022-10-02T08:06:26.000Z</time>
      </trkpt>
      <trkpt lat="43.48971" lon="5.24785">
        <ele>171</ele>
        <time>2022-10-02T08:06:27.000Z</time>
      </trkpt>
      <trkpt lat="43.48972" lon="5.24782">
        <ele>171</ele>
        <time>2022-10-02T08:06:28.000Z</time>
      </trkpt>
      <trkpt lat="43.48972" lon="5.24781">
        <ele>171</ele>
        <time>2022-10-02T08:06:29.000Z</time>
      </trkpt>
      <trkpt lat="43.48972" lon="5.24779">
        <ele>171</ele>
        <time>2022-10-02T08:06:30.000Z</time>
      </trkpt>
      <trkpt lat="43.48972" lon="5.24777">
        <ele>172</ele>
        <time>2022-10-02T08:06:31.000Z</time>
      </trkpt>
      <trkpt lat="43.48972" lon="5.24774">
        <ele>172</ele>
        <time>2022-10-02T08:06:32.000Z</time>
      </trkpt>
      <trkpt lat="43.48972" lon="5.24772">
        <ele>172</ele>
        <time>2022-10-02T08:06:33.000Z</time>
      </trkpt>
      <trkpt lat="43.48973" lon="5.2477">
        <ele>172</ele>
        <time>2022-10-02T08:06:34.000Z</time>
      </trkpt>
      <trkpt lat="43.48973" lon="5.24768">
        <ele>172</ele>
        <time>2022-10-02T08:06:35.000Z</time>
      </trkpt>
      <trkpt lat="43.48974" lon="5.24766">
        <ele>172</ele>
        <time>2022-10-02T08:06:36.000Z</time>
      </trkpt>
      <trkpt lat="43.48975" lon="5.24764">
        <ele>172</ele>
        <time>2022-10-02T08:06:37.000Z</time>
      </trkpt>
      <trkpt lat="43.48975" lon="5.24762">
        <ele>172</ele>
        <time>2022-10-02T08:06:38.000Z</time>
      </trkpt>
      <trkpt lat="43.48976" lon="5.2476">
        <ele>172</ele>
        <time>2022-10-02T08:06:39.000Z</time>
      </trkpt>
      <trkpt lat="43.48977" lon="5.24758">
        <ele>173</ele>
        <time>2022-10-02T08:06:40.000Z</time>
      </trkpt>
      <trkpt lat="43.48977" lon="5.24756">
        <ele>173</ele>
        <time>2022-10-02T08:06:41.000Z</time>
      </trkpt>
      <trkpt lat="43.48978" lon="5.24754">
        <ele>173</ele>
        <time>2022-10-02T08:06:42.000Z</time>
      </trkpt>
      <trkpt lat="43.48979" lon="5.24752">
        <ele>173</ele>
        <time>2022-10-02T08:06:43.000Z</time>
      </trkpt>
      <trkpt lat="43.4898" lon="5.2475">
        <ele>173</ele>
        <time>2022-10-02T08:06:44.000Z</time>
      </trkpt>
      <trkpt lat="43.4898" lon="5.24748">
        <ele>173</ele>
        <time>2022-10-02T08:06:45.000Z</time>
      </trkpt>
      <trkpt lat="43.48981" lon="5.24747">
        <ele>173</ele>
        <time>2022-10-02T08:06:46.000Z</time>
      </trkpt>
      <trkpt lat="43.48982" lon="5.24745">
        <ele>173</ele>
        <time>2022-10-02T08:06:47.000Z</time>
      </trkpt>
      <trkpt lat="43.48983" lon="5.24743">
        <ele>173</ele>
        <time>2022-10-02T08:06:48.000Z</time>
      </trkpt>
      <trkpt lat="43.48984" lon="5.24741">
        <ele>173</ele>
        <time>2022-10-02T08:06:49.000Z</time>
      </trkpt>
      <trkpt lat="43.48985" lon="5.24739">
        <ele>173</ele>
        <time>2022-10-02T08:06:50.000Z</time>
      </trkpt>
      <trkpt lat="43.48986" lon="5.24737">
        <ele>173</ele>
        <time>2022-10-02T08:06:51.000Z</time>
      </trkpt>
      <trkpt lat="43.48987" lon="5.24735">
        <ele>173</ele>
        <time>2022-10-02T08:06:52.000Z</time>
      </trkpt>
      <trkpt lat="43.48987" lon="5.24733">
        <ele>173</ele>
        <time>2022-10-02T08:06:53.000Z</time>
      </trkpt>
      <trkpt lat="43.48988" lon="5.24732">
        <ele>173</ele>
        <time>2022-10-02T08:06:54.000Z</time>
      </trkpt>
      <trkpt lat="43.48989" lon="5.2473">
        <ele>173</ele>
        <time>2022-10-02T08:06:55.000Z</time>
      </trkpt>
      <trkpt lat="43.4899" lon="5.24728">
        <ele>173</ele>
        <time>2022-10-02T08:06:56.000Z</time>
      </trkpt>
      <trkpt lat="43.48991" lon="5.24726">
        <ele>173</ele>
        <time>2022-10-02T08:06:57.000Z</time>
      </trkpt>
      <trkpt lat="43.48992" lon="5.24724">
        <ele>173</ele>
        <time>2022-10-02T08:06:58.000Z</time>
      </trkpt>
      <trkpt lat="43.48993" lon="5.24722">
        <ele>173</ele>
        <time>2022-10-02T08:06:59.000Z</time>
      </trkpt>
      <trkpt lat="43.48993" lon="5.24721">
        <ele>173</ele>
        <time>2022-10-02T08:07:00.000Z</time>
      </trkpt>
      <trkpt lat="43.48994" lon="5.24719">
        <ele>173</ele>
        <time>2022-10-02T08:07:01.000Z</time>
      </trkpt>
      <trkpt lat="43.48995" lon="5.24717">
        <ele>173</ele>
        <time>2022-10-02T08:07:02.000Z</time>
      </trkpt>
      <trkpt lat="43.48996" lon="5.24715">
        <ele>173</ele>
        <time>2022-10-02T08:07:03.000Z</time>
      </trkpt>
      <trkpt lat="43.48997" lon="5.24713">
        <ele>173</ele>
        <time>2022-10-02T08:07:04.000Z</time>
      </trkpt>
      <trkpt lat="43.48999" lon="5.24712">
        <ele>173</ele>
        <time>2022-10-02T08:07:05.000Z</time>
      </trkpt>
      <trkpt lat="43.49" lon="5.2471">
        <ele>173</ele>
        <time>2022-10-02T08:07:06.000Z</time>
      </trkpt>
      <trkpt lat="43.49001" lon="5.24709">
        <ele>173</ele>
        <time>2022-10-02T08:07:07.000Z</time>
      </trkpt>
      <trkpt lat="43.49003" lon="5.24708">
        <ele>173</ele>
        <time>2022-10-02T08:07:08.000Z</time>
      </trkpt>
      <trkpt lat="43.49004" lon="5.24707">
        <ele>174</ele>
        <time>2022-10-02T08:07:09.000Z</time>
      </trkpt>
      <trkpt lat="43.49005" lon="5.24706">
        <ele>174</ele>
        <time>2022-10-02T08:07:10.000Z</time>
      </trkpt>
      <trkpt lat="43.49007" lon="5.24705">
        <ele>174</ele>
        <time>2022-10-02T08:07:11.000Z</time>
      </trkpt>
      <trkpt lat="43.49008" lon="5.24704">
        <ele>174</ele>
        <time>2022-10-02T08:07:12.000Z</time>
      </trkpt>
      <trkpt lat="43.4901" lon="5.24702">
        <ele>174</ele>
        <time>2022-10-02T08:07:13.000Z</time>
      </trkpt>
      <trkpt lat="43.49011" lon="5.24701">
        <ele>174</ele>
        <time>2022-10-02T08:07:14.000Z</time>
      </trkpt>
      <trkpt lat="43.49012" lon="5.247">
        <ele>174</ele>
        <time>2022-10-02T08:07:15.000Z</time>
      </trkpt>
      <trkpt lat="43.49013" lon="5.24699">
        <ele>174</ele>
        <time>2022-10-02T08:07:16.000Z</time>
      </trkpt>
      <trkpt lat="43.49014" lon="5.24697">
        <ele>174</ele>
        <time>2022-10-02T08:07:17.000Z</time>
      </trkpt>
      <trkpt lat="43.49015" lon="5.24696">
        <ele>174</ele>
        <time>2022-10-02T08:07:18.000Z</time>
      </trkpt>
      <trkpt lat="43.49016" lon="5.24694">
        <ele>174</ele>
        <time>2022-10-02T08:07:19.000Z</time>
      </trkpt>
      <trkpt lat="43.49017" lon="5.24692">
        <ele>174</ele>
        <time>2022-10-02T08:07:20.000Z</time>
      </trkpt>
      <trkpt lat="43.49018" lon="5.2469">
        <ele>174</ele>
        <time>2022-10-02T08:07:21.000Z</time>
      </trkpt>
      <trkpt lat="43.49018" lon="5.24688">
        <ele>174</ele>
        <time>2022-10-02T08:07:22.000Z</time>
      </trkpt>
      <trkpt lat="43.49019" lon="5.24686">
        <ele>174</ele>
        <time>2022-10-02T08:07:23.000Z</time>
      </trkpt>
      <trkpt lat="43.49019" lon="5.24684">
        <ele>174</ele>
        <time>2022-10-02T08:07:24.000Z</time>
      </trkpt>
      <trkpt lat="43.49019" lon="5.24682">
        <ele>174</ele>
        <time>2022-10-02T08:07:25.000Z</time>
      </trkpt>
      <trkpt lat="43.4902" lon="5.2468">
        <ele>175</ele>
        <time>2022-10-02T08:07:26.000Z</time>
      </trkpt>
      <trkpt lat="43.4902" lon="5.24678">
        <ele>175</ele>
        <time>2022-10-02T08:07:27.000Z</time>
      </trkpt>
      <trkpt lat="43.4902" lon="5.24676">
        <ele>175</ele>
        <time>2022-10-02T08:07:28.000Z</time>
      </trkpt>
      <trkpt lat="43.49019" lon="5.24673">
        <ele>175</ele>
        <time>2022-10-02T08:07:29.000Z</time>
      </trkpt>
      <trkpt lat="43.49019" lon="5.24671">
        <ele>175</ele>
        <time>2022-10-02T08:07:30.000Z</time>
      </trkpt>
      <trkpt lat="43.49019" lon="5.24669">
        <ele>175</ele>
        <time>2022-10-02T08:07:31.000Z</time>
      </trkpt>
      <trkpt lat="43.49019" lon="5.24667">
        <ele>175</ele>
        <time>2022-10-02T08:07:32.000Z</time>
      </trkpt>
      <trkpt lat="43.49019" lon="5.24665">
        <ele>175</ele>
        <time>2022-10-02T08:07:33.000Z</time>
      </trkpt>
      <trkpt lat="43.49019" lon="5.24662">
        <ele>175</ele>
        <time>2022-10-02T08:07:34.000Z</time>
      </trkpt>
      <trkpt lat="43.49019" lon="5.2466">
        <ele>175</ele>
        <time>2022-10-02T08:07:35.000Z</time>
      </trkpt>
      <trkpt lat="43.49019" lon="5.24658">
        <ele>175</ele>
        <time>2022-10-02T08:07:36.000Z</time>
      </trkpt>
      <trkpt lat="43.49018" lon="5.24656">
        <ele>175</ele>
        <time>2022-10-02T08:07:37.000Z</time>
      </trkpt>
      <trkpt lat="43.49018" lon="5.24654">
        <ele>175</ele>
        <time>2022-10-02T08:07:38.000Z</time>
      </trkpt>
      <trkpt lat="43.49018" lon="5.24652">
        <ele>175</ele>
        <time>2022-10-02T08:07:39.000Z</time>
      </trkpt>
      <trkpt lat="43.49018" lon="5.24649">
        <ele>175</ele>
        <time>2022-10-02T08:07:40.000Z</time>
      </trkpt>
      <trkpt lat="43.49018" lon="5.24647">
        <ele>175</ele>
        <time>2022-10-02T08:07:41.000Z</time>
      </trkpt>
      <trkpt lat="43.49018" lon="5.24645">
        <ele>175</ele>
        <time>2022-10-02T08:07:42.000Z</time>
      </trkpt>
      <trkpt lat="43.49018" lon="5.24643">
        <ele>175</ele>
        <time>2022-10-02T08:07:43.000Z</time>
      </trkpt>
      <trkpt lat="43.49018" lon="5.24641">
        <ele>176</ele>
        <time>2022-10-02T08:07:44.000Z</time>
      </trkpt>
      <trkpt lat="43.49019" lon="5.24639">
        <ele>176</ele>
        <time>2022-10-02T08:07:45.000Z</time>
      </trkpt>
      <trkpt lat="43.49019" lon="5.24637">
        <ele>176</ele>
        <time>2022-10-02T08:07:46.000Z</time>
      </trkpt>
      <trkpt lat="43.49019" lon="5.24634">
        <ele>176</ele>
        <time>2022-10-02T08:07:47.000Z</time>
      </trkpt>
      <trkpt lat="43.49019" lon="5.24632">
        <ele>176</ele>
        <time>2022-10-02T08:07:48.000Z</time>
      </trkpt>
      <trkpt lat="43.49019" lon="5.2463">
        <ele>176</ele>
        <time>2022-10-02T08:07:49.000Z</time>
      </trkpt>
      <trkpt lat="43.49019" lon="5.24628">
        <ele>176</ele>
        <time>2022-10-02T08:07:50.000Z</time>
      </trkpt>
      <trkpt lat="43.49019" lon="5.24626">
        <ele>176</ele>
        <time>2022-10-02T08:07:51.000Z</time>
      </trkpt>
      <trkpt lat="43.49019" lon="5.24624">
        <ele>176</ele>
        <time>2022-10-02T08:07:52.000Z</time>
      </trkpt>
      <trkpt lat="43.4902" lon="5.24622">
        <ele>176</ele>
        <time>2022-10-02T08:07:53.000Z</time>
      </trkpt>
      <trkpt lat="43.4902" lon="5.2462">
        <ele>176</ele>
        <time>2022-10-02T08:07:54.000Z</time>
      </trkpt>
      <trkpt lat="43.4902" lon="5.24618">
        <ele>176</ele>
        <time>2022-10-02T08:07:55.000Z</time>
      </trkpt>
      <trkpt lat="43.4902" lon="5.24616">
        <ele>176</ele>
        <time>2022-10-02T08:07:56.000Z</time>
      </trkpt>
      <trkpt lat="43.4902" lon="5.24614">
        <ele>176</ele>
        <time>2022-10-02T08:07:57.000Z</time>
      </trkpt>
      <trkpt lat="43.4902" lon="5.24612">
        <ele>176</ele>
        <time>2022-10-02T08:07:58.000Z</time>
      </trkpt>
      <trkpt lat="43.4902" lon="5.2461">
        <ele>176</ele>
        <time>2022-10-02T08:07:59.000Z</time>
      </trkpt>
      <trkpt lat="43.4902" lon="5.24608">
        <ele>176</ele>
        <time>2022-10-02T08:08:00.000Z</time>
      </trkpt>
      <trkpt lat="43.49021" lon="5.24605">
        <ele>176</ele>
        <time>2022-10-02T08:08:01.000Z</time>
      </trkpt>
      <trkpt lat="43.49021" lon="5.24603">
        <ele>176</ele>
        <time>2022-10-02T08:08:02.000Z</time>
      </trkpt>
      <trkpt lat="43.49021" lon="5.24601">
        <ele>177</ele>
        <time>2022-10-02T08:08:03.000Z</time>
      </trkpt>
      <trkpt lat="43.49021" lon="5.24599">
        <ele>177</ele>
        <time>2022-10-02T08:08:04.000Z</time>
      </trkpt>
      <trkpt lat="43.49021" lon="5.24597">
        <ele>177</ele>
        <time>2022-10-02T08:08:05.000Z</time>
      </trkpt>
      <trkpt lat="43.49021" lon="5.24595">
        <ele>177</ele>
        <time>2022-10-02T08:08:06.000Z</time>
      </trkpt>
      <trkpt lat="43.49021" lon="5.24593">
        <ele>177</ele>
        <time>2022-10-02T08:08:07.000Z</time>
      </trkpt>
      <trkpt lat="43.49022" lon="5.24591">
        <ele>177</ele>
        <time>2022-10-02T08:08:08.000Z</time>
      </trkpt>
      <trkpt lat="43.49022" lon="5.24588">
        <ele>177</ele>
        <time>2022-10-02T08:08:09.000Z</time>
      </trkpt>
      <trkpt lat="43.49022" lon="5.24586">
        <ele>177</ele>
        <time>2022-10-02T08:08:10.000Z</time>
      </trkpt>
      <trkpt lat="43.49022" lon="5.24584">
        <ele>177</ele>
        <time>2022-10-02T08:08:11.000Z</time>
      </trkpt>
      <trkpt lat="43.49022" lon="5.24582">
        <ele>177</ele>
        <time>2022-10-02T08:08:12.000Z</time>
      </trkpt>
      <trkpt lat="43.49022" lon="5.2458">
        <ele>177</ele>
        <time>2022-10-02T08:08:13.000Z</time>
      </trkpt>
      <trkpt lat="43.49022" lon="5.24577">
        <ele>177</ele>
        <time>2022-10-02T08:08:14.000Z</time>
      </trkpt>
      <trkpt lat="43.49022" lon="5.24575">
        <ele>177</ele>
        <time>2022-10-02T08:08:15.000Z</time>
      </trkpt>
      <trkpt lat="43.49023" lon="5.24573">
        <ele>177</ele>
        <time>2022-10-02T08:08:16.000Z</time>
      </trkpt>
      <trkpt lat="43.49023" lon="5.24571">
        <ele>177</ele>
        <time>2022-10-02T08:08:17.000Z</time>
      </trkpt>
      <trkpt lat="43.49023" lon="5.24569">
        <ele>177</ele>
        <time>2022-10-02T08:08:18.000Z</time>
      </trkpt>
      <trkpt lat="43.49023" lon="5.24567">
        <ele>177</ele>
        <time>2022-10-02T08:08:19.000Z</time>
      </trkpt>
      <trkpt lat="43.49024" lon="5.24565">
        <ele>177</ele>
        <time>2022-10-02T08:08:20.000Z</time>
      </trkpt>
      <trkpt lat="43.49025" lon="5.24563">
        <ele>177</ele>
        <time>2022-10-02T08:08:21.000Z</time>
      </trkpt>
      <trkpt lat="43.49025" lon="5.24561">
        <ele>177</ele>
        <time>2022-10-02T08:08:22.000Z</time>
      </trkpt>
      <trkpt lat="43.49026" lon="5.24559">
        <ele>177</ele>
        <time>2022-10-02T08:08:23.000Z</time>
      </trkpt>
      <trkpt lat="43.49027" lon="5.24557">
        <ele>177</ele>
        <time>2022-10-02T08:08:24.000Z</time>
      </trkpt>
      <trkpt lat="43.49028" lon="5.24555">
        <ele>177</ele>
        <time>2022-10-02T08:08:25.000Z</time>
      </trkpt>
      <trkpt lat="43.49029" lon="5.24553">
        <ele>178</ele>
        <time>2022-10-02T08:08:26.000Z</time>
      </trkpt>
      <trkpt lat="43.4903" lon="5.24551">
        <ele>178</ele>
        <time>2022-10-02T08:08:27.000Z</time>
      </trkpt>
      <trkpt lat="43.49031" lon="5.2455">
        <ele>178</ele>
        <time>2022-10-02T08:08:28.000Z</time>
      </trkpt>
      <trkpt lat="43.49032" lon="5.24548">
        <ele>178</ele>
        <time>2022-10-02T08:08:29.000Z</time>
      </trkpt>
      <trkpt lat="43.49032" lon="5.24546">
        <ele>178</ele>
        <time>2022-10-02T08:08:30.000Z</time>
      </trkpt>
      <trkpt lat="43.49033" lon="5.24544">
        <ele>178</ele>
        <time>2022-10-02T08:08:31.000Z</time>
      </trkpt>
      <trkpt lat="43.49034" lon="5.24543">
        <ele>178</ele>
        <time>2022-10-02T08:08:32.000Z</time>
      </trkpt>
      <trkpt lat="43.49035" lon="5.24541">
        <ele>178</ele>
        <time>2022-10-02T08:08:33.000Z</time>
      </trkpt>
      <trkpt lat="43.49036" lon="5.24539">
        <ele>178</ele>
        <time>2022-10-02T08:08:34.000Z</time>
      </trkpt>
      <trkpt lat="43.49037" lon="5.24537">
        <ele>178</ele>
        <time>2022-10-02T08:08:35.000Z</time>
      </trkpt>
      <trkpt lat="43.49038" lon="5.24535">
        <ele>178</ele>
        <time>2022-10-02T08:08:36.000Z</time>
      </trkpt>
      <trkpt lat="43.49039" lon="5.24533">
        <ele>178</ele>
        <time>2022-10-02T08:08:37.000Z</time>
      </trkpt>
      <trkpt lat="43.4904" lon="5.24532">
        <ele>178</ele>
        <time>2022-10-02T08:08:38.000Z</time>
      </trkpt>
      <trkpt lat="43.49041" lon="5.2453">
        <ele>178</ele>
        <time>2022-10-02T08:08:39.000Z</time>
      </trkpt>
      <trkpt lat="43.49042" lon="5.24528">
        <ele>178</ele>
        <time>2022-10-02T08:08:40.000Z</time>
      </trkpt>
      <trkpt lat="43.49043" lon="5.24526">
        <ele>178</ele>
        <time>2022-10-02T08:08:41.000Z</time>
      </trkpt>
      <trkpt lat="43.49044" lon="5.24524">
        <ele>178</ele>
        <time>2022-10-02T08:08:42.000Z</time>
      </trkpt>
      <trkpt lat="43.49044" lon="5.24523">
        <ele>178</ele>
        <time>2022-10-02T08:08:43.000Z</time>
      </trkpt>
      <trkpt lat="43.49045" lon="5.24521">
        <ele>178</ele>
        <time>2022-10-02T08:08:44.000Z</time>
      </trkpt>
      <trkpt lat="43.49046" lon="5.24519">
        <ele>178</ele>
        <time>2022-10-02T08:08:45.000Z</time>
      </trkpt>
      <trkpt lat="43.49046" lon="5.24517">
        <ele>178</ele>
        <time>2022-10-02T08:08:46.000Z</time>
      </trkpt>
      <trkpt lat="43.49047" lon="5.24515">
        <ele>179</ele>
        <time>2022-10-02T08:08:47.000Z</time>
      </trkpt>
      <trkpt lat="43.49048" lon="5.24514">
        <ele>179</ele>
        <time>2022-10-02T08:08:48.000Z</time>
      </trkpt>
      <trkpt lat="43.49048" lon="5.24512">
        <ele>179</ele>
        <time>2022-10-02T08:08:49.000Z</time>
      </trkpt>
      <trkpt lat="43.49049" lon="5.2451">
        <ele>179</ele>
        <time>2022-10-02T08:08:50.000Z</time>
      </trkpt>
      <trkpt lat="43.4905" lon="5.24508">
        <ele>179</ele>
        <time>2022-10-02T08:08:51.000Z</time>
      </trkpt>
      <trkpt lat="43.49051" lon="5.24506">
        <ele>179</ele>
        <time>2022-10-02T08:08:52.000Z</time>
      </trkpt>
      <trkpt lat="43.49051" lon="5.24504">
        <ele>179</ele>
        <time>2022-10-02T08:08:53.000Z</time>
      </trkpt>
      <trkpt lat="43.49052" lon="5.24502">
        <ele>179</ele>
        <time>2022-10-02T08:08:54.000Z</time>
      </trkpt>
      <trkpt lat="43.49052" lon="5.245">
        <ele>179</ele>
        <time>2022-10-02T08:08:55.000Z</time>
      </trkpt>
      <trkpt lat="43.49053" lon="5.24498">
        <ele>179</ele>
        <time>2022-10-02T08:08:56.000Z</time>
      </trkpt>
      <trkpt lat="43.49054" lon="5.24496">
        <ele>179</ele>
        <time>2022-10-02T08:08:57.000Z</time>
      </trkpt>
      <trkpt lat="43.49054" lon="5.24494">
        <ele>179</ele>
        <time>2022-10-02T08:08:58.000Z</time>
      </trkpt>
      <trkpt lat="43.49055" lon="5.24491">
        <ele>179</ele>
        <time>2022-10-02T08:08:59.000Z</time>
      </trkpt>
      <trkpt lat="43.49055" lon="5.24489">
        <ele>179</ele>
        <time>2022-10-02T08:09:00.000Z</time>
      </trkpt>
      <trkpt lat="43.49056" lon="5.24488">
        <ele>180</ele>
        <time>2022-10-02T08:09:01.000Z</time>
      </trkpt>
      <trkpt lat="43.49057" lon="5.24486">
        <ele>180</ele>
        <time>2022-10-02T08:09:02.000Z</time>
      </trkpt>
      <trkpt lat="43.49057" lon="5.24484">
        <ele>180</ele>
        <time>2022-10-02T08:09:03.000Z</time>
      </trkpt>
      <trkpt lat="43.49058" lon="5.24482">
        <ele>180</ele>
        <time>2022-10-02T08:09:04.000Z</time>
      </trkpt>
      <trkpt lat="43.49058" lon="5.2448">
        <ele>180</ele>
        <time>2022-10-02T08:09:05.000Z</time>
      </trkpt>
      <trkpt lat="43.49059" lon="5.24478">
        <ele>180</ele>
        <time>2022-10-02T08:09:06.000Z</time>
      </trkpt>
      <trkpt lat="43.49059" lon="5.24476">
        <ele>180</ele>
        <time>2022-10-02T08:09:07.000Z</time>
      </trkpt>
      <trkpt lat="43.49059" lon="5.24474">
        <ele>180</ele>
        <time>2022-10-02T08:09:08.000Z</time>
      </trkpt>
      <trkpt lat="43.4906" lon="5.24472">
        <ele>180</ele>
        <time>2022-10-02T08:09:09.000Z</time>
      </trkpt>
      <trkpt lat="43.4906" lon="5.2447">
        <ele>180</ele>
        <time>2022-10-02T08:09:10.000Z</time>
      </trkpt>
      <trkpt lat="43.4906" lon="5.24468">
        <ele>180</ele>
        <time>2022-10-02T08:09:11.000Z</time>
      </trkpt>
      <trkpt lat="43.4906" lon="5.24465">
        <ele>180</ele>
        <time>2022-10-02T08:09:12.000Z</time>
      </trkpt>
      <trkpt lat="43.4906" lon="5.24463">
        <ele>180</ele>
        <time>2022-10-02T08:09:13.000Z</time>
      </trkpt>
      <trkpt lat="43.49059" lon="5.24461">
        <ele>180</ele>
        <time>2022-10-02T08:09:14.000Z</time>
      </trkpt>
      <trkpt lat="43.49059" lon="5.24459">
        <ele>180</ele>
        <time>2022-10-02T08:09:15.000Z</time>
      </trkpt>
      <trkpt lat="43.49059" lon="5.24457">
        <ele>181</ele>
        <time>2022-10-02T08:09:16.000Z</time>
      </trkpt>
      <trkpt lat="43.49058" lon="5.24455">
        <ele>181</ele>
        <time>2022-10-02T08:09:17.000Z</time>
      </trkpt>
      <trkpt lat="43.49058" lon="5.24454">
        <ele>181</ele>
        <time>2022-10-02T08:09:18.000Z</time>
      </trkpt>
      <trkpt lat="43.49057" lon="5.24452">
        <ele>181</ele>
        <time>2022-10-02T08:09:19.000Z</time>
      </trkpt>
      <trkpt lat="43.49056" lon="5.24452">
        <ele>181</ele>
        <time>2022-10-02T08:09:20.000Z</time>
      </trkpt>
      <trkpt lat="43.49055" lon="5.24452">
        <ele>181</ele>
        <time>2022-10-02T08:09:21.000Z</time>
      </trkpt>
      <trkpt lat="43.49055" lon="5.24452">
        <ele>181</ele>
        <time>2022-10-02T08:09:22.000Z</time>
      </trkpt>
      <trkpt lat="43.49055" lon="5.24453">
        <ele>181</ele>
        <time>2022-10-02T08:09:23.000Z</time>
      </trkpt>
      <trkpt lat="43.49054" lon="5.24453">
        <ele>181</ele>
        <time>2022-10-02T08:09:24.000Z</time>
      </trkpt>
      <trkpt lat="43.49053" lon="5.24453">
        <ele>181</ele>
        <time>2022-10-02T08:09:25.000Z</time>
      </trkpt>
      <trkpt lat="43.49052" lon="5.24453">
        <ele>181</ele>
        <time>2022-10-02T08:09:26.000Z</time>
      </trkpt>
      <trkpt lat="43.4905" lon="5.24453">
        <ele>181</ele>
        <time>2022-10-02T08:09:27.000Z</time>
      </trkpt>
      <trkpt lat="43.49049" lon="5.24453">
        <ele>181</ele>
        <time>2022-10-02T08:09:28.000Z</time>
      </trkpt>
      <trkpt lat="43.49048" lon="5.24451">
        <ele>181</ele>
        <time>2022-10-02T08:09:29.000Z</time>
      </trkpt>
      <trkpt lat="43.49047" lon="5.2445">
        <ele>181</ele>
        <time>2022-10-02T08:09:30.000Z</time>
      </trkpt>
      <trkpt lat="43.49047" lon="5.2445">
        <ele>181</ele>
        <time>2022-10-02T08:09:31.000Z</time>
      </trkpt>
      <trkpt lat="43.49047" lon="5.24452">
        <ele>181</ele>
        <time>2022-10-02T08:09:32.000Z</time>
      </trkpt>
      <trkpt lat="43.49047" lon="5.24453">
        <ele>181</ele>
        <time>2022-10-02T08:09:33.000Z</time>
      </trkpt>
      <trkpt lat="43.49046" lon="5.24455">
        <ele>181</ele>
        <time>2022-10-02T08:09:34.000Z</time>
      </trkpt>
      <trkpt lat="43.49046" lon="5.24457">
        <ele>181</ele>
        <time>2022-10-02T08:09:35.000Z</time>
      </trkpt>
      <trkpt lat="43.49045" lon="5.24458">
        <ele>181</ele>
        <time>2022-10-02T08:09:36.000Z</time>
      </trkpt>
      <trkpt lat="43.49044" lon="5.2446">
        <ele>181</ele>
        <time>2022-10-02T08:09:37.000Z</time>
      </trkpt>
      <trkpt lat="43.49044" lon="5.24462">
        <ele>180</ele>
        <time>2022-10-02T08:09:38.000Z</time>
      </trkpt>
      <trkpt lat="43.49043" lon="5.24464">
        <ele>180</ele>
        <time>2022-10-02T08:09:39.000Z</time>
      </trkpt>
      <trkpt lat="43.49042" lon="5.24465">
        <ele>180</ele>
        <time>2022-10-02T08:09:40.000Z</time>
      </trkpt>
      <trkpt lat="43.49041" lon="5.24467">
        <ele>180</ele>
        <time>2022-10-02T08:09:41.000Z</time>
      </trkpt>
      <trkpt lat="43.4904" lon="5.24468">
        <ele>180</ele>
        <time>2022-10-02T08:09:42.000Z</time>
      </trkpt>
      <trkpt lat="43.49038" lon="5.2447">
        <ele>180</ele>
        <time>2022-10-02T08:09:43.000Z</time>
      </trkpt>
      <trkpt lat="43.49037" lon="5.24471">
        <ele>180</ele>
        <time>2022-10-02T08:09:44.000Z</time>
      </trkpt>
      <trkpt lat="43.49036" lon="5.24473">
        <ele>180</ele>
        <time>2022-10-02T08:09:45.000Z</time>
      </trkpt>
      <trkpt lat="43.49034" lon="5.24474">
        <ele>180</ele>
        <time>2022-10-02T08:09:46.000Z</time>
      </trkpt>
      <trkpt lat="43.49032" lon="5.24475">
        <ele>180</ele>
        <time>2022-10-02T08:09:47.000Z</time>
      </trkpt>
      <trkpt lat="43.49031" lon="5.24476">
        <ele>180</ele>
        <time>2022-10-02T08:09:48.000Z</time>
      </trkpt>
      <trkpt lat="43.4903" lon="5.24477">
        <ele>180</ele>
        <time>2022-10-02T08:09:49.000Z</time>
      </trkpt>
      <trkpt lat="43.49028" lon="5.24478">
        <ele>180</ele>
        <time>2022-10-02T08:09:50.000Z</time>
      </trkpt>
      <trkpt lat="43.49027" lon="5.24479">
        <ele>180</ele>
        <time>2022-10-02T08:09:51.000Z</time>
      </trkpt>
      <trkpt lat="43.49025" lon="5.2448">
        <ele>180</ele>
        <time>2022-10-02T08:09:52.000Z</time>
      </trkpt>
      <trkpt lat="43.49024" lon="5.24481">
        <ele>180</ele>
        <time>2022-10-02T08:09:53.000Z</time>
      </trkpt>
      <trkpt lat="43.49023" lon="5.24482">
        <ele>180</ele>
        <time>2022-10-02T08:09:54.000Z</time>
      </trkpt>
      <trkpt lat="43.49021" lon="5.24483">
        <ele>180</ele>
        <time>2022-10-02T08:09:55.000Z</time>
      </trkpt>
      <trkpt lat="43.4902" lon="5.24484">
        <ele>179</ele>
        <time>2022-10-02T08:09:56.000Z</time>
      </trkpt>
      <trkpt lat="43.49018" lon="5.24485">
        <ele>179</ele>
        <time>2022-10-02T08:09:57.000Z</time>
      </trkpt>
      <trkpt lat="43.49017" lon="5.24486">
        <ele>179</ele>
        <time>2022-10-02T08:09:58.000Z</time>
      </trkpt>
      <trkpt lat="43.49015" lon="5.24487">
        <ele>179</ele>
        <time>2022-10-02T08:09:59.000Z</time>
      </trkpt>
      <trkpt lat="43.49014" lon="5.24488">
        <ele>180</ele>
        <time>2022-10-02T08:10:00.000Z</time>
      </trkpt>
      <trkpt lat="43.49012" lon="5.24489">
        <ele>180</ele>
        <time>2022-10-02T08:10:01.000Z</time>
      </trkpt>
      <trkpt lat="43.49011" lon="5.24491">
        <ele>180</ele>
        <time>2022-10-02T08:10:02.000Z</time>
      </trkpt>
      <trkpt lat="43.4901" lon="5.24492">
        <ele>180</ele>
        <time>2022-10-02T08:10:03.000Z</time>
      </trkpt>
      <trkpt lat="43.49008" lon="5.24493">
        <ele>180</ele>
        <time>2022-10-02T08:10:04.000Z</time>
      </trkpt>
      <trkpt lat="43.49007" lon="5.24495">
        <ele>180</ele>
        <time>2022-10-02T08:10:05.000Z</time>
      </trkpt>
      <trkpt lat="43.49005" lon="5.24496">
        <ele>179</ele>
        <time>2022-10-02T08:10:06.000Z</time>
      </trkpt>
      <trkpt lat="43.49004" lon="5.24497">
        <ele>179</ele>
        <time>2022-10-02T08:10:07.000Z</time>
      </trkpt>
      <trkpt lat="43.49003" lon="5.24499">
        <ele>179</ele>
        <time>2022-10-02T08:10:08.000Z</time>
      </trkpt>
      <trkpt lat="43.49001" lon="5.245">
        <ele>179</ele>
        <time>2022-10-02T08:10:09.000Z</time>
      </trkpt>
      <trkpt lat="43.49" lon="5.24502">
        <ele>179</ele>
        <time>2022-10-02T08:10:10.000Z</time>
      </trkpt>
      <trkpt lat="43.48999" lon="5.24503">
        <ele>179</ele>
        <time>2022-10-02T08:10:11.000Z</time>
      </trkpt>
      <trkpt lat="43.48998" lon="5.24504">
        <ele>179</ele>
        <time>2022-10-02T08:10:12.000Z</time>
      </trkpt>
      <trkpt lat="43.48997" lon="5.24505">
        <ele>179</ele>
        <time>2022-10-02T08:10:13.000Z</time>
      </trkpt>
      <trkpt lat="43.48995" lon="5.24507">
        <ele>179</ele>
        <time>2022-10-02T08:10:14.000Z</time>
      </trkpt>
      <trkpt lat="43.48994" lon="5.24508">
        <ele>179</ele>
        <time>2022-10-02T08:10:15.000Z</time>
      </trkpt>
      <trkpt lat="43.48993" lon="5.2451">
        <ele>179</ele>
        <time>2022-10-02T08:10:16.000Z</time>
      </trkpt>
      <trkpt lat="43.48991" lon="5.24511">
        <ele>179</ele>
        <time>2022-10-02T08:10:17.000Z</time>
      </trkpt>
      <trkpt lat="43.4899" lon="5.24513">
        <ele>179</ele>
        <time>2022-10-02T08:10:18.000Z</time>
      </trkpt>
      <trkpt lat="43.48989" lon="5.24514">
        <ele>179</ele>
        <time>2022-10-02T08:10:19.000Z</time>
      </trkpt>
      <trkpt lat="43.48987" lon="5.24516">
        <ele>179</ele>
        <time>2022-10-02T08:10:20.000Z</time>
      </trkpt>
      <trkpt lat="43.48986" lon="5.24517">
        <ele>179</ele>
        <time>2022-10-02T08:10:21.000Z</time>
      </trkpt>
      <trkpt lat="43.48984" lon="5.24518">
        <ele>179</ele>
        <time>2022-10-02T08:10:22.000Z</time>
      </trkpt>
      <trkpt lat="43.48983" lon="5.2452">
        <ele>179</ele>
        <time>2022-10-02T08:10:23.000Z</time>
      </trkpt>
      <trkpt lat="43.48981" lon="5.24521">
        <ele>179</ele>
        <time>2022-10-02T08:10:24.000Z</time>
      </trkpt>
      <trkpt lat="43.4898" lon="5.24522">
        <ele>179</ele>
        <time>2022-10-02T08:10:25.000Z</time>
      </trkpt>
      <trkpt lat="43.48979" lon="5.24524">
        <ele>179</ele>
        <time>2022-10-02T08:10:26.000Z</time>
      </trkpt>
      <trkpt lat="43.48978" lon="5.24525">
        <ele>179</ele>
        <time>2022-10-02T08:10:27.000Z</time>
      </trkpt>
      <trkpt lat="43.48977" lon="5.24526">
        <ele>179</ele>
        <time>2022-10-02T08:10:28.000Z</time>
      </trkpt>
      <trkpt lat="43.48976" lon="5.24528">
        <ele>180</ele>
        <time>2022-10-02T08:10:29.000Z</time>
      </trkpt>
      <trkpt lat="43.48974" lon="5.24529">
        <ele>180</ele>
        <time>2022-10-02T08:10:30.000Z</time>
      </trkpt>
      <trkpt lat="43.48973" lon="5.2453">
        <ele>180</ele>
        <time>2022-10-02T08:10:31.000Z</time>
      </trkpt>
      <trkpt lat="43.48971" lon="5.24531">
        <ele>180</ele>
        <time>2022-10-02T08:10:32.000Z</time>
      </trkpt>
      <trkpt lat="43.4897" lon="5.24532">
        <ele>180</ele>
        <time>2022-10-02T08:10:33.000Z</time>
      </trkpt>
      <trkpt lat="43.48969" lon="5.24534">
        <ele>180</ele>
        <time>2022-10-02T08:10:34.000Z</time>
      </trkpt>
      <trkpt lat="43.48968" lon="5.24535">
        <ele>180</ele>
        <time>2022-10-02T08:10:35.000Z</time>
      </trkpt>
      <trkpt lat="43.48967" lon="5.24536">
        <ele>180</ele>
        <time>2022-10-02T08:10:36.000Z</time>
      </trkpt>
      <trkpt lat="43.48966" lon="5.24537">
        <ele>181</ele>
        <time>2022-10-02T08:10:37.000Z</time>
      </trkpt>
      <trkpt lat="43.48964" lon="5.24538">
        <ele>181</ele>
        <time>2022-10-02T08:10:38.000Z</time>
      </trkpt>
      <trkpt lat="43.48963" lon="5.24539">
        <ele>181</ele>
        <time>2022-10-02T08:10:39.000Z</time>
      </trkpt>
      <trkpt lat="43.48962" lon="5.2454">
        <ele>181</ele>
        <time>2022-10-02T08:10:40.000Z</time>
      </trkpt>
      <trkpt lat="43.48961" lon="5.24541">
        <ele>181</ele>
        <time>2022-10-02T08:10:41.000Z</time>
      </trkpt>
      <trkpt lat="43.48959" lon="5.24541">
        <ele>181</ele>
        <time>2022-10-02T08:10:42.000Z</time>
      </trkpt>
      <trkpt lat="43.48958" lon="5.24542">
        <ele>181</ele>
        <time>2022-10-02T08:10:43.000Z</time>
      </trkpt>
      <trkpt lat="43.48956" lon="5.24543">
        <ele>181</ele>
        <time>2022-10-02T08:10:44.000Z</time>
      </trkpt>
      <trkpt lat="43.48954" lon="5.24544">
        <ele>181</ele>
        <time>2022-10-02T08:10:45.000Z</time>
      </trkpt>
      <trkpt lat="43.48953" lon="5.24545">
        <ele>181</ele>
        <time>2022-10-02T08:10:46.000Z</time>
      </trkpt>
      <trkpt lat="43.48952" lon="5.24546">
        <ele>181</ele>
        <time>2022-10-02T08:10:47.000Z</time>
      </trkpt>
      <trkpt lat="43.4895" lon="5.24548">
        <ele>181</ele>
        <time>2022-10-02T08:10:48.000Z</time>
      </trkpt>
      <trkpt lat="43.48949" lon="5.24549">
        <ele>182</ele>
        <time>2022-10-02T08:10:49.000Z</time>
      </trkpt>
      <trkpt lat="43.48947" lon="5.2455">
        <ele>182</ele>
        <time>2022-10-02T08:10:50.000Z</time>
      </trkpt>
      <trkpt lat="43.48946" lon="5.24551">
        <ele>182</ele>
        <time>2022-10-02T08:10:51.000Z</time>
      </trkpt>
      <trkpt lat="43.48945" lon="5.24553">
        <ele>181</ele>
        <time>2022-10-02T08:10:52.000Z</time>
      </trkpt>
      <trkpt lat="43.48943" lon="5.24554">
        <ele>181</ele>
        <time>2022-10-02T08:10:53.000Z</time>
      </trkpt>
      <trkpt lat="43.48942" lon="5.24556">
        <ele>182</ele>
        <time>2022-10-02T08:10:54.000Z</time>
      </trkpt>
      <trkpt lat="43.48941" lon="5.24557">
        <ele>182</ele>
        <time>2022-10-02T08:10:55.000Z</time>
      </trkpt>
      <trkpt lat="43.48939" lon="5.24558">
        <ele>182</ele>
        <time>2022-10-02T08:10:56.000Z</time>
      </trkpt>
      <trkpt lat="43.48938" lon="5.24559">
        <ele>181</ele>
        <time>2022-10-02T08:10:57.000Z</time>
      </trkpt>
      <trkpt lat="43.48936" lon="5.24561">
        <ele>181</ele>
        <time>2022-10-02T08:10:58.000Z</time>
      </trkpt>
      <trkpt lat="43.48935" lon="5.24562">
        <ele>181</ele>
        <time>2022-10-02T08:10:59.000Z</time>
      </trkpt>
      <trkpt lat="43.48934" lon="5.24564">
        <ele>181</ele>
        <time>2022-10-02T08:11:00.000Z</time>
      </trkpt>
      <trkpt lat="43.48933" lon="5.24565">
        <ele>181</ele>
        <time>2022-10-02T08:11:01.000Z</time>
      </trkpt>
      <trkpt lat="43.48932" lon="5.24567">
        <ele>181</ele>
        <time>2022-10-02T08:11:02.000Z</time>
      </trkpt>
      <trkpt lat="43.48931" lon="5.24569">
        <ele>182</ele>
        <time>2022-10-02T08:11:03.000Z</time>
      </trkpt>
      <trkpt lat="43.4893" lon="5.2457">
        <ele>182</ele>
        <time>2022-10-02T08:11:04.000Z</time>
      </trkpt>
      <trkpt lat="43.48929" lon="5.24572">
        <ele>181</ele>
        <time>2022-10-02T08:11:05.000Z</time>
      </trkpt>
      <trkpt lat="43.48928" lon="5.24573">
        <ele>181</ele>
        <time>2022-10-02T08:11:06.000Z</time>
      </trkpt>
      <trkpt lat="43.48927" lon="5.24575">
        <ele>181</ele>
        <time>2022-10-02T08:11:07.000Z</time>
      </trkpt>
      <trkpt lat="43.48925" lon="5.24576">
        <ele>181</ele>
        <time>2022-10-02T08:11:08.000Z</time>
      </trkpt>
      <trkpt lat="43.48924" lon="5.24578">
        <ele>181</ele>
        <time>2022-10-02T08:11:09.000Z</time>
      </trkpt>
      <trkpt lat="43.48923" lon="5.24579">
        <ele>181</ele>
        <time>2022-10-02T08:11:10.000Z</time>
      </trkpt>
      <trkpt lat="43.48922" lon="5.24581">
        <ele>181</ele>
        <time>2022-10-02T08:11:11.000Z</time>
      </trkpt>
      <trkpt lat="43.48921" lon="5.24583">
        <ele>181</ele>
        <time>2022-10-02T08:11:12.000Z</time>
      </trkpt>
      <trkpt lat="43.4892" lon="5.24584">
        <ele>181</ele>
        <time>2022-10-02T08:11:13.000Z</time>
      </trkpt>
      <trkpt lat="43.48919" lon="5.24586">
        <ele>181</ele>
        <time>2022-10-02T08:11:14.000Z</time>
      </trkpt>
      <trkpt lat="43.48918" lon="5.24588">
        <ele>181</ele>
        <time>2022-10-02T08:11:15.000Z</time>
      </trkpt>
      <trkpt lat="43.48916" lon="5.2459">
        <ele>181</ele>
        <time>2022-10-02T08:11:16.000Z</time>
      </trkpt>
      <trkpt lat="43.48915" lon="5.24591">
        <ele>181</ele>
        <time>2022-10-02T08:11:17.000Z</time>
      </trkpt>
      <trkpt lat="43.48914" lon="5.24593">
        <ele>181</ele>
        <time>2022-10-02T08:11:18.000Z</time>
      </trkpt>
      <trkpt lat="43.48914" lon="5.24595">
        <ele>181</ele>
        <time>2022-10-02T08:11:19.000Z</time>
      </trkpt>
      <trkpt lat="43.48913" lon="5.24597">
        <ele>181</ele>
        <time>2022-10-02T08:11:20.000Z</time>
      </trkpt>
      <trkpt lat="43.48911" lon="5.24598">
        <ele>181</ele>
        <time>2022-10-02T08:11:21.000Z</time>
      </trkpt>
      <trkpt lat="43.4891" lon="5.246">
        <ele>181</ele>
        <time>2022-10-02T08:11:22.000Z</time>
      </trkpt>
      <trkpt lat="43.48909" lon="5.24602">
        <ele>181</ele>
        <time>2022-10-02T08:11:23.000Z</time>
      </trkpt>
      <trkpt lat="43.48908" lon="5.24603">
        <ele>181</ele>
        <time>2022-10-02T08:11:24.000Z</time>
      </trkpt>
      <trkpt lat="43.48907" lon="5.24605">
        <ele>181</ele>
        <time>2022-10-02T08:11:25.000Z</time>
      </trkpt>
      <trkpt lat="43.48906" lon="5.24607">
        <ele>181</ele>
        <time>2022-10-02T08:11:26.000Z</time>
      </trkpt>
      <trkpt lat="43.48905" lon="5.24608">
        <ele>181</ele>
        <time>2022-10-02T08:11:27.000Z</time>
      </trkpt>
      <trkpt lat="43.48903" lon="5.2461">
        <ele>180</ele>
        <time>2022-10-02T08:11:28.000Z</time>
      </trkpt>
      <trkpt lat="43.48902" lon="5.24611">
        <ele>180</ele>
        <time>2022-10-02T08:11:29.000Z</time>
      </trkpt>
      <trkpt lat="43.48901" lon="5.24613">
        <ele>180</ele>
        <time>2022-10-02T08:11:30.000Z</time>
      </trkpt>
      <trkpt lat="43.48899" lon="5.24614">
        <ele>180</ele>
        <time>2022-10-02T08:11:31.000Z</time>
      </trkpt>
      <trkpt lat="43.48898" lon="5.24615">
        <ele>180</ele>
        <time>2022-10-02T08:11:32.000Z</time>
      </trkpt>
      <trkpt lat="43.48897" lon="5.24617">
        <ele>180</ele>
        <time>2022-10-02T08:11:33.000Z</time>
      </trkpt>
      <trkpt lat="43.48896" lon="5.24619">
        <ele>180</ele>
        <time>2022-10-02T08:11:34.000Z</time>
      </trkpt>
      <trkpt lat="43.48894" lon="5.2462">
        <ele>180</ele>
        <time>2022-10-02T08:11:35.000Z</time>
      </trkpt>
      <trkpt lat="43.48893" lon="5.24621">
        <ele>180</ele>
        <time>2022-10-02T08:11:36.000Z</time>
      </trkpt>
      <trkpt lat="43.48892" lon="5.24623">
        <ele>179</ele>
        <time>2022-10-02T08:11:37.000Z</time>
      </trkpt>
      <trkpt lat="43.48891" lon="5.24624">
        <ele>179</ele>
        <time>2022-10-02T08:11:38.000Z</time>
      </trkpt>
      <trkpt lat="43.48891" lon="5.24626">
        <ele>179</ele>
        <time>2022-10-02T08:11:39.000Z</time>
      </trkpt>
      <trkpt lat="43.4889" lon="5.24628">
        <ele>179</ele>
        <time>2022-10-02T08:11:40.000Z</time>
      </trkpt>
      <trkpt lat="43.48889" lon="5.2463">
        <ele>179</ele>
        <time>2022-10-02T08:11:41.000Z</time>
      </trkpt>
      <trkpt lat="43.48889" lon="5.24632">
        <ele>179</ele>
        <time>2022-10-02T08:11:42.000Z</time>
      </trkpt>
      <trkpt lat="43.48888" lon="5.24634">
        <ele>178</ele>
        <time>2022-10-02T08:11:43.000Z</time>
      </trkpt>
      <trkpt lat="43.48887" lon="5.24636">
        <ele>178</ele>
        <time>2022-10-02T08:11:44.000Z</time>
      </trkpt>
      <trkpt lat="43.48887" lon="5.24639">
        <ele>178</ele>
        <time>2022-10-02T08:11:45.000Z</time>
      </trkpt>
      <trkpt lat="43.48887" lon="5.24641">
        <ele>178</ele>
        <time>2022-10-02T08:11:46.000Z</time>
      </trkpt>
      <trkpt lat="43.48887" lon="5.24643">
        <ele>178</ele>
        <time>2022-10-02T08:11:47.000Z</time>
      </trkpt>
      <trkpt lat="43.48886" lon="5.24645">
        <ele>178</ele>
        <time>2022-10-02T08:11:48.000Z</time>
      </trkpt>
      <trkpt lat="43.48886" lon="5.24648">
        <ele>178</ele>
        <time>2022-10-02T08:11:49.000Z</time>
      </trkpt>
      <trkpt lat="43.48886" lon="5.2465">
        <ele>178</ele>
        <time>2022-10-02T08:11:50.000Z</time>
      </trkpt>
      <trkpt lat="43.48886" lon="5.24652">
        <ele>178</ele>
        <time>2022-10-02T08:11:51.000Z</time>
      </trkpt>
      <trkpt lat="43.48886" lon="5.24655">
        <ele>178</ele>
        <time>2022-10-02T08:11:52.000Z</time>
      </trkpt>
      <trkpt lat="43.48886" lon="5.24657">
        <ele>178</ele>
        <time>2022-10-02T08:11:53.000Z</time>
      </trkpt>
      <trkpt lat="43.48886" lon="5.24659">
        <ele>178</ele>
        <time>2022-10-02T08:11:54.000Z</time>
      </trkpt>
      <trkpt lat="43.48886" lon="5.24661">
        <ele>178</ele>
        <time>2022-10-02T08:11:55.000Z</time>
      </trkpt>
      <trkpt lat="43.48886" lon="5.24663">
        <ele>178</ele>
        <time>2022-10-02T08:11:56.000Z</time>
      </trkpt>
      <trkpt lat="43.48886" lon="5.24665">
        <ele>177</ele>
        <time>2022-10-02T08:11:57.000Z</time>
      </trkpt>
      <trkpt lat="43.48886" lon="5.24668">
        <ele>177</ele>
        <time>2022-10-02T08:11:58.000Z</time>
      </trkpt>
      <trkpt lat="43.48886" lon="5.24671">
        <ele>177</ele>
        <time>2022-10-02T08:11:59.000Z</time>
      </trkpt>
      <trkpt lat="43.48886" lon="5.24673">
        <ele>177</ele>
        <time>2022-10-02T08:12:00.000Z</time>
      </trkpt>
      <trkpt lat="43.48886" lon="5.24675">
        <ele>177</ele>
        <time>2022-10-02T08:12:01.000Z</time>
      </trkpt>
      <trkpt lat="43.48886" lon="5.24677">
        <ele>177</ele>
        <time>2022-10-02T08:12:02.000Z</time>
      </trkpt>
      <trkpt lat="43.48886" lon="5.2468">
        <ele>177</ele>
        <time>2022-10-02T08:12:03.000Z</time>
      </trkpt>
      <trkpt lat="43.48886" lon="5.24682">
        <ele>177</ele>
        <time>2022-10-02T08:12:04.000Z</time>
      </trkpt>
      <trkpt lat="43.48885" lon="5.24684">
        <ele>177</ele>
        <time>2022-10-02T08:12:05.000Z</time>
      </trkpt>
      <trkpt lat="43.48885" lon="5.24687">
        <ele>177</ele>
        <time>2022-10-02T08:12:06.000Z</time>
      </trkpt>
      <trkpt lat="43.48885" lon="5.24689">
        <ele>177</ele>
        <time>2022-10-02T08:12:07.000Z</time>
      </trkpt>
      <trkpt lat="43.48885" lon="5.24691">
        <ele>177</ele>
        <time>2022-10-02T08:12:08.000Z</time>
      </trkpt>
      <trkpt lat="43.48884" lon="5.24693">
        <ele>177</ele>
        <time>2022-10-02T08:12:09.000Z</time>
      </trkpt>
      <trkpt lat="43.48884" lon="5.24696">
        <ele>177</ele>
        <time>2022-10-02T08:12:10.000Z</time>
      </trkpt>
      <trkpt lat="43.48883" lon="5.24698">
        <ele>177</ele>
        <time>2022-10-02T08:12:11.000Z</time>
      </trkpt>
      <trkpt lat="43.48883" lon="5.247">
        <ele>177</ele>
        <time>2022-10-02T08:12:12.000Z</time>
      </trkpt>
      <trkpt lat="43.48882" lon="5.24702">
        <ele>177</ele>
        <time>2022-10-02T08:12:13.000Z</time>
      </trkpt>
      <trkpt lat="43.48881" lon="5.24705">
        <ele>177</ele>
        <time>2022-10-02T08:12:14.000Z</time>
      </trkpt>
      <trkpt lat="43.4888" lon="5.24706">
        <ele>177</ele>
        <time>2022-10-02T08:12:15.000Z</time>
      </trkpt>
      <trkpt lat="43.4888" lon="5.24709">
        <ele>176</ele>
        <time>2022-10-02T08:12:16.000Z</time>
      </trkpt>
      <trkpt lat="43.48879" lon="5.24711">
        <ele>176</ele>
        <time>2022-10-02T08:12:17.000Z</time>
      </trkpt>
      <trkpt lat="43.48878" lon="5.24713">
        <ele>176</ele>
        <time>2022-10-02T08:12:18.000Z</time>
      </trkpt>
      <trkpt lat="43.48877" lon="5.24715">
        <ele>176</ele>
        <time>2022-10-02T08:12:19.000Z</time>
      </trkpt>
      <trkpt lat="43.48876" lon="5.24717">
        <ele>176</ele>
        <time>2022-10-02T08:12:20.000Z</time>
      </trkpt>
      <trkpt lat="43.48875" lon="5.24719">
        <ele>176</ele>
        <time>2022-10-02T08:12:21.000Z</time>
      </trkpt>
      <trkpt lat="43.48874" lon="5.24721">
        <ele>176</ele>
        <time>2022-10-02T08:12:22.000Z</time>
      </trkpt>
      <trkpt lat="43.48873" lon="5.24723">
        <ele>176</ele>
        <time>2022-10-02T08:12:23.000Z</time>
      </trkpt>
      <trkpt lat="43.48872" lon="5.24725">
        <ele>176</ele>
        <time>2022-10-02T08:12:24.000Z</time>
      </trkpt>
      <trkpt lat="43.48871" lon="5.24727">
        <ele>176</ele>
        <time>2022-10-02T08:12:25.000Z</time>
      </trkpt>
      <trkpt lat="43.4887" lon="5.24728">
        <ele>176</ele>
        <time>2022-10-02T08:12:26.000Z</time>
      </trkpt>
      <trkpt lat="43.48869" lon="5.2473">
        <ele>176</ele>
        <time>2022-10-02T08:12:27.000Z</time>
      </trkpt>
      <trkpt lat="43.48868" lon="5.24732">
        <ele>176</ele>
        <time>2022-10-02T08:12:28.000Z</time>
      </trkpt>
      <trkpt lat="43.48867" lon="5.24734">
        <ele>176</ele>
        <time>2022-10-02T08:12:29.000Z</time>
      </trkpt>
      <trkpt lat="43.48867" lon="5.24736">
        <ele>176</ele>
        <time>2022-10-02T08:12:30.000Z</time>
      </trkpt>
      <trkpt lat="43.48866" lon="5.24738">
        <ele>176</ele>
        <time>2022-10-02T08:12:31.000Z</time>
      </trkpt>
      <trkpt lat="43.48865" lon="5.2474">
        <ele>176</ele>
        <time>2022-10-02T08:12:32.000Z</time>
      </trkpt>
      <trkpt lat="43.48864" lon="5.24743">
        <ele>177</ele>
        <time>2022-10-02T08:12:33.000Z</time>
      </trkpt>
      <trkpt lat="43.48863" lon="5.24745">
        <ele>177</ele>
        <time>2022-10-02T08:12:34.000Z</time>
      </trkpt>
      <trkpt lat="43.48862" lon="5.24747">
        <ele>176</ele>
        <time>2022-10-02T08:12:35.000Z</time>
      </trkpt>
      <trkpt lat="43.48861" lon="5.24749">
        <ele>176</ele>
        <time>2022-10-02T08:12:36.000Z</time>
      </trkpt>
      <trkpt lat="43.4886" lon="5.24751">
        <ele>176</ele>
        <time>2022-10-02T08:12:37.000Z</time>
      </trkpt>
      <trkpt lat="43.48859" lon="5.24753">
        <ele>176</ele>
        <time>2022-10-02T08:12:38.000Z</time>
      </trkpt>
      <trkpt lat="43.48858" lon="5.24755">
        <ele>176</ele>
        <time>2022-10-02T08:12:39.000Z</time>
      </trkpt>
      <trkpt lat="43.48857" lon="5.24757">
        <ele>176</ele>
        <time>2022-10-02T08:12:40.000Z</time>
      </trkpt>
      <trkpt lat="43.48856" lon="5.24759">
        <ele>176</ele>
        <time>2022-10-02T08:12:41.000Z</time>
      </trkpt>
      <trkpt lat="43.48855" lon="5.2476">
        <ele>176</ele>
        <time>2022-10-02T08:12:42.000Z</time>
      </trkpt>
      <trkpt lat="43.48854" lon="5.24762">
        <ele>176</ele>
        <time>2022-10-02T08:12:43.000Z</time>
      </trkpt>
      <trkpt lat="43.48853" lon="5.24764">
        <ele>176</ele>
        <time>2022-10-02T08:12:44.000Z</time>
      </trkpt>
      <trkpt lat="43.48852" lon="5.24766">
        <ele>176</ele>
        <time>2022-10-02T08:12:45.000Z</time>
      </trkpt>
      <trkpt lat="43.48851" lon="5.24767">
        <ele>176</ele>
        <time>2022-10-02T08:12:46.000Z</time>
      </trkpt>
      <trkpt lat="43.4885" lon="5.24769">
        <ele>176</ele>
        <time>2022-10-02T08:12:47.000Z</time>
      </trkpt>
      <trkpt lat="43.48849" lon="5.24771">
        <ele>176</ele>
        <time>2022-10-02T08:12:48.000Z</time>
      </trkpt>
      <trkpt lat="43.48848" lon="5.24773">
        <ele>176</ele>
        <time>2022-10-02T08:12:49.000Z</time>
      </trkpt>
      <trkpt lat="43.48847" lon="5.24775">
        <ele>176</ele>
        <time>2022-10-02T08:12:50.000Z</time>
      </trkpt>
      <trkpt lat="43.48846" lon="5.24777">
        <ele>176</ele>
        <time>2022-10-02T08:12:51.000Z</time>
      </trkpt>
      <trkpt lat="43.48844" lon="5.24778">
        <ele>176</ele>
        <time>2022-10-02T08:12:52.000Z</time>
      </trkpt>
      <trkpt lat="43.48843" lon="5.2478">
        <ele>176</ele>
        <time>2022-10-02T08:12:53.000Z</time>
      </trkpt>
      <trkpt lat="43.48842" lon="5.24782">
        <ele>176</ele>
        <time>2022-10-02T08:12:54.000Z</time>
      </trkpt>
      <trkpt lat="43.48841" lon="5.24783">
        <ele>176</ele>
        <time>2022-10-02T08:12:55.000Z</time>
      </trkpt>
      <trkpt lat="43.4884" lon="5.24785">
        <ele>176</ele>
        <time>2022-10-02T08:12:56.000Z</time>
      </trkpt>
      <trkpt lat="43.48838" lon="5.24786">
        <ele>176</ele>
        <time>2022-10-02T08:12:57.000Z</time>
      </trkpt>
      <trkpt lat="43.48837" lon="5.24788">
        <ele>176</ele>
        <time>2022-10-02T08:12:58.000Z</time>
      </trkpt>
      <trkpt lat="43.48836" lon="5.24789">
        <ele>176</ele>
        <time>2022-10-02T08:12:59.000Z</time>
      </trkpt>
      <trkpt lat="43.48835" lon="5.24791">
        <ele>175</ele>
        <time>2022-10-02T08:13:00.000Z</time>
      </trkpt>
      <trkpt lat="43.48833" lon="5.24792">
        <ele>175</ele>
        <time>2022-10-02T08:13:01.000Z</time>
      </trkpt>
      <trkpt lat="43.48832" lon="5.24794">
        <ele>175</ele>
        <time>2022-10-02T08:13:02.000Z</time>
      </trkpt>
      <trkpt lat="43.48831" lon="5.24795">
        <ele>175</ele>
        <time>2022-10-02T08:13:03.000Z</time>
      </trkpt>
      <trkpt lat="43.48829" lon="5.24797">
        <ele>175</ele>
        <time>2022-10-02T08:13:04.000Z</time>
      </trkpt>
      <trkpt lat="43.48828" lon="5.24798">
        <ele>175</ele>
        <time>2022-10-02T08:13:05.000Z</time>
      </trkpt>
      <trkpt lat="43.48826" lon="5.248">
        <ele>175</ele>
        <time>2022-10-02T08:13:06.000Z</time>
      </trkpt>
      <trkpt lat="43.48825" lon="5.24801">
        <ele>175</ele>
        <time>2022-10-02T08:13:07.000Z</time>
      </trkpt>
      <trkpt lat="43.48824" lon="5.24802">
        <ele>175</ele>
        <time>2022-10-02T08:13:08.000Z</time>
      </trkpt>
      <trkpt lat="43.48822" lon="5.24804">
        <ele>175</ele>
        <time>2022-10-02T08:13:09.000Z</time>
      </trkpt>
      <trkpt lat="43.48821" lon="5.24805">
        <ele>175</ele>
        <time>2022-10-02T08:13:10.000Z</time>
      </trkpt>
      <trkpt lat="43.48819" lon="5.24806">
        <ele>175</ele>
        <time>2022-10-02T08:13:11.000Z</time>
      </trkpt>
      <trkpt lat="43.48818" lon="5.24808">
        <ele>175</ele>
        <time>2022-10-02T08:13:12.000Z</time>
      </trkpt>
      <trkpt lat="43.48817" lon="5.24809">
        <ele>174</ele>
        <time>2022-10-02T08:13:13.000Z</time>
      </trkpt>
      <trkpt lat="43.48815" lon="5.2481">
        <ele>174</ele>
        <time>2022-10-02T08:13:14.000Z</time>
      </trkpt>
      <trkpt lat="43.48814" lon="5.24812">
        <ele>174</ele>
        <time>2022-10-02T08:13:15.000Z</time>
      </trkpt>
      <trkpt lat="43.48813" lon="5.24813">
        <ele>174</ele>
        <time>2022-10-02T08:13:16.000Z</time>
      </trkpt>
      <trkpt lat="43.48812" lon="5.24814">
        <ele>175</ele>
        <time>2022-10-02T08:13:17.000Z</time>
      </trkpt>
      <trkpt lat="43.4881" lon="5.24815">
        <ele>174</ele>
        <time>2022-10-02T08:13:18.000Z</time>
      </trkpt>
      <trkpt lat="43.48809" lon="5.24817">
        <ele>174</ele>
        <time>2022-10-02T08:13:19.000Z</time>
      </trkpt>
      <trkpt lat="43.48807" lon="5.24818">
        <ele>174</ele>
        <time>2022-10-02T08:13:20.000Z</time>
      </trkpt>
      <trkpt lat="43.48806" lon="5.24819">
        <ele>174</ele>
        <time>2022-10-02T08:13:21.000Z</time>
      </trkpt>
      <trkpt lat="43.48804" lon="5.2482">
        <ele>174</ele>
        <time>2022-10-02T08:13:22.000Z</time>
      </trkpt>
      <trkpt lat="43.48803" lon="5.24821">
        <ele>174</ele>
        <time>2022-10-02T08:13:23.000Z</time>
      </trkpt>
      <trkpt lat="43.48802" lon="5.24822">
        <ele>174</ele>
        <time>2022-10-02T08:13:24.000Z</time>
      </trkpt>
      <trkpt lat="43.488" lon="5.24824">
        <ele>174</ele>
        <time>2022-10-02T08:13:25.000Z</time>
      </trkpt>
      <trkpt lat="43.48799" lon="5.24825">
        <ele>174</ele>
        <time>2022-10-02T08:13:26.000Z</time>
      </trkpt>
      <trkpt lat="43.48798" lon="5.24826">
        <ele>174</ele>
        <time>2022-10-02T08:13:27.000Z</time>
      </trkpt>
      <trkpt lat="43.48796" lon="5.24828">
        <ele>174</ele>
        <time>2022-10-02T08:13:28.000Z</time>
      </trkpt>
      <trkpt lat="43.48795" lon="5.24829">
        <ele>174</ele>
        <time>2022-10-02T08:13:29.000Z</time>
      </trkpt>
      <trkpt lat="43.48794" lon="5.2483">
        <ele>174</ele>
        <time>2022-10-02T08:13:30.000Z</time>
      </trkpt>
      <trkpt lat="43.48792" lon="5.24832">
        <ele>174</ele>
        <time>2022-10-02T08:13:31.000Z</time>
      </trkpt>
      <trkpt lat="43.48791" lon="5.24833">
        <ele>174</ele>
        <time>2022-10-02T08:13:32.000Z</time>
      </trkpt>
      <trkpt lat="43.48789" lon="5.24834">
        <ele>173</ele>
        <time>2022-10-02T08:13:33.000Z</time>
      </trkpt>
      <trkpt lat="43.48788" lon="5.24835">
        <ele>173</ele>
        <time>2022-10-02T08:13:34.000Z</time>
      </trkpt>
      <trkpt lat="43.48786" lon="5.24837">
        <ele>173</ele>
        <time>2022-10-02T08:13:35.000Z</time>
      </trkpt>
      <trkpt lat="43.48785" lon="5.24838">
        <ele>173</ele>
        <time>2022-10-02T08:13:36.000Z</time>
      </trkpt>
      <trkpt lat="43.48784" lon="5.24839">
        <ele>173</ele>
        <time>2022-10-02T08:13:37.000Z</time>
      </trkpt>
      <trkpt lat="43.48782" lon="5.24841">
        <ele>173</ele>
        <time>2022-10-02T08:13:38.000Z</time>
      </trkpt>
      <trkpt lat="43.48781" lon="5.24842">
        <ele>173</ele>
        <time>2022-10-02T08:13:39.000Z</time>
      </trkpt>
      <trkpt lat="43.4878" lon="5.24843">
        <ele>173</ele>
        <time>2022-10-02T08:13:40.000Z</time>
      </trkpt>
      <trkpt lat="43.48779" lon="5.24845">
        <ele>173</ele>
        <time>2022-10-02T08:13:41.000Z</time>
      </trkpt>
      <trkpt lat="43.48778" lon="5.24846">
        <ele>173</ele>
        <time>2022-10-02T08:13:42.000Z</time>
      </trkpt>
      <trkpt lat="43.48776" lon="5.24848">
        <ele>173</ele>
        <time>2022-10-02T08:13:43.000Z</time>
      </trkpt>
      <trkpt lat="43.48775" lon="5.24849">
        <ele>172</ele>
        <time>2022-10-02T08:13:44.000Z</time>
      </trkpt>
      <trkpt lat="43.48773" lon="5.24851">
        <ele>172</ele>
        <time>2022-10-02T08:13:45.000Z</time>
      </trkpt>
      <trkpt lat="43.48772" lon="5.24852">
        <ele>172</ele>
        <time>2022-10-02T08:13:46.000Z</time>
      </trkpt>
      <trkpt lat="43.4877" lon="5.24853">
        <ele>172</ele>
        <time>2022-10-02T08:13:47.000Z</time>
      </trkpt>
      <trkpt lat="43.48769" lon="5.24854">
        <ele>172</ele>
        <time>2022-10-02T08:13:48.000Z</time>
      </trkpt>
      <trkpt lat="43.48767" lon="5.24854">
        <ele>172</ele>
        <time>2022-10-02T08:13:49.000Z</time>
      </trkpt>
      <trkpt lat="43.48766" lon="5.24855">
        <ele>172</ele>
        <time>2022-10-02T08:13:50.000Z</time>
      </trkpt>
      <trkpt lat="43.48764" lon="5.24856">
        <ele>171</ele>
        <time>2022-10-02T08:13:51.000Z</time>
      </trkpt>
      <trkpt lat="43.48762" lon="5.24857">
        <ele>171</ele>
        <time>2022-10-02T08:13:52.000Z</time>
      </trkpt>
      <trkpt lat="43.48761" lon="5.24858">
        <ele>171</ele>
        <time>2022-10-02T08:13:53.000Z</time>
      </trkpt>
      <trkpt lat="43.48759" lon="5.24859">
        <ele>171</ele>
        <time>2022-10-02T08:13:54.000Z</time>
      </trkpt>
      <trkpt lat="43.48758" lon="5.24859">
        <ele>171</ele>
        <time>2022-10-02T08:13:55.000Z</time>
      </trkpt>
      <trkpt lat="43.48756" lon="5.2486">
        <ele>171</ele>
        <time>2022-10-02T08:13:56.000Z</time>
      </trkpt>
      <trkpt lat="43.48755" lon="5.24861">
        <ele>171</ele>
        <time>2022-10-02T08:13:57.000Z</time>
      </trkpt>
      <trkpt lat="43.48753" lon="5.24862">
        <ele>171</ele>
        <time>2022-10-02T08:13:58.000Z</time>
      </trkpt>
      <trkpt lat="43.48752" lon="5.24863">
        <ele>170</ele>
        <time>2022-10-02T08:13:59.000Z</time>
      </trkpt>
      <trkpt lat="43.4875" lon="5.24864">
        <ele>170</ele>
        <time>2022-10-02T08:14:00.000Z</time>
      </trkpt>
      <trkpt lat="43.48749" lon="5.24865">
        <ele>170</ele>
        <time>2022-10-02T08:14:01.000Z</time>
      </trkpt>
      <trkpt lat="43.48748" lon="5.24866">
        <ele>170</ele>
        <time>2022-10-02T08:14:02.000Z</time>
      </trkpt>
      <trkpt lat="43.48746" lon="5.24868">
        <ele>170</ele>
        <time>2022-10-02T08:14:03.000Z</time>
      </trkpt>
      <trkpt lat="43.48745" lon="5.24869">
        <ele>170</ele>
        <time>2022-10-02T08:14:04.000Z</time>
      </trkpt>
      <trkpt lat="43.48744" lon="5.2487">
        <ele>170</ele>
        <time>2022-10-02T08:14:05.000Z</time>
      </trkpt>
      <trkpt lat="43.48742" lon="5.24871">
        <ele>170</ele>
        <time>2022-10-02T08:14:06.000Z</time>
      </trkpt>
      <trkpt lat="43.48741" lon="5.24872">
        <ele>170</ele>
        <time>2022-10-02T08:14:07.000Z</time>
      </trkpt>
      <trkpt lat="43.4874" lon="5.24873">
        <ele>170</ele>
        <time>2022-10-02T08:14:08.000Z</time>
      </trkpt>
      <trkpt lat="43.48738" lon="5.24874">
        <ele>170</ele>
        <time>2022-10-02T08:14:09.000Z</time>
      </trkpt>
      <trkpt lat="43.48736" lon="5.24875">
        <ele>170</ele>
        <time>2022-10-02T08:14:10.000Z</time>
      </trkpt>
      <trkpt lat="43.48735" lon="5.24875">
        <ele>170</ele>
        <time>2022-10-02T08:14:11.000Z</time>
      </trkpt>
      <trkpt lat="43.48733" lon="5.24876">
        <ele>170</ele>
        <time>2022-10-02T08:14:12.000Z</time>
      </trkpt>
      <trkpt lat="43.48732" lon="5.24877">
        <ele>169</ele>
        <time>2022-10-02T08:14:13.000Z</time>
      </trkpt>
      <trkpt lat="43.4873" lon="5.24879">
        <ele>169</ele>
        <time>2022-10-02T08:14:14.000Z</time>
      </trkpt>
      <trkpt lat="43.48729" lon="5.2488">
        <ele>169</ele>
        <time>2022-10-02T08:14:15.000Z</time>
      </trkpt>
      <trkpt lat="43.48727" lon="5.24881">
        <ele>169</ele>
        <time>2022-10-02T08:14:16.000Z</time>
      </trkpt>
      <trkpt lat="43.48725" lon="5.24882">
        <ele>169</ele>
        <time>2022-10-02T08:14:17.000Z</time>
      </trkpt>
      <trkpt lat="43.48724" lon="5.24883">
        <ele>169</ele>
        <time>2022-10-02T08:14:18.000Z</time>
      </trkpt>
      <trkpt lat="43.48722" lon="5.24884">
        <ele>168</ele>
        <time>2022-10-02T08:14:19.000Z</time>
      </trkpt>
      <trkpt lat="43.48721" lon="5.24885">
        <ele>168</ele>
        <time>2022-10-02T08:14:20.000Z</time>
      </trkpt>
      <trkpt lat="43.48719" lon="5.24886">
        <ele>168</ele>
        <time>2022-10-02T08:14:21.000Z</time>
      </trkpt>
      <trkpt lat="43.48718" lon="5.24887">
        <ele>168</ele>
        <time>2022-10-02T08:14:22.000Z</time>
      </trkpt>
      <trkpt lat="43.48716" lon="5.24888">
        <ele>168</ele>
        <time>2022-10-02T08:14:23.000Z</time>
      </trkpt>
      <trkpt lat="43.48715" lon="5.24889">
        <ele>168</ele>
        <time>2022-10-02T08:14:24.000Z</time>
      </trkpt>
      <trkpt lat="43.48713" lon="5.2489">
        <ele>167</ele>
        <time>2022-10-02T08:14:25.000Z</time>
      </trkpt>
      <trkpt lat="43.48712" lon="5.24891">
        <ele>167</ele>
        <time>2022-10-02T08:14:26.000Z</time>
      </trkpt>
      <trkpt lat="43.4871" lon="5.24892">
        <ele>167</ele>
        <time>2022-10-02T08:14:27.000Z</time>
      </trkpt>
      <trkpt lat="43.48709" lon="5.24893">
        <ele>167</ele>
        <time>2022-10-02T08:14:28.000Z</time>
      </trkpt>
      <trkpt lat="43.48707" lon="5.24894">
        <ele>167</ele>
        <time>2022-10-02T08:14:29.000Z</time>
      </trkpt>
      <trkpt lat="43.48706" lon="5.24894">
        <ele>167</ele>
        <time>2022-10-02T08:14:30.000Z</time>
      </trkpt>
      <trkpt lat="43.48704" lon="5.24895">
        <ele>167</ele>
        <time>2022-10-02T08:14:31.000Z</time>
      </trkpt>
      <trkpt lat="43.48703" lon="5.24895">
        <ele>166</ele>
        <time>2022-10-02T08:14:32.000Z</time>
      </trkpt>
      <trkpt lat="43.48701" lon="5.24896">
        <ele>166</ele>
        <time>2022-10-02T08:14:33.000Z</time>
      </trkpt>
      <trkpt lat="43.487" lon="5.24897">
        <ele>166</ele>
        <time>2022-10-02T08:14:34.000Z</time>
      </trkpt>
      <trkpt lat="43.48698" lon="5.24898">
        <ele>166</ele>
        <time>2022-10-02T08:14:35.000Z</time>
      </trkpt>
      <trkpt lat="43.48696" lon="5.24898">
        <ele>166</ele>
        <time>2022-10-02T08:14:36.000Z</time>
      </trkpt>
      <trkpt lat="43.48695" lon="5.24899">
        <ele>166</ele>
        <time>2022-10-02T08:14:37.000Z</time>
      </trkpt>
      <trkpt lat="43.48693" lon="5.24899">
        <ele>166</ele>
        <time>2022-10-02T08:14:38.000Z</time>
      </trkpt>
      <trkpt lat="43.48692" lon="5.249">
        <ele>166</ele>
        <time>2022-10-02T08:14:39.000Z</time>
      </trkpt>
      <trkpt lat="43.4869" lon="5.24901">
        <ele>166</ele>
        <time>2022-10-02T08:14:40.000Z</time>
      </trkpt>
      <trkpt lat="43.48689" lon="5.24901">
        <ele>166</ele>
        <time>2022-10-02T08:14:41.000Z</time>
      </trkpt>
      <trkpt lat="43.48687" lon="5.24901">
        <ele>166</ele>
        <time>2022-10-02T08:14:42.000Z</time>
      </trkpt>
      <trkpt lat="43.48686" lon="5.24901">
        <ele>166</ele>
        <time>2022-10-02T08:14:43.000Z</time>
      </trkpt>
      <trkpt lat="43.48684" lon="5.24902">
        <ele>166</ele>
        <time>2022-10-02T08:14:44.000Z</time>
      </trkpt>
      <trkpt lat="43.48683" lon="5.24902">
        <ele>166</ele>
        <time>2022-10-02T08:14:45.000Z</time>
      </trkpt>
      <trkpt lat="43.48681" lon="5.24903">
        <ele>166</ele>
        <time>2022-10-02T08:14:46.000Z</time>
      </trkpt>
      <trkpt lat="43.48679" lon="5.24903">
        <ele>166</ele>
        <time>2022-10-02T08:14:47.000Z</time>
      </trkpt>
      <trkpt lat="43.48678" lon="5.24903">
        <ele>166</ele>
        <time>2022-10-02T08:14:48.000Z</time>
      </trkpt>
      <trkpt lat="43.48676" lon="5.24903">
        <ele>165</ele>
        <time>2022-10-02T08:14:49.000Z</time>
      </trkpt>
      <trkpt lat="43.48674" lon="5.24903">
        <ele>165</ele>
        <time>2022-10-02T08:14:50.000Z</time>
      </trkpt>
      <trkpt lat="43.48673" lon="5.24903">
        <ele>165</ele>
        <time>2022-10-02T08:14:51.000Z</time>
      </trkpt>
      <trkpt lat="43.48671" lon="5.24903">
        <ele>165</ele>
        <time>2022-10-02T08:14:52.000Z</time>
      </trkpt>
      <trkpt lat="43.48669" lon="5.24903">
        <ele>165</ele>
        <time>2022-10-02T08:14:53.000Z</time>
      </trkpt>
      <trkpt lat="43.48667" lon="5.24903">
        <ele>165</ele>
        <time>2022-10-02T08:14:54.000Z</time>
      </trkpt>
      <trkpt lat="43.48665" lon="5.24903">
        <ele>165</ele>
        <time>2022-10-02T08:14:55.000Z</time>
      </trkpt>
      <trkpt lat="43.48664" lon="5.24903">
        <ele>164</ele>
        <time>2022-10-02T08:14:56.000Z</time>
      </trkpt>
      <trkpt lat="43.48662" lon="5.24903">
        <ele>164</ele>
        <time>2022-10-02T08:14:57.000Z</time>
      </trkpt>
      <trkpt lat="43.4866" lon="5.24903">
        <ele>164</ele>
        <time>2022-10-02T08:14:58.000Z</time>
      </trkpt>
      <trkpt lat="43.48658" lon="5.24903">
        <ele>164</ele>
        <time>2022-10-02T08:14:59.000Z</time>
      </trkpt>
      <trkpt lat="43.48656" lon="5.24904">
        <ele>164</ele>
        <time>2022-10-02T08:15:00.000Z</time>
      </trkpt>
      <trkpt lat="43.48655" lon="5.24904">
        <ele>164</ele>
        <time>2022-10-02T08:15:01.000Z</time>
      </trkpt>
      <trkpt lat="43.48653" lon="5.24904">
        <ele>164</ele>
        <time>2022-10-02T08:15:02.000Z</time>
      </trkpt>
      <trkpt lat="43.48651" lon="5.24904">
        <ele>164</ele>
        <time>2022-10-02T08:15:03.000Z</time>
      </trkpt>
      <trkpt lat="43.48649" lon="5.24904">
        <ele>164</ele>
        <time>2022-10-02T08:15:04.000Z</time>
      </trkpt>
      <trkpt lat="43.48648" lon="5.24904">
        <ele>164</ele>
        <time>2022-10-02T08:15:05.000Z</time>
      </trkpt>
      <trkpt lat="43.48646" lon="5.24904">
        <ele>164</ele>
        <time>2022-10-02T08:15:06.000Z</time>
      </trkpt>
      <trkpt lat="43.48644" lon="5.24904">
        <ele>164</ele>
        <time>2022-10-02T08:15:07.000Z</time>
      </trkpt>
      <trkpt lat="43.48642" lon="5.24904">
        <ele>164</ele>
        <time>2022-10-02T08:15:08.000Z</time>
      </trkpt>
      <trkpt lat="43.48641" lon="5.24904">
        <ele>164</ele>
        <time>2022-10-02T08:15:09.000Z</time>
      </trkpt>
      <trkpt lat="43.48639" lon="5.24903">
        <ele>164</ele>
        <time>2022-10-02T08:15:10.000Z</time>
      </trkpt>
      <trkpt lat="43.48637" lon="5.24903">
        <ele>164</ele>
        <time>2022-10-02T08:15:11.000Z</time>
      </trkpt>
      <trkpt lat="43.48636" lon="5.24904">
        <ele>164</ele>
        <time>2022-10-02T08:15:12.000Z</time>
      </trkpt>
      <trkpt lat="43.48634" lon="5.24903">
        <ele>164</ele>
        <time>2022-10-02T08:15:13.000Z</time>
      </trkpt>
      <trkpt lat="43.48633" lon="5.24904">
        <ele>164</ele>
        <time>2022-10-02T08:15:14.000Z</time>
      </trkpt>
      <trkpt lat="43.48631" lon="5.24904">
        <ele>164</ele>
        <time>2022-10-02T08:15:15.000Z</time>
      </trkpt>
      <trkpt lat="43.4863" lon="5.24905">
        <ele>164</ele>
        <time>2022-10-02T08:15:16.000Z</time>
      </trkpt>
      <trkpt lat="43.48628" lon="5.24905">
        <ele>163</ele>
        <time>2022-10-02T08:15:17.000Z</time>
      </trkpt>
      <trkpt lat="43.48627" lon="5.24906">
        <ele>163</ele>
        <time>2022-10-02T08:15:18.000Z</time>
      </trkpt>
      <trkpt lat="43.48626" lon="5.24908">
        <ele>163</ele>
        <time>2022-10-02T08:15:19.000Z</time>
      </trkpt>
      <trkpt lat="43.48626" lon="5.2491">
        <ele>163</ele>
        <time>2022-10-02T08:15:20.000Z</time>
      </trkpt>
      <trkpt lat="43.48626" lon="5.24912">
        <ele>163</ele>
        <time>2022-10-02T08:15:21.000Z</time>
      </trkpt>
      <trkpt lat="43.48626" lon="5.24914">
        <ele>163</ele>
        <time>2022-10-02T08:15:22.000Z</time>
      </trkpt>
      <trkpt lat="43.48626" lon="5.24916">
        <ele>163</ele>
        <time>2022-10-02T08:15:23.000Z</time>
      </trkpt>
      <trkpt lat="43.48627" lon="5.24917">
        <ele>163</ele>
        <time>2022-10-02T08:15:24.000Z</time>
      </trkpt>
      <trkpt lat="43.48628" lon="5.24919">
        <ele>163</ele>
        <time>2022-10-02T08:15:25.000Z</time>
      </trkpt>
      <trkpt lat="43.4863" lon="5.2492">
        <ele>163</ele>
        <time>2022-10-02T08:15:26.000Z</time>
      </trkpt>
      <trkpt lat="43.48631" lon="5.2492">
        <ele>163</ele>
        <time>2022-10-02T08:15:27.000Z</time>
      </trkpt>
      <trkpt lat="43.48633" lon="5.24921">
        <ele>163</ele>
        <time>2022-10-02T08:15:28.000Z</time>
      </trkpt>
      <trkpt lat="43.48634" lon="5.24922">
        <ele>163</ele>
        <time>2022-10-02T08:15:29.000Z</time>
      </trkpt>
      <trkpt lat="43.48636" lon="5.24922">
        <ele>163</ele>
        <time>2022-10-02T08:15:30.000Z</time>
      </trkpt>
      <trkpt lat="43.48638" lon="5.24923">
        <ele>163</ele>
        <time>2022-10-02T08:15:31.000Z</time>
      </trkpt>
      <trkpt lat="43.48639" lon="5.24924">
        <ele>163</ele>
        <time>2022-10-02T08:15:32.000Z</time>
      </trkpt>
      <trkpt lat="43.48641" lon="5.24925">
        <ele>164</ele>
        <time>2022-10-02T08:15:33.000Z</time>
      </trkpt>
      <trkpt lat="43.48643" lon="5.24925">
        <ele>164</ele>
        <time>2022-10-02T08:15:34.000Z</time>
      </trkpt>
      <trkpt lat="43.48644" lon="5.24926">
        <ele>164</ele>
        <time>2022-10-02T08:15:35.000Z</time>
      </trkpt>
      <trkpt lat="43.48646" lon="5.24926">
        <ele>164</ele>
        <time>2022-10-02T08:15:36.000Z</time>
      </trkpt>
      <trkpt lat="43.48647" lon="5.24927">
        <ele>164</ele>
        <time>2022-10-02T08:15:37.000Z</time>
      </trkpt>
      <trkpt lat="43.48649" lon="5.24927">
        <ele>164</ele>
        <time>2022-10-02T08:15:38.000Z</time>
      </trkpt>
      <trkpt lat="43.48651" lon="5.24928">
        <ele>164</ele>
        <time>2022-10-02T08:15:39.000Z</time>
      </trkpt>
      <trkpt lat="43.48652" lon="5.24929">
        <ele>164</ele>
        <time>2022-10-02T08:15:40.000Z</time>
      </trkpt>
      <trkpt lat="43.48654" lon="5.2493">
        <ele>164</ele>
        <time>2022-10-02T08:15:41.000Z</time>
      </trkpt>
      <trkpt lat="43.48656" lon="5.24931">
        <ele>164</ele>
        <time>2022-10-02T08:15:42.000Z</time>
      </trkpt>
      <trkpt lat="43.48657" lon="5.24932">
        <ele>164</ele>
        <time>2022-10-02T08:15:43.000Z</time>
      </trkpt>
      <trkpt lat="43.48658" lon="5.24933">
        <ele>164</ele>
        <time>2022-10-02T08:15:44.000Z</time>
      </trkpt>
      <trkpt lat="43.4866" lon="5.24934">
        <ele>164</ele>
        <time>2022-10-02T08:15:45.000Z</time>
      </trkpt>
      <trkpt lat="43.48661" lon="5.24935">
        <ele>164</ele>
        <time>2022-10-02T08:15:46.000Z</time>
      </trkpt>
      <trkpt lat="43.48663" lon="5.24936">
        <ele>164</ele>
        <time>2022-10-02T08:15:47.000Z</time>
      </trkpt>
      <trkpt lat="43.48664" lon="5.24937">
        <ele>164</ele>
        <time>2022-10-02T08:15:48.000Z</time>
      </trkpt>
      <trkpt lat="43.48666" lon="5.24938">
        <ele>164</ele>
        <time>2022-10-02T08:15:49.000Z</time>
      </trkpt>
      <trkpt lat="43.48667" lon="5.24939">
        <ele>164</ele>
        <time>2022-10-02T08:15:50.000Z</time>
      </trkpt>
      <trkpt lat="43.48669" lon="5.2494">
        <ele>164</ele>
        <time>2022-10-02T08:15:51.000Z</time>
      </trkpt>
      <trkpt lat="43.4867" lon="5.24942">
        <ele>164</ele>
        <time>2022-10-02T08:15:52.000Z</time>
      </trkpt>
      <trkpt lat="43.48671" lon="5.24943">
        <ele>164</ele>
        <time>2022-10-02T08:15:53.000Z</time>
      </trkpt>
      <trkpt lat="43.48673" lon="5.24944">
        <ele>164</ele>
        <time>2022-10-02T08:15:54.000Z</time>
      </trkpt>
      <trkpt lat="43.48674" lon="5.24945">
        <ele>164</ele>
        <time>2022-10-02T08:15:55.000Z</time>
      </trkpt>
      <trkpt lat="43.48676" lon="5.24946">
        <ele>164</ele>
        <time>2022-10-02T08:15:56.000Z</time>
      </trkpt>
      <trkpt lat="43.48677" lon="5.24947">
        <ele>164</ele>
        <time>2022-10-02T08:15:57.000Z</time>
      </trkpt>
      <trkpt lat="43.48678" lon="5.24948">
        <ele>164</ele>
        <time>2022-10-02T08:15:58.000Z</time>
      </trkpt>
      <trkpt lat="43.4868" lon="5.24949">
        <ele>164</ele>
        <time>2022-10-02T08:15:59.000Z</time>
      </trkpt>
      <trkpt lat="43.48681" lon="5.2495">
        <ele>163</ele>
        <time>2022-10-02T08:16:00.000Z</time>
      </trkpt>
      <trkpt lat="43.48683" lon="5.24951">
        <ele>163</ele>
        <time>2022-10-02T08:16:01.000Z</time>
      </trkpt>
      <trkpt lat="43.48684" lon="5.24952">
        <ele>163</ele>
        <time>2022-10-02T08:16:02.000Z</time>
      </trkpt>
      <trkpt lat="43.48686" lon="5.24953">
        <ele>163</ele>
        <time>2022-10-02T08:16:03.000Z</time>
      </trkpt>
      <trkpt lat="43.48687" lon="5.24954">
        <ele>163</ele>
        <time>2022-10-02T08:16:04.000Z</time>
      </trkpt>
      <trkpt lat="43.48689" lon="5.24954">
        <ele>163</ele>
        <time>2022-10-02T08:16:05.000Z</time>
      </trkpt>
      <trkpt lat="43.4869" lon="5.24955">
        <ele>163</ele>
        <time>2022-10-02T08:16:06.000Z</time>
      </trkpt>
      <trkpt lat="43.48692" lon="5.24955">
        <ele>163</ele>
        <time>2022-10-02T08:16:07.000Z</time>
      </trkpt>
      <trkpt lat="43.48694" lon="5.24956">
        <ele>163</ele>
        <time>2022-10-02T08:16:08.000Z</time>
      </trkpt>
      <trkpt lat="43.48695" lon="5.24956">
        <ele>163</ele>
        <time>2022-10-02T08:16:09.000Z</time>
      </trkpt>
      <trkpt lat="43.48697" lon="5.24956">
        <ele>163</ele>
        <time>2022-10-02T08:16:10.000Z</time>
      </trkpt>
      <trkpt lat="43.48699" lon="5.24957">
        <ele>163</ele>
        <time>2022-10-02T08:16:11.000Z</time>
      </trkpt>
      <trkpt lat="43.487" lon="5.24958">
        <ele>163</ele>
        <time>2022-10-02T08:16:12.000Z</time>
      </trkpt>
      <trkpt lat="43.48701" lon="5.2496">
        <ele>163</ele>
        <time>2022-10-02T08:16:13.000Z</time>
      </trkpt>
      <trkpt lat="43.48702" lon="5.24962">
        <ele>163</ele>
        <time>2022-10-02T08:16:14.000Z</time>
      </trkpt>
      <trkpt lat="43.48703" lon="5.24963">
        <ele>163</ele>
        <time>2022-10-02T08:16:15.000Z</time>
      </trkpt>
      <trkpt lat="43.48703" lon="5.24966">
        <ele>162</ele>
        <time>2022-10-02T08:16:16.000Z</time>
      </trkpt>
      <trkpt lat="43.48703" lon="5.24968">
        <ele>162</ele>
        <time>2022-10-02T08:16:17.000Z</time>
      </trkpt>
      <trkpt lat="43.48703" lon="5.2497">
        <ele>162</ele>
        <time>2022-10-02T08:16:18.000Z</time>
      </trkpt>
      <trkpt lat="43.48702" lon="5.24971">
        <ele>162</ele>
        <time>2022-10-02T08:16:19.000Z</time>
      </trkpt>
      <trkpt lat="43.48701" lon="5.24971">
        <ele>162</ele>
        <time>2022-10-02T08:16:20.000Z</time>
      </trkpt>
      <trkpt lat="43.487" lon="5.24971">
        <ele>162</ele>
        <time>2022-10-02T08:16:21.000Z</time>
      </trkpt>
      <trkpt lat="43.48698" lon="5.24971">
        <ele>162</ele>
        <time>2022-10-02T08:16:22.000Z</time>
      </trkpt>
      <trkpt lat="43.48697" lon="5.24971">
        <ele>161</ele>
        <time>2022-10-02T08:16:23.000Z</time>
      </trkpt>
      <trkpt lat="43.48695" lon="5.24971">
        <ele>161</ele>
        <time>2022-10-02T08:16:24.000Z</time>
      </trkpt>
      <trkpt lat="43.48693" lon="5.24971">
        <ele>161</ele>
        <time>2022-10-02T08:16:25.000Z</time>
      </trkpt>
      <trkpt lat="43.48691" lon="5.24971">
        <ele>161</ele>
        <time>2022-10-02T08:16:26.000Z</time>
      </trkpt>
      <trkpt lat="43.48689" lon="5.24971">
        <ele>160</ele>
        <time>2022-10-02T08:16:27.000Z</time>
      </trkpt>
      <trkpt lat="43.48687" lon="5.24971">
        <ele>160</ele>
        <time>2022-10-02T08:16:28.000Z</time>
      </trkpt>
      <trkpt lat="43.48686" lon="5.24971">
        <ele>160</ele>
        <time>2022-10-02T08:16:29.000Z</time>
      </trkpt>
      <trkpt lat="43.48684" lon="5.24971">
        <ele>160</ele>
        <time>2022-10-02T08:16:30.000Z</time>
      </trkpt>
      <trkpt lat="43.48682" lon="5.24971">
        <ele>160</ele>
        <time>2022-10-02T08:16:31.000Z</time>
      </trkpt>
      <trkpt lat="43.4868" lon="5.24971">
        <ele>160</ele>
        <time>2022-10-02T08:16:32.000Z</time>
      </trkpt>
      <trkpt lat="43.48678" lon="5.24972">
        <ele>159</ele>
        <time>2022-10-02T08:16:33.000Z</time>
      </trkpt>
      <trkpt lat="43.48676" lon="5.24972">
        <ele>159</ele>
        <time>2022-10-02T08:16:34.000Z</time>
      </trkpt>
      <trkpt lat="43.48675" lon="5.24973">
        <ele>159</ele>
        <time>2022-10-02T08:16:35.000Z</time>
      </trkpt>
      <trkpt lat="43.48673" lon="5.24974">
        <ele>158</ele>
        <time>2022-10-02T08:16:36.000Z</time>
      </trkpt>
      <trkpt lat="43.48671" lon="5.24975">
        <ele>158</ele>
        <time>2022-10-02T08:16:37.000Z</time>
      </trkpt>
      <trkpt lat="43.4867" lon="5.24976">
        <ele>158</ele>
        <time>2022-10-02T08:16:38.000Z</time>
      </trkpt>
      <trkpt lat="43.48668" lon="5.24977">
        <ele>158</ele>
        <time>2022-10-02T08:16:39.000Z</time>
      </trkpt>
      <trkpt lat="43.48667" lon="5.24978">
        <ele>158</ele>
        <time>2022-10-02T08:16:40.000Z</time>
      </trkpt>
      <trkpt lat="43.48665" lon="5.24979">
        <ele>158</ele>
        <time>2022-10-02T08:16:41.000Z</time>
      </trkpt>
      <trkpt lat="43.48663" lon="5.24981">
        <ele>157</ele>
        <time>2022-10-02T08:16:42.000Z</time>
      </trkpt>
      <trkpt lat="43.48662" lon="5.24982">
        <ele>157</ele>
        <time>2022-10-02T08:16:43.000Z</time>
      </trkpt>
      <trkpt lat="43.48661" lon="5.24983">
        <ele>157</ele>
        <time>2022-10-02T08:16:44.000Z</time>
      </trkpt>
      <trkpt lat="43.48659" lon="5.24984">
        <ele>157</ele>
        <time>2022-10-02T08:16:45.000Z</time>
      </trkpt>
      <trkpt lat="43.48658" lon="5.24985">
        <ele>157</ele>
        <time>2022-10-02T08:16:46.000Z</time>
      </trkpt>
      <trkpt lat="43.48656" lon="5.24986">
        <ele>156</ele>
        <time>2022-10-02T08:16:47.000Z</time>
      </trkpt>
      <trkpt lat="43.48655" lon="5.24987">
        <ele>156</ele>
        <time>2022-10-02T08:16:48.000Z</time>
      </trkpt>
      <trkpt lat="43.48653" lon="5.24988">
        <ele>156</ele>
        <time>2022-10-02T08:16:49.000Z</time>
      </trkpt>
      <trkpt lat="43.48652" lon="5.24989">
        <ele>156</ele>
        <time>2022-10-02T08:16:50.000Z</time>
      </trkpt>
      <trkpt lat="43.4865" lon="5.2499">
        <ele>156</ele>
        <time>2022-10-02T08:16:51.000Z</time>
      </trkpt>
      <trkpt lat="43.48649" lon="5.24991">
        <ele>155</ele>
        <time>2022-10-02T08:16:52.000Z</time>
      </trkpt>
      <trkpt lat="43.48648" lon="5.24992">
        <ele>155</ele>
        <time>2022-10-02T08:16:53.000Z</time>
      </trkpt>
      <trkpt lat="43.48646" lon="5.24994">
        <ele>155</ele>
        <time>2022-10-02T08:16:54.000Z</time>
      </trkpt>
      <trkpt lat="43.48645" lon="5.24995">
        <ele>155</ele>
        <time>2022-10-02T08:16:55.000Z</time>
      </trkpt>
      <trkpt lat="43.48643" lon="5.24996">
        <ele>154</ele>
        <time>2022-10-02T08:16:56.000Z</time>
      </trkpt>
      <trkpt lat="43.48642" lon="5.24997">
        <ele>154</ele>
        <time>2022-10-02T08:16:57.000Z</time>
      </trkpt>
      <trkpt lat="43.48641" lon="5.24998">
        <ele>154</ele>
        <time>2022-10-02T08:16:58.000Z</time>
      </trkpt>
      <trkpt lat="43.48639" lon="5.24999">
        <ele>154</ele>
        <time>2022-10-02T08:16:59.000Z</time>
      </trkpt>
      <trkpt lat="43.48637" lon="5.25">
        <ele>153</ele>
        <time>2022-10-02T08:17:00.000Z</time>
      </trkpt>
      <trkpt lat="43.48635" lon="5.25001">
        <ele>153</ele>
        <time>2022-10-02T08:17:01.000Z</time>
      </trkpt>
      <trkpt lat="43.48634" lon="5.25001">
        <ele>153</ele>
        <time>2022-10-02T08:17:02.000Z</time>
      </trkpt>
      <trkpt lat="43.48632" lon="5.25002">
        <ele>153</ele>
        <time>2022-10-02T08:17:03.000Z</time>
      </trkpt>
      <trkpt lat="43.4863" lon="5.25002">
        <ele>152</ele>
        <time>2022-10-02T08:17:04.000Z</time>
      </trkpt>
      <trkpt lat="43.48628" lon="5.25002">
        <ele>152</ele>
        <time>2022-10-02T08:17:05.000Z</time>
      </trkpt>
      <trkpt lat="43.48627" lon="5.25001">
        <ele>152</ele>
        <time>2022-10-02T08:17:06.000Z</time>
      </trkpt>
      <trkpt lat="43.48625" lon="5.25001">
        <ele>152</ele>
        <time>2022-10-02T08:17:07.000Z</time>
      </trkpt>
      <trkpt lat="43.48624" lon="5.25">
        <ele>151</ele>
        <time>2022-10-02T08:17:08.000Z</time>
      </trkpt>
      <trkpt lat="43.48622" lon="5.24999">
        <ele>151</ele>
        <time>2022-10-02T08:17:09.000Z</time>
      </trkpt>
      <trkpt lat="43.48621" lon="5.24998">
        <ele>151</ele>
        <time>2022-10-02T08:17:10.000Z</time>
      </trkpt>
      <trkpt lat="43.4862" lon="5.24998">
        <ele>151</ele>
        <time>2022-10-02T08:17:11.000Z</time>
      </trkpt>
      <trkpt lat="43.48618" lon="5.24997">
        <ele>150</ele>
        <time>2022-10-02T08:17:12.000Z</time>
      </trkpt>
      <trkpt lat="43.48616" lon="5.24995">
        <ele>150</ele>
        <time>2022-10-02T08:17:13.000Z</time>
      </trkpt>
      <trkpt lat="43.48615" lon="5.24994">
        <ele>150</ele>
        <time>2022-10-02T08:17:14.000Z</time>
      </trkpt>
      <trkpt lat="43.48613" lon="5.24993">
        <ele>150</ele>
        <time>2022-10-02T08:17:15.000Z</time>
      </trkpt>
      <trkpt lat="43.48612" lon="5.24991">
        <ele>150</ele>
        <time>2022-10-02T08:17:16.000Z</time>
      </trkpt>
      <trkpt lat="43.4861" lon="5.2499">
        <ele>150</ele>
        <time>2022-10-02T08:17:17.000Z</time>
      </trkpt>
      <trkpt lat="43.48609" lon="5.24989">
        <ele>149</ele>
        <time>2022-10-02T08:17:18.000Z</time>
      </trkpt>
      <trkpt lat="43.48607" lon="5.24988">
        <ele>149</ele>
        <time>2022-10-02T08:17:19.000Z</time>
      </trkpt>
      <trkpt lat="43.48605" lon="5.24987">
        <ele>149</ele>
        <time>2022-10-02T08:17:20.000Z</time>
      </trkpt>
      <trkpt lat="43.48603" lon="5.24986">
        <ele>149</ele>
        <time>2022-10-02T08:17:21.000Z</time>
      </trkpt>
      <trkpt lat="43.48602" lon="5.24985">
        <ele>149</ele>
        <time>2022-10-02T08:17:22.000Z</time>
      </trkpt>
      <trkpt lat="43.486" lon="5.24984">
        <ele>149</ele>
        <time>2022-10-02T08:17:23.000Z</time>
      </trkpt>
      <trkpt lat="43.48599" lon="5.24983">
        <ele>149</ele>
        <time>2022-10-02T08:17:24.000Z</time>
      </trkpt>
      <trkpt lat="43.48597" lon="5.24983">
        <ele>148</ele>
        <time>2022-10-02T08:17:25.000Z</time>
      </trkpt>
      <trkpt lat="43.48595" lon="5.24982">
        <ele>148</ele>
        <time>2022-10-02T08:17:26.000Z</time>
      </trkpt>
      <trkpt lat="43.48594" lon="5.24981">
        <ele>148</ele>
        <time>2022-10-02T08:17:27.000Z</time>
      </trkpt>
      <trkpt lat="43.48592" lon="5.24981">
        <ele>148</ele>
        <time>2022-10-02T08:17:28.000Z</time>
      </trkpt>
      <trkpt lat="43.48591" lon="5.2498">
        <ele>148</ele>
        <time>2022-10-02T08:17:29.000Z</time>
      </trkpt>
      <trkpt lat="43.48589" lon="5.24979">
        <ele>148</ele>
        <time>2022-10-02T08:17:30.000Z</time>
      </trkpt>
      <trkpt lat="43.48587" lon="5.24979">
        <ele>147</ele>
        <time>2022-10-02T08:17:31.000Z</time>
      </trkpt>
      <trkpt lat="43.48585" lon="5.24978">
        <ele>147</ele>
        <time>2022-10-02T08:17:32.000Z</time>
      </trkpt>
      <trkpt lat="43.48583" lon="5.24977">
        <ele>147</ele>
        <time>2022-10-02T08:17:33.000Z</time>
      </trkpt>
      <trkpt lat="43.48581" lon="5.24977">
        <ele>147</ele>
        <time>2022-10-02T08:17:34.000Z</time>
      </trkpt>
      <trkpt lat="43.48579" lon="5.24976">
        <ele>147</ele>
        <time>2022-10-02T08:17:35.000Z</time>
      </trkpt>
      <trkpt lat="43.48578" lon="5.24976">
        <ele>147</ele>
        <time>2022-10-02T08:17:36.000Z</time>
      </trkpt>
      <trkpt lat="43.48576" lon="5.24976">
        <ele>146</ele>
        <time>2022-10-02T08:17:37.000Z</time>
      </trkpt>
      <trkpt lat="43.48574" lon="5.24976">
        <ele>146</ele>
        <time>2022-10-02T08:17:38.000Z</time>
      </trkpt>
      <trkpt lat="43.48573" lon="5.24975">
        <ele>146</ele>
        <time>2022-10-02T08:17:39.000Z</time>
      </trkpt>
      <trkpt lat="43.48571" lon="5.24975">
        <ele>146</ele>
        <time>2022-10-02T08:17:40.000Z</time>
      </trkpt>
      <trkpt lat="43.4857" lon="5.24975">
        <ele>145</ele>
        <time>2022-10-02T08:17:41.000Z</time>
      </trkpt>
      <trkpt lat="43.48568" lon="5.24974">
        <ele>145</ele>
        <time>2022-10-02T08:17:42.000Z</time>
      </trkpt>
      <trkpt lat="43.48566" lon="5.24974">
        <ele>145</ele>
        <time>2022-10-02T08:17:43.000Z</time>
      </trkpt>
      <trkpt lat="43.48564" lon="5.24974">
        <ele>144</ele>
        <time>2022-10-02T08:17:44.000Z</time>
      </trkpt>
      <trkpt lat="43.48563" lon="5.24974">
        <ele>144</ele>
        <time>2022-10-02T08:17:45.000Z</time>
      </trkpt>
      <trkpt lat="43.48561" lon="5.24973">
        <ele>143</ele>
        <time>2022-10-02T08:17:46.000Z</time>
      </trkpt>
      <trkpt lat="43.48559" lon="5.24973">
        <ele>143</ele>
        <time>2022-10-02T08:17:47.000Z</time>
      </trkpt>
      <trkpt lat="43.48557" lon="5.24973">
        <ele>142</ele>
        <time>2022-10-02T08:17:48.000Z</time>
      </trkpt>
      <trkpt lat="43.48556" lon="5.24973">
        <ele>142</ele>
        <time>2022-10-02T08:17:49.000Z</time>
      </trkpt>
      <trkpt lat="43.48554" lon="5.24973">
        <ele>142</ele>
        <time>2022-10-02T08:17:50.000Z</time>
      </trkpt>
      <trkpt lat="43.48553" lon="5.24973">
        <ele>141</ele>
        <time>2022-10-02T08:17:51.000Z</time>
      </trkpt>
      <trkpt lat="43.48552" lon="5.24973">
        <ele>141</ele>
        <time>2022-10-02T08:17:52.000Z</time>
      </trkpt>
      <trkpt lat="43.4855" lon="5.24973">
        <ele>141</ele>
        <time>2022-10-02T08:17:53.000Z</time>
      </trkpt>
      <trkpt lat="43.48548" lon="5.24973">
        <ele>140</ele>
        <time>2022-10-02T08:17:54.000Z</time>
      </trkpt>
      <trkpt lat="43.48547" lon="5.24974">
        <ele>140</ele>
        <time>2022-10-02T08:17:55.000Z</time>
      </trkpt>
      <trkpt lat="43.48545" lon="5.24974">
        <ele>139</ele>
        <time>2022-10-02T08:17:56.000Z</time>
      </trkpt>
      <trkpt lat="43.48544" lon="5.24974">
        <ele>139</ele>
        <time>2022-10-02T08:17:57.000Z</time>
      </trkpt>
      <trkpt lat="43.48542" lon="5.24974">
        <ele>138</ele>
        <time>2022-10-02T08:17:58.000Z</time>
      </trkpt>
      <trkpt lat="43.48541" lon="5.24975">
        <ele>138</ele>
        <time>2022-10-02T08:17:59.000Z</time>
      </trkpt>
      <trkpt lat="43.4854" lon="5.24975">
        <ele>137</ele>
        <time>2022-10-02T08:18:00.000Z</time>
      </trkpt>
      <trkpt lat="43.48538" lon="5.24976">
        <ele>137</ele>
        <time>2022-10-02T08:18:01.000Z</time>
      </trkpt>
      <trkpt lat="43.48537" lon="5.24976">
        <ele>137</ele>
        <time>2022-10-02T08:18:02.000Z</time>
      </trkpt>
      <trkpt lat="43.48536" lon="5.24977">
        <ele>136</ele>
        <time>2022-10-02T08:18:03.000Z</time>
      </trkpt>
      <trkpt lat="43.48534" lon="5.24977">
        <ele>136</ele>
        <time>2022-10-02T08:18:04.000Z</time>
      </trkpt>
      <trkpt lat="43.48533" lon="5.24978">
        <ele>136</ele>
        <time>2022-10-02T08:18:05.000Z</time>
      </trkpt>
      <trkpt lat="43.48531" lon="5.24978">
        <ele>135</ele>
        <time>2022-10-02T08:18:06.000Z</time>
      </trkpt>
      <trkpt lat="43.48529" lon="5.24979">
        <ele>135</ele>
        <time>2022-10-02T08:18:07.000Z</time>
      </trkpt>
      <trkpt lat="43.48528" lon="5.24979">
        <ele>135</ele>
        <time>2022-10-02T08:18:08.000Z</time>
      </trkpt>
      <trkpt lat="43.48526" lon="5.2498">
        <ele>134</ele>
        <time>2022-10-02T08:18:09.000Z</time>
      </trkpt>
      <trkpt lat="43.48525" lon="5.2498">
        <ele>134</ele>
        <time>2022-10-02T08:18:10.000Z</time>
      </trkpt>
      <trkpt lat="43.48523" lon="5.2498">
        <ele>134</ele>
        <time>2022-10-02T08:18:11.000Z</time>
      </trkpt>
      <trkpt lat="43.48522" lon="5.24981">
        <ele>133</ele>
        <time>2022-10-02T08:18:12.000Z</time>
      </trkpt>
      <trkpt lat="43.4852" lon="5.24981">
        <ele>133</ele>
        <time>2022-10-02T08:18:13.000Z</time>
      </trkpt>
      <trkpt lat="43.48518" lon="5.24982">
        <ele>133</ele>
        <time>2022-10-02T08:18:14.000Z</time>
      </trkpt>
      <trkpt lat="43.48516" lon="5.24983">
        <ele>133</ele>
        <time>2022-10-02T08:18:15.000Z</time>
      </trkpt>
      <trkpt lat="43.48514" lon="5.24983">
        <ele>132</ele>
        <time>2022-10-02T08:18:16.000Z</time>
      </trkpt>
      <trkpt lat="43.48512" lon="5.24983">
        <ele>132</ele>
        <time>2022-10-02T08:18:17.000Z</time>
      </trkpt>
      <trkpt lat="43.48511" lon="5.24984">
        <ele>132</ele>
        <time>2022-10-02T08:18:18.000Z</time>
      </trkpt>
      <trkpt lat="43.48509" lon="5.24984">
        <ele>132</ele>
        <time>2022-10-02T08:18:19.000Z</time>
      </trkpt>
      <trkpt lat="43.48507" lon="5.24984">
        <ele>131</ele>
        <time>2022-10-02T08:18:20.000Z</time>
      </trkpt>
      <trkpt lat="43.48505" lon="5.24983">
        <ele>131</ele>
        <time>2022-10-02T08:18:21.000Z</time>
      </trkpt>
      <trkpt lat="43.48503" lon="5.24982">
        <ele>131</ele>
        <time>2022-10-02T08:18:22.000Z</time>
      </trkpt>
      <trkpt lat="43.48501" lon="5.24982">
        <ele>130</ele>
        <time>2022-10-02T08:18:23.000Z</time>
      </trkpt>
      <trkpt lat="43.48499" lon="5.24981">
        <ele>130</ele>
        <time>2022-10-02T08:18:24.000Z</time>
      </trkpt>
      <trkpt lat="43.48497" lon="5.2498">
        <ele>130</ele>
        <time>2022-10-02T08:18:25.000Z</time>
      </trkpt>
      <trkpt lat="43.48496" lon="5.24979">
        <ele>130</ele>
        <time>2022-10-02T08:18:26.000Z</time>
      </trkpt>
      <trkpt lat="43.48494" lon="5.24978">
        <ele>129</ele>
        <time>2022-10-02T08:18:27.000Z</time>
      </trkpt>
      <trkpt lat="43.48492" lon="5.24976">
        <ele>129</ele>
        <time>2022-10-02T08:18:28.000Z</time>
      </trkpt>
      <trkpt lat="43.4849" lon="5.24975">
        <ele>129</ele>
        <time>2022-10-02T08:18:29.000Z</time>
      </trkpt>
      <trkpt lat="43.48489" lon="5.24974">
        <ele>128</ele>
        <time>2022-10-02T08:18:30.000Z</time>
      </trkpt>
      <trkpt lat="43.48487" lon="5.24973">
        <ele>128</ele>
        <time>2022-10-02T08:18:31.000Z</time>
      </trkpt>
      <trkpt lat="43.48486" lon="5.24971">
        <ele>128</ele>
        <time>2022-10-02T08:18:32.000Z</time>
      </trkpt>
      <trkpt lat="43.48484" lon="5.2497">
        <ele>128</ele>
        <time>2022-10-02T08:18:33.000Z</time>
      </trkpt>
      <trkpt lat="43.48482" lon="5.24969">
        <ele>127</ele>
        <time>2022-10-02T08:18:34.000Z</time>
      </trkpt>
      <trkpt lat="43.48481" lon="5.24968">
        <ele>127</ele>
        <time>2022-10-02T08:18:35.000Z</time>
      </trkpt>
      <trkpt lat="43.48479" lon="5.24967">
        <ele>127</ele>
        <time>2022-10-02T08:18:36.000Z</time>
      </trkpt>
      <trkpt lat="43.48477" lon="5.24966">
        <ele>127</ele>
        <time>2022-10-02T08:18:37.000Z</time>
      </trkpt>
      <trkpt lat="43.48476" lon="5.24965">
        <ele>126</ele>
        <time>2022-10-02T08:18:38.000Z</time>
      </trkpt>
      <trkpt lat="43.48474" lon="5.24964">
        <ele>126</ele>
        <time>2022-10-02T08:18:39.000Z</time>
      </trkpt>
      <trkpt lat="43.48472" lon="5.24963">
        <ele>126</ele>
        <time>2022-10-02T08:18:40.000Z</time>
      </trkpt>
      <trkpt lat="43.4847" lon="5.24961">
        <ele>126</ele>
        <time>2022-10-02T08:18:41.000Z</time>
      </trkpt>
      <trkpt lat="43.48469" lon="5.2496">
        <ele>125</ele>
        <time>2022-10-02T08:18:42.000Z</time>
      </trkpt>
      <trkpt lat="43.48467" lon="5.24959">
        <ele>125</ele>
        <time>2022-10-02T08:18:43.000Z</time>
      </trkpt>
      <trkpt lat="43.48465" lon="5.24957">
        <ele>125</ele>
        <time>2022-10-02T08:18:44.000Z</time>
      </trkpt>
      <trkpt lat="43.48463" lon="5.24956">
        <ele>125</ele>
        <time>2022-10-02T08:18:45.000Z</time>
      </trkpt>
      <trkpt lat="43.48462" lon="5.24955">
        <ele>124</ele>
        <time>2022-10-02T08:18:46.000Z</time>
      </trkpt>
      <trkpt lat="43.4846" lon="5.24954">
        <ele>124</ele>
        <time>2022-10-02T08:18:47.000Z</time>
      </trkpt>
      <trkpt lat="43.48458" lon="5.24953">
        <ele>124</ele>
        <time>2022-10-02T08:18:48.000Z</time>
      </trkpt>
      <trkpt lat="43.48456" lon="5.24952">
        <ele>124</ele>
        <time>2022-10-02T08:18:49.000Z</time>
      </trkpt>
      <trkpt lat="43.48455" lon="5.2495">
        <ele>123</ele>
        <time>2022-10-02T08:18:50.000Z</time>
      </trkpt>
      <trkpt lat="43.48453" lon="5.24949">
        <ele>123</ele>
        <time>2022-10-02T08:18:51.000Z</time>
      </trkpt>
      <trkpt lat="43.48451" lon="5.24948">
        <ele>123</ele>
        <time>2022-10-02T08:18:52.000Z</time>
      </trkpt>
      <trkpt lat="43.48449" lon="5.24946">
        <ele>122</ele>
        <time>2022-10-02T08:18:53.000Z</time>
      </trkpt>
      <trkpt lat="43.48447" lon="5.24945">
        <ele>122</ele>
        <time>2022-10-02T08:18:54.000Z</time>
      </trkpt>
      <trkpt lat="43.48446" lon="5.24944">
        <ele>122</ele>
        <time>2022-10-02T08:18:55.000Z</time>
      </trkpt>
      <trkpt lat="43.48444" lon="5.24943">
        <ele>122</ele>
        <time>2022-10-02T08:18:56.000Z</time>
      </trkpt>
      <trkpt lat="43.48443" lon="5.24943">
        <ele>121</ele>
        <time>2022-10-02T08:18:57.000Z</time>
      </trkpt>
      <trkpt lat="43.48441" lon="5.24942">
        <ele>121</ele>
        <time>2022-10-02T08:18:58.000Z</time>
      </trkpt>
      <trkpt lat="43.48439" lon="5.24941">
        <ele>121</ele>
        <time>2022-10-02T08:18:59.000Z</time>
      </trkpt>
      <trkpt lat="43.48437" lon="5.24939">
        <ele>121</ele>
        <time>2022-10-02T08:19:00.000Z</time>
      </trkpt>
      <trkpt lat="43.48436" lon="5.24938">
        <ele>120</ele>
        <time>2022-10-02T08:19:01.000Z</time>
      </trkpt>
      <trkpt lat="43.48434" lon="5.24937">
        <ele>120</ele>
        <time>2022-10-02T08:19:02.000Z</time>
      </trkpt>
      <trkpt lat="43.48433" lon="5.24936">
        <ele>120</ele>
        <time>2022-10-02T08:19:03.000Z</time>
      </trkpt>
      <trkpt lat="43.48431" lon="5.24934">
        <ele>119</ele>
        <time>2022-10-02T08:19:04.000Z</time>
      </trkpt>
      <trkpt lat="43.4843" lon="5.24933">
        <ele>119</ele>
        <time>2022-10-02T08:19:05.000Z</time>
      </trkpt>
      <trkpt lat="43.48428" lon="5.24932">
        <ele>119</ele>
        <time>2022-10-02T08:19:06.000Z</time>
      </trkpt>
      <trkpt lat="43.48427" lon="5.24931">
        <ele>118</ele>
        <time>2022-10-02T08:19:07.000Z</time>
      </trkpt>
      <trkpt lat="43.48425" lon="5.24929">
        <ele>118</ele>
        <time>2022-10-02T08:19:08.000Z</time>
      </trkpt>
      <trkpt lat="43.48424" lon="5.24927">
        <ele>118</ele>
        <time>2022-10-02T08:19:09.000Z</time>
      </trkpt>
      <trkpt lat="43.48423" lon="5.24926">
        <ele>117</ele>
        <time>2022-10-02T08:19:10.000Z</time>
      </trkpt>
      <trkpt lat="43.48421" lon="5.24925">
        <ele>117</ele>
        <time>2022-10-02T08:19:11.000Z</time>
      </trkpt>
      <trkpt lat="43.4842" lon="5.24924">
        <ele>117</ele>
        <time>2022-10-02T08:19:12.000Z</time>
      </trkpt>
      <trkpt lat="43.48419" lon="5.24922">
        <ele>117</ele>
        <time>2022-10-02T08:19:13.000Z</time>
      </trkpt>
      <trkpt lat="43.48417" lon="5.24921">
        <ele>116</ele>
        <time>2022-10-02T08:19:14.000Z</time>
      </trkpt>
      <trkpt lat="43.48416" lon="5.24919">
        <ele>116</ele>
        <time>2022-10-02T08:19:15.000Z</time>
      </trkpt>
      <trkpt lat="43.48414" lon="5.24918">
        <ele>116</ele>
        <time>2022-10-02T08:19:16.000Z</time>
      </trkpt>
      <trkpt lat="43.48413" lon="5.24916">
        <ele>116</ele>
        <time>2022-10-02T08:19:17.000Z</time>
      </trkpt>
      <trkpt lat="43.48411" lon="5.24914">
        <ele>115</ele>
        <time>2022-10-02T08:19:18.000Z</time>
      </trkpt>
      <trkpt lat="43.4841" lon="5.24913">
        <ele>115</ele>
        <time>2022-10-02T08:19:19.000Z</time>
      </trkpt>
      <trkpt lat="43.48409" lon="5.24911">
        <ele>115</ele>
        <time>2022-10-02T08:19:20.000Z</time>
      </trkpt>
      <trkpt lat="43.48407" lon="5.2491">
        <ele>115</ele>
        <time>2022-10-02T08:19:21.000Z</time>
      </trkpt>
      <trkpt lat="43.48406" lon="5.24909">
        <ele>115</ele>
        <time>2022-10-02T08:19:22.000Z</time>
      </trkpt>
      <trkpt lat="43.48404" lon="5.24908">
        <ele>115</ele>
        <time>2022-10-02T08:19:23.000Z</time>
      </trkpt>
      <trkpt lat="43.48403" lon="5.24907">
        <ele>115</ele>
        <time>2022-10-02T08:19:24.000Z</time>
      </trkpt>
      <trkpt lat="43.48401" lon="5.24906">
        <ele>114</ele>
        <time>2022-10-02T08:19:25.000Z</time>
      </trkpt>
      <trkpt lat="43.484" lon="5.24907">
        <ele>114</ele>
        <time>2022-10-02T08:19:26.000Z</time>
      </trkpt>
      <trkpt lat="43.48399" lon="5.24907">
        <ele>114</ele>
        <time>2022-10-02T08:19:27.000Z</time>
      </trkpt>
      <trkpt lat="43.48398" lon="5.24909">
        <ele>114</ele>
        <time>2022-10-02T08:19:28.000Z</time>
      </trkpt>
      <trkpt lat="43.48397" lon="5.2491">
        <ele>114</ele>
        <time>2022-10-02T08:19:29.000Z</time>
      </trkpt>
      <trkpt lat="43.48397" lon="5.24912">
        <ele>114</ele>
        <time>2022-10-02T08:19:30.000Z</time>
      </trkpt>
      <trkpt lat="43.48398" lon="5.24913">
        <ele>114</ele>
        <time>2022-10-02T08:19:31.000Z</time>
      </trkpt>
      <trkpt lat="43.48399" lon="5.24915">
        <ele>114</ele>
        <time>2022-10-02T08:19:32.000Z</time>
      </trkpt>
      <trkpt lat="43.484" lon="5.24917">
        <ele>113</ele>
        <time>2022-10-02T08:19:33.000Z</time>
      </trkpt>
      <trkpt lat="43.48401" lon="5.24918">
        <ele>113</ele>
        <time>2022-10-02T08:19:34.000Z</time>
      </trkpt>
      <trkpt lat="43.48403" lon="5.2492">
        <ele>113</ele>
        <time>2022-10-02T08:19:35.000Z</time>
      </trkpt>
      <trkpt lat="43.48404" lon="5.24921">
        <ele>113</ele>
        <time>2022-10-02T08:19:36.000Z</time>
      </trkpt>
      <trkpt lat="43.48406" lon="5.24923">
        <ele>113</ele>
        <time>2022-10-02T08:19:37.000Z</time>
      </trkpt>
      <trkpt lat="43.48407" lon="5.24924">
        <ele>113</ele>
        <time>2022-10-02T08:19:38.000Z</time>
      </trkpt>
      <trkpt lat="43.48408" lon="5.24926">
        <ele>112</ele>
        <time>2022-10-02T08:19:39.000Z</time>
      </trkpt>
      <trkpt lat="43.4841" lon="5.24927">
        <ele>112</ele>
        <time>2022-10-02T08:19:40.000Z</time>
      </trkpt>
      <trkpt lat="43.48411" lon="5.24929">
        <ele>112</ele>
        <time>2022-10-02T08:19:41.000Z</time>
      </trkpt>
      <trkpt lat="43.48413" lon="5.2493">
        <ele>112</ele>
        <time>2022-10-02T08:19:42.000Z</time>
      </trkpt>
      <trkpt lat="43.48415" lon="5.24932">
        <ele>112</ele>
        <time>2022-10-02T08:19:43.000Z</time>
      </trkpt>
      <trkpt lat="43.48416" lon="5.24933">
        <ele>112</ele>
        <time>2022-10-02T08:19:44.000Z</time>
      </trkpt>
      <trkpt lat="43.48417" lon="5.24934">
        <ele>112</ele>
        <time>2022-10-02T08:19:45.000Z</time>
      </trkpt>
      <trkpt lat="43.48419" lon="5.24936">
        <ele>112</ele>
        <time>2022-10-02T08:19:46.000Z</time>
      </trkpt>
      <trkpt lat="43.48421" lon="5.24937">
        <ele>112</ele>
        <time>2022-10-02T08:19:47.000Z</time>
      </trkpt>
      <trkpt lat="43.48422" lon="5.24938">
        <ele>112</ele>
        <time>2022-10-02T08:19:48.000Z</time>
      </trkpt>
      <trkpt lat="43.48424" lon="5.24939">
        <ele>112</ele>
        <time>2022-10-02T08:19:49.000Z</time>
      </trkpt>
      <trkpt lat="43.48426" lon="5.2494">
        <ele>112</ele>
        <time>2022-10-02T08:19:50.000Z</time>
      </trkpt>
      <trkpt lat="43.48427" lon="5.24941">
        <ele>112</ele>
        <time>2022-10-02T08:19:51.000Z</time>
      </trkpt>
      <trkpt lat="43.48429" lon="5.24943">
        <ele>112</ele>
        <time>2022-10-02T08:19:52.000Z</time>
      </trkpt>
      <trkpt lat="43.4843" lon="5.24944">
        <ele>112</ele>
        <time>2022-10-02T08:19:53.000Z</time>
      </trkpt>
      <trkpt lat="43.48432" lon="5.24945">
        <ele>112</ele>
        <time>2022-10-02T08:19:54.000Z</time>
      </trkpt>
      <trkpt lat="43.48433" lon="5.24946">
        <ele>112</ele>
        <time>2022-10-02T08:19:55.000Z</time>
      </trkpt>
      <trkpt lat="43.48435" lon="5.24947">
        <ele>112</ele>
        <time>2022-10-02T08:19:56.000Z</time>
      </trkpt>
      <trkpt lat="43.48436" lon="5.24949">
        <ele>112</ele>
        <time>2022-10-02T08:19:57.000Z</time>
      </trkpt>
      <trkpt lat="43.48438" lon="5.2495">
        <ele>112</ele>
        <time>2022-10-02T08:19:58.000Z</time>
      </trkpt>
      <trkpt lat="43.48439" lon="5.24952">
        <ele>112</ele>
        <time>2022-10-02T08:19:59.000Z</time>
      </trkpt>
      <trkpt lat="43.4844" lon="5.24953">
        <ele>112</ele>
        <time>2022-10-02T08:20:00.000Z</time>
      </trkpt>
      <trkpt lat="43.48442" lon="5.24955">
        <ele>112</ele>
        <time>2022-10-02T08:20:01.000Z</time>
      </trkpt>
      <trkpt lat="43.48443" lon="5.24956">
        <ele>112</ele>
        <time>2022-10-02T08:20:02.000Z</time>
      </trkpt>
      <trkpt lat="43.48444" lon="5.24957">
        <ele>112</ele>
        <time>2022-10-02T08:20:03.000Z</time>
      </trkpt>
      <trkpt lat="43.48446" lon="5.24959">
        <ele>112</ele>
        <time>2022-10-02T08:20:04.000Z</time>
      </trkpt>
      <trkpt lat="43.48447" lon="5.2496">
        <ele>112</ele>
        <time>2022-10-02T08:20:05.000Z</time>
      </trkpt>
      <trkpt lat="43.48448" lon="5.24962">
        <ele>112</ele>
        <time>2022-10-02T08:20:06.000Z</time>
      </trkpt>
      <trkpt lat="43.4845" lon="5.24964">
        <ele>112</ele>
        <time>2022-10-02T08:20:07.000Z</time>
      </trkpt>
      <trkpt lat="43.48451" lon="5.24965">
        <ele>112</ele>
        <time>2022-10-02T08:20:08.000Z</time>
      </trkpt>
      <trkpt lat="43.48452" lon="5.24967">
        <ele>112</ele>
        <time>2022-10-02T08:20:09.000Z</time>
      </trkpt>
      <trkpt lat="43.48453" lon="5.24969">
        <ele>112</ele>
        <time>2022-10-02T08:20:10.000Z</time>
      </trkpt>
      <trkpt lat="43.48454" lon="5.2497">
        <ele>112</ele>
        <time>2022-10-02T08:20:11.000Z</time>
      </trkpt>
      <trkpt lat="43.48455" lon="5.24972">
        <ele>112</ele>
        <time>2022-10-02T08:20:12.000Z</time>
      </trkpt>
      <trkpt lat="43.48457" lon="5.24974">
        <ele>112</ele>
        <time>2022-10-02T08:20:13.000Z</time>
      </trkpt>
      <trkpt lat="43.48458" lon="5.24975">
        <ele>112</ele>
        <time>2022-10-02T08:20:14.000Z</time>
      </trkpt>
      <trkpt lat="43.48459" lon="5.24977">
        <ele>112</ele>
        <time>2022-10-02T08:20:15.000Z</time>
      </trkpt>
      <trkpt lat="43.48459" lon="5.24979">
        <ele>112</ele>
        <time>2022-10-02T08:20:16.000Z</time>
      </trkpt>
      <trkpt lat="43.4846" lon="5.2498">
        <ele>112</ele>
        <time>2022-10-02T08:20:17.000Z</time>
      </trkpt>
      <trkpt lat="43.48462" lon="5.24982">
        <ele>112</ele>
        <time>2022-10-02T08:20:18.000Z</time>
      </trkpt>
      <trkpt lat="43.48463" lon="5.24984">
        <ele>112</ele>
        <time>2022-10-02T08:20:19.000Z</time>
      </trkpt>
      <trkpt lat="43.48464" lon="5.24985">
        <ele>112</ele>
        <time>2022-10-02T08:20:20.000Z</time>
      </trkpt>
      <trkpt lat="43.48465" lon="5.24987">
        <ele>112</ele>
        <time>2022-10-02T08:20:21.000Z</time>
      </trkpt>
      <trkpt lat="43.48466" lon="5.24988">
        <ele>112</ele>
        <time>2022-10-02T08:20:22.000Z</time>
      </trkpt>
      <trkpt lat="43.48467" lon="5.2499">
        <ele>112</ele>
        <time>2022-10-02T08:20:23.000Z</time>
      </trkpt>
      <trkpt lat="43.48468" lon="5.24991">
        <ele>113</ele>
        <time>2022-10-02T08:20:24.000Z</time>
      </trkpt>
      <trkpt lat="43.4847" lon="5.24993">
        <ele>113</ele>
        <time>2022-10-02T08:20:25.000Z</time>
      </trkpt>
      <trkpt lat="43.48471" lon="5.24994">
        <ele>113</ele>
        <time>2022-10-02T08:20:26.000Z</time>
      </trkpt>
      <trkpt lat="43.48472" lon="5.24996">
        <ele>113</ele>
        <time>2022-10-02T08:20:27.000Z</time>
      </trkpt>
      <trkpt lat="43.48473" lon="5.24997">
        <ele>113</ele>
        <time>2022-10-02T08:20:28.000Z</time>
      </trkpt>
      <trkpt lat="43.48474" lon="5.24998">
        <ele>113</ele>
        <time>2022-10-02T08:20:29.000Z</time>
      </trkpt>
      <trkpt lat="43.48476" lon="5.24999">
        <ele>113</ele>
        <time>2022-10-02T08:20:30.000Z</time>
      </trkpt>
      <trkpt lat="43.48477" lon="5.25001">
        <ele>113</ele>
        <time>2022-10-02T08:20:31.000Z</time>
      </trkpt>
      <trkpt lat="43.48478" lon="5.25002">
        <ele>113</ele>
        <time>2022-10-02T08:20:32.000Z</time>
      </trkpt>
      <trkpt lat="43.48479" lon="5.25004">
        <ele>113</ele>
        <time>2022-10-02T08:20:33.000Z</time>
      </trkpt>
      <trkpt lat="43.48481" lon="5.25005">
        <ele>113</ele>
        <time>2022-10-02T08:20:34.000Z</time>
      </trkpt>
      <trkpt lat="43.48482" lon="5.25006">
        <ele>114</ele>
        <time>2022-10-02T08:20:35.000Z</time>
      </trkpt>
      <trkpt lat="43.48483" lon="5.25007">
        <ele>114</ele>
        <time>2022-10-02T08:20:36.000Z</time>
      </trkpt>
      <trkpt lat="43.48485" lon="5.25008">
        <ele>114</ele>
        <time>2022-10-02T08:20:37.000Z</time>
      </trkpt>
      <trkpt lat="43.48487" lon="5.25008">
        <ele>114</ele>
        <time>2022-10-02T08:20:38.000Z</time>
      </trkpt>
      <trkpt lat="43.48488" lon="5.25009">
        <ele>114</ele>
        <time>2022-10-02T08:20:39.000Z</time>
      </trkpt>
      <trkpt lat="43.4849" lon="5.2501">
        <ele>114</ele>
        <time>2022-10-02T08:20:40.000Z</time>
      </trkpt>
      <trkpt lat="43.48492" lon="5.25011">
        <ele>115</ele>
        <time>2022-10-02T08:20:41.000Z</time>
      </trkpt>
      <trkpt lat="43.48493" lon="5.25013">
        <ele>115</ele>
        <time>2022-10-02T08:20:42.000Z</time>
      </trkpt>
      <trkpt lat="43.48495" lon="5.25014">
        <ele>115</ele>
        <time>2022-10-02T08:20:43.000Z</time>
      </trkpt>
      <trkpt lat="43.48496" lon="5.25016">
        <ele>115</ele>
        <time>2022-10-02T08:20:44.000Z</time>
      </trkpt>
      <trkpt lat="43.48498" lon="5.25017">
        <ele>115</ele>
        <time>2022-10-02T08:20:45.000Z</time>
      </trkpt>
      <trkpt lat="43.48499" lon="5.25018">
        <ele>115</ele>
        <time>2022-10-02T08:20:46.000Z</time>
      </trkpt>
      <trkpt lat="43.48501" lon="5.25019">
        <ele>115</ele>
        <time>2022-10-02T08:20:47.000Z</time>
      </trkpt>
      <trkpt lat="43.48502" lon="5.25021">
        <ele>115</ele>
        <time>2022-10-02T08:20:48.000Z</time>
      </trkpt>
      <trkpt lat="43.48503" lon="5.25022">
        <ele>115</ele>
        <time>2022-10-02T08:20:49.000Z</time>
      </trkpt>
      <trkpt lat="43.48505" lon="5.25023">
        <ele>115</ele>
        <time>2022-10-02T08:20:50.000Z</time>
      </trkpt>
      <trkpt lat="43.48506" lon="5.25024">
        <ele>115</ele>
        <time>2022-10-02T08:20:51.000Z</time>
      </trkpt>
      <trkpt lat="43.48507" lon="5.25025">
        <ele>115</ele>
        <time>2022-10-02T08:20:52.000Z</time>
      </trkpt>
      <trkpt lat="43.48508" lon="5.25026">
        <ele>115</ele>
        <time>2022-10-02T08:20:53.000Z</time>
      </trkpt>
      <trkpt lat="43.48509" lon="5.25027">
        <ele>115</ele>
        <time>2022-10-02T08:20:54.000Z</time>
      </trkpt>
      <trkpt lat="43.48511" lon="5.25028">
        <ele>115</ele>
        <time>2022-10-02T08:20:55.000Z</time>
      </trkpt>
      <trkpt lat="43.48512" lon="5.25029">
        <ele>115</ele>
        <time>2022-10-02T08:20:56.000Z</time>
      </trkpt>
      <trkpt lat="43.48513" lon="5.2503">
        <ele>115</ele>
        <time>2022-10-02T08:20:57.000Z</time>
      </trkpt>
      <trkpt lat="43.48515" lon="5.25031">
        <ele>115</ele>
        <time>2022-10-02T08:20:58.000Z</time>
      </trkpt>
      <trkpt lat="43.48516" lon="5.25033">
        <ele>115</ele>
        <time>2022-10-02T08:20:59.000Z</time>
      </trkpt>
      <trkpt lat="43.48517" lon="5.25034">
        <ele>115</ele>
        <time>2022-10-02T08:21:00.000Z</time>
      </trkpt>
      <trkpt lat="43.48518" lon="5.25035">
        <ele>115</ele>
        <time>2022-10-02T08:21:01.000Z</time>
      </trkpt>
      <trkpt lat="43.4852" lon="5.25036">
        <ele>115</ele>
        <time>2022-10-02T08:21:02.000Z</time>
      </trkpt>
      <trkpt lat="43.48521" lon="5.25037">
        <ele>115</ele>
        <time>2022-10-02T08:21:03.000Z</time>
      </trkpt>
      <trkpt lat="43.48522" lon="5.25039">
        <ele>115</ele>
        <time>2022-10-02T08:21:04.000Z</time>
      </trkpt>
      <trkpt lat="43.48523" lon="5.25041">
        <ele>115</ele>
        <time>2022-10-02T08:21:05.000Z</time>
      </trkpt>
      <trkpt lat="43.48524" lon="5.25042">
        <ele>115</ele>
        <time>2022-10-02T08:21:06.000Z</time>
      </trkpt>
      <trkpt lat="43.48525" lon="5.25044">
        <ele>115</ele>
        <time>2022-10-02T08:21:07.000Z</time>
      </trkpt>
      <trkpt lat="43.48527" lon="5.25046">
        <ele>115</ele>
        <time>2022-10-02T08:21:08.000Z</time>
      </trkpt>
      <trkpt lat="43.48528" lon="5.25048">
        <ele>115</ele>
        <time>2022-10-02T08:21:09.000Z</time>
      </trkpt>
      <trkpt lat="43.48529" lon="5.2505">
        <ele>115</ele>
        <time>2022-10-02T08:21:10.000Z</time>
      </trkpt>
      <trkpt lat="43.4853" lon="5.25052">
        <ele>115</ele>
        <time>2022-10-02T08:21:11.000Z</time>
      </trkpt>
      <trkpt lat="43.4853" lon="5.25054">
        <ele>115</ele>
        <time>2022-10-02T08:21:12.000Z</time>
      </trkpt>
      <trkpt lat="43.48531" lon="5.25056">
        <ele>114</ele>
        <time>2022-10-02T08:21:13.000Z</time>
      </trkpt>
      <trkpt lat="43.48532" lon="5.25059">
        <ele>114</ele>
        <time>2022-10-02T08:21:14.000Z</time>
      </trkpt>
      <trkpt lat="43.48532" lon="5.25061">
        <ele>114</ele>
        <time>2022-10-02T08:21:15.000Z</time>
      </trkpt>
      <trkpt lat="43.48533" lon="5.25063">
        <ele>114</ele>
        <time>2022-10-02T08:21:16.000Z</time>
      </trkpt>
      <trkpt lat="43.48533" lon="5.25065">
        <ele>114</ele>
        <time>2022-10-02T08:21:17.000Z</time>
      </trkpt>
      <trkpt lat="43.48533" lon="5.25068">
        <ele>114</ele>
        <time>2022-10-02T08:21:18.000Z</time>
      </trkpt>
      <trkpt lat="43.48534" lon="5.2507">
        <ele>113</ele>
        <time>2022-10-02T08:21:19.000Z</time>
      </trkpt>
      <trkpt lat="43.48534" lon="5.25073">
        <ele>113</ele>
        <time>2022-10-02T08:21:20.000Z</time>
      </trkpt>
      <trkpt lat="43.48534" lon="5.25075">
        <ele>113</ele>
        <time>2022-10-02T08:21:21.000Z</time>
      </trkpt>
      <trkpt lat="43.48535" lon="5.25077">
        <ele>113</ele>
        <time>2022-10-02T08:21:22.000Z</time>
      </trkpt>
      <trkpt lat="43.48535" lon="5.2508">
        <ele>113</ele>
        <time>2022-10-02T08:21:23.000Z</time>
      </trkpt>
      <trkpt lat="43.48535" lon="5.25081">
        <ele>113</ele>
        <time>2022-10-02T08:21:24.000Z</time>
      </trkpt>
      <trkpt lat="43.48535" lon="5.25083">
        <ele>113</ele>
        <time>2022-10-02T08:21:25.000Z</time>
      </trkpt>
      <trkpt lat="43.48535" lon="5.25086">
        <ele>112</ele>
        <time>2022-10-02T08:21:26.000Z</time>
      </trkpt>
      <trkpt lat="43.48535" lon="5.25088">
        <ele>112</ele>
        <time>2022-10-02T08:21:27.000Z</time>
      </trkpt>
      <trkpt lat="43.48536" lon="5.25091">
        <ele>112</ele>
        <time>2022-10-02T08:21:28.000Z</time>
      </trkpt>
      <trkpt lat="43.48536" lon="5.25093">
        <ele>112</ele>
        <time>2022-10-02T08:21:29.000Z</time>
      </trkpt>
      <trkpt lat="43.48536" lon="5.25095">
        <ele>112</ele>
        <time>2022-10-02T08:21:30.000Z</time>
      </trkpt>
      <trkpt lat="43.48537" lon="5.25097">
        <ele>112</ele>
        <time>2022-10-02T08:21:31.000Z</time>
      </trkpt>
      <trkpt lat="43.48537" lon="5.25099">
        <ele>112</ele>
        <time>2022-10-02T08:21:32.000Z</time>
      </trkpt>
      <trkpt lat="43.48538" lon="5.25102">
        <ele>112</ele>
        <time>2022-10-02T08:21:33.000Z</time>
      </trkpt>
      <trkpt lat="43.48538" lon="5.25104">
        <ele>111</ele>
        <time>2022-10-02T08:21:34.000Z</time>
      </trkpt>
      <trkpt lat="43.48539" lon="5.25106">
        <ele>111</ele>
        <time>2022-10-02T08:21:35.000Z</time>
      </trkpt>
      <trkpt lat="43.4854" lon="5.25108">
        <ele>111</ele>
        <time>2022-10-02T08:21:36.000Z</time>
      </trkpt>
      <trkpt lat="43.48541" lon="5.2511">
        <ele>111</ele>
        <time>2022-10-02T08:21:37.000Z</time>
      </trkpt>
      <trkpt lat="43.48542" lon="5.25111">
        <ele>111</ele>
        <time>2022-10-02T08:21:38.000Z</time>
      </trkpt>
      <trkpt lat="43.48543" lon="5.25113">
        <ele>111</ele>
        <time>2022-10-02T08:21:39.000Z</time>
      </trkpt>
      <trkpt lat="43.48544" lon="5.25115">
        <ele>111</ele>
        <time>2022-10-02T08:21:40.000Z</time>
      </trkpt>
      <trkpt lat="43.48545" lon="5.25117">
        <ele>111</ele>
        <time>2022-10-02T08:21:41.000Z</time>
      </trkpt>
      <trkpt lat="43.48545" lon="5.25119">
        <ele>111</ele>
        <time>2022-10-02T08:21:42.000Z</time>
      </trkpt>
      <trkpt lat="43.48546" lon="5.25121">
        <ele>111</ele>
        <time>2022-10-02T08:21:43.000Z</time>
      </trkpt>
      <trkpt lat="43.48547" lon="5.25124">
        <ele>111</ele>
        <time>2022-10-02T08:21:44.000Z</time>
      </trkpt>
      <trkpt lat="43.48548" lon="5.25126">
        <ele>111</ele>
        <time>2022-10-02T08:21:45.000Z</time>
      </trkpt>
      <trkpt lat="43.48549" lon="5.25128">
        <ele>111</ele>
        <time>2022-10-02T08:21:46.000Z</time>
      </trkpt>
      <trkpt lat="43.4855" lon="5.2513">
        <ele>111</ele>
        <time>2022-10-02T08:21:47.000Z</time>
      </trkpt>
      <trkpt lat="43.48551" lon="5.25132">
        <ele>111</ele>
        <time>2022-10-02T08:21:48.000Z</time>
      </trkpt>
      <trkpt lat="43.48551" lon="5.25134">
        <ele>111</ele>
        <time>2022-10-02T08:21:49.000Z</time>
      </trkpt>
      <trkpt lat="43.48552" lon="5.25136">
        <ele>111</ele>
        <time>2022-10-02T08:21:50.000Z</time>
      </trkpt>
      <trkpt lat="43.48553" lon="5.25138">
        <ele>110</ele>
        <time>2022-10-02T08:21:51.000Z</time>
      </trkpt>
      <trkpt lat="43.48553" lon="5.2514">
        <ele>110</ele>
        <time>2022-10-02T08:21:52.000Z</time>
      </trkpt>
      <trkpt lat="43.48553" lon="5.25143">
        <ele>110</ele>
        <time>2022-10-02T08:21:53.000Z</time>
      </trkpt>
      <trkpt lat="43.48552" lon="5.25144">
        <ele>110</ele>
        <time>2022-10-02T08:21:54.000Z</time>
      </trkpt>
      <trkpt lat="43.48552" lon="5.25146">
        <ele>110</ele>
        <time>2022-10-02T08:21:55.000Z</time>
      </trkpt>
      <trkpt lat="43.48551" lon="5.25148">
        <ele>109</ele>
        <time>2022-10-02T08:21:56.000Z</time>
      </trkpt>
      <trkpt lat="43.4855" lon="5.2515">
        <ele>109</ele>
        <time>2022-10-02T08:21:57.000Z</time>
      </trkpt>
      <trkpt lat="43.48548" lon="5.25152">
        <ele>109</ele>
        <time>2022-10-02T08:21:58.000Z</time>
      </trkpt>
      <trkpt lat="43.48547" lon="5.25154">
        <ele>109</ele>
        <time>2022-10-02T08:21:59.000Z</time>
      </trkpt>
      <trkpt lat="43.48545" lon="5.25155">
        <ele>109</ele>
        <time>2022-10-02T08:22:00.000Z</time>
      </trkpt>
      <trkpt lat="43.48544" lon="5.25157">
        <ele>108</ele>
        <time>2022-10-02T08:22:01.000Z</time>
      </trkpt>
      <trkpt lat="43.48542" lon="5.25158">
        <ele>108</ele>
        <time>2022-10-02T08:22:02.000Z</time>
      </trkpt>
      <trkpt lat="43.48541" lon="5.25159">
        <ele>108</ele>
        <time>2022-10-02T08:22:03.000Z</time>
      </trkpt>
      <trkpt lat="43.48539" lon="5.2516">
        <ele>108</ele>
        <time>2022-10-02T08:22:04.000Z</time>
      </trkpt>
      <trkpt lat="43.48538" lon="5.25162">
        <ele>108</ele>
        <time>2022-10-02T08:22:05.000Z</time>
      </trkpt>
      <trkpt lat="43.48536" lon="5.25163">
        <ele>108</ele>
        <time>2022-10-02T08:22:06.000Z</time>
      </trkpt>
      <trkpt lat="43.48535" lon="5.25164">
        <ele>107</ele>
        <time>2022-10-02T08:22:07.000Z</time>
      </trkpt>
      <trkpt lat="43.48533" lon="5.25166">
        <ele>107</ele>
        <time>2022-10-02T08:22:08.000Z</time>
      </trkpt>
      <trkpt lat="43.48531" lon="5.25167">
        <ele>107</ele>
        <time>2022-10-02T08:22:09.000Z</time>
      </trkpt>
      <trkpt lat="43.4853" lon="5.25168">
        <ele>107</ele>
        <time>2022-10-02T08:22:10.000Z</time>
      </trkpt>
      <trkpt lat="43.48528" lon="5.25169">
        <ele>107</ele>
        <time>2022-10-02T08:22:11.000Z</time>
      </trkpt>
      <trkpt lat="43.48527" lon="5.25171">
        <ele>107</ele>
        <time>2022-10-02T08:22:12.000Z</time>
      </trkpt>
      <trkpt lat="43.48525" lon="5.25172">
        <ele>106</ele>
        <time>2022-10-02T08:22:13.000Z</time>
      </trkpt>
      <trkpt lat="43.48524" lon="5.25173">
        <ele>106</ele>
        <time>2022-10-02T08:22:14.000Z</time>
      </trkpt>
      <trkpt lat="43.48522" lon="5.25175">
        <ele>106</ele>
        <time>2022-10-02T08:22:15.000Z</time>
      </trkpt>
      <trkpt lat="43.48521" lon="5.25176">
        <ele>106</ele>
        <time>2022-10-02T08:22:16.000Z</time>
      </trkpt>
      <trkpt lat="43.4852" lon="5.25178">
        <ele>106</ele>
        <time>2022-10-02T08:22:17.000Z</time>
      </trkpt>
      <trkpt lat="43.48518" lon="5.25179">
        <ele>106</ele>
        <time>2022-10-02T08:22:18.000Z</time>
      </trkpt>
      <trkpt lat="43.48517" lon="5.25181">
        <ele>106</ele>
        <time>2022-10-02T08:22:19.000Z</time>
      </trkpt>
      <trkpt lat="43.48516" lon="5.25183">
        <ele>106</ele>
        <time>2022-10-02T08:22:20.000Z</time>
      </trkpt>
      <trkpt lat="43.48515" lon="5.25184">
        <ele>105</ele>
        <time>2022-10-02T08:22:21.000Z</time>
      </trkpt>
      <trkpt lat="43.48514" lon="5.25186">
        <ele>105</ele>
        <time>2022-10-02T08:22:22.000Z</time>
      </trkpt>
      <trkpt lat="43.48513" lon="5.25188">
        <ele>105</ele>
        <time>2022-10-02T08:22:23.000Z</time>
      </trkpt>
      <trkpt lat="43.48512" lon="5.2519">
        <ele>105</ele>
        <time>2022-10-02T08:22:24.000Z</time>
      </trkpt>
      <trkpt lat="43.48511" lon="5.25192">
        <ele>105</ele>
        <time>2022-10-02T08:22:25.000Z</time>
      </trkpt>
      <trkpt lat="43.4851" lon="5.25194">
        <ele>104</ele>
        <time>2022-10-02T08:22:26.000Z</time>
      </trkpt>
      <trkpt lat="43.48509" lon="5.25196">
        <ele>104</ele>
        <time>2022-10-02T08:22:27.000Z</time>
      </trkpt>
      <trkpt lat="43.48508" lon="5.25197">
        <ele>104</ele>
        <time>2022-10-02T08:22:28.000Z</time>
      </trkpt>
      <trkpt lat="43.48508" lon="5.25199">
        <ele>104</ele>
        <time>2022-10-02T08:22:29.000Z</time>
      </trkpt>
      <trkpt lat="43.48507" lon="5.25201">
        <ele>104</ele>
        <time>2022-10-02T08:22:30.000Z</time>
      </trkpt>
      <trkpt lat="43.48507" lon="5.25204">
        <ele>104</ele>
        <time>2022-10-02T08:22:31.000Z</time>
      </trkpt>
      <trkpt lat="43.48507" lon="5.25206">
        <ele>104</ele>
        <time>2022-10-02T08:22:32.000Z</time>
      </trkpt>
      <trkpt lat="43.48506" lon="5.25208">
        <ele>104</ele>
        <time>2022-10-02T08:22:33.000Z</time>
      </trkpt>
      <trkpt lat="43.48506" lon="5.2521">
        <ele>104</ele>
        <time>2022-10-02T08:22:34.000Z</time>
      </trkpt>
      <trkpt lat="43.48505" lon="5.25212">
        <ele>104</ele>
        <time>2022-10-02T08:22:35.000Z</time>
      </trkpt>
      <trkpt lat="43.48505" lon="5.25215">
        <ele>103</ele>
        <time>2022-10-02T08:22:36.000Z</time>
      </trkpt>
      <trkpt lat="43.48504" lon="5.25217">
        <ele>103</ele>
        <time>2022-10-02T08:22:37.000Z</time>
      </trkpt>
      <trkpt lat="43.48504" lon="5.25219">
        <ele>103</ele>
        <time>2022-10-02T08:22:38.000Z</time>
      </trkpt>
      <trkpt lat="43.48504" lon="5.25221">
        <ele>103</ele>
        <time>2022-10-02T08:22:39.000Z</time>
      </trkpt>
      <trkpt lat="43.48503" lon="5.25224">
        <ele>103</ele>
        <time>2022-10-02T08:22:40.000Z</time>
      </trkpt>
      <trkpt lat="43.48503" lon="5.25226">
        <ele>103</ele>
        <time>2022-10-02T08:22:41.000Z</time>
      </trkpt>
      <trkpt lat="43.48502" lon="5.25228">
        <ele>103</ele>
        <time>2022-10-02T08:22:42.000Z</time>
      </trkpt>
      <trkpt lat="43.48502" lon="5.2523">
        <ele>103</ele>
        <time>2022-10-02T08:22:43.000Z</time>
      </trkpt>
      <trkpt lat="43.48501" lon="5.25232">
        <ele>103</ele>
        <time>2022-10-02T08:22:44.000Z</time>
      </trkpt>
      <trkpt lat="43.48501" lon="5.25234">
        <ele>103</ele>
        <time>2022-10-02T08:22:45.000Z</time>
      </trkpt>
      <trkpt lat="43.485" lon="5.25236">
        <ele>103</ele>
        <time>2022-10-02T08:22:46.000Z</time>
      </trkpt>
      <trkpt lat="43.48499" lon="5.25238">
        <ele>103</ele>
        <time>2022-10-02T08:22:47.000Z</time>
      </trkpt>
      <trkpt lat="43.48498" lon="5.2524">
        <ele>103</ele>
        <time>2022-10-02T08:22:48.000Z</time>
      </trkpt>
      <trkpt lat="43.48497" lon="5.25242">
        <ele>102</ele>
        <time>2022-10-02T08:22:49.000Z</time>
      </trkpt>
      <trkpt lat="43.48496" lon="5.25244">
        <ele>102</ele>
        <time>2022-10-02T08:22:50.000Z</time>
      </trkpt>
      <trkpt lat="43.48495" lon="5.25246">
        <ele>102</ele>
        <time>2022-10-02T08:22:51.000Z</time>
      </trkpt>
      <trkpt lat="43.48495" lon="5.25248">
        <ele>102</ele>
        <time>2022-10-02T08:22:52.000Z</time>
      </trkpt>
      <trkpt lat="43.48494" lon="5.2525">
        <ele>102</ele>
        <time>2022-10-02T08:22:53.000Z</time>
      </trkpt>
      <trkpt lat="43.48492" lon="5.25252">
        <ele>102</ele>
        <time>2022-10-02T08:22:54.000Z</time>
      </trkpt>
      <trkpt lat="43.48491" lon="5.25253">
        <ele>102</ele>
        <time>2022-10-02T08:22:55.000Z</time>
      </trkpt>
      <trkpt lat="43.4849" lon="5.25255">
        <ele>102</ele>
        <time>2022-10-02T08:22:56.000Z</time>
      </trkpt>
      <trkpt lat="43.48489" lon="5.25257">
        <ele>102</ele>
        <time>2022-10-02T08:22:57.000Z</time>
      </trkpt>
      <trkpt lat="43.48488" lon="5.25259">
        <ele>102</ele>
        <time>2022-10-02T08:22:58.000Z</time>
      </trkpt>
      <trkpt lat="43.48487" lon="5.25261">
        <ele>102</ele>
        <time>2022-10-02T08:22:59.000Z</time>
      </trkpt>
      <trkpt lat="43.48486" lon="5.25263">
        <ele>102</ele>
        <time>2022-10-02T08:23:00.000Z</time>
      </trkpt>
      <trkpt lat="43.48485" lon="5.25265">
        <ele>101</ele>
        <time>2022-10-02T08:23:01.000Z</time>
      </trkpt>
      <trkpt lat="43.48484" lon="5.25267">
        <ele>101</ele>
        <time>2022-10-02T08:23:02.000Z</time>
      </trkpt>
      <trkpt lat="43.48484" lon="5.25268">
        <ele>101</ele>
        <time>2022-10-02T08:23:03.000Z</time>
      </trkpt>
      <trkpt lat="43.48483" lon="5.2527">
        <ele>101</ele>
        <time>2022-10-02T08:23:04.000Z</time>
      </trkpt>
      <trkpt lat="43.48482" lon="5.25272">
        <ele>101</ele>
        <time>2022-10-02T08:23:05.000Z</time>
      </trkpt>
      <trkpt lat="43.48481" lon="5.25274">
        <ele>101</ele>
        <time>2022-10-02T08:23:06.000Z</time>
      </trkpt>
      <trkpt lat="43.4848" lon="5.25276">
        <ele>101</ele>
        <time>2022-10-02T08:23:07.000Z</time>
      </trkpt>
      <trkpt lat="43.4848" lon="5.25278">
        <ele>101</ele>
        <time>2022-10-02T08:23:08.000Z</time>
      </trkpt>
      <trkpt lat="43.48478" lon="5.25279">
        <ele>101</ele>
        <time>2022-10-02T08:23:09.000Z</time>
      </trkpt>
      <trkpt lat="43.48477" lon="5.25281">
        <ele>101</ele>
        <time>2022-10-02T08:23:10.000Z</time>
      </trkpt>
      <trkpt lat="43.48476" lon="5.25282">
        <ele>101</ele>
        <time>2022-10-02T08:23:11.000Z</time>
      </trkpt>
      <trkpt lat="43.48474" lon="5.25282">
        <ele>101</ele>
        <time>2022-10-02T08:23:12.000Z</time>
      </trkpt>
      <trkpt lat="43.48473" lon="5.25282">
        <ele>101</ele>
        <time>2022-10-02T08:23:13.000Z</time>
      </trkpt>
      <trkpt lat="43.48471" lon="5.25282">
        <ele>101</ele>
        <time>2022-10-02T08:23:14.000Z</time>
      </trkpt>
      <trkpt lat="43.4847" lon="5.25281">
        <ele>101</ele>
        <time>2022-10-02T08:23:15.000Z</time>
      </trkpt>
      <trkpt lat="43.48468" lon="5.25279">
        <ele>101</ele>
        <time>2022-10-02T08:23:16.000Z</time>
      </trkpt>
      <trkpt lat="43.48467" lon="5.25278">
        <ele>101</ele>
        <time>2022-10-02T08:23:17.000Z</time>
      </trkpt>
      <trkpt lat="43.48466" lon="5.25276">
        <ele>101</ele>
        <time>2022-10-02T08:23:18.000Z</time>
      </trkpt>
      <trkpt lat="43.48465" lon="5.25274">
        <ele>101</ele>
        <time>2022-10-02T08:23:19.000Z</time>
      </trkpt>
      <trkpt lat="43.48464" lon="5.25272">
        <ele>101</ele>
        <time>2022-10-02T08:23:20.000Z</time>
      </trkpt>
      <trkpt lat="43.48463" lon="5.2527">
        <ele>101</ele>
        <time>2022-10-02T08:23:21.000Z</time>
      </trkpt>
      <trkpt lat="43.48462" lon="5.25267">
        <ele>101</ele>
        <time>2022-10-02T08:23:22.000Z</time>
      </trkpt>
      <trkpt lat="43.48462" lon="5.25265">
        <ele>100</ele>
        <time>2022-10-02T08:23:23.000Z</time>
      </trkpt>
      <trkpt lat="43.48462" lon="5.25262">
        <ele>100</ele>
        <time>2022-10-02T08:23:24.000Z</time>
      </trkpt>
      <trkpt lat="43.48462" lon="5.2526">
        <ele>100</ele>
        <time>2022-10-02T08:23:25.000Z</time>
      </trkpt>
      <trkpt lat="43.48461" lon="5.25258">
        <ele>100</ele>
        <time>2022-10-02T08:23:26.000Z</time>
      </trkpt>
      <trkpt lat="43.48461" lon="5.25255">
        <ele>100</ele>
        <time>2022-10-02T08:23:27.000Z</time>
      </trkpt>
      <trkpt lat="43.4846" lon="5.25253">
        <ele>100</ele>
        <time>2022-10-02T08:23:28.000Z</time>
      </trkpt>
      <trkpt lat="43.4846" lon="5.25251">
        <ele>100</ele>
        <time>2022-10-02T08:23:29.000Z</time>
      </trkpt>
      <trkpt lat="43.48459" lon="5.25248">
        <ele>100</ele>
        <time>2022-10-02T08:23:30.000Z</time>
      </trkpt>
      <trkpt lat="43.48459" lon="5.25246">
        <ele>100</ele>
        <time>2022-10-02T08:23:31.000Z</time>
      </trkpt>
      <trkpt lat="43.48458" lon="5.25244">
        <ele>100</ele>
        <time>2022-10-02T08:23:32.000Z</time>
      </trkpt>
      <trkpt lat="43.48458" lon="5.25242">
        <ele>100</ele>
        <time>2022-10-02T08:23:33.000Z</time>
      </trkpt>
      <trkpt lat="43.48457" lon="5.2524">
        <ele>100</ele>
        <time>2022-10-02T08:23:34.000Z</time>
      </trkpt>
      <trkpt lat="43.48457" lon="5.25238">
        <ele>101</ele>
        <time>2022-10-02T08:23:35.000Z</time>
      </trkpt>
      <trkpt lat="43.48456" lon="5.25236">
        <ele>101</ele>
        <time>2022-10-02T08:23:36.000Z</time>
      </trkpt>
      <trkpt lat="43.48455" lon="5.25234">
        <ele>101</ele>
        <time>2022-10-02T08:23:37.000Z</time>
      </trkpt>
      <trkpt lat="43.48454" lon="5.25232">
        <ele>101</ele>
        <time>2022-10-02T08:23:38.000Z</time>
      </trkpt>
      <trkpt lat="43.48453" lon="5.25229">
        <ele>101</ele>
        <time>2022-10-02T08:23:39.000Z</time>
      </trkpt>
      <trkpt lat="43.48453" lon="5.25228">
        <ele>101</ele>
        <time>2022-10-02T08:23:40.000Z</time>
      </trkpt>
      <trkpt lat="43.48452" lon="5.25226">
        <ele>101</ele>
        <time>2022-10-02T08:23:41.000Z</time>
      </trkpt>
      <trkpt lat="43.48451" lon="5.25224">
        <ele>101</ele>
        <time>2022-10-02T08:23:42.000Z</time>
      </trkpt>
      <trkpt lat="43.4845" lon="5.25223">
        <ele>101</ele>
        <time>2022-10-02T08:23:43.000Z</time>
      </trkpt>
      <trkpt lat="43.48449" lon="5.25221">
        <ele>102</ele>
        <time>2022-10-02T08:23:44.000Z</time>
      </trkpt>
      <trkpt lat="43.48448" lon="5.2522">
        <ele>102</ele>
        <time>2022-10-02T08:23:45.000Z</time>
      </trkpt>
      <trkpt lat="43.48446" lon="5.25218">
        <ele>102</ele>
        <time>2022-10-02T08:23:46.000Z</time>
      </trkpt>
      <trkpt lat="43.48445" lon="5.25217">
        <ele>102</ele>
        <time>2022-10-02T08:23:47.000Z</time>
      </trkpt>
      <trkpt lat="43.48444" lon="5.25215">
        <ele>102</ele>
        <time>2022-10-02T08:23:48.000Z</time>
      </trkpt>
      <trkpt lat="43.48443" lon="5.25214">
        <ele>102</ele>
        <time>2022-10-02T08:23:49.000Z</time>
      </trkpt>
      <trkpt lat="43.48441" lon="5.25213">
        <ele>102</ele>
        <time>2022-10-02T08:23:50.000Z</time>
      </trkpt>
      <trkpt lat="43.4844" lon="5.25211">
        <ele>102</ele>
        <time>2022-10-02T08:23:51.000Z</time>
      </trkpt>
      <trkpt lat="43.48439" lon="5.2521">
        <ele>102</ele>
        <time>2022-10-02T08:23:52.000Z</time>
      </trkpt>
      <trkpt lat="43.48437" lon="5.25209">
        <ele>102</ele>
        <time>2022-10-02T08:23:53.000Z</time>
      </trkpt>
      <trkpt lat="43.48436" lon="5.25207">
        <ele>102</ele>
        <time>2022-10-02T08:23:54.000Z</time>
      </trkpt>
      <trkpt lat="43.48435" lon="5.25206">
        <ele>101</ele>
        <time>2022-10-02T08:23:55.000Z</time>
      </trkpt>
      <trkpt lat="43.48434" lon="5.25205">
        <ele>101</ele>
        <time>2022-10-02T08:23:56.000Z</time>
      </trkpt>
      <trkpt lat="43.48432" lon="5.25204">
        <ele>101</ele>
        <time>2022-10-02T08:23:57.000Z</time>
      </trkpt>
      <trkpt lat="43.48431" lon="5.25203">
        <ele>101</ele>
        <time>2022-10-02T08:23:58.000Z</time>
      </trkpt>
      <trkpt lat="43.4843" lon="5.25202">
        <ele>101</ele>
        <time>2022-10-02T08:23:59.000Z</time>
      </trkpt>
      <trkpt lat="43.48428" lon="5.25201">
        <ele>101</ele>
        <time>2022-10-02T08:24:00.000Z</time>
      </trkpt>
      <trkpt lat="43.48427" lon="5.252">
        <ele>101</ele>
        <time>2022-10-02T08:24:01.000Z</time>
      </trkpt>
      <trkpt lat="43.48426" lon="5.25199">
        <ele>101</ele>
        <time>2022-10-02T08:24:02.000Z</time>
      </trkpt>
      <trkpt lat="43.48424" lon="5.25198">
        <ele>101</ele>
        <time>2022-10-02T08:24:03.000Z</time>
      </trkpt>
      <trkpt lat="43.48423" lon="5.25197">
        <ele>100</ele>
        <time>2022-10-02T08:24:04.000Z</time>
      </trkpt>
      <trkpt lat="43.48421" lon="5.25196">
        <ele>100</ele>
        <time>2022-10-02T08:24:05.000Z</time>
      </trkpt>
      <trkpt lat="43.4842" lon="5.25195">
        <ele>100</ele>
        <time>2022-10-02T08:24:06.000Z</time>
      </trkpt>
      <trkpt lat="43.48418" lon="5.25195">
        <ele>100</ele>
        <time>2022-10-02T08:24:07.000Z</time>
      </trkpt>
      <trkpt lat="43.48417" lon="5.25194">
        <ele>100</ele>
        <time>2022-10-02T08:24:08.000Z</time>
      </trkpt>
      <trkpt lat="43.48415" lon="5.25193">
        <ele>100</ele>
        <time>2022-10-02T08:24:09.000Z</time>
      </trkpt>
      <trkpt lat="43.48414" lon="5.25192">
        <ele>100</ele>
        <time>2022-10-02T08:24:10.000Z</time>
      </trkpt>
      <trkpt lat="43.48412" lon="5.25192">
        <ele>100</ele>
        <time>2022-10-02T08:24:11.000Z</time>
      </trkpt>
      <trkpt lat="43.48411" lon="5.25191">
        <ele>100</ele>
        <time>2022-10-02T08:24:12.000Z</time>
      </trkpt>
      <trkpt lat="43.48409" lon="5.2519">
        <ele>100</ele>
        <time>2022-10-02T08:24:13.000Z</time>
      </trkpt>
      <trkpt lat="43.48408" lon="5.2519">
        <ele>100</ele>
        <time>2022-10-02T08:24:14.000Z</time>
      </trkpt>
      <trkpt lat="43.48406" lon="5.25189">
        <ele>100</ele>
        <time>2022-10-02T08:24:15.000Z</time>
      </trkpt>
      <trkpt lat="43.48405" lon="5.25189">
        <ele>100</ele>
        <time>2022-10-02T08:24:16.000Z</time>
      </trkpt>
      <trkpt lat="43.48403" lon="5.25188">
        <ele>100</ele>
        <time>2022-10-02T08:24:17.000Z</time>
      </trkpt>
      <trkpt lat="43.48402" lon="5.25187">
        <ele>101</ele>
        <time>2022-10-02T08:24:18.000Z</time>
      </trkpt>
      <trkpt lat="43.484" lon="5.25186">
        <ele>101</ele>
        <time>2022-10-02T08:24:19.000Z</time>
      </trkpt>
      <trkpt lat="43.48399" lon="5.25185">
        <ele>101</ele>
        <time>2022-10-02T08:24:20.000Z</time>
      </trkpt>
      <trkpt lat="43.48397" lon="5.25184">
        <ele>101</ele>
        <time>2022-10-02T08:24:21.000Z</time>
      </trkpt>
      <trkpt lat="43.48396" lon="5.25183">
        <ele>101</ele>
        <time>2022-10-02T08:24:22.000Z</time>
      </trkpt>
      <trkpt lat="43.48394" lon="5.25182">
        <ele>101</ele>
        <time>2022-10-02T08:24:23.000Z</time>
      </trkpt>
      <trkpt lat="43.48393" lon="5.25182">
        <ele>101</ele>
        <time>2022-10-02T08:24:24.000Z</time>
      </trkpt>
      <trkpt lat="43.48392" lon="5.25181">
        <ele>101</ele>
        <time>2022-10-02T08:24:25.000Z</time>
      </trkpt>
      <trkpt lat="43.4839" lon="5.2518">
        <ele>101</ele>
        <time>2022-10-02T08:24:26.000Z</time>
      </trkpt>
      <trkpt lat="43.48389" lon="5.2518">
        <ele>101</ele>
        <time>2022-10-02T08:24:27.000Z</time>
      </trkpt>
      <trkpt lat="43.48387" lon="5.25179">
        <ele>101</ele>
        <time>2022-10-02T08:24:28.000Z</time>
      </trkpt>
      <trkpt lat="43.48386" lon="5.25179">
        <ele>101</ele>
        <time>2022-10-02T08:24:29.000Z</time>
      </trkpt>
      <trkpt lat="43.48384" lon="5.25178">
        <ele>101</ele>
        <time>2022-10-02T08:24:30.000Z</time>
      </trkpt>
      <trkpt lat="43.48383" lon="5.25177">
        <ele>101</ele>
        <time>2022-10-02T08:24:31.000Z</time>
      </trkpt>
      <trkpt lat="43.48382" lon="5.25176">
        <ele>101</ele>
        <time>2022-10-02T08:24:32.000Z</time>
      </trkpt>
      <trkpt lat="43.4838" lon="5.25175">
        <ele>101</ele>
        <time>2022-10-02T08:24:33.000Z</time>
      </trkpt>
      <trkpt lat="43.48379" lon="5.25174">
        <ele>101</ele>
        <time>2022-10-02T08:24:34.000Z</time>
      </trkpt>
      <trkpt lat="43.48378" lon="5.25173">
        <ele>101</ele>
        <time>2022-10-02T08:24:35.000Z</time>
      </trkpt>
      <trkpt lat="43.48376" lon="5.25172">
        <ele>101</ele>
        <time>2022-10-02T08:24:36.000Z</time>
      </trkpt>
      <trkpt lat="43.48375" lon="5.25171">
        <ele>102</ele>
        <time>2022-10-02T08:24:37.000Z</time>
      </trkpt>
      <trkpt lat="43.48374" lon="5.2517">
        <ele>102</ele>
        <time>2022-10-02T08:24:38.000Z</time>
      </trkpt>
      <trkpt lat="43.48372" lon="5.25169">
        <ele>102</ele>
        <time>2022-10-02T08:24:39.000Z</time>
      </trkpt>
      <trkpt lat="43.48371" lon="5.25168">
        <ele>102</ele>
        <time>2022-10-02T08:24:40.000Z</time>
      </trkpt>
      <trkpt lat="43.4837" lon="5.25167">
        <ele>102</ele>
        <time>2022-10-02T08:24:41.000Z</time>
      </trkpt>
      <trkpt lat="43.48369" lon="5.25166">
        <ele>102</ele>
        <time>2022-10-02T08:24:42.000Z</time>
      </trkpt>
      <trkpt lat="43.48367" lon="5.25164">
        <ele>102</ele>
        <time>2022-10-02T08:24:43.000Z</time>
      </trkpt>
      <trkpt lat="43.48366" lon="5.25162">
        <ele>102</ele>
        <time>2022-10-02T08:24:44.000Z</time>
      </trkpt>
      <trkpt lat="43.48365" lon="5.25161">
        <ele>102</ele>
        <time>2022-10-02T08:24:45.000Z</time>
      </trkpt>
      <trkpt lat="43.48364" lon="5.2516">
        <ele>102</ele>
        <time>2022-10-02T08:24:46.000Z</time>
      </trkpt>
      <trkpt lat="43.48362" lon="5.25158">
        <ele>102</ele>
        <time>2022-10-02T08:24:47.000Z</time>
      </trkpt>
      <trkpt lat="43.48361" lon="5.25157">
        <ele>102</ele>
        <time>2022-10-02T08:24:48.000Z</time>
      </trkpt>
      <trkpt lat="43.4836" lon="5.25156">
        <ele>102</ele>
        <time>2022-10-02T08:24:49.000Z</time>
      </trkpt>
      <trkpt lat="43.48358" lon="5.25155">
        <ele>102</ele>
        <time>2022-10-02T08:24:50.000Z</time>
      </trkpt>
      <trkpt lat="43.48357" lon="5.25154">
        <ele>102</ele>
        <time>2022-10-02T08:24:51.000Z</time>
      </trkpt>
      <trkpt lat="43.48356" lon="5.25153">
        <ele>102</ele>
        <time>2022-10-02T08:24:52.000Z</time>
      </trkpt>
      <trkpt lat="43.48354" lon="5.25152">
        <ele>102</ele>
        <time>2022-10-02T08:24:53.000Z</time>
      </trkpt>
      <trkpt lat="43.48353" lon="5.25151">
        <ele>102</ele>
        <time>2022-10-02T08:24:54.000Z</time>
      </trkpt>
      <trkpt lat="43.48351" lon="5.2515">
        <ele>103</ele>
        <time>2022-10-02T08:24:55.000Z</time>
      </trkpt>
      <trkpt lat="43.4835" lon="5.25149">
        <ele>103</ele>
        <time>2022-10-02T08:24:56.000Z</time>
      </trkpt>
      <trkpt lat="43.48349" lon="5.25148">
        <ele>103</ele>
        <time>2022-10-02T08:24:57.000Z</time>
      </trkpt>
      <trkpt lat="43.48347" lon="5.25147">
        <ele>103</ele>
        <time>2022-10-02T08:24:58.000Z</time>
      </trkpt>
      <trkpt lat="43.48346" lon="5.25146">
        <ele>103</ele>
        <time>2022-10-02T08:24:59.000Z</time>
      </trkpt>
      <trkpt lat="43.48344" lon="5.25146">
        <ele>103</ele>
        <time>2022-10-02T08:25:00.000Z</time>
      </trkpt>
      <trkpt lat="43.48343" lon="5.25145">
        <ele>103</ele>
        <time>2022-10-02T08:25:01.000Z</time>
      </trkpt>
      <trkpt lat="43.48341" lon="5.25144">
        <ele>103</ele>
        <time>2022-10-02T08:25:02.000Z</time>
      </trkpt>
      <trkpt lat="43.48339" lon="5.25143">
        <ele>103</ele>
        <time>2022-10-02T08:25:03.000Z</time>
      </trkpt>
      <trkpt lat="43.48338" lon="5.25142">
        <ele>103</ele>
        <time>2022-10-02T08:25:04.000Z</time>
      </trkpt>
      <trkpt lat="43.48336" lon="5.25142">
        <ele>103</ele>
        <time>2022-10-02T08:25:05.000Z</time>
      </trkpt>
      <trkpt lat="43.48335" lon="5.25141">
        <ele>103</ele>
        <time>2022-10-02T08:25:06.000Z</time>
      </trkpt>
      <trkpt lat="43.48333" lon="5.2514">
        <ele>103</ele>
        <time>2022-10-02T08:25:07.000Z</time>
      </trkpt>
      <trkpt lat="43.48332" lon="5.2514">
        <ele>103</ele>
        <time>2022-10-02T08:25:08.000Z</time>
      </trkpt>
      <trkpt lat="43.4833" lon="5.25139">
        <ele>103</ele>
        <time>2022-10-02T08:25:09.000Z</time>
      </trkpt>
      <trkpt lat="43.48328" lon="5.25139">
        <ele>103</ele>
        <time>2022-10-02T08:25:10.000Z</time>
      </trkpt>
      <trkpt lat="43.48327" lon="5.25138">
        <ele>103</ele>
        <time>2022-10-02T08:25:11.000Z</time>
      </trkpt>
      <trkpt lat="43.48326" lon="5.25138">
        <ele>103</ele>
        <time>2022-10-02T08:25:12.000Z</time>
      </trkpt>
      <trkpt lat="43.48324" lon="5.25137">
        <ele>103</ele>
        <time>2022-10-02T08:25:13.000Z</time>
      </trkpt>
      <trkpt lat="43.48322" lon="5.25136">
        <ele>103</ele>
        <time>2022-10-02T08:25:14.000Z</time>
      </trkpt>
      <trkpt lat="43.48321" lon="5.25136">
        <ele>103</ele>
        <time>2022-10-02T08:25:15.000Z</time>
      </trkpt>
      <trkpt lat="43.48319" lon="5.25135">
        <ele>103</ele>
        <time>2022-10-02T08:25:16.000Z</time>
      </trkpt>
      <trkpt lat="43.48318" lon="5.25134">
        <ele>103</ele>
        <time>2022-10-02T08:25:17.000Z</time>
      </trkpt>
      <trkpt lat="43.48316" lon="5.25134">
        <ele>103</ele>
        <time>2022-10-02T08:25:18.000Z</time>
      </trkpt>
      <trkpt lat="43.48314" lon="5.25133">
        <ele>103</ele>
        <time>2022-10-02T08:25:19.000Z</time>
      </trkpt>
      <trkpt lat="43.48313" lon="5.25132">
        <ele>103</ele>
        <time>2022-10-02T08:25:20.000Z</time>
      </trkpt>
      <trkpt lat="43.48311" lon="5.25132">
        <ele>103</ele>
        <time>2022-10-02T08:25:21.000Z</time>
      </trkpt>
      <trkpt lat="43.48309" lon="5.25131">
        <ele>103</ele>
        <time>2022-10-02T08:25:22.000Z</time>
      </trkpt>
      <trkpt lat="43.48308" lon="5.2513">
        <ele>103</ele>
        <time>2022-10-02T08:25:23.000Z</time>
      </trkpt>
      <trkpt lat="43.48306" lon="5.25129">
        <ele>102</ele>
        <time>2022-10-02T08:25:24.000Z</time>
      </trkpt>
      <trkpt lat="43.48305" lon="5.25128">
        <ele>102</ele>
        <time>2022-10-02T08:25:25.000Z</time>
      </trkpt>
      <trkpt lat="43.48303" lon="5.25128">
        <ele>102</ele>
        <time>2022-10-02T08:25:26.000Z</time>
      </trkpt>
      <trkpt lat="43.48302" lon="5.25127">
        <ele>102</ele>
        <time>2022-10-02T08:25:27.000Z</time>
      </trkpt>
      <trkpt lat="43.483" lon="5.25127">
        <ele>102</ele>
        <time>2022-10-02T08:25:28.000Z</time>
      </trkpt>
      <trkpt lat="43.48299" lon="5.25126">
        <ele>102</ele>
        <time>2022-10-02T08:25:29.000Z</time>
      </trkpt>
      <trkpt lat="43.48298" lon="5.25126">
        <ele>102</ele>
        <time>2022-10-02T08:25:30.000Z</time>
      </trkpt>
      <trkpt lat="43.48296" lon="5.25125">
        <ele>102</ele>
        <time>2022-10-02T08:25:31.000Z</time>
      </trkpt>
      <trkpt lat="43.48295" lon="5.25124">
        <ele>102</ele>
        <time>2022-10-02T08:25:32.000Z</time>
      </trkpt>
      <trkpt lat="43.48293" lon="5.25124">
        <ele>102</ele>
        <time>2022-10-02T08:25:33.000Z</time>
      </trkpt>
      <trkpt lat="43.48291" lon="5.25123">
        <ele>102</ele>
        <time>2022-10-02T08:25:34.000Z</time>
      </trkpt>
      <trkpt lat="43.4829" lon="5.25123">
        <ele>102</ele>
        <time>2022-10-02T08:25:35.000Z</time>
      </trkpt>
      <trkpt lat="43.48288" lon="5.25122">
        <ele>102</ele>
        <time>2022-10-02T08:25:36.000Z</time>
      </trkpt>
      <trkpt lat="43.48286" lon="5.25122">
        <ele>102</ele>
        <time>2022-10-02T08:25:37.000Z</time>
      </trkpt>
      <trkpt lat="43.48285" lon="5.25122">
        <ele>102</ele>
        <time>2022-10-02T08:25:38.000Z</time>
      </trkpt>
      <trkpt lat="43.48283" lon="5.25122">
        <ele>102</ele>
        <time>2022-10-02T08:25:39.000Z</time>
      </trkpt>
      <trkpt lat="43.48281" lon="5.25122">
        <ele>102</ele>
        <time>2022-10-02T08:25:40.000Z</time>
      </trkpt>
      <trkpt lat="43.4828" lon="5.25122">
        <ele>102</ele>
        <time>2022-10-02T08:25:41.000Z</time>
      </trkpt>
      <trkpt lat="43.48278" lon="5.25122">
        <ele>101</ele>
        <time>2022-10-02T08:25:42.000Z</time>
      </trkpt>
      <trkpt lat="43.48277" lon="5.25123">
        <ele>101</ele>
        <time>2022-10-02T08:25:43.000Z</time>
      </trkpt>
      <trkpt lat="43.48276" lon="5.25123">
        <ele>101</ele>
        <time>2022-10-02T08:25:44.000Z</time>
      </trkpt>
      <trkpt lat="43.48276" lon="5.25123">
        <ele>101</ele>
        <time>2022-10-02T08:25:45.000Z</time>
      </trkpt>
      <trkpt lat="43.48276" lon="5.25123">
        <ele>101</ele>
        <time>2022-10-02T08:25:46.000Z</time>
      </trkpt>
      <trkpt lat="43.48275" lon="5.25124">
        <ele>101</ele>
        <time>2022-10-02T08:25:47.000Z</time>
      </trkpt>
      <trkpt lat="43.48273" lon="5.25126">
        <ele>101</ele>
        <time>2022-10-02T08:25:48.000Z</time>
      </trkpt>
      <trkpt lat="43.48271" lon="5.25127">
        <ele>101</ele>
        <time>2022-10-02T08:25:49.000Z</time>
      </trkpt>
      <trkpt lat="43.4827" lon="5.25129">
        <ele>101</ele>
        <time>2022-10-02T08:25:50.000Z</time>
      </trkpt>
      <trkpt lat="43.48268" lon="5.2513">
        <ele>101</ele>
        <time>2022-10-02T08:25:51.000Z</time>
      </trkpt>
      <trkpt lat="43.48267" lon="5.25132">
        <ele>101</ele>
        <time>2022-10-02T08:25:52.000Z</time>
      </trkpt>
      <trkpt lat="43.48265" lon="5.25134">
        <ele>101</ele>
        <time>2022-10-02T08:25:53.000Z</time>
      </trkpt>
      <trkpt lat="43.48264" lon="5.25136">
        <ele>101</ele>
        <time>2022-10-02T08:25:54.000Z</time>
      </trkpt>
      <trkpt lat="43.48262" lon="5.25138">
        <ele>101</ele>
        <time>2022-10-02T08:25:55.000Z</time>
      </trkpt>
      <trkpt lat="43.48261" lon="5.2514">
        <ele>102</ele>
        <time>2022-10-02T08:25:56.000Z</time>
      </trkpt>
      <trkpt lat="43.4826" lon="5.25142">
        <ele>101</ele>
        <time>2022-10-02T08:25:57.000Z</time>
      </trkpt>
      <trkpt lat="43.48259" lon="5.25144">
        <ele>102</ele>
        <time>2022-10-02T08:25:58.000Z</time>
      </trkpt>
      <trkpt lat="43.48257" lon="5.25146">
        <ele>101</ele>
        <time>2022-10-02T08:25:59.000Z</time>
      </trkpt>
      <trkpt lat="43.48256" lon="5.25149">
        <ele>101</ele>
        <time>2022-10-02T08:26:00.000Z</time>
      </trkpt>
      <trkpt lat="43.48255" lon="5.25151">
        <ele>101</ele>
        <time>2022-10-02T08:26:01.000Z</time>
      </trkpt>
      <trkpt lat="43.48254" lon="5.25153">
        <ele>101</ele>
        <time>2022-10-02T08:26:02.000Z</time>
      </trkpt>
      <trkpt lat="43.48253" lon="5.25156">
        <ele>101</ele>
        <time>2022-10-02T08:26:03.000Z</time>
      </trkpt>
      <trkpt lat="43.48252" lon="5.25158">
        <ele>101</ele>
        <time>2022-10-02T08:26:04.000Z</time>
      </trkpt>
      <trkpt lat="43.48251" lon="5.2516">
        <ele>101</ele>
        <time>2022-10-02T08:26:05.000Z</time>
      </trkpt>
      <trkpt lat="43.4825" lon="5.25162">
        <ele>101</ele>
        <time>2022-10-02T08:26:06.000Z</time>
      </trkpt>
      <trkpt lat="43.48249" lon="5.25164">
        <ele>101</ele>
        <time>2022-10-02T08:26:07.000Z</time>
      </trkpt>
      <trkpt lat="43.48247" lon="5.25166">
        <ele>101</ele>
        <time>2022-10-02T08:26:08.000Z</time>
      </trkpt>
      <trkpt lat="43.48246" lon="5.25168">
        <ele>101</ele>
        <time>2022-10-02T08:26:09.000Z</time>
      </trkpt>
      <trkpt lat="43.48245" lon="5.2517">
        <ele>101</ele>
        <time>2022-10-02T08:26:10.000Z</time>
      </trkpt>
      <trkpt lat="43.48244" lon="5.25172">
        <ele>101</ele>
        <time>2022-10-02T08:26:11.000Z</time>
      </trkpt>
      <trkpt lat="43.48243" lon="5.25174">
        <ele>101</ele>
        <time>2022-10-02T08:26:12.000Z</time>
      </trkpt>
      <trkpt lat="43.48243" lon="5.25176">
        <ele>101</ele>
        <time>2022-10-02T08:26:13.000Z</time>
      </trkpt>
      <trkpt lat="43.48242" lon="5.25178">
        <ele>101</ele>
        <time>2022-10-02T08:26:14.000Z</time>
      </trkpt>
      <trkpt lat="43.48241" lon="5.2518">
        <ele>101</ele>
        <time>2022-10-02T08:26:15.000Z</time>
      </trkpt>
      <trkpt lat="43.48241" lon="5.25182">
        <ele>101</ele>
        <time>2022-10-02T08:26:16.000Z</time>
      </trkpt>
      <trkpt lat="43.4824" lon="5.25184">
        <ele>101</ele>
        <time>2022-10-02T08:26:17.000Z</time>
      </trkpt>
      <trkpt lat="43.4824" lon="5.25186">
        <ele>101</ele>
        <time>2022-10-02T08:26:18.000Z</time>
      </trkpt>
      <trkpt lat="43.48239" lon="5.25189">
        <ele>101</ele>
        <time>2022-10-02T08:26:19.000Z</time>
      </trkpt>
      <trkpt lat="43.48239" lon="5.2519">
        <ele>101</ele>
        <time>2022-10-02T08:26:20.000Z</time>
      </trkpt>
      <trkpt lat="43.48238" lon="5.25193">
        <ele>102</ele>
        <time>2022-10-02T08:26:21.000Z</time>
      </trkpt>
      <trkpt lat="43.48238" lon="5.25194">
        <ele>102</ele>
        <time>2022-10-02T08:26:22.000Z</time>
      </trkpt>
      <trkpt lat="43.48238" lon="5.25197">
        <ele>102</ele>
        <time>2022-10-02T08:26:23.000Z</time>
      </trkpt>
      <trkpt lat="43.48238" lon="5.25199">
        <ele>102</ele>
        <time>2022-10-02T08:26:24.000Z</time>
      </trkpt>
      <trkpt lat="43.48237" lon="5.25201">
        <ele>102</ele>
        <time>2022-10-02T08:26:25.000Z</time>
      </trkpt>
      <trkpt lat="43.48237" lon="5.25203">
        <ele>102</ele>
        <time>2022-10-02T08:26:26.000Z</time>
      </trkpt>
      <trkpt lat="43.48237" lon="5.25206">
        <ele>102</ele>
        <time>2022-10-02T08:26:27.000Z</time>
      </trkpt>
      <trkpt lat="43.48237" lon="5.25208">
        <ele>102</ele>
        <time>2022-10-02T08:26:28.000Z</time>
      </trkpt>
      <trkpt lat="43.48237" lon="5.2521">
        <ele>102</ele>
        <time>2022-10-02T08:26:29.000Z</time>
      </trkpt>
      <trkpt lat="43.48237" lon="5.25213">
        <ele>102</ele>
        <time>2022-10-02T08:26:30.000Z</time>
      </trkpt>
      <trkpt lat="43.48237" lon="5.25215">
        <ele>102</ele>
        <time>2022-10-02T08:26:31.000Z</time>
      </trkpt>
      <trkpt lat="43.48237" lon="5.25217">
        <ele>102</ele>
        <time>2022-10-02T08:26:32.000Z</time>
      </trkpt>
      <trkpt lat="43.48237" lon="5.25219">
        <ele>102</ele>
        <time>2022-10-02T08:26:33.000Z</time>
      </trkpt>
      <trkpt lat="43.48237" lon="5.25222">
        <ele>102</ele>
        <time>2022-10-02T08:26:34.000Z</time>
      </trkpt>
      <trkpt lat="43.48237" lon="5.25224">
        <ele>102</ele>
        <time>2022-10-02T08:26:35.000Z</time>
      </trkpt>
      <trkpt lat="43.48236" lon="5.25226">
        <ele>102</ele>
        <time>2022-10-02T08:26:36.000Z</time>
      </trkpt>
      <trkpt lat="43.48236" lon="5.25228">
        <ele>102</ele>
        <time>2022-10-02T08:26:37.000Z</time>
      </trkpt>
      <trkpt lat="43.48236" lon="5.2523">
        <ele>102</ele>
        <time>2022-10-02T08:26:38.000Z</time>
      </trkpt>
      <trkpt lat="43.48236" lon="5.25232">
        <ele>102</ele>
        <time>2022-10-02T08:26:39.000Z</time>
      </trkpt>
      <trkpt lat="43.48236" lon="5.25234">
        <ele>102</ele>
        <time>2022-10-02T08:26:40.000Z</time>
      </trkpt>
      <trkpt lat="43.48235" lon="5.25237">
        <ele>103</ele>
        <time>2022-10-02T08:26:41.000Z</time>
      </trkpt>
      <trkpt lat="43.48235" lon="5.25239">
        <ele>102</ele>
        <time>2022-10-02T08:26:42.000Z</time>
      </trkpt>
      <trkpt lat="43.48236" lon="5.25241">
        <ele>103</ele>
        <time>2022-10-02T08:26:43.000Z</time>
      </trkpt>
      <trkpt lat="43.48236" lon="5.25243">
        <ele>103</ele>
        <time>2022-10-02T08:26:44.000Z</time>
      </trkpt>
      <trkpt lat="43.48236" lon="5.25246">
        <ele>103</ele>
        <time>2022-10-02T08:26:45.000Z</time>
      </trkpt>
      <trkpt lat="43.48236" lon="5.25248">
        <ele>103</ele>
        <time>2022-10-02T08:26:46.000Z</time>
      </trkpt>
      <trkpt lat="43.48236" lon="5.2525">
        <ele>103</ele>
        <time>2022-10-02T08:26:47.000Z</time>
      </trkpt>
      <trkpt lat="43.48236" lon="5.25253">
        <ele>103</ele>
        <time>2022-10-02T08:26:48.000Z</time>
      </trkpt>
      <trkpt lat="43.48236" lon="5.25255">
        <ele>103</ele>
        <time>2022-10-02T08:26:49.000Z</time>
      </trkpt>
      <trkpt lat="43.48236" lon="5.25257">
        <ele>103</ele>
        <time>2022-10-02T08:26:50.000Z</time>
      </trkpt>
      <trkpt lat="43.48236" lon="5.25259">
        <ele>103</ele>
        <time>2022-10-02T08:26:51.000Z</time>
      </trkpt>
      <trkpt lat="43.48236" lon="5.25262">
        <ele>103</ele>
        <time>2022-10-02T08:26:52.000Z</time>
      </trkpt>
      <trkpt lat="43.48236" lon="5.25264">
        <ele>103</ele>
        <time>2022-10-02T08:26:53.000Z</time>
      </trkpt>
      <trkpt lat="43.48236" lon="5.25266">
        <ele>103</ele>
        <time>2022-10-02T08:26:54.000Z</time>
      </trkpt>
      <trkpt lat="43.48237" lon="5.25268">
        <ele>103</ele>
        <time>2022-10-02T08:26:55.000Z</time>
      </trkpt>
      <trkpt lat="43.48237" lon="5.2527">
        <ele>103</ele>
        <time>2022-10-02T08:26:56.000Z</time>
      </trkpt>
      <trkpt lat="43.48238" lon="5.25272">
        <ele>103</ele>
        <time>2022-10-02T08:26:57.000Z</time>
      </trkpt>
      <trkpt lat="43.48238" lon="5.25274">
        <ele>103</ele>
        <time>2022-10-02T08:26:58.000Z</time>
      </trkpt>
      <trkpt lat="43.48239" lon="5.25276">
        <ele>103</ele>
        <time>2022-10-02T08:26:59.000Z</time>
      </trkpt>
      <trkpt lat="43.48239" lon="5.25278">
        <ele>103</ele>
        <time>2022-10-02T08:27:00.000Z</time>
      </trkpt>
      <trkpt lat="43.4824" lon="5.2528">
        <ele>103</ele>
        <time>2022-10-02T08:27:01.000Z</time>
      </trkpt>
      <trkpt lat="43.4824" lon="5.25282">
        <ele>103</ele>
        <time>2022-10-02T08:27:02.000Z</time>
      </trkpt>
      <trkpt lat="43.48241" lon="5.25284">
        <ele>103</ele>
        <time>2022-10-02T08:27:03.000Z</time>
      </trkpt>
      <trkpt lat="43.48241" lon="5.25287">
        <ele>103</ele>
        <time>2022-10-02T08:27:04.000Z</time>
      </trkpt>
      <trkpt lat="43.48241" lon="5.25289">
        <ele>103</ele>
        <time>2022-10-02T08:27:05.000Z</time>
      </trkpt>
      <trkpt lat="43.48241" lon="5.25291">
        <ele>103</ele>
        <time>2022-10-02T08:27:06.000Z</time>
      </trkpt>
      <trkpt lat="43.48241" lon="5.25293">
        <ele>103</ele>
        <time>2022-10-02T08:27:07.000Z</time>
      </trkpt>
      <trkpt lat="43.4824" lon="5.25295">
        <ele>103</ele>
        <time>2022-10-02T08:27:08.000Z</time>
      </trkpt>
      <trkpt lat="43.4824" lon="5.25297">
        <ele>103</ele>
        <time>2022-10-02T08:27:09.000Z</time>
      </trkpt>
      <trkpt lat="43.4824" lon="5.25299">
        <ele>104</ele>
        <time>2022-10-02T08:27:10.000Z</time>
      </trkpt>
      <trkpt lat="43.48239" lon="5.25301">
        <ele>104</ele>
        <time>2022-10-02T08:27:11.000Z</time>
      </trkpt>
      <trkpt lat="43.48238" lon="5.25302">
        <ele>104</ele>
        <time>2022-10-02T08:27:12.000Z</time>
      </trkpt>
      <trkpt lat="43.48236" lon="5.25303">
        <ele>104</ele>
        <time>2022-10-02T08:27:13.000Z</time>
      </trkpt>
      <trkpt lat="43.48235" lon="5.25304">
        <ele>104</ele>
        <time>2022-10-02T08:27:14.000Z</time>
      </trkpt>
      <trkpt lat="43.48234" lon="5.25305">
        <ele>104</ele>
        <time>2022-10-02T08:27:15.000Z</time>
      </trkpt>
      <trkpt lat="43.48232" lon="5.25305">
        <ele>103</ele>
        <time>2022-10-02T08:27:16.000Z</time>
      </trkpt>
      <trkpt lat="43.48231" lon="5.25306">
        <ele>103</ele>
        <time>2022-10-02T08:27:17.000Z</time>
      </trkpt>
      <trkpt lat="43.48229" lon="5.25305">
        <ele>103</ele>
        <time>2022-10-02T08:27:18.000Z</time>
      </trkpt>
      <trkpt lat="43.48227" lon="5.25305">
        <ele>103</ele>
        <time>2022-10-02T08:27:19.000Z</time>
      </trkpt>
      <trkpt lat="43.48226" lon="5.25305">
        <ele>103</ele>
        <time>2022-10-02T08:27:20.000Z</time>
      </trkpt>
      <trkpt lat="43.48224" lon="5.25304">
        <ele>103</ele>
        <time>2022-10-02T08:27:21.000Z</time>
      </trkpt>
      <trkpt lat="43.48223" lon="5.25304">
        <ele>103</ele>
        <time>2022-10-02T08:27:22.000Z</time>
      </trkpt>
      <trkpt lat="43.48221" lon="5.25303">
        <ele>103</ele>
        <time>2022-10-02T08:27:23.000Z</time>
      </trkpt>
      <trkpt lat="43.4822" lon="5.25302">
        <ele>103</ele>
        <time>2022-10-02T08:27:24.000Z</time>
      </trkpt>
      <trkpt lat="43.48218" lon="5.25302">
        <ele>103</ele>
        <time>2022-10-02T08:27:25.000Z</time>
      </trkpt>
      <trkpt lat="43.48217" lon="5.25301">
        <ele>103</ele>
        <time>2022-10-02T08:27:26.000Z</time>
      </trkpt>
      <trkpt lat="43.48215" lon="5.253">
        <ele>103</ele>
        <time>2022-10-02T08:27:27.000Z</time>
      </trkpt>
      <trkpt lat="43.48213" lon="5.25298">
        <ele>102</ele>
        <time>2022-10-02T08:27:28.000Z</time>
      </trkpt>
      <trkpt lat="43.48212" lon="5.25297">
        <ele>102</ele>
        <time>2022-10-02T08:27:29.000Z</time>
      </trkpt>
      <trkpt lat="43.4821" lon="5.25296">
        <ele>102</ele>
        <time>2022-10-02T08:27:30.000Z</time>
      </trkpt>
      <trkpt lat="43.48209" lon="5.25295">
        <ele>102</ele>
        <time>2022-10-02T08:27:31.000Z</time>
      </trkpt>
      <trkpt lat="43.48207" lon="5.25293">
        <ele>102</ele>
        <time>2022-10-02T08:27:32.000Z</time>
      </trkpt>
      <trkpt lat="43.48206" lon="5.25292">
        <ele>102</ele>
        <time>2022-10-02T08:27:33.000Z</time>
      </trkpt>
      <trkpt lat="43.48204" lon="5.2529">
        <ele>102</ele>
        <time>2022-10-02T08:27:34.000Z</time>
      </trkpt>
      <trkpt lat="43.48203" lon="5.25289">
        <ele>102</ele>
        <time>2022-10-02T08:27:35.000Z</time>
      </trkpt>
      <trkpt lat="43.48202" lon="5.25288">
        <ele>102</ele>
        <time>2022-10-02T08:27:36.000Z</time>
      </trkpt>
      <trkpt lat="43.482" lon="5.25286">
        <ele>102</ele>
        <time>2022-10-02T08:27:37.000Z</time>
      </trkpt>
      <trkpt lat="43.48199" lon="5.25285">
        <ele>102</ele>
        <time>2022-10-02T08:27:38.000Z</time>
      </trkpt>
      <trkpt lat="43.48197" lon="5.25284">
        <ele>102</ele>
        <time>2022-10-02T08:27:39.000Z</time>
      </trkpt>
      <trkpt lat="43.48196" lon="5.25283">
        <ele>102</ele>
        <time>2022-10-02T08:27:40.000Z</time>
      </trkpt>
      <trkpt lat="43.48194" lon="5.25282">
        <ele>102</ele>
        <time>2022-10-02T08:27:41.000Z</time>
      </trkpt>
      <trkpt lat="43.48193" lon="5.25282">
        <ele>102</ele>
        <time>2022-10-02T08:27:42.000Z</time>
      </trkpt>
      <trkpt lat="43.48191" lon="5.25281">
        <ele>101</ele>
        <time>2022-10-02T08:27:43.000Z</time>
      </trkpt>
      <trkpt lat="43.48189" lon="5.2528">
        <ele>101</ele>
        <time>2022-10-02T08:27:44.000Z</time>
      </trkpt>
      <trkpt lat="43.48188" lon="5.25279">
        <ele>101</ele>
        <time>2022-10-02T08:27:45.000Z</time>
      </trkpt>
      <trkpt lat="43.48186" lon="5.25279">
        <ele>101</ele>
        <time>2022-10-02T08:27:46.000Z</time>
      </trkpt>
      <trkpt lat="43.48184" lon="5.25278">
        <ele>101</ele>
        <time>2022-10-02T08:27:47.000Z</time>
      </trkpt>
      <trkpt lat="43.48183" lon="5.25278">
        <ele>101</ele>
        <time>2022-10-02T08:27:48.000Z</time>
      </trkpt>
      <trkpt lat="43.48181" lon="5.25278">
        <ele>101</ele>
        <time>2022-10-02T08:27:49.000Z</time>
      </trkpt>
      <trkpt lat="43.48179" lon="5.25277">
        <ele>101</ele>
        <time>2022-10-02T08:27:50.000Z</time>
      </trkpt>
      <trkpt lat="43.48178" lon="5.25276">
        <ele>101</ele>
        <time>2022-10-02T08:27:51.000Z</time>
      </trkpt>
      <trkpt lat="43.48176" lon="5.25275">
        <ele>101</ele>
        <time>2022-10-02T08:27:52.000Z</time>
      </trkpt>
      <trkpt lat="43.48175" lon="5.25274">
        <ele>101</ele>
        <time>2022-10-02T08:27:53.000Z</time>
      </trkpt>
      <trkpt lat="43.48173" lon="5.25274">
        <ele>101</ele>
        <time>2022-10-02T08:27:54.000Z</time>
      </trkpt>
      <trkpt lat="43.48172" lon="5.25273">
        <ele>101</ele>
        <time>2022-10-02T08:27:55.000Z</time>
      </trkpt>
      <trkpt lat="43.4817" lon="5.25273">
        <ele>101</ele>
        <time>2022-10-02T08:27:56.000Z</time>
      </trkpt>
      <trkpt lat="43.48168" lon="5.25273">
        <ele>101</ele>
        <time>2022-10-02T08:27:57.000Z</time>
      </trkpt>
      <trkpt lat="43.48167" lon="5.25273">
        <ele>101</ele>
        <time>2022-10-02T08:27:58.000Z</time>
      </trkpt>
      <trkpt lat="43.48165" lon="5.25273">
        <ele>101</ele>
        <time>2022-10-02T08:27:59.000Z</time>
      </trkpt>
      <trkpt lat="43.48164" lon="5.25273">
        <ele>101</ele>
        <time>2022-10-02T08:28:00.000Z</time>
      </trkpt>
      <trkpt lat="43.48162" lon="5.25273">
        <ele>101</ele>
        <time>2022-10-02T08:28:01.000Z</time>
      </trkpt>
      <trkpt lat="43.4816" lon="5.25274">
        <ele>101</ele>
        <time>2022-10-02T08:28:02.000Z</time>
      </trkpt>
      <trkpt lat="43.48159" lon="5.25275">
        <ele>101</ele>
        <time>2022-10-02T08:28:03.000Z</time>
      </trkpt>
      <trkpt lat="43.48158" lon="5.25276">
        <ele>101</ele>
        <time>2022-10-02T08:28:04.000Z</time>
      </trkpt>
      <trkpt lat="43.48156" lon="5.25277">
        <ele>101</ele>
        <time>2022-10-02T08:28:05.000Z</time>
      </trkpt>
      <trkpt lat="43.48154" lon="5.25277">
        <ele>101</ele>
        <time>2022-10-02T08:28:06.000Z</time>
      </trkpt>
      <trkpt lat="43.48153" lon="5.25278">
        <ele>101</ele>
        <time>2022-10-02T08:28:07.000Z</time>
      </trkpt>
      <trkpt lat="43.48151" lon="5.25278">
        <ele>101</ele>
        <time>2022-10-02T08:28:08.000Z</time>
      </trkpt>
      <trkpt lat="43.48149" lon="5.25279">
        <ele>100</ele>
        <time>2022-10-02T08:28:09.000Z</time>
      </trkpt>
      <trkpt lat="43.48148" lon="5.25279">
        <ele>100</ele>
        <time>2022-10-02T08:28:10.000Z</time>
      </trkpt>
      <trkpt lat="43.48146" lon="5.2528">
        <ele>100</ele>
        <time>2022-10-02T08:28:11.000Z</time>
      </trkpt>
      <trkpt lat="43.48144" lon="5.2528">
        <ele>100</ele>
        <time>2022-10-02T08:28:12.000Z</time>
      </trkpt>
      <trkpt lat="43.48142" lon="5.25281">
        <ele>100</ele>
        <time>2022-10-02T08:28:13.000Z</time>
      </trkpt>
      <trkpt lat="43.48141" lon="5.25281">
        <ele>100</ele>
        <time>2022-10-02T08:28:14.000Z</time>
      </trkpt>
      <trkpt lat="43.48139" lon="5.25281">
        <ele>100</ele>
        <time>2022-10-02T08:28:15.000Z</time>
      </trkpt>
      <trkpt lat="43.48137" lon="5.25282">
        <ele>100</ele>
        <time>2022-10-02T08:28:16.000Z</time>
      </trkpt>
      <trkpt lat="43.48136" lon="5.25282">
        <ele>100</ele>
        <time>2022-10-02T08:28:17.000Z</time>
      </trkpt>
      <trkpt lat="43.48134" lon="5.25282">
        <ele>100</ele>
        <time>2022-10-02T08:28:18.000Z</time>
      </trkpt>
      <trkpt lat="43.48132" lon="5.25283">
        <ele>100</ele>
        <time>2022-10-02T08:28:19.000Z</time>
      </trkpt>
      <trkpt lat="43.4813" lon="5.25283">
        <ele>100</ele>
        <time>2022-10-02T08:28:20.000Z</time>
      </trkpt>
      <trkpt lat="43.48129" lon="5.25284">
        <ele>100</ele>
        <time>2022-10-02T08:28:21.000Z</time>
      </trkpt>
      <trkpt lat="43.48127" lon="5.25285">
        <ele>100</ele>
        <time>2022-10-02T08:28:22.000Z</time>
      </trkpt>
      <trkpt lat="43.48126" lon="5.25286">
        <ele>100</ele>
        <time>2022-10-02T08:28:23.000Z</time>
      </trkpt>
      <trkpt lat="43.48124" lon="5.25286">
        <ele>100</ele>
        <time>2022-10-02T08:28:24.000Z</time>
      </trkpt>
      <trkpt lat="43.48122" lon="5.25287">
        <ele>100</ele>
        <time>2022-10-02T08:28:25.000Z</time>
      </trkpt>
      <trkpt lat="43.48121" lon="5.25288">
        <ele>100</ele>
        <time>2022-10-02T08:28:26.000Z</time>
      </trkpt>
      <trkpt lat="43.48119" lon="5.25289">
        <ele>100</ele>
        <time>2022-10-02T08:28:27.000Z</time>
      </trkpt>
      <trkpt lat="43.48118" lon="5.25291">
        <ele>100</ele>
        <time>2022-10-02T08:28:28.000Z</time>
      </trkpt>
      <trkpt lat="43.48116" lon="5.25292">
        <ele>100</ele>
        <time>2022-10-02T08:28:29.000Z</time>
      </trkpt>
      <trkpt lat="43.48115" lon="5.25293">
        <ele>100</ele>
        <time>2022-10-02T08:28:30.000Z</time>
      </trkpt>
      <trkpt lat="43.48114" lon="5.25294">
        <ele>100</ele>
        <time>2022-10-02T08:28:31.000Z</time>
      </trkpt>
      <trkpt lat="43.48112" lon="5.25295">
        <ele>100</ele>
        <time>2022-10-02T08:28:32.000Z</time>
      </trkpt>
      <trkpt lat="43.48111" lon="5.25295">
        <ele>100</ele>
        <time>2022-10-02T08:28:33.000Z</time>
      </trkpt>
      <trkpt lat="43.48109" lon="5.25296">
        <ele>100</ele>
        <time>2022-10-02T08:28:34.000Z</time>
      </trkpt>
      <trkpt lat="43.48107" lon="5.25297">
        <ele>100</ele>
        <time>2022-10-02T08:28:35.000Z</time>
      </trkpt>
      <trkpt lat="43.48106" lon="5.25297">
        <ele>100</ele>
        <time>2022-10-02T08:28:36.000Z</time>
      </trkpt>
      <trkpt lat="43.48104" lon="5.25297">
        <ele>100</ele>
        <time>2022-10-02T08:28:37.000Z</time>
      </trkpt>
      <trkpt lat="43.48103" lon="5.25297">
        <ele>100</ele>
        <time>2022-10-02T08:28:38.000Z</time>
      </trkpt>
      <trkpt lat="43.48101" lon="5.25297">
        <ele>100</ele>
        <time>2022-10-02T08:28:39.000Z</time>
      </trkpt>
      <trkpt lat="43.481" lon="5.25296">
        <ele>100</ele>
        <time>2022-10-02T08:28:40.000Z</time>
      </trkpt>
      <trkpt lat="43.48098" lon="5.25295">
        <ele>100</ele>
        <time>2022-10-02T08:28:41.000Z</time>
      </trkpt>
      <trkpt lat="43.48097" lon="5.25294">
        <ele>100</ele>
        <time>2022-10-02T08:28:42.000Z</time>
      </trkpt>
      <trkpt lat="43.48096" lon="5.25293">
        <ele>100</ele>
        <time>2022-10-02T08:28:43.000Z</time>
      </trkpt>
      <trkpt lat="43.48095" lon="5.25291">
        <ele>100</ele>
        <time>2022-10-02T08:28:44.000Z</time>
      </trkpt>
      <trkpt lat="43.48094" lon="5.2529">
        <ele>100</ele>
        <time>2022-10-02T08:28:45.000Z</time>
      </trkpt>
      <trkpt lat="43.48093" lon="5.25288">
        <ele>100</ele>
        <time>2022-10-02T08:28:46.000Z</time>
      </trkpt>
      <trkpt lat="43.48092" lon="5.25287">
        <ele>100</ele>
        <time>2022-10-02T08:28:47.000Z</time>
      </trkpt>
      <trkpt lat="43.48091" lon="5.25285">
        <ele>100</ele>
        <time>2022-10-02T08:28:48.000Z</time>
      </trkpt>
      <trkpt lat="43.48091" lon="5.25284">
        <ele>100</ele>
        <time>2022-10-02T08:28:49.000Z</time>
      </trkpt>
      <trkpt lat="43.4809" lon="5.25282">
        <ele>101</ele>
        <time>2022-10-02T08:28:50.000Z</time>
      </trkpt>
      <trkpt lat="43.48089" lon="5.2528">
        <ele>101</ele>
        <time>2022-10-02T08:28:51.000Z</time>
      </trkpt>
      <trkpt lat="43.48088" lon="5.25279">
        <ele>101</ele>
        <time>2022-10-02T08:28:52.000Z</time>
      </trkpt>
      <trkpt lat="43.48087" lon="5.25277">
        <ele>101</ele>
        <time>2022-10-02T08:28:53.000Z</time>
      </trkpt>
      <trkpt lat="43.48086" lon="5.25275">
        <ele>101</ele>
        <time>2022-10-02T08:28:54.000Z</time>
      </trkpt>
      <trkpt lat="43.48086" lon="5.25273">
        <ele>101</ele>
        <time>2022-10-02T08:28:55.000Z</time>
      </trkpt>
      <trkpt lat="43.48085" lon="5.25271">
        <ele>101</ele>
        <time>2022-10-02T08:28:56.000Z</time>
      </trkpt>
      <trkpt lat="43.48084" lon="5.25269">
        <ele>101</ele>
        <time>2022-10-02T08:28:57.000Z</time>
      </trkpt>
      <trkpt lat="43.48083" lon="5.25267">
        <ele>101</ele>
        <time>2022-10-02T08:28:58.000Z</time>
      </trkpt>
      <trkpt lat="43.48082" lon="5.25265">
        <ele>101</ele>
        <time>2022-10-02T08:28:59.000Z</time>
      </trkpt>
      <trkpt lat="43.48082" lon="5.25263">
        <ele>101</ele>
        <time>2022-10-02T08:29:00.000Z</time>
      </trkpt>
      <trkpt lat="43.48081" lon="5.2526">
        <ele>101</ele>
        <time>2022-10-02T08:29:01.000Z</time>
      </trkpt>
      <trkpt lat="43.48081" lon="5.25258">
        <ele>101</ele>
        <time>2022-10-02T08:29:02.000Z</time>
      </trkpt>
      <trkpt lat="43.48081" lon="5.25255">
        <ele>101</ele>
        <time>2022-10-02T08:29:03.000Z</time>
      </trkpt>
      <trkpt lat="43.48082" lon="5.25253">
        <ele>101</ele>
        <time>2022-10-02T08:29:04.000Z</time>
      </trkpt>
      <trkpt lat="43.48082" lon="5.25251">
        <ele>101</ele>
        <time>2022-10-02T08:29:05.000Z</time>
      </trkpt>
      <trkpt lat="43.48083" lon="5.25249">
        <ele>101</ele>
        <time>2022-10-02T08:29:06.000Z</time>
      </trkpt>
      <trkpt lat="43.48084" lon="5.25247">
        <ele>101</ele>
        <time>2022-10-02T08:29:07.000Z</time>
      </trkpt>
      <trkpt lat="43.48085" lon="5.25245">
        <ele>101</ele>
        <time>2022-10-02T08:29:08.000Z</time>
      </trkpt>
      <trkpt lat="43.48086" lon="5.25243">
        <ele>101</ele>
        <time>2022-10-02T08:29:09.000Z</time>
      </trkpt>
      <trkpt lat="43.48087" lon="5.25242">
        <ele>101</ele>
        <time>2022-10-02T08:29:10.000Z</time>
      </trkpt>
      <trkpt lat="43.48088" lon="5.2524">
        <ele>101</ele>
        <time>2022-10-02T08:29:11.000Z</time>
      </trkpt>
      <trkpt lat="43.48089" lon="5.25239">
        <ele>101</ele>
        <time>2022-10-02T08:29:12.000Z</time>
      </trkpt>
      <trkpt lat="43.4809" lon="5.25237">
        <ele>101</ele>
        <time>2022-10-02T08:29:13.000Z</time>
      </trkpt>
      <trkpt lat="43.48091" lon="5.25236">
        <ele>101</ele>
        <time>2022-10-02T08:29:14.000Z</time>
      </trkpt>
      <trkpt lat="43.48093" lon="5.25234">
        <ele>101</ele>
        <time>2022-10-02T08:29:15.000Z</time>
      </trkpt>
      <trkpt lat="43.48093" lon="5.25232">
        <ele>101</ele>
        <time>2022-10-02T08:29:16.000Z</time>
      </trkpt>
      <trkpt lat="43.48094" lon="5.25231">
        <ele>101</ele>
        <time>2022-10-02T08:29:17.000Z</time>
      </trkpt>
      <trkpt lat="43.48095" lon="5.25229">
        <ele>101</ele>
        <time>2022-10-02T08:29:18.000Z</time>
      </trkpt>
      <trkpt lat="43.48097" lon="5.25227">
        <ele>101</ele>
        <time>2022-10-02T08:29:19.000Z</time>
      </trkpt>
      <trkpt lat="43.48098" lon="5.25226">
        <ele>101</ele>
        <time>2022-10-02T08:29:20.000Z</time>
      </trkpt>
      <trkpt lat="43.48099" lon="5.25224">
        <ele>101</ele>
        <time>2022-10-02T08:29:21.000Z</time>
      </trkpt>
      <trkpt lat="43.481" lon="5.25223">
        <ele>101</ele>
        <time>2022-10-02T08:29:22.000Z</time>
      </trkpt>
      <trkpt lat="43.48102" lon="5.25222">
        <ele>101</ele>
        <time>2022-10-02T08:29:23.000Z</time>
      </trkpt>
      <trkpt lat="43.48103" lon="5.25221">
        <ele>101</ele>
        <time>2022-10-02T08:29:24.000Z</time>
      </trkpt>
      <trkpt lat="43.48104" lon="5.25219">
        <ele>101</ele>
        <time>2022-10-02T08:29:25.000Z</time>
      </trkpt>
      <trkpt lat="43.48106" lon="5.25218">
        <ele>101</ele>
        <time>2022-10-02T08:29:26.000Z</time>
      </trkpt>
      <trkpt lat="43.48107" lon="5.25217">
        <ele>101</ele>
        <time>2022-10-02T08:29:27.000Z</time>
      </trkpt>
      <trkpt lat="43.48108" lon="5.25215">
        <ele>101</ele>
        <time>2022-10-02T08:29:28.000Z</time>
      </trkpt>
      <trkpt lat="43.4811" lon="5.25214">
        <ele>101</ele>
        <time>2022-10-02T08:29:29.000Z</time>
      </trkpt>
      <trkpt lat="43.48111" lon="5.25213">
        <ele>101</ele>
        <time>2022-10-02T08:29:30.000Z</time>
      </trkpt>
      <trkpt lat="43.48112" lon="5.25212">
        <ele>101</ele>
        <time>2022-10-02T08:29:31.000Z</time>
      </trkpt>
      <trkpt lat="43.48114" lon="5.25211">
        <ele>101</ele>
        <time>2022-10-02T08:29:32.000Z</time>
      </trkpt>
      <trkpt lat="43.48115" lon="5.2521">
        <ele>101</ele>
        <time>2022-10-02T08:29:33.000Z</time>
      </trkpt>
      <trkpt lat="43.48116" lon="5.25209">
        <ele>101</ele>
        <time>2022-10-02T08:29:34.000Z</time>
      </trkpt>
      <trkpt lat="43.48118" lon="5.25208">
        <ele>102</ele>
        <time>2022-10-02T08:29:35.000Z</time>
      </trkpt>
      <trkpt lat="43.48119" lon="5.25206">
        <ele>102</ele>
        <time>2022-10-02T08:29:36.000Z</time>
      </trkpt>
      <trkpt lat="43.4812" lon="5.25205">
        <ele>102</ele>
        <time>2022-10-02T08:29:37.000Z</time>
      </trkpt>
      <trkpt lat="43.48121" lon="5.25203">
        <ele>102</ele>
        <time>2022-10-02T08:29:38.000Z</time>
      </trkpt>
      <trkpt lat="43.48122" lon="5.25202">
        <ele>102</ele>
        <time>2022-10-02T08:29:39.000Z</time>
      </trkpt>
      <trkpt lat="43.48123" lon="5.252">
        <ele>102</ele>
        <time>2022-10-02T08:29:40.000Z</time>
      </trkpt>
      <trkpt lat="43.48124" lon="5.25198">
        <ele>102</ele>
        <time>2022-10-02T08:29:41.000Z</time>
      </trkpt>
      <trkpt lat="43.48124" lon="5.25196">
        <ele>102</ele>
        <time>2022-10-02T08:29:42.000Z</time>
      </trkpt>
      <trkpt lat="43.48125" lon="5.25194">
        <ele>102</ele>
        <time>2022-10-02T08:29:43.000Z</time>
      </trkpt>
      <trkpt lat="43.48125" lon="5.25192">
        <ele>102</ele>
        <time>2022-10-02T08:29:44.000Z</time>
      </trkpt>
      <trkpt lat="43.48125" lon="5.2519">
        <ele>102</ele>
        <time>2022-10-02T08:29:45.000Z</time>
      </trkpt>
      <trkpt lat="43.48126" lon="5.25188">
        <ele>102</ele>
        <time>2022-10-02T08:29:46.000Z</time>
      </trkpt>
      <trkpt lat="43.48126" lon="5.25186">
        <ele>102</ele>
        <time>2022-10-02T08:29:47.000Z</time>
      </trkpt>
      <trkpt lat="43.48127" lon="5.25184">
        <ele>102</ele>
        <time>2022-10-02T08:29:48.000Z</time>
      </trkpt>
      <trkpt lat="43.48127" lon="5.25183">
        <ele>102</ele>
        <time>2022-10-02T08:29:49.000Z</time>
      </trkpt>
      <trkpt lat="43.48128" lon="5.25181">
        <ele>102</ele>
        <time>2022-10-02T08:29:50.000Z</time>
      </trkpt>
      <trkpt lat="43.48129" lon="5.25179">
        <ele>102</ele>
        <time>2022-10-02T08:29:51.000Z</time>
      </trkpt>
      <trkpt lat="43.48129" lon="5.25177">
        <ele>102</ele>
        <time>2022-10-02T08:29:52.000Z</time>
      </trkpt>
      <trkpt lat="43.4813" lon="5.25176">
        <ele>102</ele>
        <time>2022-10-02T08:29:53.000Z</time>
      </trkpt>
      <trkpt lat="43.4813" lon="5.25174">
        <ele>102</ele>
        <time>2022-10-02T08:29:54.000Z</time>
      </trkpt>
      <trkpt lat="43.48131" lon="5.25172">
        <ele>102</ele>
        <time>2022-10-02T08:29:55.000Z</time>
      </trkpt>
      <trkpt lat="43.48131" lon="5.2517">
        <ele>103</ele>
        <time>2022-10-02T08:29:56.000Z</time>
      </trkpt>
      <trkpt lat="43.48131" lon="5.25167">
        <ele>103</ele>
        <time>2022-10-02T08:29:57.000Z</time>
      </trkpt>
      <trkpt lat="43.48132" lon="5.25165">
        <ele>103</ele>
        <time>2022-10-02T08:29:58.000Z</time>
      </trkpt>
      <trkpt lat="43.48132" lon="5.25163">
        <ele>103</ele>
        <time>2022-10-02T08:29:59.000Z</time>
      </trkpt>
      <trkpt lat="43.48132" lon="5.25161">
        <ele>103</ele>
        <time>2022-10-02T08:30:00.000Z</time>
      </trkpt>
      <trkpt lat="43.48133" lon="5.25159">
        <ele>103</ele>
        <time>2022-10-02T08:30:01.000Z</time>
      </trkpt>
      <trkpt lat="43.48133" lon="5.25158">
        <ele>103</ele>
        <time>2022-10-02T08:30:02.000Z</time>
      </trkpt>
      <trkpt lat="43.48134" lon="5.25156">
        <ele>104</ele>
        <time>2022-10-02T08:30:03.000Z</time>
      </trkpt>
      <trkpt lat="43.48134" lon="5.25154">
        <ele>104</ele>
        <time>2022-10-02T08:30:04.000Z</time>
      </trkpt>
      <trkpt lat="43.48135" lon="5.25152">
        <ele>104</ele>
        <time>2022-10-02T08:30:05.000Z</time>
      </trkpt>
      <trkpt lat="43.48135" lon="5.2515">
        <ele>104</ele>
        <time>2022-10-02T08:30:06.000Z</time>
      </trkpt>
      <trkpt lat="43.48135" lon="5.25148">
        <ele>104</ele>
        <time>2022-10-02T08:30:07.000Z</time>
      </trkpt>
      <trkpt lat="43.48135" lon="5.25146">
        <ele>104</ele>
        <time>2022-10-02T08:30:08.000Z</time>
      </trkpt>
      <trkpt lat="43.48135" lon="5.25145">
        <ele>104</ele>
        <time>2022-10-02T08:30:09.000Z</time>
      </trkpt>
      <trkpt lat="43.48135" lon="5.25143">
        <ele>104</ele>
        <time>2022-10-02T08:30:10.000Z</time>
      </trkpt>
      <trkpt lat="43.48135" lon="5.2514">
        <ele>104</ele>
        <time>2022-10-02T08:30:11.000Z</time>
      </trkpt>
      <trkpt lat="43.48134" lon="5.25138">
        <ele>104</ele>
        <time>2022-10-02T08:30:12.000Z</time>
      </trkpt>
      <trkpt lat="43.48134" lon="5.25136">
        <ele>104</ele>
        <time>2022-10-02T08:30:13.000Z</time>
      </trkpt>
      <trkpt lat="43.48134" lon="5.25135">
        <ele>104</ele>
        <time>2022-10-02T08:30:14.000Z</time>
      </trkpt>
      <trkpt lat="43.48134" lon="5.25133">
        <ele>104</ele>
        <time>2022-10-02T08:30:15.000Z</time>
      </trkpt>
      <trkpt lat="43.48133" lon="5.2513">
        <ele>105</ele>
        <time>2022-10-02T08:30:16.000Z</time>
      </trkpt>
      <trkpt lat="43.48133" lon="5.25128">
        <ele>105</ele>
        <time>2022-10-02T08:30:17.000Z</time>
      </trkpt>
      <trkpt lat="43.48133" lon="5.25126">
        <ele>105</ele>
        <time>2022-10-02T08:30:18.000Z</time>
      </trkpt>
      <trkpt lat="43.48133" lon="5.25124">
        <ele>105</ele>
        <time>2022-10-02T08:30:19.000Z</time>
      </trkpt>
      <trkpt lat="43.48133" lon="5.25122">
        <ele>105</ele>
        <time>2022-10-02T08:30:20.000Z</time>
      </trkpt>
      <trkpt lat="43.48133" lon="5.2512">
        <ele>105</ele>
        <time>2022-10-02T08:30:21.000Z</time>
      </trkpt>
      <trkpt lat="43.48133" lon="5.25118">
        <ele>105</ele>
        <time>2022-10-02T08:30:22.000Z</time>
      </trkpt>
      <trkpt lat="43.48132" lon="5.25116">
        <ele>106</ele>
        <time>2022-10-02T08:30:23.000Z</time>
      </trkpt>
      <trkpt lat="43.48132" lon="5.25115">
        <ele>106</ele>
        <time>2022-10-02T08:30:24.000Z</time>
      </trkpt>
      <trkpt lat="43.48131" lon="5.25113">
        <ele>106</ele>
        <time>2022-10-02T08:30:25.000Z</time>
      </trkpt>
      <trkpt lat="43.48131" lon="5.25112">
        <ele>106</ele>
        <time>2022-10-02T08:30:26.000Z</time>
      </trkpt>
      <trkpt lat="43.4813" lon="5.2511">
        <ele>106</ele>
        <time>2022-10-02T08:30:27.000Z</time>
      </trkpt>
      <trkpt lat="43.4813" lon="5.25108">
        <ele>107</ele>
        <time>2022-10-02T08:30:28.000Z</time>
      </trkpt>
      <trkpt lat="43.48129" lon="5.25107">
        <ele>107</ele>
        <time>2022-10-02T08:30:29.000Z</time>
      </trkpt>
      <trkpt lat="43.48129" lon="5.25105">
        <ele>107</ele>
        <time>2022-10-02T08:30:30.000Z</time>
      </trkpt>
      <trkpt lat="43.48128" lon="5.25103">
        <ele>107</ele>
        <time>2022-10-02T08:30:31.000Z</time>
      </trkpt>
      <trkpt lat="43.48128" lon="5.25101">
        <ele>107</ele>
        <time>2022-10-02T08:30:32.000Z</time>
      </trkpt>
      <trkpt lat="43.48127" lon="5.251">
        <ele>107</ele>
        <time>2022-10-02T08:30:33.000Z</time>
      </trkpt>
      <trkpt lat="43.48127" lon="5.25098">
        <ele>107</ele>
        <time>2022-10-02T08:30:34.000Z</time>
      </trkpt>
      <trkpt lat="43.48126" lon="5.25097">
        <ele>108</ele>
        <time>2022-10-02T08:30:35.000Z</time>
      </trkpt>
      <trkpt lat="43.48126" lon="5.25095">
        <ele>108</ele>
        <time>2022-10-02T08:30:36.000Z</time>
      </trkpt>
      <trkpt lat="43.48125" lon="5.25093">
        <ele>108</ele>
        <time>2022-10-02T08:30:37.000Z</time>
      </trkpt>
      <trkpt lat="43.48124" lon="5.25091">
        <ele>108</ele>
        <time>2022-10-02T08:30:38.000Z</time>
      </trkpt>
      <trkpt lat="43.48123" lon="5.2509">
        <ele>108</ele>
        <time>2022-10-02T08:30:39.000Z</time>
      </trkpt>
      <trkpt lat="43.48122" lon="5.25088">
        <ele>108</ele>
        <time>2022-10-02T08:30:40.000Z</time>
      </trkpt>
      <trkpt lat="43.48121" lon="5.25087">
        <ele>109</ele>
        <time>2022-10-02T08:30:41.000Z</time>
      </trkpt>
      <trkpt lat="43.4812" lon="5.25085">
        <ele>109</ele>
        <time>2022-10-02T08:30:42.000Z</time>
      </trkpt>
      <trkpt lat="43.48119" lon="5.25084">
        <ele>109</ele>
        <time>2022-10-02T08:30:43.000Z</time>
      </trkpt>
      <trkpt lat="43.48118" lon="5.25082">
        <ele>109</ele>
        <time>2022-10-02T08:30:44.000Z</time>
      </trkpt>
      <trkpt lat="43.48117" lon="5.25081">
        <ele>109</ele>
        <time>2022-10-02T08:30:45.000Z</time>
      </trkpt>
      <trkpt lat="43.48116" lon="5.2508">
        <ele>109</ele>
        <time>2022-10-02T08:30:46.000Z</time>
      </trkpt>
      <trkpt lat="43.48114" lon="5.25079">
        <ele>109</ele>
        <time>2022-10-02T08:30:47.000Z</time>
      </trkpt>
      <trkpt lat="43.48113" lon="5.25078">
        <ele>110</ele>
        <time>2022-10-02T08:30:48.000Z</time>
      </trkpt>
      <trkpt lat="43.48112" lon="5.25077">
        <ele>110</ele>
        <time>2022-10-02T08:30:49.000Z</time>
      </trkpt>
      <trkpt lat="43.48111" lon="5.25076">
        <ele>110</ele>
        <time>2022-10-02T08:30:50.000Z</time>
      </trkpt>
      <trkpt lat="43.48109" lon="5.25075">
        <ele>110</ele>
        <time>2022-10-02T08:30:51.000Z</time>
      </trkpt>
      <trkpt lat="43.48108" lon="5.25075">
        <ele>110</ele>
        <time>2022-10-02T08:30:52.000Z</time>
      </trkpt>
      <trkpt lat="43.48107" lon="5.25075">
        <ele>110</ele>
        <time>2022-10-02T08:30:53.000Z</time>
      </trkpt>
      <trkpt lat="43.48105" lon="5.25074">
        <ele>110</ele>
        <time>2022-10-02T08:30:54.000Z</time>
      </trkpt>
      <trkpt lat="43.48104" lon="5.25074">
        <ele>110</ele>
        <time>2022-10-02T08:30:55.000Z</time>
      </trkpt>
      <trkpt lat="43.48103" lon="5.25074">
        <ele>110</ele>
        <time>2022-10-02T08:30:56.000Z</time>
      </trkpt>
      <trkpt lat="43.48101" lon="5.25074">
        <ele>110</ele>
        <time>2022-10-02T08:30:57.000Z</time>
      </trkpt>
      <trkpt lat="43.481" lon="5.25073">
        <ele>110</ele>
        <time>2022-10-02T08:30:58.000Z</time>
      </trkpt>
      <trkpt lat="43.48098" lon="5.25073">
        <ele>110</ele>
        <time>2022-10-02T08:30:59.000Z</time>
      </trkpt>
      <trkpt lat="43.48097" lon="5.25072">
        <ele>110</ele>
        <time>2022-10-02T08:31:00.000Z</time>
      </trkpt>
      <trkpt lat="43.48096" lon="5.25072">
        <ele>110</ele>
        <time>2022-10-02T08:31:01.000Z</time>
      </trkpt>
      <trkpt lat="43.48095" lon="5.25072">
        <ele>110</ele>
        <time>2022-10-02T08:31:02.000Z</time>
      </trkpt>
      <trkpt lat="43.48093" lon="5.25072">
        <ele>110</ele>
        <time>2022-10-02T08:31:03.000Z</time>
      </trkpt>
      <trkpt lat="43.48092" lon="5.25071">
        <ele>110</ele>
        <time>2022-10-02T08:31:04.000Z</time>
      </trkpt>
      <trkpt lat="43.48091" lon="5.25071">
        <ele>111</ele>
        <time>2022-10-02T08:31:05.000Z</time>
      </trkpt>
      <trkpt lat="43.48089" lon="5.2507">
        <ele>111</ele>
        <time>2022-10-02T08:31:06.000Z</time>
      </trkpt>
      <trkpt lat="43.48088" lon="5.25069">
        <ele>111</ele>
        <time>2022-10-02T08:31:07.000Z</time>
      </trkpt>
      <trkpt lat="43.48087" lon="5.25068">
        <ele>111</ele>
        <time>2022-10-02T08:31:08.000Z</time>
      </trkpt>
      <trkpt lat="43.48085" lon="5.25067">
        <ele>111</ele>
        <time>2022-10-02T08:31:09.000Z</time>
      </trkpt>
      <trkpt lat="43.48084" lon="5.25067">
        <ele>111</ele>
        <time>2022-10-02T08:31:10.000Z</time>
      </trkpt>
      <trkpt lat="43.48083" lon="5.25065">
        <ele>111</ele>
        <time>2022-10-02T08:31:11.000Z</time>
      </trkpt>
      <trkpt lat="43.48081" lon="5.25064">
        <ele>111</ele>
        <time>2022-10-02T08:31:12.000Z</time>
      </trkpt>
      <trkpt lat="43.4808" lon="5.25063">
        <ele>111</ele>
        <time>2022-10-02T08:31:13.000Z</time>
      </trkpt>
      <trkpt lat="43.48079" lon="5.25061">
        <ele>111</ele>
        <time>2022-10-02T08:31:14.000Z</time>
      </trkpt>
      <trkpt lat="43.48078" lon="5.2506">
        <ele>111</ele>
        <time>2022-10-02T08:31:15.000Z</time>
      </trkpt>
      <trkpt lat="43.48077" lon="5.25058">
        <ele>111</ele>
        <time>2022-10-02T08:31:16.000Z</time>
      </trkpt>
      <trkpt lat="43.48076" lon="5.25056">
        <ele>111</ele>
        <time>2022-10-02T08:31:17.000Z</time>
      </trkpt>
      <trkpt lat="43.48076" lon="5.25054">
        <ele>111</ele>
        <time>2022-10-02T08:31:18.000Z</time>
      </trkpt>
      <trkpt lat="43.48075" lon="5.25052">
        <ele>111</ele>
        <time>2022-10-02T08:31:19.000Z</time>
      </trkpt>
      <trkpt lat="43.48075" lon="5.25051">
        <ele>111</ele>
        <time>2022-10-02T08:31:20.000Z</time>
      </trkpt>
      <trkpt lat="43.48075" lon="5.25049">
        <ele>112</ele>
        <time>2022-10-02T08:31:21.000Z</time>
      </trkpt>
      <trkpt lat="43.48075" lon="5.25046">
        <ele>112</ele>
        <time>2022-10-02T08:31:22.000Z</time>
      </trkpt>
      <trkpt lat="43.48075" lon="5.25044">
        <ele>112</ele>
        <time>2022-10-02T08:31:23.000Z</time>
      </trkpt>
      <trkpt lat="43.48075" lon="5.25042">
        <ele>112</ele>
        <time>2022-10-02T08:31:24.000Z</time>
      </trkpt>
      <trkpt lat="43.48075" lon="5.2504">
        <ele>112</ele>
        <time>2022-10-02T08:31:25.000Z</time>
      </trkpt>
      <trkpt lat="43.48076" lon="5.25038">
        <ele>112</ele>
        <time>2022-10-02T08:31:26.000Z</time>
      </trkpt>
      <trkpt lat="43.48076" lon="5.25036">
        <ele>112</ele>
        <time>2022-10-02T08:31:27.000Z</time>
      </trkpt>
      <trkpt lat="43.48076" lon="5.25034">
        <ele>112</ele>
        <time>2022-10-02T08:31:28.000Z</time>
      </trkpt>
      <trkpt lat="43.48076" lon="5.25032">
        <ele>112</ele>
        <time>2022-10-02T08:31:29.000Z</time>
      </trkpt>
      <trkpt lat="43.48076" lon="5.2503">
        <ele>112</ele>
        <time>2022-10-02T08:31:30.000Z</time>
      </trkpt>
      <trkpt lat="43.48076" lon="5.25028">
        <ele>112</ele>
        <time>2022-10-02T08:31:31.000Z</time>
      </trkpt>
      <trkpt lat="43.48076" lon="5.25026">
        <ele>112</ele>
        <time>2022-10-02T08:31:32.000Z</time>
      </trkpt>
      <trkpt lat="43.48076" lon="5.25024">
        <ele>112</ele>
        <time>2022-10-02T08:31:33.000Z</time>
      </trkpt>
      <trkpt lat="43.48076" lon="5.25022">
        <ele>112</ele>
        <time>2022-10-02T08:31:34.000Z</time>
      </trkpt>
      <trkpt lat="43.48076" lon="5.2502">
        <ele>112</ele>
        <time>2022-10-02T08:31:35.000Z</time>
      </trkpt>
      <trkpt lat="43.48076" lon="5.25018">
        <ele>112</ele>
        <time>2022-10-02T08:31:36.000Z</time>
      </trkpt>
      <trkpt lat="43.48076" lon="5.25016">
        <ele>112</ele>
        <time>2022-10-02T08:31:37.000Z</time>
      </trkpt>
      <trkpt lat="43.48076" lon="5.25014">
        <ele>112</ele>
        <time>2022-10-02T08:31:38.000Z</time>
      </trkpt>
      <trkpt lat="43.48076" lon="5.25012">
        <ele>112</ele>
        <time>2022-10-02T08:31:39.000Z</time>
      </trkpt>
      <trkpt lat="43.48076" lon="5.25009">
        <ele>112</ele>
        <time>2022-10-02T08:31:40.000Z</time>
      </trkpt>
      <trkpt lat="43.48076" lon="5.25007">
        <ele>112</ele>
        <time>2022-10-02T08:31:41.000Z</time>
      </trkpt>
      <trkpt lat="43.48076" lon="5.25005">
        <ele>112</ele>
        <time>2022-10-02T08:31:42.000Z</time>
      </trkpt>
      <trkpt lat="43.48077" lon="5.25003">
        <ele>113</ele>
        <time>2022-10-02T08:31:43.000Z</time>
      </trkpt>
      <trkpt lat="43.48077" lon="5.25001">
        <ele>113</ele>
        <time>2022-10-02T08:31:44.000Z</time>
      </trkpt>
      <trkpt lat="43.48077" lon="5.24999">
        <ele>113</ele>
        <time>2022-10-02T08:31:45.000Z</time>
      </trkpt>
      <trkpt lat="43.48077" lon="5.24997">
        <ele>113</ele>
        <time>2022-10-02T08:31:46.000Z</time>
      </trkpt>
      <trkpt lat="43.48078" lon="5.24995">
        <ele>113</ele>
        <time>2022-10-02T08:31:47.000Z</time>
      </trkpt>
      <trkpt lat="43.48078" lon="5.24993">
        <ele>113</ele>
        <time>2022-10-02T08:31:48.000Z</time>
      </trkpt>
      <trkpt lat="43.48078" lon="5.24991">
        <ele>113</ele>
        <time>2022-10-02T08:31:49.000Z</time>
      </trkpt>
      <trkpt lat="43.48078" lon="5.24989">
        <ele>113</ele>
        <time>2022-10-02T08:31:50.000Z</time>
      </trkpt>
      <trkpt lat="43.48078" lon="5.24986">
        <ele>113</ele>
        <time>2022-10-02T08:31:51.000Z</time>
      </trkpt>
      <trkpt lat="43.48078" lon="5.24984">
        <ele>113</ele>
        <time>2022-10-02T08:31:52.000Z</time>
      </trkpt>
      <trkpt lat="43.48078" lon="5.24982">
        <ele>113</ele>
        <time>2022-10-02T08:31:53.000Z</time>
      </trkpt>
      <trkpt lat="43.48077" lon="5.2498">
        <ele>113</ele>
        <time>2022-10-02T08:31:54.000Z</time>
      </trkpt>
      <trkpt lat="43.48077" lon="5.24978">
        <ele>114</ele>
        <time>2022-10-02T08:31:55.000Z</time>
      </trkpt>
      <trkpt lat="43.48076" lon="5.24976">
        <ele>114</ele>
        <time>2022-10-02T08:31:56.000Z</time>
      </trkpt>
      <trkpt lat="43.48075" lon="5.24974">
        <ele>114</ele>
        <time>2022-10-02T08:31:57.000Z</time>
      </trkpt>
      <trkpt lat="43.48075" lon="5.24973">
        <ele>114</ele>
        <time>2022-10-02T08:31:58.000Z</time>
      </trkpt>
      <trkpt lat="43.48074" lon="5.24971">
        <ele>114</ele>
        <time>2022-10-02T08:31:59.000Z</time>
      </trkpt>
      <trkpt lat="43.48073" lon="5.24969">
        <ele>114</ele>
        <time>2022-10-02T08:32:00.000Z</time>
      </trkpt>
      <trkpt lat="43.48072" lon="5.24968">
        <ele>114</ele>
        <time>2022-10-02T08:32:01.000Z</time>
      </trkpt>
      <trkpt lat="43.48071" lon="5.24967">
        <ele>114</ele>
        <time>2022-10-02T08:32:02.000Z</time>
      </trkpt>
      <trkpt lat="43.4807" lon="5.24965">
        <ele>114</ele>
        <time>2022-10-02T08:32:03.000Z</time>
      </trkpt>
      <trkpt lat="43.48068" lon="5.24964">
        <ele>114</ele>
        <time>2022-10-02T08:32:04.000Z</time>
      </trkpt>
      <trkpt lat="43.48067" lon="5.24963">
        <ele>114</ele>
        <time>2022-10-02T08:32:05.000Z</time>
      </trkpt>
      <trkpt lat="43.48066" lon="5.24962">
        <ele>114</ele>
        <time>2022-10-02T08:32:06.000Z</time>
      </trkpt>
      <trkpt lat="43.48064" lon="5.24961">
        <ele>114</ele>
        <time>2022-10-02T08:32:07.000Z</time>
      </trkpt>
      <trkpt lat="43.48062" lon="5.2496">
        <ele>113</ele>
        <time>2022-10-02T08:32:08.000Z</time>
      </trkpt>
      <trkpt lat="43.48061" lon="5.2496">
        <ele>113</ele>
        <time>2022-10-02T08:32:09.000Z</time>
      </trkpt>
      <trkpt lat="43.4806" lon="5.24959">
        <ele>113</ele>
        <time>2022-10-02T08:32:10.000Z</time>
      </trkpt>
      <trkpt lat="43.48058" lon="5.24958">
        <ele>113</ele>
        <time>2022-10-02T08:32:11.000Z</time>
      </trkpt>
      <trkpt lat="43.48057" lon="5.24958">
        <ele>113</ele>
        <time>2022-10-02T08:32:12.000Z</time>
      </trkpt>
      <trkpt lat="43.48055" lon="5.24957">
        <ele>113</ele>
        <time>2022-10-02T08:32:13.000Z</time>
      </trkpt>
      <trkpt lat="43.48054" lon="5.24957">
        <ele>113</ele>
        <time>2022-10-02T08:32:14.000Z</time>
      </trkpt>
      <trkpt lat="43.48052" lon="5.24957">
        <ele>113</ele>
        <time>2022-10-02T08:32:15.000Z</time>
      </trkpt>
      <trkpt lat="43.48051" lon="5.24957">
        <ele>113</ele>
        <time>2022-10-02T08:32:16.000Z</time>
      </trkpt>
      <trkpt lat="43.48049" lon="5.24957">
        <ele>113</ele>
        <time>2022-10-02T08:32:17.000Z</time>
      </trkpt>
      <trkpt lat="43.48048" lon="5.24957">
        <ele>113</ele>
        <time>2022-10-02T08:32:18.000Z</time>
      </trkpt>
      <trkpt lat="43.48046" lon="5.24957">
        <ele>113</ele>
        <time>2022-10-02T08:32:19.000Z</time>
      </trkpt>
      <trkpt lat="43.48045" lon="5.24958">
        <ele>113</ele>
        <time>2022-10-02T08:32:20.000Z</time>
      </trkpt>
      <trkpt lat="43.48044" lon="5.24958">
        <ele>113</ele>
        <time>2022-10-02T08:32:21.000Z</time>
      </trkpt>
      <trkpt lat="43.48043" lon="5.24958">
        <ele>113</ele>
        <time>2022-10-02T08:32:22.000Z</time>
      </trkpt>
      <trkpt lat="43.48041" lon="5.24958">
        <ele>113</ele>
        <time>2022-10-02T08:32:23.000Z</time>
      </trkpt>
      <trkpt lat="43.4804" lon="5.24958">
        <ele>113</ele>
        <time>2022-10-02T08:32:24.000Z</time>
      </trkpt>
      <trkpt lat="43.48038" lon="5.24958">
        <ele>112</ele>
        <time>2022-10-02T08:32:25.000Z</time>
      </trkpt>
      <trkpt lat="43.48036" lon="5.24958">
        <ele>112</ele>
        <time>2022-10-02T08:32:26.000Z</time>
      </trkpt>
      <trkpt lat="43.48034" lon="5.24958">
        <ele>112</ele>
        <time>2022-10-02T08:32:27.000Z</time>
      </trkpt>
      <trkpt lat="43.48032" lon="5.24958">
        <ele>112</ele>
        <time>2022-10-02T08:32:28.000Z</time>
      </trkpt>
      <trkpt lat="43.48031" lon="5.24957">
        <ele>112</ele>
        <time>2022-10-02T08:32:29.000Z</time>
      </trkpt>
      <trkpt lat="43.48029" lon="5.24957">
        <ele>112</ele>
        <time>2022-10-02T08:32:30.000Z</time>
      </trkpt>
      <trkpt lat="43.48027" lon="5.24957">
        <ele>112</ele>
        <time>2022-10-02T08:32:31.000Z</time>
      </trkpt>
      <trkpt lat="43.48026" lon="5.24958">
        <ele>112</ele>
        <time>2022-10-02T08:32:32.000Z</time>
      </trkpt>
      <trkpt lat="43.48024" lon="5.24958">
        <ele>112</ele>
        <time>2022-10-02T08:32:33.000Z</time>
      </trkpt>
      <trkpt lat="43.48023" lon="5.24958">
        <ele>112</ele>
        <time>2022-10-02T08:32:34.000Z</time>
      </trkpt>
      <trkpt lat="43.48021" lon="5.24958">
        <ele>112</ele>
        <time>2022-10-02T08:32:35.000Z</time>
      </trkpt>
      <trkpt lat="43.4802" lon="5.24958">
        <ele>112</ele>
        <time>2022-10-02T08:32:36.000Z</time>
      </trkpt>
      <trkpt lat="43.48018" lon="5.24958">
        <ele>113</ele>
        <time>2022-10-02T08:32:37.000Z</time>
      </trkpt>
      <trkpt lat="43.48016" lon="5.24959">
        <ele>113</ele>
        <time>2022-10-02T08:32:38.000Z</time>
      </trkpt>
      <trkpt lat="43.48015" lon="5.24959">
        <ele>113</ele>
        <time>2022-10-02T08:32:39.000Z</time>
      </trkpt>
      <trkpt lat="43.48013" lon="5.2496">
        <ele>112</ele>
        <time>2022-10-02T08:32:40.000Z</time>
      </trkpt>
      <trkpt lat="43.48012" lon="5.2496">
        <ele>112</ele>
        <time>2022-10-02T08:32:41.000Z</time>
      </trkpt>
      <trkpt lat="43.4801" lon="5.24961">
        <ele>112</ele>
        <time>2022-10-02T08:32:42.000Z</time>
      </trkpt>
      <trkpt lat="43.48008" lon="5.24962">
        <ele>112</ele>
        <time>2022-10-02T08:32:43.000Z</time>
      </trkpt>
      <trkpt lat="43.48007" lon="5.24962">
        <ele>112</ele>
        <time>2022-10-02T08:32:44.000Z</time>
      </trkpt>
      <trkpt lat="43.48005" lon="5.24963">
        <ele>112</ele>
        <time>2022-10-02T08:32:45.000Z</time>
      </trkpt>
      <trkpt lat="43.48003" lon="5.24963">
        <ele>112</ele>
        <time>2022-10-02T08:32:46.000Z</time>
      </trkpt>
      <trkpt lat="43.48001" lon="5.24964">
        <ele>112</ele>
        <time>2022-10-02T08:32:47.000Z</time>
      </trkpt>
      <trkpt lat="43.48" lon="5.24964">
        <ele>112</ele>
        <time>2022-10-02T08:32:48.000Z</time>
      </trkpt>
      <trkpt lat="43.47998" lon="5.24965">
        <ele>112</ele>
        <time>2022-10-02T08:32:49.000Z</time>
      </trkpt>
      <trkpt lat="43.47997" lon="5.24965">
        <ele>112</ele>
        <time>2022-10-02T08:32:50.000Z</time>
      </trkpt>
      <trkpt lat="43.47995" lon="5.24966">
        <ele>112</ele>
        <time>2022-10-02T08:32:51.000Z</time>
      </trkpt>
      <trkpt lat="43.47993" lon="5.24967">
        <ele>112</ele>
        <time>2022-10-02T08:32:52.000Z</time>
      </trkpt>
      <trkpt lat="43.47991" lon="5.24968">
        <ele>112</ele>
        <time>2022-10-02T08:32:53.000Z</time>
      </trkpt>
      <trkpt lat="43.47989" lon="5.24969">
        <ele>112</ele>
        <time>2022-10-02T08:32:54.000Z</time>
      </trkpt>
      <trkpt lat="43.47987" lon="5.2497">
        <ele>112</ele>
        <time>2022-10-02T08:32:55.000Z</time>
      </trkpt>
      <trkpt lat="43.47985" lon="5.24971">
        <ele>112</ele>
        <time>2022-10-02T08:32:56.000Z</time>
      </trkpt>
      <trkpt lat="43.47983" lon="5.24972">
        <ele>112</ele>
        <time>2022-10-02T08:32:57.000Z</time>
      </trkpt>
      <trkpt lat="43.47981" lon="5.24974">
        <ele>111</ele>
        <time>2022-10-02T08:32:58.000Z</time>
      </trkpt>
      <trkpt lat="43.47979" lon="5.24975">
        <ele>111</ele>
        <time>2022-10-02T08:32:59.000Z</time>
      </trkpt>
      <trkpt lat="43.47977" lon="5.24976">
        <ele>111</ele>
        <time>2022-10-02T08:33:00.000Z</time>
      </trkpt>
      <trkpt lat="43.47975" lon="5.24977">
        <ele>111</ele>
        <time>2022-10-02T08:33:01.000Z</time>
      </trkpt>
      <trkpt lat="43.47974" lon="5.24979">
        <ele>111</ele>
        <time>2022-10-02T08:33:02.000Z</time>
      </trkpt>
      <trkpt lat="43.47972" lon="5.2498">
        <ele>110</ele>
        <time>2022-10-02T08:33:03.000Z</time>
      </trkpt>
      <trkpt lat="43.4797" lon="5.24982">
        <ele>110</ele>
        <time>2022-10-02T08:33:04.000Z</time>
      </trkpt>
      <trkpt lat="43.47968" lon="5.24983">
        <ele>110</ele>
        <time>2022-10-02T08:33:05.000Z</time>
      </trkpt>
      <trkpt lat="43.47966" lon="5.24985">
        <ele>110</ele>
        <time>2022-10-02T08:33:06.000Z</time>
      </trkpt>
      <trkpt lat="43.47965" lon="5.24986">
        <ele>110</ele>
        <time>2022-10-02T08:33:07.000Z</time>
      </trkpt>
      <trkpt lat="43.47963" lon="5.24987">
        <ele>110</ele>
        <time>2022-10-02T08:33:08.000Z</time>
      </trkpt>
      <trkpt lat="43.47961" lon="5.24989">
        <ele>109</ele>
        <time>2022-10-02T08:33:09.000Z</time>
      </trkpt>
      <trkpt lat="43.47959" lon="5.2499">
        <ele>109</ele>
        <time>2022-10-02T08:33:10.000Z</time>
      </trkpt>
      <trkpt lat="43.47957" lon="5.2499">
        <ele>109</ele>
        <time>2022-10-02T08:33:11.000Z</time>
      </trkpt>
      <trkpt lat="43.47955" lon="5.2499">
        <ele>109</ele>
        <time>2022-10-02T08:33:12.000Z</time>
      </trkpt>
      <trkpt lat="43.47953" lon="5.2499">
        <ele>109</ele>
        <time>2022-10-02T08:33:13.000Z</time>
      </trkpt>
      <trkpt lat="43.47951" lon="5.2499">
        <ele>109</ele>
        <time>2022-10-02T08:33:14.000Z</time>
      </trkpt>
      <trkpt lat="43.47949" lon="5.24989">
        <ele>109</ele>
        <time>2022-10-02T08:33:15.000Z</time>
      </trkpt>
      <trkpt lat="43.47948" lon="5.24989">
        <ele>108</ele>
        <time>2022-10-02T08:33:16.000Z</time>
      </trkpt>
      <trkpt lat="43.47946" lon="5.24988">
        <ele>108</ele>
        <time>2022-10-02T08:33:17.000Z</time>
      </trkpt>
      <trkpt lat="43.47945" lon="5.24986">
        <ele>108</ele>
        <time>2022-10-02T08:33:18.000Z</time>
      </trkpt>
      <trkpt lat="43.47944" lon="5.24985">
        <ele>108</ele>
        <time>2022-10-02T08:33:19.000Z</time>
      </trkpt>
      <trkpt lat="43.47942" lon="5.24984">
        <ele>108</ele>
        <time>2022-10-02T08:33:20.000Z</time>
      </trkpt>
      <trkpt lat="43.47941" lon="5.24983">
        <ele>108</ele>
        <time>2022-10-02T08:33:21.000Z</time>
      </trkpt>
      <trkpt lat="43.47939" lon="5.24982">
        <ele>108</ele>
        <time>2022-10-02T08:33:22.000Z</time>
      </trkpt>
      <trkpt lat="43.47938" lon="5.24982">
        <ele>107</ele>
        <time>2022-10-02T08:33:23.000Z</time>
      </trkpt>
      <trkpt lat="43.47936" lon="5.24981">
        <ele>107</ele>
        <time>2022-10-02T08:33:24.000Z</time>
      </trkpt>
      <trkpt lat="43.47935" lon="5.2498">
        <ele>107</ele>
        <time>2022-10-02T08:33:25.000Z</time>
      </trkpt>
      <trkpt lat="43.47933" lon="5.2498">
        <ele>107</ele>
        <time>2022-10-02T08:33:26.000Z</time>
      </trkpt>
      <trkpt lat="43.47931" lon="5.24979">
        <ele>107</ele>
        <time>2022-10-02T08:33:27.000Z</time>
      </trkpt>
      <trkpt lat="43.47929" lon="5.24979">
        <ele>107</ele>
        <time>2022-10-02T08:33:28.000Z</time>
      </trkpt>
      <trkpt lat="43.47928" lon="5.24979">
        <ele>106</ele>
        <time>2022-10-02T08:33:29.000Z</time>
      </trkpt>
      <trkpt lat="43.47926" lon="5.24979">
        <ele>106</ele>
        <time>2022-10-02T08:33:30.000Z</time>
      </trkpt>
      <trkpt lat="43.47925" lon="5.24979">
        <ele>106</ele>
        <time>2022-10-02T08:33:31.000Z</time>
      </trkpt>
      <trkpt lat="43.47923" lon="5.24979">
        <ele>106</ele>
        <time>2022-10-02T08:33:32.000Z</time>
      </trkpt>
      <trkpt lat="43.47921" lon="5.24979">
        <ele>106</ele>
        <time>2022-10-02T08:33:33.000Z</time>
      </trkpt>
      <trkpt lat="43.4792" lon="5.2498">
        <ele>105</ele>
        <time>2022-10-02T08:33:34.000Z</time>
      </trkpt>
      <trkpt lat="43.47918" lon="5.2498">
        <ele>105</ele>
        <time>2022-10-02T08:33:35.000Z</time>
      </trkpt>
      <trkpt lat="43.47917" lon="5.24981">
        <ele>105</ele>
        <time>2022-10-02T08:33:36.000Z</time>
      </trkpt>
      <trkpt lat="43.47915" lon="5.24981">
        <ele>105</ele>
        <time>2022-10-02T08:33:37.000Z</time>
      </trkpt>
      <trkpt lat="43.47913" lon="5.24982">
        <ele>105</ele>
        <time>2022-10-02T08:33:38.000Z</time>
      </trkpt>
      <trkpt lat="43.47912" lon="5.24983">
        <ele>105</ele>
        <time>2022-10-02T08:33:39.000Z</time>
      </trkpt>
      <trkpt lat="43.4791" lon="5.24983">
        <ele>105</ele>
        <time>2022-10-02T08:33:40.000Z</time>
      </trkpt>
      <trkpt lat="43.47908" lon="5.24984">
        <ele>105</ele>
        <time>2022-10-02T08:33:41.000Z</time>
      </trkpt>
      <trkpt lat="43.47907" lon="5.24985">
        <ele>105</ele>
        <time>2022-10-02T08:33:42.000Z</time>
      </trkpt>
      <trkpt lat="43.47905" lon="5.24985">
        <ele>106</ele>
        <time>2022-10-02T08:33:43.000Z</time>
      </trkpt>
      <trkpt lat="43.47904" lon="5.24986">
        <ele>106</ele>
        <time>2022-10-02T08:33:44.000Z</time>
      </trkpt>
      <trkpt lat="43.47902" lon="5.24986">
        <ele>106</ele>
        <time>2022-10-02T08:33:45.000Z</time>
      </trkpt>
      <trkpt lat="43.47901" lon="5.24985">
        <ele>106</ele>
        <time>2022-10-02T08:33:46.000Z</time>
      </trkpt>
      <trkpt lat="43.479" lon="5.24984">
        <ele>106</ele>
        <time>2022-10-02T08:33:47.000Z</time>
      </trkpt>
      <trkpt lat="43.47898" lon="5.24983">
        <ele>106</ele>
        <time>2022-10-02T08:33:48.000Z</time>
      </trkpt>
      <trkpt lat="43.47897" lon="5.24982">
        <ele>106</ele>
        <time>2022-10-02T08:33:49.000Z</time>
      </trkpt>
      <trkpt lat="43.47896" lon="5.2498">
        <ele>106</ele>
        <time>2022-10-02T08:33:50.000Z</time>
      </trkpt>
      <trkpt lat="43.47895" lon="5.24978">
        <ele>106</ele>
        <time>2022-10-02T08:33:51.000Z</time>
      </trkpt>
      <trkpt lat="43.47895" lon="5.24976">
        <ele>106</ele>
        <time>2022-10-02T08:33:52.000Z</time>
      </trkpt>
      <trkpt lat="43.47895" lon="5.24974">
        <ele>106</ele>
        <time>2022-10-02T08:33:53.000Z</time>
      </trkpt>
      <trkpt lat="43.47895" lon="5.24972">
        <ele>106</ele>
        <time>2022-10-02T08:33:54.000Z</time>
      </trkpt>
      <trkpt lat="43.47896" lon="5.2497">
        <ele>105</ele>
        <time>2022-10-02T08:33:55.000Z</time>
      </trkpt>
      <trkpt lat="43.47896" lon="5.24968">
        <ele>105</ele>
        <time>2022-10-02T08:33:56.000Z</time>
      </trkpt>
      <trkpt lat="43.47896" lon="5.24966">
        <ele>105</ele>
        <time>2022-10-02T08:33:57.000Z</time>
      </trkpt>
      <trkpt lat="43.47897" lon="5.24964">
        <ele>105</ele>
        <time>2022-10-02T08:33:58.000Z</time>
      </trkpt>
      <trkpt lat="43.47897" lon="5.24962">
        <ele>105</ele>
        <time>2022-10-02T08:33:59.000Z</time>
      </trkpt>
      <trkpt lat="43.47898" lon="5.2496">
        <ele>105</ele>
        <time>2022-10-02T08:34:00.000Z</time>
      </trkpt>
      <trkpt lat="43.47898" lon="5.24958">
        <ele>105</ele>
        <time>2022-10-02T08:34:01.000Z</time>
      </trkpt>
      <trkpt lat="43.47898" lon="5.24956">
        <ele>105</ele>
        <time>2022-10-02T08:34:02.000Z</time>
      </trkpt>
      <trkpt lat="43.47898" lon="5.24954">
        <ele>105</ele>
        <time>2022-10-02T08:34:03.000Z</time>
      </trkpt>
      <trkpt lat="43.47898" lon="5.24952">
        <ele>105</ele>
        <time>2022-10-02T08:34:04.000Z</time>
      </trkpt>
      <trkpt lat="43.47898" lon="5.2495">
        <ele>105</ele>
        <time>2022-10-02T08:34:05.000Z</time>
      </trkpt>
      <trkpt lat="43.47898" lon="5.24948">
        <ele>105</ele>
        <time>2022-10-02T08:34:06.000Z</time>
      </trkpt>
      <trkpt lat="43.47898" lon="5.24946">
        <ele>105</ele>
        <time>2022-10-02T08:34:07.000Z</time>
      </trkpt>
      <trkpt lat="43.47898" lon="5.24943">
        <ele>106</ele>
        <time>2022-10-02T08:34:08.000Z</time>
      </trkpt>
      <trkpt lat="43.47898" lon="5.24942">
        <ele>106</ele>
        <time>2022-10-02T08:34:09.000Z</time>
      </trkpt>
      <trkpt lat="43.47898" lon="5.24939">
        <ele>106</ele>
        <time>2022-10-02T08:34:10.000Z</time>
      </trkpt>
      <trkpt lat="43.47898" lon="5.24937">
        <ele>106</ele>
        <time>2022-10-02T08:34:11.000Z</time>
      </trkpt>
      <trkpt lat="43.47897" lon="5.24935">
        <ele>106</ele>
        <time>2022-10-02T08:34:12.000Z</time>
      </trkpt>
      <trkpt lat="43.47897" lon="5.24933">
        <ele>106</ele>
        <time>2022-10-02T08:34:13.000Z</time>
      </trkpt>
      <trkpt lat="43.47897" lon="5.24931">
        <ele>106</ele>
        <time>2022-10-02T08:34:14.000Z</time>
      </trkpt>
      <trkpt lat="43.47896" lon="5.2493">
        <ele>106</ele>
        <time>2022-10-02T08:34:15.000Z</time>
      </trkpt>
      <trkpt lat="43.47895" lon="5.24928">
        <ele>106</ele>
        <time>2022-10-02T08:34:16.000Z</time>
      </trkpt>
      <trkpt lat="43.47894" lon="5.24926">
        <ele>106</ele>
        <time>2022-10-02T08:34:17.000Z</time>
      </trkpt>
      <trkpt lat="43.47892" lon="5.24925">
        <ele>106</ele>
        <time>2022-10-02T08:34:18.000Z</time>
      </trkpt>
      <trkpt lat="43.47891" lon="5.24924">
        <ele>106</ele>
        <time>2022-10-02T08:34:19.000Z</time>
      </trkpt>
      <trkpt lat="43.4789" lon="5.24923">
        <ele>105</ele>
        <time>2022-10-02T08:34:20.000Z</time>
      </trkpt>
      <trkpt lat="43.47888" lon="5.24922">
        <ele>105</ele>
        <time>2022-10-02T08:34:21.000Z</time>
      </trkpt>
      <trkpt lat="43.47887" lon="5.24922">
        <ele>105</ele>
        <time>2022-10-02T08:34:22.000Z</time>
      </trkpt>
      <trkpt lat="43.47885" lon="5.24921">
        <ele>105</ele>
        <time>2022-10-02T08:34:23.000Z</time>
      </trkpt>
      <trkpt lat="43.47884" lon="5.24921">
        <ele>105</ele>
        <time>2022-10-02T08:34:24.000Z</time>
      </trkpt>
      <trkpt lat="43.47882" lon="5.2492">
        <ele>105</ele>
        <time>2022-10-02T08:34:25.000Z</time>
      </trkpt>
      <trkpt lat="43.47881" lon="5.24919">
        <ele>105</ele>
        <time>2022-10-02T08:34:26.000Z</time>
      </trkpt>
      <trkpt lat="43.47879" lon="5.24919">
        <ele>105</ele>
        <time>2022-10-02T08:34:27.000Z</time>
      </trkpt>
      <trkpt lat="43.47878" lon="5.24919">
        <ele>104</ele>
        <time>2022-10-02T08:34:28.000Z</time>
      </trkpt>
      <trkpt lat="43.47876" lon="5.24918">
        <ele>104</ele>
        <time>2022-10-02T08:34:29.000Z</time>
      </trkpt>
      <trkpt lat="43.47875" lon="5.24918">
        <ele>104</ele>
        <time>2022-10-02T08:34:30.000Z</time>
      </trkpt>
      <trkpt lat="43.47873" lon="5.24918">
        <ele>104</ele>
        <time>2022-10-02T08:34:31.000Z</time>
      </trkpt>
      <trkpt lat="43.47871" lon="5.24917">
        <ele>104</ele>
        <time>2022-10-02T08:34:32.000Z</time>
      </trkpt>
      <trkpt lat="43.4787" lon="5.24917">
        <ele>104</ele>
        <time>2022-10-02T08:34:33.000Z</time>
      </trkpt>
      <trkpt lat="43.47868" lon="5.24917">
        <ele>104</ele>
        <time>2022-10-02T08:34:34.000Z</time>
      </trkpt>
      <trkpt lat="43.47867" lon="5.24917">
        <ele>104</ele>
        <time>2022-10-02T08:34:35.000Z</time>
      </trkpt>
      <trkpt lat="43.47865" lon="5.24916">
        <ele>104</ele>
        <time>2022-10-02T08:34:36.000Z</time>
      </trkpt>
      <trkpt lat="43.47864" lon="5.24916">
        <ele>104</ele>
        <time>2022-10-02T08:34:37.000Z</time>
      </trkpt>
      <trkpt lat="43.47862" lon="5.24916">
        <ele>104</ele>
        <time>2022-10-02T08:34:38.000Z</time>
      </trkpt>
      <trkpt lat="43.4786" lon="5.24915">
        <ele>104</ele>
        <time>2022-10-02T08:34:39.000Z</time>
      </trkpt>
      <trkpt lat="43.47859" lon="5.24915">
        <ele>104</ele>
        <time>2022-10-02T08:34:40.000Z</time>
      </trkpt>
      <trkpt lat="43.47857" lon="5.24914">
        <ele>104</ele>
        <time>2022-10-02T08:34:41.000Z</time>
      </trkpt>
      <trkpt lat="43.47856" lon="5.24913">
        <ele>104</ele>
        <time>2022-10-02T08:34:42.000Z</time>
      </trkpt>
      <trkpt lat="43.47855" lon="5.24912">
        <ele>104</ele>
        <time>2022-10-02T08:34:43.000Z</time>
      </trkpt>
      <trkpt lat="43.47854" lon="5.2491">
        <ele>104</ele>
        <time>2022-10-02T08:34:44.000Z</time>
      </trkpt>
      <trkpt lat="43.47853" lon="5.24909">
        <ele>104</ele>
        <time>2022-10-02T08:34:45.000Z</time>
      </trkpt>
      <trkpt lat="43.47853" lon="5.24907">
        <ele>104</ele>
        <time>2022-10-02T08:34:46.000Z</time>
      </trkpt>
      <trkpt lat="43.47853" lon="5.24905">
        <ele>104</ele>
        <time>2022-10-02T08:34:47.000Z</time>
      </trkpt>
      <trkpt lat="43.47853" lon="5.24903">
        <ele>104</ele>
        <time>2022-10-02T08:34:48.000Z</time>
      </trkpt>
      <trkpt lat="43.47853" lon="5.24901">
        <ele>105</ele>
        <time>2022-10-02T08:34:49.000Z</time>
      </trkpt>
      <trkpt lat="43.47853" lon="5.24899">
        <ele>105</ele>
        <time>2022-10-02T08:34:50.000Z</time>
      </trkpt>
      <trkpt lat="43.47853" lon="5.24897">
        <ele>105</ele>
        <time>2022-10-02T08:34:51.000Z</time>
      </trkpt>
      <trkpt lat="43.47854" lon="5.24895">
        <ele>105</ele>
        <time>2022-10-02T08:34:52.000Z</time>
      </trkpt>
      <trkpt lat="43.47855" lon="5.24893">
        <ele>105</ele>
        <time>2022-10-02T08:34:53.000Z</time>
      </trkpt>
      <trkpt lat="43.47856" lon="5.24892">
        <ele>105</ele>
        <time>2022-10-02T08:34:54.000Z</time>
      </trkpt>
      <trkpt lat="43.47857" lon="5.2489">
        <ele>105</ele>
        <time>2022-10-02T08:34:55.000Z</time>
      </trkpt>
      <trkpt lat="43.47858" lon="5.24889">
        <ele>105</ele>
        <time>2022-10-02T08:34:56.000Z</time>
      </trkpt>
      <trkpt lat="43.4786" lon="5.24888">
        <ele>105</ele>
        <time>2022-10-02T08:34:57.000Z</time>
      </trkpt>
      <trkpt lat="43.47862" lon="5.24887">
        <ele>105</ele>
        <time>2022-10-02T08:34:58.000Z</time>
      </trkpt>
      <trkpt lat="43.47863" lon="5.24886">
        <ele>105</ele>
        <time>2022-10-02T08:34:59.000Z</time>
      </trkpt>
      <trkpt lat="43.47865" lon="5.24886">
        <ele>105</ele>
        <time>2022-10-02T08:35:00.000Z</time>
      </trkpt>
      <trkpt lat="43.47866" lon="5.24885">
        <ele>105</ele>
        <time>2022-10-02T08:35:01.000Z</time>
      </trkpt>
      <trkpt lat="43.47868" lon="5.24885">
        <ele>105</ele>
        <time>2022-10-02T08:35:02.000Z</time>
      </trkpt>
      <trkpt lat="43.4787" lon="5.24885">
        <ele>105</ele>
        <time>2022-10-02T08:35:03.000Z</time>
      </trkpt>
      <trkpt lat="43.47871" lon="5.24884">
        <ele>104</ele>
        <time>2022-10-02T08:35:04.000Z</time>
      </trkpt>
      <trkpt lat="43.47873" lon="5.24884">
        <ele>104</ele>
        <time>2022-10-02T08:35:05.000Z</time>
      </trkpt>
      <trkpt lat="43.47875" lon="5.24883">
        <ele>104</ele>
        <time>2022-10-02T08:35:06.000Z</time>
      </trkpt>
      <trkpt lat="43.47877" lon="5.24883">
        <ele>104</ele>
        <time>2022-10-02T08:35:07.000Z</time>
      </trkpt>
      <trkpt lat="43.47878" lon="5.24883">
        <ele>104</ele>
        <time>2022-10-02T08:35:08.000Z</time>
      </trkpt>
      <trkpt lat="43.4788" lon="5.24882">
        <ele>104</ele>
        <time>2022-10-02T08:35:09.000Z</time>
      </trkpt>
      <trkpt lat="43.47881" lon="5.24882">
        <ele>103</ele>
        <time>2022-10-02T08:35:10.000Z</time>
      </trkpt>
      <trkpt lat="43.47883" lon="5.24881">
        <ele>103</ele>
        <time>2022-10-02T08:35:11.000Z</time>
      </trkpt>
      <trkpt lat="43.47884" lon="5.24881">
        <ele>103</ele>
        <time>2022-10-02T08:35:12.000Z</time>
      </trkpt>
      <trkpt lat="43.47886" lon="5.2488">
        <ele>103</ele>
        <time>2022-10-02T08:35:13.000Z</time>
      </trkpt>
      <trkpt lat="43.47888" lon="5.24879">
        <ele>103</ele>
        <time>2022-10-02T08:35:14.000Z</time>
      </trkpt>
      <trkpt lat="43.47889" lon="5.24879">
        <ele>103</ele>
        <time>2022-10-02T08:35:15.000Z</time>
      </trkpt>
      <trkpt lat="43.47891" lon="5.24878">
        <ele>102</ele>
        <time>2022-10-02T08:35:16.000Z</time>
      </trkpt>
      <trkpt lat="43.47892" lon="5.24877">
        <ele>102</ele>
        <time>2022-10-02T08:35:17.000Z</time>
      </trkpt>
      <trkpt lat="43.47894" lon="5.24877">
        <ele>102</ele>
        <time>2022-10-02T08:35:18.000Z</time>
      </trkpt>
      <trkpt lat="43.47895" lon="5.24876">
        <ele>102</ele>
        <time>2022-10-02T08:35:19.000Z</time>
      </trkpt>
      <trkpt lat="43.47897" lon="5.24875">
        <ele>102</ele>
        <time>2022-10-02T08:35:20.000Z</time>
      </trkpt>
      <trkpt lat="43.47899" lon="5.24874">
        <ele>102</ele>
        <time>2022-10-02T08:35:21.000Z</time>
      </trkpt>
      <trkpt lat="43.47901" lon="5.24873">
        <ele>102</ele>
        <time>2022-10-02T08:35:22.000Z</time>
      </trkpt>
      <trkpt lat="43.47902" lon="5.24872">
        <ele>102</ele>
        <time>2022-10-02T08:35:23.000Z</time>
      </trkpt>
      <trkpt lat="43.47904" lon="5.24871">
        <ele>101</ele>
        <time>2022-10-02T08:35:24.000Z</time>
      </trkpt>
      <trkpt lat="43.47906" lon="5.24871">
        <ele>101</ele>
        <time>2022-10-02T08:35:25.000Z</time>
      </trkpt>
      <trkpt lat="43.47907" lon="5.2487">
        <ele>101</ele>
        <time>2022-10-02T08:35:26.000Z</time>
      </trkpt>
      <trkpt lat="43.47909" lon="5.24869">
        <ele>101</ele>
        <time>2022-10-02T08:35:27.000Z</time>
      </trkpt>
      <trkpt lat="43.47911" lon="5.24869">
        <ele>101</ele>
        <time>2022-10-02T08:35:28.000Z</time>
      </trkpt>
      <trkpt lat="43.47913" lon="5.24868">
        <ele>100</ele>
        <time>2022-10-02T08:35:29.000Z</time>
      </trkpt>
      <trkpt lat="43.47914" lon="5.24867">
        <ele>100</ele>
        <time>2022-10-02T08:35:30.000Z</time>
      </trkpt>
      <trkpt lat="43.47916" lon="5.24867">
        <ele>100</ele>
        <time>2022-10-02T08:35:31.000Z</time>
      </trkpt>
      <trkpt lat="43.47917" lon="5.24866">
        <ele>100</ele>
        <time>2022-10-02T08:35:32.000Z</time>
      </trkpt>
      <trkpt lat="43.47919" lon="5.24865">
        <ele>100</ele>
        <time>2022-10-02T08:35:33.000Z</time>
      </trkpt>
      <trkpt lat="43.4792" lon="5.24863">
        <ele>99</ele>
        <time>2022-10-02T08:35:34.000Z</time>
      </trkpt>
      <trkpt lat="43.47921" lon="5.24862">
        <ele>99</ele>
        <time>2022-10-02T08:35:35.000Z</time>
      </trkpt>
      <trkpt lat="43.47923" lon="5.24862">
        <ele>99</ele>
        <time>2022-10-02T08:35:36.000Z</time>
      </trkpt>
      <trkpt lat="43.47924" lon="5.24861">
        <ele>99</ele>
        <time>2022-10-02T08:35:37.000Z</time>
      </trkpt>
      <trkpt lat="43.47926" lon="5.24861">
        <ele>99</ele>
        <time>2022-10-02T08:35:38.000Z</time>
      </trkpt>
      <trkpt lat="43.47928" lon="5.2486">
        <ele>98</ele>
        <time>2022-10-02T08:35:39.000Z</time>
      </trkpt>
      <trkpt lat="43.47929" lon="5.24859">
        <ele>98</ele>
        <time>2022-10-02T08:35:40.000Z</time>
      </trkpt>
      <trkpt lat="43.47931" lon="5.24858">
        <ele>98</ele>
        <time>2022-10-02T08:35:41.000Z</time>
      </trkpt>
      <trkpt lat="43.47932" lon="5.24857">
        <ele>98</ele>
        <time>2022-10-02T08:35:42.000Z</time>
      </trkpt>
      <trkpt lat="43.47934" lon="5.24856">
        <ele>98</ele>
        <time>2022-10-02T08:35:43.000Z</time>
      </trkpt>
      <trkpt lat="43.47936" lon="5.24855">
        <ele>98</ele>
        <time>2022-10-02T08:35:44.000Z</time>
      </trkpt>
      <trkpt lat="43.47937" lon="5.24854">
        <ele>97</ele>
        <time>2022-10-02T08:35:45.000Z</time>
      </trkpt>
      <trkpt lat="43.47939" lon="5.24853">
        <ele>97</ele>
        <time>2022-10-02T08:35:46.000Z</time>
      </trkpt>
      <trkpt lat="43.47941" lon="5.24853">
        <ele>97</ele>
        <time>2022-10-02T08:35:47.000Z</time>
      </trkpt>
      <trkpt lat="43.47942" lon="5.24852">
        <ele>97</ele>
        <time>2022-10-02T08:35:48.000Z</time>
      </trkpt>
      <trkpt lat="43.47944" lon="5.2485">
        <ele>96</ele>
        <time>2022-10-02T08:35:49.000Z</time>
      </trkpt>
      <trkpt lat="43.47945" lon="5.24849">
        <ele>96</ele>
        <time>2022-10-02T08:35:50.000Z</time>
      </trkpt>
      <trkpt lat="43.47946" lon="5.24848">
        <ele>96</ele>
        <time>2022-10-02T08:35:51.000Z</time>
      </trkpt>
      <trkpt lat="43.47948" lon="5.24848">
        <ele>96</ele>
        <time>2022-10-02T08:35:52.000Z</time>
      </trkpt>
      <trkpt lat="43.47949" lon="5.24847">
        <ele>96</ele>
        <time>2022-10-02T08:35:53.000Z</time>
      </trkpt>
      <trkpt lat="43.4795" lon="5.24846">
        <ele>96</ele>
        <time>2022-10-02T08:35:54.000Z</time>
      </trkpt>
      <trkpt lat="43.47951" lon="5.24845">
        <ele>96</ele>
        <time>2022-10-02T08:35:55.000Z</time>
      </trkpt>
      <trkpt lat="43.47953" lon="5.24843">
        <ele>95</ele>
        <time>2022-10-02T08:35:56.000Z</time>
      </trkpt>
      <trkpt lat="43.47954" lon="5.24842">
        <ele>95</ele>
        <time>2022-10-02T08:35:57.000Z</time>
      </trkpt>
      <trkpt lat="43.47955" lon="5.24841">
        <ele>95</ele>
        <time>2022-10-02T08:35:58.000Z</time>
      </trkpt>
      <trkpt lat="43.47957" lon="5.2484">
        <ele>95</ele>
        <time>2022-10-02T08:35:59.000Z</time>
      </trkpt>
      <trkpt lat="43.47958" lon="5.24839">
        <ele>94</ele>
        <time>2022-10-02T08:36:00.000Z</time>
      </trkpt>
      <trkpt lat="43.4796" lon="5.24838">
        <ele>94</ele>
        <time>2022-10-02T08:36:01.000Z</time>
      </trkpt>
      <trkpt lat="43.47961" lon="5.24838">
        <ele>94</ele>
        <time>2022-10-02T08:36:02.000Z</time>
      </trkpt>
      <trkpt lat="43.47963" lon="5.24837">
        <ele>94</ele>
        <time>2022-10-02T08:36:03.000Z</time>
      </trkpt>
      <trkpt lat="43.47964" lon="5.24836">
        <ele>93</ele>
        <time>2022-10-02T08:36:04.000Z</time>
      </trkpt>
      <trkpt lat="43.47965" lon="5.24835">
        <ele>93</ele>
        <time>2022-10-02T08:36:05.000Z</time>
      </trkpt>
      <trkpt lat="43.47967" lon="5.24834">
        <ele>93</ele>
        <time>2022-10-02T08:36:06.000Z</time>
      </trkpt>
      <trkpt lat="43.47968" lon="5.24832">
        <ele>93</ele>
        <time>2022-10-02T08:36:07.000Z</time>
      </trkpt>
      <trkpt lat="43.4797" lon="5.24831">
        <ele>93</ele>
        <time>2022-10-02T08:36:08.000Z</time>
      </trkpt>
      <trkpt lat="43.47971" lon="5.2483">
        <ele>92</ele>
        <time>2022-10-02T08:36:09.000Z</time>
      </trkpt>
      <trkpt lat="43.47973" lon="5.24829">
        <ele>92</ele>
        <time>2022-10-02T08:36:10.000Z</time>
      </trkpt>
      <trkpt lat="43.47974" lon="5.24828">
        <ele>92</ele>
        <time>2022-10-02T08:36:11.000Z</time>
      </trkpt>
      <trkpt lat="43.47976" lon="5.24827">
        <ele>92</ele>
        <time>2022-10-02T08:36:12.000Z</time>
      </trkpt>
      <trkpt lat="43.47978" lon="5.24826">
        <ele>92</ele>
        <time>2022-10-02T08:36:13.000Z</time>
      </trkpt>
      <trkpt lat="43.47979" lon="5.24825">
        <ele>92</ele>
        <time>2022-10-02T08:36:14.000Z</time>
      </trkpt>
      <trkpt lat="43.47981" lon="5.24824">
        <ele>92</ele>
        <time>2022-10-02T08:36:15.000Z</time>
      </trkpt>
      <trkpt lat="43.47982" lon="5.24823">
        <ele>92</ele>
        <time>2022-10-02T08:36:16.000Z</time>
      </trkpt>
      <trkpt lat="43.47984" lon="5.24822">
        <ele>92</ele>
        <time>2022-10-02T08:36:17.000Z</time>
      </trkpt>
      <trkpt lat="43.47985" lon="5.24821">
        <ele>91</ele>
        <time>2022-10-02T08:36:18.000Z</time>
      </trkpt>
      <trkpt lat="43.47987" lon="5.24819">
        <ele>91</ele>
        <time>2022-10-02T08:36:19.000Z</time>
      </trkpt>
      <trkpt lat="43.47988" lon="5.24818">
        <ele>91</ele>
        <time>2022-10-02T08:36:20.000Z</time>
      </trkpt>
      <trkpt lat="43.47989" lon="5.24817">
        <ele>91</ele>
        <time>2022-10-02T08:36:21.000Z</time>
      </trkpt>
      <trkpt lat="43.47991" lon="5.24816">
        <ele>91</ele>
        <time>2022-10-02T08:36:22.000Z</time>
      </trkpt>
      <trkpt lat="43.47992" lon="5.24814">
        <ele>91</ele>
        <time>2022-10-02T08:36:23.000Z</time>
      </trkpt>
      <trkpt lat="43.47994" lon="5.24813">
        <ele>91</ele>
        <time>2022-10-02T08:36:24.000Z</time>
      </trkpt>
      <trkpt lat="43.47995" lon="5.24812">
        <ele>90</ele>
        <time>2022-10-02T08:36:25.000Z</time>
      </trkpt>
      <trkpt lat="43.47997" lon="5.24811">
        <ele>90</ele>
        <time>2022-10-02T08:36:26.000Z</time>
      </trkpt>
      <trkpt lat="43.47998" lon="5.24809">
        <ele>90</ele>
        <time>2022-10-02T08:36:27.000Z</time>
      </trkpt>
      <trkpt lat="43.48" lon="5.24808">
        <ele>90</ele>
        <time>2022-10-02T08:36:28.000Z</time>
      </trkpt>
      <trkpt lat="43.48001" lon="5.24807">
        <ele>90</ele>
        <time>2022-10-02T08:36:29.000Z</time>
      </trkpt>
      <trkpt lat="43.48003" lon="5.24806">
        <ele>90</ele>
        <time>2022-10-02T08:36:30.000Z</time>
      </trkpt>
      <trkpt lat="43.48004" lon="5.24805">
        <ele>90</ele>
        <time>2022-10-02T08:36:31.000Z</time>
      </trkpt>
      <trkpt lat="43.48005" lon="5.24804">
        <ele>89</ele>
        <time>2022-10-02T08:36:32.000Z</time>
      </trkpt>
      <trkpt lat="43.48006" lon="5.24802">
        <ele>89</ele>
        <time>2022-10-02T08:36:33.000Z</time>
      </trkpt>
      <trkpt lat="43.48008" lon="5.24801">
        <ele>89</ele>
        <time>2022-10-02T08:36:34.000Z</time>
      </trkpt>
      <trkpt lat="43.48009" lon="5.248">
        <ele>89</ele>
        <time>2022-10-02T08:36:35.000Z</time>
      </trkpt>
      <trkpt lat="43.4801" lon="5.24799">
        <ele>88</ele>
        <time>2022-10-02T08:36:36.000Z</time>
      </trkpt>
      <trkpt lat="43.48012" lon="5.24797">
        <ele>88</ele>
        <time>2022-10-02T08:36:37.000Z</time>
      </trkpt>
      <trkpt lat="43.48013" lon="5.24796">
        <ele>88</ele>
        <time>2022-10-02T08:36:38.000Z</time>
      </trkpt>
      <trkpt lat="43.48014" lon="5.24794">
        <ele>88</ele>
        <time>2022-10-02T08:36:39.000Z</time>
      </trkpt>
      <trkpt lat="43.48015" lon="5.24792">
        <ele>87</ele>
        <time>2022-10-02T08:36:40.000Z</time>
      </trkpt>
      <trkpt lat="43.48017" lon="5.2479">
        <ele>87</ele>
        <time>2022-10-02T08:36:41.000Z</time>
      </trkpt>
      <trkpt lat="43.48018" lon="5.24789">
        <ele>87</ele>
        <time>2022-10-02T08:36:42.000Z</time>
      </trkpt>
      <trkpt lat="43.4802" lon="5.24787">
        <ele>87</ele>
        <time>2022-10-02T08:36:43.000Z</time>
      </trkpt>
      <trkpt lat="43.48021" lon="5.24785">
        <ele>87</ele>
        <time>2022-10-02T08:36:44.000Z</time>
      </trkpt>
      <trkpt lat="43.48023" lon="5.24783">
        <ele>86</ele>
        <time>2022-10-02T08:36:45.000Z</time>
      </trkpt>
      <trkpt lat="43.48024" lon="5.24782">
        <ele>86</ele>
        <time>2022-10-02T08:36:46.000Z</time>
      </trkpt>
      <trkpt lat="43.48025" lon="5.2478">
        <ele>86</ele>
        <time>2022-10-02T08:36:47.000Z</time>
      </trkpt>
      <trkpt lat="43.48027" lon="5.24778">
        <ele>86</ele>
        <time>2022-10-02T08:36:48.000Z</time>
      </trkpt>
      <trkpt lat="43.48028" lon="5.24777">
        <ele>86</ele>
        <time>2022-10-02T08:36:49.000Z</time>
      </trkpt>
      <trkpt lat="43.48029" lon="5.24775">
        <ele>85</ele>
        <time>2022-10-02T08:36:50.000Z</time>
      </trkpt>
      <trkpt lat="43.48031" lon="5.24773">
        <ele>85</ele>
        <time>2022-10-02T08:36:51.000Z</time>
      </trkpt>
      <trkpt lat="43.48032" lon="5.24772">
        <ele>85</ele>
        <time>2022-10-02T08:36:52.000Z</time>
      </trkpt>
      <trkpt lat="43.48033" lon="5.2477">
        <ele>85</ele>
        <time>2022-10-02T08:36:53.000Z</time>
      </trkpt>
      <trkpt lat="43.48034" lon="5.24768">
        <ele>85</ele>
        <time>2022-10-02T08:36:54.000Z</time>
      </trkpt>
      <trkpt lat="43.48034" lon="5.24766">
        <ele>85</ele>
        <time>2022-10-02T08:36:55.000Z</time>
      </trkpt>
      <trkpt lat="43.48035" lon="5.24764">
        <ele>85</ele>
        <time>2022-10-02T08:36:56.000Z</time>
      </trkpt>
      <trkpt lat="43.48036" lon="5.24762">
        <ele>84</ele>
        <time>2022-10-02T08:36:57.000Z</time>
      </trkpt>
      <trkpt lat="43.48037" lon="5.2476">
        <ele>84</ele>
        <time>2022-10-02T08:36:58.000Z</time>
      </trkpt>
      <trkpt lat="43.48038" lon="5.24759">
        <ele>84</ele>
        <time>2022-10-02T08:36:59.000Z</time>
      </trkpt>
      <trkpt lat="43.48038" lon="5.24757">
        <ele>84</ele>
        <time>2022-10-02T08:37:00.000Z</time>
      </trkpt>
      <trkpt lat="43.48039" lon="5.24755">
        <ele>84</ele>
        <time>2022-10-02T08:37:01.000Z</time>
      </trkpt>
      <trkpt lat="43.4804" lon="5.24753">
        <ele>84</ele>
        <time>2022-10-02T08:37:02.000Z</time>
      </trkpt>
      <trkpt lat="43.48041" lon="5.24751">
        <ele>85</ele>
        <time>2022-10-02T08:37:03.000Z</time>
      </trkpt>
      <trkpt lat="43.48042" lon="5.24749">
        <ele>85</ele>
        <time>2022-10-02T08:37:04.000Z</time>
      </trkpt>
      <trkpt lat="43.48043" lon="5.24747">
        <ele>85</ele>
        <time>2022-10-02T08:37:05.000Z</time>
      </trkpt>
      <trkpt lat="43.48043" lon="5.24745">
        <ele>85</ele>
        <time>2022-10-02T08:37:06.000Z</time>
      </trkpt>
      <trkpt lat="43.48044" lon="5.24743">
        <ele>85</ele>
        <time>2022-10-02T08:37:07.000Z</time>
      </trkpt>
      <trkpt lat="43.48045" lon="5.24742">
        <ele>85</ele>
        <time>2022-10-02T08:37:08.000Z</time>
      </trkpt>
      <trkpt lat="43.48046" lon="5.2474">
        <ele>85</ele>
        <time>2022-10-02T08:37:09.000Z</time>
      </trkpt>
      <trkpt lat="43.48046" lon="5.24738">
        <ele>85</ele>
        <time>2022-10-02T08:37:10.000Z</time>
      </trkpt>
      <trkpt lat="43.48047" lon="5.24736">
        <ele>85</ele>
        <time>2022-10-02T08:37:11.000Z</time>
      </trkpt>
      <trkpt lat="43.48048" lon="5.24735">
        <ele>85</ele>
        <time>2022-10-02T08:37:12.000Z</time>
      </trkpt>
      <trkpt lat="43.4805" lon="5.24733">
        <ele>85</ele>
        <time>2022-10-02T08:37:13.000Z</time>
      </trkpt>
      <trkpt lat="43.4805" lon="5.24731">
        <ele>84</ele>
        <time>2022-10-02T08:37:14.000Z</time>
      </trkpt>
      <trkpt lat="43.48051" lon="5.2473">
        <ele>84</ele>
        <time>2022-10-02T08:37:15.000Z</time>
      </trkpt>
      <trkpt lat="43.48052" lon="5.24728">
        <ele>84</ele>
        <time>2022-10-02T08:37:16.000Z</time>
      </trkpt>
      <trkpt lat="43.48053" lon="5.24726">
        <ele>84</ele>
        <time>2022-10-02T08:37:17.000Z</time>
      </trkpt>
      <trkpt lat="43.48054" lon="5.24725">
        <ele>84</ele>
        <time>2022-10-02T08:37:18.000Z</time>
      </trkpt>
      <trkpt lat="43.48055" lon="5.24723">
        <ele>84</ele>
        <time>2022-10-02T08:37:19.000Z</time>
      </trkpt>
      <trkpt lat="43.48056" lon="5.24722">
        <ele>84</ele>
        <time>2022-10-02T08:37:20.000Z</time>
      </trkpt>
      <trkpt lat="43.48057" lon="5.2472">
        <ele>84</ele>
        <time>2022-10-02T08:37:21.000Z</time>
      </trkpt>
      <trkpt lat="43.48059" lon="5.24719">
        <ele>84</ele>
        <time>2022-10-02T08:37:22.000Z</time>
      </trkpt>
      <trkpt lat="43.4806" lon="5.24717">
        <ele>84</ele>
        <time>2022-10-02T08:37:23.000Z</time>
      </trkpt>
      <trkpt lat="43.48061" lon="5.24716">
        <ele>84</ele>
        <time>2022-10-02T08:37:24.000Z</time>
      </trkpt>
      <trkpt lat="43.48062" lon="5.24714">
        <ele>84</ele>
        <time>2022-10-02T08:37:25.000Z</time>
      </trkpt>
      <trkpt lat="43.48063" lon="5.24713">
        <ele>84</ele>
        <time>2022-10-02T08:37:26.000Z</time>
      </trkpt>
      <trkpt lat="43.48064" lon="5.24712">
        <ele>84</ele>
        <time>2022-10-02T08:37:27.000Z</time>
      </trkpt>
      <trkpt lat="43.48066" lon="5.24712">
        <ele>84</ele>
        <time>2022-10-02T08:37:28.000Z</time>
      </trkpt>
      <trkpt lat="43.48067" lon="5.24711">
        <ele>84</ele>
        <time>2022-10-02T08:37:29.000Z</time>
      </trkpt>
      <trkpt lat="43.48068" lon="5.24711">
        <ele>84</ele>
        <time>2022-10-02T08:37:30.000Z</time>
      </trkpt>
      <trkpt lat="43.4807" lon="5.2471">
        <ele>83</ele>
        <time>2022-10-02T08:37:31.000Z</time>
      </trkpt>
      <trkpt lat="43.48071" lon="5.24709">
        <ele>83</ele>
        <time>2022-10-02T08:37:32.000Z</time>
      </trkpt>
      <trkpt lat="43.48073" lon="5.24709">
        <ele>83</ele>
        <time>2022-10-02T08:37:33.000Z</time>
      </trkpt>
      <trkpt lat="43.48074" lon="5.24708">
        <ele>83</ele>
        <time>2022-10-02T08:37:34.000Z</time>
      </trkpt>
      <trkpt lat="43.48076" lon="5.24708">
        <ele>83</ele>
        <time>2022-10-02T08:37:35.000Z</time>
      </trkpt>
      <trkpt lat="43.48077" lon="5.24708">
        <ele>82</ele>
        <time>2022-10-02T08:37:36.000Z</time>
      </trkpt>
      <trkpt lat="43.48079" lon="5.24707">
        <ele>82</ele>
        <time>2022-10-02T08:37:37.000Z</time>
      </trkpt>
      <trkpt lat="43.4808" lon="5.24707">
        <ele>82</ele>
        <time>2022-10-02T08:37:38.000Z</time>
      </trkpt>
      <trkpt lat="43.48082" lon="5.24706">
        <ele>82</ele>
        <time>2022-10-02T08:37:39.000Z</time>
      </trkpt>
      <trkpt lat="43.48083" lon="5.24706">
        <ele>81</ele>
        <time>2022-10-02T08:37:40.000Z</time>
      </trkpt>
      <trkpt lat="43.48085" lon="5.24704">
        <ele>81</ele>
        <time>2022-10-02T08:37:41.000Z</time>
      </trkpt>
      <trkpt lat="43.48086" lon="5.24703">
        <ele>81</ele>
        <time>2022-10-02T08:37:42.000Z</time>
      </trkpt>
      <trkpt lat="43.48088" lon="5.24702">
        <ele>81</ele>
        <time>2022-10-02T08:37:43.000Z</time>
      </trkpt>
      <trkpt lat="43.48089" lon="5.247">
        <ele>81</ele>
        <time>2022-10-02T08:37:44.000Z</time>
      </trkpt>
      <trkpt lat="43.4809" lon="5.24699">
        <ele>81</ele>
        <time>2022-10-02T08:37:45.000Z</time>
      </trkpt>
      <trkpt lat="43.48091" lon="5.24697">
        <ele>80</ele>
        <time>2022-10-02T08:37:46.000Z</time>
      </trkpt>
      <trkpt lat="43.48092" lon="5.24695">
        <ele>80</ele>
        <time>2022-10-02T08:37:47.000Z</time>
      </trkpt>
      <trkpt lat="43.48093" lon="5.24693">
        <ele>80</ele>
        <time>2022-10-02T08:37:48.000Z</time>
      </trkpt>
      <trkpt lat="43.48094" lon="5.2469">
        <ele>80</ele>
        <time>2022-10-02T08:37:49.000Z</time>
      </trkpt>
      <trkpt lat="43.48094" lon="5.24688">
        <ele>80</ele>
        <time>2022-10-02T08:37:50.000Z</time>
      </trkpt>
      <trkpt lat="43.48095" lon="5.24686">
        <ele>80</ele>
        <time>2022-10-02T08:37:51.000Z</time>
      </trkpt>
      <trkpt lat="43.48096" lon="5.24684">
        <ele>80</ele>
        <time>2022-10-02T08:37:52.000Z</time>
      </trkpt>
      <trkpt lat="43.48096" lon="5.24682">
        <ele>80</ele>
        <time>2022-10-02T08:37:53.000Z</time>
      </trkpt>
      <trkpt lat="43.48096" lon="5.2468">
        <ele>80</ele>
        <time>2022-10-02T08:37:54.000Z</time>
      </trkpt>
      <trkpt lat="43.48097" lon="5.24678">
        <ele>80</ele>
        <time>2022-10-02T08:37:55.000Z</time>
      </trkpt>
      <trkpt lat="43.48097" lon="5.24676">
        <ele>79</ele>
        <time>2022-10-02T08:37:56.000Z</time>
      </trkpt>
      <trkpt lat="43.48097" lon="5.24674">
        <ele>79</ele>
        <time>2022-10-02T08:37:57.000Z</time>
      </trkpt>
      <trkpt lat="43.48097" lon="5.24672">
        <ele>79</ele>
        <time>2022-10-02T08:37:58.000Z</time>
      </trkpt>
      <trkpt lat="43.48098" lon="5.2467">
        <ele>79</ele>
        <time>2022-10-02T08:37:59.000Z</time>
      </trkpt>
      <trkpt lat="43.48098" lon="5.24667">
        <ele>79</ele>
        <time>2022-10-02T08:38:00.000Z</time>
      </trkpt>
      <trkpt lat="43.48098" lon="5.24665">
        <ele>79</ele>
        <time>2022-10-02T08:38:01.000Z</time>
      </trkpt>
      <trkpt lat="43.48098" lon="5.24662">
        <ele>79</ele>
        <time>2022-10-02T08:38:02.000Z</time>
      </trkpt>
      <trkpt lat="43.48098" lon="5.24659">
        <ele>79</ele>
        <time>2022-10-02T08:38:03.000Z</time>
      </trkpt>
      <trkpt lat="43.48098" lon="5.24657">
        <ele>79</ele>
        <time>2022-10-02T08:38:04.000Z</time>
      </trkpt>
      <trkpt lat="43.48099" lon="5.24654">
        <ele>78</ele>
        <time>2022-10-02T08:38:05.000Z</time>
      </trkpt>
      <trkpt lat="43.48099" lon="5.24652">
        <ele>78</ele>
        <time>2022-10-02T08:38:06.000Z</time>
      </trkpt>
      <trkpt lat="43.48099" lon="5.2465">
        <ele>78</ele>
        <time>2022-10-02T08:38:07.000Z</time>
      </trkpt>
      <trkpt lat="43.481" lon="5.24647">
        <ele>78</ele>
        <time>2022-10-02T08:38:08.000Z</time>
      </trkpt>
      <trkpt lat="43.481" lon="5.24645">
        <ele>78</ele>
        <time>2022-10-02T08:38:09.000Z</time>
      </trkpt>
      <trkpt lat="43.48101" lon="5.24643">
        <ele>78</ele>
        <time>2022-10-02T08:38:10.000Z</time>
      </trkpt>
      <trkpt lat="43.48102" lon="5.24641">
        <ele>78</ele>
        <time>2022-10-02T08:38:11.000Z</time>
      </trkpt>
      <trkpt lat="43.48102" lon="5.24639">
        <ele>78</ele>
        <time>2022-10-02T08:38:12.000Z</time>
      </trkpt>
      <trkpt lat="43.48103" lon="5.24636">
        <ele>78</ele>
        <time>2022-10-02T08:38:13.000Z</time>
      </trkpt>
      <trkpt lat="43.48103" lon="5.24634">
        <ele>78</ele>
        <time>2022-10-02T08:38:14.000Z</time>
      </trkpt>
      <trkpt lat="43.48103" lon="5.24632">
        <ele>78</ele>
        <time>2022-10-02T08:38:15.000Z</time>
      </trkpt>
      <trkpt lat="43.48104" lon="5.2463">
        <ele>78</ele>
        <time>2022-10-02T08:38:16.000Z</time>
      </trkpt>
      <trkpt lat="43.48104" lon="5.24627">
        <ele>77</ele>
        <time>2022-10-02T08:38:17.000Z</time>
      </trkpt>
      <trkpt lat="43.48105" lon="5.24625">
        <ele>77</ele>
        <time>2022-10-02T08:38:18.000Z</time>
      </trkpt>
      <trkpt lat="43.48106" lon="5.24623">
        <ele>77</ele>
        <time>2022-10-02T08:38:19.000Z</time>
      </trkpt>
      <trkpt lat="43.48106" lon="5.24621">
        <ele>77</ele>
        <time>2022-10-02T08:38:20.000Z</time>
      </trkpt>
      <trkpt lat="43.48107" lon="5.24619">
        <ele>77</ele>
        <time>2022-10-02T08:38:21.000Z</time>
      </trkpt>
      <trkpt lat="43.48107" lon="5.24617">
        <ele>77</ele>
        <time>2022-10-02T08:38:22.000Z</time>
      </trkpt>
      <trkpt lat="43.48108" lon="5.24615">
        <ele>77</ele>
        <time>2022-10-02T08:38:23.000Z</time>
      </trkpt>
      <trkpt lat="43.48109" lon="5.24613">
        <ele>77</ele>
        <time>2022-10-02T08:38:24.000Z</time>
      </trkpt>
      <trkpt lat="43.4811" lon="5.24611">
        <ele>77</ele>
        <time>2022-10-02T08:38:25.000Z</time>
      </trkpt>
      <trkpt lat="43.48111" lon="5.24609">
        <ele>77</ele>
        <time>2022-10-02T08:38:26.000Z</time>
      </trkpt>
      <trkpt lat="43.48111" lon="5.24607">
        <ele>77</ele>
        <time>2022-10-02T08:38:27.000Z</time>
      </trkpt>
      <trkpt lat="43.48112" lon="5.24605">
        <ele>77</ele>
        <time>2022-10-02T08:38:28.000Z</time>
      </trkpt>
      <trkpt lat="43.48113" lon="5.24603">
        <ele>77</ele>
        <time>2022-10-02T08:38:29.000Z</time>
      </trkpt>
      <trkpt lat="43.48114" lon="5.24601">
        <ele>76</ele>
        <time>2022-10-02T08:38:30.000Z</time>
      </trkpt>
      <trkpt lat="43.48114" lon="5.24599">
        <ele>76</ele>
        <time>2022-10-02T08:38:31.000Z</time>
      </trkpt>
      <trkpt lat="43.48115" lon="5.24598">
        <ele>76</ele>
        <time>2022-10-02T08:38:32.000Z</time>
      </trkpt>
      <trkpt lat="43.48116" lon="5.24596">
        <ele>76</ele>
        <time>2022-10-02T08:38:33.000Z</time>
      </trkpt>
      <trkpt lat="43.48117" lon="5.24594">
        <ele>76</ele>
        <time>2022-10-02T08:38:34.000Z</time>
      </trkpt>
      <trkpt lat="43.48117" lon="5.24592">
        <ele>76</ele>
        <time>2022-10-02T08:38:35.000Z</time>
      </trkpt>
      <trkpt lat="43.48118" lon="5.2459">
        <ele>76</ele>
        <time>2022-10-02T08:38:36.000Z</time>
      </trkpt>
      <trkpt lat="43.48119" lon="5.24587">
        <ele>76</ele>
        <time>2022-10-02T08:38:37.000Z</time>
      </trkpt>
      <trkpt lat="43.4812" lon="5.24585">
        <ele>76</ele>
        <time>2022-10-02T08:38:38.000Z</time>
      </trkpt>
      <trkpt lat="43.48121" lon="5.24583">
        <ele>75</ele>
        <time>2022-10-02T08:38:39.000Z</time>
      </trkpt>
      <trkpt lat="43.48122" lon="5.24582">
        <ele>75</ele>
        <time>2022-10-02T08:38:40.000Z</time>
      </trkpt>
      <trkpt lat="43.48123" lon="5.2458">
        <ele>75</ele>
        <time>2022-10-02T08:38:41.000Z</time>
      </trkpt>
      <trkpt lat="43.48124" lon="5.24578">
        <ele>75</ele>
        <time>2022-10-02T08:38:42.000Z</time>
      </trkpt>
      <trkpt lat="43.48125" lon="5.24576">
        <ele>75</ele>
        <time>2022-10-02T08:38:43.000Z</time>
      </trkpt>
      <trkpt lat="43.48126" lon="5.24573">
        <ele>74</ele>
        <time>2022-10-02T08:38:44.000Z</time>
      </trkpt>
      <trkpt lat="43.48127" lon="5.24571">
        <ele>74</ele>
        <time>2022-10-02T08:38:45.000Z</time>
      </trkpt>
      <trkpt lat="43.48127" lon="5.24569">
        <ele>74</ele>
        <time>2022-10-02T08:38:46.000Z</time>
      </trkpt>
      <trkpt lat="43.48128" lon="5.24567">
        <ele>74</ele>
        <time>2022-10-02T08:38:47.000Z</time>
      </trkpt>
      <trkpt lat="43.48129" lon="5.24565">
        <ele>74</ele>
        <time>2022-10-02T08:38:48.000Z</time>
      </trkpt>
      <trkpt lat="43.4813" lon="5.24563">
        <ele>74</ele>
        <time>2022-10-02T08:38:49.000Z</time>
      </trkpt>
      <trkpt lat="43.48131" lon="5.2456">
        <ele>74</ele>
        <time>2022-10-02T08:38:50.000Z</time>
      </trkpt>
      <trkpt lat="43.48131" lon="5.24558">
        <ele>73</ele>
        <time>2022-10-02T08:38:51.000Z</time>
      </trkpt>
      <trkpt lat="43.48132" lon="5.24556">
        <ele>73</ele>
        <time>2022-10-02T08:38:52.000Z</time>
      </trkpt>
      <trkpt lat="43.48132" lon="5.24553">
        <ele>73</ele>
        <time>2022-10-02T08:38:53.000Z</time>
      </trkpt>
      <trkpt lat="43.48133" lon="5.2455">
        <ele>73</ele>
        <time>2022-10-02T08:38:54.000Z</time>
      </trkpt>
      <trkpt lat="43.48133" lon="5.24548">
        <ele>73</ele>
        <time>2022-10-02T08:38:55.000Z</time>
      </trkpt>
      <trkpt lat="43.48134" lon="5.24546">
        <ele>73</ele>
        <time>2022-10-02T08:38:56.000Z</time>
      </trkpt>
      <trkpt lat="43.48134" lon="5.24544">
        <ele>73</ele>
        <time>2022-10-02T08:38:57.000Z</time>
      </trkpt>
      <trkpt lat="43.48134" lon="5.24542">
        <ele>73</ele>
        <time>2022-10-02T08:38:58.000Z</time>
      </trkpt>
      <trkpt lat="43.48135" lon="5.24539">
        <ele>73</ele>
        <time>2022-10-02T08:38:59.000Z</time>
      </trkpt>
      <trkpt lat="43.48135" lon="5.24537">
        <ele>73</ele>
        <time>2022-10-02T08:39:00.000Z</time>
      </trkpt>
      <trkpt lat="43.48135" lon="5.24535">
        <ele>73</ele>
        <time>2022-10-02T08:39:01.000Z</time>
      </trkpt>
      <trkpt lat="43.48135" lon="5.24533">
        <ele>73</ele>
        <time>2022-10-02T08:39:02.000Z</time>
      </trkpt>
      <trkpt lat="43.48135" lon="5.24531">
        <ele>73</ele>
        <time>2022-10-02T08:39:03.000Z</time>
      </trkpt>
      <trkpt lat="43.48136" lon="5.24529">
        <ele>73</ele>
        <time>2022-10-02T08:39:04.000Z</time>
      </trkpt>
      <trkpt lat="43.48136" lon="5.24526">
        <ele>73</ele>
        <time>2022-10-02T08:39:05.000Z</time>
      </trkpt>
      <trkpt lat="43.48136" lon="5.24524">
        <ele>73</ele>
        <time>2022-10-02T08:39:06.000Z</time>
      </trkpt>
      <trkpt lat="43.48136" lon="5.24521">
        <ele>73</ele>
        <time>2022-10-02T08:39:07.000Z</time>
      </trkpt>
      <trkpt lat="43.48136" lon="5.24519">
        <ele>73</ele>
        <time>2022-10-02T08:39:08.000Z</time>
      </trkpt>
      <trkpt lat="43.48136" lon="5.24517">
        <ele>73</ele>
        <time>2022-10-02T08:39:09.000Z</time>
      </trkpt>
      <trkpt lat="43.48136" lon="5.24514">
        <ele>73</ele>
        <time>2022-10-02T08:39:10.000Z</time>
      </trkpt>
      <trkpt lat="43.48136" lon="5.24512">
        <ele>73</ele>
        <time>2022-10-02T08:39:11.000Z</time>
      </trkpt>
      <trkpt lat="43.48136" lon="5.24509">
        <ele>73</ele>
        <time>2022-10-02T08:39:12.000Z</time>
      </trkpt>
      <trkpt lat="43.48136" lon="5.24507">
        <ele>73</ele>
        <time>2022-10-02T08:39:13.000Z</time>
      </trkpt>
      <trkpt lat="43.48136" lon="5.24504">
        <ele>73</ele>
        <time>2022-10-02T08:39:14.000Z</time>
      </trkpt>
      <trkpt lat="43.48136" lon="5.24502">
        <ele>73</ele>
        <time>2022-10-02T08:39:15.000Z</time>
      </trkpt>
      <trkpt lat="43.48136" lon="5.24499">
        <ele>73</ele>
        <time>2022-10-02T08:39:16.000Z</time>
      </trkpt>
      <trkpt lat="43.48137" lon="5.24497">
        <ele>73</ele>
        <time>2022-10-02T08:39:17.000Z</time>
      </trkpt>
      <trkpt lat="43.48137" lon="5.24495">
        <ele>73</ele>
        <time>2022-10-02T08:39:18.000Z</time>
      </trkpt>
      <trkpt lat="43.48137" lon="5.24493">
        <ele>73</ele>
        <time>2022-10-02T08:39:19.000Z</time>
      </trkpt>
      <trkpt lat="43.48137" lon="5.24491">
        <ele>73</ele>
        <time>2022-10-02T08:39:20.000Z</time>
      </trkpt>
      <trkpt lat="43.48138" lon="5.24488">
        <ele>73</ele>
        <time>2022-10-02T08:39:21.000Z</time>
      </trkpt>
      <trkpt lat="43.48138" lon="5.24486">
        <ele>73</ele>
        <time>2022-10-02T08:39:22.000Z</time>
      </trkpt>
      <trkpt lat="43.48138" lon="5.24483">
        <ele>73</ele>
        <time>2022-10-02T08:39:23.000Z</time>
      </trkpt>
      <trkpt lat="43.48139" lon="5.24481">
        <ele>73</ele>
        <time>2022-10-02T08:39:24.000Z</time>
      </trkpt>
      <trkpt lat="43.48139" lon="5.24478">
        <ele>73</ele>
        <time>2022-10-02T08:39:25.000Z</time>
      </trkpt>
      <trkpt lat="43.48139" lon="5.24475">
        <ele>73</ele>
        <time>2022-10-02T08:39:26.000Z</time>
      </trkpt>
      <trkpt lat="43.4814" lon="5.24473">
        <ele>73</ele>
        <time>2022-10-02T08:39:27.000Z</time>
      </trkpt>
      <trkpt lat="43.4814" lon="5.2447">
        <ele>73</ele>
        <time>2022-10-02T08:39:28.000Z</time>
      </trkpt>
      <trkpt lat="43.4814" lon="5.24468">
        <ele>73</ele>
        <time>2022-10-02T08:39:29.000Z</time>
      </trkpt>
      <trkpt lat="43.48141" lon="5.24465">
        <ele>73</ele>
        <time>2022-10-02T08:39:30.000Z</time>
      </trkpt>
      <trkpt lat="43.48141" lon="5.24463">
        <ele>73</ele>
        <time>2022-10-02T08:39:31.000Z</time>
      </trkpt>
      <trkpt lat="43.48141" lon="5.24461">
        <ele>73</ele>
        <time>2022-10-02T08:39:32.000Z</time>
      </trkpt>
      <trkpt lat="43.48141" lon="5.24459">
        <ele>73</ele>
        <time>2022-10-02T08:39:33.000Z</time>
      </trkpt>
      <trkpt lat="43.48141" lon="5.24456">
        <ele>73</ele>
        <time>2022-10-02T08:39:34.000Z</time>
      </trkpt>
      <trkpt lat="43.48141" lon="5.24454">
        <ele>73</ele>
        <time>2022-10-02T08:39:35.000Z</time>
      </trkpt>
      <trkpt lat="43.48141" lon="5.24452">
        <ele>73</ele>
        <time>2022-10-02T08:39:36.000Z</time>
      </trkpt>
      <trkpt lat="43.48141" lon="5.24449">
        <ele>73</ele>
        <time>2022-10-02T08:39:37.000Z</time>
      </trkpt>
      <trkpt lat="43.48141" lon="5.24447">
        <ele>73</ele>
        <time>2022-10-02T08:39:38.000Z</time>
      </trkpt>
      <trkpt lat="43.48141" lon="5.24444">
        <ele>73</ele>
        <time>2022-10-02T08:39:39.000Z</time>
      </trkpt>
      <trkpt lat="43.48141" lon="5.24442">
        <ele>73</ele>
        <time>2022-10-02T08:39:40.000Z</time>
      </trkpt>
      <trkpt lat="43.48141" lon="5.2444">
        <ele>73</ele>
        <time>2022-10-02T08:39:41.000Z</time>
      </trkpt>
      <trkpt lat="43.48141" lon="5.24438">
        <ele>73</ele>
        <time>2022-10-02T08:39:42.000Z</time>
      </trkpt>
      <trkpt lat="43.48142" lon="5.24436">
        <ele>73</ele>
        <time>2022-10-02T08:39:43.000Z</time>
      </trkpt>
      <trkpt lat="43.48142" lon="5.24434">
        <ele>73</ele>
        <time>2022-10-02T08:39:44.000Z</time>
      </trkpt>
      <trkpt lat="43.48143" lon="5.24432">
        <ele>73</ele>
        <time>2022-10-02T08:39:45.000Z</time>
      </trkpt>
      <trkpt lat="43.48144" lon="5.2443">
        <ele>73</ele>
        <time>2022-10-02T08:39:46.000Z</time>
      </trkpt>
      <trkpt lat="43.48144" lon="5.24428">
        <ele>73</ele>
        <time>2022-10-02T08:39:47.000Z</time>
      </trkpt>
      <trkpt lat="43.48145" lon="5.24425">
        <ele>73</ele>
        <time>2022-10-02T08:39:48.000Z</time>
      </trkpt>
      <trkpt lat="43.48146" lon="5.24424">
        <ele>73</ele>
        <time>2022-10-02T08:39:49.000Z</time>
      </trkpt>
      <trkpt lat="43.48147" lon="5.24422">
        <ele>72</ele>
        <time>2022-10-02T08:39:50.000Z</time>
      </trkpt>
      <trkpt lat="43.48147" lon="5.2442">
        <ele>72</ele>
        <time>2022-10-02T08:39:51.000Z</time>
      </trkpt>
      <trkpt lat="43.48148" lon="5.24418">
        <ele>72</ele>
        <time>2022-10-02T08:39:52.000Z</time>
      </trkpt>
      <trkpt lat="43.48149" lon="5.24416">
        <ele>72</ele>
        <time>2022-10-02T08:39:53.000Z</time>
      </trkpt>
      <trkpt lat="43.48149" lon="5.24414">
        <ele>72</ele>
        <time>2022-10-02T08:39:54.000Z</time>
      </trkpt>
      <trkpt lat="43.4815" lon="5.24412">
        <ele>72</ele>
        <time>2022-10-02T08:39:55.000Z</time>
      </trkpt>
      <trkpt lat="43.48151" lon="5.2441">
        <ele>72</ele>
        <time>2022-10-02T08:39:56.000Z</time>
      </trkpt>
      <trkpt lat="43.48152" lon="5.24409">
        <ele>72</ele>
        <time>2022-10-02T08:39:57.000Z</time>
      </trkpt>
      <trkpt lat="43.48153" lon="5.24407">
        <ele>71</ele>
        <time>2022-10-02T08:39:58.000Z</time>
      </trkpt>
      <trkpt lat="43.48155" lon="5.24405">
        <ele>71</ele>
        <time>2022-10-02T08:39:59.000Z</time>
      </trkpt>
      <trkpt lat="43.48156" lon="5.24403">
        <ele>71</ele>
        <time>2022-10-02T08:40:00.000Z</time>
      </trkpt>
      <trkpt lat="43.48157" lon="5.24402">
        <ele>71</ele>
        <time>2022-10-02T08:40:01.000Z</time>
      </trkpt>
      <trkpt lat="43.48158" lon="5.244">
        <ele>71</ele>
        <time>2022-10-02T08:40:02.000Z</time>
      </trkpt>
      <trkpt lat="43.48159" lon="5.24398">
        <ele>71</ele>
        <time>2022-10-02T08:40:03.000Z</time>
      </trkpt>
      <trkpt lat="43.4816" lon="5.24397">
        <ele>71</ele>
        <time>2022-10-02T08:40:04.000Z</time>
      </trkpt>
      <trkpt lat="43.48162" lon="5.24395">
        <ele>70</ele>
        <time>2022-10-02T08:40:05.000Z</time>
      </trkpt>
      <trkpt lat="43.48163" lon="5.24394">
        <ele>70</ele>
        <time>2022-10-02T08:40:06.000Z</time>
      </trkpt>
      <trkpt lat="43.48164" lon="5.24392">
        <ele>70</ele>
        <time>2022-10-02T08:40:07.000Z</time>
      </trkpt>
      <trkpt lat="43.48165" lon="5.2439">
        <ele>70</ele>
        <time>2022-10-02T08:40:08.000Z</time>
      </trkpt>
      <trkpt lat="43.48166" lon="5.24388">
        <ele>70</ele>
        <time>2022-10-02T08:40:09.000Z</time>
      </trkpt>
      <trkpt lat="43.48168" lon="5.24385">
        <ele>70</ele>
        <time>2022-10-02T08:40:10.000Z</time>
      </trkpt>
      <trkpt lat="43.48169" lon="5.24383">
        <ele>70</ele>
        <time>2022-10-02T08:40:11.000Z</time>
      </trkpt>
      <trkpt lat="43.4817" lon="5.24381">
        <ele>70</ele>
        <time>2022-10-02T08:40:12.000Z</time>
      </trkpt>
      <trkpt lat="43.48171" lon="5.24379">
        <ele>70</ele>
        <time>2022-10-02T08:40:13.000Z</time>
      </trkpt>
      <trkpt lat="43.48171" lon="5.24376">
        <ele>69</ele>
        <time>2022-10-02T08:40:14.000Z</time>
      </trkpt>
      <trkpt lat="43.48171" lon="5.24374">
        <ele>69</ele>
        <time>2022-10-02T08:40:15.000Z</time>
      </trkpt>
      <trkpt lat="43.48172" lon="5.24372">
        <ele>69</ele>
        <time>2022-10-02T08:40:16.000Z</time>
      </trkpt>
      <trkpt lat="43.48172" lon="5.2437">
        <ele>69</ele>
        <time>2022-10-02T08:40:17.000Z</time>
      </trkpt>
      <trkpt lat="43.48172" lon="5.24367">
        <ele>69</ele>
        <time>2022-10-02T08:40:18.000Z</time>
      </trkpt>
      <trkpt lat="43.48172" lon="5.24365">
        <ele>69</ele>
        <time>2022-10-02T08:40:19.000Z</time>
      </trkpt>
      <trkpt lat="43.48172" lon="5.24363">
        <ele>69</ele>
        <time>2022-10-02T08:40:20.000Z</time>
      </trkpt>
      <trkpt lat="43.48172" lon="5.2436">
        <ele>69</ele>
        <time>2022-10-02T08:40:21.000Z</time>
      </trkpt>
      <trkpt lat="43.48172" lon="5.24358">
        <ele>69</ele>
        <time>2022-10-02T08:40:22.000Z</time>
      </trkpt>
      <trkpt lat="43.48172" lon="5.24356">
        <ele>69</ele>
        <time>2022-10-02T08:40:23.000Z</time>
      </trkpt>
      <trkpt lat="43.48172" lon="5.24353">
        <ele>68</ele>
        <time>2022-10-02T08:40:24.000Z</time>
      </trkpt>
      <trkpt lat="43.48172" lon="5.24351">
        <ele>68</ele>
        <time>2022-10-02T08:40:25.000Z</time>
      </trkpt>
      <trkpt lat="43.48173" lon="5.24349">
        <ele>68</ele>
        <time>2022-10-02T08:40:26.000Z</time>
      </trkpt>
      <trkpt lat="43.48173" lon="5.24346">
        <ele>68</ele>
        <time>2022-10-02T08:40:27.000Z</time>
      </trkpt>
      <trkpt lat="43.48173" lon="5.24344">
        <ele>68</ele>
        <time>2022-10-02T08:40:28.000Z</time>
      </trkpt>
      <trkpt lat="43.48173" lon="5.24341">
        <ele>67</ele>
        <time>2022-10-02T08:40:29.000Z</time>
      </trkpt>
      <trkpt lat="43.48173" lon="5.24339">
        <ele>67</ele>
        <time>2022-10-02T08:40:30.000Z</time>
      </trkpt>
      <trkpt lat="43.48173" lon="5.24337">
        <ele>67</ele>
        <time>2022-10-02T08:40:31.000Z</time>
      </trkpt>
      <trkpt lat="43.48173" lon="5.24335">
        <ele>67</ele>
        <time>2022-10-02T08:40:32.000Z</time>
      </trkpt>
      <trkpt lat="43.48174" lon="5.24332">
        <ele>67</ele>
        <time>2022-10-02T08:40:33.000Z</time>
      </trkpt>
      <trkpt lat="43.48174" lon="5.2433">
        <ele>67</ele>
        <time>2022-10-02T08:40:34.000Z</time>
      </trkpt>
      <trkpt lat="43.48174" lon="5.24328">
        <ele>67</ele>
        <time>2022-10-02T08:40:35.000Z</time>
      </trkpt>
      <trkpt lat="43.48174" lon="5.24325">
        <ele>67</ele>
        <time>2022-10-02T08:40:36.000Z</time>
      </trkpt>
      <trkpt lat="43.48174" lon="5.24323">
        <ele>67</ele>
        <time>2022-10-02T08:40:37.000Z</time>
      </trkpt>
      <trkpt lat="43.48174" lon="5.24321">
        <ele>66</ele>
        <time>2022-10-02T08:40:38.000Z</time>
      </trkpt>
      <trkpt lat="43.48174" lon="5.24318">
        <ele>66</ele>
        <time>2022-10-02T08:40:39.000Z</time>
      </trkpt>
      <trkpt lat="43.48174" lon="5.24316">
        <ele>66</ele>
        <time>2022-10-02T08:40:40.000Z</time>
      </trkpt>
      <trkpt lat="43.48174" lon="5.24314">
        <ele>66</ele>
        <time>2022-10-02T08:40:41.000Z</time>
      </trkpt>
      <trkpt lat="43.48173" lon="5.24311">
        <ele>66</ele>
        <time>2022-10-02T08:40:42.000Z</time>
      </trkpt>
      <trkpt lat="43.48174" lon="5.24309">
        <ele>66</ele>
        <time>2022-10-02T08:40:43.000Z</time>
      </trkpt>
      <trkpt lat="43.48174" lon="5.24307">
        <ele>66</ele>
        <time>2022-10-02T08:40:44.000Z</time>
      </trkpt>
      <trkpt lat="43.48174" lon="5.24305">
        <ele>66</ele>
        <time>2022-10-02T08:40:45.000Z</time>
      </trkpt>
      <trkpt lat="43.48174" lon="5.24303">
        <ele>66</ele>
        <time>2022-10-02T08:40:46.000Z</time>
      </trkpt>
      <trkpt lat="43.48175" lon="5.24301">
        <ele>66</ele>
        <time>2022-10-02T08:40:47.000Z</time>
      </trkpt>
      <trkpt lat="43.48175" lon="5.24299">
        <ele>66</ele>
        <time>2022-10-02T08:40:48.000Z</time>
      </trkpt>
      <trkpt lat="43.48176" lon="5.24298">
        <ele>66</ele>
        <time>2022-10-02T08:40:49.000Z</time>
      </trkpt>
      <trkpt lat="43.48176" lon="5.24296">
        <ele>66</ele>
        <time>2022-10-02T08:40:50.000Z</time>
      </trkpt>
      <trkpt lat="43.48176" lon="5.24294">
        <ele>66</ele>
        <time>2022-10-02T08:40:51.000Z</time>
      </trkpt>
      <trkpt lat="43.48176" lon="5.24293">
        <ele>66</ele>
        <time>2022-10-02T08:40:52.000Z</time>
      </trkpt>
      <trkpt lat="43.48176" lon="5.24291">
        <ele>66</ele>
        <time>2022-10-02T08:40:53.000Z</time>
      </trkpt>
      <trkpt lat="43.48177" lon="5.24289">
        <ele>66</ele>
        <time>2022-10-02T08:40:54.000Z</time>
      </trkpt>
      <trkpt lat="43.48177" lon="5.24288">
        <ele>66</ele>
        <time>2022-10-02T08:40:55.000Z</time>
      </trkpt>
      <trkpt lat="43.48177" lon="5.24286">
        <ele>66</ele>
        <time>2022-10-02T08:40:56.000Z</time>
      </trkpt>
      <trkpt lat="43.48178" lon="5.24284">
        <ele>66</ele>
        <time>2022-10-02T08:40:57.000Z</time>
      </trkpt>
      <trkpt lat="43.48178" lon="5.24282">
        <ele>66</ele>
        <time>2022-10-02T08:40:58.000Z</time>
      </trkpt>
      <trkpt lat="43.48178" lon="5.2428">
        <ele>66</ele>
        <time>2022-10-02T08:40:59.000Z</time>
      </trkpt>
      <trkpt lat="43.48178" lon="5.24277">
        <ele>66</ele>
        <time>2022-10-02T08:41:00.000Z</time>
      </trkpt>
      <trkpt lat="43.48178" lon="5.24275">
        <ele>66</ele>
        <time>2022-10-02T08:41:01.000Z</time>
      </trkpt>
      <trkpt lat="43.48178" lon="5.24272">
        <ele>66</ele>
        <time>2022-10-02T08:41:02.000Z</time>
      </trkpt>
      <trkpt lat="43.48178" lon="5.2427">
        <ele>66</ele>
        <time>2022-10-02T08:41:03.000Z</time>
      </trkpt>
      <trkpt lat="43.48178" lon="5.24268">
        <ele>66</ele>
        <time>2022-10-02T08:41:04.000Z</time>
      </trkpt>
      <trkpt lat="43.48178" lon="5.24265">
        <ele>65</ele>
        <time>2022-10-02T08:41:05.000Z</time>
      </trkpt>
      <trkpt lat="43.48178" lon="5.24263">
        <ele>66</ele>
        <time>2022-10-02T08:41:06.000Z</time>
      </trkpt>
      <trkpt lat="43.48178" lon="5.24261">
        <ele>66</ele>
        <time>2022-10-02T08:41:07.000Z</time>
      </trkpt>
      <trkpt lat="43.48178" lon="5.24258">
        <ele>66</ele>
        <time>2022-10-02T08:41:08.000Z</time>
      </trkpt>
      <trkpt lat="43.48178" lon="5.24256">
        <ele>66</ele>
        <time>2022-10-02T08:41:09.000Z</time>
      </trkpt>
      <trkpt lat="43.48178" lon="5.24253">
        <ele>66</ele>
        <time>2022-10-02T08:41:10.000Z</time>
      </trkpt>
      <trkpt lat="43.48179" lon="5.24251">
        <ele>65</ele>
        <time>2022-10-02T08:41:11.000Z</time>
      </trkpt>
      <trkpt lat="43.48179" lon="5.24249">
        <ele>65</ele>
        <time>2022-10-02T08:41:12.000Z</time>
      </trkpt>
      <trkpt lat="43.48179" lon="5.24247">
        <ele>65</ele>
        <time>2022-10-02T08:41:13.000Z</time>
      </trkpt>
      <trkpt lat="43.48179" lon="5.24245">
        <ele>65</ele>
        <time>2022-10-02T08:41:14.000Z</time>
      </trkpt>
      <trkpt lat="43.48179" lon="5.24243">
        <ele>66</ele>
        <time>2022-10-02T08:41:15.000Z</time>
      </trkpt>
      <trkpt lat="43.48179" lon="5.24241">
        <ele>66</ele>
        <time>2022-10-02T08:41:16.000Z</time>
      </trkpt>
      <trkpt lat="43.4818" lon="5.24239">
        <ele>66</ele>
        <time>2022-10-02T08:41:17.000Z</time>
      </trkpt>
      <trkpt lat="43.4818" lon="5.24237">
        <ele>66</ele>
        <time>2022-10-02T08:41:18.000Z</time>
      </trkpt>
      <trkpt lat="43.4818" lon="5.24234">
        <ele>66</ele>
        <time>2022-10-02T08:41:19.000Z</time>
      </trkpt>
      <trkpt lat="43.4818" lon="5.24232">
        <ele>66</ele>
        <time>2022-10-02T08:41:20.000Z</time>
      </trkpt>
      <trkpt lat="43.4818" lon="5.24229">
        <ele>66</ele>
        <time>2022-10-02T08:41:21.000Z</time>
      </trkpt>
      <trkpt lat="43.4818" lon="5.24227">
        <ele>66</ele>
        <time>2022-10-02T08:41:22.000Z</time>
      </trkpt>
      <trkpt lat="43.4818" lon="5.24225">
        <ele>66</ele>
        <time>2022-10-02T08:41:23.000Z</time>
      </trkpt>
      <trkpt lat="43.4818" lon="5.24223">
        <ele>66</ele>
        <time>2022-10-02T08:41:24.000Z</time>
      </trkpt>
      <trkpt lat="43.4818" lon="5.24221">
        <ele>66</ele>
        <time>2022-10-02T08:41:25.000Z</time>
      </trkpt>
      <trkpt lat="43.48181" lon="5.24218">
        <ele>66</ele>
        <time>2022-10-02T08:41:26.000Z</time>
      </trkpt>
      <trkpt lat="43.48181" lon="5.24216">
        <ele>66</ele>
        <time>2022-10-02T08:41:27.000Z</time>
      </trkpt>
      <trkpt lat="43.48181" lon="5.24213">
        <ele>66</ele>
        <time>2022-10-02T08:41:28.000Z</time>
      </trkpt>
      <trkpt lat="43.48181" lon="5.24211">
        <ele>65</ele>
        <time>2022-10-02T08:41:29.000Z</time>
      </trkpt>
      <trkpt lat="43.48181" lon="5.24209">
        <ele>65</ele>
        <time>2022-10-02T08:41:30.000Z</time>
      </trkpt>
      <trkpt lat="43.48181" lon="5.24206">
        <ele>65</ele>
        <time>2022-10-02T08:41:31.000Z</time>
      </trkpt>
      <trkpt lat="43.48181" lon="5.24204">
        <ele>65</ele>
        <time>2022-10-02T08:41:32.000Z</time>
      </trkpt>
      <trkpt lat="43.48181" lon="5.24202">
        <ele>65</ele>
        <time>2022-10-02T08:41:33.000Z</time>
      </trkpt>
      <trkpt lat="43.48181" lon="5.24199">
        <ele>65</ele>
        <time>2022-10-02T08:41:34.000Z</time>
      </trkpt>
      <trkpt lat="43.48182" lon="5.24196">
        <ele>65</ele>
        <time>2022-10-02T08:41:35.000Z</time>
      </trkpt>
      <trkpt lat="43.48182" lon="5.24194">
        <ele>65</ele>
        <time>2022-10-02T08:41:36.000Z</time>
      </trkpt>
      <trkpt lat="43.48182" lon="5.24192">
        <ele>65</ele>
        <time>2022-10-02T08:41:37.000Z</time>
      </trkpt>
      <trkpt lat="43.48182" lon="5.2419">
        <ele>65</ele>
        <time>2022-10-02T08:41:38.000Z</time>
      </trkpt>
      <trkpt lat="43.48183" lon="5.24188">
        <ele>65</ele>
        <time>2022-10-02T08:41:39.000Z</time>
      </trkpt>
      <trkpt lat="43.48183" lon="5.24186">
        <ele>65</ele>
        <time>2022-10-02T08:41:40.000Z</time>
      </trkpt>
      <trkpt lat="43.48183" lon="5.24185">
        <ele>64</ele>
        <time>2022-10-02T08:41:41.000Z</time>
      </trkpt>
      <trkpt lat="43.48183" lon="5.24183">
        <ele>64</ele>
        <time>2022-10-02T08:41:42.000Z</time>
      </trkpt>
      <trkpt lat="43.48183" lon="5.24181">
        <ele>64</ele>
        <time>2022-10-02T08:41:43.000Z</time>
      </trkpt>
      <trkpt lat="43.48183" lon="5.24179">
        <ele>64</ele>
        <time>2022-10-02T08:41:44.000Z</time>
      </trkpt>
      <trkpt lat="43.48182" lon="5.24177">
        <ele>64</ele>
        <time>2022-10-02T08:41:45.000Z</time>
      </trkpt>
      <trkpt lat="43.48182" lon="5.24175">
        <ele>63</ele>
        <time>2022-10-02T08:41:46.000Z</time>
      </trkpt>
      <trkpt lat="43.48182" lon="5.24172">
        <ele>63</ele>
        <time>2022-10-02T08:41:47.000Z</time>
      </trkpt>
      <trkpt lat="43.48182" lon="5.2417">
        <ele>63</ele>
        <time>2022-10-02T08:41:48.000Z</time>
      </trkpt>
      <trkpt lat="43.48182" lon="5.24168">
        <ele>63</ele>
        <time>2022-10-02T08:41:49.000Z</time>
      </trkpt>
      <trkpt lat="43.48182" lon="5.24165">
        <ele>63</ele>
        <time>2022-10-02T08:41:50.000Z</time>
      </trkpt>
      <trkpt lat="43.48181" lon="5.24163">
        <ele>63</ele>
        <time>2022-10-02T08:41:51.000Z</time>
      </trkpt>
      <trkpt lat="43.48182" lon="5.24161">
        <ele>63</ele>
        <time>2022-10-02T08:41:52.000Z</time>
      </trkpt>
      <trkpt lat="43.48182" lon="5.24159">
        <ele>63</ele>
        <time>2022-10-02T08:41:53.000Z</time>
      </trkpt>
      <trkpt lat="43.48182" lon="5.24157">
        <ele>63</ele>
        <time>2022-10-02T08:41:54.000Z</time>
      </trkpt>
      <trkpt lat="43.48182" lon="5.24155">
        <ele>63</ele>
        <time>2022-10-02T08:41:55.000Z</time>
      </trkpt>
      <trkpt lat="43.48182" lon="5.24152">
        <ele>63</ele>
        <time>2022-10-02T08:41:56.000Z</time>
      </trkpt>
      <trkpt lat="43.48182" lon="5.2415">
        <ele>63</ele>
        <time>2022-10-02T08:41:57.000Z</time>
      </trkpt>
      <trkpt lat="43.48182" lon="5.24148">
        <ele>63</ele>
        <time>2022-10-02T08:41:58.000Z</time>
      </trkpt>
      <trkpt lat="43.48182" lon="5.24145">
        <ele>63</ele>
        <time>2022-10-02T08:41:59.000Z</time>
      </trkpt>
      <trkpt lat="43.48182" lon="5.24143">
        <ele>62</ele>
        <time>2022-10-02T08:42:00.000Z</time>
      </trkpt>
      <trkpt lat="43.48182" lon="5.2414">
        <ele>62</ele>
        <time>2022-10-02T08:42:01.000Z</time>
      </trkpt>
      <trkpt lat="43.48182" lon="5.24138">
        <ele>62</ele>
        <time>2022-10-02T08:42:02.000Z</time>
      </trkpt>
      <trkpt lat="43.48182" lon="5.24135">
        <ele>62</ele>
        <time>2022-10-02T08:42:03.000Z</time>
      </trkpt>
      <trkpt lat="43.48182" lon="5.24133">
        <ele>61</ele>
        <time>2022-10-02T08:42:04.000Z</time>
      </trkpt>
      <trkpt lat="43.48183" lon="5.24131">
        <ele>61</ele>
        <time>2022-10-02T08:42:05.000Z</time>
      </trkpt>
      <trkpt lat="43.48183" lon="5.24128">
        <ele>60</ele>
        <time>2022-10-02T08:42:06.000Z</time>
      </trkpt>
      <trkpt lat="43.48184" lon="5.24126">
        <ele>60</ele>
        <time>2022-10-02T08:42:07.000Z</time>
      </trkpt>
      <trkpt lat="43.48184" lon="5.24124">
        <ele>60</ele>
        <time>2022-10-02T08:42:08.000Z</time>
      </trkpt>
      <trkpt lat="43.48185" lon="5.24122">
        <ele>60</ele>
        <time>2022-10-02T08:42:09.000Z</time>
      </trkpt>
      <trkpt lat="43.48185" lon="5.2412">
        <ele>59</ele>
        <time>2022-10-02T08:42:10.000Z</time>
      </trkpt>
      <trkpt lat="43.48186" lon="5.24118">
        <ele>59</ele>
        <time>2022-10-02T08:42:11.000Z</time>
      </trkpt>
      <trkpt lat="43.48187" lon="5.24117">
        <ele>59</ele>
        <time>2022-10-02T08:42:12.000Z</time>
      </trkpt>
      <trkpt lat="43.48188" lon="5.24115">
        <ele>58</ele>
        <time>2022-10-02T08:42:13.000Z</time>
      </trkpt>
      <trkpt lat="43.48189" lon="5.24113">
        <ele>58</ele>
        <time>2022-10-02T08:42:14.000Z</time>
      </trkpt>
      <trkpt lat="43.4819" lon="5.24112">
        <ele>58</ele>
        <time>2022-10-02T08:42:15.000Z</time>
      </trkpt>
      <trkpt lat="43.48191" lon="5.24111">
        <ele>57</ele>
        <time>2022-10-02T08:42:16.000Z</time>
      </trkpt>
      <trkpt lat="43.48193" lon="5.24111">
        <ele>57</ele>
        <time>2022-10-02T08:42:17.000Z</time>
      </trkpt>
      <trkpt lat="43.48195" lon="5.2411">
        <ele>57</ele>
        <time>2022-10-02T08:42:18.000Z</time>
      </trkpt>
      <trkpt lat="43.48197" lon="5.2411">
        <ele>57</ele>
        <time>2022-10-02T08:42:19.000Z</time>
      </trkpt>
      <trkpt lat="43.48199" lon="5.2411">
        <ele>56</ele>
        <time>2022-10-02T08:42:20.000Z</time>
      </trkpt>
      <trkpt lat="43.482" lon="5.2411">
        <ele>56</ele>
        <time>2022-10-02T08:42:21.000Z</time>
      </trkpt>
      <trkpt lat="43.48202" lon="5.2411">
        <ele>56</ele>
        <time>2022-10-02T08:42:22.000Z</time>
      </trkpt>
      <trkpt lat="43.48204" lon="5.2411">
        <ele>56</ele>
        <time>2022-10-02T08:42:23.000Z</time>
      </trkpt>
      <trkpt lat="43.48206" lon="5.2411">
        <ele>56</ele>
        <time>2022-10-02T08:42:24.000Z</time>
      </trkpt>
      <trkpt lat="43.48207" lon="5.2411">
        <ele>55</ele>
        <time>2022-10-02T08:42:25.000Z</time>
      </trkpt>
      <trkpt lat="43.48209" lon="5.2411">
        <ele>55</ele>
        <time>2022-10-02T08:42:26.000Z</time>
      </trkpt>
      <trkpt lat="43.4821" lon="5.2411">
        <ele>55</ele>
        <time>2022-10-02T08:42:27.000Z</time>
      </trkpt>
      <trkpt lat="43.48212" lon="5.2411">
        <ele>55</ele>
        <time>2022-10-02T08:42:28.000Z</time>
      </trkpt>
      <trkpt lat="43.48214" lon="5.2411">
        <ele>55</ele>
        <time>2022-10-02T08:42:29.000Z</time>
      </trkpt>
      <trkpt lat="43.48216" lon="5.24111">
        <ele>55</ele>
        <time>2022-10-02T08:42:30.000Z</time>
      </trkpt>
      <trkpt lat="43.48217" lon="5.24111">
        <ele>55</ele>
        <time>2022-10-02T08:42:31.000Z</time>
      </trkpt>
      <trkpt lat="43.48219" lon="5.24111">
        <ele>54</ele>
        <time>2022-10-02T08:42:32.000Z</time>
      </trkpt>
      <trkpt lat="43.48221" lon="5.24111">
        <ele>54</ele>
        <time>2022-10-02T08:42:33.000Z</time>
      </trkpt>
      <trkpt lat="43.48222" lon="5.24111">
        <ele>54</ele>
        <time>2022-10-02T08:42:34.000Z</time>
      </trkpt>
      <trkpt lat="43.48224" lon="5.24111">
        <ele>54</ele>
        <time>2022-10-02T08:42:35.000Z</time>
      </trkpt>
      <trkpt lat="43.48226" lon="5.24112">
        <ele>54</ele>
        <time>2022-10-02T08:42:36.000Z</time>
      </trkpt>
      <trkpt lat="43.48227" lon="5.24112">
        <ele>54</ele>
        <time>2022-10-02T08:42:37.000Z</time>
      </trkpt>
      <trkpt lat="43.48229" lon="5.24113">
        <ele>54</ele>
        <time>2022-10-02T08:42:38.000Z</time>
      </trkpt>
      <trkpt lat="43.48231" lon="5.24113">
        <ele>53</ele>
        <time>2022-10-02T08:42:39.000Z</time>
      </trkpt>
      <trkpt lat="43.48232" lon="5.24114">
        <ele>53</ele>
        <time>2022-10-02T08:42:40.000Z</time>
      </trkpt>
      <trkpt lat="43.48234" lon="5.24114">
        <ele>53</ele>
        <time>2022-10-02T08:42:41.000Z</time>
      </trkpt>
      <trkpt lat="43.48236" lon="5.24115">
        <ele>53</ele>
        <time>2022-10-02T08:42:42.000Z</time>
      </trkpt>
      <trkpt lat="43.48237" lon="5.24115">
        <ele>53</ele>
        <time>2022-10-02T08:42:43.000Z</time>
      </trkpt>
      <trkpt lat="43.48239" lon="5.24116">
        <ele>53</ele>
        <time>2022-10-02T08:42:44.000Z</time>
      </trkpt>
      <trkpt lat="43.4824" lon="5.24116">
        <ele>53</ele>
        <time>2022-10-02T08:42:45.000Z</time>
      </trkpt>
      <trkpt lat="43.48242" lon="5.24117">
        <ele>53</ele>
        <time>2022-10-02T08:42:46.000Z</time>
      </trkpt>
      <trkpt lat="43.48244" lon="5.24117">
        <ele>52</ele>
        <time>2022-10-02T08:42:47.000Z</time>
      </trkpt>
      <trkpt lat="43.48245" lon="5.24117">
        <ele>52</ele>
        <time>2022-10-02T08:42:48.000Z</time>
      </trkpt>
      <trkpt lat="43.48247" lon="5.24118">
        <ele>52</ele>
        <time>2022-10-02T08:42:49.000Z</time>
      </trkpt>
      <trkpt lat="43.48248" lon="5.24118">
        <ele>52</ele>
        <time>2022-10-02T08:42:50.000Z</time>
      </trkpt>
      <trkpt lat="43.4825" lon="5.24118">
        <ele>52</ele>
        <time>2022-10-02T08:42:51.000Z</time>
      </trkpt>
      <trkpt lat="43.48251" lon="5.24118">
        <ele>52</ele>
        <time>2022-10-02T08:42:52.000Z</time>
      </trkpt>
      <trkpt lat="43.48253" lon="5.24118">
        <ele>52</ele>
        <time>2022-10-02T08:42:53.000Z</time>
      </trkpt>
      <trkpt lat="43.48255" lon="5.24118">
        <ele>52</ele>
        <time>2022-10-02T08:42:54.000Z</time>
      </trkpt>
      <trkpt lat="43.48256" lon="5.24119">
        <ele>52</ele>
        <time>2022-10-02T08:42:55.000Z</time>
      </trkpt>
      <trkpt lat="43.48258" lon="5.24119">
        <ele>52</ele>
        <time>2022-10-02T08:42:56.000Z</time>
      </trkpt>
      <trkpt lat="43.4826" lon="5.2412">
        <ele>52</ele>
        <time>2022-10-02T08:42:57.000Z</time>
      </trkpt>
      <trkpt lat="43.48261" lon="5.2412">
        <ele>52</ele>
        <time>2022-10-02T08:42:58.000Z</time>
      </trkpt>
      <trkpt lat="43.48263" lon="5.2412">
        <ele>52</ele>
        <time>2022-10-02T08:42:59.000Z</time>
      </trkpt>
      <trkpt lat="43.48264" lon="5.2412">
        <ele>52</ele>
        <time>2022-10-02T08:43:00.000Z</time>
      </trkpt>
      <trkpt lat="43.48266" lon="5.24121">
        <ele>52</ele>
        <time>2022-10-02T08:43:01.000Z</time>
      </trkpt>
      <trkpt lat="43.48268" lon="5.24121">
        <ele>52</ele>
        <time>2022-10-02T08:43:02.000Z</time>
      </trkpt>
      <trkpt lat="43.48269" lon="5.24121">
        <ele>52</ele>
        <time>2022-10-02T08:43:03.000Z</time>
      </trkpt>
      <trkpt lat="43.4827" lon="5.24121">
        <ele>52</ele>
        <time>2022-10-02T08:43:04.000Z</time>
      </trkpt>
      <trkpt lat="43.48272" lon="5.24121">
        <ele>52</ele>
        <time>2022-10-02T08:43:05.000Z</time>
      </trkpt>
      <trkpt lat="43.48274" lon="5.24121">
        <ele>52</ele>
        <time>2022-10-02T08:43:06.000Z</time>
      </trkpt>
      <trkpt lat="43.48275" lon="5.24121">
        <ele>52</ele>
        <time>2022-10-02T08:43:07.000Z</time>
      </trkpt>
      <trkpt lat="43.48277" lon="5.24121">
        <ele>52</ele>
        <time>2022-10-02T08:43:08.000Z</time>
      </trkpt>
      <trkpt lat="43.48278" lon="5.24121">
        <ele>52</ele>
        <time>2022-10-02T08:43:09.000Z</time>
      </trkpt>
      <trkpt lat="43.48279" lon="5.24121">
        <ele>52</ele>
        <time>2022-10-02T08:43:10.000Z</time>
      </trkpt>
      <trkpt lat="43.48281" lon="5.24121">
        <ele>52</ele>
        <time>2022-10-02T08:43:11.000Z</time>
      </trkpt>
      <trkpt lat="43.48282" lon="5.24121">
        <ele>52</ele>
        <time>2022-10-02T08:43:12.000Z</time>
      </trkpt>
      <trkpt lat="43.48283" lon="5.24121">
        <ele>52</ele>
        <time>2022-10-02T08:43:13.000Z</time>
      </trkpt>
      <trkpt lat="43.48284" lon="5.24121">
        <ele>52</ele>
        <time>2022-10-02T08:43:14.000Z</time>
      </trkpt>
      <trkpt lat="43.48286" lon="5.2412">
        <ele>52</ele>
        <time>2022-10-02T08:43:15.000Z</time>
      </trkpt>
      <trkpt lat="43.48287" lon="5.2412">
        <ele>52</ele>
        <time>2022-10-02T08:43:16.000Z</time>
      </trkpt>
      <trkpt lat="43.48288" lon="5.2412">
        <ele>52</ele>
        <time>2022-10-02T08:43:17.000Z</time>
      </trkpt>
      <trkpt lat="43.48289" lon="5.2412">
        <ele>52</ele>
        <time>2022-10-02T08:43:18.000Z</time>
      </trkpt>
      <trkpt lat="43.4829" lon="5.2412">
        <ele>52</ele>
        <time>2022-10-02T08:43:19.000Z</time>
      </trkpt>
      <trkpt lat="43.48292" lon="5.2412">
        <ele>52</ele>
        <time>2022-10-02T08:43:20.000Z</time>
      </trkpt>
      <trkpt lat="43.48293" lon="5.2412">
        <ele>52</ele>
        <time>2022-10-02T08:43:21.000Z</time>
      </trkpt>
      <trkpt lat="43.48295" lon="5.24119">
        <ele>52</ele>
        <time>2022-10-02T08:43:22.000Z</time>
      </trkpt>
      <trkpt lat="43.48296" lon="5.24119">
        <ele>52</ele>
        <time>2022-10-02T08:43:23.000Z</time>
      </trkpt>
      <trkpt lat="43.48298" lon="5.24119">
        <ele>52</ele>
        <time>2022-10-02T08:43:24.000Z</time>
      </trkpt>
      <trkpt lat="43.48299" lon="5.24119">
        <ele>52</ele>
        <time>2022-10-02T08:43:25.000Z</time>
      </trkpt>
      <trkpt lat="43.483" lon="5.24119">
        <ele>52</ele>
        <time>2022-10-02T08:43:26.000Z</time>
      </trkpt>
      <trkpt lat="43.48302" lon="5.24119">
        <ele>52</ele>
        <time>2022-10-02T08:43:27.000Z</time>
      </trkpt>
      <trkpt lat="43.48303" lon="5.24119">
        <ele>52</ele>
        <time>2022-10-02T08:43:28.000Z</time>
      </trkpt>
      <trkpt lat="43.48305" lon="5.24119">
        <ele>52</ele>
        <time>2022-10-02T08:43:29.000Z</time>
      </trkpt>
      <trkpt lat="43.48306" lon="5.24119">
        <ele>52</ele>
        <time>2022-10-02T08:43:30.000Z</time>
      </trkpt>
      <trkpt lat="43.48307" lon="5.24119">
        <ele>52</ele>
        <time>2022-10-02T08:43:31.000Z</time>
      </trkpt>
      <trkpt lat="43.48309" lon="5.24119">
        <ele>52</ele>
        <time>2022-10-02T08:43:32.000Z</time>
      </trkpt>
      <trkpt lat="43.4831" lon="5.24119">
        <ele>52</ele>
        <time>2022-10-02T08:43:33.000Z</time>
      </trkpt>
      <trkpt lat="43.48311" lon="5.24119">
        <ele>52</ele>
        <time>2022-10-02T08:43:34.000Z</time>
      </trkpt>
      <trkpt lat="43.48313" lon="5.24119">
        <ele>52</ele>
        <time>2022-10-02T08:43:35.000Z</time>
      </trkpt>
      <trkpt lat="43.48314" lon="5.24119">
        <ele>52</ele>
        <time>2022-10-02T08:43:36.000Z</time>
      </trkpt>
      <trkpt lat="43.48316" lon="5.24119">
        <ele>52</ele>
        <time>2022-10-02T08:43:37.000Z</time>
      </trkpt>
      <trkpt lat="43.48317" lon="5.24119">
        <ele>53</ele>
        <time>2022-10-02T08:43:38.000Z</time>
      </trkpt>
      <trkpt lat="43.48319" lon="5.2412">
        <ele>53</ele>
        <time>2022-10-02T08:43:39.000Z</time>
      </trkpt>
      <trkpt lat="43.4832" lon="5.2412">
        <ele>53</ele>
        <time>2022-10-02T08:43:40.000Z</time>
      </trkpt>
      <trkpt lat="43.48322" lon="5.2412">
        <ele>53</ele>
        <time>2022-10-02T08:43:41.000Z</time>
      </trkpt>
      <trkpt lat="43.48323" lon="5.2412">
        <ele>53</ele>
        <time>2022-10-02T08:43:42.000Z</time>
      </trkpt>
      <trkpt lat="43.48325" lon="5.2412">
        <ele>53</ele>
        <time>2022-10-02T08:43:43.000Z</time>
      </trkpt>
      <trkpt lat="43.48326" lon="5.2412">
        <ele>53</ele>
        <time>2022-10-02T08:43:44.000Z</time>
      </trkpt>
      <trkpt lat="43.48327" lon="5.2412">
        <ele>53</ele>
        <time>2022-10-02T08:43:45.000Z</time>
      </trkpt>
      <trkpt lat="43.48328" lon="5.2412">
        <ele>53</ele>
        <time>2022-10-02T08:43:46.000Z</time>
      </trkpt>
      <trkpt lat="43.4833" lon="5.2412">
        <ele>54</ele>
        <time>2022-10-02T08:43:47.000Z</time>
      </trkpt>
      <trkpt lat="43.48331" lon="5.24121">
        <ele>54</ele>
        <time>2022-10-02T08:43:48.000Z</time>
      </trkpt>
      <trkpt lat="43.48333" lon="5.24121">
        <ele>54</ele>
        <time>2022-10-02T08:43:49.000Z</time>
      </trkpt>
      <trkpt lat="43.48334" lon="5.24121">
        <ele>54</ele>
        <time>2022-10-02T08:43:50.000Z</time>
      </trkpt>
      <trkpt lat="43.48335" lon="5.24122">
        <ele>54</ele>
        <time>2022-10-02T08:43:51.000Z</time>
      </trkpt>
      <trkpt lat="43.48337" lon="5.24122">
        <ele>54</ele>
        <time>2022-10-02T08:43:52.000Z</time>
      </trkpt>
      <trkpt lat="43.48338" lon="5.24122">
        <ele>54</ele>
        <time>2022-10-02T08:43:53.000Z</time>
      </trkpt>
      <trkpt lat="43.48339" lon="5.24122">
        <ele>54</ele>
        <time>2022-10-02T08:43:54.000Z</time>
      </trkpt>
      <trkpt lat="43.4834" lon="5.24122">
        <ele>54</ele>
        <time>2022-10-02T08:43:55.000Z</time>
      </trkpt>
      <trkpt lat="43.48342" lon="5.24123">
        <ele>54</ele>
        <time>2022-10-02T08:43:56.000Z</time>
      </trkpt>
      <trkpt lat="43.48343" lon="5.24123">
        <ele>54</ele>
        <time>2022-10-02T08:43:57.000Z</time>
      </trkpt>
      <trkpt lat="43.48344" lon="5.24123">
        <ele>54</ele>
        <time>2022-10-02T08:43:58.000Z</time>
      </trkpt>
      <trkpt lat="43.48346" lon="5.24123">
        <ele>54</ele>
        <time>2022-10-02T08:43:59.000Z</time>
      </trkpt>
      <trkpt lat="43.48347" lon="5.24123">
        <ele>54</ele>
        <time>2022-10-02T08:44:00.000Z</time>
      </trkpt>
      <trkpt lat="43.48349" lon="5.24123">
        <ele>54</ele>
        <time>2022-10-02T08:44:01.000Z</time>
      </trkpt>
      <trkpt lat="43.4835" lon="5.24124">
        <ele>54</ele>
        <time>2022-10-02T08:44:02.000Z</time>
      </trkpt>
      <trkpt lat="43.48352" lon="5.24124">
        <ele>54</ele>
        <time>2022-10-02T08:44:03.000Z</time>
      </trkpt>
      <trkpt lat="43.48354" lon="5.24124">
        <ele>54</ele>
        <time>2022-10-02T08:44:04.000Z</time>
      </trkpt>
      <trkpt lat="43.48355" lon="5.24124">
        <ele>54</ele>
        <time>2022-10-02T08:44:05.000Z</time>
      </trkpt>
      <trkpt lat="43.48357" lon="5.24125">
        <ele>54</ele>
        <time>2022-10-02T08:44:06.000Z</time>
      </trkpt>
      <trkpt lat="43.48359" lon="5.24125">
        <ele>54</ele>
        <time>2022-10-02T08:44:07.000Z</time>
      </trkpt>
      <trkpt lat="43.48361" lon="5.24125">
        <ele>55</ele>
        <time>2022-10-02T08:44:08.000Z</time>
      </trkpt>
      <trkpt lat="43.48362" lon="5.24126">
        <ele>55</ele>
        <time>2022-10-02T08:44:09.000Z</time>
      </trkpt>
      <trkpt lat="43.48364" lon="5.24126">
        <ele>55</ele>
        <time>2022-10-02T08:44:10.000Z</time>
      </trkpt>
      <trkpt lat="43.48366" lon="5.24126">
        <ele>55</ele>
        <time>2022-10-02T08:44:11.000Z</time>
      </trkpt>
      <trkpt lat="43.48368" lon="5.24126">
        <ele>55</ele>
        <time>2022-10-02T08:44:12.000Z</time>
      </trkpt>
      <trkpt lat="43.48369" lon="5.24127">
        <ele>55</ele>
        <time>2022-10-02T08:44:13.000Z</time>
      </trkpt>
      <trkpt lat="43.48371" lon="5.24127">
        <ele>55</ele>
        <time>2022-10-02T08:44:14.000Z</time>
      </trkpt>
      <trkpt lat="43.48373" lon="5.24127">
        <ele>55</ele>
        <time>2022-10-02T08:44:15.000Z</time>
      </trkpt>
      <trkpt lat="43.48374" lon="5.24127">
        <ele>55</ele>
        <time>2022-10-02T08:44:16.000Z</time>
      </trkpt>
      <trkpt lat="43.48376" lon="5.24127">
        <ele>55</ele>
        <time>2022-10-02T08:44:17.000Z</time>
      </trkpt>
      <trkpt lat="43.48378" lon="5.24128">
        <ele>55</ele>
        <time>2022-10-02T08:44:18.000Z</time>
      </trkpt>
      <trkpt lat="43.48379" lon="5.24128">
        <ele>55</ele>
        <time>2022-10-02T08:44:19.000Z</time>
      </trkpt>
      <trkpt lat="43.48381" lon="5.24128">
        <ele>55</ele>
        <time>2022-10-02T08:44:20.000Z</time>
      </trkpt>
      <trkpt lat="43.48383" lon="5.24128">
        <ele>55</ele>
        <time>2022-10-02T08:44:21.000Z</time>
      </trkpt>
      <trkpt lat="43.48385" lon="5.24128">
        <ele>55</ele>
        <time>2022-10-02T08:44:22.000Z</time>
      </trkpt>
      <trkpt lat="43.48386" lon="5.24128">
        <ele>55</ele>
        <time>2022-10-02T08:44:23.000Z</time>
      </trkpt>
      <trkpt lat="43.48388" lon="5.24128">
        <ele>55</ele>
        <time>2022-10-02T08:44:24.000Z</time>
      </trkpt>
      <trkpt lat="43.48389" lon="5.24127">
        <ele>55</ele>
        <time>2022-10-02T08:44:25.000Z</time>
      </trkpt>
      <trkpt lat="43.48391" lon="5.24127">
        <ele>55</ele>
        <time>2022-10-02T08:44:26.000Z</time>
      </trkpt>
      <trkpt lat="43.48393" lon="5.24127">
        <ele>55</ele>
        <time>2022-10-02T08:44:27.000Z</time>
      </trkpt>
      <trkpt lat="43.48394" lon="5.24127">
        <ele>55</ele>
        <time>2022-10-02T08:44:28.000Z</time>
      </trkpt>
      <trkpt lat="43.48396" lon="5.24127">
        <ele>55</ele>
        <time>2022-10-02T08:44:29.000Z</time>
      </trkpt>
      <trkpt lat="43.48398" lon="5.24127">
        <ele>56</ele>
        <time>2022-10-02T08:44:30.000Z</time>
      </trkpt>
      <trkpt lat="43.484" lon="5.24127">
        <ele>56</ele>
        <time>2022-10-02T08:44:31.000Z</time>
      </trkpt>
      <trkpt lat="43.48402" lon="5.24126">
        <ele>56</ele>
        <time>2022-10-02T08:44:32.000Z</time>
      </trkpt>
      <trkpt lat="43.48403" lon="5.24126">
        <ele>56</ele>
        <time>2022-10-02T08:44:33.000Z</time>
      </trkpt>
      <trkpt lat="43.48405" lon="5.24126">
        <ele>56</ele>
        <time>2022-10-02T08:44:34.000Z</time>
      </trkpt>
      <trkpt lat="43.48406" lon="5.24126">
        <ele>56</ele>
        <time>2022-10-02T08:44:35.000Z</time>
      </trkpt>
      <trkpt lat="43.48408" lon="5.24126">
        <ele>56</ele>
        <time>2022-10-02T08:44:36.000Z</time>
      </trkpt>
      <trkpt lat="43.4841" lon="5.24126">
        <ele>56</ele>
        <time>2022-10-02T08:44:37.000Z</time>
      </trkpt>
      <trkpt lat="43.48411" lon="5.24126">
        <ele>56</ele>
        <time>2022-10-02T08:44:38.000Z</time>
      </trkpt>
      <trkpt lat="43.48413" lon="5.24125">
        <ele>56</ele>
        <time>2022-10-02T08:44:39.000Z</time>
      </trkpt>
      <trkpt lat="43.48414" lon="5.24125">
        <ele>56</ele>
        <time>2022-10-02T08:44:40.000Z</time>
      </trkpt>
      <trkpt lat="43.48416" lon="5.24125">
        <ele>56</ele>
        <time>2022-10-02T08:44:41.000Z</time>
      </trkpt>
      <trkpt lat="43.48417" lon="5.24125">
        <ele>56</ele>
        <time>2022-10-02T08:44:42.000Z</time>
      </trkpt>
      <trkpt lat="43.48418" lon="5.24125">
        <ele>57</ele>
        <time>2022-10-02T08:44:43.000Z</time>
      </trkpt>
      <trkpt lat="43.4842" lon="5.24124">
        <ele>57</ele>
        <time>2022-10-02T08:44:44.000Z</time>
      </trkpt>
      <trkpt lat="43.48421" lon="5.24124">
        <ele>57</ele>
        <time>2022-10-02T08:44:45.000Z</time>
      </trkpt>
      <trkpt lat="43.48423" lon="5.24124">
        <ele>57</ele>
        <time>2022-10-02T08:44:46.000Z</time>
      </trkpt>
      <trkpt lat="43.48425" lon="5.24124">
        <ele>57</ele>
        <time>2022-10-02T08:44:47.000Z</time>
      </trkpt>
      <trkpt lat="43.48426" lon="5.24124">
        <ele>57</ele>
        <time>2022-10-02T08:44:48.000Z</time>
      </trkpt>
      <trkpt lat="43.48427" lon="5.24124">
        <ele>57</ele>
        <time>2022-10-02T08:44:49.000Z</time>
      </trkpt>
      <trkpt lat="43.48428" lon="5.24124">
        <ele>57</ele>
        <time>2022-10-02T08:44:50.000Z</time>
      </trkpt>
      <trkpt lat="43.4843" lon="5.24124">
        <ele>57</ele>
        <time>2022-10-02T08:44:51.000Z</time>
      </trkpt>
      <trkpt lat="43.48431" lon="5.24123">
        <ele>57</ele>
        <time>2022-10-02T08:44:52.000Z</time>
      </trkpt>
      <trkpt lat="43.48433" lon="5.24123">
        <ele>57</ele>
        <time>2022-10-02T08:44:53.000Z</time>
      </trkpt>
      <trkpt lat="43.48434" lon="5.24123">
        <ele>57</ele>
        <time>2022-10-02T08:44:54.000Z</time>
      </trkpt>
      <trkpt lat="43.48436" lon="5.24123">
        <ele>57</ele>
        <time>2022-10-02T08:44:55.000Z</time>
      </trkpt>
      <trkpt lat="43.48437" lon="5.24123">
        <ele>57</ele>
        <time>2022-10-02T08:44:56.000Z</time>
      </trkpt>
      <trkpt lat="43.48439" lon="5.24123">
        <ele>57</ele>
        <time>2022-10-02T08:44:57.000Z</time>
      </trkpt>
      <trkpt lat="43.48441" lon="5.24123">
        <ele>57</ele>
        <time>2022-10-02T08:44:58.000Z</time>
      </trkpt>
      <trkpt lat="43.48443" lon="5.24124">
        <ele>57</ele>
        <time>2022-10-02T08:44:59.000Z</time>
      </trkpt>
      <trkpt lat="43.48444" lon="5.24124">
        <ele>57</ele>
        <time>2022-10-02T08:45:00.000Z</time>
      </trkpt>
      <trkpt lat="43.48446" lon="5.24124">
        <ele>57</ele>
        <time>2022-10-02T08:45:01.000Z</time>
      </trkpt>
      <trkpt lat="43.48448" lon="5.24124">
        <ele>57</ele>
        <time>2022-10-02T08:45:02.000Z</time>
      </trkpt>
      <trkpt lat="43.4845" lon="5.24124">
        <ele>57</ele>
        <time>2022-10-02T08:45:03.000Z</time>
      </trkpt>
      <trkpt lat="43.48451" lon="5.24124">
        <ele>56</ele>
        <time>2022-10-02T08:45:04.000Z</time>
      </trkpt>
      <trkpt lat="43.48453" lon="5.24124">
        <ele>56</ele>
        <time>2022-10-02T08:45:05.000Z</time>
      </trkpt>
      <trkpt lat="43.48455" lon="5.24124">
        <ele>56</ele>
        <time>2022-10-02T08:45:06.000Z</time>
      </trkpt>
      <trkpt lat="43.48456" lon="5.24124">
        <ele>56</ele>
        <time>2022-10-02T08:45:07.000Z</time>
      </trkpt>
      <trkpt lat="43.48458" lon="5.24124">
        <ele>56</ele>
        <time>2022-10-02T08:45:08.000Z</time>
      </trkpt>
      <trkpt lat="43.48459" lon="5.24124">
        <ele>56</ele>
        <time>2022-10-02T08:45:09.000Z</time>
      </trkpt>
      <trkpt lat="43.48461" lon="5.24124">
        <ele>56</ele>
        <time>2022-10-02T08:45:10.000Z</time>
      </trkpt>
      <trkpt lat="43.48463" lon="5.24124">
        <ele>56</ele>
        <time>2022-10-02T08:45:11.000Z</time>
      </trkpt>
      <trkpt lat="43.48464" lon="5.24124">
        <ele>56</ele>
        <time>2022-10-02T08:45:12.000Z</time>
      </trkpt>
      <trkpt lat="43.48466" lon="5.24125">
        <ele>56</ele>
        <time>2022-10-02T08:45:13.000Z</time>
      </trkpt>
      <trkpt lat="43.48468" lon="5.24124">
        <ele>56</ele>
        <time>2022-10-02T08:45:14.000Z</time>
      </trkpt>
      <trkpt lat="43.48469" lon="5.24124">
        <ele>56</ele>
        <time>2022-10-02T08:45:15.000Z</time>
      </trkpt>
      <trkpt lat="43.48471" lon="5.24124">
        <ele>56</ele>
        <time>2022-10-02T08:45:16.000Z</time>
      </trkpt>
      <trkpt lat="43.48472" lon="5.24124">
        <ele>56</ele>
        <time>2022-10-02T08:45:17.000Z</time>
      </trkpt>
      <trkpt lat="43.48474" lon="5.24124">
        <ele>56</ele>
        <time>2022-10-02T08:45:18.000Z</time>
      </trkpt>
      <trkpt lat="43.48475" lon="5.24124">
        <ele>56</ele>
        <time>2022-10-02T08:45:19.000Z</time>
      </trkpt>
      <trkpt lat="43.48477" lon="5.24124">
        <ele>56</ele>
        <time>2022-10-02T08:45:20.000Z</time>
      </trkpt>
      <trkpt lat="43.48478" lon="5.24124">
        <ele>56</ele>
        <time>2022-10-02T08:45:21.000Z</time>
      </trkpt>
      <trkpt lat="43.48479" lon="5.24124">
        <ele>56</ele>
        <time>2022-10-02T08:45:22.000Z</time>
      </trkpt>
      <trkpt lat="43.48481" lon="5.24124">
        <ele>56</ele>
        <time>2022-10-02T08:45:23.000Z</time>
      </trkpt>
      <trkpt lat="43.48482" lon="5.24124">
        <ele>56</ele>
        <time>2022-10-02T08:45:24.000Z</time>
      </trkpt>
      <trkpt lat="43.48484" lon="5.24124">
        <ele>56</ele>
        <time>2022-10-02T08:45:25.000Z</time>
      </trkpt>
      <trkpt lat="43.48485" lon="5.24124">
        <ele>56</ele>
        <time>2022-10-02T08:45:26.000Z</time>
      </trkpt>
      <trkpt lat="43.48487" lon="5.24123">
        <ele>56</ele>
        <time>2022-10-02T08:45:27.000Z</time>
      </trkpt>
      <trkpt lat="43.48488" lon="5.24123">
        <ele>56</ele>
        <time>2022-10-02T08:45:28.000Z</time>
      </trkpt>
      <trkpt lat="43.4849" lon="5.24123">
        <ele>56</ele>
        <time>2022-10-02T08:45:29.000Z</time>
      </trkpt>
      <trkpt lat="43.48491" lon="5.24123">
        <ele>56</ele>
        <time>2022-10-02T08:45:30.000Z</time>
      </trkpt>
      <trkpt lat="43.48493" lon="5.24123">
        <ele>56</ele>
        <time>2022-10-02T08:45:31.000Z</time>
      </trkpt>
      <trkpt lat="43.48494" lon="5.24123">
        <ele>56</ele>
        <time>2022-10-02T08:45:32.000Z</time>
      </trkpt>
      <trkpt lat="43.48496" lon="5.24123">
        <ele>56</ele>
        <time>2022-10-02T08:45:33.000Z</time>
      </trkpt>
      <trkpt lat="43.48498" lon="5.24123">
        <ele>56</ele>
        <time>2022-10-02T08:45:34.000Z</time>
      </trkpt>
      <trkpt lat="43.48499" lon="5.24123">
        <ele>56</ele>
        <time>2022-10-02T08:45:35.000Z</time>
      </trkpt>
      <trkpt lat="43.48501" lon="5.24124">
        <ele>56</ele>
        <time>2022-10-02T08:45:36.000Z</time>
      </trkpt>
      <trkpt lat="43.48503" lon="5.24124">
        <ele>56</ele>
        <time>2022-10-02T08:45:37.000Z</time>
      </trkpt>
      <trkpt lat="43.48504" lon="5.24124">
        <ele>56</ele>
        <time>2022-10-02T08:45:38.000Z</time>
      </trkpt>
      <trkpt lat="43.48506" lon="5.24124">
        <ele>56</ele>
        <time>2022-10-02T08:45:39.000Z</time>
      </trkpt>
      <trkpt lat="43.48507" lon="5.24124">
        <ele>56</ele>
        <time>2022-10-02T08:45:40.000Z</time>
      </trkpt>
      <trkpt lat="43.48509" lon="5.24124">
        <ele>56</ele>
        <time>2022-10-02T08:45:41.000Z</time>
      </trkpt>
      <trkpt lat="43.48511" lon="5.24124">
        <ele>56</ele>
        <time>2022-10-02T08:45:42.000Z</time>
      </trkpt>
      <trkpt lat="43.48512" lon="5.24124">
        <ele>56</ele>
        <time>2022-10-02T08:45:43.000Z</time>
      </trkpt>
      <trkpt lat="43.48514" lon="5.24124">
        <ele>56</ele>
        <time>2022-10-02T08:45:44.000Z</time>
      </trkpt>
      <trkpt lat="43.48515" lon="5.24124">
        <ele>57</ele>
        <time>2022-10-02T08:45:45.000Z</time>
      </trkpt>
      <trkpt lat="43.48516" lon="5.24124">
        <ele>57</ele>
        <time>2022-10-02T08:45:46.000Z</time>
      </trkpt>
      <trkpt lat="43.48518" lon="5.24124">
        <ele>57</ele>
        <time>2022-10-02T08:45:47.000Z</time>
      </trkpt>
      <trkpt lat="43.4852" lon="5.24125">
        <ele>57</ele>
        <time>2022-10-02T08:45:48.000Z</time>
      </trkpt>
      <trkpt lat="43.48521" lon="5.24125">
        <ele>57</ele>
        <time>2022-10-02T08:45:49.000Z</time>
      </trkpt>
      <trkpt lat="43.48523" lon="5.24126">
        <ele>57</ele>
        <time>2022-10-02T08:45:50.000Z</time>
      </trkpt>
      <trkpt lat="43.48525" lon="5.24126">
        <ele>57</ele>
        <time>2022-10-02T08:45:51.000Z</time>
      </trkpt>
      <trkpt lat="43.48527" lon="5.24126">
        <ele>57</ele>
        <time>2022-10-02T08:45:52.000Z</time>
      </trkpt>
      <trkpt lat="43.48528" lon="5.24127">
        <ele>57</ele>
        <time>2022-10-02T08:45:53.000Z</time>
      </trkpt>
      <trkpt lat="43.4853" lon="5.24127">
        <ele>57</ele>
        <time>2022-10-02T08:45:54.000Z</time>
      </trkpt>
      <trkpt lat="43.48532" lon="5.24127">
        <ele>57</ele>
        <time>2022-10-02T08:45:55.000Z</time>
      </trkpt>
      <trkpt lat="43.48534" lon="5.24128">
        <ele>57</ele>
        <time>2022-10-02T08:45:56.000Z</time>
      </trkpt>
      <trkpt lat="43.48535" lon="5.24128">
        <ele>58</ele>
        <time>2022-10-02T08:45:57.000Z</time>
      </trkpt>
      <trkpt lat="43.48537" lon="5.24128">
        <ele>58</ele>
        <time>2022-10-02T08:45:58.000Z</time>
      </trkpt>
      <trkpt lat="43.48539" lon="5.24129">
        <ele>58</ele>
        <time>2022-10-02T08:45:59.000Z</time>
      </trkpt>
      <trkpt lat="43.48541" lon="5.24129">
        <ele>58</ele>
        <time>2022-10-02T08:46:00.000Z</time>
      </trkpt>
      <trkpt lat="43.48542" lon="5.2413">
        <ele>58</ele>
        <time>2022-10-02T08:46:01.000Z</time>
      </trkpt>
      <trkpt lat="43.48544" lon="5.2413">
        <ele>58</ele>
        <time>2022-10-02T08:46:02.000Z</time>
      </trkpt>
      <trkpt lat="43.48546" lon="5.24131">
        <ele>58</ele>
        <time>2022-10-02T08:46:03.000Z</time>
      </trkpt>
      <trkpt lat="43.48547" lon="5.24132">
        <ele>58</ele>
        <time>2022-10-02T08:46:04.000Z</time>
      </trkpt>
      <trkpt lat="43.48549" lon="5.24132">
        <ele>57</ele>
        <time>2022-10-02T08:46:05.000Z</time>
      </trkpt>
      <trkpt lat="43.48551" lon="5.24133">
        <ele>57</ele>
        <time>2022-10-02T08:46:06.000Z</time>
      </trkpt>
      <trkpt lat="43.48553" lon="5.24133">
        <ele>57</ele>
        <time>2022-10-02T08:46:07.000Z</time>
      </trkpt>
      <trkpt lat="43.48554" lon="5.24133">
        <ele>57</ele>
        <time>2022-10-02T08:46:08.000Z</time>
      </trkpt>
      <trkpt lat="43.48556" lon="5.24134">
        <ele>57</ele>
        <time>2022-10-02T08:46:09.000Z</time>
      </trkpt>
      <trkpt lat="43.48558" lon="5.24134">
        <ele>57</ele>
        <time>2022-10-02T08:46:10.000Z</time>
      </trkpt>
      <trkpt lat="43.48559" lon="5.24134">
        <ele>57</ele>
        <time>2022-10-02T08:46:11.000Z</time>
      </trkpt>
      <trkpt lat="43.48561" lon="5.24134">
        <ele>57</ele>
        <time>2022-10-02T08:46:12.000Z</time>
      </trkpt>
      <trkpt lat="43.48562" lon="5.24134">
        <ele>57</ele>
        <time>2022-10-02T08:46:13.000Z</time>
      </trkpt>
      <trkpt lat="43.48564" lon="5.24134">
        <ele>57</ele>
        <time>2022-10-02T08:46:14.000Z</time>
      </trkpt>
      <trkpt lat="43.48566" lon="5.24134">
        <ele>57</ele>
        <time>2022-10-02T08:46:15.000Z</time>
      </trkpt>
      <trkpt lat="43.48567" lon="5.24134">
        <ele>57</ele>
        <time>2022-10-02T08:46:16.000Z</time>
      </trkpt>
      <trkpt lat="43.48569" lon="5.24134">
        <ele>57</ele>
        <time>2022-10-02T08:46:17.000Z</time>
      </trkpt>
      <trkpt lat="43.4857" lon="5.24134">
        <ele>57</ele>
        <time>2022-10-02T08:46:18.000Z</time>
      </trkpt>
      <trkpt lat="43.48571" lon="5.24133">
        <ele>57</ele>
        <time>2022-10-02T08:46:19.000Z</time>
      </trkpt>
      <trkpt lat="43.48573" lon="5.24132">
        <ele>56</ele>
        <time>2022-10-02T08:46:20.000Z</time>
      </trkpt>
      <trkpt lat="43.48574" lon="5.24131">
        <ele>56</ele>
        <time>2022-10-02T08:46:21.000Z</time>
      </trkpt>
      <trkpt lat="43.48576" lon="5.2413">
        <ele>56</ele>
        <time>2022-10-02T08:46:22.000Z</time>
      </trkpt>
      <trkpt lat="43.48577" lon="5.24129">
        <ele>56</ele>
        <time>2022-10-02T08:46:23.000Z</time>
      </trkpt>
      <trkpt lat="43.48579" lon="5.24128">
        <ele>56</ele>
        <time>2022-10-02T08:46:24.000Z</time>
      </trkpt>
      <trkpt lat="43.4858" lon="5.24127">
        <ele>56</ele>
        <time>2022-10-02T08:46:25.000Z</time>
      </trkpt>
      <trkpt lat="43.48581" lon="5.24125">
        <ele>56</ele>
        <time>2022-10-02T08:46:26.000Z</time>
      </trkpt>
      <trkpt lat="43.48582" lon="5.24124">
        <ele>55</ele>
        <time>2022-10-02T08:46:27.000Z</time>
      </trkpt>
      <trkpt lat="43.48584" lon="5.24122">
        <ele>55</ele>
        <time>2022-10-02T08:46:28.000Z</time>
      </trkpt>
      <trkpt lat="43.48585" lon="5.24121">
        <ele>55</ele>
        <time>2022-10-02T08:46:29.000Z</time>
      </trkpt>
      <trkpt lat="43.48586" lon="5.2412">
        <ele>55</ele>
        <time>2022-10-02T08:46:30.000Z</time>
      </trkpt>
      <trkpt lat="43.48587" lon="5.24118">
        <ele>55</ele>
        <time>2022-10-02T08:46:31.000Z</time>
      </trkpt>
      <trkpt lat="43.48587" lon="5.24117">
        <ele>55</ele>
        <time>2022-10-02T08:46:32.000Z</time>
      </trkpt>
      <trkpt lat="43.48588" lon="5.24115">
        <ele>55</ele>
        <time>2022-10-02T08:46:33.000Z</time>
      </trkpt>
      <trkpt lat="43.48589" lon="5.24113">
        <ele>55</ele>
        <time>2022-10-02T08:46:34.000Z</time>
      </trkpt>
      <trkpt lat="43.4859" lon="5.24112">
        <ele>55</ele>
        <time>2022-10-02T08:46:35.000Z</time>
      </trkpt>
      <trkpt lat="43.48591" lon="5.2411">
        <ele>55</ele>
        <time>2022-10-02T08:46:36.000Z</time>
      </trkpt>
      <trkpt lat="43.48591" lon="5.24109">
        <ele>55</ele>
        <time>2022-10-02T08:46:37.000Z</time>
      </trkpt>
      <trkpt lat="43.48592" lon="5.24107">
        <ele>55</ele>
        <time>2022-10-02T08:46:38.000Z</time>
      </trkpt>
      <trkpt lat="43.48593" lon="5.24106">
        <ele>55</ele>
        <time>2022-10-02T08:46:39.000Z</time>
      </trkpt>
      <trkpt lat="43.48594" lon="5.24105">
        <ele>55</ele>
        <time>2022-10-02T08:46:40.000Z</time>
      </trkpt>
      <trkpt lat="43.48594" lon="5.24105">
        <ele>55</ele>
        <time>2022-10-02T08:46:41.000Z</time>
      </trkpt>
      <trkpt lat="43.48595" lon="5.24104">
        <ele>55</ele>
        <time>2022-10-02T08:46:42.000Z</time>
      </trkpt>
      <trkpt lat="43.48596" lon="5.24102">
        <ele>55</ele>
        <time>2022-10-02T08:46:43.000Z</time>
      </trkpt>
      <trkpt lat="43.48596" lon="5.24101">
        <ele>55</ele>
        <time>2022-10-02T08:46:44.000Z</time>
      </trkpt>
      <trkpt lat="43.48597" lon="5.24099">
        <ele>55</ele>
        <time>2022-10-02T08:46:45.000Z</time>
      </trkpt>
      <trkpt lat="43.48598" lon="5.24097">
        <ele>55</ele>
        <time>2022-10-02T08:46:46.000Z</time>
      </trkpt>
      <trkpt lat="43.48599" lon="5.24094">
        <ele>55</ele>
        <time>2022-10-02T08:46:47.000Z</time>
      </trkpt>
      <trkpt lat="43.48601" lon="5.24092">
        <ele>55</ele>
        <time>2022-10-02T08:46:48.000Z</time>
      </trkpt>
      <trkpt lat="43.48602" lon="5.2409">
        <ele>55</ele>
        <time>2022-10-02T08:46:49.000Z</time>
      </trkpt>
      <trkpt lat="43.48603" lon="5.24088">
        <ele>55</ele>
        <time>2022-10-02T08:46:50.000Z</time>
      </trkpt>
      <trkpt lat="43.48604" lon="5.24086">
        <ele>55</ele>
        <time>2022-10-02T08:46:51.000Z</time>
      </trkpt>
      <trkpt lat="43.48604" lon="5.24084">
        <ele>55</ele>
        <time>2022-10-02T08:46:52.000Z</time>
      </trkpt>
      <trkpt lat="43.48605" lon="5.24081">
        <ele>55</ele>
        <time>2022-10-02T08:46:53.000Z</time>
      </trkpt>
      <trkpt lat="43.48606" lon="5.24078">
        <ele>55</ele>
        <time>2022-10-02T08:46:54.000Z</time>
      </trkpt>
      <trkpt lat="43.48606" lon="5.24075">
        <ele>55</ele>
        <time>2022-10-02T08:46:55.000Z</time>
      </trkpt>
      <trkpt lat="43.48607" lon="5.24072">
        <ele>54</ele>
        <time>2022-10-02T08:46:56.000Z</time>
      </trkpt>
      <trkpt lat="43.48608" lon="5.2407">
        <ele>54</ele>
        <time>2022-10-02T08:46:57.000Z</time>
      </trkpt>
      <trkpt lat="43.48609" lon="5.24067">
        <ele>54</ele>
        <time>2022-10-02T08:46:58.000Z</time>
      </trkpt>
      <trkpt lat="43.4861" lon="5.24065">
        <ele>54</ele>
        <time>2022-10-02T08:46:59.000Z</time>
      </trkpt>
      <trkpt lat="43.48611" lon="5.24063">
        <ele>54</ele>
        <time>2022-10-02T08:47:00.000Z</time>
      </trkpt>
      <trkpt lat="43.48611" lon="5.24061">
        <ele>54</ele>
        <time>2022-10-02T08:47:01.000Z</time>
      </trkpt>
      <trkpt lat="43.48612" lon="5.24059">
        <ele>55</ele>
        <time>2022-10-02T08:47:02.000Z</time>
      </trkpt>
      <trkpt lat="43.48613" lon="5.24057">
        <ele>55</ele>
        <time>2022-10-02T08:47:03.000Z</time>
      </trkpt>
      <trkpt lat="43.48613" lon="5.24055">
        <ele>55</ele>
        <time>2022-10-02T08:47:04.000Z</time>
      </trkpt>
      <trkpt lat="43.48614" lon="5.24053">
        <ele>55</ele>
        <time>2022-10-02T08:47:05.000Z</time>
      </trkpt>
      <trkpt lat="43.48614" lon="5.24051">
        <ele>55</ele>
        <time>2022-10-02T08:47:06.000Z</time>
      </trkpt>
      <trkpt lat="43.48614" lon="5.24049">
        <ele>55</ele>
        <time>2022-10-02T08:47:07.000Z</time>
      </trkpt>
      <trkpt lat="43.48614" lon="5.24047">
        <ele>54</ele>
        <time>2022-10-02T08:47:08.000Z</time>
      </trkpt>
      <trkpt lat="43.48615" lon="5.24045">
        <ele>54</ele>
        <time>2022-10-02T08:47:09.000Z</time>
      </trkpt>
      <trkpt lat="43.48615" lon="5.24043">
        <ele>54</ele>
        <time>2022-10-02T08:47:10.000Z</time>
      </trkpt>
      <trkpt lat="43.48615" lon="5.24041">
        <ele>54</ele>
        <time>2022-10-02T08:47:11.000Z</time>
      </trkpt>
      <trkpt lat="43.48616" lon="5.24038">
        <ele>54</ele>
        <time>2022-10-02T08:47:12.000Z</time>
      </trkpt>
      <trkpt lat="43.48616" lon="5.24036">
        <ele>54</ele>
        <time>2022-10-02T08:47:13.000Z</time>
      </trkpt>
      <trkpt lat="43.48617" lon="5.24034">
        <ele>54</ele>
        <time>2022-10-02T08:47:14.000Z</time>
      </trkpt>
      <trkpt lat="43.48618" lon="5.24032">
        <ele>53</ele>
        <time>2022-10-02T08:47:15.000Z</time>
      </trkpt>
      <trkpt lat="43.48618" lon="5.2403">
        <ele>53</ele>
        <time>2022-10-02T08:47:16.000Z</time>
      </trkpt>
      <trkpt lat="43.48619" lon="5.24028">
        <ele>53</ele>
        <time>2022-10-02T08:47:17.000Z</time>
      </trkpt>
      <trkpt lat="43.48619" lon="5.24026">
        <ele>53</ele>
        <time>2022-10-02T08:47:18.000Z</time>
      </trkpt>
      <trkpt lat="43.4862" lon="5.24023">
        <ele>53</ele>
        <time>2022-10-02T08:47:19.000Z</time>
      </trkpt>
      <trkpt lat="43.4862" lon="5.24021">
        <ele>53</ele>
        <time>2022-10-02T08:47:20.000Z</time>
      </trkpt>
      <trkpt lat="43.48621" lon="5.24019">
        <ele>53</ele>
        <time>2022-10-02T08:47:21.000Z</time>
      </trkpt>
      <trkpt lat="43.48621" lon="5.24017">
        <ele>52</ele>
        <time>2022-10-02T08:47:22.000Z</time>
      </trkpt>
      <trkpt lat="43.48622" lon="5.24014">
        <ele>52</ele>
        <time>2022-10-02T08:47:23.000Z</time>
      </trkpt>
      <trkpt lat="43.48623" lon="5.24013">
        <ele>52</ele>
        <time>2022-10-02T08:47:24.000Z</time>
      </trkpt>
      <trkpt lat="43.48624" lon="5.24011">
        <ele>52</ele>
        <time>2022-10-02T08:47:25.000Z</time>
      </trkpt>
      <trkpt lat="43.48624" lon="5.24009">
        <ele>52</ele>
        <time>2022-10-02T08:47:26.000Z</time>
      </trkpt>
      <trkpt lat="43.48625" lon="5.24007">
        <ele>52</ele>
        <time>2022-10-02T08:47:27.000Z</time>
      </trkpt>
      <trkpt lat="43.48626" lon="5.24004">
        <ele>52</ele>
        <time>2022-10-02T08:47:28.000Z</time>
      </trkpt>
      <trkpt lat="43.48626" lon="5.24003">
        <ele>52</ele>
        <time>2022-10-02T08:47:29.000Z</time>
      </trkpt>
      <trkpt lat="43.48627" lon="5.24001">
        <ele>52</ele>
        <time>2022-10-02T08:47:30.000Z</time>
      </trkpt>
      <trkpt lat="43.48628" lon="5.23999">
        <ele>51</ele>
        <time>2022-10-02T08:47:31.000Z</time>
      </trkpt>
      <trkpt lat="43.48629" lon="5.23997">
        <ele>51</ele>
        <time>2022-10-02T08:47:32.000Z</time>
      </trkpt>
      <trkpt lat="43.4863" lon="5.23996">
        <ele>51</ele>
        <time>2022-10-02T08:47:33.000Z</time>
      </trkpt>
      <trkpt lat="43.48631" lon="5.23994">
        <ele>51</ele>
        <time>2022-10-02T08:47:34.000Z</time>
      </trkpt>
      <trkpt lat="43.48632" lon="5.23992">
        <ele>51</ele>
        <time>2022-10-02T08:47:35.000Z</time>
      </trkpt>
      <trkpt lat="43.48632" lon="5.2399">
        <ele>51</ele>
        <time>2022-10-02T08:47:36.000Z</time>
      </trkpt>
      <trkpt lat="43.48633" lon="5.23988">
        <ele>50</ele>
        <time>2022-10-02T08:47:37.000Z</time>
      </trkpt>
      <trkpt lat="43.48634" lon="5.23986">
        <ele>50</ele>
        <time>2022-10-02T08:47:38.000Z</time>
      </trkpt>
      <trkpt lat="43.48635" lon="5.23985">
        <ele>50</ele>
        <time>2022-10-02T08:47:39.000Z</time>
      </trkpt>
      <trkpt lat="43.48636" lon="5.23983">
        <ele>50</ele>
        <time>2022-10-02T08:47:40.000Z</time>
      </trkpt>
      <trkpt lat="43.48637" lon="5.23981">
        <ele>50</ele>
        <time>2022-10-02T08:47:41.000Z</time>
      </trkpt>
      <trkpt lat="43.48638" lon="5.23979">
        <ele>49</ele>
        <time>2022-10-02T08:47:42.000Z</time>
      </trkpt>
      <trkpt lat="43.48639" lon="5.23978">
        <ele>49</ele>
        <time>2022-10-02T08:47:43.000Z</time>
      </trkpt>
      <trkpt lat="43.4864" lon="5.23976">
        <ele>49</ele>
        <time>2022-10-02T08:47:44.000Z</time>
      </trkpt>
      <trkpt lat="43.48641" lon="5.23974">
        <ele>49</ele>
        <time>2022-10-02T08:47:45.000Z</time>
      </trkpt>
      <trkpt lat="43.48642" lon="5.23972">
        <ele>49</ele>
        <time>2022-10-02T08:47:46.000Z</time>
      </trkpt>
      <trkpt lat="43.48643" lon="5.23971">
        <ele>48</ele>
        <time>2022-10-02T08:47:47.000Z</time>
      </trkpt>
      <trkpt lat="43.48644" lon="5.23969">
        <ele>48</ele>
        <time>2022-10-02T08:47:48.000Z</time>
      </trkpt>
      <trkpt lat="43.48645" lon="5.23967">
        <ele>48</ele>
        <time>2022-10-02T08:47:49.000Z</time>
      </trkpt>
      <trkpt lat="43.48646" lon="5.23965">
        <ele>48</ele>
        <time>2022-10-02T08:47:50.000Z</time>
      </trkpt>
      <trkpt lat="43.48647" lon="5.23964">
        <ele>48</ele>
        <time>2022-10-02T08:47:51.000Z</time>
      </trkpt>
      <trkpt lat="43.48648" lon="5.23961">
        <ele>48</ele>
        <time>2022-10-02T08:47:52.000Z</time>
      </trkpt>
      <trkpt lat="43.48649" lon="5.2396">
        <ele>48</ele>
        <time>2022-10-02T08:47:53.000Z</time>
      </trkpt>
      <trkpt lat="43.4865" lon="5.23958">
        <ele>48</ele>
        <time>2022-10-02T08:47:54.000Z</time>
      </trkpt>
      <trkpt lat="43.48651" lon="5.23956">
        <ele>48</ele>
        <time>2022-10-02T08:47:55.000Z</time>
      </trkpt>
      <trkpt lat="43.48652" lon="5.23954">
        <ele>48</ele>
        <time>2022-10-02T08:47:56.000Z</time>
      </trkpt>
      <trkpt lat="43.48653" lon="5.23952">
        <ele>48</ele>
        <time>2022-10-02T08:47:57.000Z</time>
      </trkpt>
      <trkpt lat="43.48654" lon="5.23951">
        <ele>48</ele>
        <time>2022-10-02T08:47:58.000Z</time>
      </trkpt>
      <trkpt lat="43.48655" lon="5.23949">
        <ele>48</ele>
        <time>2022-10-02T08:47:59.000Z</time>
      </trkpt>
      <trkpt lat="43.48656" lon="5.23947">
        <ele>48</ele>
        <time>2022-10-02T08:48:00.000Z</time>
      </trkpt>
      <trkpt lat="43.48657" lon="5.23946">
        <ele>47</ele>
        <time>2022-10-02T08:48:01.000Z</time>
      </trkpt>
      <trkpt lat="43.48658" lon="5.23944">
        <ele>47</ele>
        <time>2022-10-02T08:48:02.000Z</time>
      </trkpt>
      <trkpt lat="43.48659" lon="5.23942">
        <ele>47</ele>
        <time>2022-10-02T08:48:03.000Z</time>
      </trkpt>
      <trkpt lat="43.4866" lon="5.23941">
        <ele>47</ele>
        <time>2022-10-02T08:48:04.000Z</time>
      </trkpt>
      <trkpt lat="43.48661" lon="5.23939">
        <ele>47</ele>
        <time>2022-10-02T08:48:05.000Z</time>
      </trkpt>
      <trkpt lat="43.48662" lon="5.23938">
        <ele>47</ele>
        <time>2022-10-02T08:48:06.000Z</time>
      </trkpt>
      <trkpt lat="43.48663" lon="5.23936">
        <ele>47</ele>
        <time>2022-10-02T08:48:07.000Z</time>
      </trkpt>
      <trkpt lat="43.48664" lon="5.23934">
        <ele>47</ele>
        <time>2022-10-02T08:48:08.000Z</time>
      </trkpt>
      <trkpt lat="43.48665" lon="5.23933">
        <ele>47</ele>
        <time>2022-10-02T08:48:09.000Z</time>
      </trkpt>
      <trkpt lat="43.48667" lon="5.23931">
        <ele>47</ele>
        <time>2022-10-02T08:48:10.000Z</time>
      </trkpt>
      <trkpt lat="43.48668" lon="5.23929">
        <ele>47</ele>
        <time>2022-10-02T08:48:11.000Z</time>
      </trkpt>
      <trkpt lat="43.48669" lon="5.23927">
        <ele>47</ele>
        <time>2022-10-02T08:48:12.000Z</time>
      </trkpt>
      <trkpt lat="43.4867" lon="5.23926">
        <ele>47</ele>
        <time>2022-10-02T08:48:13.000Z</time>
      </trkpt>
      <trkpt lat="43.48671" lon="5.23924">
        <ele>47</ele>
        <time>2022-10-02T08:48:14.000Z</time>
      </trkpt>
      <trkpt lat="43.48673" lon="5.23922">
        <ele>47</ele>
        <time>2022-10-02T08:48:15.000Z</time>
      </trkpt>
      <trkpt lat="43.48674" lon="5.23921">
        <ele>47</ele>
        <time>2022-10-02T08:48:16.000Z</time>
      </trkpt>
      <trkpt lat="43.48675" lon="5.23919">
        <ele>47</ele>
        <time>2022-10-02T08:48:17.000Z</time>
      </trkpt>
      <trkpt lat="43.48676" lon="5.23918">
        <ele>47</ele>
        <time>2022-10-02T08:48:18.000Z</time>
      </trkpt>
      <trkpt lat="43.48677" lon="5.23916">
        <ele>46</ele>
        <time>2022-10-02T08:48:19.000Z</time>
      </trkpt>
      <trkpt lat="43.48678" lon="5.23914">
        <ele>46</ele>
        <time>2022-10-02T08:48:20.000Z</time>
      </trkpt>
      <trkpt lat="43.48679" lon="5.23913">
        <ele>46</ele>
        <time>2022-10-02T08:48:21.000Z</time>
      </trkpt>
      <trkpt lat="43.4868" lon="5.23912">
        <ele>46</ele>
        <time>2022-10-02T08:48:22.000Z</time>
      </trkpt>
      <trkpt lat="43.48681" lon="5.2391">
        <ele>46</ele>
        <time>2022-10-02T08:48:23.000Z</time>
      </trkpt>
      <trkpt lat="43.48682" lon="5.23908">
        <ele>46</ele>
        <time>2022-10-02T08:48:24.000Z</time>
      </trkpt>
      <trkpt lat="43.48683" lon="5.23907">
        <ele>46</ele>
        <time>2022-10-02T08:48:25.000Z</time>
      </trkpt>
      <trkpt lat="43.48685" lon="5.23905">
        <ele>46</ele>
        <time>2022-10-02T08:48:26.000Z</time>
      </trkpt>
      <trkpt lat="43.48686" lon="5.23903">
        <ele>46</ele>
        <time>2022-10-02T08:48:27.000Z</time>
      </trkpt>
      <trkpt lat="43.48687" lon="5.23902">
        <ele>46</ele>
        <time>2022-10-02T08:48:28.000Z</time>
      </trkpt>
      <trkpt lat="43.48688" lon="5.239">
        <ele>45</ele>
        <time>2022-10-02T08:48:29.000Z</time>
      </trkpt>
      <trkpt lat="43.48689" lon="5.23898">
        <ele>45</ele>
        <time>2022-10-02T08:48:30.000Z</time>
      </trkpt>
      <trkpt lat="43.48691" lon="5.23897">
        <ele>45</ele>
        <time>2022-10-02T08:48:31.000Z</time>
      </trkpt>
      <trkpt lat="43.48692" lon="5.23895">
        <ele>45</ele>
        <time>2022-10-02T08:48:32.000Z</time>
      </trkpt>
      <trkpt lat="43.48693" lon="5.23894">
        <ele>45</ele>
        <time>2022-10-02T08:48:33.000Z</time>
      </trkpt>
      <trkpt lat="43.48694" lon="5.23892">
        <ele>45</ele>
        <time>2022-10-02T08:48:34.000Z</time>
      </trkpt>
      <trkpt lat="43.48695" lon="5.23891">
        <ele>45</ele>
        <time>2022-10-02T08:48:35.000Z</time>
      </trkpt>
      <trkpt lat="43.48696" lon="5.23889">
        <ele>45</ele>
        <time>2022-10-02T08:48:36.000Z</time>
      </trkpt>
      <trkpt lat="43.48698" lon="5.23888">
        <ele>44</ele>
        <time>2022-10-02T08:48:37.000Z</time>
      </trkpt>
      <trkpt lat="43.48698" lon="5.23887">
        <ele>44</ele>
        <time>2022-10-02T08:48:38.000Z</time>
      </trkpt>
      <trkpt lat="43.48699" lon="5.23885">
        <ele>44</ele>
        <time>2022-10-02T08:48:39.000Z</time>
      </trkpt>
      <trkpt lat="43.487" lon="5.23883">
        <ele>44</ele>
        <time>2022-10-02T08:48:40.000Z</time>
      </trkpt>
      <trkpt lat="43.48701" lon="5.23882">
        <ele>44</ele>
        <time>2022-10-02T08:48:41.000Z</time>
      </trkpt>
      <trkpt lat="43.48702" lon="5.2388">
        <ele>44</ele>
        <time>2022-10-02T08:48:42.000Z</time>
      </trkpt>
      <trkpt lat="43.48703" lon="5.23878">
        <ele>44</ele>
        <time>2022-10-02T08:48:43.000Z</time>
      </trkpt>
      <trkpt lat="43.48704" lon="5.23877">
        <ele>44</ele>
        <time>2022-10-02T08:48:44.000Z</time>
      </trkpt>
      <trkpt lat="43.48706" lon="5.23875">
        <ele>44</ele>
        <time>2022-10-02T08:48:45.000Z</time>
      </trkpt>
      <trkpt lat="43.48706" lon="5.23874">
        <ele>44</ele>
        <time>2022-10-02T08:48:46.000Z</time>
      </trkpt>
      <trkpt lat="43.48707" lon="5.23872">
        <ele>44</ele>
        <time>2022-10-02T08:48:47.000Z</time>
      </trkpt>
      <trkpt lat="43.48708" lon="5.2387">
        <ele>44</ele>
        <time>2022-10-02T08:48:48.000Z</time>
      </trkpt>
      <trkpt lat="43.4871" lon="5.23868">
        <ele>44</ele>
        <time>2022-10-02T08:48:49.000Z</time>
      </trkpt>
      <trkpt lat="43.48711" lon="5.23867">
        <ele>44</ele>
        <time>2022-10-02T08:48:50.000Z</time>
      </trkpt>
      <trkpt lat="43.48712" lon="5.23865">
        <ele>44</ele>
        <time>2022-10-02T08:48:51.000Z</time>
      </trkpt>
      <trkpt lat="43.48713" lon="5.23863">
        <ele>44</ele>
        <time>2022-10-02T08:48:52.000Z</time>
      </trkpt>
      <trkpt lat="43.48714" lon="5.23862">
        <ele>44</ele>
        <time>2022-10-02T08:48:53.000Z</time>
      </trkpt>
      <trkpt lat="43.48715" lon="5.2386">
        <ele>44</ele>
        <time>2022-10-02T08:48:54.000Z</time>
      </trkpt>
      <trkpt lat="43.48716" lon="5.23859">
        <ele>44</ele>
        <time>2022-10-02T08:48:55.000Z</time>
      </trkpt>
      <trkpt lat="43.48717" lon="5.23857">
        <ele>44</ele>
        <time>2022-10-02T08:48:56.000Z</time>
      </trkpt>
      <trkpt lat="43.48718" lon="5.23855">
        <ele>44</ele>
        <time>2022-10-02T08:48:57.000Z</time>
      </trkpt>
      <trkpt lat="43.4872" lon="5.23854">
        <ele>44</ele>
        <time>2022-10-02T08:48:58.000Z</time>
      </trkpt>
      <trkpt lat="43.48721" lon="5.23852">
        <ele>44</ele>
        <time>2022-10-02T08:48:59.000Z</time>
      </trkpt>
      <trkpt lat="43.48722" lon="5.23851">
        <ele>44</ele>
        <time>2022-10-02T08:49:00.000Z</time>
      </trkpt>
      <trkpt lat="43.48723" lon="5.23849">
        <ele>44</ele>
        <time>2022-10-02T08:49:01.000Z</time>
      </trkpt>
      <trkpt lat="43.48724" lon="5.23848">
        <ele>43</ele>
        <time>2022-10-02T08:49:02.000Z</time>
      </trkpt>
      <trkpt lat="43.48725" lon="5.23846">
        <ele>43</ele>
        <time>2022-10-02T08:49:03.000Z</time>
      </trkpt>
      <trkpt lat="43.48726" lon="5.23844">
        <ele>43</ele>
        <time>2022-10-02T08:49:04.000Z</time>
      </trkpt>
      <trkpt lat="43.48727" lon="5.23842">
        <ele>43</ele>
        <time>2022-10-02T08:49:05.000Z</time>
      </trkpt>
      <trkpt lat="43.48728" lon="5.23841">
        <ele>43</ele>
        <time>2022-10-02T08:49:06.000Z</time>
      </trkpt>
      <trkpt lat="43.48729" lon="5.23839">
        <ele>43</ele>
        <time>2022-10-02T08:49:07.000Z</time>
      </trkpt>
      <trkpt lat="43.4873" lon="5.23837">
        <ele>43</ele>
        <time>2022-10-02T08:49:08.000Z</time>
      </trkpt>
      <trkpt lat="43.48731" lon="5.23836">
        <ele>43</ele>
        <time>2022-10-02T08:49:09.000Z</time>
      </trkpt>
      <trkpt lat="43.48732" lon="5.23834">
        <ele>43</ele>
        <time>2022-10-02T08:49:10.000Z</time>
      </trkpt>
      <trkpt lat="43.48733" lon="5.23832">
        <ele>43</ele>
        <time>2022-10-02T08:49:11.000Z</time>
      </trkpt>
      <trkpt lat="43.48734" lon="5.23831">
        <ele>43</ele>
        <time>2022-10-02T08:49:12.000Z</time>
      </trkpt>
      <trkpt lat="43.48735" lon="5.23829">
        <ele>43</ele>
        <time>2022-10-02T08:49:13.000Z</time>
      </trkpt>
      <trkpt lat="43.48737" lon="5.23828">
        <ele>42</ele>
        <time>2022-10-02T08:49:14.000Z</time>
      </trkpt>
      <trkpt lat="43.48738" lon="5.23826">
        <ele>42</ele>
        <time>2022-10-02T08:49:15.000Z</time>
      </trkpt>
      <trkpt lat="43.48739" lon="5.23825">
        <ele>42</ele>
        <time>2022-10-02T08:49:16.000Z</time>
      </trkpt>
      <trkpt lat="43.4874" lon="5.23824">
        <ele>42</ele>
        <time>2022-10-02T08:49:17.000Z</time>
      </trkpt>
      <trkpt lat="43.48742" lon="5.23823">
        <ele>42</ele>
        <time>2022-10-02T08:49:18.000Z</time>
      </trkpt>
      <trkpt lat="43.48743" lon="5.23821">
        <ele>42</ele>
        <time>2022-10-02T08:49:19.000Z</time>
      </trkpt>
      <trkpt lat="43.48744" lon="5.2382">
        <ele>42</ele>
        <time>2022-10-02T08:49:20.000Z</time>
      </trkpt>
      <trkpt lat="43.48745" lon="5.23819">
        <ele>42</ele>
        <time>2022-10-02T08:49:21.000Z</time>
      </trkpt>
      <trkpt lat="43.48746" lon="5.23818">
        <ele>41</ele>
        <time>2022-10-02T08:49:22.000Z</time>
      </trkpt>
      <trkpt lat="43.48747" lon="5.23817">
        <ele>41</ele>
        <time>2022-10-02T08:49:23.000Z</time>
      </trkpt>
      <trkpt lat="43.48748" lon="5.23815">
        <ele>41</ele>
        <time>2022-10-02T08:49:24.000Z</time>
      </trkpt>
      <trkpt lat="43.48749" lon="5.23814">
        <ele>41</ele>
        <time>2022-10-02T08:49:25.000Z</time>
      </trkpt>
      <trkpt lat="43.4875" lon="5.23812">
        <ele>41</ele>
        <time>2022-10-02T08:49:26.000Z</time>
      </trkpt>
      <trkpt lat="43.48752" lon="5.23811">
        <ele>41</ele>
        <time>2022-10-02T08:49:27.000Z</time>
      </trkpt>
      <trkpt lat="43.48753" lon="5.23809">
        <ele>41</ele>
        <time>2022-10-02T08:49:28.000Z</time>
      </trkpt>
      <trkpt lat="43.48754" lon="5.23808">
        <ele>41</ele>
        <time>2022-10-02T08:49:29.000Z</time>
      </trkpt>
      <trkpt lat="43.48755" lon="5.23806">
        <ele>41</ele>
        <time>2022-10-02T08:49:30.000Z</time>
      </trkpt>
      <trkpt lat="43.48756" lon="5.23804">
        <ele>41</ele>
        <time>2022-10-02T08:49:31.000Z</time>
      </trkpt>
      <trkpt lat="43.48757" lon="5.23803">
        <ele>41</ele>
        <time>2022-10-02T08:49:32.000Z</time>
      </trkpt>
      <trkpt lat="43.48758" lon="5.23801">
        <ele>41</ele>
        <time>2022-10-02T08:49:33.000Z</time>
      </trkpt>
      <trkpt lat="43.48759" lon="5.238">
        <ele>41</ele>
        <time>2022-10-02T08:49:34.000Z</time>
      </trkpt>
      <trkpt lat="43.4876" lon="5.23798">
        <ele>41</ele>
        <time>2022-10-02T08:49:35.000Z</time>
      </trkpt>
      <trkpt lat="43.4876" lon="5.23796">
        <ele>41</ele>
        <time>2022-10-02T08:49:36.000Z</time>
      </trkpt>
      <trkpt lat="43.48761" lon="5.23794">
        <ele>41</ele>
        <time>2022-10-02T08:49:37.000Z</time>
      </trkpt>
      <trkpt lat="43.48762" lon="5.23792">
        <ele>42</ele>
        <time>2022-10-02T08:49:38.000Z</time>
      </trkpt>
      <trkpt lat="43.48763" lon="5.23791">
        <ele>42</ele>
        <time>2022-10-02T08:49:39.000Z</time>
      </trkpt>
      <trkpt lat="43.48764" lon="5.23789">
        <ele>42</ele>
        <time>2022-10-02T08:49:40.000Z</time>
      </trkpt>
      <trkpt lat="43.48766" lon="5.23787">
        <ele>42</ele>
        <time>2022-10-02T08:49:41.000Z</time>
      </trkpt>
      <trkpt lat="43.48767" lon="5.23786">
        <ele>42</ele>
        <time>2022-10-02T08:49:42.000Z</time>
      </trkpt>
      <trkpt lat="43.48768" lon="5.23784">
        <ele>42</ele>
        <time>2022-10-02T08:49:43.000Z</time>
      </trkpt>
      <trkpt lat="43.48769" lon="5.23783">
        <ele>42</ele>
        <time>2022-10-02T08:49:44.000Z</time>
      </trkpt>
      <trkpt lat="43.48771" lon="5.23781">
        <ele>42</ele>
        <time>2022-10-02T08:49:45.000Z</time>
      </trkpt>
      <trkpt lat="43.48772" lon="5.2378">
        <ele>42</ele>
        <time>2022-10-02T08:49:46.000Z</time>
      </trkpt>
      <trkpt lat="43.48773" lon="5.23779">
        <ele>42</ele>
        <time>2022-10-02T08:49:47.000Z</time>
      </trkpt>
      <trkpt lat="43.48774" lon="5.23777">
        <ele>42</ele>
        <time>2022-10-02T08:49:48.000Z</time>
      </trkpt>
      <trkpt lat="43.48775" lon="5.23775">
        <ele>42</ele>
        <time>2022-10-02T08:49:49.000Z</time>
      </trkpt>
      <trkpt lat="43.48776" lon="5.23774">
        <ele>42</ele>
        <time>2022-10-02T08:49:50.000Z</time>
      </trkpt>
      <trkpt lat="43.48778" lon="5.23772">
        <ele>42</ele>
        <time>2022-10-02T08:49:51.000Z</time>
      </trkpt>
      <trkpt lat="43.48779" lon="5.23771">
        <ele>42</ele>
        <time>2022-10-02T08:49:52.000Z</time>
      </trkpt>
      <trkpt lat="43.4878" lon="5.23769">
        <ele>42</ele>
        <time>2022-10-02T08:49:53.000Z</time>
      </trkpt>
      <trkpt lat="43.48781" lon="5.23767">
        <ele>42</ele>
        <time>2022-10-02T08:49:54.000Z</time>
      </trkpt>
      <trkpt lat="43.48782" lon="5.23765">
        <ele>42</ele>
        <time>2022-10-02T08:49:55.000Z</time>
      </trkpt>
      <trkpt lat="43.48783" lon="5.23764">
        <ele>42</ele>
        <time>2022-10-02T08:49:56.000Z</time>
      </trkpt>
      <trkpt lat="43.48784" lon="5.23762">
        <ele>42</ele>
        <time>2022-10-02T08:49:57.000Z</time>
      </trkpt>
      <trkpt lat="43.48785" lon="5.23761">
        <ele>42</ele>
        <time>2022-10-02T08:49:58.000Z</time>
      </trkpt>
      <trkpt lat="43.48786" lon="5.23759">
        <ele>42</ele>
        <time>2022-10-02T08:49:59.000Z</time>
      </trkpt>
      <trkpt lat="43.48788" lon="5.23758">
        <ele>42</ele>
        <time>2022-10-02T08:50:00.000Z</time>
      </trkpt>
      <trkpt lat="43.48789" lon="5.23756">
        <ele>42</ele>
        <time>2022-10-02T08:50:01.000Z</time>
      </trkpt>
      <trkpt lat="43.4879" lon="5.23755">
        <ele>42</ele>
        <time>2022-10-02T08:50:02.000Z</time>
      </trkpt>
      <trkpt lat="43.48791" lon="5.23753">
        <ele>42</ele>
        <time>2022-10-02T08:50:03.000Z</time>
      </trkpt>
      <trkpt lat="43.48792" lon="5.23751">
        <ele>42</ele>
        <time>2022-10-02T08:50:04.000Z</time>
      </trkpt>
      <trkpt lat="43.48793" lon="5.2375">
        <ele>42</ele>
        <time>2022-10-02T08:50:05.000Z</time>
      </trkpt>
      <trkpt lat="43.48794" lon="5.23748">
        <ele>42</ele>
        <time>2022-10-02T08:50:06.000Z</time>
      </trkpt>
      <trkpt lat="43.48795" lon="5.23746">
        <ele>42</ele>
        <time>2022-10-02T08:50:07.000Z</time>
      </trkpt>
      <trkpt lat="43.48796" lon="5.23745">
        <ele>42</ele>
        <time>2022-10-02T08:50:08.000Z</time>
      </trkpt>
      <trkpt lat="43.48797" lon="5.23743">
        <ele>42</ele>
        <time>2022-10-02T08:50:09.000Z</time>
      </trkpt>
      <trkpt lat="43.48798" lon="5.23741">
        <ele>42</ele>
        <time>2022-10-02T08:50:10.000Z</time>
      </trkpt>
      <trkpt lat="43.48799" lon="5.23739">
        <ele>42</ele>
        <time>2022-10-02T08:50:11.000Z</time>
      </trkpt>
      <trkpt lat="43.488" lon="5.23737">
        <ele>42</ele>
        <time>2022-10-02T08:50:12.000Z</time>
      </trkpt>
      <trkpt lat="43.48801" lon="5.23735">
        <ele>42</ele>
        <time>2022-10-02T08:50:13.000Z</time>
      </trkpt>
      <trkpt lat="43.48802" lon="5.23734">
        <ele>42</ele>
        <time>2022-10-02T08:50:14.000Z</time>
      </trkpt>
      <trkpt lat="43.48803" lon="5.23732">
        <ele>42</ele>
        <time>2022-10-02T08:50:15.000Z</time>
      </trkpt>
      <trkpt lat="43.48804" lon="5.2373">
        <ele>42</ele>
        <time>2022-10-02T08:50:16.000Z</time>
      </trkpt>
      <trkpt lat="43.48804" lon="5.23728">
        <ele>42</ele>
        <time>2022-10-02T08:50:17.000Z</time>
      </trkpt>
      <trkpt lat="43.48805" lon="5.23726">
        <ele>42</ele>
        <time>2022-10-02T08:50:18.000Z</time>
      </trkpt>
      <trkpt lat="43.48806" lon="5.23724">
        <ele>42</ele>
        <time>2022-10-02T08:50:19.000Z</time>
      </trkpt>
      <trkpt lat="43.48807" lon="5.23722">
        <ele>42</ele>
        <time>2022-10-02T08:50:20.000Z</time>
      </trkpt>
      <trkpt lat="43.48807" lon="5.2372">
        <ele>42</ele>
        <time>2022-10-02T08:50:21.000Z</time>
      </trkpt>
      <trkpt lat="43.48808" lon="5.23718">
        <ele>42</ele>
        <time>2022-10-02T08:50:22.000Z</time>
      </trkpt>
      <trkpt lat="43.48809" lon="5.23716">
        <ele>42</ele>
        <time>2022-10-02T08:50:23.000Z</time>
      </trkpt>
      <trkpt lat="43.4881" lon="5.23715">
        <ele>42</ele>
        <time>2022-10-02T08:50:24.000Z</time>
      </trkpt>
      <trkpt lat="43.48811" lon="5.23713">
        <ele>42</ele>
        <time>2022-10-02T08:50:25.000Z</time>
      </trkpt>
      <trkpt lat="43.48812" lon="5.23711">
        <ele>42</ele>
        <time>2022-10-02T08:50:26.000Z</time>
      </trkpt>
      <trkpt lat="43.48813" lon="5.23709">
        <ele>42</ele>
        <time>2022-10-02T08:50:27.000Z</time>
      </trkpt>
      <trkpt lat="43.48814" lon="5.23707">
        <ele>42</ele>
        <time>2022-10-02T08:50:28.000Z</time>
      </trkpt>
      <trkpt lat="43.48815" lon="5.23705">
        <ele>42</ele>
        <time>2022-10-02T08:50:29.000Z</time>
      </trkpt>
      <trkpt lat="43.48816" lon="5.23703">
        <ele>42</ele>
        <time>2022-10-02T08:50:30.000Z</time>
      </trkpt>
      <trkpt lat="43.48817" lon="5.23702">
        <ele>42</ele>
        <time>2022-10-02T08:50:31.000Z</time>
      </trkpt>
      <trkpt lat="43.48818" lon="5.237">
        <ele>42</ele>
        <time>2022-10-02T08:50:32.000Z</time>
      </trkpt>
      <trkpt lat="43.48819" lon="5.23698">
        <ele>42</ele>
        <time>2022-10-02T08:50:33.000Z</time>
      </trkpt>
      <trkpt lat="43.4882" lon="5.23696">
        <ele>42</ele>
        <time>2022-10-02T08:50:34.000Z</time>
      </trkpt>
      <trkpt lat="43.4882" lon="5.23694">
        <ele>42</ele>
        <time>2022-10-02T08:50:35.000Z</time>
      </trkpt>
      <trkpt lat="43.48821" lon="5.23693">
        <ele>42</ele>
        <time>2022-10-02T08:50:36.000Z</time>
      </trkpt>
      <trkpt lat="43.48822" lon="5.23691">
        <ele>42</ele>
        <time>2022-10-02T08:50:37.000Z</time>
      </trkpt>
      <trkpt lat="43.48823" lon="5.23689">
        <ele>42</ele>
        <time>2022-10-02T08:50:38.000Z</time>
      </trkpt>
      <trkpt lat="43.48824" lon="5.23687">
        <ele>42</ele>
        <time>2022-10-02T08:50:39.000Z</time>
      </trkpt>
      <trkpt lat="43.48825" lon="5.23686">
        <ele>42</ele>
        <time>2022-10-02T08:50:40.000Z</time>
      </trkpt>
      <trkpt lat="43.48825" lon="5.23684">
        <ele>42</ele>
        <time>2022-10-02T08:50:41.000Z</time>
      </trkpt>
      <trkpt lat="43.48826" lon="5.23682">
        <ele>42</ele>
        <time>2022-10-02T08:50:42.000Z</time>
      </trkpt>
      <trkpt lat="43.48827" lon="5.2368">
        <ele>42</ele>
        <time>2022-10-02T08:50:43.000Z</time>
      </trkpt>
      <trkpt lat="43.48828" lon="5.23678">
        <ele>42</ele>
        <time>2022-10-02T08:50:44.000Z</time>
      </trkpt>
      <trkpt lat="43.48829" lon="5.23677">
        <ele>41</ele>
        <time>2022-10-02T08:50:45.000Z</time>
      </trkpt>
      <trkpt lat="43.4883" lon="5.23675">
        <ele>41</ele>
        <time>2022-10-02T08:50:46.000Z</time>
      </trkpt>
      <trkpt lat="43.4883" lon="5.23673">
        <ele>41</ele>
        <time>2022-10-02T08:50:47.000Z</time>
      </trkpt>
      <trkpt lat="43.48831" lon="5.23671">
        <ele>41</ele>
        <time>2022-10-02T08:50:48.000Z</time>
      </trkpt>
      <trkpt lat="43.48832" lon="5.23669">
        <ele>41</ele>
        <time>2022-10-02T08:50:49.000Z</time>
      </trkpt>
      <trkpt lat="43.48833" lon="5.23667">
        <ele>41</ele>
        <time>2022-10-02T08:50:50.000Z</time>
      </trkpt>
      <trkpt lat="43.48834" lon="5.23666">
        <ele>41</ele>
        <time>2022-10-02T08:50:51.000Z</time>
      </trkpt>
      <trkpt lat="43.48835" lon="5.23664">
        <ele>41</ele>
        <time>2022-10-02T08:50:52.000Z</time>
      </trkpt>
      <trkpt lat="43.48836" lon="5.23662">
        <ele>41</ele>
        <time>2022-10-02T08:50:53.000Z</time>
      </trkpt>
      <trkpt lat="43.48837" lon="5.2366">
        <ele>41</ele>
        <time>2022-10-02T08:50:54.000Z</time>
      </trkpt>
      <trkpt lat="43.48838" lon="5.23658">
        <ele>41</ele>
        <time>2022-10-02T08:50:55.000Z</time>
      </trkpt>
      <trkpt lat="43.48839" lon="5.23657">
        <ele>41</ele>
        <time>2022-10-02T08:50:56.000Z</time>
      </trkpt>
      <trkpt lat="43.4884" lon="5.23655">
        <ele>41</ele>
        <time>2022-10-02T08:50:57.000Z</time>
      </trkpt>
      <trkpt lat="43.48842" lon="5.23653">
        <ele>41</ele>
        <time>2022-10-02T08:50:58.000Z</time>
      </trkpt>
      <trkpt lat="43.48843" lon="5.23652">
        <ele>41</ele>
        <time>2022-10-02T08:50:59.000Z</time>
      </trkpt>
      <trkpt lat="43.48844" lon="5.2365">
        <ele>41</ele>
        <time>2022-10-02T08:51:00.000Z</time>
      </trkpt>
      <trkpt lat="43.48844" lon="5.23648">
        <ele>41</ele>
        <time>2022-10-02T08:51:01.000Z</time>
      </trkpt>
      <trkpt lat="43.48845" lon="5.23647">
        <ele>41</ele>
        <time>2022-10-02T08:51:02.000Z</time>
      </trkpt>
      <trkpt lat="43.48846" lon="5.23645">
        <ele>41</ele>
        <time>2022-10-02T08:51:03.000Z</time>
      </trkpt>
      <trkpt lat="43.48848" lon="5.23643">
        <ele>41</ele>
        <time>2022-10-02T08:51:04.000Z</time>
      </trkpt>
      <trkpt lat="43.48849" lon="5.23641">
        <ele>41</ele>
        <time>2022-10-02T08:51:05.000Z</time>
      </trkpt>
      <trkpt lat="43.4885" lon="5.2364">
        <ele>41</ele>
        <time>2022-10-02T08:51:06.000Z</time>
      </trkpt>
      <trkpt lat="43.48851" lon="5.23638">
        <ele>41</ele>
        <time>2022-10-02T08:51:07.000Z</time>
      </trkpt>
      <trkpt lat="43.48852" lon="5.23636">
        <ele>41</ele>
        <time>2022-10-02T08:51:08.000Z</time>
      </trkpt>
      <trkpt lat="43.48853" lon="5.23634">
        <ele>41</ele>
        <time>2022-10-02T08:51:09.000Z</time>
      </trkpt>
      <trkpt lat="43.48854" lon="5.23632">
        <ele>41</ele>
        <time>2022-10-02T08:51:10.000Z</time>
      </trkpt>
      <trkpt lat="43.48855" lon="5.2363">
        <ele>42</ele>
        <time>2022-10-02T08:51:11.000Z</time>
      </trkpt>
      <trkpt lat="43.48856" lon="5.23628">
        <ele>42</ele>
        <time>2022-10-02T08:51:12.000Z</time>
      </trkpt>
      <trkpt lat="43.48857" lon="5.23626">
        <ele>42</ele>
        <time>2022-10-02T08:51:13.000Z</time>
      </trkpt>
      <trkpt lat="43.48858" lon="5.23623">
        <ele>42</ele>
        <time>2022-10-02T08:51:14.000Z</time>
      </trkpt>
      <trkpt lat="43.48859" lon="5.23621">
        <ele>42</ele>
        <time>2022-10-02T08:51:15.000Z</time>
      </trkpt>
      <trkpt lat="43.48859" lon="5.23619">
        <ele>42</ele>
        <time>2022-10-02T08:51:16.000Z</time>
      </trkpt>
      <trkpt lat="43.4886" lon="5.23617">
        <ele>42</ele>
        <time>2022-10-02T08:51:17.000Z</time>
      </trkpt>
      <trkpt lat="43.4886" lon="5.23615">
        <ele>42</ele>
        <time>2022-10-02T08:51:18.000Z</time>
      </trkpt>
      <trkpt lat="43.4886" lon="5.23612">
        <ele>42</ele>
        <time>2022-10-02T08:51:19.000Z</time>
      </trkpt>
      <trkpt lat="43.48861" lon="5.2361">
        <ele>42</ele>
        <time>2022-10-02T08:51:20.000Z</time>
      </trkpt>
      <trkpt lat="43.48861" lon="5.23608">
        <ele>42</ele>
        <time>2022-10-02T08:51:21.000Z</time>
      </trkpt>
      <trkpt lat="43.48861" lon="5.23606">
        <ele>42</ele>
        <time>2022-10-02T08:51:22.000Z</time>
      </trkpt>
      <trkpt lat="43.48861" lon="5.23604">
        <ele>42</ele>
        <time>2022-10-02T08:51:23.000Z</time>
      </trkpt>
      <trkpt lat="43.48861" lon="5.23602">
        <ele>42</ele>
        <time>2022-10-02T08:51:24.000Z</time>
      </trkpt>
      <trkpt lat="43.48862" lon="5.23599">
        <ele>42</ele>
        <time>2022-10-02T08:51:25.000Z</time>
      </trkpt>
      <trkpt lat="43.48862" lon="5.23597">
        <ele>42</ele>
        <time>2022-10-02T08:51:26.000Z</time>
      </trkpt>
      <trkpt lat="43.48862" lon="5.23595">
        <ele>41</ele>
        <time>2022-10-02T08:51:27.000Z</time>
      </trkpt>
      <trkpt lat="43.48862" lon="5.23593">
        <ele>41</ele>
        <time>2022-10-02T08:51:28.000Z</time>
      </trkpt>
      <trkpt lat="43.48863" lon="5.23591">
        <ele>41</ele>
        <time>2022-10-02T08:51:29.000Z</time>
      </trkpt>
      <trkpt lat="43.48864" lon="5.23589">
        <ele>42</ele>
        <time>2022-10-02T08:51:30.000Z</time>
      </trkpt>
      <trkpt lat="43.48864" lon="5.23587">
        <ele>42</ele>
        <time>2022-10-02T08:51:31.000Z</time>
      </trkpt>
      <trkpt lat="43.48865" lon="5.23585">
        <ele>42</ele>
        <time>2022-10-02T08:51:32.000Z</time>
      </trkpt>
      <trkpt lat="43.48865" lon="5.23583">
        <ele>42</ele>
        <time>2022-10-02T08:51:33.000Z</time>
      </trkpt>
      <trkpt lat="43.48866" lon="5.23581">
        <ele>42</ele>
        <time>2022-10-02T08:51:34.000Z</time>
      </trkpt>
      <trkpt lat="43.48866" lon="5.23579">
        <ele>42</ele>
        <time>2022-10-02T08:51:35.000Z</time>
      </trkpt>
      <trkpt lat="43.48866" lon="5.23577">
        <ele>42</ele>
        <time>2022-10-02T08:51:36.000Z</time>
      </trkpt>
      <trkpt lat="43.48866" lon="5.23575">
        <ele>41</ele>
        <time>2022-10-02T08:51:37.000Z</time>
      </trkpt>
      <trkpt lat="43.48867" lon="5.23573">
        <ele>41</ele>
        <time>2022-10-02T08:51:38.000Z</time>
      </trkpt>
      <trkpt lat="43.48867" lon="5.2357">
        <ele>41</ele>
        <time>2022-10-02T08:51:39.000Z</time>
      </trkpt>
      <trkpt lat="43.48867" lon="5.23568">
        <ele>41</ele>
        <time>2022-10-02T08:51:40.000Z</time>
      </trkpt>
      <trkpt lat="43.48867" lon="5.23566">
        <ele>41</ele>
        <time>2022-10-02T08:51:41.000Z</time>
      </trkpt>
      <trkpt lat="43.48867" lon="5.23564">
        <ele>41</ele>
        <time>2022-10-02T08:51:42.000Z</time>
      </trkpt>
      <trkpt lat="43.48867" lon="5.23562">
        <ele>41</ele>
        <time>2022-10-02T08:51:43.000Z</time>
      </trkpt>
      <trkpt lat="43.48867" lon="5.23559">
        <ele>41</ele>
        <time>2022-10-02T08:51:44.000Z</time>
      </trkpt>
      <trkpt lat="43.48867" lon="5.23557">
        <ele>41</ele>
        <time>2022-10-02T08:51:45.000Z</time>
      </trkpt>
      <trkpt lat="43.48867" lon="5.23555">
        <ele>41</ele>
        <time>2022-10-02T08:51:46.000Z</time>
      </trkpt>
      <trkpt lat="43.48867" lon="5.23552">
        <ele>41</ele>
        <time>2022-10-02T08:51:47.000Z</time>
      </trkpt>
      <trkpt lat="43.48867" lon="5.2355">
        <ele>41</ele>
        <time>2022-10-02T08:51:48.000Z</time>
      </trkpt>
      <trkpt lat="43.48867" lon="5.23547">
        <ele>41</ele>
        <time>2022-10-02T08:51:49.000Z</time>
      </trkpt>
      <trkpt lat="43.48867" lon="5.23545">
        <ele>41</ele>
        <time>2022-10-02T08:51:50.000Z</time>
      </trkpt>
      <trkpt lat="43.48867" lon="5.23543">
        <ele>41</ele>
        <time>2022-10-02T08:51:51.000Z</time>
      </trkpt>
      <trkpt lat="43.48868" lon="5.23541">
        <ele>41</ele>
        <time>2022-10-02T08:51:52.000Z</time>
      </trkpt>
      <trkpt lat="43.48869" lon="5.23538">
        <ele>41</ele>
        <time>2022-10-02T08:51:53.000Z</time>
      </trkpt>
      <trkpt lat="43.48869" lon="5.23536">
        <ele>41</ele>
        <time>2022-10-02T08:51:54.000Z</time>
      </trkpt>
      <trkpt lat="43.4887" lon="5.23534">
        <ele>41</ele>
        <time>2022-10-02T08:51:55.000Z</time>
      </trkpt>
      <trkpt lat="43.4887" lon="5.23532">
        <ele>41</ele>
        <time>2022-10-02T08:51:56.000Z</time>
      </trkpt>
      <trkpt lat="43.48871" lon="5.2353">
        <ele>41</ele>
        <time>2022-10-02T08:51:57.000Z</time>
      </trkpt>
      <trkpt lat="43.48872" lon="5.23528">
        <ele>41</ele>
        <time>2022-10-02T08:51:58.000Z</time>
      </trkpt>
      <trkpt lat="43.48873" lon="5.23526">
        <ele>40</ele>
        <time>2022-10-02T08:51:59.000Z</time>
      </trkpt>
      <trkpt lat="43.48874" lon="5.23524">
        <ele>40</ele>
        <time>2022-10-02T08:52:00.000Z</time>
      </trkpt>
      <trkpt lat="43.48874" lon="5.23522">
        <ele>40</ele>
        <time>2022-10-02T08:52:01.000Z</time>
      </trkpt>
      <trkpt lat="43.48875" lon="5.2352">
        <ele>40</ele>
        <time>2022-10-02T08:52:02.000Z</time>
      </trkpt>
      <trkpt lat="43.48876" lon="5.23518">
        <ele>40</ele>
        <time>2022-10-02T08:52:03.000Z</time>
      </trkpt>
      <trkpt lat="43.48877" lon="5.23516">
        <ele>40</ele>
        <time>2022-10-02T08:52:04.000Z</time>
      </trkpt>
      <trkpt lat="43.48878" lon="5.23514">
        <ele>40</ele>
        <time>2022-10-02T08:52:05.000Z</time>
      </trkpt>
      <trkpt lat="43.48879" lon="5.23513">
        <ele>40</ele>
        <time>2022-10-02T08:52:06.000Z</time>
      </trkpt>
      <trkpt lat="43.4888" lon="5.23511">
        <ele>40</ele>
        <time>2022-10-02T08:52:07.000Z</time>
      </trkpt>
      <trkpt lat="43.48881" lon="5.23509">
        <ele>40</ele>
        <time>2022-10-02T08:52:08.000Z</time>
      </trkpt>
      <trkpt lat="43.48882" lon="5.23508">
        <ele>40</ele>
        <time>2022-10-02T08:52:09.000Z</time>
      </trkpt>
      <trkpt lat="43.48883" lon="5.23506">
        <ele>40</ele>
        <time>2022-10-02T08:52:10.000Z</time>
      </trkpt>
      <trkpt lat="43.48883" lon="5.23505">
        <ele>40</ele>
        <time>2022-10-02T08:52:11.000Z</time>
      </trkpt>
      <trkpt lat="43.48884" lon="5.23503">
        <ele>40</ele>
        <time>2022-10-02T08:52:12.000Z</time>
      </trkpt>
      <trkpt lat="43.48885" lon="5.23501">
        <ele>40</ele>
        <time>2022-10-02T08:52:13.000Z</time>
      </trkpt>
      <trkpt lat="43.48886" lon="5.23499">
        <ele>40</ele>
        <time>2022-10-02T08:52:14.000Z</time>
      </trkpt>
      <trkpt lat="43.48887" lon="5.23497">
        <ele>40</ele>
        <time>2022-10-02T08:52:15.000Z</time>
      </trkpt>
      <trkpt lat="43.48888" lon="5.23495">
        <ele>40</ele>
        <time>2022-10-02T08:52:16.000Z</time>
      </trkpt>
      <trkpt lat="43.48889" lon="5.23493">
        <ele>39</ele>
        <time>2022-10-02T08:52:17.000Z</time>
      </trkpt>
      <trkpt lat="43.4889" lon="5.23491">
        <ele>39</ele>
        <time>2022-10-02T08:52:18.000Z</time>
      </trkpt>
      <trkpt lat="43.48891" lon="5.23489">
        <ele>39</ele>
        <time>2022-10-02T08:52:19.000Z</time>
      </trkpt>
      <trkpt lat="43.48892" lon="5.23487">
        <ele>39</ele>
        <time>2022-10-02T08:52:20.000Z</time>
      </trkpt>
      <trkpt lat="43.48893" lon="5.23485">
        <ele>39</ele>
        <time>2022-10-02T08:52:21.000Z</time>
      </trkpt>
      <trkpt lat="43.48894" lon="5.23483">
        <ele>39</ele>
        <time>2022-10-02T08:52:22.000Z</time>
      </trkpt>
      <trkpt lat="43.48894" lon="5.23481">
        <ele>39</ele>
        <time>2022-10-02T08:52:23.000Z</time>
      </trkpt>
      <trkpt lat="43.48895" lon="5.2348">
        <ele>40</ele>
        <time>2022-10-02T08:52:24.000Z</time>
      </trkpt>
      <trkpt lat="43.48896" lon="5.23478">
        <ele>40</ele>
        <time>2022-10-02T08:52:25.000Z</time>
      </trkpt>
      <trkpt lat="43.48897" lon="5.23476">
        <ele>40</ele>
        <time>2022-10-02T08:52:26.000Z</time>
      </trkpt>
      <trkpt lat="43.48898" lon="5.23474">
        <ele>40</ele>
        <time>2022-10-02T08:52:27.000Z</time>
      </trkpt>
      <trkpt lat="43.48898" lon="5.23472">
        <ele>40</ele>
        <time>2022-10-02T08:52:28.000Z</time>
      </trkpt>
      <trkpt lat="43.48899" lon="5.2347">
        <ele>40</ele>
        <time>2022-10-02T08:52:29.000Z</time>
      </trkpt>
      <trkpt lat="43.489" lon="5.23468">
        <ele>40</ele>
        <time>2022-10-02T08:52:30.000Z</time>
      </trkpt>
      <trkpt lat="43.48901" lon="5.23466">
        <ele>40</ele>
        <time>2022-10-02T08:52:31.000Z</time>
      </trkpt>
      <trkpt lat="43.48901" lon="5.23465">
        <ele>39</ele>
        <time>2022-10-02T08:52:32.000Z</time>
      </trkpt>
      <trkpt lat="43.48902" lon="5.23463">
        <ele>39</ele>
        <time>2022-10-02T08:52:33.000Z</time>
      </trkpt>
      <trkpt lat="43.48903" lon="5.23461">
        <ele>39</ele>
        <time>2022-10-02T08:52:34.000Z</time>
      </trkpt>
      <trkpt lat="43.48904" lon="5.23459">
        <ele>39</ele>
        <time>2022-10-02T08:52:35.000Z</time>
      </trkpt>
      <trkpt lat="43.48905" lon="5.23457">
        <ele>39</ele>
        <time>2022-10-02T08:52:36.000Z</time>
      </trkpt>
      <trkpt lat="43.48905" lon="5.23455">
        <ele>39</ele>
        <time>2022-10-02T08:52:37.000Z</time>
      </trkpt>
      <trkpt lat="43.48907" lon="5.23454">
        <ele>39</ele>
        <time>2022-10-02T08:52:38.000Z</time>
      </trkpt>
      <trkpt lat="43.48908" lon="5.23452">
        <ele>39</ele>
        <time>2022-10-02T08:52:39.000Z</time>
      </trkpt>
      <trkpt lat="43.48909" lon="5.2345">
        <ele>38</ele>
        <time>2022-10-02T08:52:40.000Z</time>
      </trkpt>
      <trkpt lat="43.4891" lon="5.23449">
        <ele>38</ele>
        <time>2022-10-02T08:52:41.000Z</time>
      </trkpt>
      <trkpt lat="43.4891" lon="5.23447">
        <ele>38</ele>
        <time>2022-10-02T08:52:42.000Z</time>
      </trkpt>
      <trkpt lat="43.48911" lon="5.23445">
        <ele>38</ele>
        <time>2022-10-02T08:52:43.000Z</time>
      </trkpt>
      <trkpt lat="43.48912" lon="5.23443">
        <ele>38</ele>
        <time>2022-10-02T08:52:44.000Z</time>
      </trkpt>
      <trkpt lat="43.48913" lon="5.23441">
        <ele>38</ele>
        <time>2022-10-02T08:52:45.000Z</time>
      </trkpt>
      <trkpt lat="43.48914" lon="5.23439">
        <ele>38</ele>
        <time>2022-10-02T08:52:46.000Z</time>
      </trkpt>
      <trkpt lat="43.48915" lon="5.23437">
        <ele>38</ele>
        <time>2022-10-02T08:52:47.000Z</time>
      </trkpt>
      <trkpt lat="43.48916" lon="5.23436">
        <ele>38</ele>
        <time>2022-10-02T08:52:48.000Z</time>
      </trkpt>
      <trkpt lat="43.48917" lon="5.23434">
        <ele>38</ele>
        <time>2022-10-02T08:52:49.000Z</time>
      </trkpt>
      <trkpt lat="43.48918" lon="5.23433">
        <ele>38</ele>
        <time>2022-10-02T08:52:50.000Z</time>
      </trkpt>
      <trkpt lat="43.48919" lon="5.23432">
        <ele>37</ele>
        <time>2022-10-02T08:52:51.000Z</time>
      </trkpt>
      <trkpt lat="43.4892" lon="5.2343">
        <ele>37</ele>
        <time>2022-10-02T08:52:52.000Z</time>
      </trkpt>
      <trkpt lat="43.48921" lon="5.23428">
        <ele>37</ele>
        <time>2022-10-02T08:52:53.000Z</time>
      </trkpt>
      <trkpt lat="43.48922" lon="5.23426">
        <ele>37</ele>
        <time>2022-10-02T08:52:54.000Z</time>
      </trkpt>
      <trkpt lat="43.48923" lon="5.23425">
        <ele>37</ele>
        <time>2022-10-02T08:52:55.000Z</time>
      </trkpt>
      <trkpt lat="43.48924" lon="5.23423">
        <ele>37</ele>
        <time>2022-10-02T08:52:56.000Z</time>
      </trkpt>
      <trkpt lat="43.48925" lon="5.23421">
        <ele>37</ele>
        <time>2022-10-02T08:52:57.000Z</time>
      </trkpt>
      <trkpt lat="43.48926" lon="5.23419">
        <ele>36</ele>
        <time>2022-10-02T08:52:58.000Z</time>
      </trkpt>
      <trkpt lat="43.48928" lon="5.23417">
        <ele>36</ele>
        <time>2022-10-02T08:52:59.000Z</time>
      </trkpt>
      <trkpt lat="43.48929" lon="5.23415">
        <ele>36</ele>
        <time>2022-10-02T08:53:00.000Z</time>
      </trkpt>
      <trkpt lat="43.4893" lon="5.23413">
        <ele>36</ele>
        <time>2022-10-02T08:53:01.000Z</time>
      </trkpt>
      <trkpt lat="43.48931" lon="5.23411">
        <ele>36</ele>
        <time>2022-10-02T08:53:02.000Z</time>
      </trkpt>
      <trkpt lat="43.48932" lon="5.23409">
        <ele>36</ele>
        <time>2022-10-02T08:53:03.000Z</time>
      </trkpt>
      <trkpt lat="43.48933" lon="5.23407">
        <ele>36</ele>
        <time>2022-10-02T08:53:04.000Z</time>
      </trkpt>
      <trkpt lat="43.48934" lon="5.23405">
        <ele>36</ele>
        <time>2022-10-02T08:53:05.000Z</time>
      </trkpt>
      <trkpt lat="43.48935" lon="5.23403">
        <ele>36</ele>
        <time>2022-10-02T08:53:06.000Z</time>
      </trkpt>
      <trkpt lat="43.48935" lon="5.234">
        <ele>36</ele>
        <time>2022-10-02T08:53:07.000Z</time>
      </trkpt>
      <trkpt lat="43.48936" lon="5.23399">
        <ele>36</ele>
        <time>2022-10-02T08:53:08.000Z</time>
      </trkpt>
      <trkpt lat="43.48937" lon="5.23397">
        <ele>36</ele>
        <time>2022-10-02T08:53:09.000Z</time>
      </trkpt>
      <trkpt lat="43.48938" lon="5.23395">
        <ele>36</ele>
        <time>2022-10-02T08:53:10.000Z</time>
      </trkpt>
      <trkpt lat="43.48939" lon="5.23393">
        <ele>36</ele>
        <time>2022-10-02T08:53:11.000Z</time>
      </trkpt>
      <trkpt lat="43.4894" lon="5.23391">
        <ele>36</ele>
        <time>2022-10-02T08:53:12.000Z</time>
      </trkpt>
      <trkpt lat="43.48941" lon="5.2339">
        <ele>36</ele>
        <time>2022-10-02T08:53:13.000Z</time>
      </trkpt>
      <trkpt lat="43.48942" lon="5.23388">
        <ele>36</ele>
        <time>2022-10-02T08:53:14.000Z</time>
      </trkpt>
      <trkpt lat="43.48942" lon="5.23386">
        <ele>36</ele>
        <time>2022-10-02T08:53:15.000Z</time>
      </trkpt>
      <trkpt lat="43.48943" lon="5.23384">
        <ele>36</ele>
        <time>2022-10-02T08:53:16.000Z</time>
      </trkpt>
      <trkpt lat="43.48944" lon="5.23383">
        <ele>36</ele>
        <time>2022-10-02T08:53:17.000Z</time>
      </trkpt>
      <trkpt lat="43.48945" lon="5.23381">
        <ele>36</ele>
        <time>2022-10-02T08:53:18.000Z</time>
      </trkpt>
      <trkpt lat="43.48946" lon="5.23379">
        <ele>36</ele>
        <time>2022-10-02T08:53:19.000Z</time>
      </trkpt>
      <trkpt lat="43.48948" lon="5.23378">
        <ele>36</ele>
        <time>2022-10-02T08:53:20.000Z</time>
      </trkpt>
      <trkpt lat="43.48949" lon="5.23377">
        <ele>36</ele>
        <time>2022-10-02T08:53:21.000Z</time>
      </trkpt>
      <trkpt lat="43.48951" lon="5.23375">
        <ele>35</ele>
        <time>2022-10-02T08:53:22.000Z</time>
      </trkpt>
      <trkpt lat="43.48952" lon="5.23374">
        <ele>35</ele>
        <time>2022-10-02T08:53:23.000Z</time>
      </trkpt>
      <trkpt lat="43.48954" lon="5.23373">
        <ele>35</ele>
        <time>2022-10-02T08:53:24.000Z</time>
      </trkpt>
      <trkpt lat="43.48955" lon="5.23372">
        <ele>35</ele>
        <time>2022-10-02T08:53:25.000Z</time>
      </trkpt>
      <trkpt lat="43.48956" lon="5.23371">
        <ele>35</ele>
        <time>2022-10-02T08:53:26.000Z</time>
      </trkpt>
      <trkpt lat="43.48958" lon="5.2337">
        <ele>35</ele>
        <time>2022-10-02T08:53:27.000Z</time>
      </trkpt>
      <trkpt lat="43.48959" lon="5.23369">
        <ele>34</ele>
        <time>2022-10-02T08:53:28.000Z</time>
      </trkpt>
      <trkpt lat="43.48961" lon="5.23368">
        <ele>34</ele>
        <time>2022-10-02T08:53:29.000Z</time>
      </trkpt>
      <trkpt lat="43.48962" lon="5.23367">
        <ele>34</ele>
        <time>2022-10-02T08:53:30.000Z</time>
      </trkpt>
      <trkpt lat="43.48963" lon="5.23366">
        <ele>34</ele>
        <time>2022-10-02T08:53:31.000Z</time>
      </trkpt>
      <trkpt lat="43.48965" lon="5.23365">
        <ele>34</ele>
        <time>2022-10-02T08:53:32.000Z</time>
      </trkpt>
      <trkpt lat="43.48966" lon="5.23364">
        <ele>34</ele>
        <time>2022-10-02T08:53:33.000Z</time>
      </trkpt>
      <trkpt lat="43.48967" lon="5.23363">
        <ele>34</ele>
        <time>2022-10-02T08:53:34.000Z</time>
      </trkpt>
      <trkpt lat="43.48969" lon="5.23362">
        <ele>33</ele>
        <time>2022-10-02T08:53:35.000Z</time>
      </trkpt>
      <trkpt lat="43.4897" lon="5.23361">
        <ele>33</ele>
        <time>2022-10-02T08:53:36.000Z</time>
      </trkpt>
      <trkpt lat="43.48972" lon="5.2336">
        <ele>33</ele>
        <time>2022-10-02T08:53:37.000Z</time>
      </trkpt>
      <trkpt lat="43.48973" lon="5.23359">
        <ele>33</ele>
        <time>2022-10-02T08:53:38.000Z</time>
      </trkpt>
      <trkpt lat="43.48975" lon="5.23358">
        <ele>33</ele>
        <time>2022-10-02T08:53:39.000Z</time>
      </trkpt>
      <trkpt lat="43.48976" lon="5.23357">
        <ele>33</ele>
        <time>2022-10-02T08:53:40.000Z</time>
      </trkpt>
      <trkpt lat="43.48977" lon="5.23356">
        <ele>33</ele>
        <time>2022-10-02T08:53:41.000Z</time>
      </trkpt>
      <trkpt lat="43.48979" lon="5.23354">
        <ele>32</ele>
        <time>2022-10-02T08:53:42.000Z</time>
      </trkpt>
      <trkpt lat="43.4898" lon="5.23353">
        <ele>32</ele>
        <time>2022-10-02T08:53:43.000Z</time>
      </trkpt>
      <trkpt lat="43.48981" lon="5.23351">
        <ele>32</ele>
        <time>2022-10-02T08:53:44.000Z</time>
      </trkpt>
      <trkpt lat="43.48983" lon="5.2335">
        <ele>32</ele>
        <time>2022-10-02T08:53:45.000Z</time>
      </trkpt>
      <trkpt lat="43.48984" lon="5.23349">
        <ele>32</ele>
        <time>2022-10-02T08:53:46.000Z</time>
      </trkpt>
      <trkpt lat="43.48985" lon="5.23347">
        <ele>32</ele>
        <time>2022-10-02T08:53:47.000Z</time>
      </trkpt>
      <trkpt lat="43.48987" lon="5.23346">
        <ele>32</ele>
        <time>2022-10-02T08:53:48.000Z</time>
      </trkpt>
      <trkpt lat="43.48988" lon="5.23345">
        <ele>32</ele>
        <time>2022-10-02T08:53:49.000Z</time>
      </trkpt>
      <trkpt lat="43.48989" lon="5.23343">
        <ele>32</ele>
        <time>2022-10-02T08:53:50.000Z</time>
      </trkpt>
      <trkpt lat="43.4899" lon="5.23342">
        <ele>32</ele>
        <time>2022-10-02T08:53:51.000Z</time>
      </trkpt>
      <trkpt lat="43.48991" lon="5.2334">
        <ele>31</ele>
        <time>2022-10-02T08:53:52.000Z</time>
      </trkpt>
      <trkpt lat="43.48992" lon="5.23339">
        <ele>31</ele>
        <time>2022-10-02T08:53:53.000Z</time>
      </trkpt>
      <trkpt lat="43.48994" lon="5.23338">
        <ele>31</ele>
        <time>2022-10-02T08:53:54.000Z</time>
      </trkpt>
      <trkpt lat="43.48995" lon="5.23336">
        <ele>31</ele>
        <time>2022-10-02T08:53:55.000Z</time>
      </trkpt>
      <trkpt lat="43.48996" lon="5.23335">
        <ele>31</ele>
        <time>2022-10-02T08:53:56.000Z</time>
      </trkpt>
      <trkpt lat="43.48998" lon="5.23334">
        <ele>31</ele>
        <time>2022-10-02T08:53:57.000Z</time>
      </trkpt>
      <trkpt lat="43.48999" lon="5.23332">
        <ele>31</ele>
        <time>2022-10-02T08:53:58.000Z</time>
      </trkpt>
      <trkpt lat="43.49" lon="5.23331">
        <ele>31</ele>
        <time>2022-10-02T08:53:59.000Z</time>
      </trkpt>
      <trkpt lat="43.49001" lon="5.2333">
        <ele>31</ele>
        <time>2022-10-02T08:54:00.000Z</time>
      </trkpt>
      <trkpt lat="43.49003" lon="5.23328">
        <ele>31</ele>
        <time>2022-10-02T08:54:01.000Z</time>
      </trkpt>
      <trkpt lat="43.49004" lon="5.23327">
        <ele>31</ele>
        <time>2022-10-02T08:54:02.000Z</time>
      </trkpt>
      <trkpt lat="43.49005" lon="5.23326">
        <ele>30</ele>
        <time>2022-10-02T08:54:03.000Z</time>
      </trkpt>
      <trkpt lat="43.49006" lon="5.23324">
        <ele>30</ele>
        <time>2022-10-02T08:54:04.000Z</time>
      </trkpt>
      <trkpt lat="43.49007" lon="5.23323">
        <ele>30</ele>
        <time>2022-10-02T08:54:05.000Z</time>
      </trkpt>
      <trkpt lat="43.49008" lon="5.23321">
        <ele>30</ele>
        <time>2022-10-02T08:54:06.000Z</time>
      </trkpt>
      <trkpt lat="43.49009" lon="5.2332">
        <ele>30</ele>
        <time>2022-10-02T08:54:07.000Z</time>
      </trkpt>
      <trkpt lat="43.4901" lon="5.23319">
        <ele>30</ele>
        <time>2022-10-02T08:54:08.000Z</time>
      </trkpt>
      <trkpt lat="43.49011" lon="5.23317">
        <ele>30</ele>
        <time>2022-10-02T08:54:09.000Z</time>
      </trkpt>
      <trkpt lat="43.49012" lon="5.23316">
        <ele>30</ele>
        <time>2022-10-02T08:54:10.000Z</time>
      </trkpt>
      <trkpt lat="43.49013" lon="5.23314">
        <ele>29</ele>
        <time>2022-10-02T08:54:11.000Z</time>
      </trkpt>
      <trkpt lat="43.49014" lon="5.23313">
        <ele>29</ele>
        <time>2022-10-02T08:54:12.000Z</time>
      </trkpt>
      <trkpt lat="43.49015" lon="5.23311">
        <ele>29</ele>
        <time>2022-10-02T08:54:13.000Z</time>
      </trkpt>
      <trkpt lat="43.49016" lon="5.23309">
        <ele>29</ele>
        <time>2022-10-02T08:54:14.000Z</time>
      </trkpt>
      <trkpt lat="43.49017" lon="5.23307">
        <ele>29</ele>
        <time>2022-10-02T08:54:15.000Z</time>
      </trkpt>
      <trkpt lat="43.49018" lon="5.23306">
        <ele>29</ele>
        <time>2022-10-02T08:54:16.000Z</time>
      </trkpt>
      <trkpt lat="43.49019" lon="5.23304">
        <ele>29</ele>
        <time>2022-10-02T08:54:17.000Z</time>
      </trkpt>
      <trkpt lat="43.4902" lon="5.23303">
        <ele>29</ele>
        <time>2022-10-02T08:54:18.000Z</time>
      </trkpt>
      <trkpt lat="43.49021" lon="5.23301">
        <ele>29</ele>
        <time>2022-10-02T08:54:19.000Z</time>
      </trkpt>
      <trkpt lat="43.49022" lon="5.233">
        <ele>28</ele>
        <time>2022-10-02T08:54:20.000Z</time>
      </trkpt>
      <trkpt lat="43.49022" lon="5.23299">
        <ele>28</ele>
        <time>2022-10-02T08:54:21.000Z</time>
      </trkpt>
      <trkpt lat="43.49022" lon="5.23297">
        <ele>28</ele>
        <time>2022-10-02T08:54:22.000Z</time>
      </trkpt>
      <trkpt lat="43.49022" lon="5.23296">
        <ele>28</ele>
        <time>2022-10-02T08:54:23.000Z</time>
      </trkpt>
      <trkpt lat="43.49021" lon="5.23296">
        <ele>28</ele>
        <time>2022-10-02T08:54:24.000Z</time>
      </trkpt>
      <trkpt lat="43.4902" lon="5.23295">
        <ele>28</ele>
        <time>2022-10-02T08:54:25.000Z</time>
      </trkpt>
      <trkpt lat="43.49019" lon="5.23293">
        <ele>28</ele>
        <time>2022-10-02T08:54:26.000Z</time>
      </trkpt>
      <trkpt lat="43.49018" lon="5.23292">
        <ele>28</ele>
        <time>2022-10-02T08:54:27.000Z</time>
      </trkpt>
      <trkpt lat="43.49016" lon="5.23291">
        <ele>28</ele>
        <time>2022-10-02T08:54:28.000Z</time>
      </trkpt>
      <trkpt lat="43.49015" lon="5.2329">
        <ele>28</ele>
        <time>2022-10-02T08:54:29.000Z</time>
      </trkpt>
      <trkpt lat="43.49013" lon="5.23289">
        <ele>28</ele>
        <time>2022-10-02T08:54:30.000Z</time>
      </trkpt>
      <trkpt lat="43.49012" lon="5.23288">
        <ele>28</ele>
        <time>2022-10-02T08:54:31.000Z</time>
      </trkpt>
      <trkpt lat="43.49011" lon="5.23287">
        <ele>28</ele>
        <time>2022-10-02T08:54:32.000Z</time>
      </trkpt>
      <trkpt lat="43.49009" lon="5.23285">
        <ele>28</ele>
        <time>2022-10-02T08:54:33.000Z</time>
      </trkpt>
      <trkpt lat="43.49008" lon="5.23284">
        <ele>28</ele>
        <time>2022-10-02T08:54:34.000Z</time>
      </trkpt>
      <trkpt lat="43.49006" lon="5.23283">
        <ele>28</ele>
        <time>2022-10-02T08:54:35.000Z</time>
      </trkpt>
      <trkpt lat="43.49005" lon="5.23282">
        <ele>28</ele>
        <time>2022-10-02T08:54:36.000Z</time>
      </trkpt>
      <trkpt lat="43.49003" lon="5.23281">
        <ele>27</ele>
        <time>2022-10-02T08:54:37.000Z</time>
      </trkpt>
      <trkpt lat="43.49002" lon="5.23279">
        <ele>27</ele>
        <time>2022-10-02T08:54:38.000Z</time>
      </trkpt>
      <trkpt lat="43.49001" lon="5.23278">
        <ele>27</ele>
        <time>2022-10-02T08:54:39.000Z</time>
      </trkpt>
      <trkpt lat="43.48999" lon="5.23277">
        <ele>27</ele>
        <time>2022-10-02T08:54:40.000Z</time>
      </trkpt>
      <trkpt lat="43.48998" lon="5.23275">
        <ele>27</ele>
        <time>2022-10-02T08:54:41.000Z</time>
      </trkpt>
      <trkpt lat="43.48997" lon="5.23274">
        <ele>27</ele>
        <time>2022-10-02T08:54:42.000Z</time>
      </trkpt>
      <trkpt lat="43.48995" lon="5.23273">
        <ele>27</ele>
        <time>2022-10-02T08:54:43.000Z</time>
      </trkpt>
      <trkpt lat="43.48994" lon="5.23272">
        <ele>27</ele>
        <time>2022-10-02T08:54:44.000Z</time>
      </trkpt>
      <trkpt lat="43.48993" lon="5.23271">
        <ele>27</ele>
        <time>2022-10-02T08:54:45.000Z</time>
      </trkpt>
      <trkpt lat="43.48991" lon="5.2327">
        <ele>27</ele>
        <time>2022-10-02T08:54:46.000Z</time>
      </trkpt>
      <trkpt lat="43.4899" lon="5.23268">
        <ele>27</ele>
        <time>2022-10-02T08:54:47.000Z</time>
      </trkpt>
      <trkpt lat="43.48989" lon="5.23267">
        <ele>27</ele>
        <time>2022-10-02T08:54:48.000Z</time>
      </trkpt>
      <trkpt lat="43.48988" lon="5.23266">
        <ele>27</ele>
        <time>2022-10-02T08:54:49.000Z</time>
      </trkpt>
      <trkpt lat="43.48987" lon="5.23266">
        <ele>27</ele>
        <time>2022-10-02T08:54:50.000Z</time>
      </trkpt>
      <trkpt lat="43.48986" lon="5.23265">
        <ele>27</ele>
        <time>2022-10-02T08:54:51.000Z</time>
      </trkpt>
      <trkpt lat="43.48985" lon="5.23265">
        <ele>27</ele>
        <time>2022-10-02T08:54:52.000Z</time>
      </trkpt>
      <trkpt lat="43.48984" lon="5.23264">
        <ele>27</ele>
        <time>2022-10-02T08:54:53.000Z</time>
      </trkpt>
      <trkpt lat="43.48983" lon="5.23263">
        <ele>27</ele>
        <time>2022-10-02T08:54:54.000Z</time>
      </trkpt>
      <trkpt lat="43.48981" lon="5.23262">
        <ele>27</ele>
        <time>2022-10-02T08:54:55.000Z</time>
      </trkpt>
      <trkpt lat="43.4898" lon="5.23262">
        <ele>27</ele>
        <time>2022-10-02T08:54:56.000Z</time>
      </trkpt>
      <trkpt lat="43.48978" lon="5.23261">
        <ele>27</ele>
        <time>2022-10-02T08:54:57.000Z</time>
      </trkpt>
      <trkpt lat="43.48977" lon="5.2326">
        <ele>27</ele>
        <time>2022-10-02T08:54:58.000Z</time>
      </trkpt>
      <trkpt lat="43.48976" lon="5.23259">
        <ele>27</ele>
        <time>2022-10-02T08:54:59.000Z</time>
      </trkpt>
      <trkpt lat="43.48974" lon="5.23258">
        <ele>27</ele>
        <time>2022-10-02T08:55:00.000Z</time>
      </trkpt>
      <trkpt lat="43.48973" lon="5.23257">
        <ele>27</ele>
        <time>2022-10-02T08:55:01.000Z</time>
      </trkpt>
      <trkpt lat="43.48972" lon="5.23256">
        <ele>27</ele>
        <time>2022-10-02T08:55:02.000Z</time>
      </trkpt>
      <trkpt lat="43.48971" lon="5.23254">
        <ele>27</ele>
        <time>2022-10-02T08:55:03.000Z</time>
      </trkpt>
      <trkpt lat="43.4897" lon="5.23253">
        <ele>27</ele>
        <time>2022-10-02T08:55:04.000Z</time>
      </trkpt>
      <trkpt lat="43.48968" lon="5.23252">
        <ele>26</ele>
        <time>2022-10-02T08:55:05.000Z</time>
      </trkpt>
      <trkpt lat="43.48967" lon="5.23252">
        <ele>26</ele>
        <time>2022-10-02T08:55:06.000Z</time>
      </trkpt>
      <trkpt lat="43.48966" lon="5.23251">
        <ele>26</ele>
        <time>2022-10-02T08:55:07.000Z</time>
      </trkpt>
      <trkpt lat="43.48965" lon="5.2325">
        <ele>26</ele>
        <time>2022-10-02T08:55:08.000Z</time>
      </trkpt>
      <trkpt lat="43.48964" lon="5.2325">
        <ele>26</ele>
        <time>2022-10-02T08:55:09.000Z</time>
      </trkpt>
      <trkpt lat="43.48963" lon="5.2325">
        <ele>26</ele>
        <time>2022-10-02T08:55:10.000Z</time>
      </trkpt>
      <trkpt lat="43.48962" lon="5.2325">
        <ele>26</ele>
        <time>2022-10-02T08:55:11.000Z</time>
      </trkpt>
      <trkpt lat="43.48961" lon="5.2325">
        <ele>26</ele>
        <time>2022-10-02T08:55:12.000Z</time>
      </trkpt>
      <trkpt lat="43.4896" lon="5.23251">
        <ele>26</ele>
        <time>2022-10-02T08:55:13.000Z</time>
      </trkpt>
      <trkpt lat="43.4896" lon="5.23251">
        <ele>26</ele>
        <time>2022-10-02T08:55:14.000Z</time>
      </trkpt>
      <trkpt lat="43.48959" lon="5.23252">
        <ele>27</ele>
        <time>2022-10-02T08:55:15.000Z</time>
      </trkpt>
      <trkpt lat="43.48959" lon="5.23253">
        <ele>27</ele>
        <time>2022-10-02T08:55:16.000Z</time>
      </trkpt>
      <trkpt lat="43.48959" lon="5.23253">
        <ele>27</ele>
        <time>2022-10-02T08:55:17.000Z</time>
      </trkpt>
      <trkpt lat="43.48959" lon="5.23253">
        <ele>27</ele>
        <time>2022-10-02T08:55:18.000Z</time>
      </trkpt>
      <trkpt lat="43.48959" lon="5.23252">
        <ele>27</ele>
        <time>2022-10-02T08:55:19.000Z</time>
      </trkpt>
      <trkpt lat="43.48959" lon="5.2325">
        <ele>27</ele>
        <time>2022-10-02T08:55:20.000Z</time>
      </trkpt>
      <trkpt lat="43.48959" lon="5.23248">
        <ele>27</ele>
        <time>2022-10-02T08:55:21.000Z</time>
      </trkpt>
      <trkpt lat="43.48959" lon="5.23246">
        <ele>27</ele>
        <time>2022-10-02T08:55:22.000Z</time>
      </trkpt>
      <trkpt lat="43.4896" lon="5.23245">
        <ele>27</ele>
        <time>2022-10-02T08:55:23.000Z</time>
      </trkpt>
      <trkpt lat="43.48961" lon="5.23243">
        <ele>27</ele>
        <time>2022-10-02T08:55:24.000Z</time>
      </trkpt>
      <trkpt lat="43.48961" lon="5.23242">
        <ele>27</ele>
        <time>2022-10-02T08:55:25.000Z</time>
      </trkpt>
      <trkpt lat="43.48962" lon="5.23242">
        <ele>27</ele>
        <time>2022-10-02T08:55:26.000Z</time>
      </trkpt>
      <trkpt lat="43.48962" lon="5.2324">
        <ele>27</ele>
        <time>2022-10-02T08:55:27.000Z</time>
      </trkpt>
      <trkpt lat="43.48961" lon="5.23238">
        <ele>27</ele>
        <time>2022-10-02T08:55:28.000Z</time>
      </trkpt>
      <trkpt lat="43.48961" lon="5.23236">
        <ele>26</ele>
        <time>2022-10-02T08:55:29.000Z</time>
      </trkpt>
      <trkpt lat="43.48961" lon="5.23235">
        <ele>26</ele>
        <time>2022-10-02T08:55:30.000Z</time>
      </trkpt>
      <trkpt lat="43.48961" lon="5.23235">
        <ele>26</ele>
        <time>2022-10-02T08:55:31.000Z</time>
      </trkpt>
      <trkpt lat="43.48962" lon="5.23235">
        <ele>26</ele>
        <time>2022-10-02T08:55:32.000Z</time>
      </trkpt>
      <trkpt lat="43.48962" lon="5.23235">
        <ele>26</ele>
        <time>2022-10-02T08:55:33.000Z</time>
      </trkpt>
      <trkpt lat="43.48963" lon="5.23235">
        <ele>26</ele>
        <time>2022-10-02T08:55:34.000Z</time>
      </trkpt>
      <trkpt lat="43.48963" lon="5.23235">
        <ele>26</ele>
        <time>2022-10-02T08:55:35.000Z</time>
      </trkpt>
      <trkpt lat="43.48963" lon="5.23235">
        <ele>26</ele>
        <time>2022-10-02T08:55:36.000Z</time>
      </trkpt>
      <trkpt lat="43.48963" lon="5.23235">
        <ele>26</ele>
        <time>2022-10-02T08:55:37.000Z</time>
      </trkpt>
      <trkpt lat="43.48963" lon="5.23235">
        <ele>26</ele>
        <time>2022-10-02T08:55:38.000Z</time>
      </trkpt>
      <trkpt lat="43.48963" lon="5.23234">
        <ele>26</ele>
        <time>2022-10-02T08:55:39.000Z</time>
      </trkpt>
      <trkpt lat="43.48963" lon="5.23234">
        <ele>26</ele>
        <time>2022-10-02T08:55:40.000Z</time>
      </trkpt>
      <trkpt lat="43.48962" lon="5.23234">
        <ele>26</ele>
        <time>2022-10-02T08:55:41.000Z</time>
      </trkpt>
      <trkpt lat="43.48962" lon="5.23234">
        <ele>26</ele>
        <time>2022-10-02T08:55:42.000Z</time>
      </trkpt>
      <trkpt lat="43.48962" lon="5.23234">
        <ele>26</ele>
        <time>2022-10-02T08:55:43.000Z</time>
      </trkpt>
      <trkpt lat="43.48962" lon="5.23234">
        <ele>26</ele>
        <time>2022-10-02T08:55:44.000Z</time>
      </trkpt>
      <trkpt lat="43.48961" lon="5.23235">
        <ele>26</ele>
        <time>2022-10-02T08:55:45.000Z</time>
      </trkpt>
      <trkpt lat="43.48961" lon="5.23235">
        <ele>26</ele>
        <time>2022-10-02T08:55:46.000Z</time>
      </trkpt>
      <trkpt lat="43.4896" lon="5.23235">
        <ele>26</ele>
        <time>2022-10-02T08:55:47.000Z</time>
      </trkpt>
      <trkpt lat="43.4896" lon="5.23235">
        <ele>26</ele>
        <time>2022-10-02T08:55:48.000Z</time>
      </trkpt>
      <trkpt lat="43.4896" lon="5.23235">
        <ele>26</ele>
        <time>2022-10-02T08:55:49.000Z</time>
      </trkpt>
      <trkpt lat="43.4896" lon="5.23235">
        <ele>26</ele>
        <time>2022-10-02T08:55:50.000Z</time>
      </trkpt>
      <trkpt lat="43.4896" lon="5.23235">
        <ele>26</ele>
        <time>2022-10-02T08:55:51.000Z</time>
      </trkpt>
      <trkpt lat="43.4896" lon="5.23234">
        <ele>26</ele>
        <time>2022-10-02T08:55:52.000Z</time>
      </trkpt>
      <trkpt lat="43.4896" lon="5.23234">
        <ele>26</ele>
        <time>2022-10-02T08:55:53.000Z</time>
      </trkpt>
      <trkpt lat="43.48961" lon="5.23234">
        <ele>26</ele>
        <time>2022-10-02T08:55:54.000Z</time>
      </trkpt>
      <trkpt lat="43.48961" lon="5.23233">
        <ele>26</ele>
        <time>2022-10-02T08:55:55.000Z</time>
      </trkpt>
      <trkpt lat="43.48961" lon="5.23233">
        <ele>26</ele>
        <time>2022-10-02T08:55:56.000Z</time>
      </trkpt>
      <trkpt lat="43.48961" lon="5.23232">
        <ele>26</ele>
        <time>2022-10-02T08:55:57.000Z</time>
      </trkpt>
      <trkpt lat="43.48961" lon="5.23232">
        <ele>26</ele>
        <time>2022-10-02T08:55:58.000Z</time>
      </trkpt>
      <trkpt lat="43.48961" lon="5.23232">
        <ele>26</ele>
        <time>2022-10-02T08:55:59.000Z</time>
      </trkpt>
      <trkpt lat="43.48961" lon="5.23232">
        <ele>26</ele>
        <time>2022-10-02T08:56:00.000Z</time>
      </trkpt>
      <trkpt lat="43.48961" lon="5.23232">
        <ele>26</ele>
        <time>2022-10-02T08:56:01.000Z</time>
      </trkpt>
      <trkpt lat="43.48962" lon="5.23232">
        <ele>26</ele>
        <time>2022-10-02T08:56:02.000Z</time>
      </trkpt>
      <trkpt lat="43.48962" lon="5.23232">
        <ele>26</ele>
        <time>2022-10-02T08:56:03.000Z</time>
      </trkpt>
      <trkpt lat="43.48962" lon="5.23232">
        <ele>26</ele>
        <time>2022-10-02T08:56:04.000Z</time>
      </trkpt>
      <trkpt lat="43.48962" lon="5.23232">
        <ele>26</ele>
        <time>2022-10-02T08:56:05.000Z</time>
      </trkpt>
      <trkpt lat="43.48962" lon="5.23232">
        <ele>26</ele>
        <time>2022-10-02T08:56:06.000Z</time>
      </trkpt>
      <trkpt lat="43.48962" lon="5.23232">
        <ele>26</ele>
        <time>2022-10-02T08:56:07.000Z</time>
      </trkpt>
      <trkpt lat="43.48962" lon="5.23233">
        <ele>26</ele>
        <time>2022-10-02T08:56:08.000Z</time>
      </trkpt>
      <trkpt lat="43.48962" lon="5.23233">
        <ele>26</ele>
        <time>2022-10-02T08:56:09.000Z</time>
      </trkpt>
      <trkpt lat="43.48962" lon="5.23233">
        <ele>26</ele>
        <time>2022-10-02T08:56:10.000Z</time>
      </trkpt>
      <trkpt lat="43.48962" lon="5.23234">
        <ele>26</ele>
        <time>2022-10-02T08:56:11.000Z</time>
      </trkpt>
      <trkpt lat="43.48961" lon="5.23234">
        <ele>26</ele>
        <time>2022-10-02T08:56:12.000Z</time>
      </trkpt>
      <trkpt lat="43.48961" lon="5.23235">
        <ele>25</ele>
        <time>2022-10-02T08:56:13.000Z</time>
      </trkpt>
      <trkpt lat="43.48961" lon="5.23235">
        <ele>25</ele>
        <time>2022-10-02T08:56:14.000Z</time>
      </trkpt>
      <trkpt lat="43.48961" lon="5.23236">
        <ele>25</ele>
        <time>2022-10-02T08:56:15.000Z</time>
      </trkpt>
      <trkpt lat="43.48961" lon="5.23238">
        <ele>25</ele>
        <time>2022-10-02T08:56:16.000Z</time>
      </trkpt>
      <trkpt lat="43.48961" lon="5.23239">
        <ele>25</ele>
        <time>2022-10-02T08:56:17.000Z</time>
      </trkpt>
      <trkpt lat="43.48961" lon="5.2324">
        <ele>25</ele>
        <time>2022-10-02T08:56:18.000Z</time>
      </trkpt>
      <trkpt lat="43.4896" lon="5.23241">
        <ele>25</ele>
        <time>2022-10-02T08:56:19.000Z</time>
      </trkpt>
      <trkpt lat="43.4896" lon="5.23242">
        <ele>25</ele>
        <time>2022-10-02T08:56:20.000Z</time>
      </trkpt>
      <trkpt lat="43.4896" lon="5.23244">
        <ele>25</ele>
        <time>2022-10-02T08:56:21.000Z</time>
      </trkpt>
      <trkpt lat="43.4896" lon="5.23244">
        <ele>25</ele>
        <time>2022-10-02T08:56:22.000Z</time>
      </trkpt>
      <trkpt lat="43.4896" lon="5.23244">
        <ele>25</ele>
        <time>2022-10-02T08:56:23.000Z</time>
      </trkpt>
      <trkpt lat="43.4896" lon="5.23244">
        <ele>25</ele>
        <time>2022-10-02T08:56:24.000Z</time>
      </trkpt>
      <trkpt lat="43.4896" lon="5.23244">
        <ele>25</ele>
        <time>2022-10-02T08:56:25.000Z</time>
      </trkpt>
      <trkpt lat="43.48961" lon="5.23243">
        <ele>25</ele>
        <time>2022-10-02T08:56:26.000Z</time>
      </trkpt>
      <trkpt lat="43.48961" lon="5.23244">
        <ele>24</ele>
        <time>2022-10-02T08:56:27.000Z</time>
      </trkpt>
      <trkpt lat="43.48963" lon="5.23244">
        <ele>24</ele>
        <time>2022-10-02T08:56:28.000Z</time>
      </trkpt>
      <trkpt lat="43.48964" lon="5.23244">
        <ele>24</ele>
        <time>2022-10-02T08:56:29.000Z</time>
      </trkpt>
      <trkpt lat="43.48966" lon="5.23245">
        <ele>24</ele>
        <time>2022-10-02T08:56:30.000Z</time>
      </trkpt>
      <trkpt lat="43.48967" lon="5.23245">
        <ele>24</ele>
        <time>2022-10-02T08:56:31.000Z</time>
      </trkpt>
      <trkpt lat="43.48968" lon="5.23246">
        <ele>24</ele>
        <time>2022-10-02T08:56:32.000Z</time>
      </trkpt>
      <trkpt lat="43.48969" lon="5.23247">
        <ele>24</ele>
        <time>2022-10-02T08:56:33.000Z</time>
      </trkpt>
      <trkpt lat="43.4897" lon="5.23247">
        <ele>24</ele>
        <time>2022-10-02T08:56:34.000Z</time>
      </trkpt>
      <trkpt lat="43.4897" lon="5.23248">
        <ele>24</ele>
        <time>2022-10-02T08:56:35.000Z</time>
      </trkpt>
      <trkpt lat="43.48971" lon="5.23248">
        <ele>24</ele>
        <time>2022-10-02T08:56:36.000Z</time>
      </trkpt>
      <trkpt lat="43.48971" lon="5.23248">
        <ele>24</ele>
        <time>2022-10-02T08:56:37.000Z</time>
      </trkpt>
      <trkpt lat="43.48971" lon="5.23248">
        <ele>24</ele>
        <time>2022-10-02T08:56:38.000Z</time>
      </trkpt>
    </trkseg>
  </trk>
</gpx>